﻿<?xml version="1.0" encoding="UTF-8"?>
<gpx version="v1.1.5" creator="iTravel Tech Inc. - http://www.itravel-tech.com" xmlns:xsi="http://www.w3.org/2001/XMLSchema-instance" xmlns="http://www.topografix.com/GPX/1/1" xsi:schemaLocation="http://www.topografix.com/GPX/1/1 http://www.topografix.com/GPX/1/1/gpx.xsd http://www.topografix.com/GPX/gpx_overlay/0/3 http://www.topografix.com/GPX/gpx_overlay/0/3/gpx_overlay.xsd http://www.topografix.com/GPX/gpx_modified/0/1 http://www.topografix.com/GPX/gpx_modified/0/1/gpx_modified.xsd">
<trk>
<name>Holux2011/04/25_09:29</name>
<trkseg>
<trkpt lat="22.315552" lon="103.662712">
<ele>769.914551</ele>
<time>2011-04-25T06:29:30Z</time>
<desc>lat.=22.315552, lon.=103.662712, Alt.=769.914551m. Speed=0.252000m/h.</desc>
<speed>0.070000</speed>
</trkpt>
<trkpt lat="22.315546" lon="103.662682">
<ele>737.398926</ele>
<time>2011-04-25T06:29:35Z</time>
<desc>lat.=22.315546, lon.=103.662682, Alt.=737.398926m. Speed=0.000000m/h.</desc>
<speed>0.000000</speed>
</trkpt>
<trkpt lat="22.315544" lon="103.662697">
<ele>740.086426</ele>
<time>2011-04-25T06:29:40Z</time>
<desc>lat.=22.315544, lon.=103.662697, Alt.=740.086426m. Speed=0.000000m/h.</desc>
<speed>0.000000</speed>
</trkpt>
<trkpt lat="22.315544" lon="103.662704">
<ele>737.977051</ele>
<time>2011-04-25T06:29:45Z</time>
<desc>lat.=22.315544, lon.=103.662704, Alt.=737.977051m. Speed=0.000000m/h.</desc>
<speed>0.000000</speed>
</trkpt>
<trkpt lat="22.315538" lon="103.662704">
<ele>738.867676</ele>
<time>2011-04-25T06:29:50Z</time>
<desc>lat.=22.315538, lon.=103.662704, Alt.=738.867676m. Speed=0.000000m/h.</desc>
<speed>0.000000</speed>
</trkpt>
<trkpt lat="22.315535" lon="103.662712">
<ele>739.836426</ele>
<time>2011-04-25T06:29:55Z</time>
<desc>lat.=22.315535, lon.=103.662712, Alt.=739.836426m. Speed=0.000000m/h.</desc>
<speed>0.000000</speed>
</trkpt>
<trkpt lat="22.315535" lon="103.662712">
<ele>739.289551</ele>
<time>2011-04-25T06:30:00Z</time>
<desc>lat.=22.315535, lon.=103.662712, Alt.=739.289551m. Speed=0.000000m/h.</desc>
<speed>0.000000</speed>
</trkpt>
<trkpt lat="22.315538" lon="103.662704">
<ele>739.023926</ele>
<time>2011-04-25T06:30:05Z</time>
<desc>lat.=22.315538, lon.=103.662704, Alt.=739.023926m. Speed=0.000000m/h.</desc>
<speed>0.000000</speed>
</trkpt>
<trkpt lat="22.315538" lon="103.662704">
<ele>739.008301</ele>
<time>2011-04-25T06:30:10Z</time>
<desc>lat.=22.315538, lon.=103.662704, Alt.=739.008301m. Speed=0.000000m/h.</desc>
<speed>0.000000</speed>
</trkpt>
<trkpt lat="22.315538" lon="103.662704">
<ele>739.008301</ele>
<time>2011-04-25T06:30:15Z</time>
<desc>lat.=22.315538, lon.=103.662704, Alt.=739.008301m. Speed=0.000000m/h.</desc>
<speed>0.000000</speed>
</trkpt>
<trkpt lat="22.315538" lon="103.662704">
<ele>739.023926</ele>
<time>2011-04-25T06:30:20Z</time>
<desc>lat.=22.315538, lon.=103.662704, Alt.=739.023926m. Speed=0.000000m/h.</desc>
<speed>0.000000</speed>
</trkpt>
<trkpt lat="22.315538" lon="103.662704">
<ele>739.039551</ele>
<time>2011-04-25T06:30:25Z</time>
<desc>lat.=22.315538, lon.=103.662704, Alt.=739.039551m. Speed=0.000000m/h.</desc>
<speed>0.000000</speed>
</trkpt>
<trkpt lat="22.315538" lon="103.662704">
<ele>738.992676</ele>
<time>2011-04-25T06:30:30Z</time>
<desc>lat.=22.315538, lon.=103.662704, Alt.=738.992676m. Speed=0.000000m/h.</desc>
<speed>0.000000</speed>
</trkpt>
<trkpt lat="22.315538" lon="103.662704">
<ele>738.898926</ele>
<time>2011-04-25T06:30:35Z</time>
<desc>lat.=22.315538, lon.=103.662704, Alt.=738.898926m. Speed=0.000000m/h.</desc>
<speed>0.000000</speed>
</trkpt>
<trkpt lat="22.315536" lon="103.662704">
<ele>738.789551</ele>
<time>2011-04-25T06:30:40Z</time>
<desc>lat.=22.315536, lon.=103.662704, Alt.=738.789551m. Speed=0.000000m/h.</desc>
<speed>0.000000</speed>
</trkpt>
<trkpt lat="22.315538" lon="103.662704">
<ele>738.695801</ele>
<time>2011-04-25T06:30:45Z</time>
<desc>lat.=22.315538, lon.=103.662704, Alt.=738.695801m. Speed=0.000000m/h.</desc>
<speed>0.000000</speed>
</trkpt>
<trkpt lat="22.315538" lon="103.662704">
<ele>738.633301</ele>
<time>2011-04-25T06:30:50Z</time>
<desc>lat.=22.315538, lon.=103.662704, Alt.=738.633301m. Speed=0.000000m/h.</desc>
<speed>0.000000</speed>
</trkpt>
<trkpt lat="22.315538" lon="103.662704">
<ele>738.570801</ele>
<time>2011-04-25T06:30:55Z</time>
<desc>lat.=22.315538, lon.=103.662704, Alt.=738.570801m. Speed=0.000000m/h.</desc>
<speed>0.000000</speed>
</trkpt>
<trkpt lat="22.315538" lon="103.662704">
<ele>738.523926</ele>
<time>2011-04-25T06:31:00Z</time>
<desc>lat.=22.315538, lon.=103.662704, Alt.=738.523926m. Speed=0.000000m/h.</desc>
<speed>0.000000</speed>
</trkpt>
<trkpt lat="22.315538" lon="103.662704">
<ele>738.492676</ele>
<time>2011-04-25T06:31:05Z</time>
<desc>lat.=22.315538, lon.=103.662704, Alt.=738.492676m. Speed=0.000000m/h.</desc>
<speed>0.000000</speed>
</trkpt>
<trkpt lat="22.315538" lon="103.662704">
<ele>738.445801</ele>
<time>2011-04-25T06:31:10Z</time>
<desc>lat.=22.315538, lon.=103.662704, Alt.=738.445801m. Speed=0.000000m/h.</desc>
<speed>0.000000</speed>
</trkpt>
<trkpt lat="22.315538" lon="103.662704">
<ele>738.430176</ele>
<time>2011-04-25T06:31:15Z</time>
<desc>lat.=22.315538, lon.=103.662704, Alt.=738.430176m. Speed=0.000000m/h.</desc>
<speed>0.000000</speed>
</trkpt>
<trkpt lat="22.315538" lon="103.662704">
<ele>738.398926</ele>
<time>2011-04-25T06:31:20Z</time>
<desc>lat.=22.315538, lon.=103.662704, Alt.=738.398926m. Speed=0.000000m/h.</desc>
<speed>0.000000</speed>
</trkpt>
<trkpt lat="22.315538" lon="103.662704">
<ele>738.602051</ele>
<time>2011-04-25T06:31:25Z</time>
<desc>lat.=22.315538, lon.=103.662704, Alt.=738.602051m. Speed=0.000000m/h.</desc>
<speed>0.000000</speed>
</trkpt>
<trkpt lat="22.315548" lon="103.662697">
<ele>739.555176</ele>
<time>2011-04-25T06:31:30Z</time>
<desc>lat.=22.315548, lon.=103.662697, Alt.=739.555176m. Speed=0.072000m/h.</desc>
<speed>0.020000</speed>
</trkpt>
<trkpt lat="22.315554" lon="103.662689">
<ele>740.273926</ele>
<time>2011-04-25T06:31:35Z</time>
<desc>lat.=22.315554, lon.=103.662689, Alt.=740.273926m. Speed=0.036000m/h.</desc>
<speed>0.010000</speed>
</trkpt>
<trkpt lat="22.315561" lon="103.662689">
<ele>740.680176</ele>
<time>2011-04-25T06:31:40Z</time>
<desc>lat.=22.315561, lon.=103.662689, Alt.=740.680176m. Speed=0.072000m/h.</desc>
<speed>0.020000</speed>
</trkpt>
<trkpt lat="22.315565" lon="103.662682">
<ele>740.945801</ele>
<time>2011-04-25T06:31:45Z</time>
<desc>lat.=22.315565, lon.=103.662682, Alt.=740.945801m. Speed=0.036000m/h.</desc>
<speed>0.010000</speed>
</trkpt>
<trkpt lat="22.315567" lon="103.662682">
<ele>740.773926</ele>
<time>2011-04-25T06:31:50Z</time>
<desc>lat.=22.315567, lon.=103.662682, Alt.=740.773926m. Speed=0.036000m/h.</desc>
<speed>0.010000</speed>
</trkpt>
<trkpt lat="22.315571" lon="103.662666">
<ele>740.586426</ele>
<time>2011-04-25T06:31:55Z</time>
<desc>lat.=22.315571, lon.=103.662666, Alt.=740.586426m. Speed=0.072000m/h.</desc>
<speed>0.020000</speed>
</trkpt>
<trkpt lat="22.315573" lon="103.662666">
<ele>740.352051</ele>
<time>2011-04-25T06:32:00Z</time>
<desc>lat.=22.315573, lon.=103.662666, Alt.=740.352051m. Speed=0.036000m/h.</desc>
<speed>0.010000</speed>
</trkpt>
<trkpt lat="22.315575" lon="103.662659">
<ele>740.664551</ele>
<time>2011-04-25T06:32:05Z</time>
<desc>lat.=22.315575, lon.=103.662659, Alt.=740.664551m. Speed=0.072000m/h.</desc>
<speed>0.020000</speed>
</trkpt>
<trkpt lat="22.315573" lon="103.662659">
<ele>740.477051</ele>
<time>2011-04-25T06:32:10Z</time>
<desc>lat.=22.315573, lon.=103.662659, Alt.=740.477051m. Speed=0.000000m/h.</desc>
<speed>0.000000</speed>
</trkpt>
<trkpt lat="22.315575" lon="103.662659">
<ele>740.398926</ele>
<time>2011-04-25T06:32:15Z</time>
<desc>lat.=22.315575, lon.=103.662659, Alt.=740.398926m. Speed=0.072000m/h.</desc>
<speed>0.020000</speed>
</trkpt>
<trkpt lat="22.315575" lon="103.662659">
<ele>740.305176</ele>
<time>2011-04-25T06:32:20Z</time>
<desc>lat.=22.315575, lon.=103.662659, Alt.=740.305176m. Speed=0.036000m/h.</desc>
<speed>0.010000</speed>
</trkpt>
<trkpt lat="22.315575" lon="103.662659">
<ele>740.164551</ele>
<time>2011-04-25T06:32:25Z</time>
<desc>lat.=22.315575, lon.=103.662659, Alt.=740.164551m. Speed=0.072000m/h.</desc>
<speed>0.020000</speed>
</trkpt>
<trkpt lat="22.315575" lon="103.662659">
<ele>739.992676</ele>
<time>2011-04-25T06:32:30Z</time>
<desc>lat.=22.315575, lon.=103.662659, Alt.=739.992676m. Speed=0.000000m/h.</desc>
<speed>0.000000</speed>
</trkpt>
<trkpt lat="22.315575" lon="103.662659">
<ele>739.789551</ele>
<time>2011-04-25T06:32:35Z</time>
<desc>lat.=22.315575, lon.=103.662659, Alt.=739.789551m. Speed=0.036000m/h.</desc>
<speed>0.010000</speed>
</trkpt>
<trkpt lat="22.315575" lon="103.662659">
<ele>739.633301</ele>
<time>2011-04-25T06:32:40Z</time>
<desc>lat.=22.315575, lon.=103.662659, Alt.=739.633301m. Speed=0.072000m/h.</desc>
<speed>0.020000</speed>
</trkpt>
<trkpt lat="22.315575" lon="103.662659">
<ele>739.508301</ele>
<time>2011-04-25T06:32:45Z</time>
<desc>lat.=22.315575, lon.=103.662659, Alt.=739.508301m. Speed=0.000000m/h.</desc>
<speed>0.000000</speed>
</trkpt>
<trkpt lat="22.315575" lon="103.662659">
<ele>739.461426</ele>
<time>2011-04-25T06:32:50Z</time>
<desc>lat.=22.315575, lon.=103.662659, Alt.=739.461426m. Speed=0.036000m/h.</desc>
<speed>0.010000</speed>
</trkpt>
<trkpt lat="22.315575" lon="103.662659">
<ele>739.430176</ele>
<time>2011-04-25T06:32:55Z</time>
<desc>lat.=22.315575, lon.=103.662659, Alt.=739.430176m. Speed=0.036000m/h.</desc>
<speed>0.010000</speed>
</trkpt>
<trkpt lat="22.315575" lon="103.662659">
<ele>739.414551</ele>
<time>2011-04-25T06:33:00Z</time>
<desc>lat.=22.315575, lon.=103.662659, Alt.=739.414551m. Speed=0.036000m/h.</desc>
<speed>0.010000</speed>
</trkpt>
<trkpt lat="22.315575" lon="103.662659">
<ele>739.383301</ele>
<time>2011-04-25T06:33:05Z</time>
<desc>lat.=22.315575, lon.=103.662659, Alt.=739.383301m. Speed=0.000000m/h.</desc>
<speed>0.000000</speed>
</trkpt>
<trkpt lat="22.315575" lon="103.662659">
<ele>739.414551</ele>
<time>2011-04-25T06:33:10Z</time>
<desc>lat.=22.315575, lon.=103.662659, Alt.=739.414551m. Speed=0.036000m/h.</desc>
<speed>0.010000</speed>
</trkpt>
<trkpt lat="22.315575" lon="103.662666">
<ele>739.508301</ele>
<time>2011-04-25T06:33:15Z</time>
<desc>lat.=22.315575, lon.=103.662666, Alt.=739.508301m. Speed=0.072000m/h.</desc>
<speed>0.020000</speed>
</trkpt>
<trkpt lat="22.315573" lon="103.662666">
<ele>739.711426</ele>
<time>2011-04-25T06:33:20Z</time>
<desc>lat.=22.315573, lon.=103.662666, Alt.=739.711426m. Speed=0.072000m/h.</desc>
<speed>0.020000</speed>
</trkpt>
<trkpt lat="22.315571" lon="103.662666">
<ele>739.961426</ele>
<time>2011-04-25T06:33:25Z</time>
<desc>lat.=22.315571, lon.=103.662666, Alt.=739.961426m. Speed=0.000000m/h.</desc>
<speed>0.000000</speed>
</trkpt>
<trkpt lat="22.315571" lon="103.662666">
<ele>740.242676</ele>
<time>2011-04-25T06:33:30Z</time>
<desc>lat.=22.315571, lon.=103.662666, Alt.=740.242676m. Speed=0.108000m/h.</desc>
<speed>0.030000</speed>
</trkpt>
<trkpt lat="22.315569" lon="103.662666">
<ele>740.539551</ele>
<time>2011-04-25T06:33:35Z</time>
<desc>lat.=22.315569, lon.=103.662666, Alt.=740.539551m. Speed=0.108000m/h.</desc>
<speed>0.030000</speed>
</trkpt>
<trkpt lat="22.315567" lon="103.662666">
<ele>740.820801</ele>
<time>2011-04-25T06:33:40Z</time>
<desc>lat.=22.315567, lon.=103.662666, Alt.=740.820801m. Speed=0.108000m/h.</desc>
<speed>0.030000</speed>
</trkpt>
<trkpt lat="22.315565" lon="103.662666">
<ele>741.133301</ele>
<time>2011-04-25T06:33:45Z</time>
<desc>lat.=22.315565, lon.=103.662666, Alt.=741.133301m. Speed=0.144000m/h.</desc>
<speed>0.040000</speed>
</trkpt>
<trkpt lat="22.315563" lon="103.662666">
<ele>741.523926</ele>
<time>2011-04-25T06:33:50Z</time>
<desc>lat.=22.315563, lon.=103.662666, Alt.=741.523926m. Speed=0.108000m/h.</desc>
<speed>0.030000</speed>
</trkpt>
<trkpt lat="22.315561" lon="103.662666">
<ele>741.930176</ele>
<time>2011-04-25T06:33:55Z</time>
<desc>lat.=22.315561, lon.=103.662666, Alt.=741.930176m. Speed=0.072000m/h.</desc>
<speed>0.020000</speed>
</trkpt>
<trkpt lat="22.315559" lon="103.662666">
<ele>742.367676</ele>
<time>2011-04-25T06:34:00Z</time>
<desc>lat.=22.315559, lon.=103.662666, Alt.=742.367676m. Speed=0.144000m/h.</desc>
<speed>0.040000</speed>
</trkpt>
<trkpt lat="22.315557" lon="103.662666">
<ele>742.773926</ele>
<time>2011-04-25T06:34:05Z</time>
<desc>lat.=22.315557, lon.=103.662666, Alt.=742.773926m. Speed=0.144000m/h.</desc>
<speed>0.040000</speed>
</trkpt>
<trkpt lat="22.315556" lon="103.662666">
<ele>743.195801</ele>
<time>2011-04-25T06:34:10Z</time>
<desc>lat.=22.315556, lon.=103.662666, Alt.=743.195801m. Speed=0.180000m/h.</desc>
<speed>0.050000</speed>
</trkpt>
<trkpt lat="22.315554" lon="103.662666">
<ele>743.586426</ele>
<time>2011-04-25T06:34:15Z</time>
<desc>lat.=22.315554, lon.=103.662666, Alt.=743.586426m. Speed=0.108000m/h.</desc>
<speed>0.030000</speed>
</trkpt>
<trkpt lat="22.315552" lon="103.662666">
<ele>743.945801</ele>
<time>2011-04-25T06:34:20Z</time>
<desc>lat.=22.315552, lon.=103.662666, Alt.=743.945801m. Speed=0.144000m/h.</desc>
<speed>0.040000</speed>
</trkpt>
<trkpt lat="22.315550" lon="103.662666">
<ele>744.258301</ele>
<time>2011-04-25T06:34:25Z</time>
<desc>lat.=22.315550, lon.=103.662666, Alt.=744.258301m. Speed=0.252000m/h.</desc>
<speed>0.070000</speed>
</trkpt>
<trkpt lat="22.315546" lon="103.662666">
<ele>744.523926</ele>
<time>2011-04-25T06:34:30Z</time>
<desc>lat.=22.315546, lon.=103.662666, Alt.=744.523926m. Speed=0.216000m/h.</desc>
<speed>0.060000</speed>
</trkpt>
<trkpt lat="22.315544" lon="103.662666">
<ele>744.758301</ele>
<time>2011-04-25T06:34:35Z</time>
<desc>lat.=22.315544, lon.=103.662666, Alt.=744.758301m. Speed=0.288000m/h.</desc>
<speed>0.080000</speed>
</trkpt>
<trkpt lat="22.315542" lon="103.662666">
<ele>744.883301</ele>
<time>2011-04-25T06:34:40Z</time>
<desc>lat.=22.315542, lon.=103.662666, Alt.=744.883301m. Speed=0.072000m/h.</desc>
<speed>0.020000</speed>
</trkpt>
<trkpt lat="22.315542" lon="103.662666">
<ele>744.789551</ele>
<time>2011-04-25T06:34:45Z</time>
<desc>lat.=22.315542, lon.=103.662666, Alt.=744.789551m. Speed=0.000000m/h.</desc>
<speed>0.000000</speed>
</trkpt>
<trkpt lat="22.315544" lon="103.662666">
<ele>744.695801</ele>
<time>2011-04-25T06:34:50Z</time>
<desc>lat.=22.315544, lon.=103.662666, Alt.=744.695801m. Speed=0.000000m/h.</desc>
<speed>0.000000</speed>
</trkpt>
<trkpt lat="22.315544" lon="103.662666">
<ele>744.648926</ele>
<time>2011-04-25T06:34:55Z</time>
<desc>lat.=22.315544, lon.=103.662666, Alt.=744.648926m. Speed=0.000000m/h.</desc>
<speed>0.000000</speed>
</trkpt>
<trkpt lat="22.315544" lon="103.662666">
<ele>744.570801</ele>
<time>2011-04-25T06:35:00Z</time>
<desc>lat.=22.315544, lon.=103.662666, Alt.=744.570801m. Speed=0.000000m/h.</desc>
<speed>0.000000</speed>
</trkpt>
<trkpt lat="22.315544" lon="103.662666">
<ele>744.398926</ele>
<time>2011-04-25T06:35:05Z</time>
<desc>lat.=22.315544, lon.=103.662666, Alt.=744.398926m. Speed=0.036000m/h.</desc>
<speed>0.010000</speed>
</trkpt>
<trkpt lat="22.315544" lon="103.662666">
<ele>744.367676</ele>
<time>2011-04-25T06:35:10Z</time>
<desc>lat.=22.315544, lon.=103.662666, Alt.=744.367676m. Speed=0.072000m/h.</desc>
<speed>0.020000</speed>
</trkpt>
<trkpt lat="22.315544" lon="103.662666">
<ele>744.320801</ele>
<time>2011-04-25T06:35:15Z</time>
<desc>lat.=22.315544, lon.=103.662666, Alt.=744.320801m. Speed=0.036000m/h.</desc>
<speed>0.010000</speed>
</trkpt>
<trkpt lat="22.315544" lon="103.662666">
<ele>744.289551</ele>
<time>2011-04-25T06:35:20Z</time>
<desc>lat.=22.315544, lon.=103.662666, Alt.=744.289551m. Speed=0.036000m/h.</desc>
<speed>0.010000</speed>
</trkpt>
<trkpt lat="22.315544" lon="103.662666">
<ele>744.242676</ele>
<time>2011-04-25T06:35:25Z</time>
<desc>lat.=22.315544, lon.=103.662666, Alt.=744.242676m. Speed=0.036000m/h.</desc>
<speed>0.010000</speed>
</trkpt>
<trkpt lat="22.315546" lon="103.662666">
<ele>744.102051</ele>
<time>2011-04-25T06:35:30Z</time>
<desc>lat.=22.315546, lon.=103.662666, Alt.=744.102051m. Speed=0.000000m/h.</desc>
<speed>0.000000</speed>
</trkpt>
<trkpt lat="22.315546" lon="103.662666">
<ele>743.945801</ele>
<time>2011-04-25T06:35:35Z</time>
<desc>lat.=22.315546, lon.=103.662666, Alt.=743.945801m. Speed=0.000000m/h.</desc>
<speed>0.000000</speed>
</trkpt>
<trkpt lat="22.315546" lon="103.662666">
<ele>743.898926</ele>
<time>2011-04-25T06:35:40Z</time>
<desc>lat.=22.315546, lon.=103.662666, Alt.=743.898926m. Speed=0.000000m/h.</desc>
<speed>0.000000</speed>
</trkpt>
<trkpt lat="22.315546" lon="103.662666">
<ele>743.867676</ele>
<time>2011-04-25T06:35:45Z</time>
<desc>lat.=22.315546, lon.=103.662666, Alt.=743.867676m. Speed=0.000000m/h.</desc>
<speed>0.000000</speed>
</trkpt>
<trkpt lat="22.315546" lon="103.662666">
<ele>743.820801</ele>
<time>2011-04-25T06:35:50Z</time>
<desc>lat.=22.315546, lon.=103.662666, Alt.=743.820801m. Speed=0.036000m/h.</desc>
<speed>0.010000</speed>
</trkpt>
<trkpt lat="22.315548" lon="103.662666">
<ele>743.789551</ele>
<time>2011-04-25T06:35:55Z</time>
<desc>lat.=22.315548, lon.=103.662666, Alt.=743.789551m. Speed=0.036000m/h.</desc>
<speed>0.010000</speed>
</trkpt>
<trkpt lat="22.315548" lon="103.662666">
<ele>743.789551</ele>
<time>2011-04-25T06:36:00Z</time>
<desc>lat.=22.315548, lon.=103.662666, Alt.=743.789551m. Speed=0.000000m/h.</desc>
<speed>0.000000</speed>
</trkpt>
<trkpt lat="22.315546" lon="103.662666">
<ele>743.789551</ele>
<time>2011-04-25T06:36:05Z</time>
<desc>lat.=22.315546, lon.=103.662666, Alt.=743.789551m. Speed=0.288000m/h.</desc>
<speed>0.080000</speed>
</trkpt>
<trkpt lat="22.315544" lon="103.662674">
<ele>743.805176</ele>
<time>2011-04-25T06:36:10Z</time>
<desc>lat.=22.315544, lon.=103.662674, Alt.=743.805176m. Speed=0.252000m/h.</desc>
<speed>0.070000</speed>
</trkpt>
<trkpt lat="22.315542" lon="103.662674">
<ele>743.820801</ele>
<time>2011-04-25T06:36:15Z</time>
<desc>lat.=22.315542, lon.=103.662674, Alt.=743.820801m. Speed=0.468000m/h.</desc>
<speed>0.130000</speed>
</trkpt>
<trkpt lat="22.315538" lon="103.662682">
<ele>743.836426</ele>
<time>2011-04-25T06:36:20Z</time>
<desc>lat.=22.315538, lon.=103.662682, Alt.=743.836426m. Speed=0.504000m/h.</desc>
<speed>0.140000</speed>
</trkpt>
<trkpt lat="22.315536" lon="103.662689">
<ele>743.836426</ele>
<time>2011-04-25T06:36:25Z</time>
<desc>lat.=22.315536, lon.=103.662689, Alt.=743.836426m. Speed=0.396000m/h.</desc>
<speed>0.110000</speed>
</trkpt>
<trkpt lat="22.315533" lon="103.662689">
<ele>743.852051</ele>
<time>2011-04-25T06:36:30Z</time>
<desc>lat.=22.315533, lon.=103.662689, Alt.=743.852051m. Speed=0.288000m/h.</desc>
<speed>0.080000</speed>
</trkpt>
<trkpt lat="22.315531" lon="103.662689">
<ele>743.867676</ele>
<time>2011-04-25T06:36:35Z</time>
<desc>lat.=22.315531, lon.=103.662689, Alt.=743.867676m. Speed=0.216000m/h.</desc>
<speed>0.060000</speed>
</trkpt>
<trkpt lat="22.315529" lon="103.662697">
<ele>743.883301</ele>
<time>2011-04-25T06:36:40Z</time>
<desc>lat.=22.315529, lon.=103.662697, Alt.=743.883301m. Speed=0.108000m/h.</desc>
<speed>0.030000</speed>
</trkpt>
<trkpt lat="22.315527" lon="103.662697">
<ele>743.914551</ele>
<time>2011-04-25T06:36:45Z</time>
<desc>lat.=22.315527, lon.=103.662697, Alt.=743.914551m. Speed=0.036000m/h.</desc>
<speed>0.010000</speed>
</trkpt>
<trkpt lat="22.315527" lon="103.662697">
<ele>743.930176</ele>
<time>2011-04-25T06:36:50Z</time>
<desc>lat.=22.315527, lon.=103.662697, Alt.=743.930176m. Speed=0.072000m/h.</desc>
<speed>0.020000</speed>
</trkpt>
<trkpt lat="22.315525" lon="103.662697">
<ele>743.945801</ele>
<time>2011-04-25T06:36:55Z</time>
<desc>lat.=22.315525, lon.=103.662697, Alt.=743.945801m. Speed=0.108000m/h.</desc>
<speed>0.030000</speed>
</trkpt>
<trkpt lat="22.315525" lon="103.662697">
<ele>743.961426</ele>
<time>2011-04-25T06:37:00Z</time>
<desc>lat.=22.315525, lon.=103.662697, Alt.=743.961426m. Speed=0.180000m/h.</desc>
<speed>0.050000</speed>
</trkpt>
<trkpt lat="22.315519" lon="103.662689">
<ele>743.977051</ele>
<time>2011-04-25T06:37:05Z</time>
<desc>lat.=22.315519, lon.=103.662689, Alt.=743.977051m. Speed=0.576000m/h.</desc>
<speed>0.160000</speed>
</trkpt>
<trkpt lat="22.315514" lon="103.662682">
<ele>744.008301</ele>
<time>2011-04-25T06:37:10Z</time>
<desc>lat.=22.315514, lon.=103.662682, Alt.=744.008301m. Speed=0.756000m/h.</desc>
<speed>0.210000</speed>
</trkpt>
<trkpt lat="22.315506" lon="103.662674">
<ele>744.023926</ele>
<time>2011-04-25T06:37:15Z</time>
<desc>lat.=22.315506, lon.=103.662674, Alt.=744.023926m. Speed=0.792000m/h.</desc>
<speed>0.220000</speed>
</trkpt>
<trkpt lat="22.315504" lon="103.662666">
<ele>744.039551</ele>
<time>2011-04-25T06:37:20Z</time>
<desc>lat.=22.315504, lon.=103.662666, Alt.=744.039551m. Speed=0.720000m/h.</desc>
<speed>0.200000</speed>
</trkpt>
<trkpt lat="22.315504" lon="103.662659">
<ele>744.055176</ele>
<time>2011-04-25T06:37:25Z</time>
<desc>lat.=22.315504, lon.=103.662659, Alt.=744.055176m. Speed=0.720000m/h.</desc>
<speed>0.200000</speed>
</trkpt>
<trkpt lat="22.315506" lon="103.662651">
<ele>744.086426</ele>
<time>2011-04-25T06:37:30Z</time>
<desc>lat.=22.315506, lon.=103.662651, Alt.=744.086426m. Speed=0.540000m/h.</desc>
<speed>0.150000</speed>
</trkpt>
<trkpt lat="22.315508" lon="103.662643">
<ele>744.102051</ele>
<time>2011-04-25T06:37:35Z</time>
<desc>lat.=22.315508, lon.=103.662643, Alt.=744.102051m. Speed=0.396000m/h.</desc>
<speed>0.110000</speed>
</trkpt>
<trkpt lat="22.315514" lon="103.662643">
<ele>744.133301</ele>
<time>2011-04-25T06:37:40Z</time>
<desc>lat.=22.315514, lon.=103.662643, Alt.=744.133301m. Speed=0.468000m/h.</desc>
<speed>0.130000</speed>
</trkpt>
<trkpt lat="22.315517" lon="103.662636">
<ele>744.164551</ele>
<time>2011-04-25T06:37:45Z</time>
<desc>lat.=22.315517, lon.=103.662636, Alt.=744.164551m. Speed=0.540000m/h.</desc>
<speed>0.150000</speed>
</trkpt>
<trkpt lat="22.315523" lon="103.662628">
<ele>744.195801</ele>
<time>2011-04-25T06:37:50Z</time>
<desc>lat.=22.315523, lon.=103.662628, Alt.=744.195801m. Speed=0.396000m/h.</desc>
<speed>0.110000</speed>
</trkpt>
<trkpt lat="22.315525" lon="103.662628">
<ele>744.242676</ele>
<time>2011-04-25T06:37:55Z</time>
<desc>lat.=22.315525, lon.=103.662628, Alt.=744.242676m. Speed=0.036000m/h.</desc>
<speed>0.010000</speed>
</trkpt>
<trkpt lat="22.315525" lon="103.662628">
<ele>744.258301</ele>
<time>2011-04-25T06:38:00Z</time>
<desc>lat.=22.315525, lon.=103.662628, Alt.=744.258301m. Speed=0.072000m/h.</desc>
<speed>0.020000</speed>
</trkpt>
<trkpt lat="22.315525" lon="103.662628">
<ele>744.258301</ele>
<time>2011-04-25T06:38:05Z</time>
<desc>lat.=22.315525, lon.=103.662628, Alt.=744.258301m. Speed=0.000000m/h.</desc>
<speed>0.000000</speed>
</trkpt>
<trkpt lat="22.315527" lon="103.662628">
<ele>744.242676</ele>
<time>2011-04-25T06:38:10Z</time>
<desc>lat.=22.315527, lon.=103.662628, Alt.=744.242676m. Speed=0.036000m/h.</desc>
<speed>0.010000</speed>
</trkpt>
<trkpt lat="22.315527" lon="103.662628">
<ele>744.242676</ele>
<time>2011-04-25T06:38:15Z</time>
<desc>lat.=22.315527, lon.=103.662628, Alt.=744.242676m. Speed=0.072000m/h.</desc>
<speed>0.020000</speed>
</trkpt>
<trkpt lat="22.315525" lon="103.662628">
<ele>744.242676</ele>
<time>2011-04-25T06:38:20Z</time>
<desc>lat.=22.315525, lon.=103.662628, Alt.=744.242676m. Speed=0.180000m/h.</desc>
<speed>0.050000</speed>
</trkpt>
<trkpt lat="22.315521" lon="103.662628">
<ele>744.242676</ele>
<time>2011-04-25T06:38:25Z</time>
<desc>lat.=22.315521, lon.=103.662628, Alt.=744.242676m. Speed=0.324000m/h.</desc>
<speed>0.090000</speed>
</trkpt>
<trkpt lat="22.315514" lon="103.662628">
<ele>744.242676</ele>
<time>2011-04-25T06:38:30Z</time>
<desc>lat.=22.315514, lon.=103.662628, Alt.=744.242676m. Speed=1.008000m/h.</desc>
<speed>0.280000</speed>
</trkpt>
<trkpt lat="22.315437" lon="103.662590">
<ele>744.180176</ele>
<time>2011-04-25T06:38:35Z</time>
<desc>lat.=22.315437, lon.=103.662590, Alt.=744.180176m. Speed=3.492000m/h.</desc>
<speed>0.970000</speed>
</trkpt>
<trkpt lat="22.315283" lon="103.662575">
<ele>743.992676</ele>
<time>2011-04-25T06:38:40Z</time>
<desc>lat.=22.315283, lon.=103.662575, Alt.=743.992676m. Speed=8.208000m/h.</desc>
<speed>2.280000</speed>
</trkpt>
<trkpt lat="22.315197" lon="103.662544">
<ele>743.445801</ele>
<time>2011-04-25T06:38:45Z</time>
<desc>lat.=22.315197, lon.=103.662544, Alt.=743.445801m. Speed=4.968000m/h.</desc>
<speed>1.380000</speed>
</trkpt>
<trkpt lat="22.315077" lon="103.662521">
<ele>743.398926</ele>
<time>2011-04-25T06:38:50Z</time>
<desc>lat.=22.315077, lon.=103.662521, Alt.=743.398926m. Speed=5.076000m/h.</desc>
<speed>1.410000</speed>
</trkpt>
<trkpt lat="22.315010" lon="103.662483">
<ele>742.727051</ele>
<time>2011-04-25T06:38:55Z</time>
<desc>lat.=22.315010, lon.=103.662483, Alt.=742.727051m. Speed=0.864000m/h.</desc>
<speed>0.240000</speed>
</trkpt>
<trkpt lat="22.315002" lon="103.662476">
<ele>742.820801</ele>
<time>2011-04-25T06:39:00Z</time>
<desc>lat.=22.315002, lon.=103.662476, Alt.=742.820801m. Speed=0.756000m/h.</desc>
<speed>0.210000</speed>
</trkpt>
<trkpt lat="22.314999" lon="103.662476">
<ele>742.898926</ele>
<time>2011-04-25T06:39:05Z</time>
<desc>lat.=22.314999, lon.=103.662476, Alt.=742.898926m. Speed=0.108000m/h.</desc>
<speed>0.030000</speed>
</trkpt>
<trkpt lat="22.315001" lon="103.662468">
<ele>742.977051</ele>
<time>2011-04-25T06:39:10Z</time>
<desc>lat.=22.315001, lon.=103.662468, Alt.=742.977051m. Speed=0.396000m/h.</desc>
<speed>0.110000</speed>
</trkpt>
<trkpt lat="22.315002" lon="103.662468">
<ele>743.039551</ele>
<time>2011-04-25T06:39:15Z</time>
<desc>lat.=22.315002, lon.=103.662468, Alt.=743.039551m. Speed=0.288000m/h.</desc>
<speed>0.080000</speed>
</trkpt>
<trkpt lat="22.315001" lon="103.662460">
<ele>743.102051</ele>
<time>2011-04-25T06:39:20Z</time>
<desc>lat.=22.315001, lon.=103.662460, Alt.=743.102051m. Speed=0.504000m/h.</desc>
<speed>0.140000</speed>
</trkpt>
<trkpt lat="22.314793" lon="103.662483">
<ele>742.539551</ele>
<time>2011-04-25T06:39:25Z</time>
<desc>lat.=22.314793, lon.=103.662483, Alt.=742.539551m. Speed=20.700001m/h.</desc>
<speed>5.750000</speed>
</trkpt>
<trkpt lat="22.314434" lon="103.662582">
<ele>742.727051</ele>
<time>2011-04-25T06:39:30Z</time>
<desc>lat.=22.314434, lon.=103.662582, Alt.=742.727051m. Speed=30.816000m/h.</desc>
<speed>8.560000</speed>
</trkpt>
<trkpt lat="22.313999" lon="103.662735">
<ele>743.070801</ele>
<time>2011-04-25T06:39:35Z</time>
<desc>lat.=22.313999, lon.=103.662735, Alt.=743.070801m. Speed=38.411999m/h.</desc>
<speed>10.670000</speed>
</trkpt>
<trkpt lat="22.313547" lon="103.662804">
<ele>743.508301</ele>
<time>2011-04-25T06:39:40Z</time>
<desc>lat.=22.313547, lon.=103.662804, Alt.=743.508301m. Speed=35.279999m/h.</desc>
<speed>9.800000</speed>
</trkpt>
<trkpt lat="22.313145" lon="103.662758">
<ele>744.430176</ele>
<time>2011-04-25T06:39:45Z</time>
<desc>lat.=22.313145, lon.=103.662758, Alt.=744.430176m. Speed=32.256001m/h.</desc>
<speed>8.960000</speed>
</trkpt>
<trkpt lat="22.312744" lon="103.662720">
<ele>745.539551</ele>
<time>2011-04-25T06:39:50Z</time>
<desc>lat.=22.312744, lon.=103.662720, Alt.=745.539551m. Speed=30.708000m/h.</desc>
<speed>8.530000</speed>
</trkpt>
<trkpt lat="22.312401" lon="103.662674">
<ele>747.086426</ele>
<time>2011-04-25T06:39:55Z</time>
<desc>lat.=22.312401, lon.=103.662674, Alt.=747.086426m. Speed=22.032000m/h.</desc>
<speed>6.120000</speed>
</trkpt>
<trkpt lat="22.312191" lon="103.662636">
<ele>748.836426</ele>
<time>2011-04-25T06:40:00Z</time>
<desc>lat.=22.312191, lon.=103.662636, Alt.=748.836426m. Speed=14.652000m/h.</desc>
<speed>4.070000</speed>
</trkpt>
<trkpt lat="22.312000" lon="103.662590">
<ele>750.742676</ele>
<time>2011-04-25T06:40:05Z</time>
<desc>lat.=22.312000, lon.=103.662590, Alt.=750.742676m. Speed=15.516000m/h.</desc>
<speed>4.310000</speed>
</trkpt>
<trkpt lat="22.311769" lon="103.662575">
<ele>752.586426</ele>
<time>2011-04-25T06:40:10Z</time>
<desc>lat.=22.311769, lon.=103.662575, Alt.=752.586426m. Speed=16.955999m/h.</desc>
<speed>4.710000</speed>
</trkpt>
<trkpt lat="22.311525" lon="103.662575">
<ele>754.273926</ele>
<time>2011-04-25T06:40:15Z</time>
<desc>lat.=22.311525, lon.=103.662575, Alt.=754.273926m. Speed=19.296000m/h.</desc>
<speed>5.360000</speed>
</trkpt>
<trkpt lat="22.311255" lon="103.662659">
<ele>755.555176</ele>
<time>2011-04-25T06:40:20Z</time>
<desc>lat.=22.311255, lon.=103.662659, Alt.=755.555176m. Speed=20.304001m/h.</desc>
<speed>5.640000</speed>
</trkpt>
<trkpt lat="22.311007" lon="103.662712">
<ele>756.789551</ele>
<time>2011-04-25T06:40:25Z</time>
<desc>lat.=22.311007, lon.=103.662712, Alt.=756.789551m. Speed=19.944000m/h.</desc>
<speed>5.540000</speed>
</trkpt>
<trkpt lat="22.310789" lon="103.662811">
<ele>758.008301</ele>
<time>2011-04-25T06:40:30Z</time>
<desc>lat.=22.310789, lon.=103.662811, Alt.=758.008301m. Speed=17.820000m/h.</desc>
<speed>4.950000</speed>
</trkpt>
<trkpt lat="22.310610" lon="103.662918">
<ele>758.898926</ele>
<time>2011-04-25T06:40:35Z</time>
<desc>lat.=22.310610, lon.=103.662918, Alt.=758.898926m. Speed=15.012000m/h.</desc>
<speed>4.170000</speed>
</trkpt>
<trkpt lat="22.310480" lon="103.663010">
<ele>760.102051</ele>
<time>2011-04-25T06:40:40Z</time>
<desc>lat.=22.310480, lon.=103.663010, Alt.=760.102051m. Speed=9.720000m/h.</desc>
<speed>2.700000</speed>
</trkpt>
<trkpt lat="22.310419" lon="103.663025">
<ele>761.430176</ele>
<time>2011-04-25T06:40:45Z</time>
<desc>lat.=22.310419, lon.=103.663025, Alt.=761.430176m. Speed=2.880000m/h.</desc>
<speed>0.800000</speed>
</trkpt>
<trkpt lat="22.310326" lon="103.663078">
<ele>762.508301</ele>
<time>2011-04-25T06:40:50Z</time>
<desc>lat.=22.310326, lon.=103.663078, Alt.=762.508301m. Speed=10.044000m/h.</desc>
<speed>2.790000</speed>
</trkpt>
<trkpt lat="22.310169" lon="103.663155">
<ele>762.820801</ele>
<time>2011-04-25T06:40:55Z</time>
<desc>lat.=22.310169, lon.=103.663155, Alt.=762.820801m. Speed=15.480000m/h.</desc>
<speed>4.300000</speed>
</trkpt>
<trkpt lat="22.309963" lon="103.663277">
<ele>762.836426</ele>
<time>2011-04-25T06:41:00Z</time>
<desc>lat.=22.309963, lon.=103.663277, Alt.=762.836426m. Speed=21.888000m/h.</desc>
<speed>6.080000</speed>
</trkpt>
<trkpt lat="22.309690" lon="103.663406">
<ele>762.570801</ele>
<time>2011-04-25T06:41:05Z</time>
<desc>lat.=22.309690, lon.=103.663406, Alt.=762.570801m. Speed=26.892000m/h.</desc>
<speed>7.470000</speed>
</trkpt>
<trkpt lat="22.309366" lon="103.663574">
<ele>762.102051</ele>
<time>2011-04-25T06:41:10Z</time>
<desc>lat.=22.309366, lon.=103.663574, Alt.=762.102051m. Speed=30.240000m/h.</desc>
<speed>8.400000</speed>
</trkpt>
<trkpt lat="22.309006" lon="103.663742">
<ele>761.633301</ele>
<time>2011-04-25T06:41:15Z</time>
<desc>lat.=22.309006, lon.=103.663742, Alt.=761.633301m. Speed=31.752001m/h.</desc>
<speed>8.820000</speed>
</trkpt>
<trkpt lat="22.308662" lon="103.663918">
<ele>761.539551</ele>
<time>2011-04-25T06:41:20Z</time>
<desc>lat.=22.308662, lon.=103.663918, Alt.=761.539551m. Speed=29.087999m/h.</desc>
<speed>8.080000</speed>
</trkpt>
<trkpt lat="22.308365" lon="103.664078">
<ele>761.617676</ele>
<time>2011-04-25T06:41:25Z</time>
<desc>lat.=22.308365, lon.=103.664078, Alt.=761.617676m. Speed=24.480000m/h.</desc>
<speed>6.800000</speed>
</trkpt>
<trkpt lat="22.308046" lon="103.664253">
<ele>761.820801</ele>
<time>2011-04-25T06:41:30Z</time>
<desc>lat.=22.308046, lon.=103.664253, Alt.=761.820801m. Speed=25.452000m/h.</desc>
<speed>7.070000</speed>
</trkpt>
<trkpt lat="22.307730" lon="103.664413">
<ele>761.789551</ele>
<time>2011-04-25T06:41:35Z</time>
<desc>lat.=22.307730, lon.=103.664413, Alt.=761.789551m. Speed=27.719999m/h.</desc>
<speed>7.700000</speed>
</trkpt>
<trkpt lat="22.307423" lon="103.664589">
<ele>762.289551</ele>
<time>2011-04-25T06:41:40Z</time>
<desc>lat.=22.307423, lon.=103.664589, Alt.=762.289551m. Speed=24.444000m/h.</desc>
<speed>6.790000</speed>
</trkpt>
<trkpt lat="22.307142" lon="103.664696">
<ele>762.570801</ele>
<time>2011-04-25T06:41:45Z</time>
<desc>lat.=22.307142, lon.=103.664696, Alt.=762.570801m. Speed=19.440001m/h.</desc>
<speed>5.400000</speed>
</trkpt>
<trkpt lat="22.306883" lon="103.664757">
<ele>762.273926</ele>
<time>2011-04-25T06:41:50Z</time>
<desc>lat.=22.306883, lon.=103.664757, Alt.=762.273926m. Speed=20.520000m/h.</desc>
<speed>5.700000</speed>
</trkpt>
<trkpt lat="22.306627" lon="103.664825">
<ele>762.367676</ele>
<time>2011-04-25T06:41:55Z</time>
<desc>lat.=22.306627, lon.=103.664825, Alt.=762.367676m. Speed=19.080000m/h.</desc>
<speed>5.300000</speed>
</trkpt>
<trkpt lat="22.306332" lon="103.664886">
<ele>762.273926</ele>
<time>2011-04-25T06:42:00Z</time>
<desc>lat.=22.306332, lon.=103.664886, Alt.=762.273926m. Speed=19.511999m/h.</desc>
<speed>5.420000</speed>
</trkpt>
<trkpt lat="22.306107" lon="103.665054">
<ele>762.773926</ele>
<time>2011-04-25T06:42:05Z</time>
<desc>lat.=22.306107, lon.=103.665054, Alt.=762.773926m. Speed=19.656000m/h.</desc>
<speed>5.460000</speed>
</trkpt>
<trkpt lat="22.305964" lon="103.665283">
<ele>763.336426</ele>
<time>2011-04-25T06:42:10Z</time>
<desc>lat.=22.305964, lon.=103.665283, Alt.=763.336426m. Speed=18.684000m/h.</desc>
<speed>5.190000</speed>
</trkpt>
<trkpt lat="22.305857" lon="103.665497">
<ele>764.164551</ele>
<time>2011-04-25T06:42:15Z</time>
<desc>lat.=22.305857, lon.=103.665497, Alt.=764.164551m. Speed=16.704000m/h.</desc>
<speed>4.640000</speed>
</trkpt>
<trkpt lat="22.305775" lon="103.665718">
<ele>764.680176</ele>
<time>2011-04-25T06:42:20Z</time>
<desc>lat.=22.305775, lon.=103.665718, Alt.=764.680176m. Speed=12.168000m/h.</desc>
<speed>3.380000</speed>
</trkpt>
<trkpt lat="22.305651" lon="103.665932">
<ele>765.617676</ele>
<time>2011-04-25T06:42:25Z</time>
<desc>lat.=22.305651, lon.=103.665932, Alt.=765.617676m. Speed=13.284000m/h.</desc>
<speed>3.690000</speed>
</trkpt>
<trkpt lat="22.305531" lon="103.666069">
<ele>765.945801</ele>
<time>2011-04-25T06:42:30Z</time>
<desc>lat.=22.305531, lon.=103.666069, Alt.=765.945801m. Speed=14.400000m/h.</desc>
<speed>4.000000</speed>
</trkpt>
<trkpt lat="22.305363" lon="103.666229">
<ele>766.039551</ele>
<time>2011-04-25T06:42:35Z</time>
<desc>lat.=22.305363, lon.=103.666229, Alt.=766.039551m. Speed=15.804000m/h.</desc>
<speed>4.390000</speed>
</trkpt>
<trkpt lat="22.305239" lon="103.666351">
<ele>767.180176</ele>
<time>2011-04-25T06:42:40Z</time>
<desc>lat.=22.305239, lon.=103.666351, Alt.=767.180176m. Speed=12.852000m/h.</desc>
<speed>3.570000</speed>
</trkpt>
<trkpt lat="22.305098" lon="103.666420">
<ele>767.914551</ele>
<time>2011-04-25T06:42:45Z</time>
<desc>lat.=22.305098, lon.=103.666420, Alt.=767.914551m. Speed=10.512000m/h.</desc>
<speed>2.920000</speed>
</trkpt>
<trkpt lat="22.304897" lon="103.666504">
<ele>768.414551</ele>
<time>2011-04-25T06:42:50Z</time>
<desc>lat.=22.304897, lon.=103.666504, Alt.=768.414551m. Speed=11.520000m/h.</desc>
<speed>3.200000</speed>
</trkpt>
<trkpt lat="22.304760" lon="103.666580">
<ele>762.227051</ele>
<time>2011-04-25T06:42:55Z</time>
<desc>lat.=22.304760, lon.=103.666580, Alt.=762.227051m. Speed=12.456000m/h.</desc>
<speed>3.460000</speed>
</trkpt>
<trkpt lat="22.304605" lon="103.666679">
<ele>757.430176</ele>
<time>2011-04-25T06:43:00Z</time>
<desc>lat.=22.304605, lon.=103.666679, Alt.=757.430176m. Speed=14.544000m/h.</desc>
<speed>4.040000</speed>
</trkpt>
<trkpt lat="22.304434" lon="103.666763">
<ele>756.258301</ele>
<time>2011-04-25T06:43:05Z</time>
<desc>lat.=22.304434, lon.=103.666763, Alt.=756.258301m. Speed=13.572000m/h.</desc>
<speed>3.770000</speed>
</trkpt>
<trkpt lat="22.304260" lon="103.666832">
<ele>755.352051</ele>
<time>2011-04-25T06:43:10Z</time>
<desc>lat.=22.304260, lon.=103.666832, Alt.=755.352051m. Speed=14.076000m/h.</desc>
<speed>3.910000</speed>
</trkpt>
<trkpt lat="22.304077" lon="103.666901">
<ele>754.445801</ele>
<time>2011-04-25T06:43:15Z</time>
<desc>lat.=22.304077, lon.=103.666901, Alt.=754.445801m. Speed=15.120000m/h.</desc>
<speed>4.200000</speed>
</trkpt>
<trkpt lat="22.303885" lon="103.666992">
<ele>754.023926</ele>
<time>2011-04-25T06:43:20Z</time>
<desc>lat.=22.303885, lon.=103.666992, Alt.=754.023926m. Speed=16.596001m/h.</desc>
<speed>4.610000</speed>
</trkpt>
<trkpt lat="22.303679" lon="103.667084">
<ele>753.727051</ele>
<time>2011-04-25T06:43:25Z</time>
<desc>lat.=22.303679, lon.=103.667084, Alt.=753.727051m. Speed=16.091999m/h.</desc>
<speed>4.470000</speed>
</trkpt>
<trkpt lat="22.303480" lon="103.667130">
<ele>752.852051</ele>
<time>2011-04-25T06:43:30Z</time>
<desc>lat.=22.303480, lon.=103.667130, Alt.=752.852051m. Speed=14.472000m/h.</desc>
<speed>4.020000</speed>
</trkpt>
<trkpt lat="22.303240" lon="103.667183">
<ele>752.086426</ele>
<time>2011-04-25T06:43:35Z</time>
<desc>lat.=22.303240, lon.=103.667183, Alt.=752.086426m. Speed=18.360001m/h.</desc>
<speed>5.100000</speed>
</trkpt>
<trkpt lat="22.302996" lon="103.667244">
<ele>751.602051</ele>
<time>2011-04-25T06:43:40Z</time>
<desc>lat.=22.302996, lon.=103.667244, Alt.=751.602051m. Speed=20.988001m/h.</desc>
<speed>5.830000</speed>
</trkpt>
<trkpt lat="22.302715" lon="103.667305">
<ele>750.492676</ele>
<time>2011-04-25T06:43:45Z</time>
<desc>lat.=22.302715, lon.=103.667305, Alt.=750.492676m. Speed=20.556000m/h.</desc>
<speed>5.710000</speed>
</trkpt>
<trkpt lat="22.302475" lon="103.667343">
<ele>750.211426</ele>
<time>2011-04-25T06:43:50Z</time>
<desc>lat.=22.302475, lon.=103.667343, Alt.=750.211426m. Speed=18.648001m/h.</desc>
<speed>5.180000</speed>
</trkpt>
<trkpt lat="22.302168" lon="103.667404">
<ele>748.898926</ele>
<time>2011-04-25T06:43:55Z</time>
<desc>lat.=22.302168, lon.=103.667404, Alt.=748.898926m. Speed=20.268000m/h.</desc>
<speed>5.630000</speed>
</trkpt>
<trkpt lat="22.301941" lon="103.667496">
<ele>748.383301</ele>
<time>2011-04-25T06:44:00Z</time>
<desc>lat.=22.301941, lon.=103.667496, Alt.=748.383301m. Speed=15.588000m/h.</desc>
<speed>4.330000</speed>
</trkpt>
<trkpt lat="22.301744" lon="103.667580">
<ele>747.805176</ele>
<time>2011-04-25T06:44:05Z</time>
<desc>lat.=22.301744, lon.=103.667580, Alt.=747.805176m. Speed=14.544000m/h.</desc>
<speed>4.040000</speed>
</trkpt>
<trkpt lat="22.301544" lon="103.667664">
<ele>746.898926</ele>
<time>2011-04-25T06:44:10Z</time>
<desc>lat.=22.301544, lon.=103.667664, Alt.=746.898926m. Speed=14.616000m/h.</desc>
<speed>4.060000</speed>
</trkpt>
<trkpt lat="22.301371" lon="103.667786">
<ele>746.086426</ele>
<time>2011-04-25T06:44:15Z</time>
<desc>lat.=22.301371, lon.=103.667786, Alt.=746.086426m. Speed=11.772000m/h.</desc>
<speed>3.270000</speed>
</trkpt>
<trkpt lat="22.301191" lon="103.667892">
<ele>745.555176</ele>
<time>2011-04-25T06:44:20Z</time>
<desc>lat.=22.301191, lon.=103.667892, Alt.=745.555176m. Speed=13.464000m/h.</desc>
<speed>3.740000</speed>
</trkpt>
<trkpt lat="22.301010" lon="103.667969">
<ele>744.930176</ele>
<time>2011-04-25T06:44:25Z</time>
<desc>lat.=22.301010, lon.=103.667969, Alt.=744.930176m. Speed=12.564000m/h.</desc>
<speed>3.490000</speed>
</trkpt>
<trkpt lat="22.300835" lon="103.668152">
<ele>744.852051</ele>
<time>2011-04-25T06:44:30Z</time>
<desc>lat.=22.300835, lon.=103.668152, Alt.=744.852051m. Speed=18.900000m/h.</desc>
<speed>5.250000</speed>
</trkpt>
<trkpt lat="22.300697" lon="103.668365">
<ele>744.680176</ele>
<time>2011-04-25T06:44:35Z</time>
<desc>lat.=22.300697, lon.=103.668365, Alt.=744.680176m. Speed=18.000000m/h.</desc>
<speed>5.000000</speed>
</trkpt>
<trkpt lat="22.300520" lon="103.668602">
<ele>744.367676</ele>
<time>2011-04-25T06:44:40Z</time>
<desc>lat.=22.300520, lon.=103.668602, Alt.=744.367676m. Speed=19.080000m/h.</desc>
<speed>5.300000</speed>
</trkpt>
<trkpt lat="22.300285" lon="103.668747">
<ele>743.727051</ele>
<time>2011-04-25T06:44:45Z</time>
<desc>lat.=22.300285, lon.=103.668747, Alt.=743.727051m. Speed=17.604000m/h.</desc>
<speed>4.890000</speed>
</trkpt>
<trkpt lat="22.300001" lon="103.668839">
<ele>742.727051</ele>
<time>2011-04-25T06:44:50Z</time>
<desc>lat.=22.300001, lon.=103.668839, Alt.=742.727051m. Speed=18.827999m/h.</desc>
<speed>5.230000</speed>
</trkpt>
<trkpt lat="22.299772" lon="103.668892">
<ele>743.117676</ele>
<time>2011-04-25T06:44:55Z</time>
<desc>lat.=22.299772, lon.=103.668892, Alt.=743.117676m. Speed=15.696000m/h.</desc>
<speed>4.360000</speed>
</trkpt>
<trkpt lat="22.299551" lon="103.668953">
<ele>743.430176</ele>
<time>2011-04-25T06:45:00Z</time>
<desc>lat.=22.299551, lon.=103.668953, Alt.=743.430176m. Speed=14.004000m/h.</desc>
<speed>3.890000</speed>
</trkpt>
<trkpt lat="22.299316" lon="103.668991">
<ele>743.539551</ele>
<time>2011-04-25T06:45:05Z</time>
<desc>lat.=22.299316, lon.=103.668991, Alt.=743.539551m. Speed=15.048000m/h.</desc>
<speed>4.180000</speed>
</trkpt>
<trkpt lat="22.299011" lon="103.669014">
<ele>743.227051</ele>
<time>2011-04-25T06:45:10Z</time>
<desc>lat.=22.299011, lon.=103.669014, Alt.=743.227051m. Speed=19.908001m/h.</desc>
<speed>5.530000</speed>
</trkpt>
<trkpt lat="22.298742" lon="103.669044">
<ele>742.680176</ele>
<time>2011-04-25T06:45:15Z</time>
<desc>lat.=22.298742, lon.=103.669044, Alt.=742.680176m. Speed=20.087999m/h.</desc>
<speed>5.580000</speed>
</trkpt>
<trkpt lat="22.298481" lon="103.669060">
<ele>742.117676</ele>
<time>2011-04-25T06:45:20Z</time>
<desc>lat.=22.298481, lon.=103.669060, Alt.=742.117676m. Speed=18.504000m/h.</desc>
<speed>5.140000</speed>
</trkpt>
<trkpt lat="22.298197" lon="103.669128">
<ele>740.430176</ele>
<time>2011-04-25T06:45:25Z</time>
<desc>lat.=22.298197, lon.=103.669128, Alt.=740.430176m. Speed=23.184000m/h.</desc>
<speed>6.440000</speed>
</trkpt>
<trkpt lat="22.297890" lon="103.669235">
<ele>738.383301</ele>
<time>2011-04-25T06:45:30Z</time>
<desc>lat.=22.297890, lon.=103.669235, Alt.=738.383301m. Speed=25.020000m/h.</desc>
<speed>6.950000</speed>
</trkpt>
<trkpt lat="22.297577" lon="103.669350">
<ele>736.945801</ele>
<time>2011-04-25T06:45:35Z</time>
<desc>lat.=22.297577, lon.=103.669350, Alt.=736.945801m. Speed=23.148001m/h.</desc>
<speed>6.430000</speed>
</trkpt>
<trkpt lat="22.297382" lon="103.669449">
<ele>735.742676</ele>
<time>2011-04-25T06:45:40Z</time>
<desc>lat.=22.297382, lon.=103.669449, Alt.=735.742676m. Speed=7.920000m/h.</desc>
<speed>2.200000</speed>
</trkpt>
<trkpt lat="22.297293" lon="103.669617">
<ele>735.242676</ele>
<time>2011-04-25T06:45:45Z</time>
<desc>lat.=22.297293, lon.=103.669617, Alt.=735.242676m. Speed=14.508000m/h.</desc>
<speed>4.030000</speed>
</trkpt>
<trkpt lat="22.297207" lon="103.669960">
<ele>735.273926</ele>
<time>2011-04-25T06:45:50Z</time>
<desc>lat.=22.297207, lon.=103.669960, Alt.=735.273926m. Speed=24.768000m/h.</desc>
<speed>6.880000</speed>
</trkpt>
<trkpt lat="22.297003" lon="103.670280">
<ele>734.117676</ele>
<time>2011-04-25T06:45:55Z</time>
<desc>lat.=22.297003, lon.=103.670280, Alt.=734.117676m. Speed=30.816000m/h.</desc>
<speed>8.560000</speed>
</trkpt>
<trkpt lat="22.296587" lon="103.670341">
<ele>732.727051</ele>
<time>2011-04-25T06:46:00Z</time>
<desc>lat.=22.296587, lon.=103.670341, Alt.=732.727051m. Speed=31.500000m/h.</desc>
<speed>8.750000</speed>
</trkpt>
<trkpt lat="22.296177" lon="103.670288">
<ele>731.617676</ele>
<time>2011-04-25T06:46:05Z</time>
<desc>lat.=22.296177, lon.=103.670288, Alt.=731.617676m. Speed=32.220001m/h.</desc>
<speed>8.950000</speed>
</trkpt>
<trkpt lat="22.295805" lon="103.670128">
<ele>730.461426</ele>
<time>2011-04-25T06:46:10Z</time>
<desc>lat.=22.295805, lon.=103.670128, Alt.=730.461426m. Speed=30.816000m/h.</desc>
<speed>8.560000</speed>
</trkpt>
<trkpt lat="22.295553" lon="103.669830">
<ele>729.492676</ele>
<time>2011-04-25T06:46:15Z</time>
<desc>lat.=22.295553, lon.=103.669830, Alt.=729.492676m. Speed=28.980000m/h.</desc>
<speed>8.050000</speed>
</trkpt>
<trkpt lat="22.295267" lon="103.669563">
<ele>728.758301</ele>
<time>2011-04-25T06:46:20Z</time>
<desc>lat.=22.295267, lon.=103.669563, Alt.=728.758301m. Speed=27.792000m/h.</desc>
<speed>7.720000</speed>
</trkpt>
<trkpt lat="22.294935" lon="103.669487">
<ele>728.508301</ele>
<time>2011-04-25T06:46:25Z</time>
<desc>lat.=22.294935, lon.=103.669487, Alt.=728.508301m. Speed=25.344000m/h.</desc>
<speed>7.040000</speed>
</trkpt>
<trkpt lat="22.294622" lon="103.669609">
<ele>728.289551</ele>
<time>2011-04-25T06:46:30Z</time>
<desc>lat.=22.294622, lon.=103.669609, Alt.=728.289551m. Speed=26.964001m/h.</desc>
<speed>7.490000</speed>
</trkpt>
<trkpt lat="22.294376" lon="103.669853">
<ele>728.023926</ele>
<time>2011-04-25T06:46:35Z</time>
<desc>lat.=22.294376, lon.=103.669853, Alt.=728.023926m. Speed=27.323999m/h.</desc>
<speed>7.590000</speed>
</trkpt>
<trkpt lat="22.294069" lon="103.670029">
<ele>727.805176</ele>
<time>2011-04-25T06:46:40Z</time>
<desc>lat.=22.294069, lon.=103.670029, Alt.=727.805176m. Speed=21.780001m/h.</desc>
<speed>6.050000</speed>
</trkpt>
<trkpt lat="22.293858" lon="103.670090">
<ele>726.914551</ele>
<time>2011-04-25T06:46:45Z</time>
<desc>lat.=22.293858, lon.=103.670090, Alt.=726.914551m. Speed=13.140000m/h.</desc>
<speed>3.650000</speed>
</trkpt>
<trkpt lat="22.293650" lon="103.670143">
<ele>726.164551</ele>
<time>2011-04-25T06:46:50Z</time>
<desc>lat.=22.293650, lon.=103.670143, Alt.=726.164551m. Speed=17.172001m/h.</desc>
<speed>4.770000</speed>
</trkpt>
<trkpt lat="22.293362" lon="103.670189">
<ele>725.805176</ele>
<time>2011-04-25T06:46:55Z</time>
<desc>lat.=22.293362, lon.=103.670189, Alt.=725.805176m. Speed=26.927999m/h.</desc>
<speed>7.480000</speed>
</trkpt>
<trkpt lat="22.292999" lon="103.670120">
<ele>725.086426</ele>
<time>2011-04-25T06:47:00Z</time>
<desc>lat.=22.292999, lon.=103.670120, Alt.=725.086426m. Speed=31.788000m/h.</desc>
<speed>8.830000</speed>
</trkpt>
<trkpt lat="22.292534" lon="103.670006">
<ele>724.102051</ele>
<time>2011-04-25T06:47:05Z</time>
<desc>lat.=22.292534, lon.=103.670006, Alt.=724.102051m. Speed=41.292000m/h.</desc>
<speed>11.470000</speed>
</trkpt>
<trkpt lat="22.291893" lon="103.670006">
<ele>721.180176</ele>
<time>2011-04-25T06:47:10Z</time>
<desc>lat.=22.291893, lon.=103.670006, Alt.=721.180176m. Speed=48.528000m/h.</desc>
<speed>13.480000</speed>
</trkpt>
<trkpt lat="22.291281" lon="103.670090">
<ele>718.852051</ele>
<time>2011-04-25T06:47:15Z</time>
<desc>lat.=22.291281, lon.=103.670090, Alt.=718.852051m. Speed=46.152000m/h.</desc>
<speed>12.820000</speed>
</trkpt>
<trkpt lat="22.290726" lon="103.670059">
<ele>716.633301</ele>
<time>2011-04-25T06:47:20Z</time>
<desc>lat.=22.290726, lon.=103.670059, Alt.=716.633301m. Speed=42.480000m/h.</desc>
<speed>11.800000</speed>
</trkpt>
<trkpt lat="22.290203" lon="103.670303">
<ele>713.758301</ele>
<time>2011-04-25T06:47:25Z</time>
<desc>lat.=22.290203, lon.=103.670303, Alt.=713.758301m. Speed=46.223999m/h.</desc>
<speed>12.840000</speed>
</trkpt>
<trkpt lat="22.289703" lon="103.670708">
<ele>711.914551</ele>
<time>2011-04-25T06:47:30Z</time>
<desc>lat.=22.289703, lon.=103.670708, Alt.=711.914551m. Speed=51.048000m/h.</desc>
<speed>14.180000</speed>
</trkpt>
<trkpt lat="22.289200" lon="103.671150">
<ele>709.586426</ele>
<time>2011-04-25T06:47:35Z</time>
<desc>lat.=22.289200, lon.=103.671150, Alt.=709.586426m. Speed=53.675999m/h.</desc>
<speed>14.910000</speed>
</trkpt>
<trkpt lat="22.288815" lon="103.671608">
<ele>708.305176</ele>
<time>2011-04-25T06:47:40Z</time>
<desc>lat.=22.288815, lon.=103.671608, Alt.=708.305176m. Speed=42.840000m/h.</desc>
<speed>11.900000</speed>
</trkpt>
<trkpt lat="22.288496" lon="103.671997">
<ele>708.508301</ele>
<time>2011-04-25T06:47:45Z</time>
<desc>lat.=22.288496, lon.=103.671997, Alt.=708.508301m. Speed=34.776001m/h.</desc>
<speed>9.660000</speed>
</trkpt>
<trkpt lat="22.288214" lon="103.672188">
<ele>709.070801</ele>
<time>2011-04-25T06:47:50Z</time>
<desc>lat.=22.288214, lon.=103.672188, Alt.=709.070801m. Speed=26.712000m/h.</desc>
<speed>7.420000</speed>
</trkpt>
<trkpt lat="22.287909" lon="103.672256">
<ele>708.867676</ele>
<time>2011-04-25T06:47:55Z</time>
<desc>lat.=22.287909, lon.=103.672256, Alt.=708.867676m. Speed=23.903999m/h.</desc>
<speed>6.640000</speed>
</trkpt>
<trkpt lat="22.287563" lon="103.672096">
<ele>709.086426</ele>
<time>2011-04-25T06:48:00Z</time>
<desc>lat.=22.287563, lon.=103.672096, Alt.=709.086426m. Speed=31.104000m/h.</desc>
<speed>8.640000</speed>
</trkpt>
<trkpt lat="22.287222" lon="103.671844">
<ele>708.930176</ele>
<time>2011-04-25T06:48:05Z</time>
<desc>lat.=22.287222, lon.=103.671844, Alt.=708.930176m. Speed=32.472000m/h.</desc>
<speed>9.020000</speed>
</trkpt>
<trkpt lat="22.286888" lon="103.671692">
<ele>707.461426</ele>
<time>2011-04-25T06:48:10Z</time>
<desc>lat.=22.286888, lon.=103.671692, Alt.=707.461426m. Speed=28.656000m/h.</desc>
<speed>7.960000</speed>
</trkpt>
<trkpt lat="22.286352" lon="103.671677">
<ele>704.727051</ele>
<time>2011-04-25T06:48:15Z</time>
<desc>lat.=22.286352, lon.=103.671677, Alt.=704.727051m. Speed=31.931999m/h.</desc>
<speed>8.870000</speed>
</trkpt>
<trkpt lat="22.285975" lon="103.671837">
<ele>704.367676</ele>
<time>2011-04-25T06:48:20Z</time>
<desc>lat.=22.285975, lon.=103.671837, Alt.=704.367676m. Speed=27.431999m/h.</desc>
<speed>7.620000</speed>
</trkpt>
<trkpt lat="22.285717" lon="103.671928">
<ele>694.289551</ele>
<time>2011-04-25T06:48:25Z</time>
<desc>lat.=22.285717, lon.=103.671928, Alt.=694.289551m. Speed=25.164000m/h.</desc>
<speed>6.990000</speed>
</trkpt>
<trkpt lat="22.285484" lon="103.672089">
<ele>685.883301</ele>
<time>2011-04-25T06:48:30Z</time>
<desc>lat.=22.285484, lon.=103.672089, Alt.=685.883301m. Speed=23.652000m/h.</desc>
<speed>6.570000</speed>
</trkpt>
<trkpt lat="22.285234" lon="103.672226">
<ele>681.102051</ele>
<time>2011-04-25T06:48:35Z</time>
<desc>lat.=22.285234, lon.=103.672226, Alt.=681.102051m. Speed=23.219999m/h.</desc>
<speed>6.450000</speed>
</trkpt>
<trkpt lat="22.284994" lon="103.672356">
<ele>678.461426</ele>
<time>2011-04-25T06:48:40Z</time>
<desc>lat.=22.284994, lon.=103.672356, Alt.=678.461426m. Speed=20.412001m/h.</desc>
<speed>5.670000</speed>
</trkpt>
<trkpt lat="22.284822" lon="103.672440">
<ele>676.742676</ele>
<time>2011-04-25T06:48:45Z</time>
<desc>lat.=22.284822, lon.=103.672440, Alt.=676.742676m. Speed=11.556000m/h.</desc>
<speed>3.210000</speed>
</trkpt>
<trkpt lat="22.284782" lon="103.672470">
<ele>676.789551</ele>
<time>2011-04-25T06:48:50Z</time>
<desc>lat.=22.284782, lon.=103.672470, Alt.=676.789551m. Speed=0.144000m/h.</desc>
<speed>0.040000</speed>
</trkpt>
<trkpt lat="22.284777" lon="103.672470">
<ele>677.383301</ele>
<time>2011-04-25T06:48:55Z</time>
<desc>lat.=22.284777, lon.=103.672470, Alt.=677.383301m. Speed=0.432000m/h.</desc>
<speed>0.120000</speed>
</trkpt>
<trkpt lat="22.284775" lon="103.672470">
<ele>677.555176</ele>
<time>2011-04-25T06:49:00Z</time>
<desc>lat.=22.284775, lon.=103.672470, Alt.=677.555176m. Speed=0.072000m/h.</desc>
<speed>0.020000</speed>
</trkpt>
<trkpt lat="22.284775" lon="103.672462">
<ele>677.664551</ele>
<time>2011-04-25T06:49:05Z</time>
<desc>lat.=22.284775, lon.=103.672462, Alt.=677.664551m. Speed=0.036000m/h.</desc>
<speed>0.010000</speed>
</trkpt>
<trkpt lat="22.284775" lon="103.672462">
<ele>677.695801</ele>
<time>2011-04-25T06:49:10Z</time>
<desc>lat.=22.284775, lon.=103.672462, Alt.=677.695801m. Speed=0.360000m/h.</desc>
<speed>0.100000</speed>
</trkpt>
<trkpt lat="22.284775" lon="103.672462">
<ele>677.727051</ele>
<time>2011-04-25T06:49:15Z</time>
<desc>lat.=22.284775, lon.=103.672462, Alt.=677.727051m. Speed=0.792000m/h.</desc>
<speed>0.220000</speed>
</trkpt>
<trkpt lat="22.284771" lon="103.672447">
<ele>677.758301</ele>
<time>2011-04-25T06:49:20Z</time>
<desc>lat.=22.284771, lon.=103.672447, Alt.=677.758301m. Speed=0.756000m/h.</desc>
<speed>0.210000</speed>
</trkpt>
<trkpt lat="22.284769" lon="103.672440">
<ele>677.773926</ele>
<time>2011-04-25T06:49:25Z</time>
<desc>lat.=22.284769, lon.=103.672440, Alt.=677.773926m. Speed=0.540000m/h.</desc>
<speed>0.150000</speed>
</trkpt>
<trkpt lat="22.284767" lon="103.672432">
<ele>677.773926</ele>
<time>2011-04-25T06:49:30Z</time>
<desc>lat.=22.284767, lon.=103.672432, Alt.=677.773926m. Speed=0.360000m/h.</desc>
<speed>0.100000</speed>
</trkpt>
<trkpt lat="22.284767" lon="103.672432">
<ele>677.680176</ele>
<time>2011-04-25T06:49:35Z</time>
<desc>lat.=22.284767, lon.=103.672432, Alt.=677.680176m. Speed=0.576000m/h.</desc>
<speed>0.160000</speed>
</trkpt>
<trkpt lat="22.284765" lon="103.672424">
<ele>677.586426</ele>
<time>2011-04-25T06:49:40Z</time>
<desc>lat.=22.284765, lon.=103.672424, Alt.=677.586426m. Speed=0.432000m/h.</desc>
<speed>0.120000</speed>
</trkpt>
<trkpt lat="22.284765" lon="103.672417">
<ele>677.539551</ele>
<time>2011-04-25T06:49:45Z</time>
<desc>lat.=22.284765, lon.=103.672417, Alt.=677.539551m. Speed=0.648000m/h.</desc>
<speed>0.180000</speed>
</trkpt>
<trkpt lat="22.284765" lon="103.672401">
<ele>677.508301</ele>
<time>2011-04-25T06:49:50Z</time>
<desc>lat.=22.284765, lon.=103.672401, Alt.=677.508301m. Speed=1.080000m/h.</desc>
<speed>0.300000</speed>
</trkpt>
<trkpt lat="22.284767" lon="103.672401">
<ele>677.477051</ele>
<time>2011-04-25T06:49:55Z</time>
<desc>lat.=22.284767, lon.=103.672401, Alt.=677.477051m. Speed=0.252000m/h.</desc>
<speed>0.070000</speed>
</trkpt>
<trkpt lat="22.284771" lon="103.672394">
<ele>677.430176</ele>
<time>2011-04-25T06:50:00Z</time>
<desc>lat.=22.284771, lon.=103.672394, Alt.=677.430176m. Speed=0.252000m/h.</desc>
<speed>0.070000</speed>
</trkpt>
<trkpt lat="22.284771" lon="103.672394">
<ele>677.398926</ele>
<time>2011-04-25T06:50:05Z</time>
<desc>lat.=22.284771, lon.=103.672394, Alt.=677.398926m. Speed=0.072000m/h.</desc>
<speed>0.020000</speed>
</trkpt>
<trkpt lat="22.284771" lon="103.672394">
<ele>677.383301</ele>
<time>2011-04-25T06:50:10Z</time>
<desc>lat.=22.284771, lon.=103.672394, Alt.=677.383301m. Speed=0.756000m/h.</desc>
<speed>0.210000</speed>
</trkpt>
<trkpt lat="22.284752" lon="103.672394">
<ele>677.352051</ele>
<time>2011-04-25T06:50:15Z</time>
<desc>lat.=22.284752, lon.=103.672394, Alt.=677.352051m. Speed=1.404000m/h.</desc>
<speed>0.390000</speed>
</trkpt>
<trkpt lat="22.284742" lon="103.672386">
<ele>677.367676</ele>
<time>2011-04-25T06:50:20Z</time>
<desc>lat.=22.284742, lon.=103.672386, Alt.=677.367676m. Speed=0.144000m/h.</desc>
<speed>0.040000</speed>
</trkpt>
<trkpt lat="22.284744" lon="103.672386">
<ele>677.336426</ele>
<time>2011-04-25T06:50:25Z</time>
<desc>lat.=22.284744, lon.=103.672386, Alt.=677.336426m. Speed=0.180000m/h.</desc>
<speed>0.050000</speed>
</trkpt>
<trkpt lat="22.284725" lon="103.672394">
<ele>677.383301</ele>
<time>2011-04-25T06:50:30Z</time>
<desc>lat.=22.284725, lon.=103.672394, Alt.=677.383301m. Speed=2.808000m/h.</desc>
<speed>0.780000</speed>
</trkpt>
<trkpt lat="22.284678" lon="103.672440">
<ele>677.227051</ele>
<time>2011-04-25T06:50:35Z</time>
<desc>lat.=22.284678, lon.=103.672440, Alt.=677.227051m. Speed=6.840000m/h.</desc>
<speed>1.900000</speed>
</trkpt>
<trkpt lat="22.284542" lon="103.672523">
<ele>676.789551</ele>
<time>2011-04-25T06:50:40Z</time>
<desc>lat.=22.284542, lon.=103.672523, Alt.=676.789551m. Speed=15.984000m/h.</desc>
<speed>4.440000</speed>
</trkpt>
<trkpt lat="22.284374" lon="103.672676">
<ele>676.523926</ele>
<time>2011-04-25T06:50:45Z</time>
<desc>lat.=22.284374, lon.=103.672676, Alt.=676.523926m. Speed=17.280001m/h.</desc>
<speed>4.800000</speed>
</trkpt>
<trkpt lat="22.284241" lon="103.672981">
<ele>675.945801</ele>
<time>2011-04-25T06:50:50Z</time>
<desc>lat.=22.284241, lon.=103.672981, Alt.=675.945801m. Speed=23.148001m/h.</desc>
<speed>6.430000</speed>
</trkpt>
<trkpt lat="22.284109" lon="103.673332">
<ele>675.117676</ele>
<time>2011-04-25T06:50:55Z</time>
<desc>lat.=22.284109, lon.=103.673332, Alt.=675.117676m. Speed=24.695999m/h.</desc>
<speed>6.860000</speed>
</trkpt>
<trkpt lat="22.283880" lon="103.673508">
<ele>673.789551</ele>
<time>2011-04-25T06:51:00Z</time>
<desc>lat.=22.283880, lon.=103.673508, Alt.=673.789551m. Speed=20.664000m/h.</desc>
<speed>5.740000</speed>
</trkpt>
<trkpt lat="22.283716" lon="103.673698">
<ele>673.008301</ele>
<time>2011-04-25T06:51:05Z</time>
<desc>lat.=22.283716, lon.=103.673698, Alt.=673.008301m. Speed=15.660000m/h.</desc>
<speed>4.350000</speed>
</trkpt>
<trkpt lat="22.283648" lon="103.673851">
<ele>670.633301</ele>
<time>2011-04-25T06:51:10Z</time>
<desc>lat.=22.283648, lon.=103.673851, Alt.=670.633301m. Speed=9.612000m/h.</desc>
<speed>2.670000</speed>
</trkpt>
<trkpt lat="22.283619" lon="103.673958">
<ele>670.945801</ele>
<time>2011-04-25T06:51:15Z</time>
<desc>lat.=22.283619, lon.=103.673958, Alt.=670.945801m. Speed=7.704000m/h.</desc>
<speed>2.140000</speed>
</trkpt>
<trkpt lat="22.283592" lon="103.674049">
<ele>671.164551</ele>
<time>2011-04-25T06:51:20Z</time>
<desc>lat.=22.283592, lon.=103.674049, Alt.=671.164551m. Speed=5.868000m/h.</desc>
<speed>1.630000</speed>
</trkpt>
<trkpt lat="22.283522" lon="103.674095">
<ele>669.648926</ele>
<time>2011-04-25T06:51:25Z</time>
<desc>lat.=22.283522, lon.=103.674095, Alt.=669.648926m. Speed=2.952000m/h.</desc>
<speed>0.820000</speed>
</trkpt>
<trkpt lat="22.283527" lon="103.674095">
<ele>669.586426</ele>
<time>2011-04-25T06:51:30Z</time>
<desc>lat.=22.283527, lon.=103.674095, Alt.=669.586426m. Speed=0.324000m/h.</desc>
<speed>0.090000</speed>
</trkpt>
<trkpt lat="22.283527" lon="103.674095">
<ele>669.570801</ele>
<time>2011-04-25T06:51:35Z</time>
<desc>lat.=22.283527, lon.=103.674095, Alt.=669.570801m. Speed=0.036000m/h.</desc>
<speed>0.010000</speed>
</trkpt>
<trkpt lat="22.283527" lon="103.674095">
<ele>669.477051</ele>
<time>2011-04-25T06:51:40Z</time>
<desc>lat.=22.283527, lon.=103.674095, Alt.=669.477051m. Speed=0.108000m/h.</desc>
<speed>0.030000</speed>
</trkpt>
<trkpt lat="22.283527" lon="103.674095">
<ele>669.430176</ele>
<time>2011-04-25T06:51:45Z</time>
<desc>lat.=22.283527, lon.=103.674095, Alt.=669.430176m. Speed=0.108000m/h.</desc>
<speed>0.030000</speed>
</trkpt>
<trkpt lat="22.283529" lon="103.674095">
<ele>669.383301</ele>
<time>2011-04-25T06:51:50Z</time>
<desc>lat.=22.283529, lon.=103.674095, Alt.=669.383301m. Speed=0.648000m/h.</desc>
<speed>0.180000</speed>
</trkpt>
<trkpt lat="22.283537" lon="103.674088">
<ele>669.414551</ele>
<time>2011-04-25T06:51:55Z</time>
<desc>lat.=22.283537, lon.=103.674088, Alt.=669.414551m. Speed=0.324000m/h.</desc>
<speed>0.090000</speed>
</trkpt>
<trkpt lat="22.283541" lon="103.674095">
<ele>669.539551</ele>
<time>2011-04-25T06:52:00Z</time>
<desc>lat.=22.283541, lon.=103.674095, Alt.=669.539551m. Speed=0.432000m/h.</desc>
<speed>0.120000</speed>
</trkpt>
<trkpt lat="22.283545" lon="103.674095">
<ele>669.695801</ele>
<time>2011-04-25T06:52:05Z</time>
<desc>lat.=22.283545, lon.=103.674095, Alt.=669.695801m. Speed=0.072000m/h.</desc>
<speed>0.020000</speed>
</trkpt>
<trkpt lat="22.283546" lon="103.674095">
<ele>669.711426</ele>
<time>2011-04-25T06:52:10Z</time>
<desc>lat.=22.283546, lon.=103.674095, Alt.=669.711426m. Speed=0.000000m/h.</desc>
<speed>0.000000</speed>
</trkpt>
<trkpt lat="22.283546" lon="103.674095">
<ele>669.727051</ele>
<time>2011-04-25T06:52:15Z</time>
<desc>lat.=22.283546, lon.=103.674095, Alt.=669.727051m. Speed=0.000000m/h.</desc>
<speed>0.000000</speed>
</trkpt>
<trkpt lat="22.283546" lon="103.674095">
<ele>669.727051</ele>
<time>2011-04-25T06:52:20Z</time>
<desc>lat.=22.283546, lon.=103.674095, Alt.=669.727051m. Speed=0.000000m/h.</desc>
<speed>0.000000</speed>
</trkpt>
<trkpt lat="22.283546" lon="103.674095">
<ele>669.711426</ele>
<time>2011-04-25T06:52:25Z</time>
<desc>lat.=22.283546, lon.=103.674095, Alt.=669.711426m. Speed=0.036000m/h.</desc>
<speed>0.010000</speed>
</trkpt>
<trkpt lat="22.283546" lon="103.674095">
<ele>669.727051</ele>
<time>2011-04-25T06:52:30Z</time>
<desc>lat.=22.283546, lon.=103.674095, Alt.=669.727051m. Speed=0.000000m/h.</desc>
<speed>0.000000</speed>
</trkpt>
<trkpt lat="22.283548" lon="103.674095">
<ele>669.742676</ele>
<time>2011-04-25T06:52:35Z</time>
<desc>lat.=22.283548, lon.=103.674095, Alt.=669.742676m. Speed=0.072000m/h.</desc>
<speed>0.020000</speed>
</trkpt>
<trkpt lat="22.283548" lon="103.674095">
<ele>669.773926</ele>
<time>2011-04-25T06:52:40Z</time>
<desc>lat.=22.283548, lon.=103.674095, Alt.=669.773926m. Speed=0.000000m/h.</desc>
<speed>0.000000</speed>
</trkpt>
<trkpt lat="22.283548" lon="103.674095">
<ele>669.789551</ele>
<time>2011-04-25T06:52:45Z</time>
<desc>lat.=22.283548, lon.=103.674095, Alt.=669.789551m. Speed=0.036000m/h.</desc>
<speed>0.010000</speed>
</trkpt>
<trkpt lat="22.283548" lon="103.674095">
<ele>669.805176</ele>
<time>2011-04-25T06:52:50Z</time>
<desc>lat.=22.283548, lon.=103.674095, Alt.=669.805176m. Speed=0.000000m/h.</desc>
<speed>0.000000</speed>
</trkpt>
<trkpt lat="22.283548" lon="103.674095">
<ele>669.789551</ele>
<time>2011-04-25T06:52:55Z</time>
<desc>lat.=22.283548, lon.=103.674095, Alt.=669.789551m. Speed=0.000000m/h.</desc>
<speed>0.000000</speed>
</trkpt>
<trkpt lat="22.283552" lon="103.674095">
<ele>669.867676</ele>
<time>2011-04-25T06:53:00Z</time>
<desc>lat.=22.283552, lon.=103.674095, Alt.=669.867676m. Speed=0.072000m/h.</desc>
<speed>0.020000</speed>
</trkpt>
<trkpt lat="22.283554" lon="103.674088">
<ele>670.883301</ele>
<time>2011-04-25T06:53:05Z</time>
<desc>lat.=22.283554, lon.=103.674088, Alt.=670.883301m. Speed=0.036000m/h.</desc>
<speed>0.010000</speed>
</trkpt>
<trkpt lat="22.283548" lon="103.674072">
<ele>672.289551</ele>
<time>2011-04-25T06:53:10Z</time>
<desc>lat.=22.283548, lon.=103.674072, Alt.=672.289551m. Speed=0.000000m/h.</desc>
<speed>0.000000</speed>
</trkpt>
<trkpt lat="22.283552" lon="103.674065">
<ele>673.414551</ele>
<time>2011-04-25T06:53:15Z</time>
<desc>lat.=22.283552, lon.=103.674065, Alt.=673.414551m. Speed=0.036000m/h.</desc>
<speed>0.010000</speed>
</trkpt>
<trkpt lat="22.283556" lon="103.674057">
<ele>673.883301</ele>
<time>2011-04-25T06:53:20Z</time>
<desc>lat.=22.283556, lon.=103.674057, Alt.=673.883301m. Speed=0.000000m/h.</desc>
<speed>0.000000</speed>
</trkpt>
<trkpt lat="22.283560" lon="103.674065">
<ele>674.258301</ele>
<time>2011-04-25T06:53:25Z</time>
<desc>lat.=22.283560, lon.=103.674065, Alt.=674.258301m. Speed=0.000000m/h.</desc>
<speed>0.000000</speed>
</trkpt>
<trkpt lat="22.283567" lon="103.674072">
<ele>674.164551</ele>
<time>2011-04-25T06:53:30Z</time>
<desc>lat.=22.283567, lon.=103.674072, Alt.=674.164551m. Speed=0.000000m/h.</desc>
<speed>0.000000</speed>
</trkpt>
<trkpt lat="22.283577" lon="103.674072">
<ele>674.477051</ele>
<time>2011-04-25T06:53:35Z</time>
<desc>lat.=22.283577, lon.=103.674072, Alt.=674.477051m. Speed=0.000000m/h.</desc>
<speed>0.000000</speed>
</trkpt>
<trkpt lat="22.283577" lon="103.674080">
<ele>675.211426</ele>
<time>2011-04-25T06:53:40Z</time>
<desc>lat.=22.283577, lon.=103.674080, Alt.=675.211426m. Speed=0.072000m/h.</desc>
<speed>0.020000</speed>
</trkpt>
<trkpt lat="22.283577" lon="103.674080">
<ele>675.211426</ele>
<time>2011-04-25T06:53:45Z</time>
<desc>lat.=22.283577, lon.=103.674080, Alt.=675.211426m. Speed=0.072000m/h.</desc>
<speed>0.020000</speed>
</trkpt>
<trkpt lat="22.283577" lon="103.674080">
<ele>675.195801</ele>
<time>2011-04-25T06:53:50Z</time>
<desc>lat.=22.283577, lon.=103.674080, Alt.=675.195801m. Speed=0.000000m/h.</desc>
<speed>0.000000</speed>
</trkpt>
<trkpt lat="22.283575" lon="103.674080">
<ele>675.164551</ele>
<time>2011-04-25T06:53:55Z</time>
<desc>lat.=22.283575, lon.=103.674080, Alt.=675.164551m. Speed=0.036000m/h.</desc>
<speed>0.010000</speed>
</trkpt>
<trkpt lat="22.283575" lon="103.674080">
<ele>675.148926</ele>
<time>2011-04-25T06:54:00Z</time>
<desc>lat.=22.283575, lon.=103.674080, Alt.=675.148926m. Speed=0.000000m/h.</desc>
<speed>0.000000</speed>
</trkpt>
<trkpt lat="22.283575" lon="103.674080">
<ele>675.148926</ele>
<time>2011-04-25T06:54:05Z</time>
<desc>lat.=22.283575, lon.=103.674080, Alt.=675.148926m. Speed=0.000000m/h.</desc>
<speed>0.000000</speed>
</trkpt>
<trkpt lat="22.283575" lon="103.674080">
<ele>675.148926</ele>
<time>2011-04-25T06:54:10Z</time>
<desc>lat.=22.283575, lon.=103.674080, Alt.=675.148926m. Speed=0.000000m/h.</desc>
<speed>0.000000</speed>
</trkpt>
<trkpt lat="22.283575" lon="103.674080">
<ele>675.133301</ele>
<time>2011-04-25T06:54:15Z</time>
<desc>lat.=22.283575, lon.=103.674080, Alt.=675.133301m. Speed=0.000000m/h.</desc>
<speed>0.000000</speed>
</trkpt>
<trkpt lat="22.283575" lon="103.674080">
<ele>675.117676</ele>
<time>2011-04-25T06:54:20Z</time>
<desc>lat.=22.283575, lon.=103.674080, Alt.=675.117676m. Speed=0.000000m/h.</desc>
<speed>0.000000</speed>
</trkpt>
<trkpt lat="22.283575" lon="103.674080">
<ele>675.102051</ele>
<time>2011-04-25T06:54:25Z</time>
<desc>lat.=22.283575, lon.=103.674080, Alt.=675.102051m. Speed=0.000000m/h.</desc>
<speed>0.000000</speed>
</trkpt>
<trkpt lat="22.283575" lon="103.674080">
<ele>675.102051</ele>
<time>2011-04-25T06:54:30Z</time>
<desc>lat.=22.283575, lon.=103.674080, Alt.=675.102051m. Speed=0.000000m/h.</desc>
<speed>0.000000</speed>
</trkpt>
<trkpt lat="22.283577" lon="103.674072">
<ele>675.195801</ele>
<time>2011-04-25T06:54:35Z</time>
<desc>lat.=22.283577, lon.=103.674072, Alt.=675.195801m. Speed=0.000000m/h.</desc>
<speed>0.000000</speed>
</trkpt>
<trkpt lat="22.283564" lon="103.674080">
<ele>675.305176</ele>
<time>2011-04-25T06:54:40Z</time>
<desc>lat.=22.283564, lon.=103.674080, Alt.=675.305176m. Speed=0.036000m/h.</desc>
<speed>0.010000</speed>
</trkpt>
<trkpt lat="22.283564" lon="103.674080">
<ele>674.992676</ele>
<time>2011-04-25T06:54:45Z</time>
<desc>lat.=22.283564, lon.=103.674080, Alt.=674.992676m. Speed=0.000000m/h.</desc>
<speed>0.000000</speed>
</trkpt>
<trkpt lat="22.283566" lon="103.674088">
<ele>675.398926</ele>
<time>2011-04-25T06:54:50Z</time>
<desc>lat.=22.283566, lon.=103.674088, Alt.=675.398926m. Speed=0.000000m/h.</desc>
<speed>0.000000</speed>
</trkpt>
<trkpt lat="22.283569" lon="103.674080">
<ele>675.570801</ele>
<time>2011-04-25T06:54:55Z</time>
<desc>lat.=22.283569, lon.=103.674080, Alt.=675.570801m. Speed=0.000000m/h.</desc>
<speed>0.000000</speed>
</trkpt>
<trkpt lat="22.283573" lon="103.674080">
<ele>675.148926</ele>
<time>2011-04-25T06:55:00Z</time>
<desc>lat.=22.283573, lon.=103.674080, Alt.=675.148926m. Speed=0.072000m/h.</desc>
<speed>0.020000</speed>
</trkpt>
<trkpt lat="22.283567" lon="103.674080">
<ele>674.742676</ele>
<time>2011-04-25T06:55:05Z</time>
<desc>lat.=22.283567, lon.=103.674080, Alt.=674.742676m. Speed=0.036000m/h.</desc>
<speed>0.010000</speed>
</trkpt>
<trkpt lat="22.283579" lon="103.674072">
<ele>675.633301</ele>
<time>2011-04-25T06:55:10Z</time>
<desc>lat.=22.283579, lon.=103.674072, Alt.=675.633301m. Speed=0.000000m/h.</desc>
<speed>0.000000</speed>
</trkpt>
<trkpt lat="22.283585" lon="103.674072">
<ele>676.195801</ele>
<time>2011-04-25T06:55:15Z</time>
<desc>lat.=22.283585, lon.=103.674072, Alt.=676.195801m. Speed=0.036000m/h.</desc>
<speed>0.010000</speed>
</trkpt>
<trkpt lat="22.283585" lon="103.674072">
<ele>676.164551</ele>
<time>2011-04-25T06:55:20Z</time>
<desc>lat.=22.283585, lon.=103.674072, Alt.=676.164551m. Speed=0.036000m/h.</desc>
<speed>0.010000</speed>
</trkpt>
<trkpt lat="22.283585" lon="103.674072">
<ele>676.148926</ele>
<time>2011-04-25T06:55:25Z</time>
<desc>lat.=22.283585, lon.=103.674072, Alt.=676.148926m. Speed=0.000000m/h.</desc>
<speed>0.000000</speed>
</trkpt>
<trkpt lat="22.283585" lon="103.674072">
<ele>676.133301</ele>
<time>2011-04-25T06:55:30Z</time>
<desc>lat.=22.283585, lon.=103.674072, Alt.=676.133301m. Speed=0.108000m/h.</desc>
<speed>0.030000</speed>
</trkpt>
<trkpt lat="22.283585" lon="103.674080">
<ele>675.680176</ele>
<time>2011-04-25T06:55:35Z</time>
<desc>lat.=22.283585, lon.=103.674080, Alt.=675.680176m. Speed=1.260000m/h.</desc>
<speed>0.350000</speed>
</trkpt>
<trkpt lat="22.283587" lon="103.674126">
<ele>675.180176</ele>
<time>2011-04-25T06:55:40Z</time>
<desc>lat.=22.283587, lon.=103.674126, Alt.=675.180176m. Speed=3.816000m/h.</desc>
<speed>1.060000</speed>
</trkpt>
<trkpt lat="22.283566" lon="103.674240">
<ele>674.742676</ele>
<time>2011-04-25T06:55:45Z</time>
<desc>lat.=22.283566, lon.=103.674240, Alt.=674.742676m. Speed=10.800000m/h.</desc>
<speed>3.000000</speed>
</trkpt>
<trkpt lat="22.283522" lon="103.674416">
<ele>674.242676</ele>
<time>2011-04-25T06:55:50Z</time>
<desc>lat.=22.283522, lon.=103.674416, Alt.=674.242676m. Speed=13.392000m/h.</desc>
<speed>3.720000</speed>
</trkpt>
<trkpt lat="22.283413" lon="103.674606">
<ele>673.914551</ele>
<time>2011-04-25T06:55:55Z</time>
<desc>lat.=22.283413, lon.=103.674606, Alt.=673.914551m. Speed=16.164000m/h.</desc>
<speed>4.490000</speed>
</trkpt>
<trkpt lat="22.283276" lon="103.674812">
<ele>673.977051</ele>
<time>2011-04-25T06:56:00Z</time>
<desc>lat.=22.283276, lon.=103.674812, Alt.=673.977051m. Speed=17.712000m/h.</desc>
<speed>4.920000</speed>
</trkpt>
<trkpt lat="22.283123" lon="103.675041">
<ele>674.320801</ele>
<time>2011-04-25T06:56:05Z</time>
<desc>lat.=22.283123, lon.=103.675041, Alt.=674.320801m. Speed=20.016001m/h.</desc>
<speed>5.560000</speed>
</trkpt>
<trkpt lat="22.282965" lon="103.675255">
<ele>674.039551</ele>
<time>2011-04-25T06:56:10Z</time>
<desc>lat.=22.282965, lon.=103.675255, Alt.=674.039551m. Speed=19.980000m/h.</desc>
<speed>5.550000</speed>
</trkpt>
<trkpt lat="22.282797" lon="103.675484">
<ele>673.898926</ele>
<time>2011-04-25T06:56:15Z</time>
<desc>lat.=22.282797, lon.=103.675484, Alt.=673.898926m. Speed=21.888000m/h.</desc>
<speed>6.080000</speed>
</trkpt>
<trkpt lat="22.282642" lon="103.675705">
<ele>673.805176</ele>
<time>2011-04-25T06:56:20Z</time>
<desc>lat.=22.282642, lon.=103.675705, Alt.=673.805176m. Speed=17.784000m/h.</desc>
<speed>4.940000</speed>
</trkpt>
<trkpt lat="22.282537" lon="103.675888">
<ele>673.477051</ele>
<time>2011-04-25T06:56:25Z</time>
<desc>lat.=22.282537, lon.=103.675888, Alt.=673.477051m. Speed=13.068000m/h.</desc>
<speed>3.630000</speed>
</trkpt>
<trkpt lat="22.282473" lon="103.676033">
<ele>673.070801</ele>
<time>2011-04-25T06:56:30Z</time>
<desc>lat.=22.282473, lon.=103.676033, Alt.=673.070801m. Speed=11.736000m/h.</desc>
<speed>3.260000</speed>
</trkpt>
<trkpt lat="22.282415" lon="103.676231">
<ele>672.023926</ele>
<time>2011-04-25T06:56:35Z</time>
<desc>lat.=22.282415, lon.=103.676231, Alt.=672.023926m. Speed=16.559999m/h.</desc>
<speed>4.600000</speed>
</trkpt>
<trkpt lat="22.282360" lon="103.676376">
<ele>671.570801</ele>
<time>2011-04-25T06:56:40Z</time>
<desc>lat.=22.282360, lon.=103.676376, Alt.=671.570801m. Speed=11.052000m/h.</desc>
<speed>3.070000</speed>
</trkpt>
<trkpt lat="22.282310" lon="103.676521">
<ele>671.648926</ele>
<time>2011-04-25T06:56:45Z</time>
<desc>lat.=22.282310, lon.=103.676521, Alt.=671.648926m. Speed=10.620000m/h.</desc>
<speed>2.950000</speed>
</trkpt>
<trkpt lat="22.282251" lon="103.676682">
<ele>671.117676</ele>
<time>2011-04-25T06:56:50Z</time>
<desc>lat.=22.282251, lon.=103.676682, Alt.=671.117676m. Speed=11.844000m/h.</desc>
<speed>3.290000</speed>
</trkpt>
<trkpt lat="22.282187" lon="103.676834">
<ele>670.383301</ele>
<time>2011-04-25T06:56:55Z</time>
<desc>lat.=22.282187, lon.=103.676834, Alt.=670.383301m. Speed=10.656000m/h.</desc>
<speed>2.960000</speed>
</trkpt>
<trkpt lat="22.282125" lon="103.676979">
<ele>670.195801</ele>
<time>2011-04-25T06:57:00Z</time>
<desc>lat.=22.282125, lon.=103.676979, Alt.=670.195801m. Speed=9.288000m/h.</desc>
<speed>2.580000</speed>
</trkpt>
<trkpt lat="22.282072" lon="103.677094">
<ele>669.836426</ele>
<time>2011-04-25T06:57:05Z</time>
<desc>lat.=22.282072, lon.=103.677094, Alt.=669.836426m. Speed=8.280000m/h.</desc>
<speed>2.300000</speed>
</trkpt>
<trkpt lat="22.282011" lon="103.677216">
<ele>671.320801</ele>
<time>2011-04-25T06:57:10Z</time>
<desc>lat.=22.282011, lon.=103.677216, Alt.=671.320801m. Speed=8.604000m/h.</desc>
<speed>2.390000</speed>
</trkpt>
<trkpt lat="22.281950" lon="103.677330">
<ele>671.930176</ele>
<time>2011-04-25T06:57:15Z</time>
<desc>lat.=22.281950, lon.=103.677330, Alt.=671.930176m. Speed=8.496000m/h.</desc>
<speed>2.360000</speed>
</trkpt>
<trkpt lat="22.281887" lon="103.677460">
<ele>670.773926</ele>
<time>2011-04-25T06:57:20Z</time>
<desc>lat.=22.281887, lon.=103.677460, Alt.=670.773926m. Speed=8.172000m/h.</desc>
<speed>2.270000</speed>
</trkpt>
<trkpt lat="22.281822" lon="103.677589">
<ele>670.914551</ele>
<time>2011-04-25T06:57:25Z</time>
<desc>lat.=22.281822, lon.=103.677589, Alt.=670.914551m. Speed=9.684000m/h.</desc>
<speed>2.690000</speed>
</trkpt>
<trkpt lat="22.281754" lon="103.677711">
<ele>672.055176</ele>
<time>2011-04-25T06:57:30Z</time>
<desc>lat.=22.281754, lon.=103.677711, Alt.=672.055176m. Speed=9.648000m/h.</desc>
<speed>2.680000</speed>
</trkpt>
<trkpt lat="22.281679" lon="103.677849">
<ele>673.461426</ele>
<time>2011-04-25T06:57:35Z</time>
<desc>lat.=22.281679, lon.=103.677849, Alt.=673.461426m. Speed=9.540000m/h.</desc>
<speed>2.650000</speed>
</trkpt>
<trkpt lat="22.281582" lon="103.677979">
<ele>675.273926</ele>
<time>2011-04-25T06:57:40Z</time>
<desc>lat.=22.281582, lon.=103.677979, Alt.=675.273926m. Speed=11.412000m/h.</desc>
<speed>3.170000</speed>
</trkpt>
<trkpt lat="22.281483" lon="103.678078">
<ele>675.586426</ele>
<time>2011-04-25T06:57:45Z</time>
<desc>lat.=22.281483, lon.=103.678078, Alt.=675.586426m. Speed=9.972000m/h.</desc>
<speed>2.770000</speed>
</trkpt>
<trkpt lat="22.281363" lon="103.678162">
<ele>676.742676</ele>
<time>2011-04-25T06:57:50Z</time>
<desc>lat.=22.281363, lon.=103.678162, Alt.=676.742676m. Speed=10.512000m/h.</desc>
<speed>2.920000</speed>
</trkpt>
<trkpt lat="22.281233" lon="103.678238">
<ele>678.898926</ele>
<time>2011-04-25T06:57:55Z</time>
<desc>lat.=22.281233, lon.=103.678238, Alt.=678.898926m. Speed=10.224000m/h.</desc>
<speed>2.840000</speed>
</trkpt>
<trkpt lat="22.281092" lon="103.678314">
<ele>680.617676</ele>
<time>2011-04-25T06:58:00Z</time>
<desc>lat.=22.281092, lon.=103.678314, Alt.=680.617676m. Speed=12.096000m/h.</desc>
<speed>3.360000</speed>
</trkpt>
<trkpt lat="22.280970" lon="103.678391">
<ele>682.273926</ele>
<time>2011-04-25T06:58:05Z</time>
<desc>lat.=22.280970, lon.=103.678391, Alt.=682.273926m. Speed=9.864000m/h.</desc>
<speed>2.740000</speed>
</trkpt>
<trkpt lat="22.280865" lon="103.678482">
<ele>685.445801</ele>
<time>2011-04-25T06:58:10Z</time>
<desc>lat.=22.280865, lon.=103.678482, Alt.=685.445801m. Speed=8.604000m/h.</desc>
<speed>2.390000</speed>
</trkpt>
<trkpt lat="22.280754" lon="103.678619">
<ele>688.477051</ele>
<time>2011-04-25T06:58:15Z</time>
<desc>lat.=22.280754, lon.=103.678619, Alt.=688.477051m. Speed=11.016000m/h.</desc>
<speed>3.060000</speed>
</trkpt>
<trkpt lat="22.280670" lon="103.678772">
<ele>688.367676</ele>
<time>2011-04-25T06:58:20Z</time>
<desc>lat.=22.280670, lon.=103.678772, Alt.=688.367676m. Speed=11.988000m/h.</desc>
<speed>3.330000</speed>
</trkpt>
<trkpt lat="22.280586" lon="103.678902">
<ele>689.695801</ele>
<time>2011-04-25T06:58:25Z</time>
<desc>lat.=22.280586, lon.=103.678902, Alt.=689.695801m. Speed=12.780000m/h.</desc>
<speed>3.550000</speed>
</trkpt>
<trkpt lat="22.280470" lon="103.679108">
<ele>689.914551</ele>
<time>2011-04-25T06:58:30Z</time>
<desc>lat.=22.280470, lon.=103.679108, Alt.=689.914551m. Speed=16.704000m/h.</desc>
<speed>4.640000</speed>
</trkpt>
<trkpt lat="22.280268" lon="103.679298">
<ele>690.898926</ele>
<time>2011-04-25T06:58:35Z</time>
<desc>lat.=22.280268, lon.=103.679298, Alt.=690.898926m. Speed=21.636000m/h.</desc>
<speed>6.010000</speed>
</trkpt>
<trkpt lat="22.279995" lon="103.679512">
<ele>691.898926</ele>
<time>2011-04-25T06:58:40Z</time>
<desc>lat.=22.279995, lon.=103.679512, Alt.=691.898926m. Speed=25.632000m/h.</desc>
<speed>7.120000</speed>
</trkpt>
<trkpt lat="22.279696" lon="103.679741">
<ele>692.289551</ele>
<time>2011-04-25T06:58:45Z</time>
<desc>lat.=22.279696, lon.=103.679741, Alt.=692.289551m. Speed=26.604000m/h.</desc>
<speed>7.390000</speed>
</trkpt>
<trkpt lat="22.279409" lon="103.679955">
<ele>692.930176</ele>
<time>2011-04-25T06:58:50Z</time>
<desc>lat.=22.279409, lon.=103.679955, Alt.=692.930176m. Speed=27.000000m/h.</desc>
<speed>7.500000</speed>
</trkpt>
<trkpt lat="22.279135" lon="103.680153">
<ele>693.648926</ele>
<time>2011-04-25T06:58:55Z</time>
<desc>lat.=22.279135, lon.=103.680153, Alt.=693.648926m. Speed=25.667999m/h.</desc>
<speed>7.130000</speed>
</trkpt>
<trkpt lat="22.278877" lon="103.680351">
<ele>694.367676</ele>
<time>2011-04-25T06:59:00Z</time>
<desc>lat.=22.278877, lon.=103.680351, Alt.=694.367676m. Speed=25.056000m/h.</desc>
<speed>6.960000</speed>
</trkpt>
<trkpt lat="22.278658" lon="103.680534">
<ele>695.648926</ele>
<time>2011-04-25T06:59:05Z</time>
<desc>lat.=22.278658, lon.=103.680534, Alt.=695.648926m. Speed=18.143999m/h.</desc>
<speed>5.040000</speed>
</trkpt>
<trkpt lat="22.278427" lon="103.680664">
<ele>697.555176</ele>
<time>2011-04-25T06:59:10Z</time>
<desc>lat.=22.278427, lon.=103.680664, Alt.=697.555176m. Speed=15.624000m/h.</desc>
<speed>4.340000</speed>
</trkpt>
<trkpt lat="22.278257" lon="103.680824">
<ele>699.289551</ele>
<time>2011-04-25T06:59:15Z</time>
<desc>lat.=22.278257, lon.=103.680824, Alt.=699.289551m. Speed=17.459999m/h.</desc>
<speed>4.850000</speed>
</trkpt>
<trkpt lat="22.278038" lon="103.681076">
<ele>699.570801</ele>
<time>2011-04-25T06:59:20Z</time>
<desc>lat.=22.278038, lon.=103.681076, Alt.=699.570801m. Speed=20.736000m/h.</desc>
<speed>5.760000</speed>
</trkpt>
<trkpt lat="22.277807" lon="103.681381">
<ele>699.711426</ele>
<time>2011-04-25T06:59:25Z</time>
<desc>lat.=22.277807, lon.=103.681381, Alt.=699.711426m. Speed=27.072001m/h.</desc>
<speed>7.520000</speed>
</trkpt>
<trkpt lat="22.277493" lon="103.681709">
<ele>700.117676</ele>
<time>2011-04-25T06:59:30Z</time>
<desc>lat.=22.277493, lon.=103.681709, Alt.=700.117676m. Speed=32.652000m/h.</desc>
<speed>9.070000</speed>
</trkpt>
<trkpt lat="22.277205" lon="103.681984">
<ele>700.523926</ele>
<time>2011-04-25T06:59:35Z</time>
<desc>lat.=22.277205, lon.=103.681984, Alt.=700.523926m. Speed=29.916000m/h.</desc>
<speed>8.310000</speed>
</trkpt>
<trkpt lat="22.276945" lon="103.682259">
<ele>701.602051</ele>
<time>2011-04-25T06:59:40Z</time>
<desc>lat.=22.276945, lon.=103.682259, Alt.=701.602051m. Speed=30.240000m/h.</desc>
<speed>8.400000</speed>
</trkpt>
<trkpt lat="22.276665" lon="103.682602">
<ele>701.086426</ele>
<time>2011-04-25T06:59:45Z</time>
<desc>lat.=22.276665, lon.=103.682602, Alt.=701.086426m. Speed=34.127998m/h.</desc>
<speed>9.480000</speed>
</trkpt>
<trkpt lat="22.276350" lon="103.682953">
<ele>700.414551</ele>
<time>2011-04-25T06:59:50Z</time>
<desc>lat.=22.276350, lon.=103.682953, Alt.=700.414551m. Speed=34.307999m/h.</desc>
<speed>9.530000</speed>
</trkpt>
<trkpt lat="22.276051" lon="103.683258">
<ele>701.023926</ele>
<time>2011-04-25T06:59:55Z</time>
<desc>lat.=22.276051, lon.=103.683258, Alt.=701.023926m. Speed=31.139999m/h.</desc>
<speed>8.650000</speed>
</trkpt>
<trkpt lat="22.275768" lon="103.683586">
<ele>702.836426</ele>
<time>2011-04-25T07:00:00Z</time>
<desc>lat.=22.275768, lon.=103.683586, Alt.=702.836426m. Speed=26.388000m/h.</desc>
<speed>7.330000</speed>
</trkpt>
<trkpt lat="22.275553" lon="103.683823">
<ele>702.555176</ele>
<time>2011-04-25T07:00:05Z</time>
<desc>lat.=22.275553, lon.=103.683823, Alt.=702.555176m. Speed=17.063999m/h.</desc>
<speed>4.740000</speed>
</trkpt>
<trkpt lat="22.275383" lon="103.684006">
<ele>701.305176</ele>
<time>2011-04-25T07:00:10Z</time>
<desc>lat.=22.275383, lon.=103.684006, Alt.=701.305176m. Speed=14.724000m/h.</desc>
<speed>4.090000</speed>
</trkpt>
<trkpt lat="22.275202" lon="103.684128">
<ele>702.289551</ele>
<time>2011-04-25T07:00:15Z</time>
<desc>lat.=22.275202, lon.=103.684128, Alt.=702.289551m. Speed=16.667999m/h.</desc>
<speed>4.630000</speed>
</trkpt>
<trkpt lat="22.275009" lon="103.684273">
<ele>702.117676</ele>
<time>2011-04-25T07:00:20Z</time>
<desc>lat.=22.275009, lon.=103.684273, Alt.=702.117676m. Speed=19.115999m/h.</desc>
<speed>5.310000</speed>
</trkpt>
<trkpt lat="22.274843" lon="103.684402">
<ele>704.055176</ele>
<time>2011-04-25T07:00:25Z</time>
<desc>lat.=22.274843, lon.=103.684402, Alt.=704.055176m. Speed=14.364000m/h.</desc>
<speed>3.990000</speed>
</trkpt>
<trkpt lat="22.274649" lon="103.684578">
<ele>705.852051</ele>
<time>2011-04-25T07:00:30Z</time>
<desc>lat.=22.274649, lon.=103.684578, Alt.=705.852051m. Speed=16.308001m/h.</desc>
<speed>4.530000</speed>
</trkpt>
<trkpt lat="22.274462" lon="103.684738">
<ele>696.992676</ele>
<time>2011-04-25T07:00:35Z</time>
<desc>lat.=22.274462, lon.=103.684738, Alt.=696.992676m. Speed=15.336000m/h.</desc>
<speed>4.260000</speed>
</trkpt>
<trkpt lat="22.274290" lon="103.684929">
<ele>683.883301</ele>
<time>2011-04-25T07:00:40Z</time>
<desc>lat.=22.274290, lon.=103.684929, Alt.=683.883301m. Speed=12.852000m/h.</desc>
<speed>3.570000</speed>
</trkpt>
<trkpt lat="22.274130" lon="103.685059">
<ele>682.023926</ele>
<time>2011-04-25T07:00:45Z</time>
<desc>lat.=22.274130, lon.=103.685059, Alt.=682.023926m. Speed=17.964001m/h.</desc>
<speed>4.990000</speed>
</trkpt>
<trkpt lat="22.273939" lon="103.685234">
<ele>681.180176</ele>
<time>2011-04-25T07:00:50Z</time>
<desc>lat.=22.273939, lon.=103.685234, Alt.=681.180176m. Speed=18.684000m/h.</desc>
<speed>5.190000</speed>
</trkpt>
<trkpt lat="22.273748" lon="103.685379">
<ele>679.930176</ele>
<time>2011-04-25T07:00:55Z</time>
<desc>lat.=22.273748, lon.=103.685379, Alt.=679.930176m. Speed=17.856001m/h.</desc>
<speed>4.960000</speed>
</trkpt>
<trkpt lat="22.273569" lon="103.685532">
<ele>679.289551</ele>
<time>2011-04-25T07:01:00Z</time>
<desc>lat.=22.273569, lon.=103.685532, Alt.=679.289551m. Speed=17.063999m/h.</desc>
<speed>4.740000</speed>
</trkpt>
<trkpt lat="22.273417" lon="103.685661">
<ele>678.258301</ele>
<time>2011-04-25T07:01:05Z</time>
<desc>lat.=22.273417, lon.=103.685661, Alt.=678.258301m. Speed=12.744000m/h.</desc>
<speed>3.540000</speed>
</trkpt>
<trkpt lat="22.273296" lon="103.685768">
<ele>678.461426</ele>
<time>2011-04-25T07:01:10Z</time>
<desc>lat.=22.273296, lon.=103.685768, Alt.=678.461426m. Speed=9.720000m/h.</desc>
<speed>2.700000</speed>
</trkpt>
<trkpt lat="22.273195" lon="103.685852">
<ele>678.367676</ele>
<time>2011-04-25T07:01:15Z</time>
<desc>lat.=22.273195, lon.=103.685852, Alt.=678.367676m. Speed=10.512000m/h.</desc>
<speed>2.920000</speed>
</trkpt>
<trkpt lat="22.273071" lon="103.685959">
<ele>678.648926</ele>
<time>2011-04-25T07:01:20Z</time>
<desc>lat.=22.273071, lon.=103.685959, Alt.=678.648926m. Speed=12.096000m/h.</desc>
<speed>3.360000</speed>
</trkpt>
<trkpt lat="22.272943" lon="103.686058">
<ele>679.430176</ele>
<time>2011-04-25T07:01:25Z</time>
<desc>lat.=22.272943, lon.=103.686058, Alt.=679.430176m. Speed=11.160000m/h.</desc>
<speed>3.100000</speed>
</trkpt>
<trkpt lat="22.272820" lon="103.686157">
<ele>677.523926</ele>
<time>2011-04-25T07:01:30Z</time>
<desc>lat.=22.272820, lon.=103.686157, Alt.=677.523926m. Speed=10.008000m/h.</desc>
<speed>2.780000</speed>
</trkpt>
<trkpt lat="22.272705" lon="103.686234">
<ele>675.648926</ele>
<time>2011-04-25T07:01:35Z</time>
<desc>lat.=22.272705, lon.=103.686234, Alt.=675.648926m. Speed=9.324000m/h.</desc>
<speed>2.590000</speed>
</trkpt>
<trkpt lat="22.272608" lon="103.686302">
<ele>673.805176</ele>
<time>2011-04-25T07:01:40Z</time>
<desc>lat.=22.272608, lon.=103.686302, Alt.=673.805176m. Speed=10.404000m/h.</desc>
<speed>2.890000</speed>
</trkpt>
<trkpt lat="22.272495" lon="103.686401">
<ele>672.148926</ele>
<time>2011-04-25T07:01:45Z</time>
<desc>lat.=22.272495, lon.=103.686401, Alt.=672.148926m. Speed=9.792000m/h.</desc>
<speed>2.720000</speed>
</trkpt>
<trkpt lat="22.272390" lon="103.686485">
<ele>671.211426</ele>
<time>2011-04-25T07:01:50Z</time>
<desc>lat.=22.272390, lon.=103.686485, Alt.=671.211426m. Speed=9.072000m/h.</desc>
<speed>2.520000</speed>
</trkpt>
<trkpt lat="22.272293" lon="103.686584">
<ele>670.867676</ele>
<time>2011-04-25T07:01:55Z</time>
<desc>lat.=22.272293, lon.=103.686584, Alt.=670.867676m. Speed=10.872000m/h.</desc>
<speed>3.020000</speed>
</trkpt>
<trkpt lat="22.272192" lon="103.686676">
<ele>670.820801</ele>
<time>2011-04-25T07:02:00Z</time>
<desc>lat.=22.272192, lon.=103.686676, Alt.=670.820801m. Speed=9.720000m/h.</desc>
<speed>2.700000</speed>
</trkpt>
<trkpt lat="22.272068" lon="103.686775">
<ele>670.055176</ele>
<time>2011-04-25T07:02:05Z</time>
<desc>lat.=22.272068, lon.=103.686775, Alt.=670.055176m. Speed=12.528000m/h.</desc>
<speed>3.480000</speed>
</trkpt>
<trkpt lat="22.271940" lon="103.686867">
<ele>669.477051</ele>
<time>2011-04-25T07:02:10Z</time>
<desc>lat.=22.271940, lon.=103.686867, Alt.=669.477051m. Speed=11.304000m/h.</desc>
<speed>3.140000</speed>
</trkpt>
<trkpt lat="22.271822" lon="103.686974">
<ele>668.742676</ele>
<time>2011-04-25T07:02:15Z</time>
<desc>lat.=22.271822, lon.=103.686974, Alt.=668.742676m. Speed=11.304000m/h.</desc>
<speed>3.140000</speed>
</trkpt>
<trkpt lat="22.271687" lon="103.687103">
<ele>667.820801</ele>
<time>2011-04-25T07:02:20Z</time>
<desc>lat.=22.271687, lon.=103.687103, Alt.=667.820801m. Speed=11.196000m/h.</desc>
<speed>3.110000</speed>
</trkpt>
<trkpt lat="22.271582" lon="103.687187">
<ele>667.602051</ele>
<time>2011-04-25T07:02:25Z</time>
<desc>lat.=22.271582, lon.=103.687187, Alt.=667.602051m. Speed=7.092000m/h.</desc>
<speed>1.970000</speed>
</trkpt>
<trkpt lat="22.271502" lon="103.687263">
<ele>667.758301</ele>
<time>2011-04-25T07:02:30Z</time>
<desc>lat.=22.271502, lon.=103.687263, Alt.=667.758301m. Speed=11.160000m/h.</desc>
<speed>3.100000</speed>
</trkpt>
<trkpt lat="22.271389" lon="103.687347">
<ele>668.133301</ele>
<time>2011-04-25T07:02:35Z</time>
<desc>lat.=22.271389, lon.=103.687347, Alt.=668.133301m. Speed=11.376000m/h.</desc>
<speed>3.160000</speed>
</trkpt>
<trkpt lat="22.271294" lon="103.687416">
<ele>668.570801</ele>
<time>2011-04-25T07:02:40Z</time>
<desc>lat.=22.271294, lon.=103.687416, Alt.=668.570801m. Speed=7.200000m/h.</desc>
<speed>2.000000</speed>
</trkpt>
<trkpt lat="22.271198" lon="103.687492">
<ele>669.023926</ele>
<time>2011-04-25T07:02:45Z</time>
<desc>lat.=22.271198, lon.=103.687492, Alt.=669.023926m. Speed=9.792000m/h.</desc>
<speed>2.720000</speed>
</trkpt>
<trkpt lat="22.271105" lon="103.687553">
<ele>670.055176</ele>
<time>2011-04-25T07:02:50Z</time>
<desc>lat.=22.271105, lon.=103.687553, Alt.=670.055176m. Speed=8.244000m/h.</desc>
<speed>2.290000</speed>
</trkpt>
<trkpt lat="22.271025" lon="103.687614">
<ele>670.648926</ele>
<time>2011-04-25T07:02:55Z</time>
<desc>lat.=22.271025, lon.=103.687614, Alt.=670.648926m. Speed=6.444000m/h.</desc>
<speed>1.790000</speed>
</trkpt>
<trkpt lat="22.270939" lon="103.687691">
<ele>670.523926</ele>
<time>2011-04-25T07:03:00Z</time>
<desc>lat.=22.270939, lon.=103.687691, Alt.=670.523926m. Speed=8.892000m/h.</desc>
<speed>2.470000</speed>
</trkpt>
<trkpt lat="22.270851" lon="103.687767">
<ele>670.805176</ele>
<time>2011-04-25T07:03:05Z</time>
<desc>lat.=22.270851, lon.=103.687767, Alt.=670.805176m. Speed=8.532000m/h.</desc>
<speed>2.370000</speed>
</trkpt>
<trkpt lat="22.270756" lon="103.687843">
<ele>671.445801</ele>
<time>2011-04-25T07:03:10Z</time>
<desc>lat.=22.270756, lon.=103.687843, Alt.=671.445801m. Speed=6.588000m/h.</desc>
<speed>1.830000</speed>
</trkpt>
<trkpt lat="22.270678" lon="103.687912">
<ele>671.461426</ele>
<time>2011-04-25T07:03:15Z</time>
<desc>lat.=22.270678, lon.=103.687912, Alt.=671.461426m. Speed=8.280000m/h.</desc>
<speed>2.300000</speed>
</trkpt>
<trkpt lat="22.270603" lon="103.687981">
<ele>671.289551</ele>
<time>2011-04-25T07:03:20Z</time>
<desc>lat.=22.270603, lon.=103.687981, Alt.=671.289551m. Speed=8.388000m/h.</desc>
<speed>2.330000</speed>
</trkpt>
<trkpt lat="22.270519" lon="103.688049">
<ele>672.258301</ele>
<time>2011-04-25T07:03:25Z</time>
<desc>lat.=22.270519, lon.=103.688049, Alt.=672.258301m. Speed=9.144000m/h.</desc>
<speed>2.540000</speed>
</trkpt>
<trkpt lat="22.270445" lon="103.688118">
<ele>672.930176</ele>
<time>2011-04-25T07:03:30Z</time>
<desc>lat.=22.270445, lon.=103.688118, Alt.=672.930176m. Speed=9.288000m/h.</desc>
<speed>2.580000</speed>
</trkpt>
<trkpt lat="22.270350" lon="103.688187">
<ele>674.367676</ele>
<time>2011-04-25T07:03:35Z</time>
<desc>lat.=22.270350, lon.=103.688187, Alt.=674.367676m. Speed=8.712000m/h.</desc>
<speed>2.420000</speed>
</trkpt>
<trkpt lat="22.270266" lon="103.688240">
<ele>675.883301</ele>
<time>2011-04-25T07:03:40Z</time>
<desc>lat.=22.270266, lon.=103.688240, Alt.=675.883301m. Speed=8.568000m/h.</desc>
<speed>2.380000</speed>
</trkpt>
<trkpt lat="22.270172" lon="103.688309">
<ele>675.680176</ele>
<time>2011-04-25T07:03:45Z</time>
<desc>lat.=22.270172, lon.=103.688309, Alt.=675.680176m. Speed=8.352000m/h.</desc>
<speed>2.320000</speed>
</trkpt>
<trkpt lat="22.270096" lon="103.688377">
<ele>676.039551</ele>
<time>2011-04-25T07:03:50Z</time>
<desc>lat.=22.270096, lon.=103.688377, Alt.=676.039551m. Speed=6.696000m/h.</desc>
<speed>1.860000</speed>
</trkpt>
<trkpt lat="22.270021" lon="103.688454">
<ele>676.289551</ele>
<time>2011-04-25T07:03:55Z</time>
<desc>lat.=22.270021, lon.=103.688454, Alt.=676.289551m. Speed=8.712000m/h.</desc>
<speed>2.420000</speed>
</trkpt>
<trkpt lat="22.269938" lon="103.688515">
<ele>676.258301</ele>
<time>2011-04-25T07:04:00Z</time>
<desc>lat.=22.269938, lon.=103.688515, Alt.=676.258301m. Speed=7.452000m/h.</desc>
<speed>2.070000</speed>
</trkpt>
<trkpt lat="22.269857" lon="103.688576">
<ele>677.727051</ele>
<time>2011-04-25T07:04:05Z</time>
<desc>lat.=22.269857, lon.=103.688576, Alt.=677.727051m. Speed=6.768000m/h.</desc>
<speed>1.880000</speed>
</trkpt>
<trkpt lat="22.269785" lon="103.688644">
<ele>677.852051</ele>
<time>2011-04-25T07:04:10Z</time>
<desc>lat.=22.269785, lon.=103.688644, Alt.=677.852051m. Speed=8.244000m/h.</desc>
<speed>2.290000</speed>
</trkpt>
<trkpt lat="22.269716" lon="103.688713">
<ele>677.836426</ele>
<time>2011-04-25T07:04:15Z</time>
<desc>lat.=22.269716, lon.=103.688713, Alt.=677.836426m. Speed=6.624000m/h.</desc>
<speed>1.840000</speed>
</trkpt>
<trkpt lat="22.269632" lon="103.688782">
<ele>678.945801</ele>
<time>2011-04-25T07:04:20Z</time>
<desc>lat.=22.269632, lon.=103.688782, Alt.=678.945801m. Speed=8.748000m/h.</desc>
<speed>2.430000</speed>
</trkpt>
<trkpt lat="22.269552" lon="103.688858">
<ele>679.523926</ele>
<time>2011-04-25T07:04:25Z</time>
<desc>lat.=22.269552, lon.=103.688858, Alt.=679.523926m. Speed=8.460000m/h.</desc>
<speed>2.350000</speed>
</trkpt>
<trkpt lat="22.269464" lon="103.688965">
<ele>680.852051</ele>
<time>2011-04-25T07:04:30Z</time>
<desc>lat.=22.269464, lon.=103.688965, Alt.=680.852051m. Speed=13.176000m/h.</desc>
<speed>3.660000</speed>
</trkpt>
<trkpt lat="22.269335" lon="103.689102">
<ele>681.570801</ele>
<time>2011-04-25T07:04:35Z</time>
<desc>lat.=22.269335, lon.=103.689102, Alt.=681.570801m. Speed=15.408000m/h.</desc>
<speed>4.280000</speed>
</trkpt>
<trkpt lat="22.269190" lon="103.689293">
<ele>681.977051</ele>
<time>2011-04-25T07:04:40Z</time>
<desc>lat.=22.269190, lon.=103.689293, Alt.=681.977051m. Speed=16.884001m/h.</desc>
<speed>4.690000</speed>
</trkpt>
<trkpt lat="22.269051" lon="103.689476">
<ele>683.242676</ele>
<time>2011-04-25T07:04:45Z</time>
<desc>lat.=22.269051, lon.=103.689476, Alt.=683.242676m. Speed=14.868000m/h.</desc>
<speed>4.130000</speed>
</trkpt>
<trkpt lat="22.268934" lon="103.689606">
<ele>684.633301</ele>
<time>2011-04-25T07:04:50Z</time>
<desc>lat.=22.268934, lon.=103.689606, Alt.=684.633301m. Speed=10.764000m/h.</desc>
<speed>2.990000</speed>
</trkpt>
<trkpt lat="22.268837" lon="103.689705">
<ele>686.445801</ele>
<time>2011-04-25T07:04:55Z</time>
<desc>lat.=22.268837, lon.=103.689705, Alt.=686.445801m. Speed=11.340000m/h.</desc>
<speed>3.150000</speed>
</trkpt>
<trkpt lat="22.268728" lon="103.689827">
<ele>686.758301</ele>
<time>2011-04-25T07:05:00Z</time>
<desc>lat.=22.268728, lon.=103.689827, Alt.=686.758301m. Speed=15.156000m/h.</desc>
<speed>4.210000</speed>
</trkpt>
<trkpt lat="22.268555" lon="103.690094">
<ele>688.367676</ele>
<time>2011-04-25T07:05:05Z</time>
<desc>lat.=22.268555, lon.=103.690094, Alt.=688.367676m. Speed=23.903999m/h.</desc>
<speed>6.640000</speed>
</trkpt>
<trkpt lat="22.268332" lon="103.690392">
<ele>687.555176</ele>
<time>2011-04-25T07:05:10Z</time>
<desc>lat.=22.268332, lon.=103.690392, Alt.=687.555176m. Speed=25.344000m/h.</desc>
<speed>7.040000</speed>
</trkpt>
<trkpt lat="22.268106" lon="103.690659">
<ele>688.664551</ele>
<time>2011-04-25T07:05:15Z</time>
<desc>lat.=22.268106, lon.=103.690659, Alt.=688.664551m. Speed=22.500000m/h.</desc>
<speed>6.250000</speed>
</trkpt>
<trkpt lat="22.267933" lon="103.690880">
<ele>688.727051</ele>
<time>2011-04-25T07:05:20Z</time>
<desc>lat.=22.267933, lon.=103.690880, Alt.=688.727051m. Speed=19.584000m/h.</desc>
<speed>5.440000</speed>
</trkpt>
<trkpt lat="22.267788" lon="103.691071">
<ele>690.102051</ele>
<time>2011-04-25T07:05:25Z</time>
<desc>lat.=22.267788, lon.=103.691071, Alt.=690.102051m. Speed=16.524000m/h.</desc>
<speed>4.590000</speed>
</trkpt>
<trkpt lat="22.267662" lon="103.691231">
<ele>690.852051</ele>
<time>2011-04-25T07:05:30Z</time>
<desc>lat.=22.267662, lon.=103.691231, Alt.=690.852051m. Speed=14.076000m/h.</desc>
<speed>3.910000</speed>
</trkpt>
<trkpt lat="22.267555" lon="103.691368">
<ele>692.336426</ele>
<time>2011-04-25T07:05:35Z</time>
<desc>lat.=22.267555, lon.=103.691368, Alt.=692.336426m. Speed=11.196000m/h.</desc>
<speed>3.110000</speed>
</trkpt>
<trkpt lat="22.267475" lon="103.691483">
<ele>693.242676</ele>
<time>2011-04-25T07:05:40Z</time>
<desc>lat.=22.267475, lon.=103.691483, Alt.=693.242676m. Speed=10.044000m/h.</desc>
<speed>2.790000</speed>
</trkpt>
<trkpt lat="22.267405" lon="103.691566">
<ele>693.820801</ele>
<time>2011-04-25T07:05:45Z</time>
<desc>lat.=22.267405, lon.=103.691566, Alt.=693.820801m. Speed=11.484000m/h.</desc>
<speed>3.190000</speed>
</trkpt>
<trkpt lat="22.267326" lon="103.691666">
<ele>693.367676</ele>
<time>2011-04-25T07:05:50Z</time>
<desc>lat.=22.267326, lon.=103.691666, Alt.=693.367676m. Speed=11.556000m/h.</desc>
<speed>3.210000</speed>
</trkpt>
<trkpt lat="22.267229" lon="103.691772">
<ele>692.305176</ele>
<time>2011-04-25T07:05:55Z</time>
<desc>lat.=22.267229, lon.=103.691772, Alt.=692.305176m. Speed=10.368000m/h.</desc>
<speed>2.880000</speed>
</trkpt>
<trkpt lat="22.267141" lon="103.691872">
<ele>692.805176</ele>
<time>2011-04-25T07:06:00Z</time>
<desc>lat.=22.267141, lon.=103.691872, Alt.=692.805176m. Speed=10.296000m/h.</desc>
<speed>2.860000</speed>
</trkpt>
<trkpt lat="22.267054" lon="103.691994">
<ele>692.836426</ele>
<time>2011-04-25T07:06:05Z</time>
<desc>lat.=22.267054, lon.=103.691994, Alt.=692.836426m. Speed=10.404000m/h.</desc>
<speed>2.890000</speed>
</trkpt>
<trkpt lat="22.266949" lon="103.692116">
<ele>692.820801</ele>
<time>2011-04-25T07:06:10Z</time>
<desc>lat.=22.266949, lon.=103.692116, Alt.=692.820801m. Speed=11.736000m/h.</desc>
<speed>3.260000</speed>
</trkpt>
<trkpt lat="22.266842" lon="103.692238">
<ele>693.070801</ele>
<time>2011-04-25T07:06:15Z</time>
<desc>lat.=22.266842, lon.=103.692238, Alt.=693.070801m. Speed=10.728000m/h.</desc>
<speed>2.980000</speed>
</trkpt>
<trkpt lat="22.266756" lon="103.692352">
<ele>693.477051</ele>
<time>2011-04-25T07:06:20Z</time>
<desc>lat.=22.266756, lon.=103.692352, Alt.=693.477051m. Speed=11.016000m/h.</desc>
<speed>3.060000</speed>
</trkpt>
<trkpt lat="22.266665" lon="103.692482">
<ele>693.539551</ele>
<time>2011-04-25T07:06:25Z</time>
<desc>lat.=22.266665, lon.=103.692482, Alt.=693.539551m. Speed=10.584000m/h.</desc>
<speed>2.940000</speed>
</trkpt>
<trkpt lat="22.266569" lon="103.692612">
<ele>693.211426</ele>
<time>2011-04-25T07:06:30Z</time>
<desc>lat.=22.266569, lon.=103.692612, Alt.=693.211426m. Speed=9.144000m/h.</desc>
<speed>2.540000</speed>
</trkpt>
<trkpt lat="22.266491" lon="103.692726">
<ele>693.133301</ele>
<time>2011-04-25T07:06:35Z</time>
<desc>lat.=22.266491, lon.=103.692726, Alt.=693.133301m. Speed=9.864000m/h.</desc>
<speed>2.740000</speed>
</trkpt>
<trkpt lat="22.266403" lon="103.692856">
<ele>692.883301</ele>
<time>2011-04-25T07:06:40Z</time>
<desc>lat.=22.266403, lon.=103.692856, Alt.=692.883301m. Speed=10.656000m/h.</desc>
<speed>2.960000</speed>
</trkpt>
<trkpt lat="22.266317" lon="103.692955">
<ele>692.305176</ele>
<time>2011-04-25T07:06:45Z</time>
<desc>lat.=22.266317, lon.=103.692955, Alt.=692.305176m. Speed=9.504000m/h.</desc>
<speed>2.640000</speed>
</trkpt>
<trkpt lat="22.266230" lon="103.693047">
<ele>692.320801</ele>
<time>2011-04-25T07:06:50Z</time>
<desc>lat.=22.266230, lon.=103.693047, Alt.=692.320801m. Speed=9.720000m/h.</desc>
<speed>2.700000</speed>
</trkpt>
<trkpt lat="22.266144" lon="103.693146">
<ele>692.492676</ele>
<time>2011-04-25T07:06:55Z</time>
<desc>lat.=22.266144, lon.=103.693146, Alt.=692.492676m. Speed=10.152000m/h.</desc>
<speed>2.820000</speed>
</trkpt>
<trkpt lat="22.266045" lon="103.693253">
<ele>693.039551</ele>
<time>2011-04-25T07:07:00Z</time>
<desc>lat.=22.266045, lon.=103.693253, Alt.=693.039551m. Speed=9.540000m/h.</desc>
<speed>2.650000</speed>
</trkpt>
<trkpt lat="22.265947" lon="103.693344">
<ele>694.461426</ele>
<time>2011-04-25T07:07:05Z</time>
<desc>lat.=22.265947, lon.=103.693344, Alt.=694.461426m. Speed=9.036000m/h.</desc>
<speed>2.510000</speed>
</trkpt>
<trkpt lat="22.265820" lon="103.693413">
<ele>696.086426</ele>
<time>2011-04-25T07:07:10Z</time>
<desc>lat.=22.265820, lon.=103.693413, Alt.=696.086426m. Speed=11.952000m/h.</desc>
<speed>3.320000</speed>
</trkpt>
<trkpt lat="22.265663" lon="103.693436">
<ele>697.352051</ele>
<time>2011-04-25T07:07:15Z</time>
<desc>lat.=22.265663, lon.=103.693436, Alt.=697.352051m. Speed=13.284000m/h.</desc>
<speed>3.690000</speed>
</trkpt>
<trkpt lat="22.265501" lon="103.693451">
<ele>697.289551</ele>
<time>2011-04-25T07:07:20Z</time>
<desc>lat.=22.265501, lon.=103.693451, Alt.=697.289551m. Speed=11.700000m/h.</desc>
<speed>3.250000</speed>
</trkpt>
<trkpt lat="22.265341" lon="103.693428">
<ele>697.773926</ele>
<time>2011-04-25T07:07:25Z</time>
<desc>lat.=22.265341, lon.=103.693428, Alt.=697.773926m. Speed=12.024000m/h.</desc>
<speed>3.340000</speed>
</trkpt>
<trkpt lat="22.265177" lon="103.693451">
<ele>698.352051</ele>
<time>2011-04-25T07:07:30Z</time>
<desc>lat.=22.265177, lon.=103.693451, Alt.=698.352051m. Speed=14.400000m/h.</desc>
<speed>4.000000</speed>
</trkpt>
<trkpt lat="22.264984" lon="103.693535">
<ele>699.273926</ele>
<time>2011-04-25T07:07:35Z</time>
<desc>lat.=22.264984, lon.=103.693535, Alt.=699.273926m. Speed=13.680000m/h.</desc>
<speed>3.800000</speed>
</trkpt>
<trkpt lat="22.264866" lon="103.693695">
<ele>696.945801</ele>
<time>2011-04-25T07:07:40Z</time>
<desc>lat.=22.264866, lon.=103.693695, Alt.=696.945801m. Speed=13.032000m/h.</desc>
<speed>3.620000</speed>
</trkpt>
<trkpt lat="22.264772" lon="103.693855">
<ele>696.664551</ele>
<time>2011-04-25T07:07:45Z</time>
<desc>lat.=22.264772, lon.=103.693855, Alt.=696.664551m. Speed=12.816000m/h.</desc>
<speed>3.560000</speed>
</trkpt>
<trkpt lat="22.264669" lon="103.694008">
<ele>696.789551</ele>
<time>2011-04-25T07:07:50Z</time>
<desc>lat.=22.264669, lon.=103.694008, Alt.=696.789551m. Speed=11.376000m/h.</desc>
<speed>3.160000</speed>
</trkpt>
<trkpt lat="22.264551" lon="103.694168">
<ele>694.977051</ele>
<time>2011-04-25T07:07:55Z</time>
<desc>lat.=22.264551, lon.=103.694168, Alt.=694.977051m. Speed=15.624000m/h.</desc>
<speed>4.340000</speed>
</trkpt>
<trkpt lat="22.264420" lon="103.694313">
<ele>694.758301</ele>
<time>2011-04-25T07:08:00Z</time>
<desc>lat.=22.264420, lon.=103.694313, Alt.=694.758301m. Speed=13.464000m/h.</desc>
<speed>3.740000</speed>
</trkpt>
<trkpt lat="22.264307" lon="103.694443">
<ele>695.930176</ele>
<time>2011-04-25T07:08:05Z</time>
<desc>lat.=22.264307, lon.=103.694443, Alt.=695.930176m. Speed=12.924000m/h.</desc>
<speed>3.590000</speed>
</trkpt>
<trkpt lat="22.264242" lon="103.694603">
<ele>696.305176</ele>
<time>2011-04-25T07:08:10Z</time>
<desc>lat.=22.264242, lon.=103.694603, Alt.=696.305176m. Speed=13.608000m/h.</desc>
<speed>3.780000</speed>
</trkpt>
<trkpt lat="22.264229" lon="103.694778">
<ele>696.820801</ele>
<time>2011-04-25T07:08:15Z</time>
<desc>lat.=22.264229, lon.=103.694778, Alt.=696.820801m. Speed=10.836000m/h.</desc>
<speed>3.010000</speed>
</trkpt>
<trkpt lat="22.264233" lon="103.694885">
<ele>698.398926</ele>
<time>2011-04-25T07:08:20Z</time>
<desc>lat.=22.264233, lon.=103.694885, Alt.=698.398926m. Speed=5.904000m/h.</desc>
<speed>1.640000</speed>
</trkpt>
<trkpt lat="22.264248" lon="103.694962">
<ele>699.555176</ele>
<time>2011-04-25T07:08:25Z</time>
<desc>lat.=22.264248, lon.=103.694962, Alt.=699.555176m. Speed=5.832000m/h.</desc>
<speed>1.620000</speed>
</trkpt>
<trkpt lat="22.264284" lon="103.695045">
<ele>699.930176</ele>
<time>2011-04-25T07:08:30Z</time>
<desc>lat.=22.264284, lon.=103.695045, Alt.=699.930176m. Speed=7.740000m/h.</desc>
<speed>2.150000</speed>
</trkpt>
<trkpt lat="22.264320" lon="103.695152">
<ele>699.977051</ele>
<time>2011-04-25T07:08:35Z</time>
<desc>lat.=22.264320, lon.=103.695152, Alt.=699.977051m. Speed=9.612000m/h.</desc>
<speed>2.670000</speed>
</trkpt>
<trkpt lat="22.264385" lon="103.695267">
<ele>700.195801</ele>
<time>2011-04-25T07:08:40Z</time>
<desc>lat.=22.264385, lon.=103.695267, Alt.=700.195801m. Speed=10.944000m/h.</desc>
<speed>3.040000</speed>
</trkpt>
<trkpt lat="22.264467" lon="103.695389">
<ele>700.648926</ele>
<time>2011-04-25T07:08:45Z</time>
<desc>lat.=22.264467, lon.=103.695389, Alt.=700.648926m. Speed=12.096000m/h.</desc>
<speed>3.360000</speed>
</trkpt>
<trkpt lat="22.264559" lon="103.695503">
<ele>701.258301</ele>
<time>2011-04-25T07:08:50Z</time>
<desc>lat.=22.264559, lon.=103.695503, Alt.=701.258301m. Speed=10.944000m/h.</desc>
<speed>3.040000</speed>
</trkpt>
<trkpt lat="22.264647" lon="103.695625">
<ele>701.836426</ele>
<time>2011-04-25T07:08:55Z</time>
<desc>lat.=22.264647, lon.=103.695625, Alt.=701.836426m. Speed=11.520000m/h.</desc>
<speed>3.200000</speed>
</trkpt>
<trkpt lat="22.264715" lon="103.695793">
<ele>701.742676</ele>
<time>2011-04-25T07:09:00Z</time>
<desc>lat.=22.264715, lon.=103.695793, Alt.=701.742676m. Speed=11.484000m/h.</desc>
<speed>3.190000</speed>
</trkpt>
<trkpt lat="22.264732" lon="103.695953">
<ele>701.883301</ele>
<time>2011-04-25T07:09:05Z</time>
<desc>lat.=22.264732, lon.=103.695953, Alt.=701.883301m. Speed=11.520000m/h.</desc>
<speed>3.200000</speed>
</trkpt>
<trkpt lat="22.264721" lon="103.696075">
<ele>702.055176</ele>
<time>2011-04-25T07:09:10Z</time>
<desc>lat.=22.264721, lon.=103.696075, Alt.=702.055176m. Speed=9.792000m/h.</desc>
<speed>2.720000</speed>
</trkpt>
<trkpt lat="22.264719" lon="103.696213">
<ele>702.164551</ele>
<time>2011-04-25T07:09:15Z</time>
<desc>lat.=22.264719, lon.=103.696213, Alt.=702.164551m. Speed=9.828000m/h.</desc>
<speed>2.730000</speed>
</trkpt>
<trkpt lat="22.264721" lon="103.696342">
<ele>702.680176</ele>
<time>2011-04-25T07:09:20Z</time>
<desc>lat.=22.264721, lon.=103.696342, Alt.=702.680176m. Speed=10.548000m/h.</desc>
<speed>2.930000</speed>
</trkpt>
<trkpt lat="22.264759" lon="103.696472">
<ele>703.805176</ele>
<time>2011-04-25T07:09:25Z</time>
<desc>lat.=22.264759, lon.=103.696472, Alt.=703.805176m. Speed=10.296000m/h.</desc>
<speed>2.860000</speed>
</trkpt>
<trkpt lat="22.264835" lon="103.696594">
<ele>705.023926</ele>
<time>2011-04-25T07:09:30Z</time>
<desc>lat.=22.264835, lon.=103.696594, Alt.=705.023926m. Speed=9.252000m/h.</desc>
<speed>2.570000</speed>
</trkpt>
<trkpt lat="22.264910" lon="103.696701">
<ele>706.742676</ele>
<time>2011-04-25T07:09:35Z</time>
<desc>lat.=22.264910, lon.=103.696701, Alt.=706.742676m. Speed=9.792000m/h.</desc>
<speed>2.720000</speed>
</trkpt>
<trkpt lat="22.264965" lon="103.696815">
<ele>707.398926</ele>
<time>2011-04-25T07:09:40Z</time>
<desc>lat.=22.264965, lon.=103.696815, Alt.=707.398926m. Speed=8.244000m/h.</desc>
<speed>2.290000</speed>
</trkpt>
<trkpt lat="22.265007" lon="103.696915">
<ele>708.305176</ele>
<time>2011-04-25T07:09:45Z</time>
<desc>lat.=22.265007, lon.=103.696915, Alt.=708.305176m. Speed=7.596000m/h.</desc>
<speed>2.110000</speed>
</trkpt>
<trkpt lat="22.265003" lon="103.697014">
<ele>708.211426</ele>
<time>2011-04-25T07:09:50Z</time>
<desc>lat.=22.265003, lon.=103.697014, Alt.=708.211426m. Speed=6.300000m/h.</desc>
<speed>1.750000</speed>
</trkpt>
<trkpt lat="22.264954" lon="103.697098">
<ele>708.430176</ele>
<time>2011-04-25T07:09:55Z</time>
<desc>lat.=22.264954, lon.=103.697098, Alt.=708.430176m. Speed=8.208000m/h.</desc>
<speed>2.280000</speed>
</trkpt>
<trkpt lat="22.264881" lon="103.697182">
<ele>709.492676</ele>
<time>2011-04-25T07:10:00Z</time>
<desc>lat.=22.264881, lon.=103.697182, Alt.=709.492676m. Speed=8.460000m/h.</desc>
<speed>2.350000</speed>
</trkpt>
<trkpt lat="22.264778" lon="103.697273">
<ele>711.305176</ele>
<time>2011-04-25T07:10:05Z</time>
<desc>lat.=22.264778, lon.=103.697273, Alt.=711.305176m. Speed=9.144000m/h.</desc>
<speed>2.540000</speed>
</trkpt>
<trkpt lat="22.264692" lon="103.697350">
<ele>713.695801</ele>
<time>2011-04-25T07:10:10Z</time>
<desc>lat.=22.264692, lon.=103.697350, Alt.=713.695801m. Speed=8.784000m/h.</desc>
<speed>2.440000</speed>
</trkpt>
<trkpt lat="22.264606" lon="103.697456">
<ele>714.430176</ele>
<time>2011-04-25T07:10:15Z</time>
<desc>lat.=22.264606, lon.=103.697456, Alt.=714.430176m. Speed=8.496000m/h.</desc>
<speed>2.360000</speed>
</trkpt>
<trkpt lat="22.264523" lon="103.697540">
<ele>716.430176</ele>
<time>2011-04-25T07:10:20Z</time>
<desc>lat.=22.264523, lon.=103.697540, Alt.=716.430176m. Speed=7.308000m/h.</desc>
<speed>2.030000</speed>
</trkpt>
<trkpt lat="22.264460" lon="103.697647">
<ele>717.352051</ele>
<time>2011-04-25T07:10:25Z</time>
<desc>lat.=22.264460, lon.=103.697647, Alt.=717.352051m. Speed=9.432000m/h.</desc>
<speed>2.620000</speed>
</trkpt>
<trkpt lat="22.264393" lon="103.697762">
<ele>718.492676</ele>
<time>2011-04-25T07:10:30Z</time>
<desc>lat.=22.264393, lon.=103.697762, Alt.=718.492676m. Speed=9.612000m/h.</desc>
<speed>2.670000</speed>
</trkpt>
<trkpt lat="22.264347" lon="103.697884">
<ele>718.477051</ele>
<time>2011-04-25T07:10:35Z</time>
<desc>lat.=22.264347, lon.=103.697884, Alt.=718.477051m. Speed=8.316000m/h.</desc>
<speed>2.310000</speed>
</trkpt>
<trkpt lat="22.264313" lon="103.697975">
<ele>719.258301</ele>
<time>2011-04-25T07:10:40Z</time>
<desc>lat.=22.264313, lon.=103.697975, Alt.=719.258301m. Speed=6.624000m/h.</desc>
<speed>1.840000</speed>
</trkpt>
<trkpt lat="22.264267" lon="103.698090">
<ele>720.258301</ele>
<time>2011-04-25T07:10:45Z</time>
<desc>lat.=22.264267, lon.=103.698090, Alt.=720.258301m. Speed=8.964000m/h.</desc>
<speed>2.490000</speed>
</trkpt>
<trkpt lat="22.264212" lon="103.698219">
<ele>720.648926</ele>
<time>2011-04-25T07:10:50Z</time>
<desc>lat.=22.264212, lon.=103.698219, Alt.=720.648926m. Speed=9.000000m/h.</desc>
<speed>2.500000</speed>
</trkpt>
<trkpt lat="22.264132" lon="103.698326">
<ele>721.617676</ele>
<time>2011-04-25T07:10:55Z</time>
<desc>lat.=22.264132, lon.=103.698326, Alt.=721.617676m. Speed=10.044000m/h.</desc>
<speed>2.790000</speed>
</trkpt>
<trkpt lat="22.264044" lon="103.698425">
<ele>722.539551</ele>
<time>2011-04-25T07:11:00Z</time>
<desc>lat.=22.264044, lon.=103.698425, Alt.=722.539551m. Speed=10.692000m/h.</desc>
<speed>2.970000</speed>
</trkpt>
<trkpt lat="22.263937" lon="103.698502">
<ele>724.023926</ele>
<time>2011-04-25T07:11:05Z</time>
<desc>lat.=22.263937, lon.=103.698502, Alt.=724.023926m. Speed=9.648000m/h.</desc>
<speed>2.680000</speed>
</trkpt>
<trkpt lat="22.263809" lon="103.698540">
<ele>723.805176</ele>
<time>2011-04-25T07:11:10Z</time>
<desc>lat.=22.263809, lon.=103.698540, Alt.=723.805176m. Speed=9.972000m/h.</desc>
<speed>2.770000</speed>
</trkpt>
<trkpt lat="22.263693" lon="103.698578">
<ele>724.398926</ele>
<time>2011-04-25T07:11:15Z</time>
<desc>lat.=22.263693, lon.=103.698578, Alt.=724.398926m. Speed=9.828000m/h.</desc>
<speed>2.730000</speed>
</trkpt>
<trkpt lat="22.263571" lon="103.698631">
<ele>724.820801</ele>
<time>2011-04-25T07:11:20Z</time>
<desc>lat.=22.263571, lon.=103.698631, Alt.=724.820801m. Speed=10.584000m/h.</desc>
<speed>2.940000</speed>
</trkpt>
<trkpt lat="22.263458" lon="103.698708">
<ele>724.477051</ele>
<time>2011-04-25T07:11:25Z</time>
<desc>lat.=22.263458, lon.=103.698708, Alt.=724.477051m. Speed=10.044000m/h.</desc>
<speed>2.790000</speed>
</trkpt>
<trkpt lat="22.263361" lon="103.698792">
<ele>724.914551</ele>
<time>2011-04-25T07:11:30Z</time>
<desc>lat.=22.263361, lon.=103.698792, Alt.=724.914551m. Speed=9.900000m/h.</desc>
<speed>2.750000</speed>
</trkpt>
<trkpt lat="22.263294" lon="103.698898">
<ele>725.633301</ele>
<time>2011-04-25T07:11:35Z</time>
<desc>lat.=22.263294, lon.=103.698898, Alt.=725.633301m. Speed=11.484000m/h.</desc>
<speed>3.190000</speed>
</trkpt>
<trkpt lat="22.263237" lon="103.698997">
<ele>727.852051</ele>
<time>2011-04-25T07:11:40Z</time>
<desc>lat.=22.263237, lon.=103.698997, Alt.=727.852051m. Speed=11.988000m/h.</desc>
<speed>3.330000</speed>
</trkpt>
<trkpt lat="22.263145" lon="103.699150">
<ele>729.211426</ele>
<time>2011-04-25T07:11:45Z</time>
<desc>lat.=22.263145, lon.=103.699150, Alt.=729.211426m. Speed=11.952000m/h.</desc>
<speed>3.320000</speed>
</trkpt>
<trkpt lat="22.263021" lon="103.699257">
<ele>729.023926</ele>
<time>2011-04-25T07:11:50Z</time>
<desc>lat.=22.263021, lon.=103.699257, Alt.=729.023926m. Speed=11.736000m/h.</desc>
<speed>3.260000</speed>
</trkpt>
<trkpt lat="22.262873" lon="103.699295">
<ele>731.195801</ele>
<time>2011-04-25T07:11:55Z</time>
<desc>lat.=22.262873, lon.=103.699295, Alt.=731.195801m. Speed=11.916000m/h.</desc>
<speed>3.310000</speed>
</trkpt>
<trkpt lat="22.262735" lon="103.699303">
<ele>733.742676</ele>
<time>2011-04-25T07:12:00Z</time>
<desc>lat.=22.262735, lon.=103.699303, Alt.=733.742676m. Speed=10.656000m/h.</desc>
<speed>2.960000</speed>
</trkpt>
<trkpt lat="22.262592" lon="103.699287">
<ele>737.398926</ele>
<time>2011-04-25T07:12:05Z</time>
<desc>lat.=22.262592, lon.=103.699287, Alt.=737.398926m. Speed=10.584000m/h.</desc>
<speed>2.940000</speed>
</trkpt>
<trkpt lat="22.262480" lon="103.699280">
<ele>740.727051</ele>
<time>2011-04-25T07:12:10Z</time>
<desc>lat.=22.262480, lon.=103.699280, Alt.=740.727051m. Speed=7.236000m/h.</desc>
<speed>2.010000</speed>
</trkpt>
<trkpt lat="22.262379" lon="103.699287">
<ele>742.930176</ele>
<time>2011-04-25T07:12:15Z</time>
<desc>lat.=22.262379, lon.=103.699287, Alt.=742.930176m. Speed=9.504000m/h.</desc>
<speed>2.640000</speed>
</trkpt>
<trkpt lat="22.262264" lon="103.699326">
<ele>743.570801</ele>
<time>2011-04-25T07:12:20Z</time>
<desc>lat.=22.262264, lon.=103.699326, Alt.=743.570801m. Speed=9.000000m/h.</desc>
<speed>2.500000</speed>
</trkpt>
<trkpt lat="22.262165" lon="103.699417">
<ele>741.633301</ele>
<time>2011-04-25T07:12:25Z</time>
<desc>lat.=22.262165, lon.=103.699417, Alt.=741.633301m. Speed=7.524000m/h.</desc>
<speed>2.090000</speed>
</trkpt>
<trkpt lat="22.262112" lon="103.699486">
<ele>741.742676</ele>
<time>2011-04-25T07:12:30Z</time>
<desc>lat.=22.262112, lon.=103.699486, Alt.=741.742676m. Speed=2.772000m/h.</desc>
<speed>0.770000</speed>
</trkpt>
<trkpt lat="22.262114" lon="103.699486">
<ele>740.508301</ele>
<time>2011-04-25T07:12:35Z</time>
<desc>lat.=22.262114, lon.=103.699486, Alt.=740.508301m. Speed=0.072000m/h.</desc>
<speed>0.020000</speed>
</trkpt>
<trkpt lat="22.262114" lon="103.699486">
<ele>740.508301</ele>
<time>2011-04-25T07:12:40Z</time>
<desc>lat.=22.262114, lon.=103.699486, Alt.=740.508301m. Speed=0.036000m/h.</desc>
<speed>0.010000</speed>
</trkpt>
<trkpt lat="22.262112" lon="103.699486">
<ele>740.570801</ele>
<time>2011-04-25T07:12:45Z</time>
<desc>lat.=22.262112, lon.=103.699486, Alt.=740.570801m. Speed=0.324000m/h.</desc>
<speed>0.090000</speed>
</trkpt>
<trkpt lat="22.262110" lon="103.699486">
<ele>740.664551</ele>
<time>2011-04-25T07:12:50Z</time>
<desc>lat.=22.262110, lon.=103.699486, Alt.=740.664551m. Speed=0.144000m/h.</desc>
<speed>0.040000</speed>
</trkpt>
<trkpt lat="22.262108" lon="103.699486">
<ele>740.711426</ele>
<time>2011-04-25T07:12:55Z</time>
<desc>lat.=22.262108, lon.=103.699486, Alt.=740.711426m. Speed=0.072000m/h.</desc>
<speed>0.020000</speed>
</trkpt>
<trkpt lat="22.262108" lon="103.699486">
<ele>740.758301</ele>
<time>2011-04-25T07:13:00Z</time>
<desc>lat.=22.262108, lon.=103.699486, Alt.=740.758301m. Speed=0.252000m/h.</desc>
<speed>0.070000</speed>
</trkpt>
<trkpt lat="22.262104" lon="103.699486">
<ele>740.836426</ele>
<time>2011-04-25T07:13:05Z</time>
<desc>lat.=22.262104, lon.=103.699486, Alt.=740.836426m. Speed=0.288000m/h.</desc>
<speed>0.080000</speed>
</trkpt>
<trkpt lat="22.262100" lon="103.699493">
<ele>740.945801</ele>
<time>2011-04-25T07:13:10Z</time>
<desc>lat.=22.262100, lon.=103.699493, Alt.=740.945801m. Speed=0.432000m/h.</desc>
<speed>0.120000</speed>
</trkpt>
<trkpt lat="22.262096" lon="103.699493">
<ele>741.039551</ele>
<time>2011-04-25T07:13:15Z</time>
<desc>lat.=22.262096, lon.=103.699493, Alt.=741.039551m. Speed=0.000000m/h.</desc>
<speed>0.000000</speed>
</trkpt>
<trkpt lat="22.262096" lon="103.699493">
<ele>741.023926</ele>
<time>2011-04-25T07:13:20Z</time>
<desc>lat.=22.262096, lon.=103.699493, Alt.=741.023926m. Speed=0.000000m/h.</desc>
<speed>0.000000</speed>
</trkpt>
<trkpt lat="22.262096" lon="103.699493">
<ele>741.008301</ele>
<time>2011-04-25T07:13:25Z</time>
<desc>lat.=22.262096, lon.=103.699493, Alt.=741.008301m. Speed=0.108000m/h.</desc>
<speed>0.030000</speed>
</trkpt>
<trkpt lat="22.262096" lon="103.699493">
<ele>741.008301</ele>
<time>2011-04-25T07:13:30Z</time>
<desc>lat.=22.262096, lon.=103.699493, Alt.=741.008301m. Speed=0.000000m/h.</desc>
<speed>0.000000</speed>
</trkpt>
<trkpt lat="22.262096" lon="103.699493">
<ele>740.992676</ele>
<time>2011-04-25T07:13:35Z</time>
<desc>lat.=22.262096, lon.=103.699493, Alt.=740.992676m. Speed=0.000000m/h.</desc>
<speed>0.000000</speed>
</trkpt>
<trkpt lat="22.262096" lon="103.699493">
<ele>740.992676</ele>
<time>2011-04-25T07:13:40Z</time>
<desc>lat.=22.262096, lon.=103.699493, Alt.=740.992676m. Speed=0.036000m/h.</desc>
<speed>0.010000</speed>
</trkpt>
<trkpt lat="22.262096" lon="103.699493">
<ele>740.977051</ele>
<time>2011-04-25T07:13:45Z</time>
<desc>lat.=22.262096, lon.=103.699493, Alt.=740.977051m. Speed=0.000000m/h.</desc>
<speed>0.000000</speed>
</trkpt>
<trkpt lat="22.262096" lon="103.699493">
<ele>740.977051</ele>
<time>2011-04-25T07:13:50Z</time>
<desc>lat.=22.262096, lon.=103.699493, Alt.=740.977051m. Speed=0.000000m/h.</desc>
<speed>0.000000</speed>
</trkpt>
<trkpt lat="22.262096" lon="103.699493">
<ele>740.977051</ele>
<time>2011-04-25T07:13:55Z</time>
<desc>lat.=22.262096, lon.=103.699493, Alt.=740.977051m. Speed=0.000000m/h.</desc>
<speed>0.000000</speed>
</trkpt>
<trkpt lat="22.262096" lon="103.699493">
<ele>740.977051</ele>
<time>2011-04-25T07:14:00Z</time>
<desc>lat.=22.262096, lon.=103.699493, Alt.=740.977051m. Speed=0.000000m/h.</desc>
<speed>0.000000</speed>
</trkpt>
<trkpt lat="22.262096" lon="103.699493">
<ele>740.961426</ele>
<time>2011-04-25T07:14:05Z</time>
<desc>lat.=22.262096, lon.=103.699493, Alt.=740.961426m. Speed=0.000000m/h.</desc>
<speed>0.000000</speed>
</trkpt>
<trkpt lat="22.262096" lon="103.699493">
<ele>740.961426</ele>
<time>2011-04-25T07:14:10Z</time>
<desc>lat.=22.262096, lon.=103.699493, Alt.=740.961426m. Speed=0.000000m/h.</desc>
<speed>0.000000</speed>
</trkpt>
<trkpt lat="22.262096" lon="103.699493">
<ele>740.961426</ele>
<time>2011-04-25T07:14:15Z</time>
<desc>lat.=22.262096, lon.=103.699493, Alt.=740.961426m. Speed=0.000000m/h.</desc>
<speed>0.000000</speed>
</trkpt>
<trkpt lat="22.262096" lon="103.699493">
<ele>740.961426</ele>
<time>2011-04-25T07:14:20Z</time>
<desc>lat.=22.262096, lon.=103.699493, Alt.=740.961426m. Speed=0.000000m/h.</desc>
<speed>0.000000</speed>
</trkpt>
<trkpt lat="22.262096" lon="103.699493">
<ele>740.961426</ele>
<time>2011-04-25T07:14:25Z</time>
<desc>lat.=22.262096, lon.=103.699493, Alt.=740.961426m. Speed=0.000000m/h.</desc>
<speed>0.000000</speed>
</trkpt>
<trkpt lat="22.262096" lon="103.699493">
<ele>740.961426</ele>
<time>2011-04-25T07:14:30Z</time>
<desc>lat.=22.262096, lon.=103.699493, Alt.=740.961426m. Speed=0.000000m/h.</desc>
<speed>0.000000</speed>
</trkpt>
<trkpt lat="22.262096" lon="103.699493">
<ele>740.961426</ele>
<time>2011-04-25T07:14:35Z</time>
<desc>lat.=22.262096, lon.=103.699493, Alt.=740.961426m. Speed=0.000000m/h.</desc>
<speed>0.000000</speed>
</trkpt>
<trkpt lat="22.262096" lon="103.699493">
<ele>740.945801</ele>
<time>2011-04-25T07:14:40Z</time>
<desc>lat.=22.262096, lon.=103.699493, Alt.=740.945801m. Speed=0.000000m/h.</desc>
<speed>0.000000</speed>
</trkpt>
<trkpt lat="22.262096" lon="103.699493">
<ele>740.945801</ele>
<time>2011-04-25T07:14:45Z</time>
<desc>lat.=22.262096, lon.=103.699493, Alt.=740.945801m. Speed=0.072000m/h.</desc>
<speed>0.020000</speed>
</trkpt>
<trkpt lat="22.262096" lon="103.699493">
<ele>740.930176</ele>
<time>2011-04-25T07:14:50Z</time>
<desc>lat.=22.262096, lon.=103.699493, Alt.=740.930176m. Speed=0.000000m/h.</desc>
<speed>0.000000</speed>
</trkpt>
<trkpt lat="22.262096" lon="103.699493">
<ele>740.914551</ele>
<time>2011-04-25T07:14:55Z</time>
<desc>lat.=22.262096, lon.=103.699493, Alt.=740.914551m. Speed=0.000000m/h.</desc>
<speed>0.000000</speed>
</trkpt>
<trkpt lat="22.262096" lon="103.699493">
<ele>740.898926</ele>
<time>2011-04-25T07:15:00Z</time>
<desc>lat.=22.262096, lon.=103.699493, Alt.=740.898926m. Speed=0.000000m/h.</desc>
<speed>0.000000</speed>
</trkpt>
<trkpt lat="22.262096" lon="103.699493">
<ele>740.883301</ele>
<time>2011-04-25T07:15:05Z</time>
<desc>lat.=22.262096, lon.=103.699493, Alt.=740.883301m. Speed=0.036000m/h.</desc>
<speed>0.010000</speed>
</trkpt>
<trkpt lat="22.262096" lon="103.699493">
<ele>740.883301</ele>
<time>2011-04-25T07:15:10Z</time>
<desc>lat.=22.262096, lon.=103.699493, Alt.=740.883301m. Speed=0.108000m/h.</desc>
<speed>0.030000</speed>
</trkpt>
<trkpt lat="22.262096" lon="103.699493">
<ele>740.867676</ele>
<time>2011-04-25T07:15:15Z</time>
<desc>lat.=22.262096, lon.=103.699493, Alt.=740.867676m. Speed=0.000000m/h.</desc>
<speed>0.000000</speed>
</trkpt>
<trkpt lat="22.262096" lon="103.699493">
<ele>740.867676</ele>
<time>2011-04-25T07:15:20Z</time>
<desc>lat.=22.262096, lon.=103.699493, Alt.=740.867676m. Speed=0.000000m/h.</desc>
<speed>0.000000</speed>
</trkpt>
<trkpt lat="22.262098" lon="103.699493">
<ele>740.852051</ele>
<time>2011-04-25T07:15:25Z</time>
<desc>lat.=22.262098, lon.=103.699493, Alt.=740.852051m. Speed=0.072000m/h.</desc>
<speed>0.020000</speed>
</trkpt>
<trkpt lat="22.262098" lon="103.699493">
<ele>740.836426</ele>
<time>2011-04-25T07:15:30Z</time>
<desc>lat.=22.262098, lon.=103.699493, Alt.=740.836426m. Speed=0.036000m/h.</desc>
<speed>0.010000</speed>
</trkpt>
<trkpt lat="22.262096" lon="103.699493">
<ele>740.805176</ele>
<time>2011-04-25T07:15:35Z</time>
<desc>lat.=22.262096, lon.=103.699493, Alt.=740.805176m. Speed=0.000000m/h.</desc>
<speed>0.000000</speed>
</trkpt>
<trkpt lat="22.262098" lon="103.699493">
<ele>740.789551</ele>
<time>2011-04-25T07:15:40Z</time>
<desc>lat.=22.262098, lon.=103.699493, Alt.=740.789551m. Speed=0.000000m/h.</desc>
<speed>0.000000</speed>
</trkpt>
<trkpt lat="22.262096" lon="103.699493">
<ele>740.789551</ele>
<time>2011-04-25T07:15:45Z</time>
<desc>lat.=22.262096, lon.=103.699493, Alt.=740.789551m. Speed=0.000000m/h.</desc>
<speed>0.000000</speed>
</trkpt>
<trkpt lat="22.262096" lon="103.699493">
<ele>740.773926</ele>
<time>2011-04-25T07:15:50Z</time>
<desc>lat.=22.262096, lon.=103.699493, Alt.=740.773926m. Speed=0.648000m/h.</desc>
<speed>0.180000</speed>
</trkpt>
<trkpt lat="22.262098" lon="103.699493">
<ele>740.758301</ele>
<time>2011-04-25T07:15:55Z</time>
<desc>lat.=22.262098, lon.=103.699493, Alt.=740.758301m. Speed=0.252000m/h.</desc>
<speed>0.070000</speed>
</trkpt>
<trkpt lat="22.262100" lon="103.699501">
<ele>740.742676</ele>
<time>2011-04-25T07:16:00Z</time>
<desc>lat.=22.262100, lon.=103.699501, Alt.=740.742676m. Speed=1.296000m/h.</desc>
<speed>0.360000</speed>
</trkpt>
<trkpt lat="22.262098" lon="103.699524">
<ele>740.711426</ele>
<time>2011-04-25T07:16:05Z</time>
<desc>lat.=22.262098, lon.=103.699524, Alt.=740.711426m. Speed=1.548000m/h.</desc>
<speed>0.430000</speed>
</trkpt>
<trkpt lat="22.262110" lon="103.699532">
<ele>740.617676</ele>
<time>2011-04-25T07:16:10Z</time>
<desc>lat.=22.262110, lon.=103.699532, Alt.=740.617676m. Speed=0.900000m/h.</desc>
<speed>0.250000</speed>
</trkpt>
<trkpt lat="22.262144" lon="103.699585">
<ele>740.477051</ele>
<time>2011-04-25T07:16:15Z</time>
<desc>lat.=22.262144, lon.=103.699585, Alt.=740.477051m. Speed=2.880000m/h.</desc>
<speed>0.800000</speed>
</trkpt>
<trkpt lat="22.262180" lon="103.699684">
<ele>740.398926</ele>
<time>2011-04-25T07:16:20Z</time>
<desc>lat.=22.262180, lon.=103.699684, Alt.=740.398926m. Speed=6.912000m/h.</desc>
<speed>1.920000</speed>
</trkpt>
<trkpt lat="22.262241" lon="103.699753">
<ele>740.305176</ele>
<time>2011-04-25T07:16:25Z</time>
<desc>lat.=22.262241, lon.=103.699753, Alt.=740.305176m. Speed=5.148000m/h.</desc>
<speed>1.430000</speed>
</trkpt>
<trkpt lat="22.262321" lon="103.699829">
<ele>740.367676</ele>
<time>2011-04-25T07:16:30Z</time>
<desc>lat.=22.262321, lon.=103.699829, Alt.=740.367676m. Speed=9.324000m/h.</desc>
<speed>2.590000</speed>
</trkpt>
<trkpt lat="22.262402" lon="103.699890">
<ele>740.336426</ele>
<time>2011-04-25T07:16:35Z</time>
<desc>lat.=22.262402, lon.=103.699890, Alt.=740.336426m. Speed=5.652000m/h.</desc>
<speed>1.570000</speed>
</trkpt>
<trkpt lat="22.262447" lon="103.699951">
<ele>739.508301</ele>
<time>2011-04-25T07:16:40Z</time>
<desc>lat.=22.262447, lon.=103.699951, Alt.=739.508301m. Speed=6.156000m/h.</desc>
<speed>1.710000</speed>
</trkpt>
<trkpt lat="22.262535" lon="103.700035">
<ele>739.617676</ele>
<time>2011-04-25T07:16:45Z</time>
<desc>lat.=22.262535, lon.=103.700035, Alt.=739.617676m. Speed=8.352000m/h.</desc>
<speed>2.320000</speed>
</trkpt>
<trkpt lat="22.262611" lon="103.700096">
<ele>739.242676</ele>
<time>2011-04-25T07:16:50Z</time>
<desc>lat.=22.262611, lon.=103.700096, Alt.=739.242676m. Speed=5.364000m/h.</desc>
<speed>1.490000</speed>
</trkpt>
<trkpt lat="22.262611" lon="103.700104">
<ele>739.164551</ele>
<time>2011-04-25T07:16:55Z</time>
<desc>lat.=22.262611, lon.=103.700104, Alt.=739.164551m. Speed=0.216000m/h.</desc>
<speed>0.060000</speed>
</trkpt>
<trkpt lat="22.262613" lon="103.700104">
<ele>738.898926</ele>
<time>2011-04-25T07:17:00Z</time>
<desc>lat.=22.262613, lon.=103.700104, Alt.=738.898926m. Speed=1.224000m/h.</desc>
<speed>0.340000</speed>
</trkpt>
<trkpt lat="22.262623" lon="103.700134">
<ele>737.945801</ele>
<time>2011-04-25T07:17:05Z</time>
<desc>lat.=22.262623, lon.=103.700134, Alt.=737.945801m. Speed=1.476000m/h.</desc>
<speed>0.410000</speed>
</trkpt>
<trkpt lat="22.262630" lon="103.700165">
<ele>738.742676</ele>
<time>2011-04-25T07:17:10Z</time>
<desc>lat.=22.262630, lon.=103.700165, Alt.=738.742676m. Speed=1.764000m/h.</desc>
<speed>0.490000</speed>
</trkpt>
<trkpt lat="22.262661" lon="103.700165">
<ele>739.617676</ele>
<time>2011-04-25T07:17:15Z</time>
<desc>lat.=22.262661, lon.=103.700165, Alt.=739.617676m. Speed=0.612000m/h.</desc>
<speed>0.170000</speed>
</trkpt>
<trkpt lat="22.262651" lon="103.700165">
<ele>740.289551</ele>
<time>2011-04-25T07:17:20Z</time>
<desc>lat.=22.262651, lon.=103.700165, Alt.=740.289551m. Speed=0.144000m/h.</desc>
<speed>0.040000</speed>
</trkpt>
<trkpt lat="22.262657" lon="103.700180">
<ele>740.430176</ele>
<time>2011-04-25T07:17:25Z</time>
<desc>lat.=22.262657, lon.=103.700180, Alt.=740.430176m. Speed=3.204000m/h.</desc>
<speed>0.890000</speed>
</trkpt>
<trkpt lat="22.262659" lon="103.700203">
<ele>741.227051</ele>
<time>2011-04-25T07:17:30Z</time>
<desc>lat.=22.262659, lon.=103.700203, Alt.=741.227051m. Speed=0.324000m/h.</desc>
<speed>0.090000</speed>
</trkpt>
<trkpt lat="22.262655" lon="103.700218">
<ele>741.930176</ele>
<time>2011-04-25T07:17:35Z</time>
<desc>lat.=22.262655, lon.=103.700218, Alt.=741.930176m. Speed=1.008000m/h.</desc>
<speed>0.280000</speed>
</trkpt>
<trkpt lat="22.262705" lon="103.700310">
<ele>741.773926</ele>
<time>2011-04-25T07:17:40Z</time>
<desc>lat.=22.262705, lon.=103.700310, Alt.=741.773926m. Speed=13.068000m/h.</desc>
<speed>3.630000</speed>
</trkpt>
<trkpt lat="22.262728" lon="103.700523">
<ele>741.648926</ele>
<time>2011-04-25T07:17:45Z</time>
<desc>lat.=22.262728, lon.=103.700523, Alt.=741.648926m. Speed=16.596001m/h.</desc>
<speed>4.610000</speed>
</trkpt>
<trkpt lat="22.262718" lon="103.700745">
<ele>740.883301</ele>
<time>2011-04-25T07:17:50Z</time>
<desc>lat.=22.262718, lon.=103.700745, Alt.=740.883301m. Speed=18.252001m/h.</desc>
<speed>5.070000</speed>
</trkpt>
<trkpt lat="22.262709" lon="103.701012">
<ele>739.445801</ele>
<time>2011-04-25T07:17:55Z</time>
<desc>lat.=22.262709, lon.=103.701012, Alt.=739.445801m. Speed=22.643999m/h.</desc>
<speed>6.290000</speed>
</trkpt>
<trkpt lat="22.262686" lon="103.701324">
<ele>737.930176</ele>
<time>2011-04-25T07:18:00Z</time>
<desc>lat.=22.262686, lon.=103.701324, Alt.=737.930176m. Speed=18.216000m/h.</desc>
<speed>5.060000</speed>
</trkpt>
<trkpt lat="22.262686" lon="103.701500">
<ele>736.820801</ele>
<time>2011-04-25T07:18:05Z</time>
<desc>lat.=22.262686, lon.=103.701500, Alt.=736.820801m. Speed=7.632000m/h.</desc>
<speed>2.120000</speed>
</trkpt>
<trkpt lat="22.262691" lon="103.701599">
<ele>735.586426</ele>
<time>2011-04-25T07:18:10Z</time>
<desc>lat.=22.262691, lon.=103.701599, Alt.=735.586426m. Speed=7.920000m/h.</desc>
<speed>2.200000</speed>
</trkpt>
<trkpt lat="22.262674" lon="103.701683">
<ele>735.508301</ele>
<time>2011-04-25T07:18:15Z</time>
<desc>lat.=22.262674, lon.=103.701683, Alt.=735.508301m. Speed=1.440000m/h.</desc>
<speed>0.400000</speed>
</trkpt>
<trkpt lat="22.262672" lon="103.701683">
<ele>735.914551</ele>
<time>2011-04-25T07:18:20Z</time>
<desc>lat.=22.262672, lon.=103.701683, Alt.=735.914551m. Speed=0.432000m/h.</desc>
<speed>0.120000</speed>
</trkpt>
<trkpt lat="22.262669" lon="103.701683">
<ele>735.977051</ele>
<time>2011-04-25T07:18:25Z</time>
<desc>lat.=22.262669, lon.=103.701683, Alt.=735.977051m. Speed=2.088000m/h.</desc>
<speed>0.580000</speed>
</trkpt>
<trkpt lat="22.262667" lon="103.701683">
<ele>736.023926</ele>
<time>2011-04-25T07:18:30Z</time>
<desc>lat.=22.262667, lon.=103.701683, Alt.=736.023926m. Speed=0.180000m/h.</desc>
<speed>0.050000</speed>
</trkpt>
<trkpt lat="22.262669" lon="103.701683">
<ele>736.164551</ele>
<time>2011-04-25T07:18:35Z</time>
<desc>lat.=22.262669, lon.=103.701683, Alt.=736.164551m. Speed=0.036000m/h.</desc>
<speed>0.010000</speed>
</trkpt>
<trkpt lat="22.262667" lon="103.701683">
<ele>736.164551</ele>
<time>2011-04-25T07:18:40Z</time>
<desc>lat.=22.262667, lon.=103.701683, Alt.=736.164551m. Speed=0.144000m/h.</desc>
<speed>0.040000</speed>
</trkpt>
<trkpt lat="22.262667" lon="103.701683">
<ele>736.117676</ele>
<time>2011-04-25T07:18:45Z</time>
<desc>lat.=22.262667, lon.=103.701683, Alt.=736.117676m. Speed=0.180000m/h.</desc>
<speed>0.050000</speed>
</trkpt>
<trkpt lat="22.262667" lon="103.701683">
<ele>736.102051</ele>
<time>2011-04-25T07:18:50Z</time>
<desc>lat.=22.262667, lon.=103.701683, Alt.=736.102051m. Speed=0.072000m/h.</desc>
<speed>0.020000</speed>
</trkpt>
<trkpt lat="22.262667" lon="103.701683">
<ele>736.070801</ele>
<time>2011-04-25T07:18:55Z</time>
<desc>lat.=22.262667, lon.=103.701683, Alt.=736.070801m. Speed=0.180000m/h.</desc>
<speed>0.050000</speed>
</trkpt>
<trkpt lat="22.262669" lon="103.701683">
<ele>736.039551</ele>
<time>2011-04-25T07:19:00Z</time>
<desc>lat.=22.262669, lon.=103.701683, Alt.=736.039551m. Speed=0.180000m/h.</desc>
<speed>0.050000</speed>
</trkpt>
<trkpt lat="22.262669" lon="103.701683">
<ele>736.023926</ele>
<time>2011-04-25T07:19:05Z</time>
<desc>lat.=22.262669, lon.=103.701683, Alt.=736.023926m. Speed=0.072000m/h.</desc>
<speed>0.020000</speed>
</trkpt>
<trkpt lat="22.262669" lon="103.701683">
<ele>736.008301</ele>
<time>2011-04-25T07:19:10Z</time>
<desc>lat.=22.262669, lon.=103.701683, Alt.=736.008301m. Speed=0.036000m/h.</desc>
<speed>0.010000</speed>
</trkpt>
<trkpt lat="22.262669" lon="103.701683">
<ele>736.023926</ele>
<time>2011-04-25T07:19:15Z</time>
<desc>lat.=22.262669, lon.=103.701683, Alt.=736.023926m. Speed=0.000000m/h.</desc>
<speed>0.000000</speed>
</trkpt>
<trkpt lat="22.262669" lon="103.701683">
<ele>736.023926</ele>
<time>2011-04-25T07:19:20Z</time>
<desc>lat.=22.262669, lon.=103.701683, Alt.=736.023926m. Speed=0.000000m/h.</desc>
<speed>0.000000</speed>
</trkpt>
<trkpt lat="22.262669" lon="103.701683">
<ele>736.008301</ele>
<time>2011-04-25T07:19:25Z</time>
<desc>lat.=22.262669, lon.=103.701683, Alt.=736.008301m. Speed=0.000000m/h.</desc>
<speed>0.000000</speed>
</trkpt>
<trkpt lat="22.262669" lon="103.701683">
<ele>736.008301</ele>
<time>2011-04-25T07:19:30Z</time>
<desc>lat.=22.262669, lon.=103.701683, Alt.=736.008301m. Speed=0.000000m/h.</desc>
<speed>0.000000</speed>
</trkpt>
<trkpt lat="22.262669" lon="103.701683">
<ele>736.008301</ele>
<time>2011-04-25T07:19:35Z</time>
<desc>lat.=22.262669, lon.=103.701683, Alt.=736.008301m. Speed=0.036000m/h.</desc>
<speed>0.010000</speed>
</trkpt>
<trkpt lat="22.262669" lon="103.701683">
<ele>736.023926</ele>
<time>2011-04-25T07:19:40Z</time>
<desc>lat.=22.262669, lon.=103.701683, Alt.=736.023926m. Speed=0.000000m/h.</desc>
<speed>0.000000</speed>
</trkpt>
<trkpt lat="22.262669" lon="103.701683">
<ele>736.008301</ele>
<time>2011-04-25T07:19:45Z</time>
<desc>lat.=22.262669, lon.=103.701683, Alt.=736.008301m. Speed=0.000000m/h.</desc>
<speed>0.000000</speed>
</trkpt>
<trkpt lat="22.262669" lon="103.701683">
<ele>736.008301</ele>
<time>2011-04-25T07:19:50Z</time>
<desc>lat.=22.262669, lon.=103.701683, Alt.=736.008301m. Speed=0.072000m/h.</desc>
<speed>0.020000</speed>
</trkpt>
<trkpt lat="22.262669" lon="103.701683">
<ele>736.023926</ele>
<time>2011-04-25T07:19:55Z</time>
<desc>lat.=22.262669, lon.=103.701683, Alt.=736.023926m. Speed=0.036000m/h.</desc>
<speed>0.010000</speed>
</trkpt>
<trkpt lat="22.262669" lon="103.701683">
<ele>736.039551</ele>
<time>2011-04-25T07:20:00Z</time>
<desc>lat.=22.262669, lon.=103.701683, Alt.=736.039551m. Speed=0.144000m/h.</desc>
<speed>0.040000</speed>
</trkpt>
<trkpt lat="22.262669" lon="103.701683">
<ele>736.055176</ele>
<time>2011-04-25T07:20:05Z</time>
<desc>lat.=22.262669, lon.=103.701683, Alt.=736.055176m. Speed=0.000000m/h.</desc>
<speed>0.000000</speed>
</trkpt>
<trkpt lat="22.262669" lon="103.701683">
<ele>736.055176</ele>
<time>2011-04-25T07:20:10Z</time>
<desc>lat.=22.262669, lon.=103.701683, Alt.=736.055176m. Speed=0.000000m/h.</desc>
<speed>0.000000</speed>
</trkpt>
<trkpt lat="22.262669" lon="103.701683">
<ele>736.039551</ele>
<time>2011-04-25T07:20:15Z</time>
<desc>lat.=22.262669, lon.=103.701683, Alt.=736.039551m. Speed=0.072000m/h.</desc>
<speed>0.020000</speed>
</trkpt>
<trkpt lat="22.262669" lon="103.701683">
<ele>736.039551</ele>
<time>2011-04-25T07:20:20Z</time>
<desc>lat.=22.262669, lon.=103.701683, Alt.=736.039551m. Speed=0.000000m/h.</desc>
<speed>0.000000</speed>
</trkpt>
<trkpt lat="22.262669" lon="103.701683">
<ele>736.023926</ele>
<time>2011-04-25T07:20:25Z</time>
<desc>lat.=22.262669, lon.=103.701683, Alt.=736.023926m. Speed=0.000000m/h.</desc>
<speed>0.000000</speed>
</trkpt>
<trkpt lat="22.262669" lon="103.701683">
<ele>735.992676</ele>
<time>2011-04-25T07:20:30Z</time>
<desc>lat.=22.262669, lon.=103.701683, Alt.=735.992676m. Speed=0.036000m/h.</desc>
<speed>0.010000</speed>
</trkpt>
<trkpt lat="22.262669" lon="103.701683">
<ele>735.961426</ele>
<time>2011-04-25T07:20:35Z</time>
<desc>lat.=22.262669, lon.=103.701683, Alt.=735.961426m. Speed=0.036000m/h.</desc>
<speed>0.010000</speed>
</trkpt>
<trkpt lat="22.262669" lon="103.701683">
<ele>735.961426</ele>
<time>2011-04-25T07:20:40Z</time>
<desc>lat.=22.262669, lon.=103.701683, Alt.=735.961426m. Speed=0.000000m/h.</desc>
<speed>0.000000</speed>
</trkpt>
<trkpt lat="22.262669" lon="103.701683">
<ele>735.977051</ele>
<time>2011-04-25T07:20:45Z</time>
<desc>lat.=22.262669, lon.=103.701683, Alt.=735.977051m. Speed=0.036000m/h.</desc>
<speed>0.010000</speed>
</trkpt>
<trkpt lat="22.262669" lon="103.701683">
<ele>735.977051</ele>
<time>2011-04-25T07:20:50Z</time>
<desc>lat.=22.262669, lon.=103.701683, Alt.=735.977051m. Speed=0.036000m/h.</desc>
<speed>0.010000</speed>
</trkpt>
<trkpt lat="22.262669" lon="103.701683">
<ele>735.961426</ele>
<time>2011-04-25T07:20:55Z</time>
<desc>lat.=22.262669, lon.=103.701683, Alt.=735.961426m. Speed=0.108000m/h.</desc>
<speed>0.030000</speed>
</trkpt>
<trkpt lat="22.262669" lon="103.701683">
<ele>735.945801</ele>
<time>2011-04-25T07:21:00Z</time>
<desc>lat.=22.262669, lon.=103.701683, Alt.=735.945801m. Speed=0.180000m/h.</desc>
<speed>0.050000</speed>
</trkpt>
<trkpt lat="22.262665" lon="103.701714">
<ele>735.727051</ele>
<time>2011-04-25T07:21:05Z</time>
<desc>lat.=22.262665, lon.=103.701714, Alt.=735.727051m. Speed=10.044000m/h.</desc>
<speed>2.790000</speed>
</trkpt>
<trkpt lat="22.262623" lon="103.701942">
<ele>734.492676</ele>
<time>2011-04-25T07:21:10Z</time>
<desc>lat.=22.262623, lon.=103.701942, Alt.=734.492676m. Speed=17.459999m/h.</desc>
<speed>4.850000</speed>
</trkpt>
<trkpt lat="22.262493" lon="103.702171">
<ele>733.945801</ele>
<time>2011-04-25T07:21:15Z</time>
<desc>lat.=22.262493, lon.=103.702171, Alt.=733.945801m. Speed=19.152000m/h.</desc>
<speed>5.320000</speed>
</trkpt>
<trkpt lat="22.262239" lon="103.702415">
<ele>734.680176</ele>
<time>2011-04-25T07:21:20Z</time>
<desc>lat.=22.262239, lon.=103.702415, Alt.=734.680176m. Speed=21.059999m/h.</desc>
<speed>5.850000</speed>
</trkpt>
<trkpt lat="22.261988" lon="103.702446">
<ele>734.758301</ele>
<time>2011-04-25T07:21:25Z</time>
<desc>lat.=22.261988, lon.=103.702446, Alt.=734.758301m. Speed=17.496000m/h.</desc>
<speed>4.860000</speed>
</trkpt>
<trkpt lat="22.261833" lon="103.702370">
<ele>735.820801</ele>
<time>2011-04-25T07:21:30Z</time>
<desc>lat.=22.261833, lon.=103.702370, Alt.=735.820801m. Speed=12.168000m/h.</desc>
<speed>3.380000</speed>
</trkpt>
<trkpt lat="22.261734" lon="103.702255">
<ele>736.742676</ele>
<time>2011-04-25T07:21:35Z</time>
<desc>lat.=22.261734, lon.=103.702255, Alt.=736.742676m. Speed=11.772000m/h.</desc>
<speed>3.270000</speed>
</trkpt>
<trkpt lat="22.261658" lon="103.702148">
<ele>737.320801</ele>
<time>2011-04-25T07:21:40Z</time>
<desc>lat.=22.261658, lon.=103.702148, Alt.=737.320801m. Speed=7.272000m/h.</desc>
<speed>2.020000</speed>
</trkpt>
<trkpt lat="22.261574" lon="103.702034">
<ele>737.805176</ele>
<time>2011-04-25T07:21:45Z</time>
<desc>lat.=22.261574, lon.=103.702034, Alt.=737.805176m. Speed=8.892000m/h.</desc>
<speed>2.470000</speed>
</trkpt>
<trkpt lat="22.261484" lon="103.701904">
<ele>738.336426</ele>
<time>2011-04-25T07:21:50Z</time>
<desc>lat.=22.261484, lon.=103.701904, Alt.=738.336426m. Speed=10.332000m/h.</desc>
<speed>2.870000</speed>
</trkpt>
<trkpt lat="22.261381" lon="103.701797">
<ele>739.805176</ele>
<time>2011-04-25T07:21:55Z</time>
<desc>lat.=22.261381, lon.=103.701797, Alt.=739.805176m. Speed=9.108000m/h.</desc>
<speed>2.530000</speed>
</trkpt>
<trkpt lat="22.261269" lon="103.701706">
<ele>741.523926</ele>
<time>2011-04-25T07:22:00Z</time>
<desc>lat.=22.261269, lon.=103.701706, Alt.=741.523926m. Speed=8.208000m/h.</desc>
<speed>2.280000</speed>
</trkpt>
<trkpt lat="22.261095" lon="103.701607">
<ele>745.914551</ele>
<time>2011-04-25T07:22:05Z</time>
<desc>lat.=22.261095, lon.=103.701607, Alt.=745.914551m. Speed=9.432000m/h.</desc>
<speed>2.620000</speed>
</trkpt>
<trkpt lat="22.260958" lon="103.701538">
<ele>750.227051</ele>
<time>2011-04-25T07:22:10Z</time>
<desc>lat.=22.260958, lon.=103.701538, Alt.=750.227051m. Speed=8.820000m/h.</desc>
<speed>2.450000</speed>
</trkpt>
<trkpt lat="22.260847" lon="103.701553">
<ele>750.820801</ele>
<time>2011-04-25T07:22:15Z</time>
<desc>lat.=22.260847, lon.=103.701553, Alt.=750.820801m. Speed=8.964000m/h.</desc>
<speed>2.490000</speed>
</trkpt>
<trkpt lat="22.260710" lon="103.701584">
<ele>751.258301</ele>
<time>2011-04-25T07:22:20Z</time>
<desc>lat.=22.260710, lon.=103.701584, Alt.=751.258301m. Speed=10.152000m/h.</desc>
<speed>2.820000</speed>
</trkpt>
<trkpt lat="22.260586" lon="103.701637">
<ele>751.555176</ele>
<time>2011-04-25T07:22:25Z</time>
<desc>lat.=22.260586, lon.=103.701637, Alt.=751.555176m. Speed=10.404000m/h.</desc>
<speed>2.890000</speed>
</trkpt>
<trkpt lat="22.260441" lon="103.701698">
<ele>751.695801</ele>
<time>2011-04-25T07:22:30Z</time>
<desc>lat.=22.260441, lon.=103.701698, Alt.=751.695801m. Speed=10.260000m/h.</desc>
<speed>2.850000</speed>
</trkpt>
<trkpt lat="22.260300" lon="103.701759">
<ele>751.477051</ele>
<time>2011-04-25T07:22:35Z</time>
<desc>lat.=22.260300, lon.=103.701759, Alt.=751.477051m. Speed=8.640000m/h.</desc>
<speed>2.400000</speed>
</trkpt>
<trkpt lat="22.260176" lon="103.701820">
<ele>751.414551</ele>
<time>2011-04-25T07:22:40Z</time>
<desc>lat.=22.260176, lon.=103.701820, Alt.=751.414551m. Speed=10.584000m/h.</desc>
<speed>2.940000</speed>
</trkpt>
<trkpt lat="22.260061" lon="103.701866">
<ele>752.305176</ele>
<time>2011-04-25T07:22:45Z</time>
<desc>lat.=22.260061, lon.=103.701866, Alt.=752.305176m. Speed=8.748000m/h.</desc>
<speed>2.430000</speed>
</trkpt>
<trkpt lat="22.259954" lon="103.701912">
<ele>753.258301</ele>
<time>2011-04-25T07:22:50Z</time>
<desc>lat.=22.259954, lon.=103.701912, Alt.=753.258301m. Speed=7.164000m/h.</desc>
<speed>1.990000</speed>
</trkpt>
<trkpt lat="22.259880" lon="103.701958">
<ele>754.273926</ele>
<time>2011-04-25T07:22:55Z</time>
<desc>lat.=22.259880, lon.=103.701958, Alt.=754.273926m. Speed=3.708000m/h.</desc>
<speed>1.030000</speed>
</trkpt>
<trkpt lat="22.259819" lon="103.702003">
<ele>755.648926</ele>
<time>2011-04-25T07:23:00Z</time>
<desc>lat.=22.259819, lon.=103.702003, Alt.=755.648926m. Speed=5.904000m/h.</desc>
<speed>1.640000</speed>
</trkpt>
<trkpt lat="22.259747" lon="103.702057">
<ele>757.398926</ele>
<time>2011-04-25T07:23:05Z</time>
<desc>lat.=22.259747, lon.=103.702057, Alt.=757.398926m. Speed=6.156000m/h.</desc>
<speed>1.710000</speed>
</trkpt>
<trkpt lat="22.259691" lon="103.702103">
<ele>759.289551</ele>
<time>2011-04-25T07:23:10Z</time>
<desc>lat.=22.259691, lon.=103.702103, Alt.=759.289551m. Speed=5.328000m/h.</desc>
<speed>1.480000</speed>
</trkpt>
<trkpt lat="22.259659" lon="103.702141">
<ele>760.070801</ele>
<time>2011-04-25T07:23:15Z</time>
<desc>lat.=22.259659, lon.=103.702141, Alt.=760.070801m. Speed=0.576000m/h.</desc>
<speed>0.160000</speed>
</trkpt>
<trkpt lat="22.259655" lon="103.702141">
<ele>760.570801</ele>
<time>2011-04-25T07:23:20Z</time>
<desc>lat.=22.259655, lon.=103.702141, Alt.=760.570801m. Speed=0.252000m/h.</desc>
<speed>0.070000</speed>
</trkpt>
<trkpt lat="22.259657" lon="103.702141">
<ele>760.586426</ele>
<time>2011-04-25T07:23:25Z</time>
<desc>lat.=22.259657, lon.=103.702141, Alt.=760.586426m. Speed=0.252000m/h.</desc>
<speed>0.070000</speed>
</trkpt>
<trkpt lat="22.259655" lon="103.702148">
<ele>760.539551</ele>
<time>2011-04-25T07:23:30Z</time>
<desc>lat.=22.259655, lon.=103.702148, Alt.=760.539551m. Speed=0.108000m/h.</desc>
<speed>0.030000</speed>
</trkpt>
<trkpt lat="22.259657" lon="103.702148">
<ele>760.445801</ele>
<time>2011-04-25T07:23:35Z</time>
<desc>lat.=22.259657, lon.=103.702148, Alt.=760.445801m. Speed=0.108000m/h.</desc>
<speed>0.030000</speed>
</trkpt>
<trkpt lat="22.259657" lon="103.702148">
<ele>760.383301</ele>
<time>2011-04-25T07:23:40Z</time>
<desc>lat.=22.259657, lon.=103.702148, Alt.=760.383301m. Speed=0.144000m/h.</desc>
<speed>0.040000</speed>
</trkpt>
<trkpt lat="22.259657" lon="103.702148">
<ele>760.414551</ele>
<time>2011-04-25T07:23:45Z</time>
<desc>lat.=22.259657, lon.=103.702148, Alt.=760.414551m. Speed=0.036000m/h.</desc>
<speed>0.010000</speed>
</trkpt>
<trkpt lat="22.259659" lon="103.702148">
<ele>760.320801</ele>
<time>2011-04-25T07:23:50Z</time>
<desc>lat.=22.259659, lon.=103.702148, Alt.=760.320801m. Speed=0.072000m/h.</desc>
<speed>0.020000</speed>
</trkpt>
<trkpt lat="22.259659" lon="103.702148">
<ele>760.289551</ele>
<time>2011-04-25T07:23:55Z</time>
<desc>lat.=22.259659, lon.=103.702148, Alt.=760.289551m. Speed=0.000000m/h.</desc>
<speed>0.000000</speed>
</trkpt>
<trkpt lat="22.259655" lon="103.702148">
<ele>760.461426</ele>
<time>2011-04-25T07:24:00Z</time>
<desc>lat.=22.259655, lon.=103.702148, Alt.=760.461426m. Speed=2.232000m/h.</desc>
<speed>0.620000</speed>
</trkpt>
<trkpt lat="22.259640" lon="103.702164">
<ele>760.789551</ele>
<time>2011-04-25T07:24:05Z</time>
<desc>lat.=22.259640, lon.=103.702164, Alt.=760.789551m. Speed=0.792000m/h.</desc>
<speed>0.220000</speed>
</trkpt>
<trkpt lat="22.259642" lon="103.702171">
<ele>760.805176</ele>
<time>2011-04-25T07:24:10Z</time>
<desc>lat.=22.259642, lon.=103.702171, Alt.=760.805176m. Speed=0.000000m/h.</desc>
<speed>0.000000</speed>
</trkpt>
<trkpt lat="22.259644" lon="103.702171">
<ele>760.727051</ele>
<time>2011-04-25T07:24:15Z</time>
<desc>lat.=22.259644, lon.=103.702171, Alt.=760.727051m. Speed=0.072000m/h.</desc>
<speed>0.020000</speed>
</trkpt>
<trkpt lat="22.259645" lon="103.702171">
<ele>760.633301</ele>
<time>2011-04-25T07:24:20Z</time>
<desc>lat.=22.259645, lon.=103.702171, Alt.=760.633301m. Speed=0.036000m/h.</desc>
<speed>0.010000</speed>
</trkpt>
<trkpt lat="22.259645" lon="103.702171">
<ele>760.602051</ele>
<time>2011-04-25T07:24:25Z</time>
<desc>lat.=22.259645, lon.=103.702171, Alt.=760.602051m. Speed=0.180000m/h.</desc>
<speed>0.050000</speed>
</trkpt>
<trkpt lat="22.259644" lon="103.702171">
<ele>760.633301</ele>
<time>2011-04-25T07:24:30Z</time>
<desc>lat.=22.259644, lon.=103.702171, Alt.=760.633301m. Speed=0.036000m/h.</desc>
<speed>0.010000</speed>
</trkpt>
<trkpt lat="22.259644" lon="103.702171">
<ele>760.664551</ele>
<time>2011-04-25T07:24:35Z</time>
<desc>lat.=22.259644, lon.=103.702171, Alt.=760.664551m. Speed=0.072000m/h.</desc>
<speed>0.020000</speed>
</trkpt>
<trkpt lat="22.259644" lon="103.702171">
<ele>760.664551</ele>
<time>2011-04-25T07:24:40Z</time>
<desc>lat.=22.259644, lon.=103.702171, Alt.=760.664551m. Speed=0.036000m/h.</desc>
<speed>0.010000</speed>
</trkpt>
<trkpt lat="22.259644" lon="103.702171">
<ele>760.648926</ele>
<time>2011-04-25T07:24:45Z</time>
<desc>lat.=22.259644, lon.=103.702171, Alt.=760.648926m. Speed=0.000000m/h.</desc>
<speed>0.000000</speed>
</trkpt>
<trkpt lat="22.259644" lon="103.702171">
<ele>760.633301</ele>
<time>2011-04-25T07:24:50Z</time>
<desc>lat.=22.259644, lon.=103.702171, Alt.=760.633301m. Speed=0.000000m/h.</desc>
<speed>0.000000</speed>
</trkpt>
<trkpt lat="22.259644" lon="103.702171">
<ele>760.633301</ele>
<time>2011-04-25T07:24:55Z</time>
<desc>lat.=22.259644, lon.=103.702171, Alt.=760.633301m. Speed=0.000000m/h.</desc>
<speed>0.000000</speed>
</trkpt>
<trkpt lat="22.259644" lon="103.702171">
<ele>760.633301</ele>
<time>2011-04-25T07:25:00Z</time>
<desc>lat.=22.259644, lon.=103.702171, Alt.=760.633301m. Speed=0.000000m/h.</desc>
<speed>0.000000</speed>
</trkpt>
<trkpt lat="22.259644" lon="103.702171">
<ele>760.633301</ele>
<time>2011-04-25T07:25:05Z</time>
<desc>lat.=22.259644, lon.=103.702171, Alt.=760.633301m. Speed=0.000000m/h.</desc>
<speed>0.000000</speed>
</trkpt>
<trkpt lat="22.259644" lon="103.702171">
<ele>760.648926</ele>
<time>2011-04-25T07:25:10Z</time>
<desc>lat.=22.259644, lon.=103.702171, Alt.=760.648926m. Speed=0.000000m/h.</desc>
<speed>0.000000</speed>
</trkpt>
<trkpt lat="22.259644" lon="103.702171">
<ele>760.648926</ele>
<time>2011-04-25T07:25:15Z</time>
<desc>lat.=22.259644, lon.=103.702171, Alt.=760.648926m. Speed=0.000000m/h.</desc>
<speed>0.000000</speed>
</trkpt>
<trkpt lat="22.259644" lon="103.702171">
<ele>760.633301</ele>
<time>2011-04-25T07:25:20Z</time>
<desc>lat.=22.259644, lon.=103.702171, Alt.=760.633301m. Speed=0.000000m/h.</desc>
<speed>0.000000</speed>
</trkpt>
<trkpt lat="22.259644" lon="103.702171">
<ele>760.633301</ele>
<time>2011-04-25T07:25:25Z</time>
<desc>lat.=22.259644, lon.=103.702171, Alt.=760.633301m. Speed=0.036000m/h.</desc>
<speed>0.010000</speed>
</trkpt>
<trkpt lat="22.259644" lon="103.702179">
<ele>760.633301</ele>
<time>2011-04-25T07:25:30Z</time>
<desc>lat.=22.259644, lon.=103.702179, Alt.=760.633301m. Speed=1.620000m/h.</desc>
<speed>0.450000</speed>
</trkpt>
<trkpt lat="22.259640" lon="103.702194">
<ele>760.633301</ele>
<time>2011-04-25T07:25:35Z</time>
<desc>lat.=22.259640, lon.=103.702194, Alt.=760.633301m. Speed=0.036000m/h.</desc>
<speed>0.010000</speed>
</trkpt>
<trkpt lat="22.259640" lon="103.702194">
<ele>760.727051</ele>
<time>2011-04-25T07:25:40Z</time>
<desc>lat.=22.259640, lon.=103.702194, Alt.=760.727051m. Speed=0.072000m/h.</desc>
<speed>0.020000</speed>
</trkpt>
<trkpt lat="22.259640" lon="103.702202">
<ele>760.742676</ele>
<time>2011-04-25T07:25:45Z</time>
<desc>lat.=22.259640, lon.=103.702202, Alt.=760.742676m. Speed=3.924000m/h.</desc>
<speed>1.090000</speed>
</trkpt>
<trkpt lat="22.259613" lon="103.702278">
<ele>760.414551</ele>
<time>2011-04-25T07:25:50Z</time>
<desc>lat.=22.259613, lon.=103.702278, Alt.=760.414551m. Speed=7.704000m/h.</desc>
<speed>2.140000</speed>
</trkpt>
<trkpt lat="22.259567" lon="103.702393">
<ele>760.836426</ele>
<time>2011-04-25T07:25:55Z</time>
<desc>lat.=22.259567, lon.=103.702393, Alt.=760.836426m. Speed=8.208000m/h.</desc>
<speed>2.280000</speed>
</trkpt>
<trkpt lat="22.259520" lon="103.702515">
<ele>761.508301</ele>
<time>2011-04-25T07:26:00Z</time>
<desc>lat.=22.259520, lon.=103.702515, Alt.=761.508301m. Speed=9.756000m/h.</desc>
<speed>2.710000</speed>
</trkpt>
<trkpt lat="22.259445" lon="103.702629">
<ele>761.133301</ele>
<time>2011-04-25T07:26:05Z</time>
<desc>lat.=22.259445, lon.=103.702629, Alt.=761.133301m. Speed=11.772000m/h.</desc>
<speed>3.270000</speed>
</trkpt>
<trkpt lat="22.259352" lon="103.702728">
<ele>760.711426</ele>
<time>2011-04-25T07:26:10Z</time>
<desc>lat.=22.259352, lon.=103.702728, Alt.=760.711426m. Speed=11.448000m/h.</desc>
<speed>3.180000</speed>
</trkpt>
<trkpt lat="22.259226" lon="103.702827">
<ele>761.461426</ele>
<time>2011-04-25T07:26:15Z</time>
<desc>lat.=22.259226, lon.=103.702827, Alt.=761.461426m. Speed=11.664000m/h.</desc>
<speed>3.240000</speed>
</trkpt>
<trkpt lat="22.259100" lon="103.702904">
<ele>762.289551</ele>
<time>2011-04-25T07:26:20Z</time>
<desc>lat.=22.259100, lon.=103.702904, Alt.=762.289551m. Speed=10.224000m/h.</desc>
<speed>2.840000</speed>
</trkpt>
<trkpt lat="22.258966" lon="103.702972">
<ele>763.602051</ele>
<time>2011-04-25T07:26:25Z</time>
<desc>lat.=22.258966, lon.=103.702972, Alt.=763.602051m. Speed=11.520000m/h.</desc>
<speed>3.200000</speed>
</trkpt>
<trkpt lat="22.258825" lon="103.703056">
<ele>763.992676</ele>
<time>2011-04-25T07:26:30Z</time>
<desc>lat.=22.258825, lon.=103.703056, Alt.=763.992676m. Speed=10.548000m/h.</desc>
<speed>2.930000</speed>
</trkpt>
<trkpt lat="22.258690" lon="103.703163">
<ele>762.555176</ele>
<time>2011-04-25T07:26:35Z</time>
<desc>lat.=22.258690, lon.=103.703163, Alt.=762.555176m. Speed=13.644000m/h.</desc>
<speed>3.790000</speed>
</trkpt>
<trkpt lat="22.258558" lon="103.703300">
<ele>762.477051</ele>
<time>2011-04-25T07:26:40Z</time>
<desc>lat.=22.258558, lon.=103.703300, Alt.=762.477051m. Speed=14.472000m/h.</desc>
<speed>4.020000</speed>
</trkpt>
<trkpt lat="22.258425" lon="103.703499">
<ele>760.539551</ele>
<time>2011-04-25T07:26:45Z</time>
<desc>lat.=22.258425, lon.=103.703499, Alt.=760.539551m. Speed=18.468000m/h.</desc>
<speed>5.130000</speed>
</trkpt>
<trkpt lat="22.258314" lon="103.703773">
<ele>758.617676</ele>
<time>2011-04-25T07:26:50Z</time>
<desc>lat.=22.258314, lon.=103.703773, Alt.=758.617676m. Speed=25.955999m/h.</desc>
<speed>7.210000</speed>
</trkpt>
<trkpt lat="22.258257" lon="103.704178">
<ele>755.414551</ele>
<time>2011-04-25T07:26:55Z</time>
<desc>lat.=22.258257, lon.=103.704178, Alt.=755.414551m. Speed=33.588001m/h.</desc>
<speed>9.330000</speed>
</trkpt>
<trkpt lat="22.258263" lon="103.704659">
<ele>751.773926</ele>
<time>2011-04-25T07:27:00Z</time>
<desc>lat.=22.258263, lon.=103.704659, Alt.=751.773926m. Speed=36.396000m/h.</desc>
<speed>10.110000</speed>
</trkpt>
<trkpt lat="22.258204" lon="103.705200">
<ele>747.305176</ele>
<time>2011-04-25T07:27:05Z</time>
<desc>lat.=22.258204, lon.=103.705200, Alt.=747.305176m. Speed=37.476002m/h.</desc>
<speed>10.410000</speed>
</trkpt>
<trkpt lat="22.257784" lon="103.705559">
<ele>746.914551</ele>
<time>2011-04-25T07:27:10Z</time>
<desc>lat.=22.257784, lon.=103.705559, Alt.=746.914551m. Speed=41.472000m/h.</desc>
<speed>11.520000</speed>
</trkpt>
<trkpt lat="22.257292" lon="103.705711">
<ele>746.070801</ele>
<time>2011-04-25T07:27:15Z</time>
<desc>lat.=22.257292, lon.=103.705711, Alt.=746.070801m. Speed=37.655998m/h.</desc>
<speed>10.460000</speed>
</trkpt>
<trkpt lat="22.256828" lon="103.705803">
<ele>745.711426</ele>
<time>2011-04-25T07:27:20Z</time>
<desc>lat.=22.256828, lon.=103.705803, Alt.=745.711426m. Speed=37.835999m/h.</desc>
<speed>10.510000</speed>
</trkpt>
<trkpt lat="22.256346" lon="103.705704">
<ele>745.414551</ele>
<time>2011-04-25T07:27:25Z</time>
<desc>lat.=22.256346, lon.=103.705704, Alt.=745.414551m. Speed=38.664001m/h.</desc>
<speed>10.740000</speed>
</trkpt>
<trkpt lat="22.255947" lon="103.705620">
<ele>744.023926</ele>
<time>2011-04-25T07:27:30Z</time>
<desc>lat.=22.255947, lon.=103.705620, Alt.=744.023926m. Speed=32.723999m/h.</desc>
<speed>9.090000</speed>
</trkpt>
<trkpt lat="22.255526" lon="103.705612">
<ele>742.805176</ele>
<time>2011-04-25T07:27:35Z</time>
<desc>lat.=22.255526, lon.=103.705612, Alt.=742.805176m. Speed=34.848000m/h.</desc>
<speed>9.680000</speed>
</trkpt>
<trkpt lat="22.255140" lon="103.705856">
<ele>741.445801</ele>
<time>2011-04-25T07:27:40Z</time>
<desc>lat.=22.255140, lon.=103.705856, Alt.=741.445801m. Speed=36.972000m/h.</desc>
<speed>10.270000</speed>
</trkpt>
<trkpt lat="22.254856" lon="103.706291">
<ele>738.430176</ele>
<time>2011-04-25T07:27:45Z</time>
<desc>lat.=22.254856, lon.=103.706291, Alt.=738.430176m. Speed=38.627998m/h.</desc>
<speed>10.730000</speed>
</trkpt>
<trkpt lat="22.254580" lon="103.706696">
<ele>736.289551</ele>
<time>2011-04-25T07:27:50Z</time>
<desc>lat.=22.254580, lon.=103.706696, Alt.=736.289551m. Speed=33.984001m/h.</desc>
<speed>9.440000</speed>
</trkpt>
<trkpt lat="22.254278" lon="103.707001">
<ele>734.695801</ele>
<time>2011-04-25T07:27:55Z</time>
<desc>lat.=22.254278, lon.=103.707001, Alt.=734.695801m. Speed=31.608000m/h.</desc>
<speed>8.780000</speed>
</trkpt>
<trkpt lat="22.253937" lon="103.707268">
<ele>733.195801</ele>
<time>2011-04-25T07:28:00Z</time>
<desc>lat.=22.253937, lon.=103.707268, Alt.=733.195801m. Speed=31.464001m/h.</desc>
<speed>8.740000</speed>
</trkpt>
<trkpt lat="22.253628" lon="103.707550">
<ele>732.367676</ele>
<time>2011-04-25T07:28:05Z</time>
<desc>lat.=22.253628, lon.=103.707550, Alt.=732.367676m. Speed=31.823999m/h.</desc>
<speed>8.840000</speed>
</trkpt>
<trkpt lat="22.253424" lon="103.707924">
<ele>728.555176</ele>
<time>2011-04-25T07:28:10Z</time>
<desc>lat.=22.253424, lon.=103.707924, Alt.=728.555176m. Speed=33.444000m/h.</desc>
<speed>9.290000</speed>
</trkpt>
<trkpt lat="22.253292" lon="103.708344">
<ele>725.383301</ele>
<time>2011-04-25T07:28:15Z</time>
<desc>lat.=22.253292, lon.=103.708344, Alt.=725.383301m. Speed=29.124001m/h.</desc>
<speed>8.090000</speed>
</trkpt>
<trkpt lat="22.253180" lon="103.708694">
<ele>723.555176</ele>
<time>2011-04-25T07:28:20Z</time>
<desc>lat.=22.253180, lon.=103.708694, Alt.=723.555176m. Speed=33.768002m/h.</desc>
<speed>9.380000</speed>
</trkpt>
<trkpt lat="22.253017" lon="103.708908">
<ele>725.555176</ele>
<time>2011-04-25T07:28:25Z</time>
<desc>lat.=22.253017, lon.=103.708908, Alt.=725.555176m. Speed=20.844000m/h.</desc>
<speed>5.790000</speed>
</trkpt>
<trkpt lat="22.252758" lon="103.709137">
<ele>728.320801</ele>
<time>2011-04-25T07:28:30Z</time>
<desc>lat.=22.252758, lon.=103.709137, Alt.=728.320801m. Speed=25.379999m/h.</desc>
<speed>7.050000</speed>
</trkpt>
<trkpt lat="22.252491" lon="103.709373">
<ele>728.320801</ele>
<time>2011-04-25T07:28:35Z</time>
<desc>lat.=22.252491, lon.=103.709373, Alt.=728.320801m. Speed=28.007999m/h.</desc>
<speed>7.780000</speed>
</trkpt>
<trkpt lat="22.252214" lon="103.709595">
<ele>728.633301</ele>
<time>2011-04-25T07:28:40Z</time>
<desc>lat.=22.252214, lon.=103.709595, Alt.=728.633301m. Speed=27.972000m/h.</desc>
<speed>7.770000</speed>
</trkpt>
<trkpt lat="22.251917" lon="103.709862">
<ele>728.461426</ele>
<time>2011-04-25T07:28:45Z</time>
<desc>lat.=22.251917, lon.=103.709862, Alt.=728.461426m. Speed=33.731998m/h.</desc>
<speed>9.370000</speed>
</trkpt>
<trkpt lat="22.251501" lon="103.710236">
<ele>727.508301</ele>
<time>2011-04-25T07:28:50Z</time>
<desc>lat.=22.251501, lon.=103.710236, Alt.=727.508301m. Speed=46.296001m/h.</desc>
<speed>12.860000</speed>
</trkpt>
<trkpt lat="22.250959" lon="103.710617">
<ele>726.680176</ele>
<time>2011-04-25T07:28:55Z</time>
<desc>lat.=22.250959, lon.=103.710617, Alt.=726.680176m. Speed=47.807999m/h.</desc>
<speed>13.280000</speed>
</trkpt>
<trkpt lat="22.250519" lon="103.711014">
<ele>720.961426</ele>
<time>2011-04-25T07:29:00Z</time>
<desc>lat.=22.250519, lon.=103.711014, Alt.=720.961426m. Speed=42.695999m/h.</desc>
<speed>11.860000</speed>
</trkpt>
<trkpt lat="22.250242" lon="103.711494">
<ele>712.945801</ele>
<time>2011-04-25T07:29:05Z</time>
<desc>lat.=22.250242, lon.=103.711494, Alt.=712.945801m. Speed=40.680000m/h.</desc>
<speed>11.300000</speed>
</trkpt>
<trkpt lat="22.250206" lon="103.712082">
<ele>705.836426</ele>
<time>2011-04-25T07:29:10Z</time>
<desc>lat.=22.250206, lon.=103.712082, Alt.=705.836426m. Speed=44.532001m/h.</desc>
<speed>12.370000</speed>
</trkpt>
<trkpt lat="22.249899" lon="103.712509">
<ele>699.914551</ele>
<time>2011-04-25T07:29:15Z</time>
<desc>lat.=22.249899, lon.=103.712509, Alt.=699.914551m. Speed=42.408001m/h.</desc>
<speed>11.780000</speed>
</trkpt>
<trkpt lat="22.249403" lon="103.712852">
<ele>695.773926</ele>
<time>2011-04-25T07:29:20Z</time>
<desc>lat.=22.249403, lon.=103.712852, Alt.=695.773926m. Speed=48.348000m/h.</desc>
<speed>13.430000</speed>
</trkpt>
<trkpt lat="22.248966" lon="103.713371">
<ele>690.289551</ele>
<time>2011-04-25T07:29:25Z</time>
<desc>lat.=22.248966, lon.=103.713371, Alt.=690.289551m. Speed=53.424000m/h.</desc>
<speed>14.840000</speed>
</trkpt>
<trkpt lat="22.248503" lon="103.713921">
<ele>685.680176</ele>
<time>2011-04-25T07:29:30Z</time>
<desc>lat.=22.248503, lon.=103.713921, Alt.=685.680176m. Speed=55.728001m/h.</desc>
<speed>15.480000</speed>
</trkpt>
<trkpt lat="22.247999" lon="103.714409">
<ele>681.586426</ele>
<time>2011-04-25T07:29:35Z</time>
<desc>lat.=22.247999, lon.=103.714409, Alt.=681.586426m. Speed=52.344002m/h.</desc>
<speed>14.540000</speed>
</trkpt>
<trkpt lat="22.247623" lon="103.714912">
<ele>675.820801</ele>
<time>2011-04-25T07:29:40Z</time>
<desc>lat.=22.247623, lon.=103.714912, Alt.=675.820801m. Speed=42.588001m/h.</desc>
<speed>11.830000</speed>
</trkpt>
<trkpt lat="22.247292" lon="103.715347">
<ele>671.008301</ele>
<time>2011-04-25T07:29:45Z</time>
<desc>lat.=22.247292, lon.=103.715347, Alt.=671.008301m. Speed=43.091999m/h.</desc>
<speed>11.970000</speed>
</trkpt>
<trkpt lat="22.246813" lon="103.715637">
<ele>667.180176</ele>
<time>2011-04-25T07:29:50Z</time>
<desc>lat.=22.246813, lon.=103.715637, Alt.=667.180176m. Speed=44.424000m/h.</desc>
<speed>12.340000</speed>
</trkpt>
<trkpt lat="22.246296" lon="103.715919">
<ele>663.727051</ele>
<time>2011-04-25T07:29:55Z</time>
<desc>lat.=22.246296, lon.=103.715919, Alt.=663.727051m. Speed=45.827999m/h.</desc>
<speed>12.730000</speed>
</trkpt>
<trkpt lat="22.245756" lon="103.716248">
<ele>659.273926</ele>
<time>2011-04-25T07:30:00Z</time>
<desc>lat.=22.245756, lon.=103.716248, Alt.=659.273926m. Speed=44.352001m/h.</desc>
<speed>12.320000</speed>
</trkpt>
<trkpt lat="22.245487" lon="103.716614">
<ele>658.102051</ele>
<time>2011-04-25T07:30:05Z</time>
<desc>lat.=22.245487, lon.=103.716614, Alt.=658.102051m. Speed=24.120001m/h.</desc>
<speed>6.700000</speed>
</trkpt>
<trkpt lat="22.245409" lon="103.716743">
<ele>656.914551</ele>
<time>2011-04-25T07:30:10Z</time>
<desc>lat.=22.245409, lon.=103.716743, Alt.=656.914551m. Speed=5.472000m/h.</desc>
<speed>1.520000</speed>
</trkpt>
<trkpt lat="22.245378" lon="103.716774">
<ele>657.273926</ele>
<time>2011-04-25T07:30:15Z</time>
<desc>lat.=22.245378, lon.=103.716774, Alt.=657.273926m. Speed=0.792000m/h.</desc>
<speed>0.220000</speed>
</trkpt>
<trkpt lat="22.245375" lon="103.716774">
<ele>657.008301</ele>
<time>2011-04-25T07:30:20Z</time>
<desc>lat.=22.245375, lon.=103.716774, Alt.=657.008301m. Speed=0.252000m/h.</desc>
<speed>0.070000</speed>
</trkpt>
<trkpt lat="22.245377" lon="103.716774">
<ele>656.836426</ele>
<time>2011-04-25T07:30:25Z</time>
<desc>lat.=22.245377, lon.=103.716774, Alt.=656.836426m. Speed=0.108000m/h.</desc>
<speed>0.030000</speed>
</trkpt>
<trkpt lat="22.245375" lon="103.716782">
<ele>656.711426</ele>
<time>2011-04-25T07:30:30Z</time>
<desc>lat.=22.245375, lon.=103.716782, Alt.=656.711426m. Speed=0.144000m/h.</desc>
<speed>0.040000</speed>
</trkpt>
<trkpt lat="22.245375" lon="103.716782">
<ele>656.680176</ele>
<time>2011-04-25T07:30:35Z</time>
<desc>lat.=22.245375, lon.=103.716782, Alt.=656.680176m. Speed=0.036000m/h.</desc>
<speed>0.010000</speed>
</trkpt>
<trkpt lat="22.245375" lon="103.716782">
<ele>656.680176</ele>
<time>2011-04-25T07:30:40Z</time>
<desc>lat.=22.245375, lon.=103.716782, Alt.=656.680176m. Speed=0.036000m/h.</desc>
<speed>0.010000</speed>
</trkpt>
<trkpt lat="22.245375" lon="103.716782">
<ele>656.680176</ele>
<time>2011-04-25T07:30:45Z</time>
<desc>lat.=22.245375, lon.=103.716782, Alt.=656.680176m. Speed=0.072000m/h.</desc>
<speed>0.020000</speed>
</trkpt>
<trkpt lat="22.245375" lon="103.716782">
<ele>656.680176</ele>
<time>2011-04-25T07:30:50Z</time>
<desc>lat.=22.245375, lon.=103.716782, Alt.=656.680176m. Speed=0.000000m/h.</desc>
<speed>0.000000</speed>
</trkpt>
<trkpt lat="22.245375" lon="103.716782">
<ele>656.664551</ele>
<time>2011-04-25T07:30:55Z</time>
<desc>lat.=22.245375, lon.=103.716782, Alt.=656.664551m. Speed=0.108000m/h.</desc>
<speed>0.030000</speed>
</trkpt>
<trkpt lat="22.245375" lon="103.716782">
<ele>656.664551</ele>
<time>2011-04-25T07:31:00Z</time>
<desc>lat.=22.245375, lon.=103.716782, Alt.=656.664551m. Speed=0.000000m/h.</desc>
<speed>0.000000</speed>
</trkpt>
<trkpt lat="22.245373" lon="103.716782">
<ele>656.664551</ele>
<time>2011-04-25T07:31:05Z</time>
<desc>lat.=22.245373, lon.=103.716782, Alt.=656.664551m. Speed=0.072000m/h.</desc>
<speed>0.020000</speed>
</trkpt>
<trkpt lat="22.245373" lon="103.716782">
<ele>656.664551</ele>
<time>2011-04-25T07:31:10Z</time>
<desc>lat.=22.245373, lon.=103.716782, Alt.=656.664551m. Speed=0.036000m/h.</desc>
<speed>0.010000</speed>
</trkpt>
<trkpt lat="22.245373" lon="103.716782">
<ele>656.695801</ele>
<time>2011-04-25T07:31:15Z</time>
<desc>lat.=22.245373, lon.=103.716782, Alt.=656.695801m. Speed=0.360000m/h.</desc>
<speed>0.100000</speed>
</trkpt>
<trkpt lat="22.245373" lon="103.716782">
<ele>656.695801</ele>
<time>2011-04-25T07:31:20Z</time>
<desc>lat.=22.245373, lon.=103.716782, Alt.=656.695801m. Speed=0.180000m/h.</desc>
<speed>0.050000</speed>
</trkpt>
<trkpt lat="22.245373" lon="103.716782">
<ele>656.695801</ele>
<time>2011-04-25T07:31:25Z</time>
<desc>lat.=22.245373, lon.=103.716782, Alt.=656.695801m. Speed=0.108000m/h.</desc>
<speed>0.030000</speed>
</trkpt>
<trkpt lat="22.245373" lon="103.716782">
<ele>656.695801</ele>
<time>2011-04-25T07:31:30Z</time>
<desc>lat.=22.245373, lon.=103.716782, Alt.=656.695801m. Speed=0.072000m/h.</desc>
<speed>0.020000</speed>
</trkpt>
<trkpt lat="22.245373" lon="103.716782">
<ele>656.695801</ele>
<time>2011-04-25T07:31:35Z</time>
<desc>lat.=22.245373, lon.=103.716782, Alt.=656.695801m. Speed=0.072000m/h.</desc>
<speed>0.020000</speed>
</trkpt>
<trkpt lat="22.245373" lon="103.716782">
<ele>656.695801</ele>
<time>2011-04-25T07:31:40Z</time>
<desc>lat.=22.245373, lon.=103.716782, Alt.=656.695801m. Speed=0.180000m/h.</desc>
<speed>0.050000</speed>
</trkpt>
<trkpt lat="22.245373" lon="103.716782">
<ele>656.695801</ele>
<time>2011-04-25T07:31:45Z</time>
<desc>lat.=22.245373, lon.=103.716782, Alt.=656.695801m. Speed=0.360000m/h.</desc>
<speed>0.100000</speed>
</trkpt>
<trkpt lat="22.245371" lon="103.716782">
<ele>656.695801</ele>
<time>2011-04-25T07:31:50Z</time>
<desc>lat.=22.245371, lon.=103.716782, Alt.=656.695801m. Speed=0.072000m/h.</desc>
<speed>0.020000</speed>
</trkpt>
<trkpt lat="22.245344" lon="103.716820">
<ele>656.914551</ele>
<time>2011-04-25T07:31:55Z</time>
<desc>lat.=22.245344, lon.=103.716820, Alt.=656.914551m. Speed=14.616000m/h.</desc>
<speed>4.060000</speed>
</trkpt>
<trkpt lat="22.245203" lon="103.717072">
<ele>656.617676</ele>
<time>2011-04-25T07:32:00Z</time>
<desc>lat.=22.245203, lon.=103.717072, Alt.=656.617676m. Speed=25.416000m/h.</desc>
<speed>7.060000</speed>
</trkpt>
<trkpt lat="22.244984" lon="103.717468">
<ele>652.102051</ele>
<time>2011-04-25T07:32:05Z</time>
<desc>lat.=22.244984, lon.=103.717468, Alt.=652.102051m. Speed=36.540001m/h.</desc>
<speed>10.150000</speed>
</trkpt>
<trkpt lat="22.244699" lon="103.717979">
<ele>648.070801</ele>
<time>2011-04-25T07:32:10Z</time>
<desc>lat.=22.244699, lon.=103.717979, Alt.=648.070801m. Speed=44.568001m/h.</desc>
<speed>12.380000</speed>
</trkpt>
<trkpt lat="22.244337" lon="103.718483">
<ele>644.008301</ele>
<time>2011-04-25T07:32:15Z</time>
<desc>lat.=22.244337, lon.=103.718483, Alt.=644.008301m. Speed=43.380001m/h.</desc>
<speed>12.050000</speed>
</trkpt>
<trkpt lat="22.243914" lon="103.718864">
<ele>639.664551</ele>
<time>2011-04-25T07:32:20Z</time>
<desc>lat.=22.243914, lon.=103.718864, Alt.=639.664551m. Speed=43.164001m/h.</desc>
<speed>11.990000</speed>
</trkpt>
<trkpt lat="22.243374" lon="103.719147">
<ele>636.133301</ele>
<time>2011-04-25T07:32:25Z</time>
<desc>lat.=22.243374, lon.=103.719147, Alt.=636.133301m. Speed=46.872002m/h.</desc>
<speed>13.020000</speed>
</trkpt>
<trkpt lat="22.242853" lon="103.719513">
<ele>632.117676</ele>
<time>2011-04-25T07:32:30Z</time>
<desc>lat.=22.242853, lon.=103.719513, Alt.=632.117676m. Speed=49.571999m/h.</desc>
<speed>13.770000</speed>
</trkpt>
<trkpt lat="22.242310" lon="103.719925">
<ele>627.773926</ele>
<time>2011-04-25T07:32:35Z</time>
<desc>lat.=22.242310, lon.=103.719925, Alt.=627.773926m. Speed=52.523998m/h.</desc>
<speed>14.590000</speed>
</trkpt>
<trkpt lat="22.241863" lon="103.720360">
<ele>622.961426</ele>
<time>2011-04-25T07:32:40Z</time>
<desc>lat.=22.241863, lon.=103.720360, Alt.=622.961426m. Speed=43.956001m/h.</desc>
<speed>12.210000</speed>
</trkpt>
<trkpt lat="22.241730" lon="103.720871">
<ele>621.945801</ele>
<time>2011-04-25T07:32:45Z</time>
<desc>lat.=22.241730, lon.=103.720871, Alt.=621.945801m. Speed=37.080002m/h.</desc>
<speed>10.300001</speed>
</trkpt>
<trkpt lat="22.241627" lon="103.721321">
<ele>621.430176</ele>
<time>2011-04-25T07:32:50Z</time>
<desc>lat.=22.241627, lon.=103.721321, Alt.=621.430176m. Speed=31.320000m/h.</desc>
<speed>8.700000</speed>
</trkpt>
<trkpt lat="22.241499" lon="103.721695">
<ele>620.695801</ele>
<time>2011-04-25T07:32:55Z</time>
<desc>lat.=22.241499, lon.=103.721695, Alt.=620.695801m. Speed=28.836000m/h.</desc>
<speed>8.010000</speed>
</trkpt>
<trkpt lat="22.241207" lon="103.722000">
<ele>620.617676</ele>
<time>2011-04-25T07:33:00Z</time>
<desc>lat.=22.241207, lon.=103.722000, Alt.=620.617676m. Speed=35.891998m/h.</desc>
<speed>9.970000</speed>
</trkpt>
<trkpt lat="22.240763" lon="103.722229">
<ele>620.930176</ele>
<time>2011-04-25T07:33:05Z</time>
<desc>lat.=22.240763, lon.=103.722229, Alt.=620.930176m. Speed=39.995998m/h.</desc>
<speed>11.110000</speed>
</trkpt>
<trkpt lat="22.240269" lon="103.722260">
<ele>621.164551</ele>
<time>2011-04-25T07:33:10Z</time>
<desc>lat.=22.240269, lon.=103.722260, Alt.=621.164551m. Speed=39.743999m/h.</desc>
<speed>11.040000</speed>
</trkpt>
<trkpt lat="22.239790" lon="103.722168">
<ele>621.258301</ele>
<time>2011-04-25T07:33:15Z</time>
<desc>lat.=22.239790, lon.=103.722168, Alt.=621.258301m. Speed=38.051998m/h.</desc>
<speed>10.569999</speed>
</trkpt>
<trkpt lat="22.239342" lon="103.722031">
<ele>621.383301</ele>
<time>2011-04-25T07:33:20Z</time>
<desc>lat.=22.239342, lon.=103.722031, Alt.=621.383301m. Speed=37.476002m/h.</desc>
<speed>10.410000</speed>
</trkpt>
<trkpt lat="22.238918" lon="103.721825">
<ele>620.773926</ele>
<time>2011-04-25T07:33:25Z</time>
<desc>lat.=22.238918, lon.=103.721825, Alt.=620.773926m. Speed=36.900002m/h.</desc>
<speed>10.250000</speed>
</trkpt>
<trkpt lat="22.238495" lon="103.721573">
<ele>618.898926</ele>
<time>2011-04-25T07:33:30Z</time>
<desc>lat.=22.238495, lon.=103.721573, Alt.=618.898926m. Speed=38.160000m/h.</desc>
<speed>10.600000</speed>
</trkpt>
<trkpt lat="22.238081" lon="103.721329">
<ele>617.570801</ele>
<time>2011-04-25T07:33:35Z</time>
<desc>lat.=22.238081, lon.=103.721329, Alt.=617.570801m. Speed=37.332001m/h.</desc>
<speed>10.370000</speed>
</trkpt>
<trkpt lat="22.237665" lon="103.721115">
<ele>616.070801</ele>
<time>2011-04-25T07:33:40Z</time>
<desc>lat.=22.237665, lon.=103.721115, Alt.=616.070801m. Speed=36.287998m/h.</desc>
<speed>10.079999</speed>
</trkpt>
<trkpt lat="22.237226" lon="103.720924">
<ele>613.180176</ele>
<time>2011-04-25T07:33:45Z</time>
<desc>lat.=22.237226, lon.=103.720924, Alt.=613.180176m. Speed=38.844002m/h.</desc>
<speed>10.790000</speed>
</trkpt>
<trkpt lat="22.236780" lon="103.720772">
<ele>610.758301</ele>
<time>2011-04-25T07:33:50Z</time>
<desc>lat.=22.236780, lon.=103.720772, Alt.=610.758301m. Speed=35.675999m/h.</desc>
<speed>9.910000</speed>
</trkpt>
<trkpt lat="22.236361" lon="103.720642">
<ele>608.820801</ele>
<time>2011-04-25T07:33:55Z</time>
<desc>lat.=22.236361, lon.=103.720642, Alt.=608.820801m. Speed=30.528000m/h.</desc>
<speed>8.480000</speed>
</trkpt>
<trkpt lat="22.235970" lon="103.720490">
<ele>607.289551</ele>
<time>2011-04-25T07:34:00Z</time>
<desc>lat.=22.235970, lon.=103.720490, Alt.=607.289551m. Speed=31.500000m/h.</desc>
<speed>8.750000</speed>
</trkpt>
<trkpt lat="22.235565" lon="103.720314">
<ele>605.945801</ele>
<time>2011-04-25T07:34:05Z</time>
<desc>lat.=22.235565, lon.=103.720314, Alt.=605.945801m. Speed=30.708000m/h.</desc>
<speed>8.530000</speed>
</trkpt>
<trkpt lat="22.235147" lon="103.720177">
<ele>603.477051</ele>
<time>2011-04-25T07:34:10Z</time>
<desc>lat.=22.235147, lon.=103.720177, Alt.=603.477051m. Speed=34.164001m/h.</desc>
<speed>9.490000</speed>
</trkpt>
<trkpt lat="22.234676" lon="103.720268">
<ele>604.227051</ele>
<time>2011-04-25T07:34:15Z</time>
<desc>lat.=22.234676, lon.=103.720268, Alt.=604.227051m. Speed=36.396000m/h.</desc>
<speed>10.110000</speed>
</trkpt>
<trkpt lat="22.234262" lon="103.720490">
<ele>603.586426</ele>
<time>2011-04-25T07:34:20Z</time>
<desc>lat.=22.234262, lon.=103.720490, Alt.=603.586426m. Speed=35.748001m/h.</desc>
<speed>9.930000</speed>
</trkpt>
<trkpt lat="22.233824" lon="103.720680">
<ele>603.102051</ele>
<time>2011-04-25T07:34:25Z</time>
<desc>lat.=22.233824, lon.=103.720680, Alt.=603.102051m. Speed=38.556000m/h.</desc>
<speed>10.710000</speed>
</trkpt>
<trkpt lat="22.233362" lon="103.720749">
<ele>603.430176</ele>
<time>2011-04-25T07:34:30Z</time>
<desc>lat.=22.233362, lon.=103.720749, Alt.=603.430176m. Speed=36.540001m/h.</desc>
<speed>10.150000</speed>
</trkpt>
<trkpt lat="22.232922" lon="103.720741">
<ele>602.930176</ele>
<time>2011-04-25T07:34:35Z</time>
<desc>lat.=22.232922, lon.=103.720741, Alt.=602.930176m. Speed=33.264000m/h.</desc>
<speed>9.240000</speed>
</trkpt>
<trkpt lat="22.232466" lon="103.720810">
<ele>604.117676</ele>
<time>2011-04-25T07:34:40Z</time>
<desc>lat.=22.232466, lon.=103.720810, Alt.=604.117676m. Speed=33.660000m/h.</desc>
<speed>9.350000</speed>
</trkpt>
<trkpt lat="22.231983" lon="103.720894">
<ele>603.461426</ele>
<time>2011-04-25T07:34:45Z</time>
<desc>lat.=22.231983, lon.=103.720894, Alt.=603.461426m. Speed=36.900002m/h.</desc>
<speed>10.250000</speed>
</trkpt>
<trkpt lat="22.231535" lon="103.720955">
<ele>602.805176</ele>
<time>2011-04-25T07:34:50Z</time>
<desc>lat.=22.231535, lon.=103.720955, Alt.=602.805176m. Speed=35.279999m/h.</desc>
<speed>9.800000</speed>
</trkpt>
<trkpt lat="22.231096" lon="103.721046">
<ele>603.086426</ele>
<time>2011-04-25T07:34:55Z</time>
<desc>lat.=22.231096, lon.=103.721046, Alt.=603.086426m. Speed=34.632000m/h.</desc>
<speed>9.620000</speed>
</trkpt>
<trkpt lat="22.230665" lon="103.721138">
<ele>604.820801</ele>
<time>2011-04-25T07:35:00Z</time>
<desc>lat.=22.230665, lon.=103.721138, Alt.=604.820801m. Speed=33.480000m/h.</desc>
<speed>9.300000</speed>
</trkpt>
<trkpt lat="22.230274" lon="103.721214">
<ele>605.523926</ele>
<time>2011-04-25T07:35:05Z</time>
<desc>lat.=22.230274, lon.=103.721214, Alt.=605.523926m. Speed=29.879999m/h.</desc>
<speed>8.300000</speed>
</trkpt>
<trkpt lat="22.229877" lon="103.721298">
<ele>605.258301</ele>
<time>2011-04-25T07:35:10Z</time>
<desc>lat.=22.229877, lon.=103.721298, Alt.=605.258301m. Speed=31.572001m/h.</desc>
<speed>8.770000</speed>
</trkpt>
<trkpt lat="22.229471" lon="103.721405">
<ele>605.164551</ele>
<time>2011-04-25T07:35:15Z</time>
<desc>lat.=22.229471, lon.=103.721405, Alt.=605.164551m. Speed=32.507999m/h.</desc>
<speed>9.030000</speed>
</trkpt>
<trkpt lat="22.229080" lon="103.721489">
<ele>605.398926</ele>
<time>2011-04-25T07:35:20Z</time>
<desc>lat.=22.229080, lon.=103.721489, Alt.=605.398926m. Speed=30.455999m/h.</desc>
<speed>8.460000</speed>
</trkpt>
<trkpt lat="22.228706" lon="103.721535">
<ele>605.586426</ele>
<time>2011-04-25T07:35:25Z</time>
<desc>lat.=22.228706, lon.=103.721535, Alt.=605.586426m. Speed=28.656000m/h.</desc>
<speed>7.960000</speed>
</trkpt>
<trkpt lat="22.228340" lon="103.721527">
<ele>607.570801</ele>
<time>2011-04-25T07:35:30Z</time>
<desc>lat.=22.228340, lon.=103.721527, Alt.=607.570801m. Speed=27.648001m/h.</desc>
<speed>7.680000</speed>
</trkpt>
<trkpt lat="22.228014" lon="103.721588">
<ele>606.352051</ele>
<time>2011-04-25T07:35:35Z</time>
<desc>lat.=22.228014, lon.=103.721588, Alt.=606.352051m. Speed=22.284000m/h.</desc>
<speed>6.190000</speed>
</trkpt>
<trkpt lat="22.227825" lon="103.721695">
<ele>602.711426</ele>
<time>2011-04-25T07:35:40Z</time>
<desc>lat.=22.227825, lon.=103.721695, Alt.=602.711426m. Speed=10.152000m/h.</desc>
<speed>2.820000</speed>
</trkpt>
<trkpt lat="22.227753" lon="103.721786">
<ele>591.539551</ele>
<time>2011-04-25T07:35:45Z</time>
<desc>lat.=22.227753, lon.=103.721786, Alt.=591.539551m. Speed=7.452000m/h.</desc>
<speed>2.070000</speed>
</trkpt>
<trkpt lat="22.227724" lon="103.721909">
<ele>584.961426</ele>
<time>2011-04-25T07:35:50Z</time>
<desc>lat.=22.227724, lon.=103.721909, Alt.=584.961426m. Speed=8.532000m/h.</desc>
<speed>2.370000</speed>
</trkpt>
<trkpt lat="22.227699" lon="103.722076">
<ele>582.602051</ele>
<time>2011-04-25T07:35:55Z</time>
<desc>lat.=22.227699, lon.=103.722076, Alt.=582.602051m. Speed=16.308001m/h.</desc>
<speed>4.530000</speed>
</trkpt>
<trkpt lat="22.227701" lon="103.722336">
<ele>580.445801</ele>
<time>2011-04-25T07:36:00Z</time>
<desc>lat.=22.227701, lon.=103.722336, Alt.=580.445801m. Speed=17.028000m/h.</desc>
<speed>4.730000</speed>
</trkpt>
<trkpt lat="22.227716" lon="103.722557">
<ele>580.242676</ele>
<time>2011-04-25T07:36:05Z</time>
<desc>lat.=22.227716, lon.=103.722557, Alt.=580.242676m. Speed=14.076000m/h.</desc>
<speed>3.910000</speed>
</trkpt>
<trkpt lat="22.227671" lon="103.722717">
<ele>580.492676</ele>
<time>2011-04-25T07:36:10Z</time>
<desc>lat.=22.227671, lon.=103.722717, Alt.=580.492676m. Speed=13.032000m/h.</desc>
<speed>3.620000</speed>
</trkpt>
<trkpt lat="22.227604" lon="103.722878">
<ele>580.867676</ele>
<time>2011-04-25T07:36:15Z</time>
<desc>lat.=22.227604, lon.=103.722878, Alt.=580.867676m. Speed=10.368000m/h.</desc>
<speed>2.880000</speed>
</trkpt>
<trkpt lat="22.227512" lon="103.723076">
<ele>582.164551</ele>
<time>2011-04-25T07:36:20Z</time>
<desc>lat.=22.227512, lon.=103.723076, Alt.=582.164551m. Speed=13.320000m/h.</desc>
<speed>3.700000</speed>
</trkpt>
<trkpt lat="22.227425" lon="103.723251">
<ele>582.820801</ele>
<time>2011-04-25T07:36:25Z</time>
<desc>lat.=22.227425, lon.=103.723251, Alt.=582.820801m. Speed=10.260000m/h.</desc>
<speed>2.850000</speed>
</trkpt>
<trkpt lat="22.227346" lon="103.723442">
<ele>581.633301</ele>
<time>2011-04-25T07:36:30Z</time>
<desc>lat.=22.227346, lon.=103.723442, Alt.=581.633301m. Speed=11.304000m/h.</desc>
<speed>3.140000</speed>
</trkpt>
<trkpt lat="22.227253" lon="103.723564">
<ele>582.273926</ele>
<time>2011-04-25T07:36:35Z</time>
<desc>lat.=22.227253, lon.=103.723564, Alt.=582.273926m. Speed=9.036000m/h.</desc>
<speed>2.510000</speed>
</trkpt>
<trkpt lat="22.227198" lon="103.723640">
<ele>583.336426</ele>
<time>2011-04-25T07:36:40Z</time>
<desc>lat.=22.227198, lon.=103.723640, Alt.=583.336426m. Speed=6.156000m/h.</desc>
<speed>1.710000</speed>
</trkpt>
<trkpt lat="22.227161" lon="103.723763">
<ele>584.773926</ele>
<time>2011-04-25T07:36:45Z</time>
<desc>lat.=22.227161, lon.=103.723763, Alt.=584.773926m. Speed=7.272000m/h.</desc>
<speed>2.020000</speed>
</trkpt>
<trkpt lat="22.227100" lon="103.723862">
<ele>586.195801</ele>
<time>2011-04-25T07:36:50Z</time>
<desc>lat.=22.227100, lon.=103.723862, Alt.=586.195801m. Speed=4.788000m/h.</desc>
<speed>1.330000</speed>
</trkpt>
<trkpt lat="22.227041" lon="103.724045">
<ele>586.461426</ele>
<time>2011-04-25T07:36:55Z</time>
<desc>lat.=22.227041, lon.=103.724045, Alt.=586.461426m. Speed=10.548000m/h.</desc>
<speed>2.930000</speed>
</trkpt>
<trkpt lat="22.227032" lon="103.724228">
<ele>586.211426</ele>
<time>2011-04-25T07:37:00Z</time>
<desc>lat.=22.227032, lon.=103.724228, Alt.=586.211426m. Speed=11.304000m/h.</desc>
<speed>3.140000</speed>
</trkpt>
<trkpt lat="22.227037" lon="103.724380">
<ele>587.133301</ele>
<time>2011-04-25T07:37:05Z</time>
<desc>lat.=22.227037, lon.=103.724380, Alt.=587.133301m. Speed=9.396000m/h.</desc>
<speed>2.610000</speed>
</trkpt>
<trkpt lat="22.227045" lon="103.724503">
<ele>585.992676</ele>
<time>2011-04-25T07:37:10Z</time>
<desc>lat.=22.227045, lon.=103.724503, Alt.=585.992676m. Speed=9.972000m/h.</desc>
<speed>2.770000</speed>
</trkpt>
<trkpt lat="22.227064" lon="103.724640">
<ele>584.289551</ele>
<time>2011-04-25T07:37:15Z</time>
<desc>lat.=22.227064, lon.=103.724640, Alt.=584.289551m. Speed=10.512000m/h.</desc>
<speed>2.920000</speed>
</trkpt>
<trkpt lat="22.227062" lon="103.724785">
<ele>583.727051</ele>
<time>2011-04-25T07:37:20Z</time>
<desc>lat.=22.227062, lon.=103.724785, Alt.=583.727051m. Speed=10.908000m/h.</desc>
<speed>3.030000</speed>
</trkpt>
<trkpt lat="22.227072" lon="103.724937">
<ele>584.008301</ele>
<time>2011-04-25T07:37:25Z</time>
<desc>lat.=22.227072, lon.=103.724937, Alt.=584.008301m. Speed=11.988000m/h.</desc>
<speed>3.330000</speed>
</trkpt>
<trkpt lat="22.227093" lon="103.725098">
<ele>582.867676</ele>
<time>2011-04-25T07:37:30Z</time>
<desc>lat.=22.227093, lon.=103.725098, Alt.=582.867676m. Speed=12.312000m/h.</desc>
<speed>3.420000</speed>
</trkpt>
<trkpt lat="22.227097" lon="103.725250">
<ele>582.992676</ele>
<time>2011-04-25T07:37:35Z</time>
<desc>lat.=22.227097, lon.=103.725250, Alt.=582.992676m. Speed=12.060000m/h.</desc>
<speed>3.350000</speed>
</trkpt>
<trkpt lat="22.227121" lon="103.725395">
<ele>584.523926</ele>
<time>2011-04-25T07:37:40Z</time>
<desc>lat.=22.227121, lon.=103.725395, Alt.=584.523926m. Speed=8.640000m/h.</desc>
<speed>2.400000</speed>
</trkpt>
<trkpt lat="22.227123" lon="103.725517">
<ele>585.664551</ele>
<time>2011-04-25T07:37:45Z</time>
<desc>lat.=22.227123, lon.=103.725517, Alt.=585.664551m. Speed=9.828000m/h.</desc>
<speed>2.730000</speed>
</trkpt>
<trkpt lat="22.227127" lon="103.725662">
<ele>587.414551</ele>
<time>2011-04-25T07:37:50Z</time>
<desc>lat.=22.227127, lon.=103.725662, Alt.=587.414551m. Speed=9.756000m/h.</desc>
<speed>2.710000</speed>
</trkpt>
<trkpt lat="22.227116" lon="103.725777">
<ele>587.289551</ele>
<time>2011-04-25T07:37:55Z</time>
<desc>lat.=22.227116, lon.=103.725777, Alt.=587.289551m. Speed=9.072000m/h.</desc>
<speed>2.520000</speed>
</trkpt>
<trkpt lat="22.227123" lon="103.725883">
<ele>588.102051</ele>
<time>2011-04-25T07:38:00Z</time>
<desc>lat.=22.227123, lon.=103.725883, Alt.=588.102051m. Speed=7.560000m/h.</desc>
<speed>2.100000</speed>
</trkpt>
<trkpt lat="22.227123" lon="103.726013">
<ele>586.195801</ele>
<time>2011-04-25T07:38:05Z</time>
<desc>lat.=22.227123, lon.=103.726013, Alt.=586.195801m. Speed=9.324000m/h.</desc>
<speed>2.590000</speed>
</trkpt>
<trkpt lat="22.227133" lon="103.726135">
<ele>584.758301</ele>
<time>2011-04-25T07:38:10Z</time>
<desc>lat.=22.227133, lon.=103.726135, Alt.=584.758301m. Speed=8.748000m/h.</desc>
<speed>2.430000</speed>
</trkpt>
<trkpt lat="22.227137" lon="103.726257">
<ele>584.289551</ele>
<time>2011-04-25T07:38:15Z</time>
<desc>lat.=22.227137, lon.=103.726257, Alt.=584.289551m. Speed=7.812000m/h.</desc>
<speed>2.170000</speed>
</trkpt>
<trkpt lat="22.227127" lon="103.726379">
<ele>585.383301</ele>
<time>2011-04-25T07:38:20Z</time>
<desc>lat.=22.227127, lon.=103.726379, Alt.=585.383301m. Speed=5.472000m/h.</desc>
<speed>1.520000</speed>
</trkpt>
<trkpt lat="22.227116" lon="103.726479">
<ele>589.070801</ele>
<time>2011-04-25T07:38:25Z</time>
<desc>lat.=22.227116, lon.=103.726479, Alt.=589.070801m. Speed=8.532000m/h.</desc>
<speed>2.370000</speed>
</trkpt>
<trkpt lat="22.227127" lon="103.726593">
<ele>591.133301</ele>
<time>2011-04-25T07:38:30Z</time>
<desc>lat.=22.227127, lon.=103.726593, Alt.=591.133301m. Speed=8.208000m/h.</desc>
<speed>2.280000</speed>
</trkpt>
<trkpt lat="22.227131" lon="103.726707">
<ele>589.961426</ele>
<time>2011-04-25T07:38:35Z</time>
<desc>lat.=22.227131, lon.=103.726707, Alt.=589.961426m. Speed=6.804000m/h.</desc>
<speed>1.890000</speed>
</trkpt>
<trkpt lat="22.227161" lon="103.726830">
<ele>592.055176</ele>
<time>2011-04-25T07:38:40Z</time>
<desc>lat.=22.227161, lon.=103.726830, Alt.=592.055176m. Speed=6.372000m/h.</desc>
<speed>1.770000</speed>
</trkpt>
<trkpt lat="22.227173" lon="103.726952">
<ele>595.055176</ele>
<time>2011-04-25T07:38:45Z</time>
<desc>lat.=22.227173, lon.=103.726952, Alt.=595.055176m. Speed=8.748000m/h.</desc>
<speed>2.430000</speed>
</trkpt>
<trkpt lat="22.227161" lon="103.727074">
<ele>595.492676</ele>
<time>2011-04-25T07:38:50Z</time>
<desc>lat.=22.227161, lon.=103.727074, Alt.=595.492676m. Speed=9.828000m/h.</desc>
<speed>2.730000</speed>
</trkpt>
<trkpt lat="22.227167" lon="103.727219">
<ele>595.117676</ele>
<time>2011-04-25T07:38:55Z</time>
<desc>lat.=22.227167, lon.=103.727219, Alt.=595.117676m. Speed=9.972000m/h.</desc>
<speed>2.770000</speed>
</trkpt>
<trkpt lat="22.227163" lon="103.727348">
<ele>595.352051</ele>
<time>2011-04-25T07:39:00Z</time>
<desc>lat.=22.227163, lon.=103.727348, Alt.=595.352051m. Speed=9.144000m/h.</desc>
<speed>2.540000</speed>
</trkpt>
<trkpt lat="22.227167" lon="103.727463">
<ele>594.320801</ele>
<time>2011-04-25T07:39:05Z</time>
<desc>lat.=22.227167, lon.=103.727463, Alt.=594.320801m. Speed=8.352000m/h.</desc>
<speed>2.320000</speed>
</trkpt>
<trkpt lat="22.227171" lon="103.727577">
<ele>594.055176</ele>
<time>2011-04-25T07:39:10Z</time>
<desc>lat.=22.227171, lon.=103.727577, Alt.=594.055176m. Speed=8.928000m/h.</desc>
<speed>2.480000</speed>
</trkpt>
<trkpt lat="22.227186" lon="103.727699">
<ele>593.961426</ele>
<time>2011-04-25T07:39:15Z</time>
<desc>lat.=22.227186, lon.=103.727699, Alt.=593.961426m. Speed=9.180000m/h.</desc>
<speed>2.550000</speed>
</trkpt>
<trkpt lat="22.227173" lon="103.727821">
<ele>593.008301</ele>
<time>2011-04-25T07:39:20Z</time>
<desc>lat.=22.227173, lon.=103.727821, Alt.=593.008301m. Speed=9.072000m/h.</desc>
<speed>2.520000</speed>
</trkpt>
<trkpt lat="22.227139" lon="103.727951">
<ele>592.789551</ele>
<time>2011-04-25T07:39:25Z</time>
<desc>lat.=22.227139, lon.=103.727951, Alt.=592.789551m. Speed=10.440000m/h.</desc>
<speed>2.900000</speed>
</trkpt>
<trkpt lat="22.227085" lon="103.728073">
<ele>592.680176</ele>
<time>2011-04-25T07:39:30Z</time>
<desc>lat.=22.227085, lon.=103.728073, Alt.=592.680176m. Speed=9.180000m/h.</desc>
<speed>2.550000</speed>
</trkpt>
<trkpt lat="22.227037" lon="103.728188">
<ele>593.383301</ele>
<time>2011-04-25T07:39:35Z</time>
<desc>lat.=22.227037, lon.=103.728188, Alt.=593.383301m. Speed=7.668000m/h.</desc>
<speed>2.130000</speed>
</trkpt>
<trkpt lat="22.226986" lon="103.728310">
<ele>594.977051</ele>
<time>2011-04-25T07:39:40Z</time>
<desc>lat.=22.226986, lon.=103.728310, Alt.=594.977051m. Speed=8.964000m/h.</desc>
<speed>2.490000</speed>
</trkpt>
<trkpt lat="22.226946" lon="103.728424">
<ele>595.773926</ele>
<time>2011-04-25T07:39:45Z</time>
<desc>lat.=22.226946, lon.=103.728424, Alt.=595.773926m. Speed=8.316000m/h.</desc>
<speed>2.310000</speed>
</trkpt>
<trkpt lat="22.226908" lon="103.728539">
<ele>596.867676</ele>
<time>2011-04-25T07:39:50Z</time>
<desc>lat.=22.226908, lon.=103.728539, Alt.=596.867676m. Speed=8.460000m/h.</desc>
<speed>2.350000</speed>
</trkpt>
<trkpt lat="22.226881" lon="103.728653">
<ele>597.648926</ele>
<time>2011-04-25T07:39:55Z</time>
<desc>lat.=22.226881, lon.=103.728653, Alt.=597.648926m. Speed=8.244000m/h.</desc>
<speed>2.290000</speed>
</trkpt>
<trkpt lat="22.226847" lon="103.728760">
<ele>598.305176</ele>
<time>2011-04-25T07:40:00Z</time>
<desc>lat.=22.226847, lon.=103.728760, Alt.=598.305176m. Speed=8.172000m/h.</desc>
<speed>2.270000</speed>
</trkpt>
<trkpt lat="22.226830" lon="103.728889">
<ele>598.852051</ele>
<time>2011-04-25T07:40:05Z</time>
<desc>lat.=22.226830, lon.=103.728889, Alt.=598.852051m. Speed=14.472000m/h.</desc>
<speed>4.020000</speed>
</trkpt>
<trkpt lat="22.226782" lon="103.729057">
<ele>599.477051</ele>
<time>2011-04-25T07:40:10Z</time>
<desc>lat.=22.226782, lon.=103.729057, Alt.=599.477051m. Speed=11.484000m/h.</desc>
<speed>3.190000</speed>
</trkpt>
<trkpt lat="22.226748" lon="103.729218">
<ele>603.680176</ele>
<time>2011-04-25T07:40:15Z</time>
<desc>lat.=22.226748, lon.=103.729218, Alt.=603.680176m. Speed=11.484000m/h.</desc>
<speed>3.190000</speed>
</trkpt>
<trkpt lat="22.226685" lon="103.729362">
<ele>604.664551</ele>
<time>2011-04-25T07:40:20Z</time>
<desc>lat.=22.226685, lon.=103.729362, Alt.=604.664551m. Speed=11.124000m/h.</desc>
<speed>3.090000</speed>
</trkpt>
<trkpt lat="22.226610" lon="103.729500">
<ele>606.430176</ele>
<time>2011-04-25T07:40:25Z</time>
<desc>lat.=22.226610, lon.=103.729500, Alt.=606.430176m. Speed=9.612000m/h.</desc>
<speed>2.670000</speed>
</trkpt>
<trkpt lat="22.226553" lon="103.729591">
<ele>607.477051</ele>
<time>2011-04-25T07:40:30Z</time>
<desc>lat.=22.226553, lon.=103.729591, Alt.=607.477051m. Speed=7.596000m/h.</desc>
<speed>2.110000</speed>
</trkpt>
<trkpt lat="22.226498" lon="103.729691">
<ele>608.680176</ele>
<time>2011-04-25T07:40:35Z</time>
<desc>lat.=22.226498, lon.=103.729691, Alt.=608.680176m. Speed=7.740000m/h.</desc>
<speed>2.150000</speed>
</trkpt>
<trkpt lat="22.226568" lon="103.729935">
<ele>616.398926</ele>
<time>2011-04-25T07:40:40Z</time>
<desc>lat.=22.226568, lon.=103.729935, Alt.=616.398926m. Speed=15.984000m/h.</desc>
<speed>4.440000</speed>
</trkpt>
<trkpt lat="22.226540" lon="103.730042">
<ele>619.539551</ele>
<time>2011-04-25T07:40:45Z</time>
<desc>lat.=22.226540, lon.=103.730042, Alt.=619.539551m. Speed=6.624000m/h.</desc>
<speed>1.840000</speed>
</trkpt>
<trkpt lat="22.226486" lon="103.730148">
<ele>620.633301</ele>
<time>2011-04-25T07:40:50Z</time>
<desc>lat.=22.226486, lon.=103.730148, Alt.=620.633301m. Speed=9.756000m/h.</desc>
<speed>2.710000</speed>
</trkpt>
<trkpt lat="22.226389" lon="103.730270">
<ele>620.305176</ele>
<time>2011-04-25T07:40:55Z</time>
<desc>lat.=22.226389, lon.=103.730270, Alt.=620.305176m. Speed=9.576000m/h.</desc>
<speed>2.660000</speed>
</trkpt>
<trkpt lat="22.226286" lon="103.730354">
<ele>619.727051</ele>
<time>2011-04-25T07:41:00Z</time>
<desc>lat.=22.226286, lon.=103.730354, Alt.=619.727051m. Speed=8.748000m/h.</desc>
<speed>2.430000</speed>
</trkpt>
<trkpt lat="22.226212" lon="103.730423">
<ele>620.492676</ele>
<time>2011-04-25T07:41:05Z</time>
<desc>lat.=22.226212, lon.=103.730423, Alt.=620.492676m. Speed=7.308000m/h.</desc>
<speed>2.030000</speed>
</trkpt>
<trkpt lat="22.226160" lon="103.730476">
<ele>621.633301</ele>
<time>2011-04-25T07:41:10Z</time>
<desc>lat.=22.226160, lon.=103.730476, Alt.=621.633301m. Speed=4.248000m/h.</desc>
<speed>1.180000</speed>
</trkpt>
<trkpt lat="22.226099" lon="103.730583">
<ele>620.273926</ele>
<time>2011-04-25T07:41:15Z</time>
<desc>lat.=22.226099, lon.=103.730583, Alt.=620.273926m. Speed=8.676000m/h.</desc>
<speed>2.410000</speed>
</trkpt>
<trkpt lat="22.226042" lon="103.730713">
<ele>618.133301</ele>
<time>2011-04-25T07:41:20Z</time>
<desc>lat.=22.226042, lon.=103.730713, Alt.=618.133301m. Speed=7.560000m/h.</desc>
<speed>2.100000</speed>
</trkpt>
<trkpt lat="22.225986" lon="103.730827">
<ele>617.914551</ele>
<time>2011-04-25T07:41:25Z</time>
<desc>lat.=22.225986, lon.=103.730827, Alt.=617.914551m. Speed=10.872000m/h.</desc>
<speed>3.020000</speed>
</trkpt>
<trkpt lat="22.225918" lon="103.730949">
<ele>617.680176</ele>
<time>2011-04-25T07:41:30Z</time>
<desc>lat.=22.225918, lon.=103.730949, Alt.=617.680176m. Speed=11.448000m/h.</desc>
<speed>3.180000</speed>
</trkpt>
<trkpt lat="22.225849" lon="103.731094">
<ele>616.648926</ele>
<time>2011-04-25T07:41:35Z</time>
<desc>lat.=22.225849, lon.=103.731094, Alt.=616.648926m. Speed=10.332000m/h.</desc>
<speed>2.870000</speed>
</trkpt>
<trkpt lat="22.225792" lon="103.731224">
<ele>616.664551</ele>
<time>2011-04-25T07:41:40Z</time>
<desc>lat.=22.225792, lon.=103.731224, Alt.=616.664551m. Speed=11.376000m/h.</desc>
<speed>3.160000</speed>
</trkpt>
<trkpt lat="22.225737" lon="103.731354">
<ele>615.633301</ele>
<time>2011-04-25T07:41:45Z</time>
<desc>lat.=22.225737, lon.=103.731354, Alt.=615.633301m. Speed=10.872000m/h.</desc>
<speed>3.020000</speed>
</trkpt>
<trkpt lat="22.225716" lon="103.731499">
<ele>614.602051</ele>
<time>2011-04-25T07:41:50Z</time>
<desc>lat.=22.225716, lon.=103.731499, Alt.=614.602051m. Speed=7.848000m/h.</desc>
<speed>2.180000</speed>
</trkpt>
<trkpt lat="22.225685" lon="103.731659">
<ele>614.055176</ele>
<time>2011-04-25T07:41:55Z</time>
<desc>lat.=22.225685, lon.=103.731659, Alt.=614.055176m. Speed=12.240000m/h.</desc>
<speed>3.400000</speed>
</trkpt>
<trkpt lat="22.225666" lon="103.731842">
<ele>612.961426</ele>
<time>2011-04-25T07:42:00Z</time>
<desc>lat.=22.225666, lon.=103.731842, Alt.=612.961426m. Speed=12.780000m/h.</desc>
<speed>3.550000</speed>
</trkpt>
<trkpt lat="22.225660" lon="103.731979">
<ele>611.570801</ele>
<time>2011-04-25T07:42:05Z</time>
<desc>lat.=22.225660, lon.=103.731979, Alt.=611.570801m. Speed=6.696000m/h.</desc>
<speed>1.860000</speed>
</trkpt>
<trkpt lat="22.225653" lon="103.732056">
<ele>611.508301</ele>
<time>2011-04-25T07:42:10Z</time>
<desc>lat.=22.225653, lon.=103.732056, Alt.=611.508301m. Speed=5.184000m/h.</desc>
<speed>1.440000</speed>
</trkpt>
<trkpt lat="22.225658" lon="103.732079">
<ele>612.367676</ele>
<time>2011-04-25T07:42:15Z</time>
<desc>lat.=22.225658, lon.=103.732079, Alt.=612.367676m. Speed=0.468000m/h.</desc>
<speed>0.130000</speed>
</trkpt>
<trkpt lat="22.225658" lon="103.732079">
<ele>612.414551</ele>
<time>2011-04-25T07:42:20Z</time>
<desc>lat.=22.225658, lon.=103.732079, Alt.=612.414551m. Speed=0.072000m/h.</desc>
<speed>0.020000</speed>
</trkpt>
<trkpt lat="22.225660" lon="103.732079">
<ele>612.445801</ele>
<time>2011-04-25T07:42:25Z</time>
<desc>lat.=22.225660, lon.=103.732079, Alt.=612.445801m. Speed=0.036000m/h.</desc>
<speed>0.010000</speed>
</trkpt>
<trkpt lat="22.225660" lon="103.732079">
<ele>612.508301</ele>
<time>2011-04-25T07:42:30Z</time>
<desc>lat.=22.225660, lon.=103.732079, Alt.=612.508301m. Speed=0.540000m/h.</desc>
<speed>0.150000</speed>
</trkpt>
<trkpt lat="22.225660" lon="103.732086">
<ele>612.570801</ele>
<time>2011-04-25T07:42:35Z</time>
<desc>lat.=22.225660, lon.=103.732086, Alt.=612.570801m. Speed=0.072000m/h.</desc>
<speed>0.020000</speed>
</trkpt>
<trkpt lat="22.225658" lon="103.732086">
<ele>612.648926</ele>
<time>2011-04-25T07:42:40Z</time>
<desc>lat.=22.225658, lon.=103.732086, Alt.=612.648926m. Speed=0.072000m/h.</desc>
<speed>0.020000</speed>
</trkpt>
<trkpt lat="22.225657" lon="103.732086">
<ele>612.758301</ele>
<time>2011-04-25T07:42:45Z</time>
<desc>lat.=22.225657, lon.=103.732086, Alt.=612.758301m. Speed=0.108000m/h.</desc>
<speed>0.030000</speed>
</trkpt>
<trkpt lat="22.225655" lon="103.732086">
<ele>612.789551</ele>
<time>2011-04-25T07:42:50Z</time>
<desc>lat.=22.225655, lon.=103.732086, Alt.=612.789551m. Speed=0.072000m/h.</desc>
<speed>0.020000</speed>
</trkpt>
<trkpt lat="22.225655" lon="103.732086">
<ele>612.789551</ele>
<time>2011-04-25T07:42:55Z</time>
<desc>lat.=22.225655, lon.=103.732086, Alt.=612.789551m. Speed=0.000000m/h.</desc>
<speed>0.000000</speed>
</trkpt>
<trkpt lat="22.225655" lon="103.732086">
<ele>612.789551</ele>
<time>2011-04-25T07:43:00Z</time>
<desc>lat.=22.225655, lon.=103.732086, Alt.=612.789551m. Speed=0.072000m/h.</desc>
<speed>0.020000</speed>
</trkpt>
<trkpt lat="22.225655" lon="103.732086">
<ele>612.805176</ele>
<time>2011-04-25T07:43:05Z</time>
<desc>lat.=22.225655, lon.=103.732086, Alt.=612.805176m. Speed=0.036000m/h.</desc>
<speed>0.010000</speed>
</trkpt>
<trkpt lat="22.225655" lon="103.732086">
<ele>612.805176</ele>
<time>2011-04-25T07:43:10Z</time>
<desc>lat.=22.225655, lon.=103.732086, Alt.=612.805176m. Speed=0.144000m/h.</desc>
<speed>0.040000</speed>
</trkpt>
<trkpt lat="22.225655" lon="103.732086">
<ele>612.805176</ele>
<time>2011-04-25T07:43:15Z</time>
<desc>lat.=22.225655, lon.=103.732086, Alt.=612.805176m. Speed=0.072000m/h.</desc>
<speed>0.020000</speed>
</trkpt>
<trkpt lat="22.225655" lon="103.732086">
<ele>612.820801</ele>
<time>2011-04-25T07:43:20Z</time>
<desc>lat.=22.225655, lon.=103.732086, Alt.=612.820801m. Speed=0.108000m/h.</desc>
<speed>0.030000</speed>
</trkpt>
<trkpt lat="22.225653" lon="103.732086">
<ele>612.836426</ele>
<time>2011-04-25T07:43:25Z</time>
<desc>lat.=22.225653, lon.=103.732086, Alt.=612.836426m. Speed=0.072000m/h.</desc>
<speed>0.020000</speed>
</trkpt>
<trkpt lat="22.225653" lon="103.732086">
<ele>612.836426</ele>
<time>2011-04-25T07:43:30Z</time>
<desc>lat.=22.225653, lon.=103.732086, Alt.=612.836426m. Speed=0.216000m/h.</desc>
<speed>0.060000</speed>
</trkpt>
<trkpt lat="22.225653" lon="103.732086">
<ele>612.852051</ele>
<time>2011-04-25T07:43:35Z</time>
<desc>lat.=22.225653, lon.=103.732086, Alt.=612.852051m. Speed=0.072000m/h.</desc>
<speed>0.020000</speed>
</trkpt>
<trkpt lat="22.225651" lon="103.732086">
<ele>612.852051</ele>
<time>2011-04-25T07:43:40Z</time>
<desc>lat.=22.225651, lon.=103.732086, Alt.=612.852051m. Speed=0.756000m/h.</desc>
<speed>0.210000</speed>
</trkpt>
<trkpt lat="22.225655" lon="103.732094">
<ele>612.758301</ele>
<time>2011-04-25T07:43:45Z</time>
<desc>lat.=22.225655, lon.=103.732094, Alt.=612.758301m. Speed=0.036000m/h.</desc>
<speed>0.010000</speed>
</trkpt>
<trkpt lat="22.225653" lon="103.732094">
<ele>612.773926</ele>
<time>2011-04-25T07:43:50Z</time>
<desc>lat.=22.225653, lon.=103.732094, Alt.=612.773926m. Speed=0.000000m/h.</desc>
<speed>0.000000</speed>
</trkpt>
<trkpt lat="22.225653" lon="103.732094">
<ele>612.789551</ele>
<time>2011-04-25T07:43:55Z</time>
<desc>lat.=22.225653, lon.=103.732094, Alt.=612.789551m. Speed=0.036000m/h.</desc>
<speed>0.010000</speed>
</trkpt>
<trkpt lat="22.225653" lon="103.732094">
<ele>612.773926</ele>
<time>2011-04-25T07:44:00Z</time>
<desc>lat.=22.225653, lon.=103.732094, Alt.=612.773926m. Speed=0.036000m/h.</desc>
<speed>0.010000</speed>
</trkpt>
<trkpt lat="22.225653" lon="103.732094">
<ele>612.773926</ele>
<time>2011-04-25T07:44:05Z</time>
<desc>lat.=22.225653, lon.=103.732094, Alt.=612.773926m. Speed=0.000000m/h.</desc>
<speed>0.000000</speed>
</trkpt>
<trkpt lat="22.225653" lon="103.732094">
<ele>612.773926</ele>
<time>2011-04-25T07:44:10Z</time>
<desc>lat.=22.225653, lon.=103.732094, Alt.=612.773926m. Speed=0.036000m/h.</desc>
<speed>0.010000</speed>
</trkpt>
<trkpt lat="22.225653" lon="103.732094">
<ele>612.789551</ele>
<time>2011-04-25T07:44:15Z</time>
<desc>lat.=22.225653, lon.=103.732094, Alt.=612.789551m. Speed=0.036000m/h.</desc>
<speed>0.010000</speed>
</trkpt>
<trkpt lat="22.225653" lon="103.732094">
<ele>612.789551</ele>
<time>2011-04-25T07:44:20Z</time>
<desc>lat.=22.225653, lon.=103.732094, Alt.=612.789551m. Speed=0.036000m/h.</desc>
<speed>0.010000</speed>
</trkpt>
<trkpt lat="22.225653" lon="103.732094">
<ele>612.789551</ele>
<time>2011-04-25T07:44:25Z</time>
<desc>lat.=22.225653, lon.=103.732094, Alt.=612.789551m. Speed=0.000000m/h.</desc>
<speed>0.000000</speed>
</trkpt>
<trkpt lat="22.225653" lon="103.732094">
<ele>612.805176</ele>
<time>2011-04-25T07:44:30Z</time>
<desc>lat.=22.225653, lon.=103.732094, Alt.=612.805176m. Speed=0.144000m/h.</desc>
<speed>0.040000</speed>
</trkpt>
<trkpt lat="22.225653" lon="103.732094">
<ele>612.805176</ele>
<time>2011-04-25T07:44:35Z</time>
<desc>lat.=22.225653, lon.=103.732094, Alt.=612.805176m. Speed=0.000000m/h.</desc>
<speed>0.000000</speed>
</trkpt>
<trkpt lat="22.225653" lon="103.732094">
<ele>612.820801</ele>
<time>2011-04-25T07:44:40Z</time>
<desc>lat.=22.225653, lon.=103.732094, Alt.=612.820801m. Speed=0.000000m/h.</desc>
<speed>0.000000</speed>
</trkpt>
<trkpt lat="22.225653" lon="103.732094">
<ele>612.820801</ele>
<time>2011-04-25T07:44:45Z</time>
<desc>lat.=22.225653, lon.=103.732094, Alt.=612.820801m. Speed=0.036000m/h.</desc>
<speed>0.010000</speed>
</trkpt>
<trkpt lat="22.225653" lon="103.732094">
<ele>612.820801</ele>
<time>2011-04-25T07:44:50Z</time>
<desc>lat.=22.225653, lon.=103.732094, Alt.=612.820801m. Speed=0.036000m/h.</desc>
<speed>0.010000</speed>
</trkpt>
<trkpt lat="22.225653" lon="103.732094">
<ele>612.820801</ele>
<time>2011-04-25T07:44:55Z</time>
<desc>lat.=22.225653, lon.=103.732094, Alt.=612.820801m. Speed=0.072000m/h.</desc>
<speed>0.020000</speed>
</trkpt>
<trkpt lat="22.225651" lon="103.732094">
<ele>612.836426</ele>
<time>2011-04-25T07:45:00Z</time>
<desc>lat.=22.225651, lon.=103.732094, Alt.=612.836426m. Speed=0.000000m/h.</desc>
<speed>0.000000</speed>
</trkpt>
<trkpt lat="22.225651" lon="103.732094">
<ele>612.852051</ele>
<time>2011-04-25T07:45:05Z</time>
<desc>lat.=22.225651, lon.=103.732094, Alt.=612.852051m. Speed=0.072000m/h.</desc>
<speed>0.020000</speed>
</trkpt>
<trkpt lat="22.225651" lon="103.732094">
<ele>612.852051</ele>
<time>2011-04-25T07:45:10Z</time>
<desc>lat.=22.225651, lon.=103.732094, Alt.=612.852051m. Speed=0.036000m/h.</desc>
<speed>0.010000</speed>
</trkpt>
<trkpt lat="22.225651" lon="103.732094">
<ele>612.852051</ele>
<time>2011-04-25T07:45:15Z</time>
<desc>lat.=22.225651, lon.=103.732094, Alt.=612.852051m. Speed=0.072000m/h.</desc>
<speed>0.020000</speed>
</trkpt>
<trkpt lat="22.225651" lon="103.732094">
<ele>612.852051</ele>
<time>2011-04-25T07:45:20Z</time>
<desc>lat.=22.225651, lon.=103.732094, Alt.=612.852051m. Speed=0.000000m/h.</desc>
<speed>0.000000</speed>
</trkpt>
<trkpt lat="22.225651" lon="103.732094">
<ele>612.852051</ele>
<time>2011-04-25T07:45:25Z</time>
<desc>lat.=22.225651, lon.=103.732094, Alt.=612.852051m. Speed=0.000000m/h.</desc>
<speed>0.000000</speed>
</trkpt>
<trkpt lat="22.225651" lon="103.732094">
<ele>612.852051</ele>
<time>2011-04-25T07:45:30Z</time>
<desc>lat.=22.225651, lon.=103.732094, Alt.=612.852051m. Speed=0.036000m/h.</desc>
<speed>0.010000</speed>
</trkpt>
<trkpt lat="22.225651" lon="103.732094">
<ele>612.867676</ele>
<time>2011-04-25T07:45:35Z</time>
<desc>lat.=22.225651, lon.=103.732094, Alt.=612.867676m. Speed=0.036000m/h.</desc>
<speed>0.010000</speed>
</trkpt>
<trkpt lat="22.225649" lon="103.732094">
<ele>612.867676</ele>
<time>2011-04-25T07:45:40Z</time>
<desc>lat.=22.225649, lon.=103.732094, Alt.=612.867676m. Speed=0.000000m/h.</desc>
<speed>0.000000</speed>
</trkpt>
<trkpt lat="22.225649" lon="103.732094">
<ele>612.867676</ele>
<time>2011-04-25T07:45:45Z</time>
<desc>lat.=22.225649, lon.=103.732094, Alt.=612.867676m. Speed=0.000000m/h.</desc>
<speed>0.000000</speed>
</trkpt>
<trkpt lat="22.225649" lon="103.732094">
<ele>612.883301</ele>
<time>2011-04-25T07:45:50Z</time>
<desc>lat.=22.225649, lon.=103.732094, Alt.=612.883301m. Speed=0.036000m/h.</desc>
<speed>0.010000</speed>
</trkpt>
<trkpt lat="22.225649" lon="103.732094">
<ele>612.883301</ele>
<time>2011-04-25T07:45:55Z</time>
<desc>lat.=22.225649, lon.=103.732094, Alt.=612.883301m. Speed=0.036000m/h.</desc>
<speed>0.010000</speed>
</trkpt>
<trkpt lat="22.225649" lon="103.732094">
<ele>612.883301</ele>
<time>2011-04-25T07:46:00Z</time>
<desc>lat.=22.225649, lon.=103.732094, Alt.=612.883301m. Speed=0.072000m/h.</desc>
<speed>0.020000</speed>
</trkpt>
<trkpt lat="22.225649" lon="103.732094">
<ele>612.883301</ele>
<time>2011-04-25T07:46:05Z</time>
<desc>lat.=22.225649, lon.=103.732094, Alt.=612.883301m. Speed=0.036000m/h.</desc>
<speed>0.010000</speed>
</trkpt>
<trkpt lat="22.225649" lon="103.732094">
<ele>612.883301</ele>
<time>2011-04-25T07:46:10Z</time>
<desc>lat.=22.225649, lon.=103.732094, Alt.=612.883301m. Speed=0.036000m/h.</desc>
<speed>0.010000</speed>
</trkpt>
<trkpt lat="22.225649" lon="103.732094">
<ele>612.883301</ele>
<time>2011-04-25T07:46:15Z</time>
<desc>lat.=22.225649, lon.=103.732094, Alt.=612.883301m. Speed=0.000000m/h.</desc>
<speed>0.000000</speed>
</trkpt>
<trkpt lat="22.225649" lon="103.732094">
<ele>612.883301</ele>
<time>2011-04-25T07:46:20Z</time>
<desc>lat.=22.225649, lon.=103.732094, Alt.=612.883301m. Speed=0.036000m/h.</desc>
<speed>0.010000</speed>
</trkpt>
<trkpt lat="22.225649" lon="103.732094">
<ele>612.883301</ele>
<time>2011-04-25T07:46:25Z</time>
<desc>lat.=22.225649, lon.=103.732094, Alt.=612.883301m. Speed=0.000000m/h.</desc>
<speed>0.000000</speed>
</trkpt>
<trkpt lat="22.225649" lon="103.732094">
<ele>612.883301</ele>
<time>2011-04-25T07:46:30Z</time>
<desc>lat.=22.225649, lon.=103.732094, Alt.=612.883301m. Speed=0.000000m/h.</desc>
<speed>0.000000</speed>
</trkpt>
<trkpt lat="22.225649" lon="103.732094">
<ele>612.898926</ele>
<time>2011-04-25T07:46:35Z</time>
<desc>lat.=22.225649, lon.=103.732094, Alt.=612.898926m. Speed=0.000000m/h.</desc>
<speed>0.000000</speed>
</trkpt>
<trkpt lat="22.225649" lon="103.732094">
<ele>612.883301</ele>
<time>2011-04-25T07:46:40Z</time>
<desc>lat.=22.225649, lon.=103.732094, Alt.=612.883301m. Speed=0.000000m/h.</desc>
<speed>0.000000</speed>
</trkpt>
<trkpt lat="22.225649" lon="103.732094">
<ele>612.883301</ele>
<time>2011-04-25T07:46:45Z</time>
<desc>lat.=22.225649, lon.=103.732094, Alt.=612.883301m. Speed=0.036000m/h.</desc>
<speed>0.010000</speed>
</trkpt>
<trkpt lat="22.225653" lon="103.732101">
<ele>612.883301</ele>
<time>2011-04-25T07:46:50Z</time>
<desc>lat.=22.225653, lon.=103.732101, Alt.=612.883301m. Speed=4.104000m/h.</desc>
<speed>1.140000</speed>
</trkpt>
<trkpt lat="22.225643" lon="103.732262">
<ele>612.398926</ele>
<time>2011-04-25T07:46:55Z</time>
<desc>lat.=22.225643, lon.=103.732262, Alt.=612.398926m. Speed=10.440000m/h.</desc>
<speed>2.900000</speed>
</trkpt>
<trkpt lat="22.225603" lon="103.732445">
<ele>612.039551</ele>
<time>2011-04-25T07:47:00Z</time>
<desc>lat.=22.225603, lon.=103.732445, Alt.=612.039551m. Speed=13.500000m/h.</desc>
<speed>3.750000</speed>
</trkpt>
<trkpt lat="22.225517" lon="103.732643">
<ele>612.023926</ele>
<time>2011-04-25T07:47:05Z</time>
<desc>lat.=22.225517, lon.=103.732643, Alt.=612.023926m. Speed=12.672000m/h.</desc>
<speed>3.520000</speed>
</trkpt>
<trkpt lat="22.225416" lon="103.732796">
<ele>612.570801</ele>
<time>2011-04-25T07:47:10Z</time>
<desc>lat.=22.225416, lon.=103.732796, Alt.=612.570801m. Speed=12.528000m/h.</desc>
<speed>3.480000</speed>
</trkpt>
<trkpt lat="22.225298" lon="103.732925">
<ele>612.070801</ele>
<time>2011-04-25T07:47:15Z</time>
<desc>lat.=22.225298, lon.=103.732925, Alt.=612.070801m. Speed=13.392000m/h.</desc>
<speed>3.720000</speed>
</trkpt>
<trkpt lat="22.225161" lon="103.733078">
<ele>612.508301</ele>
<time>2011-04-25T07:47:20Z</time>
<desc>lat.=22.225161, lon.=103.733078, Alt.=612.508301m. Speed=11.592000m/h.</desc>
<speed>3.220000</speed>
</trkpt>
<trkpt lat="22.225065" lon="103.733200">
<ele>613.242676</ele>
<time>2011-04-25T07:47:25Z</time>
<desc>lat.=22.225065, lon.=103.733200, Alt.=613.242676m. Speed=13.464000m/h.</desc>
<speed>3.740000</speed>
</trkpt>
<trkpt lat="22.224964" lon="103.733330">
<ele>613.023926</ele>
<time>2011-04-25T07:47:30Z</time>
<desc>lat.=22.224964, lon.=103.733330, Alt.=613.023926m. Speed=11.664000m/h.</desc>
<speed>3.240000</speed>
</trkpt>
<trkpt lat="22.224873" lon="103.733444">
<ele>612.883301</ele>
<time>2011-04-25T07:47:35Z</time>
<desc>lat.=22.224873, lon.=103.733444, Alt.=612.883301m. Speed=12.924000m/h.</desc>
<speed>3.590000</speed>
</trkpt>
<trkpt lat="22.224766" lon="103.733597">
<ele>612.461426</ele>
<time>2011-04-25T07:47:40Z</time>
<desc>lat.=22.224766, lon.=103.733597, Alt.=612.461426m. Speed=13.752000m/h.</desc>
<speed>3.820000</speed>
</trkpt>
<trkpt lat="22.224651" lon="103.733765">
<ele>611.789551</ele>
<time>2011-04-25T07:47:45Z</time>
<desc>lat.=22.224651, lon.=103.733765, Alt.=611.789551m. Speed=14.544000m/h.</desc>
<speed>4.040000</speed>
</trkpt>
<trkpt lat="22.224529" lon="103.733932">
<ele>612.836426</ele>
<time>2011-04-25T07:47:50Z</time>
<desc>lat.=22.224529, lon.=103.733932, Alt.=612.836426m. Speed=16.775999m/h.</desc>
<speed>4.660000</speed>
</trkpt>
<trkpt lat="22.224388" lon="103.734138">
<ele>611.930176</ele>
<time>2011-04-25T07:47:55Z</time>
<desc>lat.=22.224388, lon.=103.734138, Alt.=611.930176m. Speed=20.591999m/h.</desc>
<speed>5.720000</speed>
</trkpt>
<trkpt lat="22.224234" lon="103.734375">
<ele>611.773926</ele>
<time>2011-04-25T07:48:00Z</time>
<desc>lat.=22.224234, lon.=103.734375, Alt.=611.773926m. Speed=21.348000m/h.</desc>
<speed>5.930000</speed>
</trkpt>
<trkpt lat="22.224089" lon="103.734589">
<ele>611.602051</ele>
<time>2011-04-25T07:48:05Z</time>
<desc>lat.=22.224089, lon.=103.734589, Alt.=611.602051m. Speed=18.684000m/h.</desc>
<speed>5.190000</speed>
</trkpt>
<trkpt lat="22.223957" lon="103.734795">
<ele>611.086426</ele>
<time>2011-04-25T07:48:10Z</time>
<desc>lat.=22.223957, lon.=103.734795, Alt.=611.086426m. Speed=18.252001m/h.</desc>
<speed>5.070000</speed>
</trkpt>
<trkpt lat="22.223829" lon="103.734970">
<ele>611.539551</ele>
<time>2011-04-25T07:48:15Z</time>
<desc>lat.=22.223829, lon.=103.734970, Alt.=611.539551m. Speed=14.328000m/h.</desc>
<speed>3.980000</speed>
</trkpt>
<trkpt lat="22.223724" lon="103.735107">
<ele>612.680176</ele>
<time>2011-04-25T07:48:20Z</time>
<desc>lat.=22.223724, lon.=103.735107, Alt.=612.680176m. Speed=12.348000m/h.</desc>
<speed>3.430000</speed>
</trkpt>
<trkpt lat="22.223644" lon="103.735214">
<ele>613.883301</ele>
<time>2011-04-25T07:48:25Z</time>
<desc>lat.=22.223644, lon.=103.735214, Alt.=613.883301m. Speed=7.452000m/h.</desc>
<speed>2.070000</speed>
</trkpt>
<trkpt lat="22.223576" lon="103.735359">
<ele>612.227051</ele>
<time>2011-04-25T07:48:30Z</time>
<desc>lat.=22.223576, lon.=103.735359, Alt.=612.227051m. Speed=12.096000m/h.</desc>
<speed>3.360000</speed>
</trkpt>
<trkpt lat="22.223543" lon="103.735527">
<ele>611.961426</ele>
<time>2011-04-25T07:48:35Z</time>
<desc>lat.=22.223543, lon.=103.735527, Alt.=611.961426m. Speed=10.404000m/h.</desc>
<speed>2.890000</speed>
</trkpt>
<trkpt lat="22.223534" lon="103.735664">
<ele>610.742676</ele>
<time>2011-04-25T07:48:40Z</time>
<desc>lat.=22.223534, lon.=103.735664, Alt.=610.742676m. Speed=9.864000m/h.</desc>
<speed>2.740000</speed>
</trkpt>
<trkpt lat="22.223522" lon="103.735825">
<ele>609.648926</ele>
<time>2011-04-25T07:48:45Z</time>
<desc>lat.=22.223522, lon.=103.735825, Alt.=609.648926m. Speed=12.024000m/h.</desc>
<speed>3.340000</speed>
</trkpt>
<trkpt lat="22.223551" lon="103.736031">
<ele>610.539551</ele>
<time>2011-04-25T07:48:50Z</time>
<desc>lat.=22.223551, lon.=103.736031, Alt.=610.539551m. Speed=13.572000m/h.</desc>
<speed>3.770000</speed>
</trkpt>
<trkpt lat="22.223572" lon="103.736221">
<ele>611.633301</ele>
<time>2011-04-25T07:48:55Z</time>
<desc>lat.=22.223572, lon.=103.736221, Alt.=611.633301m. Speed=12.420000m/h.</desc>
<speed>3.450000</speed>
</trkpt>
<trkpt lat="22.223558" lon="103.736435">
<ele>613.117676</ele>
<time>2011-04-25T07:49:00Z</time>
<desc>lat.=22.223558, lon.=103.736435, Alt.=613.117676m. Speed=17.747999m/h.</desc>
<speed>4.930000</speed>
</trkpt>
<trkpt lat="22.223475" lon="103.736679">
<ele>614.945801</ele>
<time>2011-04-25T07:49:05Z</time>
<desc>lat.=22.223475, lon.=103.736679, Alt.=614.945801m. Speed=18.288000m/h.</desc>
<speed>5.080000</speed>
</trkpt>
<trkpt lat="22.223345" lon="103.736893">
<ele>617.477051</ele>
<time>2011-04-25T07:49:10Z</time>
<desc>lat.=22.223345, lon.=103.736893, Alt.=617.477051m. Speed=17.747999m/h.</desc>
<speed>4.930000</speed>
</trkpt>
<trkpt lat="22.223215" lon="103.737083">
<ele>619.195801</ele>
<time>2011-04-25T07:49:15Z</time>
<desc>lat.=22.223215, lon.=103.737083, Alt.=619.195801m. Speed=16.200001m/h.</desc>
<speed>4.500000</speed>
</trkpt>
<trkpt lat="22.223114" lon="103.737251">
<ele>619.523926</ele>
<time>2011-04-25T07:49:20Z</time>
<desc>lat.=22.223114, lon.=103.737251, Alt.=619.523926m. Speed=12.168000m/h.</desc>
<speed>3.380000</speed>
</trkpt>
<trkpt lat="22.223038" lon="103.737358">
<ele>619.180176</ele>
<time>2011-04-25T07:49:25Z</time>
<desc>lat.=22.223038, lon.=103.737358, Alt.=619.180176m. Speed=8.460000m/h.</desc>
<speed>2.350000</speed>
</trkpt>
<trkpt lat="22.222954" lon="103.737480">
<ele>620.180176</ele>
<time>2011-04-25T07:49:30Z</time>
<desc>lat.=22.222954, lon.=103.737480, Alt.=620.180176m. Speed=12.420000m/h.</desc>
<speed>3.450000</speed>
</trkpt>
<trkpt lat="22.222862" lon="103.737625">
<ele>622.367676</ele>
<time>2011-04-25T07:49:35Z</time>
<desc>lat.=22.222862, lon.=103.737625, Alt.=622.367676m. Speed=11.268000m/h.</desc>
<speed>3.130000</speed>
</trkpt>
<trkpt lat="22.222784" lon="103.737747">
<ele>623.227051</ele>
<time>2011-04-25T07:49:40Z</time>
<desc>lat.=22.222784, lon.=103.737747, Alt.=623.227051m. Speed=9.000000m/h.</desc>
<speed>2.500000</speed>
</trkpt>
<trkpt lat="22.222706" lon="103.737846">
<ele>624.383301</ele>
<time>2011-04-25T07:49:45Z</time>
<desc>lat.=22.222706, lon.=103.737846, Alt.=624.383301m. Speed=8.244000m/h.</desc>
<speed>2.290000</speed>
</trkpt>
<trkpt lat="22.222649" lon="103.737953">
<ele>624.055176</ele>
<time>2011-04-25T07:49:50Z</time>
<desc>lat.=22.222649, lon.=103.737953, Alt.=624.055176m. Speed=7.524000m/h.</desc>
<speed>2.090000</speed>
</trkpt>
<trkpt lat="22.222593" lon="103.738075">
<ele>623.664551</ele>
<time>2011-04-25T07:49:55Z</time>
<desc>lat.=22.222593, lon.=103.738075, Alt.=623.664551m. Speed=10.296000m/h.</desc>
<speed>2.860000</speed>
</trkpt>
<trkpt lat="22.222536" lon="103.738182">
<ele>623.852051</ele>
<time>2011-04-25T07:50:00Z</time>
<desc>lat.=22.222536, lon.=103.738182, Alt.=623.852051m. Speed=8.064000m/h.</desc>
<speed>2.240000</speed>
</trkpt>
<trkpt lat="22.222475" lon="103.738281">
<ele>625.539551</ele>
<time>2011-04-25T07:50:05Z</time>
<desc>lat.=22.222475, lon.=103.738281, Alt.=625.539551m. Speed=8.784000m/h.</desc>
<speed>2.440000</speed>
</trkpt>
<trkpt lat="22.222408" lon="103.738380">
<ele>626.227051</ele>
<time>2011-04-25T07:50:10Z</time>
<desc>lat.=22.222408, lon.=103.738380, Alt.=626.227051m. Speed=9.756000m/h.</desc>
<speed>2.710000</speed>
</trkpt>
<trkpt lat="22.222336" lon="103.738472">
<ele>626.883301</ele>
<time>2011-04-25T07:50:15Z</time>
<desc>lat.=22.222336, lon.=103.738472, Alt.=626.883301m. Speed=9.144000m/h.</desc>
<speed>2.540000</speed>
</trkpt>
<trkpt lat="22.222267" lon="103.738571">
<ele>625.617676</ele>
<time>2011-04-25T07:50:20Z</time>
<desc>lat.=22.222267, lon.=103.738571, Alt.=625.617676m. Speed=8.100000m/h.</desc>
<speed>2.250000</speed>
</trkpt>
<trkpt lat="22.222197" lon="103.738670">
<ele>626.445801</ele>
<time>2011-04-25T07:50:25Z</time>
<desc>lat.=22.222197, lon.=103.738670, Alt.=626.445801m. Speed=9.108000m/h.</desc>
<speed>2.530000</speed>
</trkpt>
<trkpt lat="22.222113" lon="103.738777">
<ele>626.461426</ele>
<time>2011-04-25T07:50:30Z</time>
<desc>lat.=22.222113, lon.=103.738777, Alt.=626.461426m. Speed=10.548000m/h.</desc>
<speed>2.930000</speed>
</trkpt>
<trkpt lat="22.222017" lon="103.738884">
<ele>628.680176</ele>
<time>2011-04-25T07:50:35Z</time>
<desc>lat.=22.222017, lon.=103.738884, Alt.=628.680176m. Speed=9.936000m/h.</desc>
<speed>2.760000</speed>
</trkpt>
<trkpt lat="22.221931" lon="103.738998">
<ele>629.805176</ele>
<time>2011-04-25T07:50:40Z</time>
<desc>lat.=22.221931, lon.=103.738998, Alt.=629.805176m. Speed=9.972000m/h.</desc>
<speed>2.770000</speed>
</trkpt>
<trkpt lat="22.221861" lon="103.739090">
<ele>629.711426</ele>
<time>2011-04-25T07:50:45Z</time>
<desc>lat.=22.221861, lon.=103.739090, Alt.=629.711426m. Speed=8.964000m/h.</desc>
<speed>2.490000</speed>
</trkpt>
<trkpt lat="22.221785" lon="103.739189">
<ele>630.227051</ele>
<time>2011-04-25T07:50:50Z</time>
<desc>lat.=22.221785, lon.=103.739189, Alt.=630.227051m. Speed=10.440000m/h.</desc>
<speed>2.900000</speed>
</trkpt>
<trkpt lat="22.221718" lon="103.739288">
<ele>630.523926</ele>
<time>2011-04-25T07:50:55Z</time>
<desc>lat.=22.221718, lon.=103.739288, Alt.=630.523926m. Speed=9.108000m/h.</desc>
<speed>2.530000</speed>
</trkpt>
<trkpt lat="22.221655" lon="103.739388">
<ele>631.430176</ele>
<time>2011-04-25T07:51:00Z</time>
<desc>lat.=22.221655, lon.=103.739388, Alt.=631.430176m. Speed=9.972000m/h.</desc>
<speed>2.770000</speed>
</trkpt>
<trkpt lat="22.221588" lon="103.739487">
<ele>631.664551</ele>
<time>2011-04-25T07:51:05Z</time>
<desc>lat.=22.221588, lon.=103.739487, Alt.=631.664551m. Speed=8.712000m/h.</desc>
<speed>2.420000</speed>
</trkpt>
<trkpt lat="22.221529" lon="103.739578">
<ele>632.289551</ele>
<time>2011-04-25T07:51:10Z</time>
<desc>lat.=22.221529, lon.=103.739578, Alt.=632.289551m. Speed=8.280000m/h.</desc>
<speed>2.300000</speed>
</trkpt>
<trkpt lat="22.221476" lon="103.739677">
<ele>633.273926</ele>
<time>2011-04-25T07:51:15Z</time>
<desc>lat.=22.221476, lon.=103.739677, Alt.=633.273926m. Speed=8.352000m/h.</desc>
<speed>2.320000</speed>
</trkpt>
<trkpt lat="22.221428" lon="103.739784">
<ele>633.852051</ele>
<time>2011-04-25T07:51:20Z</time>
<desc>lat.=22.221428, lon.=103.739784, Alt.=633.852051m. Speed=9.576000m/h.</desc>
<speed>2.660000</speed>
</trkpt>
<trkpt lat="22.221375" lon="103.739891">
<ele>634.758301</ele>
<time>2011-04-25T07:51:25Z</time>
<desc>lat.=22.221375, lon.=103.739891, Alt.=634.758301m. Speed=8.604000m/h.</desc>
<speed>2.390000</speed>
</trkpt>
<trkpt lat="22.221331" lon="103.740005">
<ele>635.586426</ele>
<time>2011-04-25T07:51:30Z</time>
<desc>lat.=22.221331, lon.=103.740005, Alt.=635.586426m. Speed=8.604000m/h.</desc>
<speed>2.390000</speed>
</trkpt>
<trkpt lat="22.221289" lon="103.740097">
<ele>635.977051</ele>
<time>2011-04-25T07:51:35Z</time>
<desc>lat.=22.221289, lon.=103.740097, Alt.=635.977051m. Speed=6.732000m/h.</desc>
<speed>1.870000</speed>
</trkpt>
<trkpt lat="22.221256" lon="103.740181">
<ele>637.133301</ele>
<time>2011-04-25T07:51:40Z</time>
<desc>lat.=22.221256, lon.=103.740181, Alt.=637.133301m. Speed=7.092000m/h.</desc>
<speed>1.970000</speed>
</trkpt>
<trkpt lat="22.221207" lon="103.740295">
<ele>637.680176</ele>
<time>2011-04-25T07:51:45Z</time>
<desc>lat.=22.221207, lon.=103.740295, Alt.=637.680176m. Speed=7.380000m/h.</desc>
<speed>2.050000</speed>
</trkpt>
<trkpt lat="22.221155" lon="103.740410">
<ele>638.977051</ele>
<time>2011-04-25T07:51:50Z</time>
<desc>lat.=22.221155, lon.=103.740410, Alt.=638.977051m. Speed=7.704000m/h.</desc>
<speed>2.140000</speed>
</trkpt>
<trkpt lat="22.221115" lon="103.740501">
<ele>639.664551</ele>
<time>2011-04-25T07:51:55Z</time>
<desc>lat.=22.221115, lon.=103.740501, Alt.=639.664551m. Speed=7.632000m/h.</desc>
<speed>2.120000</speed>
</trkpt>
<trkpt lat="22.221066" lon="103.740616">
<ele>640.164551</ele>
<time>2011-04-25T07:52:00Z</time>
<desc>lat.=22.221066, lon.=103.740616, Alt.=640.164551m. Speed=7.704000m/h.</desc>
<speed>2.140000</speed>
</trkpt>
<trkpt lat="22.221024" lon="103.740738">
<ele>640.961426</ele>
<time>2011-04-25T07:52:05Z</time>
<desc>lat.=22.221024, lon.=103.740738, Alt.=640.961426m. Speed=9.612000m/h.</desc>
<speed>2.670000</speed>
</trkpt>
<trkpt lat="22.220985" lon="103.740891">
<ele>642.148926</ele>
<time>2011-04-25T07:52:10Z</time>
<desc>lat.=22.220985, lon.=103.740891, Alt.=642.148926m. Speed=11.088000m/h.</desc>
<speed>3.080000</speed>
</trkpt>
<trkpt lat="22.220987" lon="103.741058">
<ele>639.898926</ele>
<time>2011-04-25T07:52:15Z</time>
<desc>lat.=22.220987, lon.=103.741058, Alt.=639.898926m. Speed=11.124000m/h.</desc>
<speed>3.090000</speed>
</trkpt>
<trkpt lat="22.220985" lon="103.741203">
<ele>636.961426</ele>
<time>2011-04-25T07:52:20Z</time>
<desc>lat.=22.220985, lon.=103.741203, Alt.=636.961426m. Speed=11.484000m/h.</desc>
<speed>3.190000</speed>
</trkpt>
<trkpt lat="22.220970" lon="103.741379">
<ele>636.039551</ele>
<time>2011-04-25T07:52:25Z</time>
<desc>lat.=22.220970, lon.=103.741379, Alt.=636.039551m. Speed=13.140000m/h.</desc>
<speed>3.650000</speed>
</trkpt>
<trkpt lat="22.220907" lon="103.741554">
<ele>636.055176</ele>
<time>2011-04-25T07:52:30Z</time>
<desc>lat.=22.220907, lon.=103.741554, Alt.=636.055176m. Speed=14.292000m/h.</desc>
<speed>3.970000</speed>
</trkpt>
<trkpt lat="22.220758" lon="103.741714">
<ele>635.461426</ele>
<time>2011-04-25T07:52:35Z</time>
<desc>lat.=22.220758, lon.=103.741714, Alt.=635.461426m. Speed=18.035999m/h.</desc>
<speed>5.010000</speed>
</trkpt>
<trkpt lat="22.220545" lon="103.741821">
<ele>635.680176</ele>
<time>2011-04-25T07:52:40Z</time>
<desc>lat.=22.220545, lon.=103.741821, Alt.=635.680176m. Speed=17.459999m/h.</desc>
<speed>4.850000</speed>
</trkpt>
<trkpt lat="22.220322" lon="103.741867">
<ele>637.148926</ele>
<time>2011-04-25T07:52:45Z</time>
<desc>lat.=22.220322, lon.=103.741867, Alt.=637.148926m. Speed=18.468000m/h.</desc>
<speed>5.130000</speed>
</trkpt>
<trkpt lat="22.220104" lon="103.741905">
<ele>637.570801</ele>
<time>2011-04-25T07:52:50Z</time>
<desc>lat.=22.220104, lon.=103.741905, Alt.=637.570801m. Speed=15.912000m/h.</desc>
<speed>4.420000</speed>
</trkpt>
<trkpt lat="22.219912" lon="103.741928">
<ele>639.055176</ele>
<time>2011-04-25T07:52:55Z</time>
<desc>lat.=22.219912, lon.=103.741928, Alt.=639.055176m. Speed=16.740000m/h.</desc>
<speed>4.650000</speed>
</trkpt>
<trkpt lat="22.219702" lon="103.741951">
<ele>639.711426</ele>
<time>2011-04-25T07:53:00Z</time>
<desc>lat.=22.219702, lon.=103.741951, Alt.=639.711426m. Speed=16.920000m/h.</desc>
<speed>4.700000</speed>
</trkpt>
<trkpt lat="22.219496" lon="103.741974">
<ele>639.992676</ele>
<time>2011-04-25T07:53:05Z</time>
<desc>lat.=22.219496, lon.=103.741974, Alt.=639.992676m. Speed=16.955999m/h.</desc>
<speed>4.710000</speed>
</trkpt>
<trkpt lat="22.219301" lon="103.741997">
<ele>640.945801</ele>
<time>2011-04-25T07:53:10Z</time>
<desc>lat.=22.219301, lon.=103.741997, Alt.=640.945801m. Speed=16.524000m/h.</desc>
<speed>4.590000</speed>
</trkpt>
<trkpt lat="22.219088" lon="103.742020">
<ele>640.711426</ele>
<time>2011-04-25T07:53:15Z</time>
<desc>lat.=22.219088, lon.=103.742020, Alt.=640.711426m. Speed=17.028000m/h.</desc>
<speed>4.730000</speed>
</trkpt>
<trkpt lat="22.218866" lon="103.742043">
<ele>642.195801</ele>
<time>2011-04-25T07:53:20Z</time>
<desc>lat.=22.218866, lon.=103.742043, Alt.=642.195801m. Speed=18.756001m/h.</desc>
<speed>5.210000</speed>
</trkpt>
<trkpt lat="22.218624" lon="103.742081">
<ele>642.758301</ele>
<time>2011-04-25T07:53:25Z</time>
<desc>lat.=22.218624, lon.=103.742081, Alt.=642.758301m. Speed=20.160000m/h.</desc>
<speed>5.600000</speed>
</trkpt>
<trkpt lat="22.218376" lon="103.742111">
<ele>643.117676</ele>
<time>2011-04-25T07:53:30Z</time>
<desc>lat.=22.218376, lon.=103.742111, Alt.=643.117676m. Speed=20.232000m/h.</desc>
<speed>5.620000</speed>
</trkpt>
<trkpt lat="22.218128" lon="103.742142">
<ele>643.930176</ele>
<time>2011-04-25T07:53:35Z</time>
<desc>lat.=22.218128, lon.=103.742142, Alt.=643.930176m. Speed=19.044001m/h.</desc>
<speed>5.290000</speed>
</trkpt>
<trkpt lat="22.217878" lon="103.742165">
<ele>644.898926</ele>
<time>2011-04-25T07:53:40Z</time>
<desc>lat.=22.217878, lon.=103.742165, Alt.=644.898926m. Speed=20.304001m/h.</desc>
<speed>5.640000</speed>
</trkpt>
<trkpt lat="22.217607" lon="103.742188">
<ele>644.961426</ele>
<time>2011-04-25T07:53:45Z</time>
<desc>lat.=22.217607, lon.=103.742188, Alt.=644.961426m. Speed=22.788000m/h.</desc>
<speed>6.330000</speed>
</trkpt>
<trkpt lat="22.217325" lon="103.742104">
<ele>644.586426</ele>
<time>2011-04-25T07:53:50Z</time>
<desc>lat.=22.217325, lon.=103.742104, Alt.=644.586426m. Speed=22.104000m/h.</desc>
<speed>6.140000</speed>
</trkpt>
<trkpt lat="22.217087" lon="103.741943">
<ele>644.227051</ele>
<time>2011-04-25T07:53:55Z</time>
<desc>lat.=22.217087, lon.=103.741943, Alt.=644.227051m. Speed=24.120001m/h.</desc>
<speed>6.700000</speed>
</trkpt>
<trkpt lat="22.216841" lon="103.741760">
<ele>643.570801</ele>
<time>2011-04-25T07:54:00Z</time>
<desc>lat.=22.216841, lon.=103.741760, Alt.=643.570801m. Speed=21.348000m/h.</desc>
<speed>5.930000</speed>
</trkpt>
<trkpt lat="22.216602" lon="103.741661">
<ele>642.539551</ele>
<time>2011-04-25T07:54:05Z</time>
<desc>lat.=22.216602, lon.=103.741661, Alt.=642.539551m. Speed=17.208000m/h.</desc>
<speed>4.780000</speed>
</trkpt>
<trkpt lat="22.216373" lon="103.741623">
<ele>640.852051</ele>
<time>2011-04-25T07:54:10Z</time>
<desc>lat.=22.216373, lon.=103.741623, Alt.=640.852051m. Speed=15.336000m/h.</desc>
<speed>4.260000</speed>
</trkpt>
<trkpt lat="22.216169" lon="103.741570">
<ele>639.070801</ele>
<time>2011-04-25T07:54:15Z</time>
<desc>lat.=22.216169, lon.=103.741570, Alt.=639.070801m. Speed=15.192000m/h.</desc>
<speed>4.220000</speed>
</trkpt>
<trkpt lat="22.215979" lon="103.741531">
<ele>637.461426</ele>
<time>2011-04-25T07:54:20Z</time>
<desc>lat.=22.215979, lon.=103.741531, Alt.=637.461426m. Speed=13.644000m/h.</desc>
<speed>3.790000</speed>
</trkpt>
<trkpt lat="22.215805" lon="103.741478">
<ele>637.445801</ele>
<time>2011-04-25T07:54:25Z</time>
<desc>lat.=22.215805, lon.=103.741478, Alt.=637.445801m. Speed=12.672000m/h.</desc>
<speed>3.520000</speed>
</trkpt>
<trkpt lat="22.215635" lon="103.741470">
<ele>638.148926</ele>
<time>2011-04-25T07:54:30Z</time>
<desc>lat.=22.215635, lon.=103.741470, Alt.=638.148926m. Speed=14.112000m/h.</desc>
<speed>3.920000</speed>
</trkpt>
<trkpt lat="22.215456" lon="103.741493">
<ele>639.070801</ele>
<time>2011-04-25T07:54:35Z</time>
<desc>lat.=22.215456, lon.=103.741493, Alt.=639.070801m. Speed=11.196000m/h.</desc>
<speed>3.110000</speed>
</trkpt>
<trkpt lat="22.215281" lon="103.741539">
<ele>638.992676</ele>
<time>2011-04-25T07:54:40Z</time>
<desc>lat.=22.215281, lon.=103.741539, Alt.=638.992676m. Speed=12.672000m/h.</desc>
<speed>3.520000</speed>
</trkpt>
<trkpt lat="22.215090" lon="103.741592">
<ele>638.930176</ele>
<time>2011-04-25T07:54:45Z</time>
<desc>lat.=22.215090, lon.=103.741592, Alt.=638.930176m. Speed=15.804000m/h.</desc>
<speed>4.390000</speed>
</trkpt>
<trkpt lat="22.214855" lon="103.741684">
<ele>638.805176</ele>
<time>2011-04-25T07:54:50Z</time>
<desc>lat.=22.214855, lon.=103.741684, Alt.=638.805176m. Speed=19.728001m/h.</desc>
<speed>5.480000</speed>
</trkpt>
<trkpt lat="22.214581" lon="103.741859">
<ele>638.492676</ele>
<time>2011-04-25T07:54:55Z</time>
<desc>lat.=22.214581, lon.=103.741859, Alt.=638.492676m. Speed=23.364000m/h.</desc>
<speed>6.490000</speed>
</trkpt>
<trkpt lat="22.214270" lon="103.742088">
<ele>636.836426</ele>
<time>2011-04-25T07:55:00Z</time>
<desc>lat.=22.214270, lon.=103.742088, Alt.=636.836426m. Speed=24.336000m/h.</desc>
<speed>6.760000</speed>
</trkpt>
<trkpt lat="22.213991" lon="103.742210">
<ele>636.883301</ele>
<time>2011-04-25T07:55:05Z</time>
<desc>lat.=22.213991, lon.=103.742210, Alt.=636.883301m. Speed=21.275999m/h.</desc>
<speed>5.910000</speed>
</trkpt>
<trkpt lat="22.213697" lon="103.742226">
<ele>636.977051</ele>
<time>2011-04-25T07:55:10Z</time>
<desc>lat.=22.213697, lon.=103.742226, Alt.=636.977051m. Speed=23.184000m/h.</desc>
<speed>6.440000</speed>
</trkpt>
<trkpt lat="22.213432" lon="103.742218">
<ele>636.805176</ele>
<time>2011-04-25T07:55:15Z</time>
<desc>lat.=22.213432, lon.=103.742218, Alt.=636.805176m. Speed=20.879999m/h.</desc>
<speed>5.800000</speed>
</trkpt>
<trkpt lat="22.213144" lon="103.742195">
<ele>636.133301</ele>
<time>2011-04-25T07:55:20Z</time>
<desc>lat.=22.213144, lon.=103.742195, Alt.=636.133301m. Speed=20.591999m/h.</desc>
<speed>5.720000</speed>
</trkpt>
<trkpt lat="22.212872" lon="103.742180">
<ele>635.164551</ele>
<time>2011-04-25T07:55:25Z</time>
<desc>lat.=22.212872, lon.=103.742180, Alt.=635.164551m. Speed=18.072001m/h.</desc>
<speed>5.020000</speed>
</trkpt>
<trkpt lat="22.212561" lon="103.742165">
<ele>633.617676</ele>
<time>2011-04-25T07:55:30Z</time>
<desc>lat.=22.212561, lon.=103.742165, Alt.=633.617676m. Speed=20.375999m/h.</desc>
<speed>5.660000</speed>
</trkpt>
<trkpt lat="22.212250" lon="103.742149">
<ele>632.602051</ele>
<time>2011-04-25T07:55:35Z</time>
<desc>lat.=22.212250, lon.=103.742149, Alt.=632.602051m. Speed=20.591999m/h.</desc>
<speed>5.720000</speed>
</trkpt>
<trkpt lat="22.211924" lon="103.742142">
<ele>632.102051</ele>
<time>2011-04-25T07:55:40Z</time>
<desc>lat.=22.211924, lon.=103.742142, Alt.=632.102051m. Speed=20.700001m/h.</desc>
<speed>5.750000</speed>
</trkpt>
<trkpt lat="22.211615" lon="103.742104">
<ele>630.758301</ele>
<time>2011-04-25T07:55:45Z</time>
<desc>lat.=22.211615, lon.=103.742104, Alt.=630.758301m. Speed=20.736000m/h.</desc>
<speed>5.760000</speed>
</trkpt>
<trkpt lat="22.211311" lon="103.742073">
<ele>629.852051</ele>
<time>2011-04-25T07:55:50Z</time>
<desc>lat.=22.211311, lon.=103.742073, Alt.=629.852051m. Speed=23.868000m/h.</desc>
<speed>6.630000</speed>
</trkpt>
<trkpt lat="22.211008" lon="103.742043">
<ele>629.555176</ele>
<time>2011-04-25T07:55:55Z</time>
<desc>lat.=22.211008, lon.=103.742043, Alt.=629.555176m. Speed=18.936001m/h.</desc>
<speed>5.260000</speed>
</trkpt>
<trkpt lat="22.210764" lon="103.742035">
<ele>629.727051</ele>
<time>2011-04-25T07:56:00Z</time>
<desc>lat.=22.210764, lon.=103.742035, Alt.=629.727051m. Speed=16.740000m/h.</desc>
<speed>4.650000</speed>
</trkpt>
<trkpt lat="22.210588" lon="103.742027">
<ele>629.445801</ele>
<time>2011-04-25T07:56:05Z</time>
<desc>lat.=22.210588, lon.=103.742027, Alt.=629.445801m. Speed=11.052000m/h.</desc>
<speed>3.070000</speed>
</trkpt>
<trkpt lat="22.210438" lon="103.742027">
<ele>629.492676</ele>
<time>2011-04-25T07:56:10Z</time>
<desc>lat.=22.210438, lon.=103.742027, Alt.=629.492676m. Speed=9.468000m/h.</desc>
<speed>2.630000</speed>
</trkpt>
<trkpt lat="22.210270" lon="103.742004">
<ele>629.008301</ele>
<time>2011-04-25T07:56:15Z</time>
<desc>lat.=22.210270, lon.=103.742004, Alt.=629.008301m. Speed=12.744000m/h.</desc>
<speed>3.540000</speed>
</trkpt>
<trkpt lat="22.210081" lon="103.741989">
<ele>628.164551</ele>
<time>2011-04-25T07:56:20Z</time>
<desc>lat.=22.210081, lon.=103.741989, Alt.=628.164551m. Speed=12.060000m/h.</desc>
<speed>3.350000</speed>
</trkpt>
<trkpt lat="22.209906" lon="103.741997">
<ele>626.633301</ele>
<time>2011-04-25T07:56:25Z</time>
<desc>lat.=22.209906, lon.=103.741997, Alt.=626.633301m. Speed=13.212000m/h.</desc>
<speed>3.670000</speed>
</trkpt>
<trkpt lat="22.209679" lon="103.741997">
<ele>626.008301</ele>
<time>2011-04-25T07:56:30Z</time>
<desc>lat.=22.209679, lon.=103.741997, Alt.=626.008301m. Speed=15.624000m/h.</desc>
<speed>4.340000</speed>
</trkpt>
<trkpt lat="22.209429" lon="103.741974">
<ele>625.055176</ele>
<time>2011-04-25T07:56:35Z</time>
<desc>lat.=22.209429, lon.=103.741974, Alt.=625.055176m. Speed=17.568001m/h.</desc>
<speed>4.880000</speed>
</trkpt>
<trkpt lat="22.209179" lon="103.741943">
<ele>622.977051</ele>
<time>2011-04-25T07:56:40Z</time>
<desc>lat.=22.209179, lon.=103.741943, Alt.=622.977051m. Speed=16.308001m/h.</desc>
<speed>4.530000</speed>
</trkpt>
<trkpt lat="22.208920" lon="103.741959">
<ele>622.055176</ele>
<time>2011-04-25T07:56:45Z</time>
<desc>lat.=22.208920, lon.=103.741959, Alt.=622.055176m. Speed=19.224001m/h.</desc>
<speed>5.340000</speed>
</trkpt>
<trkpt lat="22.208605" lon="103.741936">
<ele>620.508301</ele>
<time>2011-04-25T07:56:50Z</time>
<desc>lat.=22.208605, lon.=103.741936, Alt.=620.508301m. Speed=24.732000m/h.</desc>
<speed>6.870000</speed>
</trkpt>
<trkpt lat="22.208282" lon="103.741951">
<ele>618.867676</ele>
<time>2011-04-25T07:56:55Z</time>
<desc>lat.=22.208282, lon.=103.741951, Alt.=618.867676m. Speed=26.063999m/h.</desc>
<speed>7.240000</speed>
</trkpt>
<trkpt lat="22.207882" lon="103.742020">
<ele>618.852051</ele>
<time>2011-04-25T07:57:00Z</time>
<desc>lat.=22.207882, lon.=103.742020, Alt.=618.852051m. Speed=29.483999m/h.</desc>
<speed>8.190000</speed>
</trkpt>
<trkpt lat="22.207455" lon="103.742058">
<ele>623.461426</ele>
<time>2011-04-25T07:57:05Z</time>
<desc>lat.=22.207455, lon.=103.742058, Alt.=623.461426m. Speed=27.648001m/h.</desc>
<speed>7.680000</speed>
</trkpt>
<trkpt lat="22.207136" lon="103.742157">
<ele>624.133301</ele>
<time>2011-04-25T07:57:10Z</time>
<desc>lat.=22.207136, lon.=103.742157, Alt.=624.133301m. Speed=24.840000m/h.</desc>
<speed>6.900000</speed>
</trkpt>
<trkpt lat="22.206903" lon="103.742256">
<ele>623.367676</ele>
<time>2011-04-25T07:57:15Z</time>
<desc>lat.=22.206903, lon.=103.742256, Alt.=623.367676m. Speed=15.840000m/h.</desc>
<speed>4.400000</speed>
</trkpt>
<trkpt lat="22.206652" lon="103.742378">
<ele>624.055176</ele>
<time>2011-04-25T07:57:20Z</time>
<desc>lat.=22.206652, lon.=103.742378, Alt.=624.055176m. Speed=22.104000m/h.</desc>
<speed>6.140000</speed>
</trkpt>
<trkpt lat="22.206303" lon="103.742569">
<ele>623.008301</ele>
<time>2011-04-25T07:57:25Z</time>
<desc>lat.=22.206303, lon.=103.742569, Alt.=623.008301m. Speed=31.104000m/h.</desc>
<speed>8.640000</speed>
</trkpt>
<trkpt lat="22.205826" lon="103.742752">
<ele>619.305176</ele>
<time>2011-04-25T07:57:30Z</time>
<desc>lat.=22.205826, lon.=103.742752, Alt.=619.305176m. Speed=37.007999m/h.</desc>
<speed>10.280000</speed>
</trkpt>
<trkpt lat="22.205385" lon="103.742920">
<ele>618.086426</ele>
<time>2011-04-25T07:57:35Z</time>
<desc>lat.=22.205385, lon.=103.742920, Alt.=618.086426m. Speed=33.372002m/h.</desc>
<speed>9.270000</speed>
</trkpt>
<trkpt lat="22.204977" lon="103.743065">
<ele>617.820801</ele>
<time>2011-04-25T07:57:40Z</time>
<desc>lat.=22.204977, lon.=103.743065, Alt.=617.820801m. Speed=32.939999m/h.</desc>
<speed>9.150000</speed>
</trkpt>
<trkpt lat="22.204538" lon="103.743202">
<ele>620.086426</ele>
<time>2011-04-25T07:57:45Z</time>
<desc>lat.=22.204538, lon.=103.743202, Alt.=620.086426m. Speed=31.896000m/h.</desc>
<speed>8.860000</speed>
</trkpt>
<trkpt lat="22.204174" lon="103.743324">
<ele>620.445801</ele>
<time>2011-04-25T07:57:50Z</time>
<desc>lat.=22.204174, lon.=103.743324, Alt.=620.445801m. Speed=31.284000m/h.</desc>
<speed>8.690000</speed>
</trkpt>
<trkpt lat="22.203777" lon="103.743484">
<ele>621.320801</ele>
<time>2011-04-25T07:57:55Z</time>
<desc>lat.=22.203777, lon.=103.743484, Alt.=621.320801m. Speed=29.628000m/h.</desc>
<speed>8.230000</speed>
</trkpt>
<trkpt lat="22.203421" lon="103.743584">
<ele>622.320801</ele>
<time>2011-04-25T07:58:00Z</time>
<desc>lat.=22.203421, lon.=103.743584, Alt.=622.320801m. Speed=27.431999m/h.</desc>
<speed>7.620000</speed>
</trkpt>
<trkpt lat="22.203096" lon="103.743698">
<ele>623.367676</ele>
<time>2011-04-25T07:58:05Z</time>
<desc>lat.=22.203096, lon.=103.743698, Alt.=623.367676m. Speed=23.184000m/h.</desc>
<speed>6.440000</speed>
</trkpt>
<trkpt lat="22.202805" lon="103.743767">
<ele>622.227051</ele>
<time>2011-04-25T07:58:10Z</time>
<desc>lat.=22.202805, lon.=103.743767, Alt.=622.227051m. Speed=18.431999m/h.</desc>
<speed>5.120000</speed>
</trkpt>
<trkpt lat="22.202541" lon="103.743881">
<ele>623.367676</ele>
<time>2011-04-25T07:58:15Z</time>
<desc>lat.=22.202541, lon.=103.743881, Alt.=623.367676m. Speed=18.468000m/h.</desc>
<speed>5.130000</speed>
</trkpt>
<trkpt lat="22.202299" lon="103.743973">
<ele>622.945801</ele>
<time>2011-04-25T07:58:20Z</time>
<desc>lat.=22.202299, lon.=103.743973, Alt.=622.945801m. Speed=22.139999m/h.</desc>
<speed>6.150000</speed>
</trkpt>
<trkpt lat="22.202049" lon="103.744064">
<ele>622.008301</ele>
<time>2011-04-25T07:58:25Z</time>
<desc>lat.=22.202049, lon.=103.744064, Alt.=622.008301m. Speed=19.799999m/h.</desc>
<speed>5.500000</speed>
</trkpt>
<trkpt lat="22.201811" lon="103.744125">
<ele>622.180176</ele>
<time>2011-04-25T07:58:30Z</time>
<desc>lat.=22.201811, lon.=103.744125, Alt.=622.180176m. Speed=18.719999m/h.</desc>
<speed>5.200000</speed>
</trkpt>
<trkpt lat="22.201553" lon="103.744225">
<ele>620.227051</ele>
<time>2011-04-25T07:58:35Z</time>
<desc>lat.=22.201553, lon.=103.744225, Alt.=620.227051m. Speed=23.004000m/h.</desc>
<speed>6.390000</speed>
</trkpt>
<trkpt lat="22.201241" lon="103.744301">
<ele>618.789551</ele>
<time>2011-04-25T07:58:40Z</time>
<desc>lat.=22.201241, lon.=103.744301, Alt.=618.789551m. Speed=28.115999m/h.</desc>
<speed>7.810000</speed>
</trkpt>
<trkpt lat="22.200859" lon="103.744347">
<ele>617.664551</ele>
<time>2011-04-25T07:58:45Z</time>
<desc>lat.=22.200859, lon.=103.744347, Alt.=617.664551m. Speed=30.996000m/h.</desc>
<speed>8.610000</speed>
</trkpt>
<trkpt lat="22.200487" lon="103.744385">
<ele>616.914551</ele>
<time>2011-04-25T07:58:50Z</time>
<desc>lat.=22.200487, lon.=103.744385, Alt.=616.914551m. Speed=28.584000m/h.</desc>
<speed>7.940000</speed>
</trkpt>
<trkpt lat="22.200171" lon="103.744408">
<ele>618.039551</ele>
<time>2011-04-25T07:58:55Z</time>
<desc>lat.=22.200171, lon.=103.744408, Alt.=618.039551m. Speed=20.016001m/h.</desc>
<speed>5.560000</speed>
</trkpt>
<trkpt lat="22.199947" lon="103.744469">
<ele>618.352051</ele>
<time>2011-04-25T07:59:00Z</time>
<desc>lat.=22.199947, lon.=103.744469, Alt.=618.352051m. Speed=19.007999m/h.</desc>
<speed>5.280000</speed>
</trkpt>
<trkpt lat="22.199675" lon="103.744598">
<ele>619.398926</ele>
<time>2011-04-25T07:59:05Z</time>
<desc>lat.=22.199675, lon.=103.744598, Alt.=619.398926m. Speed=22.427999m/h.</desc>
<speed>6.230000</speed>
</trkpt>
<trkpt lat="22.199394" lon="103.744698">
<ele>618.164551</ele>
<time>2011-04-25T07:59:10Z</time>
<desc>lat.=22.199394, lon.=103.744698, Alt.=618.164551m. Speed=22.500000m/h.</desc>
<speed>6.250000</speed>
</trkpt>
<trkpt lat="22.199192" lon="103.744774">
<ele>620.445801</ele>
<time>2011-04-25T07:59:15Z</time>
<desc>lat.=22.199192, lon.=103.744774, Alt.=620.445801m. Speed=13.644000m/h.</desc>
<speed>3.790000</speed>
</trkpt>
<trkpt lat="22.199018" lon="103.744820">
<ele>620.336426</ele>
<time>2011-04-25T07:59:20Z</time>
<desc>lat.=22.199018, lon.=103.744820, Alt.=620.336426m. Speed=15.300000m/h.</desc>
<speed>4.250000</speed>
</trkpt>
<trkpt lat="22.198795" lon="103.744881">
<ele>619.055176</ele>
<time>2011-04-25T07:59:25Z</time>
<desc>lat.=22.198795, lon.=103.744881, Alt.=619.055176m. Speed=17.676001m/h.</desc>
<speed>4.910000</speed>
</trkpt>
<trkpt lat="22.198586" lon="103.744965">
<ele>617.070801</ele>
<time>2011-04-25T07:59:30Z</time>
<desc>lat.=22.198586, lon.=103.744965, Alt.=617.070801m. Speed=14.364000m/h.</desc>
<speed>3.990000</speed>
</trkpt>
<trkpt lat="22.198410" lon="103.745026">
<ele>616.539551</ele>
<time>2011-04-25T07:59:35Z</time>
<desc>lat.=22.198410, lon.=103.745026, Alt.=616.539551m. Speed=12.204000m/h.</desc>
<speed>3.390000</speed>
</trkpt>
<trkpt lat="22.198263" lon="103.745064">
<ele>615.992676</ele>
<time>2011-04-25T07:59:40Z</time>
<desc>lat.=22.198263, lon.=103.745064, Alt.=615.992676m. Speed=11.808000m/h.</desc>
<speed>3.280000</speed>
</trkpt>
<trkpt lat="22.198084" lon="103.745148">
<ele>614.836426</ele>
<time>2011-04-25T07:59:45Z</time>
<desc>lat.=22.198084, lon.=103.745148, Alt.=614.836426m. Speed=15.984000m/h.</desc>
<speed>4.440000</speed>
</trkpt>
<trkpt lat="22.197849" lon="103.745232">
<ele>613.586426</ele>
<time>2011-04-25T07:59:50Z</time>
<desc>lat.=22.197849, lon.=103.745232, Alt.=613.586426m. Speed=21.492001m/h.</desc>
<speed>5.970000</speed>
</trkpt>
<trkpt lat="22.197548" lon="103.745346">
<ele>611.289551</ele>
<time>2011-04-25T07:59:55Z</time>
<desc>lat.=22.197548, lon.=103.745346, Alt.=611.289551m. Speed=26.532000m/h.</desc>
<speed>7.370000</speed>
</trkpt>
<trkpt lat="22.197191" lon="103.745476">
<ele>608.758301</ele>
<time>2011-04-25T08:00:00Z</time>
<desc>lat.=22.197191, lon.=103.745476, Alt.=608.758301m. Speed=31.212000m/h.</desc>
<speed>8.670000</speed>
</trkpt>
<trkpt lat="22.196762" lon="103.745613">
<ele>603.852051</ele>
<time>2011-04-25T08:00:05Z</time>
<desc>lat.=22.196762, lon.=103.745613, Alt.=603.852051m. Speed=35.532001m/h.</desc>
<speed>9.870000</speed>
</trkpt>
<trkpt lat="22.196304" lon="103.745758">
<ele>601.555176</ele>
<time>2011-04-25T08:00:10Z</time>
<desc>lat.=22.196304, lon.=103.745758, Alt.=601.555176m. Speed=40.320000m/h.</desc>
<speed>11.200000</speed>
</trkpt>
<trkpt lat="22.195808" lon="103.745605">
<ele>597.820801</ele>
<time>2011-04-25T08:00:15Z</time>
<desc>lat.=22.195808, lon.=103.745605, Alt.=597.820801m. Speed=40.212002m/h.</desc>
<speed>11.170001</speed>
</trkpt>
<trkpt lat="22.195433" lon="103.745247">
<ele>593.945801</ele>
<time>2011-04-25T08:00:20Z</time>
<desc>lat.=22.195433, lon.=103.745247, Alt.=593.945801m. Speed=40.391998m/h.</desc>
<speed>11.220000</speed>
</trkpt>
<trkpt lat="22.195024" lon="103.744949">
<ele>589.820801</ele>
<time>2011-04-25T08:00:25Z</time>
<desc>lat.=22.195024, lon.=103.744949, Alt.=589.820801m. Speed=39.167999m/h.</desc>
<speed>10.880000</speed>
</trkpt>
<trkpt lat="22.194511" lon="103.744934">
<ele>586.758301</ele>
<time>2011-04-25T08:00:30Z</time>
<desc>lat.=22.194511, lon.=103.744934, Alt.=586.758301m. Speed=43.956001m/h.</desc>
<speed>12.210000</speed>
</trkpt>
<trkpt lat="22.193975" lon="103.745125">
<ele>583.664551</ele>
<time>2011-04-25T08:00:35Z</time>
<desc>lat.=22.193975, lon.=103.745125, Alt.=583.664551m. Speed=46.619999m/h.</desc>
<speed>12.950000</speed>
</trkpt>
<trkpt lat="22.193455" lon="103.745483">
<ele>581.133301</ele>
<time>2011-04-25T08:00:40Z</time>
<desc>lat.=22.193455, lon.=103.745483, Alt.=581.133301m. Speed=50.436001m/h.</desc>
<speed>14.010000</speed>
</trkpt>
<trkpt lat="22.192924" lon="103.745872">
<ele>579.055176</ele>
<time>2011-04-25T08:00:45Z</time>
<desc>lat.=22.192924, lon.=103.745872, Alt.=579.055176m. Speed=48.672001m/h.</desc>
<speed>13.520000</speed>
</trkpt>
<trkpt lat="22.192402" lon="103.746239">
<ele>577.945801</ele>
<time>2011-04-25T08:00:50Z</time>
<desc>lat.=22.192402, lon.=103.746239, Alt.=577.945801m. Speed=47.520000m/h.</desc>
<speed>13.200000</speed>
</trkpt>
<trkpt lat="22.191858" lon="103.746460">
<ele>575.930176</ele>
<time>2011-04-25T08:00:55Z</time>
<desc>lat.=22.191858, lon.=103.746460, Alt.=575.930176m. Speed=44.388000m/h.</desc>
<speed>12.330000</speed>
</trkpt>
<trkpt lat="22.191360" lon="103.746674">
<ele>573.492676</ele>
<time>2011-04-25T08:01:00Z</time>
<desc>lat.=22.191360, lon.=103.746674, Alt.=573.492676m. Speed=40.500000m/h.</desc>
<speed>11.250000</speed>
</trkpt>
<trkpt lat="22.190889" lon="103.746872">
<ele>571.773926</ele>
<time>2011-04-25T08:01:05Z</time>
<desc>lat.=22.190889, lon.=103.746872, Alt.=571.773926m. Speed=39.023998m/h.</desc>
<speed>10.840000</speed>
</trkpt>
<trkpt lat="22.190449" lon="103.747063">
<ele>570.008301</ele>
<time>2011-04-25T08:01:10Z</time>
<desc>lat.=22.190449, lon.=103.747063, Alt.=570.008301m. Speed=36.827999m/h.</desc>
<speed>10.230000</speed>
</trkpt>
<trkpt lat="22.190020" lon="103.747215">
<ele>568.070801</ele>
<time>2011-04-25T08:01:15Z</time>
<desc>lat.=22.190020, lon.=103.747215, Alt.=568.070801m. Speed=34.992001m/h.</desc>
<speed>9.720000</speed>
</trkpt>
<trkpt lat="22.189602" lon="103.747368">
<ele>567.492676</ele>
<time>2011-04-25T08:01:20Z</time>
<desc>lat.=22.189602, lon.=103.747368, Alt.=567.492676m. Speed=33.012001m/h.</desc>
<speed>9.170000</speed>
</trkpt>
<trkpt lat="22.189219" lon="103.747528">
<ele>566.961426</ele>
<time>2011-04-25T08:01:25Z</time>
<desc>lat.=22.189219, lon.=103.747528, Alt.=566.961426m. Speed=32.327999m/h.</desc>
<speed>8.980000</speed>
</trkpt>
<trkpt lat="22.188843" lon="103.747681">
<ele>566.664551</ele>
<time>2011-04-25T08:01:30Z</time>
<desc>lat.=22.188843, lon.=103.747681, Alt.=566.664551m. Speed=30.672001m/h.</desc>
<speed>8.520000</speed>
</trkpt>
<trkpt lat="22.188488" lon="103.747826">
<ele>566.430176</ele>
<time>2011-04-25T08:01:35Z</time>
<desc>lat.=22.188488, lon.=103.747826, Alt.=566.430176m. Speed=29.304001m/h.</desc>
<speed>8.140000</speed>
</trkpt>
<trkpt lat="22.188148" lon="103.747971">
<ele>566.008301</ele>
<time>2011-04-25T08:01:40Z</time>
<desc>lat.=22.188148, lon.=103.747971, Alt.=566.008301m. Speed=29.736000m/h.</desc>
<speed>8.260000</speed>
</trkpt>
<trkpt lat="22.187817" lon="103.748123">
<ele>565.398926</ele>
<time>2011-04-25T08:01:45Z</time>
<desc>lat.=22.187817, lon.=103.748123, Alt.=565.398926m. Speed=28.944000m/h.</desc>
<speed>8.040000</speed>
</trkpt>
<trkpt lat="22.187517" lon="103.748253">
<ele>565.273926</ele>
<time>2011-04-25T08:01:50Z</time>
<desc>lat.=22.187517, lon.=103.748253, Alt.=565.273926m. Speed=23.004000m/h.</desc>
<speed>6.390000</speed>
</trkpt>
<trkpt lat="22.187244" lon="103.748337">
<ele>565.523926</ele>
<time>2011-04-25T08:01:55Z</time>
<desc>lat.=22.187244, lon.=103.748337, Alt.=565.523926m. Speed=17.820000m/h.</desc>
<speed>4.950000</speed>
</trkpt>
<trkpt lat="22.187035" lon="103.748352">
<ele>565.664551</ele>
<time>2011-04-25T08:02:00Z</time>
<desc>lat.=22.187035, lon.=103.748352, Alt.=565.664551m. Speed=8.244000m/h.</desc>
<speed>2.290000</speed>
</trkpt>
<trkpt lat="22.186914" lon="103.748352">
<ele>565.883301</ele>
<time>2011-04-25T08:02:05Z</time>
<desc>lat.=22.186914, lon.=103.748352, Alt.=565.883301m. Speed=6.336000m/h.</desc>
<speed>1.760000</speed>
</trkpt>
<trkpt lat="22.186800" lon="103.748375">
<ele>566.414551</ele>
<time>2011-04-25T08:02:10Z</time>
<desc>lat.=22.186800, lon.=103.748375, Alt.=566.414551m. Speed=9.360000m/h.</desc>
<speed>2.600000</speed>
</trkpt>
<trkpt lat="22.186687" lon="103.748413">
<ele>566.305176</ele>
<time>2011-04-25T08:02:15Z</time>
<desc>lat.=22.186687, lon.=103.748413, Alt.=566.305176m. Speed=6.948000m/h.</desc>
<speed>1.930000</speed>
</trkpt>
<trkpt lat="22.186548" lon="103.748413">
<ele>567.539551</ele>
<time>2011-04-25T08:02:20Z</time>
<desc>lat.=22.186548, lon.=103.748413, Alt.=567.539551m. Speed=10.368000m/h.</desc>
<speed>2.880000</speed>
</trkpt>
<trkpt lat="22.186377" lon="103.748451">
<ele>568.336426</ele>
<time>2011-04-25T08:02:25Z</time>
<desc>lat.=22.186377, lon.=103.748451, Alt.=568.336426m. Speed=14.652000m/h.</desc>
<speed>4.070000</speed>
</trkpt>
<trkpt lat="22.186155" lon="103.748512">
<ele>568.602051</ele>
<time>2011-04-25T08:02:30Z</time>
<desc>lat.=22.186155, lon.=103.748512, Alt.=568.602051m. Speed=17.351999m/h.</desc>
<speed>4.820000</speed>
</trkpt>
<trkpt lat="22.185896" lon="103.748550">
<ele>568.242676</ele>
<time>2011-04-25T08:02:35Z</time>
<desc>lat.=22.185896, lon.=103.748550, Alt.=568.242676m. Speed=18.576000m/h.</desc>
<speed>5.160000</speed>
</trkpt>
<trkpt lat="22.185665" lon="103.748573">
<ele>568.742676</ele>
<time>2011-04-25T08:02:40Z</time>
<desc>lat.=22.185665, lon.=103.748573, Alt.=568.742676m. Speed=16.992001m/h.</desc>
<speed>4.720000</speed>
</trkpt>
<trkpt lat="22.185408" lon="103.748627">
<ele>568.477051</ele>
<time>2011-04-25T08:02:45Z</time>
<desc>lat.=22.185408, lon.=103.748627, Alt.=568.477051m. Speed=18.000000m/h.</desc>
<speed>5.000000</speed>
</trkpt>
<trkpt lat="22.185143" lon="103.748619">
<ele>567.961426</ele>
<time>2011-04-25T08:02:50Z</time>
<desc>lat.=22.185143, lon.=103.748619, Alt.=567.961426m. Speed=20.195999m/h.</desc>
<speed>5.610000</speed>
</trkpt>
<trkpt lat="22.184902" lon="103.748596">
<ele>567.133301</ele>
<time>2011-04-25T08:02:55Z</time>
<desc>lat.=22.184902, lon.=103.748596, Alt.=567.133301m. Speed=18.143999m/h.</desc>
<speed>5.040000</speed>
</trkpt>
<trkpt lat="22.184689" lon="103.748581">
<ele>567.289551</ele>
<time>2011-04-25T08:03:00Z</time>
<desc>lat.=22.184689, lon.=103.748581, Alt.=567.289551m. Speed=15.120000m/h.</desc>
<speed>4.200000</speed>
</trkpt>
<trkpt lat="22.184528" lon="103.748573">
<ele>567.320801</ele>
<time>2011-04-25T08:03:05Z</time>
<desc>lat.=22.184528, lon.=103.748573, Alt.=567.320801m. Speed=16.775999m/h.</desc>
<speed>4.660000</speed>
</trkpt>
<trkpt lat="22.184296" lon="103.748535">
<ele>566.602051</ele>
<time>2011-04-25T08:03:10Z</time>
<desc>lat.=22.184296, lon.=103.748535, Alt.=566.602051m. Speed=16.236000m/h.</desc>
<speed>4.510000</speed>
</trkpt>
<trkpt lat="22.184086" lon="103.748505">
<ele>567.180176</ele>
<time>2011-04-25T08:03:15Z</time>
<desc>lat.=22.184086, lon.=103.748505, Alt.=567.180176m. Speed=17.280001m/h.</desc>
<speed>4.800000</speed>
</trkpt>
<trkpt lat="22.183857" lon="103.748466">
<ele>567.086426</ele>
<time>2011-04-25T08:03:20Z</time>
<desc>lat.=22.183857, lon.=103.748466, Alt.=567.086426m. Speed=17.892000m/h.</desc>
<speed>4.970000</speed>
</trkpt>
<trkpt lat="22.183628" lon="103.748444">
<ele>566.586426</ele>
<time>2011-04-25T08:03:25Z</time>
<desc>lat.=22.183628, lon.=103.748444, Alt.=566.586426m. Speed=18.972000m/h.</desc>
<speed>5.270000</speed>
</trkpt>
<trkpt lat="22.183384" lon="103.748459">
<ele>566.602051</ele>
<time>2011-04-25T08:03:30Z</time>
<desc>lat.=22.183384, lon.=103.748459, Alt.=566.602051m. Speed=20.124001m/h.</desc>
<speed>5.590000</speed>
</trkpt>
<trkpt lat="22.183180" lon="103.748428">
<ele>567.820801</ele>
<time>2011-04-25T08:03:35Z</time>
<desc>lat.=22.183180, lon.=103.748428, Alt.=567.820801m. Speed=15.696000m/h.</desc>
<speed>4.360000</speed>
</trkpt>
<trkpt lat="22.182903" lon="103.748398">
<ele>565.711426</ele>
<time>2011-04-25T08:03:40Z</time>
<desc>lat.=22.182903, lon.=103.748398, Alt.=565.711426m. Speed=22.356001m/h.</desc>
<speed>6.210000</speed>
</trkpt>
<trkpt lat="22.182606" lon="103.748375">
<ele>565.273926</ele>
<time>2011-04-25T08:03:45Z</time>
<desc>lat.=22.182606, lon.=103.748375, Alt.=565.273926m. Speed=21.275999m/h.</desc>
<speed>5.910000</speed>
</trkpt>
<trkpt lat="22.182323" lon="103.748344">
<ele>565.289551</ele>
<time>2011-04-25T08:03:50Z</time>
<desc>lat.=22.182323, lon.=103.748344, Alt.=565.289551m. Speed=19.799999m/h.</desc>
<speed>5.500000</speed>
</trkpt>
<trkpt lat="22.182087" lon="103.748337">
<ele>565.023926</ele>
<time>2011-04-25T08:03:55Z</time>
<desc>lat.=22.182087, lon.=103.748337, Alt.=565.023926m. Speed=16.667999m/h.</desc>
<speed>4.630000</speed>
</trkpt>
<trkpt lat="22.181887" lon="103.748344">
<ele>565.883301</ele>
<time>2011-04-25T08:04:00Z</time>
<desc>lat.=22.181887, lon.=103.748344, Alt.=565.883301m. Speed=12.168000m/h.</desc>
<speed>3.380000</speed>
</trkpt>
<trkpt lat="22.181711" lon="103.748398">
<ele>566.930176</ele>
<time>2011-04-25T08:04:05Z</time>
<desc>lat.=22.181711, lon.=103.748398, Alt.=566.930176m. Speed=12.060000m/h.</desc>
<speed>3.350000</speed>
</trkpt>
<trkpt lat="22.181561" lon="103.748451">
<ele>568.508301</ele>
<time>2011-04-25T08:04:10Z</time>
<desc>lat.=22.181561, lon.=103.748451, Alt.=568.508301m. Speed=10.800000m/h.</desc>
<speed>3.000000</speed>
</trkpt>
<trkpt lat="22.181450" lon="103.748505">
<ele>569.367676</ele>
<time>2011-04-25T08:04:15Z</time>
<desc>lat.=22.181450, lon.=103.748505, Alt.=569.367676m. Speed=7.380000m/h.</desc>
<speed>2.050000</speed>
</trkpt>
<trkpt lat="22.181351" lon="103.748535">
<ele>569.680176</ele>
<time>2011-04-25T08:04:20Z</time>
<desc>lat.=22.181351, lon.=103.748535, Alt.=569.680176m. Speed=4.536000m/h.</desc>
<speed>1.260000</speed>
</trkpt>
<trkpt lat="22.181271" lon="103.748596">
<ele>569.867676</ele>
<time>2011-04-25T08:04:25Z</time>
<desc>lat.=22.181271, lon.=103.748596, Alt.=569.867676m. Speed=7.524000m/h.</desc>
<speed>2.090000</speed>
</trkpt>
<trkpt lat="22.181179" lon="103.748672">
<ele>570.414551</ele>
<time>2011-04-25T08:04:30Z</time>
<desc>lat.=22.181179, lon.=103.748672, Alt.=570.414551m. Speed=6.372000m/h.</desc>
<speed>1.770000</speed>
</trkpt>
<trkpt lat="22.181095" lon="103.748726">
<ele>571.305176</ele>
<time>2011-04-25T08:04:35Z</time>
<desc>lat.=22.181095, lon.=103.748726, Alt.=571.305176m. Speed=7.416000m/h.</desc>
<speed>2.060000</speed>
</trkpt>
<trkpt lat="22.181009" lon="103.748795">
<ele>572.508301</ele>
<time>2011-04-25T08:04:40Z</time>
<desc>lat.=22.181009, lon.=103.748795, Alt.=572.508301m. Speed=5.508000m/h.</desc>
<speed>1.530000</speed>
</trkpt>
<trkpt lat="22.180939" lon="103.748863">
<ele>574.727051</ele>
<time>2011-04-25T08:04:45Z</time>
<desc>lat.=22.180939, lon.=103.748863, Alt.=574.727051m. Speed=6.228000m/h.</desc>
<speed>1.730000</speed>
</trkpt>
<trkpt lat="22.180836" lon="103.748947">
<ele>575.461426</ele>
<time>2011-04-25T08:04:50Z</time>
<desc>lat.=22.180836, lon.=103.748947, Alt.=575.461426m. Speed=7.416000m/h.</desc>
<speed>2.060000</speed>
</trkpt>
<trkpt lat="22.180735" lon="103.749054">
<ele>577.523926</ele>
<time>2011-04-25T08:04:55Z</time>
<desc>lat.=22.180735, lon.=103.749054, Alt.=577.523926m. Speed=8.676000m/h.</desc>
<speed>2.410000</speed>
</trkpt>
<trkpt lat="22.180641" lon="103.749146">
<ele>579.805176</ele>
<time>2011-04-25T08:05:00Z</time>
<desc>lat.=22.180641, lon.=103.749146, Alt.=579.805176m. Speed=9.468000m/h.</desc>
<speed>2.630000</speed>
</trkpt>
<trkpt lat="22.180538" lon="103.749245">
<ele>579.805176</ele>
<time>2011-04-25T08:05:05Z</time>
<desc>lat.=22.180538, lon.=103.749245, Alt.=579.805176m. Speed=10.296000m/h.</desc>
<speed>2.860000</speed>
</trkpt>
<trkpt lat="22.180422" lon="103.749367">
<ele>578.648926</ele>
<time>2011-04-25T08:05:10Z</time>
<desc>lat.=22.180422, lon.=103.749367, Alt.=578.648926m. Speed=14.040000m/h.</desc>
<speed>3.900000</speed>
</trkpt>
<trkpt lat="22.180223" lon="103.749481">
<ele>578.461426</ele>
<time>2011-04-25T08:05:15Z</time>
<desc>lat.=22.180223, lon.=103.749481, Alt.=578.461426m. Speed=22.788000m/h.</desc>
<speed>6.330000</speed>
</trkpt>
<trkpt lat="22.179934" lon="103.749580">
<ele>576.648926</ele>
<time>2011-04-25T08:05:20Z</time>
<desc>lat.=22.179934, lon.=103.749580, Alt.=576.648926m. Speed=23.327999m/h.</desc>
<speed>6.480000</speed>
</trkpt>
<trkpt lat="22.179585" lon="103.749718">
<ele>572.102051</ele>
<time>2011-04-25T08:05:25Z</time>
<desc>lat.=22.179585, lon.=103.749718, Alt.=572.102051m. Speed=28.836000m/h.</desc>
<speed>8.010000</speed>
</trkpt>
<trkpt lat="22.179220" lon="103.749840">
<ele>568.477051</ele>
<time>2011-04-25T08:05:30Z</time>
<desc>lat.=22.179220, lon.=103.749840, Alt.=568.477051m. Speed=29.375999m/h.</desc>
<speed>8.160000</speed>
</trkpt>
<trkpt lat="22.178865" lon="103.749939">
<ele>566.148926</ele>
<time>2011-04-25T08:05:35Z</time>
<desc>lat.=22.178865, lon.=103.749939, Alt.=566.148926m. Speed=27.000000m/h.</desc>
<speed>7.500000</speed>
</trkpt>
<trkpt lat="22.178558" lon="103.750038">
<ele>564.164551</ele>
<time>2011-04-25T08:05:40Z</time>
<desc>lat.=22.178558, lon.=103.750038, Alt.=564.164551m. Speed=24.804001m/h.</desc>
<speed>6.890000</speed>
</trkpt>
<trkpt lat="22.178274" lon="103.750198">
<ele>563.805176</ele>
<time>2011-04-25T08:05:45Z</time>
<desc>lat.=22.178274, lon.=103.750198, Alt.=563.805176m. Speed=25.344000m/h.</desc>
<speed>7.040000</speed>
</trkpt>
<trkpt lat="22.178007" lon="103.750351">
<ele>565.664551</ele>
<time>2011-04-25T08:05:50Z</time>
<desc>lat.=22.178007, lon.=103.750351, Alt.=565.664551m. Speed=21.492001m/h.</desc>
<speed>5.970000</speed>
</trkpt>
<trkpt lat="22.177753" lon="103.750511">
<ele>566.289551</ele>
<time>2011-04-25T08:05:55Z</time>
<desc>lat.=22.177753, lon.=103.750511, Alt.=566.289551m. Speed=21.851999m/h.</desc>
<speed>6.070000</speed>
</trkpt>
<trkpt lat="22.177515" lon="103.750671">
<ele>565.945801</ele>
<time>2011-04-25T08:06:00Z</time>
<desc>lat.=22.177515, lon.=103.750671, Alt.=565.945801m. Speed=20.556000m/h.</desc>
<speed>5.710000</speed>
</trkpt>
<trkpt lat="22.177294" lon="103.750809">
<ele>565.742676</ele>
<time>2011-04-25T08:06:05Z</time>
<desc>lat.=22.177294, lon.=103.750809, Alt.=565.742676m. Speed=18.756001m/h.</desc>
<speed>5.210000</speed>
</trkpt>
<trkpt lat="22.177074" lon="103.750946">
<ele>565.773926</ele>
<time>2011-04-25T08:06:10Z</time>
<desc>lat.=22.177074, lon.=103.750946, Alt.=565.773926m. Speed=20.195999m/h.</desc>
<speed>5.610000</speed>
</trkpt>
<trkpt lat="22.176825" lon="103.751083">
<ele>565.430176</ele>
<time>2011-04-25T08:06:15Z</time>
<desc>lat.=22.176825, lon.=103.751083, Alt.=565.430176m. Speed=22.032000m/h.</desc>
<speed>6.120000</speed>
</trkpt>
<trkpt lat="22.176586" lon="103.751198">
<ele>566.930176</ele>
<time>2011-04-25T08:06:20Z</time>
<desc>lat.=22.176586, lon.=103.751198, Alt.=566.930176m. Speed=13.932000m/h.</desc>
<speed>3.870000</speed>
</trkpt>
<trkpt lat="22.176388" lon="103.751335">
<ele>569.430176</ele>
<time>2011-04-25T08:06:25Z</time>
<desc>lat.=22.176388, lon.=103.751335, Alt.=569.430176m. Speed=15.732000m/h.</desc>
<speed>4.370000</speed>
</trkpt>
<trkpt lat="22.176254" lon="103.751472">
<ele>569.648926</ele>
<time>2011-04-25T08:06:30Z</time>
<desc>lat.=22.176254, lon.=103.751472, Alt.=569.648926m. Speed=8.136000m/h.</desc>
<speed>2.260000</speed>
</trkpt>
<trkpt lat="22.176163" lon="103.751503">
<ele>570.383301</ele>
<time>2011-04-25T08:06:35Z</time>
<desc>lat.=22.176163, lon.=103.751503, Alt.=570.383301m. Speed=3.708000m/h.</desc>
<speed>1.030000</speed>
</trkpt>
<trkpt lat="22.176102" lon="103.751564">
<ele>571.398926</ele>
<time>2011-04-25T08:06:40Z</time>
<desc>lat.=22.176102, lon.=103.751564, Alt.=571.398926m. Speed=5.076000m/h.</desc>
<speed>1.410000</speed>
</trkpt>
<trkpt lat="22.176020" lon="103.751625">
<ele>571.039551</ele>
<time>2011-04-25T08:06:45Z</time>
<desc>lat.=22.176020, lon.=103.751625, Alt.=571.039551m. Speed=6.876000m/h.</desc>
<speed>1.910000</speed>
</trkpt>
<trkpt lat="22.175951" lon="103.751678">
<ele>569.836426</ele>
<time>2011-04-25T08:06:50Z</time>
<desc>lat.=22.175951, lon.=103.751678, Alt.=569.836426m. Speed=7.920000m/h.</desc>
<speed>2.200000</speed>
</trkpt>
<trkpt lat="22.175863" lon="103.751747">
<ele>569.992676</ele>
<time>2011-04-25T08:06:55Z</time>
<desc>lat.=22.175863, lon.=103.751747, Alt.=569.992676m. Speed=5.112000m/h.</desc>
<speed>1.420000</speed>
</trkpt>
<trkpt lat="22.175774" lon="103.751823">
<ele>570.180176</ele>
<time>2011-04-25T08:07:00Z</time>
<desc>lat.=22.175774, lon.=103.751823, Alt.=570.180176m. Speed=7.740000m/h.</desc>
<speed>2.150000</speed>
</trkpt>
<trkpt lat="22.175684" lon="103.751915">
<ele>569.711426</ele>
<time>2011-04-25T08:07:05Z</time>
<desc>lat.=22.175684, lon.=103.751915, Alt.=569.711426m. Speed=8.352000m/h.</desc>
<speed>2.320000</speed>
</trkpt>
<trkpt lat="22.175575" lon="103.752014">
<ele>569.102051</ele>
<time>2011-04-25T08:07:10Z</time>
<desc>lat.=22.175575, lon.=103.752014, Alt.=569.102051m. Speed=8.748000m/h.</desc>
<speed>2.430000</speed>
</trkpt>
<trkpt lat="22.175463" lon="103.752098">
<ele>568.227051</ele>
<time>2011-04-25T08:07:15Z</time>
<desc>lat.=22.175463, lon.=103.752098, Alt.=568.227051m. Speed=9.720000m/h.</desc>
<speed>2.700000</speed>
</trkpt>
<trkpt lat="22.175381" lon="103.752159">
<ele>568.117676</ele>
<time>2011-04-25T08:07:20Z</time>
<desc>lat.=22.175381, lon.=103.752159, Alt.=568.117676m. Speed=6.480000m/h.</desc>
<speed>1.800000</speed>
</trkpt>
<trkpt lat="22.175320" lon="103.752213">
<ele>567.539551</ele>
<time>2011-04-25T08:07:25Z</time>
<desc>lat.=22.175320, lon.=103.752213, Alt.=567.539551m. Speed=3.024000m/h.</desc>
<speed>0.840000</speed>
</trkpt>
<trkpt lat="22.175297" lon="103.752243">
<ele>566.117676</ele>
<time>2011-04-25T08:07:30Z</time>
<desc>lat.=22.175297, lon.=103.752243, Alt.=566.117676m. Speed=1.080000m/h.</desc>
<speed>0.300000</speed>
</trkpt>
<trkpt lat="22.175285" lon="103.752251">
<ele>565.602051</ele>
<time>2011-04-25T08:07:35Z</time>
<desc>lat.=22.175285, lon.=103.752251, Alt.=565.602051m. Speed=0.108000m/h.</desc>
<speed>0.030000</speed>
</trkpt>
<trkpt lat="22.175289" lon="103.752243">
<ele>565.414551</ele>
<time>2011-04-25T08:07:40Z</time>
<desc>lat.=22.175289, lon.=103.752243, Alt.=565.414551m. Speed=0.396000m/h.</desc>
<speed>0.110000</speed>
</trkpt>
<trkpt lat="22.175293" lon="103.752251">
<ele>565.398926</ele>
<time>2011-04-25T08:07:45Z</time>
<desc>lat.=22.175293, lon.=103.752251, Alt.=565.398926m. Speed=0.648000m/h.</desc>
<speed>0.180000</speed>
</trkpt>
<trkpt lat="22.175291" lon="103.752258">
<ele>565.461426</ele>
<time>2011-04-25T08:07:50Z</time>
<desc>lat.=22.175291, lon.=103.752258, Alt.=565.461426m. Speed=0.540000m/h.</desc>
<speed>0.150000</speed>
</trkpt>
<trkpt lat="22.175287" lon="103.752266">
<ele>565.508301</ele>
<time>2011-04-25T08:07:55Z</time>
<desc>lat.=22.175287, lon.=103.752266, Alt.=565.508301m. Speed=0.396000m/h.</desc>
<speed>0.110000</speed>
</trkpt>
<trkpt lat="22.175285" lon="103.752274">
<ele>565.477051</ele>
<time>2011-04-25T08:08:00Z</time>
<desc>lat.=22.175285, lon.=103.752274, Alt.=565.477051m. Speed=0.396000m/h.</desc>
<speed>0.110000</speed>
</trkpt>
<trkpt lat="22.175287" lon="103.752274">
<ele>565.492676</ele>
<time>2011-04-25T08:08:05Z</time>
<desc>lat.=22.175287, lon.=103.752274, Alt.=565.492676m. Speed=0.504000m/h.</desc>
<speed>0.140000</speed>
</trkpt>
<trkpt lat="22.175289" lon="103.752274">
<ele>565.508301</ele>
<time>2011-04-25T08:08:10Z</time>
<desc>lat.=22.175289, lon.=103.752274, Alt.=565.508301m. Speed=0.072000m/h.</desc>
<speed>0.020000</speed>
</trkpt>
<trkpt lat="22.175289" lon="103.752266">
<ele>565.539551</ele>
<time>2011-04-25T08:08:15Z</time>
<desc>lat.=22.175289, lon.=103.752266, Alt.=565.539551m. Speed=0.468000m/h.</desc>
<speed>0.130000</speed>
</trkpt>
<trkpt lat="22.175289" lon="103.752258">
<ele>565.555176</ele>
<time>2011-04-25T08:08:20Z</time>
<desc>lat.=22.175289, lon.=103.752258, Alt.=565.555176m. Speed=0.540000m/h.</desc>
<speed>0.150000</speed>
</trkpt>
<trkpt lat="22.175295" lon="103.752258">
<ele>565.570801</ele>
<time>2011-04-25T08:08:25Z</time>
<desc>lat.=22.175295, lon.=103.752258, Alt.=565.570801m. Speed=0.648000m/h.</desc>
<speed>0.180000</speed>
</trkpt>
<trkpt lat="22.175291" lon="103.752251">
<ele>565.602051</ele>
<time>2011-04-25T08:08:30Z</time>
<desc>lat.=22.175291, lon.=103.752251, Alt.=565.602051m. Speed=0.720000m/h.</desc>
<speed>0.200000</speed>
</trkpt>
<trkpt lat="22.175283" lon="103.752258">
<ele>565.648926</ele>
<time>2011-04-25T08:08:35Z</time>
<desc>lat.=22.175283, lon.=103.752258, Alt.=565.648926m. Speed=0.936000m/h.</desc>
<speed>0.260000</speed>
</trkpt>
<trkpt lat="22.175274" lon="103.752266">
<ele>565.695801</ele>
<time>2011-04-25T08:08:40Z</time>
<desc>lat.=22.175274, lon.=103.752266, Alt.=565.695801m. Speed=0.972000m/h.</desc>
<speed>0.270000</speed>
</trkpt>
<trkpt lat="22.175274" lon="103.752266">
<ele>565.758301</ele>
<time>2011-04-25T08:08:45Z</time>
<desc>lat.=22.175274, lon.=103.752266, Alt.=565.758301m. Speed=0.216000m/h.</desc>
<speed>0.060000</speed>
</trkpt>
<trkpt lat="22.175274" lon="103.752266">
<ele>565.820801</ele>
<time>2011-04-25T08:08:50Z</time>
<desc>lat.=22.175274, lon.=103.752266, Alt.=565.820801m. Speed=0.180000m/h.</desc>
<speed>0.050000</speed>
</trkpt>
<trkpt lat="22.175274" lon="103.752266">
<ele>565.945801</ele>
<time>2011-04-25T08:08:55Z</time>
<desc>lat.=22.175274, lon.=103.752266, Alt.=565.945801m. Speed=0.108000m/h.</desc>
<speed>0.030000</speed>
</trkpt>
<trkpt lat="22.175272" lon="103.752266">
<ele>566.102051</ele>
<time>2011-04-25T08:09:00Z</time>
<desc>lat.=22.175272, lon.=103.752266, Alt.=566.102051m. Speed=0.000000m/h.</desc>
<speed>0.000000</speed>
</trkpt>
<trkpt lat="22.175272" lon="103.752266">
<ele>566.211426</ele>
<time>2011-04-25T08:09:05Z</time>
<desc>lat.=22.175272, lon.=103.752266, Alt.=566.211426m. Speed=0.036000m/h.</desc>
<speed>0.010000</speed>
</trkpt>
<trkpt lat="22.175272" lon="103.752266">
<ele>566.273926</ele>
<time>2011-04-25T08:09:10Z</time>
<desc>lat.=22.175272, lon.=103.752266, Alt.=566.273926m. Speed=0.036000m/h.</desc>
<speed>0.010000</speed>
</trkpt>
<trkpt lat="22.175272" lon="103.752266">
<ele>566.352051</ele>
<time>2011-04-25T08:09:15Z</time>
<desc>lat.=22.175272, lon.=103.752266, Alt.=566.352051m. Speed=0.036000m/h.</desc>
<speed>0.010000</speed>
</trkpt>
<trkpt lat="22.175272" lon="103.752266">
<ele>566.414551</ele>
<time>2011-04-25T08:09:20Z</time>
<desc>lat.=22.175272, lon.=103.752266, Alt.=566.414551m. Speed=0.000000m/h.</desc>
<speed>0.000000</speed>
</trkpt>
<trkpt lat="22.175272" lon="103.752266">
<ele>566.461426</ele>
<time>2011-04-25T08:09:25Z</time>
<desc>lat.=22.175272, lon.=103.752266, Alt.=566.461426m. Speed=0.000000m/h.</desc>
<speed>0.000000</speed>
</trkpt>
<trkpt lat="22.175272" lon="103.752266">
<ele>566.523926</ele>
<time>2011-04-25T08:09:30Z</time>
<desc>lat.=22.175272, lon.=103.752266, Alt.=566.523926m. Speed=0.072000m/h.</desc>
<speed>0.020000</speed>
</trkpt>
<trkpt lat="22.175272" lon="103.752266">
<ele>566.617676</ele>
<time>2011-04-25T08:09:35Z</time>
<desc>lat.=22.175272, lon.=103.752266, Alt.=566.617676m. Speed=0.000000m/h.</desc>
<speed>0.000000</speed>
</trkpt>
<trkpt lat="22.175274" lon="103.752266">
<ele>566.648926</ele>
<time>2011-04-25T08:09:40Z</time>
<desc>lat.=22.175274, lon.=103.752266, Alt.=566.648926m. Speed=0.000000m/h.</desc>
<speed>0.000000</speed>
</trkpt>
<trkpt lat="22.175274" lon="103.752266">
<ele>566.664551</ele>
<time>2011-04-25T08:09:45Z</time>
<desc>lat.=22.175274, lon.=103.752266, Alt.=566.664551m. Speed=0.000000m/h.</desc>
<speed>0.000000</speed>
</trkpt>
<trkpt lat="22.175274" lon="103.752266">
<ele>566.680176</ele>
<time>2011-04-25T08:09:50Z</time>
<desc>lat.=22.175274, lon.=103.752266, Alt.=566.680176m. Speed=0.036000m/h.</desc>
<speed>0.010000</speed>
</trkpt>
<trkpt lat="22.175274" lon="103.752266">
<ele>566.695801</ele>
<time>2011-04-25T08:09:55Z</time>
<desc>lat.=22.175274, lon.=103.752266, Alt.=566.695801m. Speed=0.180000m/h.</desc>
<speed>0.050000</speed>
</trkpt>
<trkpt lat="22.175278" lon="103.752266">
<ele>566.727051</ele>
<time>2011-04-25T08:10:00Z</time>
<desc>lat.=22.175278, lon.=103.752266, Alt.=566.727051m. Speed=0.108000m/h.</desc>
<speed>0.030000</speed>
</trkpt>
<trkpt lat="22.175278" lon="103.752266">
<ele>566.773926</ele>
<time>2011-04-25T08:10:05Z</time>
<desc>lat.=22.175278, lon.=103.752266, Alt.=566.773926m. Speed=0.072000m/h.</desc>
<speed>0.020000</speed>
</trkpt>
<trkpt lat="22.175278" lon="103.752266">
<ele>566.852051</ele>
<time>2011-04-25T08:10:10Z</time>
<desc>lat.=22.175278, lon.=103.752266, Alt.=566.852051m. Speed=0.216000m/h.</desc>
<speed>0.060000</speed>
</trkpt>
<trkpt lat="22.175274" lon="103.752274">
<ele>566.945801</ele>
<time>2011-04-25T08:10:15Z</time>
<desc>lat.=22.175274, lon.=103.752274, Alt.=566.945801m. Speed=0.468000m/h.</desc>
<speed>0.130000</speed>
</trkpt>
<trkpt lat="22.175268" lon="103.752274">
<ele>567.070801</ele>
<time>2011-04-25T08:10:20Z</time>
<desc>lat.=22.175268, lon.=103.752274, Alt.=567.070801m. Speed=0.648000m/h.</desc>
<speed>0.180000</speed>
</trkpt>
<trkpt lat="22.175259" lon="103.752274">
<ele>567.227051</ele>
<time>2011-04-25T08:10:25Z</time>
<desc>lat.=22.175259, lon.=103.752274, Alt.=567.227051m. Speed=0.792000m/h.</desc>
<speed>0.220000</speed>
</trkpt>
<trkpt lat="22.175247" lon="103.752274">
<ele>567.430176</ele>
<time>2011-04-25T08:10:30Z</time>
<desc>lat.=22.175247, lon.=103.752274, Alt.=567.430176m. Speed=0.972000m/h.</desc>
<speed>0.270000</speed>
</trkpt>
<trkpt lat="22.175234" lon="103.752266">
<ele>567.648926</ele>
<time>2011-04-25T08:10:35Z</time>
<desc>lat.=22.175234, lon.=103.752266, Alt.=567.648926m. Speed=1.116000m/h.</desc>
<speed>0.310000</speed>
</trkpt>
<trkpt lat="22.175217" lon="103.752243">
<ele>568.086426</ele>
<time>2011-04-25T08:10:40Z</time>
<desc>lat.=22.175217, lon.=103.752243, Alt.=568.086426m. Speed=1.116000m/h.</desc>
<speed>0.310000</speed>
</trkpt>
<trkpt lat="22.175215" lon="103.752220">
<ele>568.352051</ele>
<time>2011-04-25T08:10:45Z</time>
<desc>lat.=22.175215, lon.=103.752220, Alt.=568.352051m. Speed=0.720000m/h.</desc>
<speed>0.200000</speed>
</trkpt>
<trkpt lat="22.175211" lon="103.752213">
<ele>568.586426</ele>
<time>2011-04-25T08:10:50Z</time>
<desc>lat.=22.175211, lon.=103.752213, Alt.=568.586426m. Speed=0.396000m/h.</desc>
<speed>0.110000</speed>
</trkpt>
<trkpt lat="22.175207" lon="103.752213">
<ele>568.820801</ele>
<time>2011-04-25T08:10:55Z</time>
<desc>lat.=22.175207, lon.=103.752213, Alt.=568.820801m. Speed=0.108000m/h.</desc>
<speed>0.030000</speed>
</trkpt>
<trkpt lat="22.175207" lon="103.752213">
<ele>569.023926</ele>
<time>2011-04-25T08:11:00Z</time>
<desc>lat.=22.175207, lon.=103.752213, Alt.=569.023926m. Speed=0.000000m/h.</desc>
<speed>0.000000</speed>
</trkpt>
<trkpt lat="22.175207" lon="103.752213">
<ele>569.211426</ele>
<time>2011-04-25T08:11:05Z</time>
<desc>lat.=22.175207, lon.=103.752213, Alt.=569.211426m. Speed=0.036000m/h.</desc>
<speed>0.010000</speed>
</trkpt>
<trkpt lat="22.175205" lon="103.752213">
<ele>569.336426</ele>
<time>2011-04-25T08:11:10Z</time>
<desc>lat.=22.175205, lon.=103.752213, Alt.=569.336426m. Speed=0.000000m/h.</desc>
<speed>0.000000</speed>
</trkpt>
<trkpt lat="22.175205" lon="103.752213">
<ele>569.461426</ele>
<time>2011-04-25T08:11:15Z</time>
<desc>lat.=22.175205, lon.=103.752213, Alt.=569.461426m. Speed=0.396000m/h.</desc>
<speed>0.110000</speed>
</trkpt>
<trkpt lat="22.175182" lon="103.752228">
<ele>569.570801</ele>
<time>2011-04-25T08:11:20Z</time>
<desc>lat.=22.175182, lon.=103.752228, Alt.=569.570801m. Speed=1.980000m/h.</desc>
<speed>0.550000</speed>
</trkpt>
<trkpt lat="22.175108" lon="103.752296">
<ele>570.023926</ele>
<time>2011-04-25T08:11:25Z</time>
<desc>lat.=22.175108, lon.=103.752296, Alt.=570.023926m. Speed=4.932000m/h.</desc>
<speed>1.370000</speed>
</trkpt>
<trkpt lat="22.175053" lon="103.752373">
<ele>571.336426</ele>
<time>2011-04-25T08:11:30Z</time>
<desc>lat.=22.175053, lon.=103.752373, Alt.=571.336426m. Speed=5.472000m/h.</desc>
<speed>1.520000</speed>
</trkpt>
<trkpt lat="22.174978" lon="103.752449">
<ele>574.602051</ele>
<time>2011-04-25T08:11:35Z</time>
<desc>lat.=22.174978, lon.=103.752449, Alt.=574.602051m. Speed=5.112000m/h.</desc>
<speed>1.420000</speed>
</trkpt>
<trkpt lat="22.174900" lon="103.752548">
<ele>576.055176</ele>
<time>2011-04-25T08:11:40Z</time>
<desc>lat.=22.174900, lon.=103.752548, Alt.=576.055176m. Speed=7.272000m/h.</desc>
<speed>2.020000</speed>
</trkpt>
<trkpt lat="22.174818" lon="103.752617">
<ele>575.461426</ele>
<time>2011-04-25T08:11:45Z</time>
<desc>lat.=22.174818, lon.=103.752617, Alt.=575.461426m. Speed=5.832000m/h.</desc>
<speed>1.620000</speed>
</trkpt>
<trkpt lat="22.174740" lon="103.752693">
<ele>577.367676</ele>
<time>2011-04-25T08:11:50Z</time>
<desc>lat.=22.174740, lon.=103.752693, Alt.=577.367676m. Speed=6.624000m/h.</desc>
<speed>1.840000</speed>
</trkpt>
<trkpt lat="22.174677" lon="103.752754">
<ele>578.836426</ele>
<time>2011-04-25T08:11:55Z</time>
<desc>lat.=22.174677, lon.=103.752754, Alt.=578.836426m. Speed=5.904000m/h.</desc>
<speed>1.640000</speed>
</trkpt>
<trkpt lat="22.174603" lon="103.752823">
<ele>581.070801</ele>
<time>2011-04-25T08:12:00Z</time>
<desc>lat.=22.174603, lon.=103.752823, Alt.=581.070801m. Speed=5.904000m/h.</desc>
<speed>1.640000</speed>
</trkpt>
<trkpt lat="22.174553" lon="103.752922">
<ele>581.133301</ele>
<time>2011-04-25T08:12:05Z</time>
<desc>lat.=22.174553, lon.=103.752922, Alt.=581.133301m. Speed=1.188000m/h.</desc>
<speed>0.330000</speed>
</trkpt>
<trkpt lat="22.174562" lon="103.752937">
<ele>582.336426</ele>
<time>2011-04-25T08:12:10Z</time>
<desc>lat.=22.174562, lon.=103.752937, Alt.=582.336426m. Speed=1.800000m/h.</desc>
<speed>0.500000</speed>
</trkpt>
<trkpt lat="22.174582" lon="103.752960">
<ele>583.367676</ele>
<time>2011-04-25T08:12:15Z</time>
<desc>lat.=22.174582, lon.=103.752960, Alt.=583.367676m. Speed=1.728000m/h.</desc>
<speed>0.480000</speed>
</trkpt>
<trkpt lat="22.174585" lon="103.752953">
<ele>584.711426</ele>
<time>2011-04-25T08:12:20Z</time>
<desc>lat.=22.174585, lon.=103.752953, Alt.=584.711426m. Speed=0.972000m/h.</desc>
<speed>0.270000</speed>
</trkpt>
<trkpt lat="22.174597" lon="103.752945">
<ele>585.492676</ele>
<time>2011-04-25T08:12:25Z</time>
<desc>lat.=22.174597, lon.=103.752945, Alt.=585.492676m. Speed=0.972000m/h.</desc>
<speed>0.270000</speed>
</trkpt>
<trkpt lat="22.174604" lon="103.752945">
<ele>586.289551</ele>
<time>2011-04-25T08:12:30Z</time>
<desc>lat.=22.174604, lon.=103.752945, Alt.=586.289551m. Speed=0.540000m/h.</desc>
<speed>0.150000</speed>
</trkpt>
<trkpt lat="22.174610" lon="103.752945">
<ele>587.023926</ele>
<time>2011-04-25T08:12:35Z</time>
<desc>lat.=22.174610, lon.=103.752945, Alt.=587.023926m. Speed=0.144000m/h.</desc>
<speed>0.040000</speed>
</trkpt>
<trkpt lat="22.174608" lon="103.752945">
<ele>587.680176</ele>
<time>2011-04-25T08:12:40Z</time>
<desc>lat.=22.174608, lon.=103.752945, Alt.=587.680176m. Speed=0.108000m/h.</desc>
<speed>0.030000</speed>
</trkpt>
<trkpt lat="22.174604" lon="103.752945">
<ele>588.320801</ele>
<time>2011-04-25T08:12:45Z</time>
<desc>lat.=22.174604, lon.=103.752945, Alt.=588.320801m. Speed=0.324000m/h.</desc>
<speed>0.090000</speed>
</trkpt>
<trkpt lat="22.174601" lon="103.752945">
<ele>588.883301</ele>
<time>2011-04-25T08:12:50Z</time>
<desc>lat.=22.174601, lon.=103.752945, Alt.=588.883301m. Speed=0.648000m/h.</desc>
<speed>0.180000</speed>
</trkpt>
<trkpt lat="22.174595" lon="103.752953">
<ele>589.430176</ele>
<time>2011-04-25T08:12:55Z</time>
<desc>lat.=22.174595, lon.=103.752953, Alt.=589.430176m. Speed=0.648000m/h.</desc>
<speed>0.180000</speed>
</trkpt>
<trkpt lat="22.174593" lon="103.752960">
<ele>589.977051</ele>
<time>2011-04-25T08:13:00Z</time>
<desc>lat.=22.174593, lon.=103.752960, Alt.=589.977051m. Speed=0.288000m/h.</desc>
<speed>0.080000</speed>
</trkpt>
<trkpt lat="22.174595" lon="103.752960">
<ele>590.492676</ele>
<time>2011-04-25T08:13:05Z</time>
<desc>lat.=22.174595, lon.=103.752960, Alt.=590.492676m. Speed=0.108000m/h.</desc>
<speed>0.030000</speed>
</trkpt>
<trkpt lat="22.174591" lon="103.752968">
<ele>590.930176</ele>
<time>2011-04-25T08:13:10Z</time>
<desc>lat.=22.174591, lon.=103.752968, Alt.=590.930176m. Speed=1.620000m/h.</desc>
<speed>0.450000</speed>
</trkpt>
<trkpt lat="22.174547" lon="103.753014">
<ele>590.617676</ele>
<time>2011-04-25T08:13:15Z</time>
<desc>lat.=22.174547, lon.=103.753014, Alt.=590.617676m. Speed=6.696000m/h.</desc>
<speed>1.860000</speed>
</trkpt>
<trkpt lat="22.174507" lon="103.753067">
<ele>590.758301</ele>
<time>2011-04-25T08:13:20Z</time>
<desc>lat.=22.174507, lon.=103.753067, Alt.=590.758301m. Speed=1.404000m/h.</desc>
<speed>0.390000</speed>
</trkpt>
<trkpt lat="22.174479" lon="103.753090">
<ele>588.914551</ele>
<time>2011-04-25T08:13:25Z</time>
<desc>lat.=22.174479, lon.=103.753090, Alt.=588.914551m. Speed=0.324000m/h.</desc>
<speed>0.090000</speed>
</trkpt>
<trkpt lat="22.174475" lon="103.753098">
<ele>589.023926</ele>
<time>2011-04-25T08:13:30Z</time>
<desc>lat.=22.174475, lon.=103.753098, Alt.=589.023926m. Speed=0.360000m/h.</desc>
<speed>0.100000</speed>
</trkpt>
<trkpt lat="22.174475" lon="103.753105">
<ele>589.148926</ele>
<time>2011-04-25T08:13:35Z</time>
<desc>lat.=22.174475, lon.=103.753105, Alt.=589.148926m. Speed=0.144000m/h.</desc>
<speed>0.040000</speed>
</trkpt>
<trkpt lat="22.174473" lon="103.753105">
<ele>589.242676</ele>
<time>2011-04-25T08:13:40Z</time>
<desc>lat.=22.174473, lon.=103.753105, Alt.=589.242676m. Speed=0.144000m/h.</desc>
<speed>0.040000</speed>
</trkpt>
<trkpt lat="22.174471" lon="103.753105">
<ele>589.258301</ele>
<time>2011-04-25T08:13:45Z</time>
<desc>lat.=22.174471, lon.=103.753105, Alt.=589.258301m. Speed=0.612000m/h.</desc>
<speed>0.170000</speed>
</trkpt>
<trkpt lat="22.174467" lon="103.753113">
<ele>589.273926</ele>
<time>2011-04-25T08:13:50Z</time>
<desc>lat.=22.174467, lon.=103.753113, Alt.=589.273926m. Speed=0.648000m/h.</desc>
<speed>0.180000</speed>
</trkpt>
<trkpt lat="22.174465" lon="103.753120">
<ele>589.305176</ele>
<time>2011-04-25T08:13:55Z</time>
<desc>lat.=22.174465, lon.=103.753120, Alt.=589.305176m. Speed=0.216000m/h.</desc>
<speed>0.060000</speed>
</trkpt>
<trkpt lat="22.174463" lon="103.753120">
<ele>589.383301</ele>
<time>2011-04-25T08:14:00Z</time>
<desc>lat.=22.174463, lon.=103.753120, Alt.=589.383301m. Speed=0.144000m/h.</desc>
<speed>0.040000</speed>
</trkpt>
<trkpt lat="22.174463" lon="103.753128">
<ele>589.461426</ele>
<time>2011-04-25T08:14:05Z</time>
<desc>lat.=22.174463, lon.=103.753128, Alt.=589.461426m. Speed=0.180000m/h.</desc>
<speed>0.050000</speed>
</trkpt>
<trkpt lat="22.174461" lon="103.753128">
<ele>589.508301</ele>
<time>2011-04-25T08:14:10Z</time>
<desc>lat.=22.174461, lon.=103.753128, Alt.=589.508301m. Speed=0.072000m/h.</desc>
<speed>0.020000</speed>
</trkpt>
<trkpt lat="22.174461" lon="103.753128">
<ele>589.492676</ele>
<time>2011-04-25T08:14:15Z</time>
<desc>lat.=22.174461, lon.=103.753128, Alt.=589.492676m. Speed=0.036000m/h.</desc>
<speed>0.010000</speed>
</trkpt>
<trkpt lat="22.174461" lon="103.753128">
<ele>589.492676</ele>
<time>2011-04-25T08:14:20Z</time>
<desc>lat.=22.174461, lon.=103.753128, Alt.=589.492676m. Speed=0.072000m/h.</desc>
<speed>0.020000</speed>
</trkpt>
<trkpt lat="22.174459" lon="103.753128">
<ele>589.492676</ele>
<time>2011-04-25T08:14:25Z</time>
<desc>lat.=22.174459, lon.=103.753128, Alt.=589.492676m. Speed=0.000000m/h.</desc>
<speed>0.000000</speed>
</trkpt>
<trkpt lat="22.174459" lon="103.753128">
<ele>589.492676</ele>
<time>2011-04-25T08:14:30Z</time>
<desc>lat.=22.174459, lon.=103.753128, Alt.=589.492676m. Speed=0.036000m/h.</desc>
<speed>0.010000</speed>
</trkpt>
<trkpt lat="22.174459" lon="103.753128">
<ele>589.508301</ele>
<time>2011-04-25T08:14:35Z</time>
<desc>lat.=22.174459, lon.=103.753128, Alt.=589.508301m. Speed=0.036000m/h.</desc>
<speed>0.010000</speed>
</trkpt>
<trkpt lat="22.174459" lon="103.753128">
<ele>589.492676</ele>
<time>2011-04-25T08:14:40Z</time>
<desc>lat.=22.174459, lon.=103.753128, Alt.=589.492676m. Speed=0.036000m/h.</desc>
<speed>0.010000</speed>
</trkpt>
<trkpt lat="22.174458" lon="103.753128">
<ele>589.492676</ele>
<time>2011-04-25T08:14:45Z</time>
<desc>lat.=22.174458, lon.=103.753128, Alt.=589.492676m. Speed=0.036000m/h.</desc>
<speed>0.010000</speed>
</trkpt>
<trkpt lat="22.174458" lon="103.753128">
<ele>589.477051</ele>
<time>2011-04-25T08:14:50Z</time>
<desc>lat.=22.174458, lon.=103.753128, Alt.=589.477051m. Speed=0.036000m/h.</desc>
<speed>0.010000</speed>
</trkpt>
<trkpt lat="22.174458" lon="103.753128">
<ele>589.430176</ele>
<time>2011-04-25T08:14:55Z</time>
<desc>lat.=22.174458, lon.=103.753128, Alt.=589.430176m. Speed=0.144000m/h.</desc>
<speed>0.040000</speed>
</trkpt>
<trkpt lat="22.174431" lon="103.753128">
<ele>589.273926</ele>
<time>2011-04-25T08:15:00Z</time>
<desc>lat.=22.174431, lon.=103.753128, Alt.=589.273926m. Speed=3.564000m/h.</desc>
<speed>0.990000</speed>
</trkpt>
<trkpt lat="22.174402" lon="103.753136">
<ele>589.602051</ele>
<time>2011-04-25T08:15:05Z</time>
<desc>lat.=22.174402, lon.=103.753136, Alt.=589.602051m. Speed=0.144000m/h.</desc>
<speed>0.040000</speed>
</trkpt>
<trkpt lat="22.174402" lon="103.753136">
<ele>589.586426</ele>
<time>2011-04-25T08:15:10Z</time>
<desc>lat.=22.174402, lon.=103.753136, Alt.=589.586426m. Speed=0.612000m/h.</desc>
<speed>0.170000</speed>
</trkpt>
<trkpt lat="22.174383" lon="103.753159">
<ele>589.117676</ele>
<time>2011-04-25T08:15:15Z</time>
<desc>lat.=22.174383, lon.=103.753159, Alt.=589.117676m. Speed=1.656000m/h.</desc>
<speed>0.460000</speed>
</trkpt>
<trkpt lat="22.174316" lon="103.753159">
<ele>587.023926</ele>
<time>2011-04-25T08:15:20Z</time>
<desc>lat.=22.174316, lon.=103.753159, Alt.=587.023926m. Speed=8.388000m/h.</desc>
<speed>2.330000</speed>
</trkpt>
<trkpt lat="22.174219" lon="103.753220">
<ele>585.461426</ele>
<time>2011-04-25T08:15:25Z</time>
<desc>lat.=22.174219, lon.=103.753220, Alt.=585.461426m. Speed=10.512000m/h.</desc>
<speed>2.920000</speed>
</trkpt>
<trkpt lat="22.174105" lon="103.753319">
<ele>585.211426</ele>
<time>2011-04-25T08:15:30Z</time>
<desc>lat.=22.174105, lon.=103.753319, Alt.=585.211426m. Speed=9.468000m/h.</desc>
<speed>2.630000</speed>
</trkpt>
<trkpt lat="22.173985" lon="103.753395">
<ele>586.008301</ele>
<time>2011-04-25T08:15:35Z</time>
<desc>lat.=22.173985, lon.=103.753395, Alt.=586.008301m. Speed=8.172000m/h.</desc>
<speed>2.270000</speed>
</trkpt>
<trkpt lat="22.173903" lon="103.753448">
<ele>586.258301</ele>
<time>2011-04-25T08:15:40Z</time>
<desc>lat.=22.173903, lon.=103.753448, Alt.=586.258301m. Speed=10.908000m/h.</desc>
<speed>3.030000</speed>
</trkpt>
<trkpt lat="22.173792" lon="103.753532">
<ele>586.633301</ele>
<time>2011-04-25T08:15:45Z</time>
<desc>lat.=22.173792, lon.=103.753532, Alt.=586.633301m. Speed=10.224000m/h.</desc>
<speed>2.840000</speed>
</trkpt>
<trkpt lat="22.173695" lon="103.753601">
<ele>587.805176</ele>
<time>2011-04-25T08:15:50Z</time>
<desc>lat.=22.173695, lon.=103.753601, Alt.=587.805176m. Speed=8.712000m/h.</desc>
<speed>2.420000</speed>
</trkpt>
<trkpt lat="22.173603" lon="103.753685">
<ele>587.820801</ele>
<time>2011-04-25T08:15:55Z</time>
<desc>lat.=22.173603, lon.=103.753685, Alt.=587.820801m. Speed=7.560000m/h.</desc>
<speed>2.100000</speed>
</trkpt>
<trkpt lat="22.173473" lon="103.753784">
<ele>585.617676</ele>
<time>2011-04-25T08:16:00Z</time>
<desc>lat.=22.173473, lon.=103.753784, Alt.=585.617676m. Speed=10.548000m/h.</desc>
<speed>2.930000</speed>
</trkpt>
<trkpt lat="22.173323" lon="103.753891">
<ele>584.320801</ele>
<time>2011-04-25T08:16:05Z</time>
<desc>lat.=22.173323, lon.=103.753891, Alt.=584.320801m. Speed=10.800000m/h.</desc>
<speed>3.000000</speed>
</trkpt>
<trkpt lat="22.173168" lon="103.754021">
<ele>584.008301</ele>
<time>2011-04-25T08:16:10Z</time>
<desc>lat.=22.173168, lon.=103.754021, Alt.=584.008301m. Speed=11.664000m/h.</desc>
<speed>3.240000</speed>
</trkpt>
<trkpt lat="22.173044" lon="103.754135">
<ele>584.586426</ele>
<time>2011-04-25T08:16:15Z</time>
<desc>lat.=22.173044, lon.=103.754135, Alt.=584.586426m. Speed=11.556000m/h.</desc>
<speed>3.210000</speed>
</trkpt>
<trkpt lat="22.172945" lon="103.754257">
<ele>583.633301</ele>
<time>2011-04-25T08:16:20Z</time>
<desc>lat.=22.172945, lon.=103.754257, Alt.=583.633301m. Speed=8.100000m/h.</desc>
<speed>2.250000</speed>
</trkpt>
<trkpt lat="22.172905" lon="103.754311">
<ele>583.820801</ele>
<time>2011-04-25T08:16:25Z</time>
<desc>lat.=22.172905, lon.=103.754311, Alt.=583.820801m. Speed=1.692000m/h.</desc>
<speed>0.470000</speed>
</trkpt>
<trkpt lat="22.172955" lon="103.754333">
<ele>584.586426</ele>
<time>2011-04-25T08:16:30Z</time>
<desc>lat.=22.172955, lon.=103.754333, Alt.=584.586426m. Speed=5.508000m/h.</desc>
<speed>1.530000</speed>
</trkpt>
<trkpt lat="22.172998" lon="103.754341">
<ele>586.430176</ele>
<time>2011-04-25T08:16:35Z</time>
<desc>lat.=22.172998, lon.=103.754341, Alt.=586.430176m. Speed=1.188000m/h.</desc>
<speed>0.330000</speed>
</trkpt>
<trkpt lat="22.173002" lon="103.754341">
<ele>587.664551</ele>
<time>2011-04-25T08:16:40Z</time>
<desc>lat.=22.173002, lon.=103.754341, Alt.=587.664551m. Speed=0.360000m/h.</desc>
<speed>0.100000</speed>
</trkpt>
<trkpt lat="22.173004" lon="103.754349">
<ele>588.242676</ele>
<time>2011-04-25T08:16:45Z</time>
<desc>lat.=22.173004, lon.=103.754349, Alt.=588.242676m. Speed=0.468000m/h.</desc>
<speed>0.130000</speed>
</trkpt>
<trkpt lat="22.173006" lon="103.754349">
<ele>588.383301</ele>
<time>2011-04-25T08:16:50Z</time>
<desc>lat.=22.173006, lon.=103.754349, Alt.=588.383301m. Speed=0.144000m/h.</desc>
<speed>0.040000</speed>
</trkpt>
<trkpt lat="22.173004" lon="103.754349">
<ele>588.430176</ele>
<time>2011-04-25T08:16:55Z</time>
<desc>lat.=22.173004, lon.=103.754349, Alt.=588.430176m. Speed=0.324000m/h.</desc>
<speed>0.090000</speed>
</trkpt>
<trkpt lat="22.173002" lon="103.754349">
<ele>588.445801</ele>
<time>2011-04-25T08:17:00Z</time>
<desc>lat.=22.173002, lon.=103.754349, Alt.=588.445801m. Speed=0.072000m/h.</desc>
<speed>0.020000</speed>
</trkpt>
<trkpt lat="22.173002" lon="103.754349">
<ele>588.445801</ele>
<time>2011-04-25T08:17:05Z</time>
<desc>lat.=22.173002, lon.=103.754349, Alt.=588.445801m. Speed=0.288000m/h.</desc>
<speed>0.080000</speed>
</trkpt>
<trkpt lat="22.173002" lon="103.754349">
<ele>588.445801</ele>
<time>2011-04-25T08:17:10Z</time>
<desc>lat.=22.173002, lon.=103.754349, Alt.=588.445801m. Speed=0.360000m/h.</desc>
<speed>0.100000</speed>
</trkpt>
<trkpt lat="22.173031" lon="103.754333">
<ele>587.742676</ele>
<time>2011-04-25T08:17:15Z</time>
<desc>lat.=22.173031, lon.=103.754333, Alt.=587.742676m. Speed=0.900000m/h.</desc>
<speed>0.250000</speed>
</trkpt>
<trkpt lat="22.173021" lon="103.754303">
<ele>587.508301</ele>
<time>2011-04-25T08:17:20Z</time>
<desc>lat.=22.173021, lon.=103.754303, Alt.=587.508301m. Speed=0.468000m/h.</desc>
<speed>0.130000</speed>
</trkpt>
<trkpt lat="22.172993" lon="103.754295">
<ele>587.227051</ele>
<time>2011-04-25T08:17:25Z</time>
<desc>lat.=22.172993, lon.=103.754295, Alt.=587.227051m. Speed=2.952000m/h.</desc>
<speed>0.820000</speed>
</trkpt>
<trkpt lat="22.172895" lon="103.754356">
<ele>587.102051</ele>
<time>2011-04-25T08:17:30Z</time>
<desc>lat.=22.172895, lon.=103.754356, Alt.=587.102051m. Speed=13.356000m/h.</desc>
<speed>3.710000</speed>
</trkpt>
<trkpt lat="22.172735" lon="103.754463">
<ele>588.398926</ele>
<time>2011-04-25T08:17:35Z</time>
<desc>lat.=22.172735, lon.=103.754463, Alt.=588.398926m. Speed=11.124000m/h.</desc>
<speed>3.090000</speed>
</trkpt>
<trkpt lat="22.172586" lon="103.754532">
<ele>589.289551</ele>
<time>2011-04-25T08:17:40Z</time>
<desc>lat.=22.172586, lon.=103.754532, Alt.=589.289551m. Speed=9.504000m/h.</desc>
<speed>2.640000</speed>
</trkpt>
<trkpt lat="22.172451" lon="103.754669">
<ele>589.367676</ele>
<time>2011-04-25T08:17:45Z</time>
<desc>lat.=22.172451, lon.=103.754669, Alt.=589.367676m. Speed=16.379999m/h.</desc>
<speed>4.550000</speed>
</trkpt>
<trkpt lat="22.172256" lon="103.754822">
<ele>586.211426</ele>
<time>2011-04-25T08:17:50Z</time>
<desc>lat.=22.172256, lon.=103.754822, Alt.=586.211426m. Speed=19.620001m/h.</desc>
<speed>5.450000</speed>
</trkpt>
<trkpt lat="22.172066" lon="103.754990">
<ele>584.773926</ele>
<time>2011-04-25T08:17:55Z</time>
<desc>lat.=22.172066, lon.=103.754990, Alt.=584.773926m. Speed=18.756001m/h.</desc>
<speed>5.210000</speed>
</trkpt>
<trkpt lat="22.171879" lon="103.755142">
<ele>583.414551</ele>
<time>2011-04-25T08:18:00Z</time>
<desc>lat.=22.171879, lon.=103.755142, Alt.=583.414551m. Speed=15.948000m/h.</desc>
<speed>4.430000</speed>
</trkpt>
<trkpt lat="22.171684" lon="103.755302">
<ele>581.648926</ele>
<time>2011-04-25T08:18:05Z</time>
<desc>lat.=22.171684, lon.=103.755302, Alt.=581.648926m. Speed=17.496000m/h.</desc>
<speed>4.860000</speed>
</trkpt>
<trkpt lat="22.171515" lon="103.755417">
<ele>581.367676</ele>
<time>2011-04-25T08:18:10Z</time>
<desc>lat.=22.171515, lon.=103.755417, Alt.=581.367676m. Speed=12.132000m/h.</desc>
<speed>3.370000</speed>
</trkpt>
<trkpt lat="22.171394" lon="103.755508">
<ele>584.898926</ele>
<time>2011-04-25T08:18:15Z</time>
<desc>lat.=22.171394, lon.=103.755508, Alt.=584.898926m. Speed=12.816000m/h.</desc>
<speed>3.560000</speed>
</trkpt>
<trkpt lat="22.171274" lon="103.755630">
<ele>582.617676</ele>
<time>2011-04-25T08:18:20Z</time>
<desc>lat.=22.171274, lon.=103.755630, Alt.=582.617676m. Speed=11.160000m/h.</desc>
<speed>3.100000</speed>
</trkpt>
<trkpt lat="22.171144" lon="103.755775">
<ele>581.867676</ele>
<time>2011-04-25T08:18:25Z</time>
<desc>lat.=22.171144, lon.=103.755775, Alt.=581.867676m. Speed=17.028000m/h.</desc>
<speed>4.730000</speed>
</trkpt>
<trkpt lat="22.171013" lon="103.755890">
<ele>583.398926</ele>
<time>2011-04-25T08:18:30Z</time>
<desc>lat.=22.171013, lon.=103.755890, Alt.=583.398926m. Speed=4.572000m/h.</desc>
<speed>1.270000</speed>
</trkpt>
<trkpt lat="22.170982" lon="103.755898">
<ele>586.102051</ele>
<time>2011-04-25T08:18:35Z</time>
<desc>lat.=22.170982, lon.=103.755898, Alt.=586.102051m. Speed=0.828000m/h.</desc>
<speed>0.230000</speed>
</trkpt>
<trkpt lat="22.170975" lon="103.755898">
<ele>587.148926</ele>
<time>2011-04-25T08:18:40Z</time>
<desc>lat.=22.170975, lon.=103.755898, Alt.=587.148926m. Speed=0.648000m/h.</desc>
<speed>0.180000</speed>
</trkpt>
<trkpt lat="22.170977" lon="103.755875">
<ele>587.742676</ele>
<time>2011-04-25T08:18:45Z</time>
<desc>lat.=22.170977, lon.=103.755875, Alt.=587.742676m. Speed=3.636000m/h.</desc>
<speed>1.010000</speed>
</trkpt>
<trkpt lat="22.171005" lon="103.755875">
<ele>589.305176</ele>
<time>2011-04-25T08:18:50Z</time>
<desc>lat.=22.171005, lon.=103.755875, Alt.=589.305176m. Speed=1.656000m/h.</desc>
<speed>0.460000</speed>
</trkpt>
<trkpt lat="22.171049" lon="103.755898">
<ele>590.227051</ele>
<time>2011-04-25T08:18:55Z</time>
<desc>lat.=22.171049, lon.=103.755898, Alt.=590.227051m. Speed=0.144000m/h.</desc>
<speed>0.040000</speed>
</trkpt>
<trkpt lat="22.171051" lon="103.755898">
<ele>590.617676</ele>
<time>2011-04-25T08:19:00Z</time>
<desc>lat.=22.171051, lon.=103.755898, Alt.=590.617676m. Speed=0.216000m/h.</desc>
<speed>0.060000</speed>
</trkpt>
<trkpt lat="22.171053" lon="103.755898">
<ele>590.789551</ele>
<time>2011-04-25T08:19:05Z</time>
<desc>lat.=22.171053, lon.=103.755898, Alt.=590.789551m. Speed=0.216000m/h.</desc>
<speed>0.060000</speed>
</trkpt>
<trkpt lat="22.171053" lon="103.755898">
<ele>590.805176</ele>
<time>2011-04-25T08:19:10Z</time>
<desc>lat.=22.171053, lon.=103.755898, Alt.=590.805176m. Speed=0.000000m/h.</desc>
<speed>0.000000</speed>
</trkpt>
<trkpt lat="22.171053" lon="103.755898">
<ele>590.820801</ele>
<time>2011-04-25T08:19:15Z</time>
<desc>lat.=22.171053, lon.=103.755898, Alt.=590.820801m. Speed=0.072000m/h.</desc>
<speed>0.020000</speed>
</trkpt>
<trkpt lat="22.171053" lon="103.755898">
<ele>590.836426</ele>
<time>2011-04-25T08:19:20Z</time>
<desc>lat.=22.171053, lon.=103.755898, Alt.=590.836426m. Speed=0.396000m/h.</desc>
<speed>0.110000</speed>
</trkpt>
<trkpt lat="22.171045" lon="103.755905">
<ele>590.977051</ele>
<time>2011-04-25T08:19:25Z</time>
<desc>lat.=22.171045, lon.=103.755905, Alt.=590.977051m. Speed=0.828000m/h.</desc>
<speed>0.230000</speed>
</trkpt>
<trkpt lat="22.171003" lon="103.755928">
<ele>590.914551</ele>
<time>2011-04-25T08:19:30Z</time>
<desc>lat.=22.171003, lon.=103.755928, Alt.=590.914551m. Speed=7.200000m/h.</desc>
<speed>2.000000</speed>
</trkpt>
<trkpt lat="22.170906" lon="103.755974">
<ele>591.602051</ele>
<time>2011-04-25T08:19:35Z</time>
<desc>lat.=22.170906, lon.=103.755974, Alt.=591.602051m. Speed=6.372000m/h.</desc>
<speed>1.770000</speed>
</trkpt>
<trkpt lat="22.170818" lon="103.756042">
<ele>592.148926</ele>
<time>2011-04-25T08:19:40Z</time>
<desc>lat.=22.170818, lon.=103.756042, Alt.=592.148926m. Speed=3.276000m/h.</desc>
<speed>0.910000</speed>
</trkpt>
<trkpt lat="22.170767" lon="103.756096">
<ele>592.758301</ele>
<time>2011-04-25T08:19:45Z</time>
<desc>lat.=22.170767, lon.=103.756096, Alt.=592.758301m. Speed=2.736000m/h.</desc>
<speed>0.760000</speed>
</trkpt>
<trkpt lat="22.170631" lon="103.756172">
<ele>593.148926</ele>
<time>2011-04-25T08:19:50Z</time>
<desc>lat.=22.170631, lon.=103.756172, Alt.=593.148926m. Speed=10.008000m/h.</desc>
<speed>2.780000</speed>
</trkpt>
<trkpt lat="22.170509" lon="103.756294">
<ele>593.648926</ele>
<time>2011-04-25T08:19:55Z</time>
<desc>lat.=22.170509, lon.=103.756294, Alt.=593.648926m. Speed=7.776000m/h.</desc>
<speed>2.160000</speed>
</trkpt>
<trkpt lat="22.170441" lon="103.756432">
<ele>595.102051</ele>
<time>2011-04-25T08:20:00Z</time>
<desc>lat.=22.170441, lon.=103.756432, Alt.=595.102051m. Speed=3.996000m/h.</desc>
<speed>1.110000</speed>
</trkpt>
<trkpt lat="22.170362" lon="103.756599">
<ele>596.430176</ele>
<time>2011-04-25T08:20:05Z</time>
<desc>lat.=22.170362, lon.=103.756599, Alt.=596.430176m. Speed=2.520000m/h.</desc>
<speed>0.700000</speed>
</trkpt>
<trkpt lat="22.170338" lon="103.756645">
<ele>598.039551</ele>
<time>2011-04-25T08:20:10Z</time>
<desc>lat.=22.170338, lon.=103.756645, Alt.=598.039551m. Speed=0.792000m/h.</desc>
<speed>0.220000</speed>
</trkpt>
<trkpt lat="22.170319" lon="103.756706">
<ele>599.555176</ele>
<time>2011-04-25T08:20:15Z</time>
<desc>lat.=22.170319, lon.=103.756706, Alt.=599.555176m. Speed=1.512000m/h.</desc>
<speed>0.420000</speed>
</trkpt>
<trkpt lat="22.170298" lon="103.756744">
<ele>600.555176</ele>
<time>2011-04-25T08:20:20Z</time>
<desc>lat.=22.170298, lon.=103.756744, Alt.=600.555176m. Speed=2.124000m/h.</desc>
<speed>0.590000</speed>
</trkpt>
<trkpt lat="22.170216" lon="103.756783">
<ele>599.195801</ele>
<time>2011-04-25T08:20:25Z</time>
<desc>lat.=22.170216, lon.=103.756783, Alt.=599.195801m. Speed=4.068000m/h.</desc>
<speed>1.130000</speed>
</trkpt>
<trkpt lat="22.170160" lon="103.756798">
<ele>599.914551</ele>
<time>2011-04-25T08:20:30Z</time>
<desc>lat.=22.170160, lon.=103.756798, Alt.=599.914551m. Speed=2.628000m/h.</desc>
<speed>0.730000</speed>
</trkpt>
<trkpt lat="22.170120" lon="103.756828">
<ele>600.805176</ele>
<time>2011-04-25T08:20:35Z</time>
<desc>lat.=22.170120, lon.=103.756828, Alt.=600.805176m. Speed=1.728000m/h.</desc>
<speed>0.480000</speed>
</trkpt>
<trkpt lat="22.170069" lon="103.756882">
<ele>600.758301</ele>
<time>2011-04-25T08:20:40Z</time>
<desc>lat.=22.170069, lon.=103.756882, Alt.=600.758301m. Speed=1.332000m/h.</desc>
<speed>0.370000</speed>
</trkpt>
<trkpt lat="22.170017" lon="103.756920">
<ele>599.289551</ele>
<time>2011-04-25T08:20:45Z</time>
<desc>lat.=22.170017, lon.=103.756920, Alt.=599.289551m. Speed=2.124000m/h.</desc>
<speed>0.590000</speed>
</trkpt>
<trkpt lat="22.169931" lon="103.756966">
<ele>595.961426</ele>
<time>2011-04-25T08:20:50Z</time>
<desc>lat.=22.169931, lon.=103.756966, Alt.=595.961426m. Speed=5.040000m/h.</desc>
<speed>1.400000</speed>
</trkpt>
<trkpt lat="22.169855" lon="103.757004">
<ele>595.820801</ele>
<time>2011-04-25T08:20:55Z</time>
<desc>lat.=22.169855, lon.=103.757004, Alt.=595.820801m. Speed=5.472000m/h.</desc>
<speed>1.520000</speed>
</trkpt>
<trkpt lat="22.169794" lon="103.757034">
<ele>596.180176</ele>
<time>2011-04-25T08:21:00Z</time>
<desc>lat.=22.169794, lon.=103.757034, Alt.=596.180176m. Speed=3.852000m/h.</desc>
<speed>1.070000</speed>
</trkpt>
<trkpt lat="22.169773" lon="103.757034">
<ele>594.992676</ele>
<time>2011-04-25T08:21:05Z</time>
<desc>lat.=22.169773, lon.=103.757034, Alt.=594.992676m. Speed=0.540000m/h.</desc>
<speed>0.150000</speed>
</trkpt>
<trkpt lat="22.169775" lon="103.757034">
<ele>594.961426</ele>
<time>2011-04-25T08:21:10Z</time>
<desc>lat.=22.169775, lon.=103.757034, Alt.=594.961426m. Speed=0.216000m/h.</desc>
<speed>0.060000</speed>
</trkpt>
<trkpt lat="22.169775" lon="103.757034">
<ele>594.961426</ele>
<time>2011-04-25T08:21:15Z</time>
<desc>lat.=22.169775, lon.=103.757034, Alt.=594.961426m. Speed=0.144000m/h.</desc>
<speed>0.040000</speed>
</trkpt>
<trkpt lat="22.169769" lon="103.757034">
<ele>594.836426</ele>
<time>2011-04-25T08:21:20Z</time>
<desc>lat.=22.169769, lon.=103.757034, Alt.=594.836426m. Speed=0.360000m/h.</desc>
<speed>0.100000</speed>
</trkpt>
<trkpt lat="22.169767" lon="103.757034">
<ele>594.773926</ele>
<time>2011-04-25T08:21:25Z</time>
<desc>lat.=22.169767, lon.=103.757034, Alt.=594.773926m. Speed=0.720000m/h.</desc>
<speed>0.200000</speed>
</trkpt>
<trkpt lat="22.169767" lon="103.757027">
<ele>594.727051</ele>
<time>2011-04-25T08:21:30Z</time>
<desc>lat.=22.169767, lon.=103.757027, Alt.=594.727051m. Speed=0.612000m/h.</desc>
<speed>0.170000</speed>
</trkpt>
<trkpt lat="22.169765" lon="103.757027">
<ele>594.711426</ele>
<time>2011-04-25T08:21:35Z</time>
<desc>lat.=22.169765, lon.=103.757027, Alt.=594.711426m. Speed=0.144000m/h.</desc>
<speed>0.040000</speed>
</trkpt>
<trkpt lat="22.169762" lon="103.757019">
<ele>594.664551</ele>
<time>2011-04-25T08:21:40Z</time>
<desc>lat.=22.169762, lon.=103.757019, Alt.=594.664551m. Speed=0.648000m/h.</desc>
<speed>0.180000</speed>
</trkpt>
<trkpt lat="22.169758" lon="103.757011">
<ele>594.617676</ele>
<time>2011-04-25T08:21:45Z</time>
<desc>lat.=22.169758, lon.=103.757011, Alt.=594.617676m. Speed=0.684000m/h.</desc>
<speed>0.190000</speed>
</trkpt>
<trkpt lat="22.169756" lon="103.757011">
<ele>594.570801</ele>
<time>2011-04-25T08:21:50Z</time>
<desc>lat.=22.169756, lon.=103.757011, Alt.=594.570801m. Speed=0.144000m/h.</desc>
<speed>0.040000</speed>
</trkpt>
<trkpt lat="22.169754" lon="103.757004">
<ele>594.539551</ele>
<time>2011-04-25T08:21:55Z</time>
<desc>lat.=22.169754, lon.=103.757004, Alt.=594.539551m. Speed=0.180000m/h.</desc>
<speed>0.050000</speed>
</trkpt>
<trkpt lat="22.169754" lon="103.757004">
<ele>594.523926</ele>
<time>2011-04-25T08:22:00Z</time>
<desc>lat.=22.169754, lon.=103.757004, Alt.=594.523926m. Speed=0.324000m/h.</desc>
<speed>0.090000</speed>
</trkpt>
<trkpt lat="22.169752" lon="103.757004">
<ele>594.523926</ele>
<time>2011-04-25T08:22:05Z</time>
<desc>lat.=22.169752, lon.=103.757004, Alt.=594.523926m. Speed=0.144000m/h.</desc>
<speed>0.040000</speed>
</trkpt>
<trkpt lat="22.169752" lon="103.757004">
<ele>594.523926</ele>
<time>2011-04-25T08:22:10Z</time>
<desc>lat.=22.169752, lon.=103.757004, Alt.=594.523926m. Speed=0.180000m/h.</desc>
<speed>0.050000</speed>
</trkpt>
<trkpt lat="22.169752" lon="103.757004">
<ele>594.523926</ele>
<time>2011-04-25T08:22:15Z</time>
<desc>lat.=22.169752, lon.=103.757004, Alt.=594.523926m. Speed=0.324000m/h.</desc>
<speed>0.090000</speed>
</trkpt>
<trkpt lat="22.169752" lon="103.757011">
<ele>594.555176</ele>
<time>2011-04-25T08:22:20Z</time>
<desc>lat.=22.169752, lon.=103.757011, Alt.=594.555176m. Speed=0.396000m/h.</desc>
<speed>0.110000</speed>
</trkpt>
<trkpt lat="22.169752" lon="103.757011">
<ele>594.602051</ele>
<time>2011-04-25T08:22:25Z</time>
<desc>lat.=22.169752, lon.=103.757011, Alt.=594.602051m. Speed=0.072000m/h.</desc>
<speed>0.020000</speed>
</trkpt>
<trkpt lat="22.169752" lon="103.757011">
<ele>594.633301</ele>
<time>2011-04-25T08:22:30Z</time>
<desc>lat.=22.169752, lon.=103.757011, Alt.=594.633301m. Speed=0.036000m/h.</desc>
<speed>0.010000</speed>
</trkpt>
<trkpt lat="22.169752" lon="103.757011">
<ele>594.648926</ele>
<time>2011-04-25T08:22:35Z</time>
<desc>lat.=22.169752, lon.=103.757011, Alt.=594.648926m. Speed=0.216000m/h.</desc>
<speed>0.060000</speed>
</trkpt>
<trkpt lat="22.169750" lon="103.757019">
<ele>594.648926</ele>
<time>2011-04-25T08:22:40Z</time>
<desc>lat.=22.169750, lon.=103.757019, Alt.=594.648926m. Speed=0.216000m/h.</desc>
<speed>0.060000</speed>
</trkpt>
<trkpt lat="22.169743" lon="103.757027">
<ele>594.914551</ele>
<time>2011-04-25T08:22:45Z</time>
<desc>lat.=22.169743, lon.=103.757027, Alt.=594.914551m. Speed=0.036000m/h.</desc>
<speed>0.010000</speed>
</trkpt>
<trkpt lat="22.169737" lon="103.757027">
<ele>595.352051</ele>
<time>2011-04-25T08:22:50Z</time>
<desc>lat.=22.169737, lon.=103.757027, Alt.=595.352051m. Speed=0.036000m/h.</desc>
<speed>0.010000</speed>
</trkpt>
<trkpt lat="22.169733" lon="103.757034">
<ele>595.805176</ele>
<time>2011-04-25T08:22:55Z</time>
<desc>lat.=22.169733, lon.=103.757034, Alt.=595.805176m. Speed=0.036000m/h.</desc>
<speed>0.010000</speed>
</trkpt>
<trkpt lat="22.169729" lon="103.757042">
<ele>596.195801</ele>
<time>2011-04-25T08:23:00Z</time>
<desc>lat.=22.169729, lon.=103.757042, Alt.=596.195801m. Speed=0.072000m/h.</desc>
<speed>0.020000</speed>
</trkpt>
<trkpt lat="22.169724" lon="103.757042">
<ele>596.086426</ele>
<time>2011-04-25T08:23:05Z</time>
<desc>lat.=22.169724, lon.=103.757042, Alt.=596.086426m. Speed=0.072000m/h.</desc>
<speed>0.020000</speed>
</trkpt>
<trkpt lat="22.169724" lon="103.757050">
<ele>593.898926</ele>
<time>2011-04-25T08:23:10Z</time>
<desc>lat.=22.169724, lon.=103.757050, Alt.=593.898926m. Speed=0.252000m/h.</desc>
<speed>0.070000</speed>
</trkpt>
<trkpt lat="22.169714" lon="103.757057">
<ele>592.977051</ele>
<time>2011-04-25T08:23:15Z</time>
<desc>lat.=22.169714, lon.=103.757057, Alt.=592.977051m. Speed=0.612000m/h.</desc>
<speed>0.170000</speed>
</trkpt>
<trkpt lat="22.169718" lon="103.757050">
<ele>592.305176</ele>
<time>2011-04-25T08:23:20Z</time>
<desc>lat.=22.169718, lon.=103.757050, Alt.=592.305176m. Speed=0.324000m/h.</desc>
<speed>0.090000</speed>
</trkpt>
<trkpt lat="22.169718" lon="103.757050">
<ele>592.195801</ele>
<time>2011-04-25T08:23:25Z</time>
<desc>lat.=22.169718, lon.=103.757050, Alt.=592.195801m. Speed=0.252000m/h.</desc>
<speed>0.070000</speed>
</trkpt>
<trkpt lat="22.169716" lon="103.757057">
<ele>592.039551</ele>
<time>2011-04-25T08:23:30Z</time>
<desc>lat.=22.169716, lon.=103.757057, Alt.=592.039551m. Speed=0.684000m/h.</desc>
<speed>0.190000</speed>
</trkpt>
<trkpt lat="22.169710" lon="103.757065">
<ele>591.883301</ele>
<time>2011-04-25T08:23:35Z</time>
<desc>lat.=22.169710, lon.=103.757065, Alt.=591.883301m. Speed=0.720000m/h.</desc>
<speed>0.200000</speed>
</trkpt>
<trkpt lat="22.169703" lon="103.757072">
<ele>591.758301</ele>
<time>2011-04-25T08:23:40Z</time>
<desc>lat.=22.169703, lon.=103.757072, Alt.=591.758301m. Speed=0.828000m/h.</desc>
<speed>0.230000</speed>
</trkpt>
<trkpt lat="22.169691" lon="103.757080">
<ele>591.680176</ele>
<time>2011-04-25T08:23:45Z</time>
<desc>lat.=22.169691, lon.=103.757080, Alt.=591.680176m. Speed=1.152000m/h.</desc>
<speed>0.320000</speed>
</trkpt>
<trkpt lat="22.169664" lon="103.757088">
<ele>590.289551</ele>
<time>2011-04-25T08:23:50Z</time>
<desc>lat.=22.169664, lon.=103.757088, Alt.=590.289551m. Speed=1.584000m/h.</desc>
<speed>0.440000</speed>
</trkpt>
<trkpt lat="22.169622" lon="103.757103">
<ele>589.836426</ele>
<time>2011-04-25T08:23:55Z</time>
<desc>lat.=22.169622, lon.=103.757103, Alt.=589.836426m. Speed=4.428000m/h.</desc>
<speed>1.230000</speed>
</trkpt>
<trkpt lat="22.169559" lon="103.757141">
<ele>588.773926</ele>
<time>2011-04-25T08:24:00Z</time>
<desc>lat.=22.169559, lon.=103.757141, Alt.=588.773926m. Speed=6.804000m/h.</desc>
<speed>1.890000</speed>
</trkpt>
<trkpt lat="22.169449" lon="103.757179">
<ele>588.477051</ele>
<time>2011-04-25T08:24:05Z</time>
<desc>lat.=22.169449, lon.=103.757179, Alt.=588.477051m. Speed=8.676000m/h.</desc>
<speed>2.410000</speed>
</trkpt>
<trkpt lat="22.169313" lon="103.757225">
<ele>586.773926</ele>
<time>2011-04-25T08:24:10Z</time>
<desc>lat.=22.169313, lon.=103.757225, Alt.=586.773926m. Speed=12.060000m/h.</desc>
<speed>3.350000</speed>
</trkpt>
<trkpt lat="22.169180" lon="103.757271">
<ele>585.133301</ele>
<time>2011-04-25T08:24:15Z</time>
<desc>lat.=22.169180, lon.=103.757271, Alt.=585.133301m. Speed=10.512000m/h.</desc>
<speed>2.920000</speed>
</trkpt>
<trkpt lat="22.169012" lon="103.757324">
<ele>584.711426</ele>
<time>2011-04-25T08:24:20Z</time>
<desc>lat.=22.169012, lon.=103.757324, Alt.=584.711426m. Speed=13.788000m/h.</desc>
<speed>3.830000</speed>
</trkpt>
<trkpt lat="22.168852" lon="103.757355">
<ele>583.086426</ele>
<time>2011-04-25T08:24:25Z</time>
<desc>lat.=22.168852, lon.=103.757355, Alt.=583.086426m. Speed=11.664000m/h.</desc>
<speed>3.240000</speed>
</trkpt>
<trkpt lat="22.168713" lon="103.757370">
<ele>580.508301</ele>
<time>2011-04-25T08:24:30Z</time>
<desc>lat.=22.168713, lon.=103.757370, Alt.=580.508301m. Speed=8.460000m/h.</desc>
<speed>2.350000</speed>
</trkpt>
<trkpt lat="22.168585" lon="103.757378">
<ele>578.352051</ele>
<time>2011-04-25T08:24:35Z</time>
<desc>lat.=22.168585, lon.=103.757378, Alt.=578.352051m. Speed=9.324000m/h.</desc>
<speed>2.590000</speed>
</trkpt>
<trkpt lat="22.168430" lon="103.757423">
<ele>578.383301</ele>
<time>2011-04-25T08:24:40Z</time>
<desc>lat.=22.168430, lon.=103.757423, Alt.=578.383301m. Speed=13.716000m/h.</desc>
<speed>3.810000</speed>
</trkpt>
<trkpt lat="22.168255" lon="103.757500">
<ele>577.445801</ele>
<time>2011-04-25T08:24:45Z</time>
<desc>lat.=22.168255, lon.=103.757500, Alt.=577.445801m. Speed=17.784000m/h.</desc>
<speed>4.940000</speed>
</trkpt>
<trkpt lat="22.168045" lon="103.757599">
<ele>577.773926</ele>
<time>2011-04-25T08:24:50Z</time>
<desc>lat.=22.168045, lon.=103.757599, Alt.=577.773926m. Speed=16.488001m/h.</desc>
<speed>4.580000</speed>
</trkpt>
<trkpt lat="22.167839" lon="103.757668">
<ele>577.867676</ele>
<time>2011-04-25T08:24:55Z</time>
<desc>lat.=22.167839, lon.=103.757668, Alt.=577.867676m. Speed=17.712000m/h.</desc>
<speed>4.920000</speed>
</trkpt>
<trkpt lat="22.167610" lon="103.757729">
<ele>578.820801</ele>
<time>2011-04-25T08:25:00Z</time>
<desc>lat.=22.167610, lon.=103.757729, Alt.=578.820801m. Speed=14.400000m/h.</desc>
<speed>4.000000</speed>
</trkpt>
<trkpt lat="22.167442" lon="103.757767">
<ele>580.133301</ele>
<time>2011-04-25T08:25:05Z</time>
<desc>lat.=22.167442, lon.=103.757767, Alt.=580.133301m. Speed=11.520000m/h.</desc>
<speed>3.200000</speed>
</trkpt>
<trkpt lat="22.167278" lon="103.757813">
<ele>583.852051</ele>
<time>2011-04-25T08:25:10Z</time>
<desc>lat.=22.167278, lon.=103.757813, Alt.=583.852051m. Speed=12.888000m/h.</desc>
<speed>3.580000</speed>
</trkpt>
<trkpt lat="22.167076" lon="103.757851">
<ele>581.898926</ele>
<time>2011-04-25T08:25:15Z</time>
<desc>lat.=22.167076, lon.=103.757851, Alt.=581.898926m. Speed=15.732000m/h.</desc>
<speed>4.370000</speed>
</trkpt>
<trkpt lat="22.166883" lon="103.757896">
<ele>576.039551</ele>
<time>2011-04-25T08:25:20Z</time>
<desc>lat.=22.166883, lon.=103.757896, Alt.=576.039551m. Speed=15.552000m/h.</desc>
<speed>4.320000</speed>
</trkpt>
<trkpt lat="22.166702" lon="103.757965">
<ele>572.430176</ele>
<time>2011-04-25T08:25:25Z</time>
<desc>lat.=22.166702, lon.=103.757965, Alt.=572.430176m. Speed=15.480000m/h.</desc>
<speed>4.300000</speed>
</trkpt>
<trkpt lat="22.166525" lon="103.758034">
<ele>575.117676</ele>
<time>2011-04-25T08:25:30Z</time>
<desc>lat.=22.166525, lon.=103.758034, Alt.=575.117676m. Speed=12.168000m/h.</desc>
<speed>3.380000</speed>
</trkpt>
<trkpt lat="22.166393" lon="103.758072">
<ele>575.992676</ele>
<time>2011-04-25T08:25:35Z</time>
<desc>lat.=22.166393, lon.=103.758072, Alt.=575.992676m. Speed=7.488000m/h.</desc>
<speed>2.080000</speed>
</trkpt>
<trkpt lat="22.166277" lon="103.758102">
<ele>577.148926</ele>
<time>2011-04-25T08:25:40Z</time>
<desc>lat.=22.166277, lon.=103.758102, Alt.=577.148926m. Speed=8.640000m/h.</desc>
<speed>2.400000</speed>
</trkpt>
<trkpt lat="22.166155" lon="103.758141">
<ele>578.820801</ele>
<time>2011-04-25T08:25:45Z</time>
<desc>lat.=22.166155, lon.=103.758141, Alt.=578.820801m. Speed=9.288000m/h.</desc>
<speed>2.580000</speed>
</trkpt>
<trkpt lat="22.166031" lon="103.758202">
<ele>580.570801</ele>
<time>2011-04-25T08:25:50Z</time>
<desc>lat.=22.166031, lon.=103.758202, Alt.=580.570801m. Speed=8.172000m/h.</desc>
<speed>2.270000</speed>
</trkpt>
<trkpt lat="22.165928" lon="103.758232">
<ele>582.805176</ele>
<time>2011-04-25T08:25:55Z</time>
<desc>lat.=22.165928, lon.=103.758232, Alt.=582.805176m. Speed=8.532000m/h.</desc>
<speed>2.370000</speed>
</trkpt>
<trkpt lat="22.165844" lon="103.758301">
<ele>583.992676</ele>
<time>2011-04-25T08:26:00Z</time>
<desc>lat.=22.165844, lon.=103.758301, Alt.=583.992676m. Speed=7.560000m/h.</desc>
<speed>2.100000</speed>
</trkpt>
<trkpt lat="22.165751" lon="103.758369">
<ele>586.570801</ele>
<time>2011-04-25T08:26:05Z</time>
<desc>lat.=22.165751, lon.=103.758369, Alt.=586.570801m. Speed=9.396000m/h.</desc>
<speed>2.610000</speed>
</trkpt>
<trkpt lat="22.165661" lon="103.758423">
<ele>587.430176</ele>
<time>2011-04-25T08:26:10Z</time>
<desc>lat.=22.165661, lon.=103.758423, Alt.=587.430176m. Speed=4.284000m/h.</desc>
<speed>1.190000</speed>
</trkpt>
<trkpt lat="22.165642" lon="103.758423">
<ele>586.680176</ele>
<time>2011-04-25T08:26:15Z</time>
<desc>lat.=22.165642, lon.=103.758423, Alt.=586.680176m. Speed=2.196000m/h.</desc>
<speed>0.610000</speed>
</trkpt>
<trkpt lat="22.165627" lon="103.758430">
<ele>587.086426</ele>
<time>2011-04-25T08:26:20Z</time>
<desc>lat.=22.165627, lon.=103.758430, Alt.=587.086426m. Speed=1.296000m/h.</desc>
<speed>0.360000</speed>
</trkpt>
<trkpt lat="22.165611" lon="103.758453">
<ele>587.336426</ele>
<time>2011-04-25T08:26:25Z</time>
<desc>lat.=22.165611, lon.=103.758453, Alt.=587.336426m. Speed=1.008000m/h.</desc>
<speed>0.280000</speed>
</trkpt>
<trkpt lat="22.165617" lon="103.758461">
<ele>587.508301</ele>
<time>2011-04-25T08:26:30Z</time>
<desc>lat.=22.165617, lon.=103.758461, Alt.=587.508301m. Speed=0.144000m/h.</desc>
<speed>0.040000</speed>
</trkpt>
<trkpt lat="22.165619" lon="103.758461">
<ele>587.602051</ele>
<time>2011-04-25T08:26:35Z</time>
<desc>lat.=22.165619, lon.=103.758461, Alt.=587.602051m. Speed=0.036000m/h.</desc>
<speed>0.010000</speed>
</trkpt>
<trkpt lat="22.165619" lon="103.758461">
<ele>587.680176</ele>
<time>2011-04-25T08:26:40Z</time>
<desc>lat.=22.165619, lon.=103.758461, Alt.=587.680176m. Speed=0.036000m/h.</desc>
<speed>0.010000</speed>
</trkpt>
<trkpt lat="22.165627" lon="103.758476">
<ele>590.117676</ele>
<time>2011-04-25T08:26:45Z</time>
<desc>lat.=22.165627, lon.=103.758476, Alt.=590.117676m. Speed=0.036000m/h.</desc>
<speed>0.010000</speed>
</trkpt>
<trkpt lat="22.165630" lon="103.758476">
<ele>592.633301</ele>
<time>2011-04-25T08:26:50Z</time>
<desc>lat.=22.165630, lon.=103.758476, Alt.=592.633301m. Speed=0.072000m/h.</desc>
<speed>0.020000</speed>
</trkpt>
<trkpt lat="22.165634" lon="103.758492">
<ele>595.336426</ele>
<time>2011-04-25T08:26:55Z</time>
<desc>lat.=22.165634, lon.=103.758492, Alt.=595.336426m. Speed=0.000000m/h.</desc>
<speed>0.000000</speed>
</trkpt>
<trkpt lat="22.165634" lon="103.758492">
<ele>595.898926</ele>
<time>2011-04-25T08:27:00Z</time>
<desc>lat.=22.165634, lon.=103.758492, Alt.=595.898926m. Speed=0.000000m/h.</desc>
<speed>0.000000</speed>
</trkpt>
<trkpt lat="22.165621" lon="103.758499">
<ele>595.336426</ele>
<time>2011-04-25T08:27:05Z</time>
<desc>lat.=22.165621, lon.=103.758499, Alt.=595.336426m. Speed=0.540000m/h.</desc>
<speed>0.150000</speed>
</trkpt>
<trkpt lat="22.165615" lon="103.758499">
<ele>595.523926</ele>
<time>2011-04-25T08:27:10Z</time>
<desc>lat.=22.165615, lon.=103.758499, Alt.=595.523926m. Speed=0.144000m/h.</desc>
<speed>0.040000</speed>
</trkpt>
<trkpt lat="22.165592" lon="103.758530">
<ele>595.867676</ele>
<time>2011-04-25T08:27:15Z</time>
<desc>lat.=22.165592, lon.=103.758530, Alt.=595.867676m. Speed=2.304000m/h.</desc>
<speed>0.640000</speed>
</trkpt>
<trkpt lat="22.165407" lon="103.758568">
<ele>596.258301</ele>
<time>2011-04-25T08:27:20Z</time>
<desc>lat.=22.165407, lon.=103.758568, Alt.=596.258301m. Speed=15.732000m/h.</desc>
<speed>4.370000</speed>
</trkpt>
<trkpt lat="22.165152" lon="103.758736">
<ele>594.883301</ele>
<time>2011-04-25T08:27:25Z</time>
<desc>lat.=22.165152, lon.=103.758736, Alt.=594.883301m. Speed=23.327999m/h.</desc>
<speed>6.480000</speed>
</trkpt>
<trkpt lat="22.164852" lon="103.758949">
<ele>593.977051</ele>
<time>2011-04-25T08:27:30Z</time>
<desc>lat.=22.164852, lon.=103.758949, Alt.=593.977051m. Speed=28.836000m/h.</desc>
<speed>8.010000</speed>
</trkpt>
<trkpt lat="22.164473" lon="103.759163">
<ele>592.211426</ele>
<time>2011-04-25T08:27:35Z</time>
<desc>lat.=22.164473, lon.=103.759163, Alt.=592.211426m. Speed=30.492001m/h.</desc>
<speed>8.470000</speed>
</trkpt>
<trkpt lat="22.164112" lon="103.759361">
<ele>591.133301</ele>
<time>2011-04-25T08:27:40Z</time>
<desc>lat.=22.164112, lon.=103.759361, Alt.=591.133301m. Speed=27.216000m/h.</desc>
<speed>7.560000</speed>
</trkpt>
<trkpt lat="22.163822" lon="103.759521">
<ele>590.570801</ele>
<time>2011-04-25T08:27:45Z</time>
<desc>lat.=22.163822, lon.=103.759521, Alt.=590.570801m. Speed=21.816000m/h.</desc>
<speed>6.060000</speed>
</trkpt>
<trkpt lat="22.163601" lon="103.759651">
<ele>590.133301</ele>
<time>2011-04-25T08:27:50Z</time>
<desc>lat.=22.163601, lon.=103.759651, Alt.=590.133301m. Speed=17.459999m/h.</desc>
<speed>4.850000</speed>
</trkpt>
<trkpt lat="22.163389" lon="103.759735">
<ele>590.102051</ele>
<time>2011-04-25T08:27:55Z</time>
<desc>lat.=22.163389, lon.=103.759735, Alt.=590.102051m. Speed=17.136000m/h.</desc>
<speed>4.760000</speed>
</trkpt>
<trkpt lat="22.163197" lon="103.759842">
<ele>589.992676</ele>
<time>2011-04-25T08:28:00Z</time>
<desc>lat.=22.163197, lon.=103.759842, Alt.=589.992676m. Speed=17.280001m/h.</desc>
<speed>4.800000</speed>
</trkpt>
<trkpt lat="22.162987" lon="103.759911">
<ele>588.430176</ele>
<time>2011-04-25T08:28:05Z</time>
<desc>lat.=22.162987, lon.=103.759911, Alt.=588.430176m. Speed=15.876000m/h.</desc>
<speed>4.410000</speed>
</trkpt>
<trkpt lat="22.162788" lon="103.759911">
<ele>585.008301</ele>
<time>2011-04-25T08:28:10Z</time>
<desc>lat.=22.162788, lon.=103.759911, Alt.=585.008301m. Speed=16.704000m/h.</desc>
<speed>4.640000</speed>
</trkpt>
<trkpt lat="22.162552" lon="103.759972">
<ele>581.602051</ele>
<time>2011-04-25T08:28:15Z</time>
<desc>lat.=22.162552, lon.=103.759972, Alt.=581.602051m. Speed=20.304001m/h.</desc>
<speed>5.640000</speed>
</trkpt>
<trkpt lat="22.162327" lon="103.760162">
<ele>579.023926</ele>
<time>2011-04-25T08:28:20Z</time>
<desc>lat.=22.162327, lon.=103.760162, Alt.=579.023926m. Speed=24.587999m/h.</desc>
<speed>6.830000</speed>
</trkpt>
<trkpt lat="22.162146" lon="103.760468">
<ele>577.023926</ele>
<time>2011-04-25T08:28:25Z</time>
<desc>lat.=22.162146, lon.=103.760468, Alt.=577.023926m. Speed=29.268000m/h.</desc>
<speed>8.130000</speed>
</trkpt>
<trkpt lat="22.161934" lon="103.760841">
<ele>576.008301</ele>
<time>2011-04-25T08:28:30Z</time>
<desc>lat.=22.161934, lon.=103.760841, Alt.=576.008301m. Speed=31.752001m/h.</desc>
<speed>8.820000</speed>
</trkpt>
<trkpt lat="22.161751" lon="103.761246">
<ele>575.367676</ele>
<time>2011-04-25T08:28:35Z</time>
<desc>lat.=22.161751, lon.=103.761246, Alt.=575.367676m. Speed=30.888000m/h.</desc>
<speed>8.580000</speed>
</trkpt>
<trkpt lat="22.161572" lon="103.761589">
<ele>574.242676</ele>
<time>2011-04-25T08:28:40Z</time>
<desc>lat.=22.161572, lon.=103.761589, Alt.=574.242676m. Speed=28.440001m/h.</desc>
<speed>7.900000</speed>
</trkpt>
<trkpt lat="22.161413" lon="103.761917">
<ele>573.742676</ele>
<time>2011-04-25T08:28:45Z</time>
<desc>lat.=22.161413, lon.=103.761917, Alt.=573.742676m. Speed=26.927999m/h.</desc>
<speed>7.480000</speed>
</trkpt>
<trkpt lat="22.161255" lon="103.762238">
<ele>574.352051</ele>
<time>2011-04-25T08:28:50Z</time>
<desc>lat.=22.161255, lon.=103.762238, Alt.=574.352051m. Speed=24.983999m/h.</desc>
<speed>6.940000</speed>
</trkpt>
<trkpt lat="22.161100" lon="103.762543">
<ele>575.180176</ele>
<time>2011-04-25T08:28:55Z</time>
<desc>lat.=22.161100, lon.=103.762543, Alt.=575.180176m. Speed=25.236000m/h.</desc>
<speed>7.010000</speed>
</trkpt>
<trkpt lat="22.160944" lon="103.762825">
<ele>576.508301</ele>
<time>2011-04-25T08:29:00Z</time>
<desc>lat.=22.160944, lon.=103.762825, Alt.=576.508301m. Speed=20.844000m/h.</desc>
<speed>5.790000</speed>
</trkpt>
<trkpt lat="22.160789" lon="103.763039">
<ele>577.492676</ele>
<time>2011-04-25T08:29:05Z</time>
<desc>lat.=22.160789, lon.=103.763039, Alt.=577.492676m. Speed=19.332001m/h.</desc>
<speed>5.370000</speed>
</trkpt>
<trkpt lat="22.160576" lon="103.763191">
<ele>578.039551</ele>
<time>2011-04-25T08:29:10Z</time>
<desc>lat.=22.160576, lon.=103.763191, Alt.=578.039551m. Speed=19.980000m/h.</desc>
<speed>5.550000</speed>
</trkpt>
<trkpt lat="22.160309" lon="103.763237">
<ele>576.836426</ele>
<time>2011-04-25T08:29:15Z</time>
<desc>lat.=22.160309, lon.=103.763237, Alt.=576.836426m. Speed=22.535999m/h.</desc>
<speed>6.260000</speed>
</trkpt>
<trkpt lat="22.160015" lon="103.763237">
<ele>575.508301</ele>
<time>2011-04-25T08:29:20Z</time>
<desc>lat.=22.160015, lon.=103.763237, Alt.=575.508301m. Speed=22.572001m/h.</desc>
<speed>6.270000</speed>
</trkpt>
<trkpt lat="22.159740" lon="103.763115">
<ele>575.195801</ele>
<time>2011-04-25T08:29:25Z</time>
<desc>lat.=22.159740, lon.=103.763115, Alt.=575.195801m. Speed=24.983999m/h.</desc>
<speed>6.940000</speed>
</trkpt>
<trkpt lat="22.159483" lon="103.762924">
<ele>574.617676</ele>
<time>2011-04-25T08:29:30Z</time>
<desc>lat.=22.159483, lon.=103.762924, Alt.=574.617676m. Speed=24.912001m/h.</desc>
<speed>6.920000</speed>
</trkpt>
<trkpt lat="22.159235" lon="103.762726">
<ele>573.508301</ele>
<time>2011-04-25T08:29:35Z</time>
<desc>lat.=22.159235, lon.=103.762726, Alt.=573.508301m. Speed=23.148001m/h.</desc>
<speed>6.430000</speed>
</trkpt>
<trkpt lat="22.158985" lon="103.762566">
<ele>574.102051</ele>
<time>2011-04-25T08:29:40Z</time>
<desc>lat.=22.158985, lon.=103.762566, Alt.=574.102051m. Speed=21.492001m/h.</desc>
<speed>5.970000</speed>
</trkpt>
<trkpt lat="22.158714" lon="103.762489">
<ele>573.727051</ele>
<time>2011-04-25T08:29:45Z</time>
<desc>lat.=22.158714, lon.=103.762489, Alt.=573.727051m. Speed=22.032000m/h.</desc>
<speed>6.120000</speed>
</trkpt>
<trkpt lat="22.158421" lon="103.762520">
<ele>573.477051</ele>
<time>2011-04-25T08:29:50Z</time>
<desc>lat.=22.158421, lon.=103.762520, Alt.=573.477051m. Speed=22.860001m/h.</desc>
<speed>6.350000</speed>
</trkpt>
<trkpt lat="22.158133" lon="103.762604">
<ele>575.398926</ele>
<time>2011-04-25T08:29:55Z</time>
<desc>lat.=22.158133, lon.=103.762604, Alt.=575.398926m. Speed=23.112000m/h.</desc>
<speed>6.420000</speed>
</trkpt>
<trkpt lat="22.157848" lon="103.762718">
<ele>575.289551</ele>
<time>2011-04-25T08:30:00Z</time>
<desc>lat.=22.157848, lon.=103.762718, Alt.=575.289551m. Speed=23.796000m/h.</desc>
<speed>6.610000</speed>
</trkpt>
<trkpt lat="22.157585" lon="103.762848">
<ele>575.070801</ele>
<time>2011-04-25T08:30:05Z</time>
<desc>lat.=22.157585, lon.=103.762848, Alt.=575.070801m. Speed=21.600000m/h.</desc>
<speed>6.000000</speed>
</trkpt>
<trkpt lat="22.157364" lon="103.762993">
<ele>575.117676</ele>
<time>2011-04-25T08:30:10Z</time>
<desc>lat.=22.157364, lon.=103.762993, Alt.=575.117676m. Speed=22.572001m/h.</desc>
<speed>6.270000</speed>
</trkpt>
<trkpt lat="22.157129" lon="103.763145">
<ele>575.086426</ele>
<time>2011-04-25T08:30:15Z</time>
<desc>lat.=22.157129, lon.=103.763145, Alt.=575.086426m. Speed=21.996000m/h.</desc>
<speed>6.110000</speed>
</trkpt>
<trkpt lat="22.156897" lon="103.763313">
<ele>574.977051</ele>
<time>2011-04-25T08:30:20Z</time>
<desc>lat.=22.156897, lon.=103.763313, Alt.=574.977051m. Speed=21.743999m/h.</desc>
<speed>6.040000</speed>
</trkpt>
<trkpt lat="22.156675" lon="103.763481">
<ele>575.305176</ele>
<time>2011-04-25T08:30:25Z</time>
<desc>lat.=22.156675, lon.=103.763481, Alt.=575.305176m. Speed=19.728001m/h.</desc>
<speed>5.480000</speed>
</trkpt>
<trkpt lat="22.156477" lon="103.763649">
<ele>576.211426</ele>
<time>2011-04-25T08:30:30Z</time>
<desc>lat.=22.156477, lon.=103.763649, Alt.=576.211426m. Speed=18.360001m/h.</desc>
<speed>5.100000</speed>
</trkpt>
<trkpt lat="22.156305" lon="103.763802">
<ele>577.289551</ele>
<time>2011-04-25T08:30:35Z</time>
<desc>lat.=22.156305, lon.=103.763802, Alt.=577.289551m. Speed=16.740000m/h.</desc>
<speed>4.650000</speed>
</trkpt>
<trkpt lat="22.156149" lon="103.763931">
<ele>578.883301</ele>
<time>2011-04-25T08:30:40Z</time>
<desc>lat.=22.156149, lon.=103.763931, Alt.=578.883301m. Speed=14.940000m/h.</desc>
<speed>4.150000</speed>
</trkpt>
<trkpt lat="22.155987" lon="103.764038">
<ele>580.352051</ele>
<time>2011-04-25T08:30:45Z</time>
<desc>lat.=22.155987, lon.=103.764038, Alt.=580.352051m. Speed=10.800000m/h.</desc>
<speed>3.000000</speed>
</trkpt>
<trkpt lat="22.155844" lon="103.764084">
<ele>580.898926</ele>
<time>2011-04-25T08:30:50Z</time>
<desc>lat.=22.155844, lon.=103.764084, Alt.=580.898926m. Speed=10.152000m/h.</desc>
<speed>2.820000</speed>
</trkpt>
<trkpt lat="22.155724" lon="103.764137">
<ele>582.492676</ele>
<time>2011-04-25T08:30:55Z</time>
<desc>lat.=22.155724, lon.=103.764137, Alt.=582.492676m. Speed=8.604000m/h.</desc>
<speed>2.390000</speed>
</trkpt>
<trkpt lat="22.155645" lon="103.764214">
<ele>585.008301</ele>
<time>2011-04-25T08:31:00Z</time>
<desc>lat.=22.155645, lon.=103.764214, Alt.=585.008301m. Speed=8.640000m/h.</desc>
<speed>2.400000</speed>
</trkpt>
<trkpt lat="22.155537" lon="103.764328">
<ele>585.602051</ele>
<time>2011-04-25T08:31:05Z</time>
<desc>lat.=22.155537, lon.=103.764328, Alt.=585.602051m. Speed=8.928000m/h.</desc>
<speed>2.480000</speed>
</trkpt>
<trkpt lat="22.155437" lon="103.764389">
<ele>586.742676</ele>
<time>2011-04-25T08:31:10Z</time>
<desc>lat.=22.155437, lon.=103.764389, Alt.=586.742676m. Speed=8.100000m/h.</desc>
<speed>2.250000</speed>
</trkpt>
<trkpt lat="22.155348" lon="103.764450">
<ele>584.602051</ele>
<time>2011-04-25T08:31:15Z</time>
<desc>lat.=22.155348, lon.=103.764450, Alt.=584.602051m. Speed=7.848000m/h.</desc>
<speed>2.180000</speed>
</trkpt>
<trkpt lat="22.155268" lon="103.764534">
<ele>584.492676</ele>
<time>2011-04-25T08:31:20Z</time>
<desc>lat.=22.155268, lon.=103.764534, Alt.=584.492676m. Speed=7.596000m/h.</desc>
<speed>2.110000</speed>
</trkpt>
<trkpt lat="22.155180" lon="103.764610">
<ele>583.758301</ele>
<time>2011-04-25T08:31:25Z</time>
<desc>lat.=22.155180, lon.=103.764610, Alt.=583.758301m. Speed=9.576000m/h.</desc>
<speed>2.660000</speed>
</trkpt>
<trkpt lat="22.155066" lon="103.764694">
<ele>585.320801</ele>
<time>2011-04-25T08:31:30Z</time>
<desc>lat.=22.155066, lon.=103.764694, Alt.=585.320801m. Speed=10.944000m/h.</desc>
<speed>3.040000</speed>
</trkpt>
<trkpt lat="22.154945" lon="103.764778">
<ele>585.930176</ele>
<time>2011-04-25T08:31:35Z</time>
<desc>lat.=22.154945, lon.=103.764778, Alt.=585.930176m. Speed=12.168000m/h.</desc>
<speed>3.380000</speed>
</trkpt>
<trkpt lat="22.154797" lon="103.764862">
<ele>586.977051</ele>
<time>2011-04-25T08:31:40Z</time>
<desc>lat.=22.154797, lon.=103.764862, Alt.=586.977051m. Speed=12.348000m/h.</desc>
<speed>3.430000</speed>
</trkpt>
<trkpt lat="22.154657" lon="103.764946">
<ele>586.383301</ele>
<time>2011-04-25T08:31:45Z</time>
<desc>lat.=22.154657, lon.=103.764946, Alt.=586.383301m. Speed=12.420000m/h.</desc>
<speed>3.450000</speed>
</trkpt>
<trkpt lat="22.154560" lon="103.765068">
<ele>585.602051</ele>
<time>2011-04-25T08:31:50Z</time>
<desc>lat.=22.154560, lon.=103.765068, Alt.=585.602051m. Speed=10.152000m/h.</desc>
<speed>2.820000</speed>
</trkpt>
<trkpt lat="22.154495" lon="103.765205">
<ele>584.789551</ele>
<time>2011-04-25T08:31:55Z</time>
<desc>lat.=22.154495, lon.=103.765205, Alt.=584.789551m. Speed=11.808000m/h.</desc>
<speed>3.280000</speed>
</trkpt>
<trkpt lat="22.154463" lon="103.765373">
<ele>579.305176</ele>
<time>2011-04-25T08:32:00Z</time>
<desc>lat.=22.154463, lon.=103.765373, Alt.=579.305176m. Speed=11.556000m/h.</desc>
<speed>3.210000</speed>
</trkpt>
<trkpt lat="22.154444" lon="103.765549">
<ele>580.367676</ele>
<time>2011-04-25T08:32:05Z</time>
<desc>lat.=22.154444, lon.=103.765549, Alt.=580.367676m. Speed=12.132000m/h.</desc>
<speed>3.370000</speed>
</trkpt>
<trkpt lat="22.154432" lon="103.765755">
<ele>578.961426</ele>
<time>2011-04-25T08:32:10Z</time>
<desc>lat.=22.154432, lon.=103.765755, Alt.=578.961426m. Speed=14.220000m/h.</desc>
<speed>3.950000</speed>
</trkpt>
<trkpt lat="22.154440" lon="103.765953">
<ele>578.805176</ele>
<time>2011-04-25T08:32:15Z</time>
<desc>lat.=22.154440, lon.=103.765953, Alt.=578.805176m. Speed=12.996000m/h.</desc>
<speed>3.610000</speed>
</trkpt>
<trkpt lat="22.154432" lon="103.766129">
<ele>579.773926</ele>
<time>2011-04-25T08:32:20Z</time>
<desc>lat.=22.154432, lon.=103.766129, Alt.=579.773926m. Speed=11.304000m/h.</desc>
<speed>3.140000</speed>
</trkpt>
<trkpt lat="22.154438" lon="103.766304">
<ele>579.664551</ele>
<time>2011-04-25T08:32:25Z</time>
<desc>lat.=22.154438, lon.=103.766304, Alt.=579.664551m. Speed=11.340000m/h.</desc>
<speed>3.150000</speed>
</trkpt>
<trkpt lat="22.154440" lon="103.766464">
<ele>580.898926</ele>
<time>2011-04-25T08:32:30Z</time>
<desc>lat.=22.154440, lon.=103.766464, Alt.=580.898926m. Speed=10.548000m/h.</desc>
<speed>2.930000</speed>
</trkpt>
<trkpt lat="22.154442" lon="103.766617">
<ele>581.961426</ele>
<time>2011-04-25T08:32:35Z</time>
<desc>lat.=22.154442, lon.=103.766617, Alt.=581.961426m. Speed=10.692000m/h.</desc>
<speed>2.970000</speed>
</trkpt>
<trkpt lat="22.154440" lon="103.766754">
<ele>582.805176</ele>
<time>2011-04-25T08:32:40Z</time>
<desc>lat.=22.154440, lon.=103.766754, Alt.=582.805176m. Speed=9.000000m/h.</desc>
<speed>2.500000</speed>
</trkpt>
<trkpt lat="22.154390" lon="103.766907">
<ele>587.867676</ele>
<time>2011-04-25T08:32:45Z</time>
<desc>lat.=22.154390, lon.=103.766907, Alt.=587.867676m. Speed=9.180000m/h.</desc>
<speed>2.550000</speed>
</trkpt>
<trkpt lat="22.154392" lon="103.767036">
<ele>589.195801</ele>
<time>2011-04-25T08:32:50Z</time>
<desc>lat.=22.154392, lon.=103.767036, Alt.=589.195801m. Speed=8.676000m/h.</desc>
<speed>2.410000</speed>
</trkpt>
<trkpt lat="22.154392" lon="103.767159">
<ele>589.898926</ele>
<time>2011-04-25T08:32:55Z</time>
<desc>lat.=22.154392, lon.=103.767159, Alt.=589.898926m. Speed=8.316000m/h.</desc>
<speed>2.310000</speed>
</trkpt>
<trkpt lat="22.154392" lon="103.767273">
<ele>590.492676</ele>
<time>2011-04-25T08:33:00Z</time>
<desc>lat.=22.154392, lon.=103.767273, Alt.=590.492676m. Speed=7.272000m/h.</desc>
<speed>2.020000</speed>
</trkpt>
<trkpt lat="22.154392" lon="103.767380">
<ele>591.148926</ele>
<time>2011-04-25T08:33:05Z</time>
<desc>lat.=22.154392, lon.=103.767380, Alt.=591.148926m. Speed=8.136000m/h.</desc>
<speed>2.260000</speed>
</trkpt>
<trkpt lat="22.154387" lon="103.767494">
<ele>591.633301</ele>
<time>2011-04-25T08:33:10Z</time>
<desc>lat.=22.154387, lon.=103.767494, Alt.=591.633301m. Speed=8.820000m/h.</desc>
<speed>2.450000</speed>
</trkpt>
<trkpt lat="22.154385" lon="103.767601">
<ele>592.180176</ele>
<time>2011-04-25T08:33:15Z</time>
<desc>lat.=22.154385, lon.=103.767601, Alt.=592.180176m. Speed=8.460000m/h.</desc>
<speed>2.350000</speed>
</trkpt>
<trkpt lat="22.154392" lon="103.767715">
<ele>592.633301</ele>
<time>2011-04-25T08:33:20Z</time>
<desc>lat.=22.154392, lon.=103.767715, Alt.=592.633301m. Speed=8.928000m/h.</desc>
<speed>2.480000</speed>
</trkpt>
<trkpt lat="22.154394" lon="103.767838">
<ele>592.164551</ele>
<time>2011-04-25T08:33:25Z</time>
<desc>lat.=22.154394, lon.=103.767838, Alt.=592.164551m. Speed=9.540000m/h.</desc>
<speed>2.650000</speed>
</trkpt>
<trkpt lat="22.154385" lon="103.767990">
<ele>591.523926</ele>
<time>2011-04-25T08:33:30Z</time>
<desc>lat.=22.154385, lon.=103.767990, Alt.=591.523926m. Speed=11.664000m/h.</desc>
<speed>3.240000</speed>
</trkpt>
<trkpt lat="22.154379" lon="103.768150">
<ele>591.570801</ele>
<time>2011-04-25T08:33:35Z</time>
<desc>lat.=22.154379, lon.=103.768150, Alt.=591.570801m. Speed=13.068000m/h.</desc>
<speed>3.630000</speed>
</trkpt>
<trkpt lat="22.154375" lon="103.768318">
<ele>591.992676</ele>
<time>2011-04-25T08:33:40Z</time>
<desc>lat.=22.154375, lon.=103.768318, Alt.=591.992676m. Speed=11.484000m/h.</desc>
<speed>3.190000</speed>
</trkpt>
<trkpt lat="22.154379" lon="103.768478">
<ele>592.805176</ele>
<time>2011-04-25T08:33:45Z</time>
<desc>lat.=22.154379, lon.=103.768478, Alt.=592.805176m. Speed=12.528000m/h.</desc>
<speed>3.480000</speed>
</trkpt>
<trkpt lat="22.154385" lon="103.768654">
<ele>593.180176</ele>
<time>2011-04-25T08:33:50Z</time>
<desc>lat.=22.154385, lon.=103.768654, Alt.=593.180176m. Speed=13.572000m/h.</desc>
<speed>3.770000</speed>
</trkpt>
<trkpt lat="22.154383" lon="103.768829">
<ele>593.227051</ele>
<time>2011-04-25T08:33:55Z</time>
<desc>lat.=22.154383, lon.=103.768829, Alt.=593.227051m. Speed=12.996000m/h.</desc>
<speed>3.610000</speed>
</trkpt>
<trkpt lat="22.154373" lon="103.769005">
<ele>593.758301</ele>
<time>2011-04-25T08:34:00Z</time>
<desc>lat.=22.154373, lon.=103.769005, Alt.=593.758301m. Speed=12.780000m/h.</desc>
<speed>3.550000</speed>
</trkpt>
<trkpt lat="22.154348" lon="103.769157">
<ele>594.055176</ele>
<time>2011-04-25T08:34:05Z</time>
<desc>lat.=22.154348, lon.=103.769157, Alt.=594.055176m. Speed=7.884000m/h.</desc>
<speed>2.190000</speed>
</trkpt>
<trkpt lat="22.154327" lon="103.769264">
<ele>594.789551</ele>
<time>2011-04-25T08:34:10Z</time>
<desc>lat.=22.154327, lon.=103.769264, Alt.=594.789551m. Speed=6.624000m/h.</desc>
<speed>1.840000</speed>
</trkpt>
<trkpt lat="22.154291" lon="103.769363">
<ele>595.414551</ele>
<time>2011-04-25T08:34:15Z</time>
<desc>lat.=22.154291, lon.=103.769363, Alt.=595.414551m. Speed=6.408000m/h.</desc>
<speed>1.780000</speed>
</trkpt>
<trkpt lat="22.154259" lon="103.769493">
<ele>595.086426</ele>
<time>2011-04-25T08:34:20Z</time>
<desc>lat.=22.154259, lon.=103.769493, Alt.=595.086426m. Speed=8.496000m/h.</desc>
<speed>2.360000</speed>
</trkpt>
<trkpt lat="22.154222" lon="103.769608">
<ele>594.945801</ele>
<time>2011-04-25T08:34:25Z</time>
<desc>lat.=22.154222, lon.=103.769608, Alt.=594.945801m. Speed=8.424000m/h.</desc>
<speed>2.340000</speed>
</trkpt>
<trkpt lat="22.154182" lon="103.769699">
<ele>594.180176</ele>
<time>2011-04-25T08:34:30Z</time>
<desc>lat.=22.154182, lon.=103.769699, Alt.=594.180176m. Speed=7.380000m/h.</desc>
<speed>2.050000</speed>
</trkpt>
<trkpt lat="22.154142" lon="103.769821">
<ele>592.148926</ele>
<time>2011-04-25T08:34:35Z</time>
<desc>lat.=22.154142, lon.=103.769821, Alt.=592.148926m. Speed=8.424000m/h.</desc>
<speed>2.340000</speed>
</trkpt>
<trkpt lat="22.154078" lon="103.769958">
<ele>592.320801</ele>
<time>2011-04-25T08:34:40Z</time>
<desc>lat.=22.154078, lon.=103.769958, Alt.=592.320801m. Speed=13.500000m/h.</desc>
<speed>3.750000</speed>
</trkpt>
<trkpt lat="22.153969" lon="103.770134">
<ele>592.523926</ele>
<time>2011-04-25T08:34:45Z</time>
<desc>lat.=22.153969, lon.=103.770134, Alt.=592.523926m. Speed=15.156000m/h.</desc>
<speed>4.210000</speed>
</trkpt>
<trkpt lat="22.153841" lon="103.770325">
<ele>594.820801</ele>
<time>2011-04-25T08:34:50Z</time>
<desc>lat.=22.153841, lon.=103.770325, Alt.=594.820801m. Speed=15.552000m/h.</desc>
<speed>4.320000</speed>
</trkpt>
<trkpt lat="22.153723" lon="103.770523">
<ele>595.602051</ele>
<time>2011-04-25T08:34:55Z</time>
<desc>lat.=22.153723, lon.=103.770523, Alt.=595.602051m. Speed=16.848000m/h.</desc>
<speed>4.680000</speed>
</trkpt>
<trkpt lat="22.153610" lon="103.770683">
<ele>596.430176</ele>
<time>2011-04-25T08:35:00Z</time>
<desc>lat.=22.153610, lon.=103.770683, Alt.=596.430176m. Speed=12.384000m/h.</desc>
<speed>3.440000</speed>
</trkpt>
<trkpt lat="22.153540" lon="103.770813">
<ele>597.836426</ele>
<time>2011-04-25T08:35:05Z</time>
<desc>lat.=22.153540, lon.=103.770813, Alt.=597.836426m. Speed=9.396000m/h.</desc>
<speed>2.610000</speed>
</trkpt>
<trkpt lat="22.153471" lon="103.770912">
<ele>599.117676</ele>
<time>2011-04-25T08:35:10Z</time>
<desc>lat.=22.153471, lon.=103.770912, Alt.=599.117676m. Speed=7.776000m/h.</desc>
<speed>2.160000</speed>
</trkpt>
<trkpt lat="22.153406" lon="103.771019">
<ele>600.930176</ele>
<time>2011-04-25T08:35:15Z</time>
<desc>lat.=22.153406, lon.=103.771019, Alt.=600.930176m. Speed=9.108000m/h.</desc>
<speed>2.530000</speed>
</trkpt>
<trkpt lat="22.153349" lon="103.771103">
<ele>602.430176</ele>
<time>2011-04-25T08:35:20Z</time>
<desc>lat.=22.153349, lon.=103.771103, Alt.=602.430176m. Speed=8.496000m/h.</desc>
<speed>2.360000</speed>
</trkpt>
<trkpt lat="22.153278" lon="103.771187">
<ele>604.289551</ele>
<time>2011-04-25T08:35:25Z</time>
<desc>lat.=22.153278, lon.=103.771187, Alt.=604.289551m. Speed=7.992000m/h.</desc>
<speed>2.220000</speed>
</trkpt>
<trkpt lat="22.153225" lon="103.771255">
<ele>605.867676</ele>
<time>2011-04-25T08:35:30Z</time>
<desc>lat.=22.153225, lon.=103.771255, Alt.=605.867676m. Speed=6.300000m/h.</desc>
<speed>1.750000</speed>
</trkpt>
<trkpt lat="22.153172" lon="103.771355">
<ele>606.258301</ele>
<time>2011-04-25T08:35:35Z</time>
<desc>lat.=22.153172, lon.=103.771355, Alt.=606.258301m. Speed=7.632000m/h.</desc>
<speed>2.120000</speed>
</trkpt>
<trkpt lat="22.153099" lon="103.771439">
<ele>605.352051</ele>
<time>2011-04-25T08:35:40Z</time>
<desc>lat.=22.153099, lon.=103.771439, Alt.=605.352051m. Speed=7.812000m/h.</desc>
<speed>2.170000</speed>
</trkpt>
<trkpt lat="22.153046" lon="103.771545">
<ele>602.852051</ele>
<time>2011-04-25T08:35:45Z</time>
<desc>lat.=22.153046, lon.=103.771545, Alt.=602.852051m. Speed=9.360000m/h.</desc>
<speed>2.600000</speed>
</trkpt>
<trkpt lat="22.152958" lon="103.771652">
<ele>602.695801</ele>
<time>2011-04-25T08:35:50Z</time>
<desc>lat.=22.152958, lon.=103.771652, Alt.=602.695801m. Speed=11.484000m/h.</desc>
<speed>3.190000</speed>
</trkpt>
<trkpt lat="22.152855" lon="103.771797">
<ele>599.602051</ele>
<time>2011-04-25T08:35:55Z</time>
<desc>lat.=22.152855, lon.=103.771797, Alt.=599.602051m. Speed=12.636000m/h.</desc>
<speed>3.510000</speed>
</trkpt>
<trkpt lat="22.152735" lon="103.772003">
<ele>596.961426</ele>
<time>2011-04-25T08:36:00Z</time>
<desc>lat.=22.152735, lon.=103.772003, Alt.=596.961426m. Speed=17.747999m/h.</desc>
<speed>4.930000</speed>
</trkpt>
<trkpt lat="22.152607" lon="103.772247">
<ele>596.336426</ele>
<time>2011-04-25T08:36:05Z</time>
<desc>lat.=22.152607, lon.=103.772247, Alt.=596.336426m. Speed=18.684000m/h.</desc>
<speed>5.190000</speed>
</trkpt>
<trkpt lat="22.152493" lon="103.772438">
<ele>594.492676</ele>
<time>2011-04-25T08:36:10Z</time>
<desc>lat.=22.152493, lon.=103.772438, Alt.=594.492676m. Speed=14.076000m/h.</desc>
<speed>3.910000</speed>
</trkpt>
<trkpt lat="22.152374" lon="103.772583">
<ele>594.352051</ele>
<time>2011-04-25T08:36:15Z</time>
<desc>lat.=22.152374, lon.=103.772583, Alt.=594.352051m. Speed=12.456000m/h.</desc>
<speed>3.460000</speed>
</trkpt>
<trkpt lat="22.152271" lon="103.772766">
<ele>595.758301</ele>
<time>2011-04-25T08:36:20Z</time>
<desc>lat.=22.152271, lon.=103.772766, Alt.=595.758301m. Speed=12.744000m/h.</desc>
<speed>3.540000</speed>
</trkpt>
<trkpt lat="22.152174" lon="103.772911">
<ele>596.195801</ele>
<time>2011-04-25T08:36:25Z</time>
<desc>lat.=22.152174, lon.=103.772911, Alt.=596.195801m. Speed=11.844000m/h.</desc>
<speed>3.290000</speed>
</trkpt>
<trkpt lat="22.152073" lon="103.773079">
<ele>596.008301</ele>
<time>2011-04-25T08:36:30Z</time>
<desc>lat.=22.152073, lon.=103.773079, Alt.=596.008301m. Speed=12.492000m/h.</desc>
<speed>3.470000</speed>
</trkpt>
<trkpt lat="22.151974" lon="103.773254">
<ele>594.773926</ele>
<time>2011-04-25T08:36:35Z</time>
<desc>lat.=22.151974, lon.=103.773254, Alt.=594.773926m. Speed=11.556000m/h.</desc>
<speed>3.210000</speed>
</trkpt>
<trkpt lat="22.151878" lon="103.773384">
<ele>597.117676</ele>
<time>2011-04-25T08:36:40Z</time>
<desc>lat.=22.151878, lon.=103.773384, Alt.=597.117676m. Speed=8.244000m/h.</desc>
<speed>2.290000</speed>
</trkpt>
<trkpt lat="22.151777" lon="103.773521">
<ele>598.133301</ele>
<time>2011-04-25T08:36:45Z</time>
<desc>lat.=22.151777, lon.=103.773521, Alt.=598.133301m. Speed=10.872000m/h.</desc>
<speed>3.020000</speed>
</trkpt>
<trkpt lat="22.151651" lon="103.773659">
<ele>604.352051</ele>
<time>2011-04-25T08:36:50Z</time>
<desc>lat.=22.151651, lon.=103.773659, Alt.=604.352051m. Speed=10.548000m/h.</desc>
<speed>2.930000</speed>
</trkpt>
<trkpt lat="22.151512" lon="103.773788">
<ele>607.523926</ele>
<time>2011-04-25T08:36:55Z</time>
<desc>lat.=22.151512, lon.=103.773788, Alt.=607.523926m. Speed=11.592000m/h.</desc>
<speed>3.220000</speed>
</trkpt>
<trkpt lat="22.151377" lon="103.773880">
<ele>608.633301</ele>
<time>2011-04-25T08:37:00Z</time>
<desc>lat.=22.151377, lon.=103.773880, Alt.=608.633301m. Speed=12.672000m/h.</desc>
<speed>3.520000</speed>
</trkpt>
<trkpt lat="22.151247" lon="103.774002">
<ele>606.992676</ele>
<time>2011-04-25T08:37:05Z</time>
<desc>lat.=22.151247, lon.=103.774002, Alt.=606.992676m. Speed=10.728000m/h.</desc>
<speed>2.980000</speed>
</trkpt>
<trkpt lat="22.151121" lon="103.774117">
<ele>608.945801</ele>
<time>2011-04-25T08:37:10Z</time>
<desc>lat.=22.151121, lon.=103.774117, Alt.=608.945801m. Speed=10.872000m/h.</desc>
<speed>3.020000</speed>
</trkpt>
<trkpt lat="22.150995" lon="103.774193">
<ele>608.195801</ele>
<time>2011-04-25T08:37:15Z</time>
<desc>lat.=22.150995, lon.=103.774193, Alt.=608.195801m. Speed=12.564000m/h.</desc>
<speed>3.490000</speed>
</trkpt>
<trkpt lat="22.150803" lon="103.774307">
<ele>607.555176</ele>
<time>2011-04-25T08:37:20Z</time>
<desc>lat.=22.150803, lon.=103.774307, Alt.=607.555176m. Speed=21.024000m/h.</desc>
<speed>5.840000</speed>
</trkpt>
<trkpt lat="22.150545" lon="103.774506">
<ele>603.570801</ele>
<time>2011-04-25T08:37:25Z</time>
<desc>lat.=22.150545, lon.=103.774506, Alt.=603.570801m. Speed=28.620001m/h.</desc>
<speed>7.950000</speed>
</trkpt>
<trkpt lat="22.150208" lon="103.774765">
<ele>600.242676</ele>
<time>2011-04-25T08:37:30Z</time>
<desc>lat.=22.150208, lon.=103.774765, Alt.=600.242676m. Speed=35.604000m/h.</desc>
<speed>9.890000</speed>
</trkpt>
<trkpt lat="22.149796" lon="103.775070">
<ele>599.680176</ele>
<time>2011-04-25T08:37:35Z</time>
<desc>lat.=22.149796, lon.=103.775070, Alt.=599.680176m. Speed=40.320000m/h.</desc>
<speed>11.200000</speed>
</trkpt>
<trkpt lat="22.149385" lon="103.775398">
<ele>599.289551</ele>
<time>2011-04-25T08:37:40Z</time>
<desc>lat.=22.149385, lon.=103.775398, Alt.=599.289551m. Speed=36.683998m/h.</desc>
<speed>10.189999</speed>
</trkpt>
<trkpt lat="22.149027" lon="103.775658">
<ele>598.977051</ele>
<time>2011-04-25T08:37:45Z</time>
<desc>lat.=22.149027, lon.=103.775658, Alt.=598.977051m. Speed=31.535999m/h.</desc>
<speed>8.760000</speed>
</trkpt>
<trkpt lat="22.148712" lon="103.775887">
<ele>598.555176</ele>
<time>2011-04-25T08:37:50Z</time>
<desc>lat.=22.148712, lon.=103.775887, Alt.=598.555176m. Speed=27.072001m/h.</desc>
<speed>7.520000</speed>
</trkpt>
<trkpt lat="22.148451" lon="103.776085">
<ele>600.211426</ele>
<time>2011-04-25T08:37:55Z</time>
<desc>lat.=22.148451, lon.=103.776085, Alt.=600.211426m. Speed=24.480000m/h.</desc>
<speed>6.800000</speed>
</trkpt>
<trkpt lat="22.148188" lon="103.776291">
<ele>603.102051</ele>
<time>2011-04-25T08:38:00Z</time>
<desc>lat.=22.148188, lon.=103.776291, Alt.=603.102051m. Speed=24.660000m/h.</desc>
<speed>6.850000</speed>
</trkpt>
<trkpt lat="22.147909" lon="103.776451">
<ele>602.461426</ele>
<time>2011-04-25T08:38:05Z</time>
<desc>lat.=22.147909, lon.=103.776451, Alt.=602.461426m. Speed=23.580000m/h.</desc>
<speed>6.550000</speed>
</trkpt>
<trkpt lat="22.147682" lon="103.776619">
<ele>604.258301</ele>
<time>2011-04-25T08:38:10Z</time>
<desc>lat.=22.147682, lon.=103.776619, Alt.=604.258301m. Speed=19.548000m/h.</desc>
<speed>5.430000</speed>
</trkpt>
<trkpt lat="22.147497" lon="103.776756">
<ele>605.070801</ele>
<time>2011-04-25T08:38:15Z</time>
<desc>lat.=22.147497, lon.=103.776756, Alt.=605.070801m. Speed=19.440001m/h.</desc>
<speed>5.400000</speed>
</trkpt>
<trkpt lat="22.147329" lon="103.776924">
<ele>603.695801</ele>
<time>2011-04-25T08:38:20Z</time>
<desc>lat.=22.147329, lon.=103.776924, Alt.=603.695801m. Speed=17.028000m/h.</desc>
<speed>4.730000</speed>
</trkpt>
<trkpt lat="22.147211" lon="103.777107">
<ele>603.961426</ele>
<time>2011-04-25T08:38:25Z</time>
<desc>lat.=22.147211, lon.=103.777107, Alt.=603.961426m. Speed=13.716000m/h.</desc>
<speed>3.810000</speed>
</trkpt>
<trkpt lat="22.147076" lon="103.777298">
<ele>603.445801</ele>
<time>2011-04-25T08:38:30Z</time>
<desc>lat.=22.147076, lon.=103.777298, Alt.=603.445801m. Speed=17.028000m/h.</desc>
<speed>4.730000</speed>
</trkpt>
<trkpt lat="22.146887" lon="103.777473">
<ele>603.117676</ele>
<time>2011-04-25T08:38:35Z</time>
<desc>lat.=22.146887, lon.=103.777473, Alt.=603.117676m. Speed=18.180000m/h.</desc>
<speed>5.050000</speed>
</trkpt>
<trkpt lat="22.146669" lon="103.777565">
<ele>606.320801</ele>
<time>2011-04-25T08:38:40Z</time>
<desc>lat.=22.146669, lon.=103.777565, Alt.=606.320801m. Speed=16.056000m/h.</desc>
<speed>4.460000</speed>
</trkpt>
<trkpt lat="22.146444" lon="103.777664">
<ele>607.086426</ele>
<time>2011-04-25T08:38:45Z</time>
<desc>lat.=22.146444, lon.=103.777664, Alt.=607.086426m. Speed=19.403999m/h.</desc>
<speed>5.390000</speed>
</trkpt>
<trkpt lat="22.146206" lon="103.777802">
<ele>608.070801</ele>
<time>2011-04-25T08:38:50Z</time>
<desc>lat.=22.146206, lon.=103.777802, Alt.=608.070801m. Speed=19.188000m/h.</desc>
<speed>5.330000</speed>
</trkpt>
<trkpt lat="22.146088" lon="103.778053">
<ele>608.758301</ele>
<time>2011-04-25T08:38:55Z</time>
<desc>lat.=22.146088, lon.=103.778053, Alt.=608.758301m. Speed=20.448000m/h.</desc>
<speed>5.680000</speed>
</trkpt>
<trkpt lat="22.145933" lon="103.778267">
<ele>605.039551</ele>
<time>2011-04-25T08:39:00Z</time>
<desc>lat.=22.145933, lon.=103.778267, Alt.=605.039551m. Speed=18.612000m/h.</desc>
<speed>5.170000</speed>
</trkpt>
<trkpt lat="22.145716" lon="103.778549">
<ele>605.445801</ele>
<time>2011-04-25T08:39:05Z</time>
<desc>lat.=22.145716, lon.=103.778549, Alt.=605.445801m. Speed=23.040001m/h.</desc>
<speed>6.400000</speed>
</trkpt>
<trkpt lat="22.145512" lon="103.778816">
<ele>605.477051</ele>
<time>2011-04-25T08:39:10Z</time>
<desc>lat.=22.145512, lon.=103.778816, Alt.=605.477051m. Speed=21.455999m/h.</desc>
<speed>5.960000</speed>
</trkpt>
<trkpt lat="22.145294" lon="103.779022">
<ele>603.836426</ele>
<time>2011-04-25T08:39:15Z</time>
<desc>lat.=22.145294, lon.=103.779022, Alt.=603.836426m. Speed=22.176001m/h.</desc>
<speed>6.160000</speed>
</trkpt>
<trkpt lat="22.145081" lon="103.779236">
<ele>603.430176</ele>
<time>2011-04-25T08:39:20Z</time>
<desc>lat.=22.145081, lon.=103.779236, Alt.=603.430176m. Speed=23.580000m/h.</desc>
<speed>6.550000</speed>
</trkpt>
<trkpt lat="22.144867" lon="103.779457">
<ele>602.242676</ele>
<time>2011-04-25T08:39:25Z</time>
<desc>lat.=22.144867, lon.=103.779457, Alt.=602.242676m. Speed=22.752001m/h.</desc>
<speed>6.320000</speed>
</trkpt>
<trkpt lat="22.144629" lon="103.779625">
<ele>601.727051</ele>
<time>2011-04-25T08:39:30Z</time>
<desc>lat.=22.144629, lon.=103.779625, Alt.=601.727051m. Speed=19.980000m/h.</desc>
<speed>5.550000</speed>
</trkpt>
<trkpt lat="22.144394" lon="103.779663">
<ele>602.617676</ele>
<time>2011-04-25T08:39:35Z</time>
<desc>lat.=22.144394, lon.=103.779663, Alt.=602.617676m. Speed=16.020000m/h.</desc>
<speed>4.450000</speed>
</trkpt>
<trkpt lat="22.144180" lon="103.779678">
<ele>603.727051</ele>
<time>2011-04-25T08:39:40Z</time>
<desc>lat.=22.144180, lon.=103.779678, Alt.=603.727051m. Speed=17.784000m/h.</desc>
<speed>4.940000</speed>
</trkpt>
<trkpt lat="22.143934" lon="103.779709">
<ele>606.133301</ele>
<time>2011-04-25T08:39:45Z</time>
<desc>lat.=22.143934, lon.=103.779709, Alt.=606.133301m. Speed=18.612000m/h.</desc>
<speed>5.170000</speed>
</trkpt>
<trkpt lat="22.143711" lon="103.779747">
<ele>605.555176</ele>
<time>2011-04-25T08:39:50Z</time>
<desc>lat.=22.143711, lon.=103.779747, Alt.=605.555176m. Speed=16.596001m/h.</desc>
<speed>4.610000</speed>
</trkpt>
<trkpt lat="22.143503" lon="103.779793">
<ele>604.789551</ele>
<time>2011-04-25T08:39:55Z</time>
<desc>lat.=22.143503, lon.=103.779793, Alt.=604.789551m. Speed=16.740000m/h.</desc>
<speed>4.650000</speed>
</trkpt>
<trkpt lat="22.143290" lon="103.779869">
<ele>604.992676</ele>
<time>2011-04-25T08:40:00Z</time>
<desc>lat.=22.143290, lon.=103.779869, Alt.=604.992676m. Speed=17.496000m/h.</desc>
<speed>4.860000</speed>
</trkpt>
<trkpt lat="22.143068" lon="103.779961">
<ele>606.133301</ele>
<time>2011-04-25T08:40:05Z</time>
<desc>lat.=22.143068, lon.=103.779961, Alt.=606.133301m. Speed=17.747999m/h.</desc>
<speed>4.930000</speed>
</trkpt>
<trkpt lat="22.142878" lon="103.780037">
<ele>608.727051</ele>
<time>2011-04-25T08:40:10Z</time>
<desc>lat.=22.142878, lon.=103.780037, Alt.=608.727051m. Speed=15.408000m/h.</desc>
<speed>4.280000</speed>
</trkpt>
<trkpt lat="22.142714" lon="103.780151">
<ele>608.836426</ele>
<time>2011-04-25T08:40:15Z</time>
<desc>lat.=22.142714, lon.=103.780151, Alt.=608.836426m. Speed=15.408000m/h.</desc>
<speed>4.280000</speed>
</trkpt>
<trkpt lat="22.142548" lon="103.780304">
<ele>607.258301</ele>
<time>2011-04-25T08:40:20Z</time>
<desc>lat.=22.142548, lon.=103.780304, Alt.=607.258301m. Speed=16.632000m/h.</desc>
<speed>4.620000</speed>
</trkpt>
<trkpt lat="22.142382" lon="103.780479">
<ele>606.914551</ele>
<time>2011-04-25T08:40:25Z</time>
<desc>lat.=22.142382, lon.=103.780479, Alt.=606.914551m. Speed=17.243999m/h.</desc>
<speed>4.790000</speed>
</trkpt>
<trkpt lat="22.142216" lon="103.780617">
<ele>606.070801</ele>
<time>2011-04-25T08:40:30Z</time>
<desc>lat.=22.142216, lon.=103.780617, Alt.=606.070801m. Speed=14.544000m/h.</desc>
<speed>4.040000</speed>
</trkpt>
<trkpt lat="22.142057" lon="103.780724">
<ele>605.336426</ele>
<time>2011-04-25T08:40:35Z</time>
<desc>lat.=22.142057, lon.=103.780724, Alt.=605.336426m. Speed=14.760000m/h.</desc>
<speed>4.100000</speed>
</trkpt>
<trkpt lat="22.141880" lon="103.780815">
<ele>605.805176</ele>
<time>2011-04-25T08:40:40Z</time>
<desc>lat.=22.141880, lon.=103.780815, Alt.=605.805176m. Speed=16.344000m/h.</desc>
<speed>4.540000</speed>
</trkpt>
<trkpt lat="22.141697" lon="103.780907">
<ele>605.508301</ele>
<time>2011-04-25T08:40:45Z</time>
<desc>lat.=22.141697, lon.=103.780907, Alt.=605.508301m. Speed=16.559999m/h.</desc>
<speed>4.600000</speed>
</trkpt>
<trkpt lat="22.141491" lon="103.780998">
<ele>609.617676</ele>
<time>2011-04-25T08:40:50Z</time>
<desc>lat.=22.141491, lon.=103.780998, Alt.=609.617676m. Speed=15.228000m/h.</desc>
<speed>4.230000</speed>
</trkpt>
<trkpt lat="22.141335" lon="103.781090">
<ele>612.242676</ele>
<time>2011-04-25T08:40:55Z</time>
<desc>lat.=22.141335, lon.=103.781090, Alt.=612.242676m. Speed=14.184000m/h.</desc>
<speed>3.940000</speed>
</trkpt>
<trkpt lat="22.141171" lon="103.781174">
<ele>612.414551</ele>
<time>2011-04-25T08:41:00Z</time>
<desc>lat.=22.141171, lon.=103.781174, Alt.=612.414551m. Speed=13.968000m/h.</desc>
<speed>3.880000</speed>
</trkpt>
<trkpt lat="22.141018" lon="103.781242">
<ele>613.805176</ele>
<time>2011-04-25T08:41:05Z</time>
<desc>lat.=22.141018, lon.=103.781242, Alt.=613.805176m. Speed=13.644000m/h.</desc>
<speed>3.790000</speed>
</trkpt>
<trkpt lat="22.140856" lon="103.781319">
<ele>615.117676</ele>
<time>2011-04-25T08:41:10Z</time>
<desc>lat.=22.140856, lon.=103.781319, Alt.=615.117676m. Speed=13.896000m/h.</desc>
<speed>3.860000</speed>
</trkpt>
<trkpt lat="22.140703" lon="103.781364">
<ele>615.898926</ele>
<time>2011-04-25T08:41:15Z</time>
<desc>lat.=22.140703, lon.=103.781364, Alt.=615.898926m. Speed=9.648000m/h.</desc>
<speed>2.680000</speed>
</trkpt>
<trkpt lat="22.140587" lon="103.781425">
<ele>617.977051</ele>
<time>2011-04-25T08:41:20Z</time>
<desc>lat.=22.140587, lon.=103.781425, Alt.=617.977051m. Speed=10.656000m/h.</desc>
<speed>2.960000</speed>
</trkpt>
<trkpt lat="22.140499" lon="103.781502">
<ele>620.227051</ele>
<time>2011-04-25T08:41:25Z</time>
<desc>lat.=22.140499, lon.=103.781502, Alt.=620.227051m. Speed=9.000000m/h.</desc>
<speed>2.500000</speed>
</trkpt>
<trkpt lat="22.140409" lon="103.781540">
<ele>621.883301</ele>
<time>2011-04-25T08:41:30Z</time>
<desc>lat.=22.140409, lon.=103.781540, Alt.=621.883301m. Speed=7.632000m/h.</desc>
<speed>2.120000</speed>
</trkpt>
<trkpt lat="22.140276" lon="103.781601">
<ele>623.602051</ele>
<time>2011-04-25T08:41:35Z</time>
<desc>lat.=22.140276, lon.=103.781601, Alt.=623.602051m. Speed=11.016000m/h.</desc>
<speed>3.060000</speed>
</trkpt>
<trkpt lat="22.140100" lon="103.781654">
<ele>611.242676</ele>
<time>2011-04-25T08:41:40Z</time>
<desc>lat.=22.140100, lon.=103.781654, Alt.=611.242676m. Speed=12.168000m/h.</desc>
<speed>3.380000</speed>
</trkpt>
<trkpt lat="22.139893" lon="103.781845">
<ele>602.914551</ele>
<time>2011-04-25T08:41:45Z</time>
<desc>lat.=22.139893, lon.=103.781845, Alt.=602.914551m. Speed=19.548000m/h.</desc>
<speed>5.430000</speed>
</trkpt>
<trkpt lat="22.139645" lon="103.782043">
<ele>602.539551</ele>
<time>2011-04-25T08:41:50Z</time>
<desc>lat.=22.139645, lon.=103.782043, Alt.=602.539551m. Speed=21.996000m/h.</desc>
<speed>6.110000</speed>
</trkpt>
<trkpt lat="22.139397" lon="103.782242">
<ele>599.945801</ele>
<time>2011-04-25T08:41:55Z</time>
<desc>lat.=22.139397, lon.=103.782242, Alt.=599.945801m. Speed=26.820000m/h.</desc>
<speed>7.450000</speed>
</trkpt>
<trkpt lat="22.139074" lon="103.782516">
<ele>601.086426</ele>
<time>2011-04-25T08:42:00Z</time>
<desc>lat.=22.139074, lon.=103.782516, Alt.=601.086426m. Speed=31.284000m/h.</desc>
<speed>8.690000</speed>
</trkpt>
<trkpt lat="22.138773" lon="103.782738">
<ele>600.055176</ele>
<time>2011-04-25T08:42:05Z</time>
<desc>lat.=22.138773, lon.=103.782738, Alt.=600.055176m. Speed=25.524000m/h.</desc>
<speed>7.090000</speed>
</trkpt>
<trkpt lat="22.138531" lon="103.782906">
<ele>600.977051</ele>
<time>2011-04-25T08:42:10Z</time>
<desc>lat.=22.138531, lon.=103.782906, Alt.=600.977051m. Speed=19.476000m/h.</desc>
<speed>5.410000</speed>
</trkpt>
<trkpt lat="22.138338" lon="103.783066">
<ele>602.555176</ele>
<time>2011-04-25T08:42:15Z</time>
<desc>lat.=22.138338, lon.=103.783066, Alt.=602.555176m. Speed=17.496000m/h.</desc>
<speed>4.860000</speed>
</trkpt>
<trkpt lat="22.138214" lon="103.783173">
<ele>601.555176</ele>
<time>2011-04-25T08:42:20Z</time>
<desc>lat.=22.138214, lon.=103.783173, Alt.=601.555176m. Speed=10.944000m/h.</desc>
<speed>3.040000</speed>
</trkpt>
<trkpt lat="22.138123" lon="103.783287">
<ele>601.867676</ele>
<time>2011-04-25T08:42:25Z</time>
<desc>lat.=22.138123, lon.=103.783287, Alt.=601.867676m. Speed=10.980000m/h.</desc>
<speed>3.050000</speed>
</trkpt>
<trkpt lat="22.138041" lon="103.783371">
<ele>601.742676</ele>
<time>2011-04-25T08:42:30Z</time>
<desc>lat.=22.138041, lon.=103.783371, Alt.=601.742676m. Speed=8.856000m/h.</desc>
<speed>2.460000</speed>
</trkpt>
<trkpt lat="22.137939" lon="103.783470">
<ele>602.992676</ele>
<time>2011-04-25T08:42:35Z</time>
<desc>lat.=22.137939, lon.=103.783470, Alt.=602.992676m. Speed=8.424000m/h.</desc>
<speed>2.340000</speed>
</trkpt>
<trkpt lat="22.137859" lon="103.783546">
<ele>602.633301</ele>
<time>2011-04-25T08:42:40Z</time>
<desc>lat.=22.137859, lon.=103.783546, Alt.=602.633301m. Speed=9.468000m/h.</desc>
<speed>2.630000</speed>
</trkpt>
<trkpt lat="22.137814" lon="103.783600">
<ele>601.883301</ele>
<time>2011-04-25T08:42:45Z</time>
<desc>lat.=22.137814, lon.=103.783600, Alt.=601.883301m. Speed=0.108000m/h.</desc>
<speed>0.030000</speed>
</trkpt>
<trkpt lat="22.137810" lon="103.783600">
<ele>602.602051</ele>
<time>2011-04-25T08:42:50Z</time>
<desc>lat.=22.137810, lon.=103.783600, Alt.=602.602051m. Speed=0.144000m/h.</desc>
<speed>0.040000</speed>
</trkpt>
<trkpt lat="22.137808" lon="103.783600">
<ele>602.773926</ele>
<time>2011-04-25T08:42:55Z</time>
<desc>lat.=22.137808, lon.=103.783600, Alt.=602.773926m. Speed=0.072000m/h.</desc>
<speed>0.020000</speed>
</trkpt>
<trkpt lat="22.137808" lon="103.783600">
<ele>602.805176</ele>
<time>2011-04-25T08:43:00Z</time>
<desc>lat.=22.137808, lon.=103.783600, Alt.=602.805176m. Speed=0.036000m/h.</desc>
<speed>0.010000</speed>
</trkpt>
<trkpt lat="22.137808" lon="103.783600">
<ele>602.789551</ele>
<time>2011-04-25T08:43:05Z</time>
<desc>lat.=22.137808, lon.=103.783600, Alt.=602.789551m. Speed=0.108000m/h.</desc>
<speed>0.030000</speed>
</trkpt>
<trkpt lat="22.137808" lon="103.783600">
<ele>602.805176</ele>
<time>2011-04-25T08:43:10Z</time>
<desc>lat.=22.137808, lon.=103.783600, Alt.=602.805176m. Speed=0.000000m/h.</desc>
<speed>0.000000</speed>
</trkpt>
<trkpt lat="22.137808" lon="103.783600">
<ele>602.773926</ele>
<time>2011-04-25T08:43:15Z</time>
<desc>lat.=22.137808, lon.=103.783600, Alt.=602.773926m. Speed=0.108000m/h.</desc>
<speed>0.030000</speed>
</trkpt>
<trkpt lat="22.137808" lon="103.783600">
<ele>602.758301</ele>
<time>2011-04-25T08:43:20Z</time>
<desc>lat.=22.137808, lon.=103.783600, Alt.=602.758301m. Speed=0.000000m/h.</desc>
<speed>0.000000</speed>
</trkpt>
<trkpt lat="22.137808" lon="103.783600">
<ele>602.727051</ele>
<time>2011-04-25T08:43:25Z</time>
<desc>lat.=22.137808, lon.=103.783600, Alt.=602.727051m. Speed=0.000000m/h.</desc>
<speed>0.000000</speed>
</trkpt>
<trkpt lat="22.137808" lon="103.783600">
<ele>602.695801</ele>
<time>2011-04-25T08:43:30Z</time>
<desc>lat.=22.137808, lon.=103.783600, Alt.=602.695801m. Speed=0.000000m/h.</desc>
<speed>0.000000</speed>
</trkpt>
<trkpt lat="22.137808" lon="103.783600">
<ele>602.695801</ele>
<time>2011-04-25T08:43:35Z</time>
<desc>lat.=22.137808, lon.=103.783600, Alt.=602.695801m. Speed=0.036000m/h.</desc>
<speed>0.010000</speed>
</trkpt>
<trkpt lat="22.137810" lon="103.783600">
<ele>602.664551</ele>
<time>2011-04-25T08:43:40Z</time>
<desc>lat.=22.137810, lon.=103.783600, Alt.=602.664551m. Speed=0.036000m/h.</desc>
<speed>0.010000</speed>
</trkpt>
<trkpt lat="22.137808" lon="103.783600">
<ele>602.664551</ele>
<time>2011-04-25T08:43:45Z</time>
<desc>lat.=22.137808, lon.=103.783600, Alt.=602.664551m. Speed=0.000000m/h.</desc>
<speed>0.000000</speed>
</trkpt>
<trkpt lat="22.137808" lon="103.783600">
<ele>602.664551</ele>
<time>2011-04-25T08:43:50Z</time>
<desc>lat.=22.137808, lon.=103.783600, Alt.=602.664551m. Speed=0.000000m/h.</desc>
<speed>0.000000</speed>
</trkpt>
<trkpt lat="22.137808" lon="103.783600">
<ele>602.664551</ele>
<time>2011-04-25T08:43:55Z</time>
<desc>lat.=22.137808, lon.=103.783600, Alt.=602.664551m. Speed=0.072000m/h.</desc>
<speed>0.020000</speed>
</trkpt>
<trkpt lat="22.137808" lon="103.783600">
<ele>602.664551</ele>
<time>2011-04-25T08:44:00Z</time>
<desc>lat.=22.137808, lon.=103.783600, Alt.=602.664551m. Speed=0.036000m/h.</desc>
<speed>0.010000</speed>
</trkpt>
<trkpt lat="22.137808" lon="103.783600">
<ele>602.648926</ele>
<time>2011-04-25T08:44:05Z</time>
<desc>lat.=22.137808, lon.=103.783600, Alt.=602.648926m. Speed=0.036000m/h.</desc>
<speed>0.010000</speed>
</trkpt>
<trkpt lat="22.137808" lon="103.783600">
<ele>602.648926</ele>
<time>2011-04-25T08:44:10Z</time>
<desc>lat.=22.137808, lon.=103.783600, Alt.=602.648926m. Speed=0.036000m/h.</desc>
<speed>0.010000</speed>
</trkpt>
<trkpt lat="22.137810" lon="103.783600">
<ele>602.633301</ele>
<time>2011-04-25T08:44:15Z</time>
<desc>lat.=22.137810, lon.=103.783600, Alt.=602.633301m. Speed=0.036000m/h.</desc>
<speed>0.010000</speed>
</trkpt>
<trkpt lat="22.137810" lon="103.783600">
<ele>602.648926</ele>
<time>2011-04-25T08:44:20Z</time>
<desc>lat.=22.137810, lon.=103.783600, Alt.=602.648926m. Speed=0.000000m/h.</desc>
<speed>0.000000</speed>
</trkpt>
<trkpt lat="22.137810" lon="103.783600">
<ele>602.648926</ele>
<time>2011-04-25T08:44:25Z</time>
<desc>lat.=22.137810, lon.=103.783600, Alt.=602.648926m. Speed=0.072000m/h.</desc>
<speed>0.020000</speed>
</trkpt>
<trkpt lat="22.137810" lon="103.783600">
<ele>602.617676</ele>
<time>2011-04-25T08:44:30Z</time>
<desc>lat.=22.137810, lon.=103.783600, Alt.=602.617676m. Speed=0.036000m/h.</desc>
<speed>0.010000</speed>
</trkpt>
<trkpt lat="22.137810" lon="103.783607">
<ele>602.602051</ele>
<time>2011-04-25T08:44:35Z</time>
<desc>lat.=22.137810, lon.=103.783607, Alt.=602.602051m. Speed=0.072000m/h.</desc>
<speed>0.020000</speed>
</trkpt>
<trkpt lat="22.137810" lon="103.783607">
<ele>602.586426</ele>
<time>2011-04-25T08:44:40Z</time>
<desc>lat.=22.137810, lon.=103.783607, Alt.=602.586426m. Speed=0.000000m/h.</desc>
<speed>0.000000</speed>
</trkpt>
<trkpt lat="22.137810" lon="103.783607">
<ele>602.617676</ele>
<time>2011-04-25T08:44:45Z</time>
<desc>lat.=22.137810, lon.=103.783607, Alt.=602.617676m. Speed=0.036000m/h.</desc>
<speed>0.010000</speed>
</trkpt>
<trkpt lat="22.137810" lon="103.783607">
<ele>602.617676</ele>
<time>2011-04-25T08:44:50Z</time>
<desc>lat.=22.137810, lon.=103.783607, Alt.=602.617676m. Speed=0.036000m/h.</desc>
<speed>0.010000</speed>
</trkpt>
<trkpt lat="22.137810" lon="103.783607">
<ele>602.617676</ele>
<time>2011-04-25T08:44:55Z</time>
<desc>lat.=22.137810, lon.=103.783607, Alt.=602.617676m. Speed=0.108000m/h.</desc>
<speed>0.030000</speed>
</trkpt>
<trkpt lat="22.137810" lon="103.783607">
<ele>602.617676</ele>
<time>2011-04-25T08:45:00Z</time>
<desc>lat.=22.137810, lon.=103.783607, Alt.=602.617676m. Speed=0.108000m/h.</desc>
<speed>0.030000</speed>
</trkpt>
<trkpt lat="22.137810" lon="103.783607">
<ele>602.633301</ele>
<time>2011-04-25T08:45:05Z</time>
<desc>lat.=22.137810, lon.=103.783607, Alt.=602.633301m. Speed=0.036000m/h.</desc>
<speed>0.010000</speed>
</trkpt>
<trkpt lat="22.137810" lon="103.783607">
<ele>602.602051</ele>
<time>2011-04-25T08:45:10Z</time>
<desc>lat.=22.137810, lon.=103.783607, Alt.=602.602051m. Speed=0.072000m/h.</desc>
<speed>0.020000</speed>
</trkpt>
<trkpt lat="22.137810" lon="103.783607">
<ele>602.602051</ele>
<time>2011-04-25T08:45:15Z</time>
<desc>lat.=22.137810, lon.=103.783607, Alt.=602.602051m. Speed=0.000000m/h.</desc>
<speed>0.000000</speed>
</trkpt>
<trkpt lat="22.137810" lon="103.783607">
<ele>602.602051</ele>
<time>2011-04-25T08:45:20Z</time>
<desc>lat.=22.137810, lon.=103.783607, Alt.=602.602051m. Speed=0.036000m/h.</desc>
<speed>0.010000</speed>
</trkpt>
<trkpt lat="22.137810" lon="103.783607">
<ele>602.602051</ele>
<time>2011-04-25T08:45:25Z</time>
<desc>lat.=22.137810, lon.=103.783607, Alt.=602.602051m. Speed=0.036000m/h.</desc>
<speed>0.010000</speed>
</trkpt>
<trkpt lat="22.137810" lon="103.783607">
<ele>602.617676</ele>
<time>2011-04-25T08:45:30Z</time>
<desc>lat.=22.137810, lon.=103.783607, Alt.=602.617676m. Speed=0.036000m/h.</desc>
<speed>0.010000</speed>
</trkpt>
<trkpt lat="22.137810" lon="103.783607">
<ele>602.602051</ele>
<time>2011-04-25T08:45:35Z</time>
<desc>lat.=22.137810, lon.=103.783607, Alt.=602.602051m. Speed=0.000000m/h.</desc>
<speed>0.000000</speed>
</trkpt>
<trkpt lat="22.137810" lon="103.783607">
<ele>602.602051</ele>
<time>2011-04-25T08:45:40Z</time>
<desc>lat.=22.137810, lon.=103.783607, Alt.=602.602051m. Speed=0.000000m/h.</desc>
<speed>0.000000</speed>
</trkpt>
<trkpt lat="22.137810" lon="103.783607">
<ele>602.602051</ele>
<time>2011-04-25T08:45:45Z</time>
<desc>lat.=22.137810, lon.=103.783607, Alt.=602.602051m. Speed=0.072000m/h.</desc>
<speed>0.020000</speed>
</trkpt>
<trkpt lat="22.137810" lon="103.783607">
<ele>602.586426</ele>
<time>2011-04-25T08:45:50Z</time>
<desc>lat.=22.137810, lon.=103.783607, Alt.=602.586426m. Speed=0.072000m/h.</desc>
<speed>0.020000</speed>
</trkpt>
<trkpt lat="22.137810" lon="103.783607">
<ele>602.602051</ele>
<time>2011-04-25T08:45:55Z</time>
<desc>lat.=22.137810, lon.=103.783607, Alt.=602.602051m. Speed=0.108000m/h.</desc>
<speed>0.030000</speed>
</trkpt>
<trkpt lat="22.137810" lon="103.783615">
<ele>602.633301</ele>
<time>2011-04-25T08:46:00Z</time>
<desc>lat.=22.137810, lon.=103.783615, Alt.=602.633301m. Speed=0.036000m/h.</desc>
<speed>0.010000</speed>
</trkpt>
<trkpt lat="22.137810" lon="103.783615">
<ele>602.633301</ele>
<time>2011-04-25T08:46:05Z</time>
<desc>lat.=22.137810, lon.=103.783615, Alt.=602.633301m. Speed=0.036000m/h.</desc>
<speed>0.010000</speed>
</trkpt>
<trkpt lat="22.137810" lon="103.783615">
<ele>602.648926</ele>
<time>2011-04-25T08:46:10Z</time>
<desc>lat.=22.137810, lon.=103.783615, Alt.=602.648926m. Speed=0.000000m/h.</desc>
<speed>0.000000</speed>
</trkpt>
<trkpt lat="22.137810" lon="103.783615">
<ele>602.664551</ele>
<time>2011-04-25T08:46:15Z</time>
<desc>lat.=22.137810, lon.=103.783615, Alt.=602.664551m. Speed=0.000000m/h.</desc>
<speed>0.000000</speed>
</trkpt>
<trkpt lat="22.137810" lon="103.783615">
<ele>602.695801</ele>
<time>2011-04-25T08:46:20Z</time>
<desc>lat.=22.137810, lon.=103.783615, Alt.=602.695801m. Speed=0.108000m/h.</desc>
<speed>0.030000</speed>
</trkpt>
<trkpt lat="22.137810" lon="103.783615">
<ele>602.727051</ele>
<time>2011-04-25T08:46:25Z</time>
<desc>lat.=22.137810, lon.=103.783615, Alt.=602.727051m. Speed=0.036000m/h.</desc>
<speed>0.010000</speed>
</trkpt>
<trkpt lat="22.137810" lon="103.783615">
<ele>602.695801</ele>
<time>2011-04-25T08:46:30Z</time>
<desc>lat.=22.137810, lon.=103.783615, Alt.=602.695801m. Speed=0.036000m/h.</desc>
<speed>0.010000</speed>
</trkpt>
<trkpt lat="22.137810" lon="103.783615">
<ele>602.711426</ele>
<time>2011-04-25T08:46:35Z</time>
<desc>lat.=22.137810, lon.=103.783615, Alt.=602.711426m. Speed=0.036000m/h.</desc>
<speed>0.010000</speed>
</trkpt>
<trkpt lat="22.137810" lon="103.783615">
<ele>602.711426</ele>
<time>2011-04-25T08:46:40Z</time>
<desc>lat.=22.137810, lon.=103.783615, Alt.=602.711426m. Speed=0.144000m/h.</desc>
<speed>0.040000</speed>
</trkpt>
<trkpt lat="22.137810" lon="103.783615">
<ele>602.727051</ele>
<time>2011-04-25T08:46:45Z</time>
<desc>lat.=22.137810, lon.=103.783615, Alt.=602.727051m. Speed=0.072000m/h.</desc>
<speed>0.020000</speed>
</trkpt>
<trkpt lat="22.137810" lon="103.783615">
<ele>602.742676</ele>
<time>2011-04-25T08:46:50Z</time>
<desc>lat.=22.137810, lon.=103.783615, Alt.=602.742676m. Speed=0.036000m/h.</desc>
<speed>0.010000</speed>
</trkpt>
<trkpt lat="22.137810" lon="103.783615">
<ele>602.773926</ele>
<time>2011-04-25T08:46:55Z</time>
<desc>lat.=22.137810, lon.=103.783615, Alt.=602.773926m. Speed=0.036000m/h.</desc>
<speed>0.010000</speed>
</trkpt>
<trkpt lat="22.137810" lon="103.783615">
<ele>602.789551</ele>
<time>2011-04-25T08:47:00Z</time>
<desc>lat.=22.137810, lon.=103.783615, Alt.=602.789551m. Speed=0.072000m/h.</desc>
<speed>0.020000</speed>
</trkpt>
<trkpt lat="22.137810" lon="103.783615">
<ele>602.805176</ele>
<time>2011-04-25T08:47:05Z</time>
<desc>lat.=22.137810, lon.=103.783615, Alt.=602.805176m. Speed=0.000000m/h.</desc>
<speed>0.000000</speed>
</trkpt>
<trkpt lat="22.137810" lon="103.783615">
<ele>602.805176</ele>
<time>2011-04-25T08:47:10Z</time>
<desc>lat.=22.137810, lon.=103.783615, Alt.=602.805176m. Speed=0.000000m/h.</desc>
<speed>0.000000</speed>
</trkpt>
<trkpt lat="22.137810" lon="103.783615">
<ele>602.836426</ele>
<time>2011-04-25T08:47:15Z</time>
<desc>lat.=22.137810, lon.=103.783615, Alt.=602.836426m. Speed=0.072000m/h.</desc>
<speed>0.020000</speed>
</trkpt>
<trkpt lat="22.137810" lon="103.783615">
<ele>602.820801</ele>
<time>2011-04-25T08:47:20Z</time>
<desc>lat.=22.137810, lon.=103.783615, Alt.=602.820801m. Speed=0.000000m/h.</desc>
<speed>0.000000</speed>
</trkpt>
<trkpt lat="22.137810" lon="103.783615">
<ele>602.820801</ele>
<time>2011-04-25T08:47:25Z</time>
<desc>lat.=22.137810, lon.=103.783615, Alt.=602.820801m. Speed=0.000000m/h.</desc>
<speed>0.000000</speed>
</trkpt>
<trkpt lat="22.137810" lon="103.783623">
<ele>602.820801</ele>
<time>2011-04-25T08:47:30Z</time>
<desc>lat.=22.137810, lon.=103.783623, Alt.=602.820801m. Speed=0.036000m/h.</desc>
<speed>0.010000</speed>
</trkpt>
<trkpt lat="22.137810" lon="103.783623">
<ele>602.836426</ele>
<time>2011-04-25T08:47:35Z</time>
<desc>lat.=22.137810, lon.=103.783623, Alt.=602.836426m. Speed=0.036000m/h.</desc>
<speed>0.010000</speed>
</trkpt>
<trkpt lat="22.137810" lon="103.783623">
<ele>602.836426</ele>
<time>2011-04-25T08:47:40Z</time>
<desc>lat.=22.137810, lon.=103.783623, Alt.=602.836426m. Speed=0.000000m/h.</desc>
<speed>0.000000</speed>
</trkpt>
<trkpt lat="22.137810" lon="103.783623">
<ele>602.820801</ele>
<time>2011-04-25T08:47:45Z</time>
<desc>lat.=22.137810, lon.=103.783623, Alt.=602.820801m. Speed=0.072000m/h.</desc>
<speed>0.020000</speed>
</trkpt>
<trkpt lat="22.137810" lon="103.783623">
<ele>602.836426</ele>
<time>2011-04-25T08:47:50Z</time>
<desc>lat.=22.137810, lon.=103.783623, Alt.=602.836426m. Speed=0.036000m/h.</desc>
<speed>0.010000</speed>
</trkpt>
<trkpt lat="22.137810" lon="103.783623">
<ele>602.836426</ele>
<time>2011-04-25T08:47:55Z</time>
<desc>lat.=22.137810, lon.=103.783623, Alt.=602.836426m. Speed=0.036000m/h.</desc>
<speed>0.010000</speed>
</trkpt>
<trkpt lat="22.137810" lon="103.783623">
<ele>602.867676</ele>
<time>2011-04-25T08:48:00Z</time>
<desc>lat.=22.137810, lon.=103.783623, Alt.=602.867676m. Speed=0.036000m/h.</desc>
<speed>0.010000</speed>
</trkpt>
<trkpt lat="22.137810" lon="103.783623">
<ele>602.852051</ele>
<time>2011-04-25T08:48:05Z</time>
<desc>lat.=22.137810, lon.=103.783623, Alt.=602.852051m. Speed=0.252000m/h.</desc>
<speed>0.070000</speed>
</trkpt>
<trkpt lat="22.137812" lon="103.783623">
<ele>602.867676</ele>
<time>2011-04-25T08:48:10Z</time>
<desc>lat.=22.137812, lon.=103.783623, Alt.=602.867676m. Speed=0.036000m/h.</desc>
<speed>0.010000</speed>
</trkpt>
<trkpt lat="22.137812" lon="103.783623">
<ele>602.867676</ele>
<time>2011-04-25T08:48:15Z</time>
<desc>lat.=22.137812, lon.=103.783623, Alt.=602.867676m. Speed=0.036000m/h.</desc>
<speed>0.010000</speed>
</trkpt>
<trkpt lat="22.137812" lon="103.783623">
<ele>602.852051</ele>
<time>2011-04-25T08:48:20Z</time>
<desc>lat.=22.137812, lon.=103.783623, Alt.=602.852051m. Speed=0.000000m/h.</desc>
<speed>0.000000</speed>
</trkpt>
<trkpt lat="22.137812" lon="103.783623">
<ele>602.852051</ele>
<time>2011-04-25T08:48:25Z</time>
<desc>lat.=22.137812, lon.=103.783623, Alt.=602.852051m. Speed=0.072000m/h.</desc>
<speed>0.020000</speed>
</trkpt>
<trkpt lat="22.137812" lon="103.783623">
<ele>602.852051</ele>
<time>2011-04-25T08:48:30Z</time>
<desc>lat.=22.137812, lon.=103.783623, Alt.=602.852051m. Speed=0.144000m/h.</desc>
<speed>0.040000</speed>
</trkpt>
<trkpt lat="22.137812" lon="103.783623">
<ele>602.852051</ele>
<time>2011-04-25T08:48:35Z</time>
<desc>lat.=22.137812, lon.=103.783623, Alt.=602.852051m. Speed=0.000000m/h.</desc>
<speed>0.000000</speed>
</trkpt>
<trkpt lat="22.137812" lon="103.783623">
<ele>602.852051</ele>
<time>2011-04-25T08:48:40Z</time>
<desc>lat.=22.137812, lon.=103.783623, Alt.=602.852051m. Speed=0.000000m/h.</desc>
<speed>0.000000</speed>
</trkpt>
<trkpt lat="22.137812" lon="103.783623">
<ele>602.836426</ele>
<time>2011-04-25T08:48:45Z</time>
<desc>lat.=22.137812, lon.=103.783623, Alt.=602.836426m. Speed=0.108000m/h.</desc>
<speed>0.030000</speed>
</trkpt>
<trkpt lat="22.137812" lon="103.783623">
<ele>602.852051</ele>
<time>2011-04-25T08:48:50Z</time>
<desc>lat.=22.137812, lon.=103.783623, Alt.=602.852051m. Speed=0.036000m/h.</desc>
<speed>0.010000</speed>
</trkpt>
<trkpt lat="22.137812" lon="103.783623">
<ele>602.852051</ele>
<time>2011-04-25T08:48:55Z</time>
<desc>lat.=22.137812, lon.=103.783623, Alt.=602.852051m. Speed=0.000000m/h.</desc>
<speed>0.000000</speed>
</trkpt>
<trkpt lat="22.137812" lon="103.783623">
<ele>602.852051</ele>
<time>2011-04-25T08:49:00Z</time>
<desc>lat.=22.137812, lon.=103.783623, Alt.=602.852051m. Speed=0.000000m/h.</desc>
<speed>0.000000</speed>
</trkpt>
<trkpt lat="22.137812" lon="103.783623">
<ele>602.836426</ele>
<time>2011-04-25T08:49:05Z</time>
<desc>lat.=22.137812, lon.=103.783623, Alt.=602.836426m. Speed=0.036000m/h.</desc>
<speed>0.010000</speed>
</trkpt>
<trkpt lat="22.137812" lon="103.783623">
<ele>602.836426</ele>
<time>2011-04-25T08:49:10Z</time>
<desc>lat.=22.137812, lon.=103.783623, Alt.=602.836426m. Speed=0.072000m/h.</desc>
<speed>0.020000</speed>
</trkpt>
<trkpt lat="22.137812" lon="103.783623">
<ele>602.852051</ele>
<time>2011-04-25T08:49:15Z</time>
<desc>lat.=22.137812, lon.=103.783623, Alt.=602.852051m. Speed=0.036000m/h.</desc>
<speed>0.010000</speed>
</trkpt>
<trkpt lat="22.137812" lon="103.783623">
<ele>602.867676</ele>
<time>2011-04-25T08:49:20Z</time>
<desc>lat.=22.137812, lon.=103.783623, Alt.=602.867676m. Speed=0.036000m/h.</desc>
<speed>0.010000</speed>
</trkpt>
<trkpt lat="22.137812" lon="103.783623">
<ele>602.898926</ele>
<time>2011-04-25T08:49:25Z</time>
<desc>lat.=22.137812, lon.=103.783623, Alt.=602.898926m. Speed=0.000000m/h.</desc>
<speed>0.000000</speed>
</trkpt>
<trkpt lat="22.137812" lon="103.783623">
<ele>602.883301</ele>
<time>2011-04-25T08:49:30Z</time>
<desc>lat.=22.137812, lon.=103.783623, Alt.=602.883301m. Speed=0.108000m/h.</desc>
<speed>0.030000</speed>
</trkpt>
<trkpt lat="22.137812" lon="103.783623">
<ele>602.898926</ele>
<time>2011-04-25T08:49:35Z</time>
<desc>lat.=22.137812, lon.=103.783623, Alt.=602.898926m. Speed=0.000000m/h.</desc>
<speed>0.000000</speed>
</trkpt>
<trkpt lat="22.137812" lon="103.783623">
<ele>602.930176</ele>
<time>2011-04-25T08:49:40Z</time>
<desc>lat.=22.137812, lon.=103.783623, Alt.=602.930176m. Speed=0.000000m/h.</desc>
<speed>0.000000</speed>
</trkpt>
<trkpt lat="22.137812" lon="103.783623">
<ele>602.914551</ele>
<time>2011-04-25T08:49:45Z</time>
<desc>lat.=22.137812, lon.=103.783623, Alt.=602.914551m. Speed=0.072000m/h.</desc>
<speed>0.020000</speed>
</trkpt>
<trkpt lat="22.137812" lon="103.783630">
<ele>602.914551</ele>
<time>2011-04-25T08:49:50Z</time>
<desc>lat.=22.137812, lon.=103.783630, Alt.=602.914551m. Speed=0.000000m/h.</desc>
<speed>0.000000</speed>
</trkpt>
<trkpt lat="22.137812" lon="103.783630">
<ele>602.914551</ele>
<time>2011-04-25T08:49:55Z</time>
<desc>lat.=22.137812, lon.=103.783630, Alt.=602.914551m. Speed=0.072000m/h.</desc>
<speed>0.020000</speed>
</trkpt>
<trkpt lat="22.137812" lon="103.783630">
<ele>602.914551</ele>
<time>2011-04-25T08:50:00Z</time>
<desc>lat.=22.137812, lon.=103.783630, Alt.=602.914551m. Speed=0.036000m/h.</desc>
<speed>0.010000</speed>
</trkpt>
<trkpt lat="22.137812" lon="103.783630">
<ele>602.914551</ele>
<time>2011-04-25T08:50:05Z</time>
<desc>lat.=22.137812, lon.=103.783630, Alt.=602.914551m. Speed=0.036000m/h.</desc>
<speed>0.010000</speed>
</trkpt>
<trkpt lat="22.137812" lon="103.783630">
<ele>602.898926</ele>
<time>2011-04-25T08:50:10Z</time>
<desc>lat.=22.137812, lon.=103.783630, Alt.=602.898926m. Speed=0.144000m/h.</desc>
<speed>0.040000</speed>
</trkpt>
<trkpt lat="22.137812" lon="103.783630">
<ele>602.898926</ele>
<time>2011-04-25T08:50:15Z</time>
<desc>lat.=22.137812, lon.=103.783630, Alt.=602.898926m. Speed=0.000000m/h.</desc>
<speed>0.000000</speed>
</trkpt>
<trkpt lat="22.137812" lon="103.783630">
<ele>602.898926</ele>
<time>2011-04-25T08:50:20Z</time>
<desc>lat.=22.137812, lon.=103.783630, Alt.=602.898926m. Speed=0.036000m/h.</desc>
<speed>0.010000</speed>
</trkpt>
<trkpt lat="22.137812" lon="103.783630">
<ele>602.914551</ele>
<time>2011-04-25T08:50:25Z</time>
<desc>lat.=22.137812, lon.=103.783630, Alt.=602.914551m. Speed=0.072000m/h.</desc>
<speed>0.020000</speed>
</trkpt>
<trkpt lat="22.137812" lon="103.783630">
<ele>602.945801</ele>
<time>2011-04-25T08:50:30Z</time>
<desc>lat.=22.137812, lon.=103.783630, Alt.=602.945801m. Speed=0.000000m/h.</desc>
<speed>0.000000</speed>
</trkpt>
<trkpt lat="22.137814" lon="103.783630">
<ele>602.945801</ele>
<time>2011-04-25T08:50:35Z</time>
<desc>lat.=22.137814, lon.=103.783630, Alt.=602.945801m. Speed=0.072000m/h.</desc>
<speed>0.020000</speed>
</trkpt>
<trkpt lat="22.137812" lon="103.783630">
<ele>602.961426</ele>
<time>2011-04-25T08:50:40Z</time>
<desc>lat.=22.137812, lon.=103.783630, Alt.=602.961426m. Speed=0.036000m/h.</desc>
<speed>0.010000</speed>
</trkpt>
<trkpt lat="22.137812" lon="103.783630">
<ele>603.008301</ele>
<time>2011-04-25T08:50:45Z</time>
<desc>lat.=22.137812, lon.=103.783630, Alt.=603.008301m. Speed=0.072000m/h.</desc>
<speed>0.020000</speed>
</trkpt>
<trkpt lat="22.137812" lon="103.783630">
<ele>603.055176</ele>
<time>2011-04-25T08:50:50Z</time>
<desc>lat.=22.137812, lon.=103.783630, Alt.=603.055176m. Speed=0.108000m/h.</desc>
<speed>0.030000</speed>
</trkpt>
<trkpt lat="22.137812" lon="103.783630">
<ele>603.055176</ele>
<time>2011-04-25T08:50:55Z</time>
<desc>lat.=22.137812, lon.=103.783630, Alt.=603.055176m. Speed=0.144000m/h.</desc>
<speed>0.040000</speed>
</trkpt>
<trkpt lat="22.137774" lon="103.783661">
<ele>603.555176</ele>
<time>2011-04-25T08:51:00Z</time>
<desc>lat.=22.137774, lon.=103.783661, Alt.=603.555176m. Speed=10.584000m/h.</desc>
<speed>2.940000</speed>
</trkpt>
<trkpt lat="22.137638" lon="103.783829">
<ele>603.773926</ele>
<time>2011-04-25T08:51:05Z</time>
<desc>lat.=22.137638, lon.=103.783829, Alt.=603.773926m. Speed=16.992001m/h.</desc>
<speed>4.720000</speed>
</trkpt>
<trkpt lat="22.137476" lon="103.784027">
<ele>604.273926</ele>
<time>2011-04-25T08:51:10Z</time>
<desc>lat.=22.137476, lon.=103.784027, Alt.=604.273926m. Speed=18.612000m/h.</desc>
<speed>5.170000</speed>
</trkpt>
<trkpt lat="22.137297" lon="103.784248">
<ele>604.414551</ele>
<time>2011-04-25T08:51:15Z</time>
<desc>lat.=22.137297, lon.=103.784248, Alt.=604.414551m. Speed=20.195999m/h.</desc>
<speed>5.610000</speed>
</trkpt>
<trkpt lat="22.137115" lon="103.784462">
<ele>604.352051</ele>
<time>2011-04-25T08:51:20Z</time>
<desc>lat.=22.137115, lon.=103.784462, Alt.=604.352051m. Speed=20.304001m/h.</desc>
<speed>5.640000</speed>
</trkpt>
<trkpt lat="22.136932" lon="103.784714">
<ele>605.352051</ele>
<time>2011-04-25T08:51:25Z</time>
<desc>lat.=22.136932, lon.=103.784714, Alt.=605.352051m. Speed=23.652000m/h.</desc>
<speed>6.570000</speed>
</trkpt>
<trkpt lat="22.136709" lon="103.784981">
<ele>605.289551</ele>
<time>2011-04-25T08:51:30Z</time>
<desc>lat.=22.136709, lon.=103.784981, Alt.=605.289551m. Speed=27.216000m/h.</desc>
<speed>7.560000</speed>
</trkpt>
<trkpt lat="22.136438" lon="103.785324">
<ele>602.617676</ele>
<time>2011-04-25T08:51:35Z</time>
<desc>lat.=22.136438, lon.=103.785324, Alt.=602.617676m. Speed=34.200001m/h.</desc>
<speed>9.500000</speed>
</trkpt>
<trkpt lat="22.136148" lon="103.785698">
<ele>601.930176</ele>
<time>2011-04-25T08:51:40Z</time>
<desc>lat.=22.136148, lon.=103.785698, Alt.=601.930176m. Speed=33.804001m/h.</desc>
<speed>9.390000</speed>
</trkpt>
<trkpt lat="22.135887" lon="103.786018">
<ele>600.398926</ele>
<time>2011-04-25T08:51:45Z</time>
<desc>lat.=22.135887, lon.=103.786018, Alt.=600.398926m. Speed=31.427999m/h.</desc>
<speed>8.730000</speed>
</trkpt>
<trkpt lat="22.135611" lon="103.786377">
<ele>599.023926</ele>
<time>2011-04-25T08:51:50Z</time>
<desc>lat.=22.135611, lon.=103.786377, Alt.=599.023926m. Speed=36.683998m/h.</desc>
<speed>10.189999</speed>
</trkpt>
<trkpt lat="22.135305" lon="103.786758">
<ele>596.211426</ele>
<time>2011-04-25T08:51:55Z</time>
<desc>lat.=22.135305, lon.=103.786758, Alt.=596.211426m. Speed=37.403999m/h.</desc>
<speed>10.390000</speed>
</trkpt>
<trkpt lat="22.134996" lon="103.787117">
<ele>594.586426</ele>
<time>2011-04-25T08:52:00Z</time>
<desc>lat.=22.134996, lon.=103.787117, Alt.=594.586426m. Speed=35.604000m/h.</desc>
<speed>9.890000</speed>
</trkpt>
<trkpt lat="22.134678" lon="103.787468">
<ele>594.602051</ele>
<time>2011-04-25T08:52:05Z</time>
<desc>lat.=22.134678, lon.=103.787468, Alt.=594.602051m. Speed=33.408001m/h.</desc>
<speed>9.280000</speed>
</trkpt>
<trkpt lat="22.134365" lon="103.787781">
<ele>595.320801</ele>
<time>2011-04-25T08:52:10Z</time>
<desc>lat.=22.134365, lon.=103.787781, Alt.=595.320801m. Speed=33.515999m/h.</desc>
<speed>9.310000</speed>
</trkpt>
<trkpt lat="22.134052" lon="103.788094">
<ele>596.992676</ele>
<time>2011-04-25T08:52:15Z</time>
<desc>lat.=22.134052, lon.=103.788094, Alt.=596.992676m. Speed=32.507999m/h.</desc>
<speed>9.030000</speed>
</trkpt>
<trkpt lat="22.133755" lon="103.788361">
<ele>597.773926</ele>
<time>2011-04-25T08:52:20Z</time>
<desc>lat.=22.133755, lon.=103.788361, Alt.=597.773926m. Speed=28.872000m/h.</desc>
<speed>8.020000</speed>
</trkpt>
<trkpt lat="22.133503" lon="103.788589">
<ele>597.992676</ele>
<time>2011-04-25T08:52:25Z</time>
<desc>lat.=22.133503, lon.=103.788589, Alt.=597.992676m. Speed=23.544001m/h.</desc>
<speed>6.540000</speed>
</trkpt>
<trkpt lat="22.133295" lon="103.788757">
<ele>597.398926</ele>
<time>2011-04-25T08:52:30Z</time>
<desc>lat.=22.133295, lon.=103.788757, Alt.=597.398926m. Speed=19.836000m/h.</desc>
<speed>5.510000</speed>
</trkpt>
<trkpt lat="22.133121" lon="103.788933">
<ele>598.914551</ele>
<time>2011-04-25T08:52:35Z</time>
<desc>lat.=22.133121, lon.=103.788933, Alt.=598.914551m. Speed=16.596001m/h.</desc>
<speed>4.610000</speed>
</trkpt>
<trkpt lat="22.132973" lon="103.789101">
<ele>600.508301</ele>
<time>2011-04-25T08:52:40Z</time>
<desc>lat.=22.132973, lon.=103.789101, Alt.=600.508301m. Speed=15.480000m/h.</desc>
<speed>4.300000</speed>
</trkpt>
<trkpt lat="22.132839" lon="103.789268">
<ele>602.195801</ele>
<time>2011-04-25T08:52:45Z</time>
<desc>lat.=22.132839, lon.=103.789268, Alt.=602.195801m. Speed=19.511999m/h.</desc>
<speed>5.420000</speed>
</trkpt>
<trkpt lat="22.132675" lon="103.789497">
<ele>602.008301</ele>
<time>2011-04-25T08:52:50Z</time>
<desc>lat.=22.132675, lon.=103.789497, Alt.=602.008301m. Speed=23.832001m/h.</desc>
<speed>6.620000</speed>
</trkpt>
<trkpt lat="22.132465" lon="103.789719">
<ele>601.211426</ele>
<time>2011-04-25T08:52:55Z</time>
<desc>lat.=22.132465, lon.=103.789719, Alt.=601.211426m. Speed=24.660000m/h.</desc>
<speed>6.850000</speed>
</trkpt>
<trkpt lat="22.132254" lon="103.789932">
<ele>602.477051</ele>
<time>2011-04-25T08:53:00Z</time>
<desc>lat.=22.132254, lon.=103.789932, Alt.=602.477051m. Speed=22.608000m/h.</desc>
<speed>6.280000</speed>
</trkpt>
<trkpt lat="22.132057" lon="103.790161">
<ele>602.398926</ele>
<time>2011-04-25T08:53:05Z</time>
<desc>lat.=22.132057, lon.=103.790161, Alt.=602.398926m. Speed=22.068001m/h.</desc>
<speed>6.130000</speed>
</trkpt>
<trkpt lat="22.131840" lon="103.790413">
<ele>603.867676</ele>
<time>2011-04-25T08:53:10Z</time>
<desc>lat.=22.131840, lon.=103.790413, Alt.=603.867676m. Speed=23.580000m/h.</desc>
<speed>6.550000</speed>
</trkpt>
<trkpt lat="22.131577" lon="103.790619">
<ele>601.992676</ele>
<time>2011-04-25T08:53:15Z</time>
<desc>lat.=22.131577, lon.=103.790619, Alt.=601.992676m. Speed=23.615999m/h.</desc>
<speed>6.560000</speed>
</trkpt>
<trkpt lat="22.131321" lon="103.790771">
<ele>601.039551</ele>
<time>2011-04-25T08:53:20Z</time>
<desc>lat.=22.131321, lon.=103.790771, Alt.=601.039551m. Speed=23.760000m/h.</desc>
<speed>6.600000</speed>
</trkpt>
<trkpt lat="22.131041" lon="103.790894">
<ele>601.617676</ele>
<time>2011-04-25T08:53:25Z</time>
<desc>lat.=22.131041, lon.=103.790894, Alt.=601.617676m. Speed=23.436001m/h.</desc>
<speed>6.510000</speed>
</trkpt>
<trkpt lat="22.130768" lon="103.791016">
<ele>601.883301</ele>
<time>2011-04-25T08:53:30Z</time>
<desc>lat.=22.130768, lon.=103.791016, Alt.=601.883301m. Speed=23.868000m/h.</desc>
<speed>6.630000</speed>
</trkpt>
<trkpt lat="22.130501" lon="103.791122">
<ele>601.727051</ele>
<time>2011-04-25T08:53:35Z</time>
<desc>lat.=22.130501, lon.=103.791122, Alt.=601.727051m. Speed=21.924000m/h.</desc>
<speed>6.090000</speed>
</trkpt>
<trkpt lat="22.130234" lon="103.791222">
<ele>600.430176</ele>
<time>2011-04-25T08:53:40Z</time>
<desc>lat.=22.130234, lon.=103.791222, Alt.=600.430176m. Speed=22.716000m/h.</desc>
<speed>6.310000</speed>
</trkpt>
<trkpt lat="22.129965" lon="103.791344">
<ele>602.570801</ele>
<time>2011-04-25T08:53:45Z</time>
<desc>lat.=22.129965, lon.=103.791344, Alt.=602.570801m. Speed=22.356001m/h.</desc>
<speed>6.210000</speed>
</trkpt>
<trkpt lat="22.129702" lon="103.791481">
<ele>603.445801</ele>
<time>2011-04-25T08:53:50Z</time>
<desc>lat.=22.129702, lon.=103.791481, Alt.=603.445801m. Speed=23.112000m/h.</desc>
<speed>6.420000</speed>
</trkpt>
<trkpt lat="22.129461" lon="103.791679">
<ele>602.570801</ele>
<time>2011-04-25T08:53:55Z</time>
<desc>lat.=22.129461, lon.=103.791679, Alt.=602.570801m. Speed=24.768000m/h.</desc>
<speed>6.880000</speed>
</trkpt>
<trkpt lat="22.129251" lon="103.791939">
<ele>603.273926</ele>
<time>2011-04-25T08:54:00Z</time>
<desc>lat.=22.129251, lon.=103.791939, Alt.=603.273926m. Speed=24.048000m/h.</desc>
<speed>6.680000</speed>
</trkpt>
<trkpt lat="22.129057" lon="103.792175">
<ele>604.383301</ele>
<time>2011-04-25T08:54:05Z</time>
<desc>lat.=22.129057, lon.=103.792175, Alt.=604.383301m. Speed=22.968000m/h.</desc>
<speed>6.380000</speed>
</trkpt>
<trkpt lat="22.128857" lon="103.792412">
<ele>606.055176</ele>
<time>2011-04-25T08:54:10Z</time>
<desc>lat.=22.128857, lon.=103.792412, Alt.=606.055176m. Speed=26.280001m/h.</desc>
<speed>7.300000</speed>
</trkpt>
<trkpt lat="22.128611" lon="103.792717">
<ele>605.227051</ele>
<time>2011-04-25T08:54:15Z</time>
<desc>lat.=22.128611, lon.=103.792717, Alt.=605.227051m. Speed=32.472000m/h.</desc>
<speed>9.020000</speed>
</trkpt>
<trkpt lat="22.128342" lon="103.793053">
<ele>603.383301</ele>
<time>2011-04-25T08:54:20Z</time>
<desc>lat.=22.128342, lon.=103.793053, Alt.=603.383301m. Speed=32.004002m/h.</desc>
<speed>8.890000</speed>
</trkpt>
<trkpt lat="22.128117" lon="103.793365">
<ele>603.508301</ele>
<time>2011-04-25T08:54:25Z</time>
<desc>lat.=22.128117, lon.=103.793365, Alt.=603.508301m. Speed=27.396000m/h.</desc>
<speed>7.610000</speed>
</trkpt>
<trkpt lat="22.127916" lon="103.793625">
<ele>604.492676</ele>
<time>2011-04-25T08:54:30Z</time>
<desc>lat.=22.127916, lon.=103.793625, Alt.=604.492676m. Speed=21.204000m/h.</desc>
<speed>5.890000</speed>
</trkpt>
<trkpt lat="22.127743" lon="103.793823">
<ele>605.883301</ele>
<time>2011-04-25T08:54:35Z</time>
<desc>lat.=22.127743, lon.=103.793823, Alt.=605.883301m. Speed=19.584000m/h.</desc>
<speed>5.440000</speed>
</trkpt>
<trkpt lat="22.127590" lon="103.794022">
<ele>606.164551</ele>
<time>2011-04-25T08:54:40Z</time>
<desc>lat.=22.127590, lon.=103.794022, Alt.=606.164551m. Speed=18.360001m/h.</desc>
<speed>5.100000</speed>
</trkpt>
<trkpt lat="22.127441" lon="103.794205">
<ele>605.867676</ele>
<time>2011-04-25T08:54:45Z</time>
<desc>lat.=22.127441, lon.=103.794205, Alt.=605.867676m. Speed=17.676001m/h.</desc>
<speed>4.910000</speed>
</trkpt>
<trkpt lat="22.127298" lon="103.794388">
<ele>606.914551</ele>
<time>2011-04-25T08:54:50Z</time>
<desc>lat.=22.127298, lon.=103.794388, Alt.=606.914551m. Speed=16.775999m/h.</desc>
<speed>4.660000</speed>
</trkpt>
<trkpt lat="22.127172" lon="103.794556">
<ele>606.977051</ele>
<time>2011-04-25T08:54:55Z</time>
<desc>lat.=22.127172, lon.=103.794556, Alt.=606.977051m. Speed=13.932000m/h.</desc>
<speed>3.870000</speed>
</trkpt>
<trkpt lat="22.127062" lon="103.794693">
<ele>607.508301</ele>
<time>2011-04-25T08:55:00Z</time>
<desc>lat.=22.127062, lon.=103.794693, Alt.=607.508301m. Speed=13.320000m/h.</desc>
<speed>3.700000</speed>
</trkpt>
<trkpt lat="22.126961" lon="103.794876">
<ele>607.289551</ele>
<time>2011-04-25T08:55:05Z</time>
<desc>lat.=22.126961, lon.=103.794876, Alt.=607.289551m. Speed=15.552000m/h.</desc>
<speed>4.320000</speed>
</trkpt>
<trkpt lat="22.126858" lon="103.795059">
<ele>608.070801</ele>
<time>2011-04-25T08:55:10Z</time>
<desc>lat.=22.126858, lon.=103.795059, Alt.=608.070801m. Speed=15.408000m/h.</desc>
<speed>4.280000</speed>
</trkpt>
<trkpt lat="22.126762" lon="103.795235">
<ele>607.805176</ele>
<time>2011-04-25T08:55:15Z</time>
<desc>lat.=22.126762, lon.=103.795235, Alt.=607.805176m. Speed=14.400000m/h.</desc>
<speed>4.000000</speed>
</trkpt>
<trkpt lat="22.126673" lon="103.795410">
<ele>608.867676</ele>
<time>2011-04-25T08:55:20Z</time>
<desc>lat.=22.126673, lon.=103.795410, Alt.=608.867676m. Speed=15.264000m/h.</desc>
<speed>4.240000</speed>
</trkpt>
<trkpt lat="22.126585" lon="103.795586">
<ele>609.477051</ele>
<time>2011-04-25T08:55:25Z</time>
<desc>lat.=22.126585, lon.=103.795586, Alt.=609.477051m. Speed=14.040000m/h.</desc>
<speed>3.900000</speed>
</trkpt>
<trkpt lat="22.126493" lon="103.795723">
<ele>609.867676</ele>
<time>2011-04-25T08:55:30Z</time>
<desc>lat.=22.126493, lon.=103.795723, Alt.=609.867676m. Speed=11.124000m/h.</desc>
<speed>3.090000</speed>
</trkpt>
<trkpt lat="22.126398" lon="103.795860">
<ele>609.695801</ele>
<time>2011-04-25T08:55:35Z</time>
<desc>lat.=22.126398, lon.=103.795860, Alt.=609.695801m. Speed=12.384000m/h.</desc>
<speed>3.440000</speed>
</trkpt>
<trkpt lat="22.126310" lon="103.796028">
<ele>608.945801</ele>
<time>2011-04-25T08:55:40Z</time>
<desc>lat.=22.126310, lon.=103.796028, Alt.=608.945801m. Speed=14.220000m/h.</desc>
<speed>3.950000</speed>
</trkpt>
<trkpt lat="22.126200" lon="103.796188">
<ele>610.523926</ele>
<time>2011-04-25T08:55:45Z</time>
<desc>lat.=22.126200, lon.=103.796188, Alt.=610.523926m. Speed=13.428000m/h.</desc>
<speed>3.730000</speed>
</trkpt>
<trkpt lat="22.126078" lon="103.796326">
<ele>611.586426</ele>
<time>2011-04-25T08:55:50Z</time>
<desc>lat.=22.126078, lon.=103.796326, Alt.=611.586426m. Speed=15.012000m/h.</desc>
<speed>4.170000</speed>
</trkpt>
<trkpt lat="22.125952" lon="103.796494">
<ele>613.852051</ele>
<time>2011-04-25T08:55:55Z</time>
<desc>lat.=22.125952, lon.=103.796494, Alt.=613.852051m. Speed=16.559999m/h.</desc>
<speed>4.600000</speed>
</trkpt>
<trkpt lat="22.125847" lon="103.796692">
<ele>615.586426</ele>
<time>2011-04-25T08:56:00Z</time>
<desc>lat.=22.125847, lon.=103.796692, Alt.=615.586426m. Speed=14.400000m/h.</desc>
<speed>4.000000</speed>
</trkpt>
<trkpt lat="22.125774" lon="103.796875">
<ele>614.789551</ele>
<time>2011-04-25T08:56:05Z</time>
<desc>lat.=22.125774, lon.=103.796875, Alt.=614.789551m. Speed=15.876000m/h.</desc>
<speed>4.410000</speed>
</trkpt>
<trkpt lat="22.125715" lon="103.797112">
<ele>616.477051</ele>
<time>2011-04-25T08:56:10Z</time>
<desc>lat.=22.125715, lon.=103.797112, Alt.=616.477051m. Speed=13.968000m/h.</desc>
<speed>3.880000</speed>
</trkpt>
<trkpt lat="22.125656" lon="103.797325">
<ele>616.633301</ele>
<time>2011-04-25T08:56:15Z</time>
<desc>lat.=22.125656, lon.=103.797325, Alt.=616.633301m. Speed=15.480000m/h.</desc>
<speed>4.300000</speed>
</trkpt>
<trkpt lat="22.125582" lon="103.797554">
<ele>616.273926</ele>
<time>2011-04-25T08:56:20Z</time>
<desc>lat.=22.125582, lon.=103.797554, Alt.=616.273926m. Speed=18.216000m/h.</desc>
<speed>5.060000</speed>
</trkpt>
<trkpt lat="22.125511" lon="103.797768">
<ele>615.383301</ele>
<time>2011-04-25T08:56:25Z</time>
<desc>lat.=22.125511, lon.=103.797768, Alt.=615.383301m. Speed=14.580000m/h.</desc>
<speed>4.050000</speed>
</trkpt>
<trkpt lat="22.125439" lon="103.797966">
<ele>614.992676</ele>
<time>2011-04-25T08:56:30Z</time>
<desc>lat.=22.125439, lon.=103.797966, Alt.=614.992676m. Speed=17.856001m/h.</desc>
<speed>4.960000</speed>
</trkpt>
<trkpt lat="22.125389" lon="103.798172">
<ele>614.367676</ele>
<time>2011-04-25T08:56:35Z</time>
<desc>lat.=22.125389, lon.=103.798172, Alt.=614.367676m. Speed=13.212000m/h.</desc>
<speed>3.670000</speed>
</trkpt>
<trkpt lat="22.125322" lon="103.798401">
<ele>613.164551</ele>
<time>2011-04-25T08:56:40Z</time>
<desc>lat.=22.125322, lon.=103.798401, Alt.=613.164551m. Speed=16.128000m/h.</desc>
<speed>4.480000</speed>
</trkpt>
<trkpt lat="22.125240" lon="103.798615">
<ele>611.414551</ele>
<time>2011-04-25T08:56:45Z</time>
<desc>lat.=22.125240, lon.=103.798615, Alt.=611.414551m. Speed=12.276000m/h.</desc>
<speed>3.410000</speed>
</trkpt>
<trkpt lat="22.125111" lon="103.798851">
<ele>610.883301</ele>
<time>2011-04-25T08:56:50Z</time>
<desc>lat.=22.125111, lon.=103.798851, Alt.=610.883301m. Speed=15.552000m/h.</desc>
<speed>4.320000</speed>
</trkpt>
<trkpt lat="22.124931" lon="103.799042">
<ele>610.367676</ele>
<time>2011-04-25T08:56:55Z</time>
<desc>lat.=22.124931, lon.=103.799042, Alt.=610.367676m. Speed=13.860000m/h.</desc>
<speed>3.850000</speed>
</trkpt>
<trkpt lat="22.124756" lon="103.799187">
<ele>611.617676</ele>
<time>2011-04-25T08:57:00Z</time>
<desc>lat.=22.124756, lon.=103.799187, Alt.=611.617676m. Speed=15.444000m/h.</desc>
<speed>4.290000</speed>
</trkpt>
<trkpt lat="22.124592" lon="103.799339">
<ele>614.055176</ele>
<time>2011-04-25T08:57:05Z</time>
<desc>lat.=22.124592, lon.=103.799339, Alt.=614.055176m. Speed=13.212000m/h.</desc>
<speed>3.670000</speed>
</trkpt>
<trkpt lat="22.124435" lon="103.799438">
<ele>620.055176</ele>
<time>2011-04-25T08:57:10Z</time>
<desc>lat.=22.124435, lon.=103.799438, Alt.=620.055176m. Speed=12.384000m/h.</desc>
<speed>3.440000</speed>
</trkpt>
<trkpt lat="22.124331" lon="103.799538">
<ele>620.508301</ele>
<time>2011-04-25T08:57:15Z</time>
<desc>lat.=22.124331, lon.=103.799538, Alt.=620.508301m. Speed=9.036000m/h.</desc>
<speed>2.510000</speed>
</trkpt>
<trkpt lat="22.124268" lon="103.799591">
<ele>621.633301</ele>
<time>2011-04-25T08:57:20Z</time>
<desc>lat.=22.124268, lon.=103.799591, Alt.=621.633301m. Speed=7.308000m/h.</desc>
<speed>2.030000</speed>
</trkpt>
<trkpt lat="22.124146" lon="103.799706">
<ele>620.039551</ele>
<time>2011-04-25T08:57:25Z</time>
<desc>lat.=22.124146, lon.=103.799706, Alt.=620.039551m. Speed=15.084000m/h.</desc>
<speed>4.190000</speed>
</trkpt>
<trkpt lat="22.124052" lon="103.799881">
<ele>618.930176</ele>
<time>2011-04-25T08:57:30Z</time>
<desc>lat.=22.124052, lon.=103.799881, Alt.=618.930176m. Speed=15.732000m/h.</desc>
<speed>4.370000</speed>
</trkpt>
<trkpt lat="22.123974" lon="103.800087">
<ele>619.383301</ele>
<time>2011-04-25T08:57:35Z</time>
<desc>lat.=22.123974, lon.=103.800087, Alt.=619.383301m. Speed=17.136000m/h.</desc>
<speed>4.760000</speed>
</trkpt>
<trkpt lat="22.123966" lon="103.800316">
<ele>619.523926</ele>
<time>2011-04-25T08:57:40Z</time>
<desc>lat.=22.123966, lon.=103.800316, Alt.=619.523926m. Speed=14.580000m/h.</desc>
<speed>4.050000</speed>
</trkpt>
<trkpt lat="22.124035" lon="103.800499">
<ele>619.055176</ele>
<time>2011-04-25T08:57:45Z</time>
<desc>lat.=22.124035, lon.=103.800499, Alt.=619.055176m. Speed=16.379999m/h.</desc>
<speed>4.550000</speed>
</trkpt>
<trkpt lat="22.124203" lon="103.800644">
<ele>618.602051</ele>
<time>2011-04-25T08:57:50Z</time>
<desc>lat.=22.124203, lon.=103.800644, Alt.=618.602051m. Speed=18.540001m/h.</desc>
<speed>5.150000</speed>
</trkpt>
<trkpt lat="22.124395" lon="103.800766">
<ele>618.055176</ele>
<time>2011-04-25T08:57:55Z</time>
<desc>lat.=22.124395, lon.=103.800766, Alt.=618.055176m. Speed=17.351999m/h.</desc>
<speed>4.820000</speed>
</trkpt>
<trkpt lat="22.124578" lon="103.800888">
<ele>617.617676</ele>
<time>2011-04-25T08:58:00Z</time>
<desc>lat.=22.124578, lon.=103.800888, Alt.=617.617676m. Speed=15.336000m/h.</desc>
<speed>4.260000</speed>
</trkpt>
<trkpt lat="22.124695" lon="103.801003">
<ele>617.023926</ele>
<time>2011-04-25T08:58:05Z</time>
<desc>lat.=22.124695, lon.=103.801003, Alt.=617.023926m. Speed=11.232000m/h.</desc>
<speed>3.120000</speed>
</trkpt>
<trkpt lat="22.124783" lon="103.801117">
<ele>616.195801</ele>
<time>2011-04-25T08:58:10Z</time>
<desc>lat.=22.124783, lon.=103.801117, Alt.=616.195801m. Speed=10.044000m/h.</desc>
<speed>2.790000</speed>
</trkpt>
<trkpt lat="22.124847" lon="103.801247">
<ele>615.039551</ele>
<time>2011-04-25T08:58:15Z</time>
<desc>lat.=22.124847, lon.=103.801247, Alt.=615.039551m. Speed=11.088000m/h.</desc>
<speed>3.080000</speed>
</trkpt>
<trkpt lat="22.124886" lon="103.801392">
<ele>614.258301</ele>
<time>2011-04-25T08:58:20Z</time>
<desc>lat.=22.124886, lon.=103.801392, Alt.=614.258301m. Speed=10.116000m/h.</desc>
<speed>2.810000</speed>
</trkpt>
<trkpt lat="22.124928" lon="103.801537">
<ele>615.398926</ele>
<time>2011-04-25T08:58:25Z</time>
<desc>lat.=22.124928, lon.=103.801537, Alt.=615.398926m. Speed=9.756000m/h.</desc>
<speed>2.710000</speed>
</trkpt>
<trkpt lat="22.124964" lon="103.801666">
<ele>616.961426</ele>
<time>2011-04-25T08:58:30Z</time>
<desc>lat.=22.124964, lon.=103.801666, Alt.=616.961426m. Speed=9.396000m/h.</desc>
<speed>2.610000</speed>
</trkpt>
<trkpt lat="22.124977" lon="103.801720">
<ele>615.195801</ele>
<time>2011-04-25T08:58:35Z</time>
<desc>lat.=22.124977, lon.=103.801720, Alt.=615.195801m. Speed=6.480000m/h.</desc>
<speed>1.800000</speed>
</trkpt>
<trkpt lat="22.124989" lon="103.801819">
<ele>614.680176</ele>
<time>2011-04-25T08:58:40Z</time>
<desc>lat.=22.124989, lon.=103.801819, Alt.=614.680176m. Speed=6.876000m/h.</desc>
<speed>1.910000</speed>
</trkpt>
<trkpt lat="22.124983" lon="103.801903">
<ele>615.711426</ele>
<time>2011-04-25T08:58:45Z</time>
<desc>lat.=22.124983, lon.=103.801903, Alt.=615.711426m. Speed=6.516000m/h.</desc>
<speed>1.810000</speed>
</trkpt>
<trkpt lat="22.124969" lon="103.801987">
<ele>617.523926</ele>
<time>2011-04-25T08:58:50Z</time>
<desc>lat.=22.124969, lon.=103.801987, Alt.=617.523926m. Speed=5.580000m/h.</desc>
<speed>1.550000</speed>
</trkpt>
<trkpt lat="22.124943" lon="103.802048">
<ele>618.977051</ele>
<time>2011-04-25T08:58:55Z</time>
<desc>lat.=22.124943, lon.=103.802048, Alt.=618.977051m. Speed=4.032000m/h.</desc>
<speed>1.120000</speed>
</trkpt>
<trkpt lat="22.124899" lon="103.802094">
<ele>619.617676</ele>
<time>2011-04-25T08:59:00Z</time>
<desc>lat.=22.124899, lon.=103.802094, Alt.=619.617676m. Speed=5.184000m/h.</desc>
<speed>1.440000</speed>
</trkpt>
<trkpt lat="22.124863" lon="103.802162">
<ele>621.023926</ele>
<time>2011-04-25T08:59:05Z</time>
<desc>lat.=22.124863, lon.=103.802162, Alt.=621.023926m. Speed=6.048000m/h.</desc>
<speed>1.680000</speed>
</trkpt>
<trkpt lat="22.124811" lon="103.802231">
<ele>622.289551</ele>
<time>2011-04-25T08:59:10Z</time>
<desc>lat.=22.124811, lon.=103.802231, Alt.=622.289551m. Speed=5.112000m/h.</desc>
<speed>1.420000</speed>
</trkpt>
<trkpt lat="22.124756" lon="103.802277">
<ele>625.008301</ele>
<time>2011-04-25T08:59:15Z</time>
<desc>lat.=22.124756, lon.=103.802277, Alt.=625.008301m. Speed=6.228000m/h.</desc>
<speed>1.730000</speed>
</trkpt>
<trkpt lat="22.124714" lon="103.802345">
<ele>626.570801</ele>
<time>2011-04-25T08:59:20Z</time>
<desc>lat.=22.124714, lon.=103.802345, Alt.=626.570801m. Speed=5.292000m/h.</desc>
<speed>1.470000</speed>
</trkpt>
<trkpt lat="22.124666" lon="103.802399">
<ele>627.305176</ele>
<time>2011-04-25T08:59:25Z</time>
<desc>lat.=22.124666, lon.=103.802399, Alt.=627.305176m. Speed=5.868000m/h.</desc>
<speed>1.630000</speed>
</trkpt>
<trkpt lat="22.124624" lon="103.802460">
<ele>627.789551</ele>
<time>2011-04-25T08:59:30Z</time>
<desc>lat.=22.124624, lon.=103.802460, Alt.=627.789551m. Speed=4.284000m/h.</desc>
<speed>1.190000</speed>
</trkpt>
<trkpt lat="22.124582" lon="103.802505">
<ele>629.055176</ele>
<time>2011-04-25T08:59:35Z</time>
<desc>lat.=22.124582, lon.=103.802505, Alt.=629.055176m. Speed=6.084000m/h.</desc>
<speed>1.690000</speed>
</trkpt>
<trkpt lat="22.124542" lon="103.802559">
<ele>629.508301</ele>
<time>2011-04-25T08:59:40Z</time>
<desc>lat.=22.124542, lon.=103.802559, Alt.=629.508301m. Speed=5.148000m/h.</desc>
<speed>1.430000</speed>
</trkpt>
<trkpt lat="22.124523" lon="103.802628">
<ele>629.820801</ele>
<time>2011-04-25T08:59:45Z</time>
<desc>lat.=22.124523, lon.=103.802628, Alt.=629.820801m. Speed=4.860000m/h.</desc>
<speed>1.350000</speed>
</trkpt>
<trkpt lat="22.124516" lon="103.802696">
<ele>630.070801</ele>
<time>2011-04-25T08:59:50Z</time>
<desc>lat.=22.124516, lon.=103.802696, Alt.=630.070801m. Speed=4.464000m/h.</desc>
<speed>1.240000</speed>
</trkpt>
<trkpt lat="22.124525" lon="103.802780">
<ele>630.852051</ele>
<time>2011-04-25T08:59:55Z</time>
<desc>lat.=22.124525, lon.=103.802780, Alt.=630.852051m. Speed=4.608000m/h.</desc>
<speed>1.280000</speed>
</trkpt>
<trkpt lat="22.124525" lon="103.802834">
<ele>632.008301</ele>
<time>2011-04-25T09:00:00Z</time>
<desc>lat.=22.124525, lon.=103.802834, Alt.=632.008301m. Speed=3.312000m/h.</desc>
<speed>0.920000</speed>
</trkpt>
<trkpt lat="22.124537" lon="103.802910">
<ele>633.227051</ele>
<time>2011-04-25T09:00:05Z</time>
<desc>lat.=22.124537, lon.=103.802910, Alt.=633.227051m. Speed=6.912000m/h.</desc>
<speed>1.920000</speed>
</trkpt>
<trkpt lat="22.124554" lon="103.802986">
<ele>634.305176</ele>
<time>2011-04-25T09:00:10Z</time>
<desc>lat.=22.124554, lon.=103.802986, Alt.=634.305176m. Speed=3.420000m/h.</desc>
<speed>0.950000</speed>
</trkpt>
<trkpt lat="22.124580" lon="103.803085">
<ele>635.930176</ele>
<time>2011-04-25T09:00:15Z</time>
<desc>lat.=22.124580, lon.=103.803085, Alt.=635.930176m. Speed=4.860000m/h.</desc>
<speed>1.350000</speed>
</trkpt>
<trkpt lat="22.124588" lon="103.803162">
<ele>638.523926</ele>
<time>2011-04-25T09:00:20Z</time>
<desc>lat.=22.124588, lon.=103.803162, Alt.=638.523926m. Speed=8.064000m/h.</desc>
<speed>2.240000</speed>
</trkpt>
<trkpt lat="22.124599" lon="103.803223">
<ele>640.836426</ele>
<time>2011-04-25T09:00:25Z</time>
<desc>lat.=22.124599, lon.=103.803223, Alt.=640.836426m. Speed=4.500000m/h.</desc>
<speed>1.250000</speed>
</trkpt>
<trkpt lat="22.124613" lon="103.803261">
<ele>642.727051</ele>
<time>2011-04-25T09:00:30Z</time>
<desc>lat.=22.124613, lon.=103.803261, Alt.=642.727051m. Speed=5.112000m/h.</desc>
<speed>1.420000</speed>
</trkpt>
<trkpt lat="22.124636" lon="103.803337">
<ele>644.648926</ele>
<time>2011-04-25T09:00:35Z</time>
<desc>lat.=22.124636, lon.=103.803337, Alt.=644.648926m. Speed=3.924000m/h.</desc>
<speed>1.090000</speed>
</trkpt>
<trkpt lat="22.124645" lon="103.803398">
<ele>646.367676</ele>
<time>2011-04-25T09:00:40Z</time>
<desc>lat.=22.124645, lon.=103.803398, Alt.=646.367676m. Speed=3.240000m/h.</desc>
<speed>0.900000</speed>
</trkpt>
<trkpt lat="22.124674" lon="103.803474">
<ele>648.289551</ele>
<time>2011-04-25T09:00:45Z</time>
<desc>lat.=22.124674, lon.=103.803474, Alt.=648.289551m. Speed=2.808000m/h.</desc>
<speed>0.780000</speed>
</trkpt>
<trkpt lat="22.124697" lon="103.803528">
<ele>649.617676</ele>
<time>2011-04-25T09:00:50Z</time>
<desc>lat.=22.124697, lon.=103.803528, Alt.=649.617676m. Speed=2.520000m/h.</desc>
<speed>0.700000</speed>
</trkpt>
<trkpt lat="22.124699" lon="103.803574">
<ele>650.680176</ele>
<time>2011-04-25T09:00:55Z</time>
<desc>lat.=22.124699, lon.=103.803574, Alt.=650.680176m. Speed=1.908000m/h.</desc>
<speed>0.530000</speed>
</trkpt>
<trkpt lat="22.124722" lon="103.803635">
<ele>653.289551</ele>
<time>2011-04-25T09:01:00Z</time>
<desc>lat.=22.124722, lon.=103.803635, Alt.=653.289551m. Speed=0.612000m/h.</desc>
<speed>0.170000</speed>
</trkpt>
<trkpt lat="22.124731" lon="103.803650">
<ele>653.617676</ele>
<time>2011-04-25T09:01:05Z</time>
<desc>lat.=22.124731, lon.=103.803650, Alt.=653.617676m. Speed=0.864000m/h.</desc>
<speed>0.240000</speed>
</trkpt>
<trkpt lat="22.124735" lon="103.803650">
<ele>653.711426</ele>
<time>2011-04-25T09:01:10Z</time>
<desc>lat.=22.124735, lon.=103.803650, Alt.=653.711426m. Speed=0.468000m/h.</desc>
<speed>0.130000</speed>
</trkpt>
<trkpt lat="22.124737" lon="103.803665">
<ele>653.914551</ele>
<time>2011-04-25T09:01:15Z</time>
<desc>lat.=22.124737, lon.=103.803665, Alt.=653.914551m. Speed=1.476000m/h.</desc>
<speed>0.410000</speed>
</trkpt>
<trkpt lat="22.124762" lon="103.803749">
<ele>654.492676</ele>
<time>2011-04-25T09:01:20Z</time>
<desc>lat.=22.124762, lon.=103.803749, Alt.=654.492676m. Speed=5.436000m/h.</desc>
<speed>1.510000</speed>
</trkpt>
<trkpt lat="22.124844" lon="103.803894">
<ele>654.195801</ele>
<time>2011-04-25T09:01:25Z</time>
<desc>lat.=22.124844, lon.=103.803894, Alt.=654.195801m. Speed=6.876000m/h.</desc>
<speed>1.910000</speed>
</trkpt>
<trkpt lat="22.124893" lon="103.803963">
<ele>653.992676</ele>
<time>2011-04-25T09:01:30Z</time>
<desc>lat.=22.124893, lon.=103.803963, Alt.=653.992676m. Speed=9.720000m/h.</desc>
<speed>2.700000</speed>
</trkpt>
<trkpt lat="22.124964" lon="103.804039">
<ele>654.352051</ele>
<time>2011-04-25T09:01:35Z</time>
<desc>lat.=22.124964, lon.=103.804039, Alt.=654.352051m. Speed=8.460000m/h.</desc>
<speed>2.350000</speed>
</trkpt>
<trkpt lat="22.125042" lon="103.804123">
<ele>654.680176</ele>
<time>2011-04-25T09:01:40Z</time>
<desc>lat.=22.125042, lon.=103.804123, Alt.=654.680176m. Speed=10.368000m/h.</desc>
<speed>2.880000</speed>
</trkpt>
<trkpt lat="22.125149" lon="103.804214">
<ele>654.758301</ele>
<time>2011-04-25T09:01:45Z</time>
<desc>lat.=22.125149, lon.=103.804214, Alt.=654.758301m. Speed=8.928000m/h.</desc>
<speed>2.480000</speed>
</trkpt>
<trkpt lat="22.125225" lon="103.804291">
<ele>654.961426</ele>
<time>2011-04-25T09:01:50Z</time>
<desc>lat.=22.125225, lon.=103.804291, Alt.=654.961426m. Speed=7.560000m/h.</desc>
<speed>2.100000</speed>
</trkpt>
<trkpt lat="22.125298" lon="103.804359">
<ele>654.945801</ele>
<time>2011-04-25T09:01:55Z</time>
<desc>lat.=22.125298, lon.=103.804359, Alt.=654.945801m. Speed=6.624000m/h.</desc>
<speed>1.840000</speed>
</trkpt>
<trkpt lat="22.125364" lon="103.804443">
<ele>655.305176</ele>
<time>2011-04-25T09:02:00Z</time>
<desc>lat.=22.125364, lon.=103.804443, Alt.=655.305176m. Speed=5.688000m/h.</desc>
<speed>1.580000</speed>
</trkpt>
<trkpt lat="22.125439" lon="103.804497">
<ele>655.383301</ele>
<time>2011-04-25T09:02:05Z</time>
<desc>lat.=22.125439, lon.=103.804497, Alt.=655.383301m. Speed=5.148000m/h.</desc>
<speed>1.430000</speed>
</trkpt>
<trkpt lat="22.125488" lon="103.804558">
<ele>655.289551</ele>
<time>2011-04-25T09:02:10Z</time>
<desc>lat.=22.125488, lon.=103.804558, Alt.=655.289551m. Speed=4.068000m/h.</desc>
<speed>1.130000</speed>
</trkpt>
<trkpt lat="22.125500" lon="103.804543">
<ele>655.320801</ele>
<time>2011-04-25T09:02:15Z</time>
<desc>lat.=22.125500, lon.=103.804543, Alt.=655.320801m. Speed=0.684000m/h.</desc>
<speed>0.190000</speed>
</trkpt>
<trkpt lat="22.125500" lon="103.804543">
<ele>655.258301</ele>
<time>2011-04-25T09:02:20Z</time>
<desc>lat.=22.125500, lon.=103.804543, Alt.=655.258301m. Speed=0.144000m/h.</desc>
<speed>0.040000</speed>
</trkpt>
<trkpt lat="22.125523" lon="103.804558">
<ele>655.320801</ele>
<time>2011-04-25T09:02:25Z</time>
<desc>lat.=22.125523, lon.=103.804558, Alt.=655.320801m. Speed=3.456000m/h.</desc>
<speed>0.960000</speed>
</trkpt>
<trkpt lat="22.125599" lon="103.804634">
<ele>655.633301</ele>
<time>2011-04-25T09:02:30Z</time>
<desc>lat.=22.125599, lon.=103.804634, Alt.=655.633301m. Speed=8.496000m/h.</desc>
<speed>2.360000</speed>
</trkpt>
<trkpt lat="22.125692" lon="103.804726">
<ele>655.898926</ele>
<time>2011-04-25T09:02:35Z</time>
<desc>lat.=22.125692, lon.=103.804726, Alt.=655.898926m. Speed=8.208000m/h.</desc>
<speed>2.280000</speed>
</trkpt>
<trkpt lat="22.125782" lon="103.804787">
<ele>655.898926</ele>
<time>2011-04-25T09:02:40Z</time>
<desc>lat.=22.125782, lon.=103.804787, Alt.=655.898926m. Speed=8.136000m/h.</desc>
<speed>2.260000</speed>
</trkpt>
<trkpt lat="22.125889" lon="103.804855">
<ele>655.883301</ele>
<time>2011-04-25T09:02:45Z</time>
<desc>lat.=22.125889, lon.=103.804855, Alt.=655.883301m. Speed=5.184000m/h.</desc>
<speed>1.440000</speed>
</trkpt>
<trkpt lat="22.125948" lon="103.804901">
<ele>655.883301</ele>
<time>2011-04-25T09:02:50Z</time>
<desc>lat.=22.125948, lon.=103.804901, Alt.=655.883301m. Speed=4.104000m/h.</desc>
<speed>1.140000</speed>
</trkpt>
<trkpt lat="22.125996" lon="103.804939">
<ele>656.148926</ele>
<time>2011-04-25T09:02:55Z</time>
<desc>lat.=22.125996, lon.=103.804939, Alt.=656.148926m. Speed=3.960000m/h.</desc>
<speed>1.100000</speed>
</trkpt>
<trkpt lat="22.126024" lon="103.804962">
<ele>656.477051</ele>
<time>2011-04-25T09:03:00Z</time>
<desc>lat.=22.126024, lon.=103.804962, Alt.=656.477051m. Speed=0.180000m/h.</desc>
<speed>0.050000</speed>
</trkpt>
<trkpt lat="22.126026" lon="103.804962">
<ele>656.789551</ele>
<time>2011-04-25T09:03:05Z</time>
<desc>lat.=22.126026, lon.=103.804962, Alt.=656.789551m. Speed=0.108000m/h.</desc>
<speed>0.030000</speed>
</trkpt>
<trkpt lat="22.126024" lon="103.804962">
<ele>657.117676</ele>
<time>2011-04-25T09:03:10Z</time>
<desc>lat.=22.126024, lon.=103.804962, Alt.=657.117676m. Speed=0.360000m/h.</desc>
<speed>0.100000</speed>
</trkpt>
<trkpt lat="22.126020" lon="103.804962">
<ele>657.445801</ele>
<time>2011-04-25T09:03:15Z</time>
<desc>lat.=22.126020, lon.=103.804962, Alt.=657.445801m. Speed=0.432000m/h.</desc>
<speed>0.120000</speed>
</trkpt>
<trkpt lat="22.126015" lon="103.804962">
<ele>657.773926</ele>
<time>2011-04-25T09:03:20Z</time>
<desc>lat.=22.126015, lon.=103.804962, Alt.=657.773926m. Speed=0.468000m/h.</desc>
<speed>0.130000</speed>
</trkpt>
<trkpt lat="22.126011" lon="103.804962">
<ele>658.102051</ele>
<time>2011-04-25T09:03:25Z</time>
<desc>lat.=22.126011, lon.=103.804962, Alt.=658.102051m. Speed=0.216000m/h.</desc>
<speed>0.060000</speed>
</trkpt>
<trkpt lat="22.126009" lon="103.804962">
<ele>658.445801</ele>
<time>2011-04-25T09:03:30Z</time>
<desc>lat.=22.126009, lon.=103.804962, Alt.=658.445801m. Speed=0.144000m/h.</desc>
<speed>0.040000</speed>
</trkpt>
<trkpt lat="22.126009" lon="103.804962">
<ele>658.477051</ele>
<time>2011-04-25T09:03:35Z</time>
<desc>lat.=22.126009, lon.=103.804962, Alt.=658.477051m. Speed=0.036000m/h.</desc>
<speed>0.010000</speed>
</trkpt>
<trkpt lat="22.126011" lon="103.804962">
<ele>658.523926</ele>
<time>2011-04-25T09:03:40Z</time>
<desc>lat.=22.126011, lon.=103.804962, Alt.=658.523926m. Speed=0.036000m/h.</desc>
<speed>0.010000</speed>
</trkpt>
<trkpt lat="22.126011" lon="103.804962">
<ele>658.570801</ele>
<time>2011-04-25T09:03:45Z</time>
<desc>lat.=22.126011, lon.=103.804962, Alt.=658.570801m. Speed=0.036000m/h.</desc>
<speed>0.010000</speed>
</trkpt>
<trkpt lat="22.126011" lon="103.804962">
<ele>658.617676</ele>
<time>2011-04-25T09:03:50Z</time>
<desc>lat.=22.126011, lon.=103.804962, Alt.=658.617676m. Speed=0.036000m/h.</desc>
<speed>0.010000</speed>
</trkpt>
<trkpt lat="22.126011" lon="103.804962">
<ele>658.664551</ele>
<time>2011-04-25T09:03:55Z</time>
<desc>lat.=22.126011, lon.=103.804962, Alt.=658.664551m. Speed=0.036000m/h.</desc>
<speed>0.010000</speed>
</trkpt>
<trkpt lat="22.126011" lon="103.804962">
<ele>658.695801</ele>
<time>2011-04-25T09:04:00Z</time>
<desc>lat.=22.126011, lon.=103.804962, Alt.=658.695801m. Speed=0.036000m/h.</desc>
<speed>0.010000</speed>
</trkpt>
<trkpt lat="22.126011" lon="103.804962">
<ele>658.711426</ele>
<time>2011-04-25T09:04:05Z</time>
<desc>lat.=22.126011, lon.=103.804962, Alt.=658.711426m. Speed=0.036000m/h.</desc>
<speed>0.010000</speed>
</trkpt>
<trkpt lat="22.126011" lon="103.804962">
<ele>658.742676</ele>
<time>2011-04-25T09:04:10Z</time>
<desc>lat.=22.126011, lon.=103.804962, Alt.=658.742676m. Speed=0.000000m/h.</desc>
<speed>0.000000</speed>
</trkpt>
<trkpt lat="22.126011" lon="103.804962">
<ele>658.758301</ele>
<time>2011-04-25T09:04:15Z</time>
<desc>lat.=22.126011, lon.=103.804962, Alt.=658.758301m. Speed=0.000000m/h.</desc>
<speed>0.000000</speed>
</trkpt>
<trkpt lat="22.126011" lon="103.804962">
<ele>658.773926</ele>
<time>2011-04-25T09:04:20Z</time>
<desc>lat.=22.126011, lon.=103.804962, Alt.=658.773926m. Speed=0.000000m/h.</desc>
<speed>0.000000</speed>
</trkpt>
<trkpt lat="22.126011" lon="103.804962">
<ele>658.773926</ele>
<time>2011-04-25T09:04:25Z</time>
<desc>lat.=22.126011, lon.=103.804962, Alt.=658.773926m. Speed=0.000000m/h.</desc>
<speed>0.000000</speed>
</trkpt>
<trkpt lat="22.126011" lon="103.804962">
<ele>658.805176</ele>
<time>2011-04-25T09:04:30Z</time>
<desc>lat.=22.126011, lon.=103.804962, Alt.=658.805176m. Speed=0.000000m/h.</desc>
<speed>0.000000</speed>
</trkpt>
<trkpt lat="22.126011" lon="103.804962">
<ele>658.836426</ele>
<time>2011-04-25T09:04:35Z</time>
<desc>lat.=22.126011, lon.=103.804962, Alt.=658.836426m. Speed=0.000000m/h.</desc>
<speed>0.000000</speed>
</trkpt>
<trkpt lat="22.126011" lon="103.804962">
<ele>658.852051</ele>
<time>2011-04-25T09:04:40Z</time>
<desc>lat.=22.126011, lon.=103.804962, Alt.=658.852051m. Speed=0.036000m/h.</desc>
<speed>0.010000</speed>
</trkpt>
<trkpt lat="22.126011" lon="103.804962">
<ele>658.867676</ele>
<time>2011-04-25T09:04:45Z</time>
<desc>lat.=22.126011, lon.=103.804962, Alt.=658.867676m. Speed=0.000000m/h.</desc>
<speed>0.000000</speed>
</trkpt>
<trkpt lat="22.126013" lon="103.804962">
<ele>658.852051</ele>
<time>2011-04-25T09:04:50Z</time>
<desc>lat.=22.126013, lon.=103.804962, Alt.=658.852051m. Speed=0.000000m/h.</desc>
<speed>0.000000</speed>
</trkpt>
<trkpt lat="22.126013" lon="103.804962">
<ele>658.852051</ele>
<time>2011-04-25T09:04:55Z</time>
<desc>lat.=22.126013, lon.=103.804962, Alt.=658.852051m. Speed=0.036000m/h.</desc>
<speed>0.010000</speed>
</trkpt>
<trkpt lat="22.126013" lon="103.804962">
<ele>658.867676</ele>
<time>2011-04-25T09:05:00Z</time>
<desc>lat.=22.126013, lon.=103.804962, Alt.=658.867676m. Speed=0.000000m/h.</desc>
<speed>0.000000</speed>
</trkpt>
<trkpt lat="22.126013" lon="103.804962">
<ele>658.867676</ele>
<time>2011-04-25T09:05:05Z</time>
<desc>lat.=22.126013, lon.=103.804962, Alt.=658.867676m. Speed=0.036000m/h.</desc>
<speed>0.010000</speed>
</trkpt>
<trkpt lat="22.126013" lon="103.804962">
<ele>658.789551</ele>
<time>2011-04-25T09:05:10Z</time>
<desc>lat.=22.126013, lon.=103.804962, Alt.=658.789551m. Speed=0.000000m/h.</desc>
<speed>0.000000</speed>
</trkpt>
<trkpt lat="22.126020" lon="103.804962">
<ele>658.367676</ele>
<time>2011-04-25T09:05:15Z</time>
<desc>lat.=22.126020, lon.=103.804962, Alt.=658.367676m. Speed=0.108000m/h.</desc>
<speed>0.030000</speed>
</trkpt>
<trkpt lat="22.126020" lon="103.804962">
<ele>658.477051</ele>
<time>2011-04-25T09:05:20Z</time>
<desc>lat.=22.126020, lon.=103.804962, Alt.=658.477051m. Speed=0.036000m/h.</desc>
<speed>0.010000</speed>
</trkpt>
<trkpt lat="22.126024" lon="103.804962">
<ele>659.180176</ele>
<time>2011-04-25T09:05:25Z</time>
<desc>lat.=22.126024, lon.=103.804962, Alt.=659.180176m. Speed=0.036000m/h.</desc>
<speed>0.010000</speed>
</trkpt>
<trkpt lat="22.126036" lon="103.804970">
<ele>659.367676</ele>
<time>2011-04-25T09:05:30Z</time>
<desc>lat.=22.126036, lon.=103.804970, Alt.=659.367676m. Speed=0.000000m/h.</desc>
<speed>0.000000</speed>
</trkpt>
<trkpt lat="22.126040" lon="103.804977">
<ele>659.758301</ele>
<time>2011-04-25T09:05:35Z</time>
<desc>lat.=22.126040, lon.=103.804977, Alt.=659.758301m. Speed=0.000000m/h.</desc>
<speed>0.000000</speed>
</trkpt>
<trkpt lat="22.126040" lon="103.804977">
<ele>659.977051</ele>
<time>2011-04-25T09:05:40Z</time>
<desc>lat.=22.126040, lon.=103.804977, Alt.=659.977051m. Speed=0.000000m/h.</desc>
<speed>0.000000</speed>
</trkpt>
<trkpt lat="22.126038" lon="103.804985">
<ele>660.164551</ele>
<time>2011-04-25T09:05:45Z</time>
<desc>lat.=22.126038, lon.=103.804985, Alt.=660.164551m. Speed=0.036000m/h.</desc>
<speed>0.010000</speed>
</trkpt>
<trkpt lat="22.126032" lon="103.804993">
<ele>660.633301</ele>
<time>2011-04-25T09:05:50Z</time>
<desc>lat.=22.126032, lon.=103.804993, Alt.=660.633301m. Speed=0.036000m/h.</desc>
<speed>0.010000</speed>
</trkpt>
<trkpt lat="22.126034" lon="103.804985">
<ele>660.664551</ele>
<time>2011-04-25T09:05:55Z</time>
<desc>lat.=22.126034, lon.=103.804985, Alt.=660.664551m. Speed=0.036000m/h.</desc>
<speed>0.010000</speed>
</trkpt>
<trkpt lat="22.126034" lon="103.804985">
<ele>660.680176</ele>
<time>2011-04-25T09:06:00Z</time>
<desc>lat.=22.126034, lon.=103.804985, Alt.=660.680176m. Speed=0.036000m/h.</desc>
<speed>0.010000</speed>
</trkpt>
<trkpt lat="22.126034" lon="103.804985">
<ele>660.742676</ele>
<time>2011-04-25T09:06:05Z</time>
<desc>lat.=22.126034, lon.=103.804985, Alt.=660.742676m. Speed=0.000000m/h.</desc>
<speed>0.000000</speed>
</trkpt>
<trkpt lat="22.126034" lon="103.804985">
<ele>660.805176</ele>
<time>2011-04-25T09:06:10Z</time>
<desc>lat.=22.126034, lon.=103.804985, Alt.=660.805176m. Speed=0.036000m/h.</desc>
<speed>0.010000</speed>
</trkpt>
<trkpt lat="22.126034" lon="103.804985">
<ele>660.852051</ele>
<time>2011-04-25T09:06:15Z</time>
<desc>lat.=22.126034, lon.=103.804985, Alt.=660.852051m. Speed=0.036000m/h.</desc>
<speed>0.010000</speed>
</trkpt>
<trkpt lat="22.126038" lon="103.804993">
<ele>662.086426</ele>
<time>2011-04-25T09:06:20Z</time>
<desc>lat.=22.126038, lon.=103.804993, Alt.=662.086426m. Speed=0.684000m/h.</desc>
<speed>0.190000</speed>
</trkpt>
<trkpt lat="22.126034" lon="103.804993">
<ele>663.148926</ele>
<time>2011-04-25T09:06:25Z</time>
<desc>lat.=22.126034, lon.=103.804993, Alt.=663.148926m. Speed=0.072000m/h.</desc>
<speed>0.020000</speed>
</trkpt>
<trkpt lat="22.126032" lon="103.804993">
<ele>663.336426</ele>
<time>2011-04-25T09:06:30Z</time>
<desc>lat.=22.126032, lon.=103.804993, Alt.=663.336426m. Speed=0.144000m/h.</desc>
<speed>0.040000</speed>
</trkpt>
<trkpt lat="22.126034" lon="103.804993">
<ele>663.352051</ele>
<time>2011-04-25T09:06:35Z</time>
<desc>lat.=22.126034, lon.=103.804993, Alt.=663.352051m. Speed=0.072000m/h.</desc>
<speed>0.020000</speed>
</trkpt>
<trkpt lat="22.126034" lon="103.804993">
<ele>663.352051</ele>
<time>2011-04-25T09:06:40Z</time>
<desc>lat.=22.126034, lon.=103.804993, Alt.=663.352051m. Speed=0.432000m/h.</desc>
<speed>0.120000</speed>
</trkpt>
<trkpt lat="22.126080" lon="103.805008">
<ele>663.398926</ele>
<time>2011-04-25T09:06:45Z</time>
<desc>lat.=22.126080, lon.=103.805008, Alt.=663.398926m. Speed=4.428000m/h.</desc>
<speed>1.230000</speed>
</trkpt>
<trkpt lat="22.126215" lon="103.805084">
<ele>664.039551</ele>
<time>2011-04-25T09:06:50Z</time>
<desc>lat.=22.126215, lon.=103.805084, Alt.=664.039551m. Speed=8.028000m/h.</desc>
<speed>2.230000</speed>
</trkpt>
<trkpt lat="22.126291" lon="103.805191">
<ele>664.914551</ele>
<time>2011-04-25T09:06:55Z</time>
<desc>lat.=22.126291, lon.=103.805191, Alt.=664.914551m. Speed=8.208000m/h.</desc>
<speed>2.280000</speed>
</trkpt>
<trkpt lat="22.126299" lon="103.805283">
<ele>665.852051</ele>
<time>2011-04-25T09:07:00Z</time>
<desc>lat.=22.126299, lon.=103.805283, Alt.=665.852051m. Speed=5.148000m/h.</desc>
<speed>1.430000</speed>
</trkpt>
<trkpt lat="22.126289" lon="103.805351">
<ele>666.914551</ele>
<time>2011-04-25T09:07:05Z</time>
<desc>lat.=22.126289, lon.=103.805351, Alt.=666.914551m. Speed=4.608000m/h.</desc>
<speed>1.280000</speed>
</trkpt>
<trkpt lat="22.126245" lon="103.805412">
<ele>667.586426</ele>
<time>2011-04-25T09:07:10Z</time>
<desc>lat.=22.126245, lon.=103.805412, Alt.=667.586426m. Speed=7.272000m/h.</desc>
<speed>2.020000</speed>
</trkpt>
<trkpt lat="22.126162" lon="103.805450">
<ele>668.242676</ele>
<time>2011-04-25T09:07:15Z</time>
<desc>lat.=22.126162, lon.=103.805450, Alt.=668.242676m. Speed=5.292000m/h.</desc>
<speed>1.470000</speed>
</trkpt>
<trkpt lat="22.126101" lon="103.805443">
<ele>668.852051</ele>
<time>2011-04-25T09:07:20Z</time>
<desc>lat.=22.126101, lon.=103.805443, Alt.=668.852051m. Speed=5.400000m/h.</desc>
<speed>1.500000</speed>
</trkpt>
<trkpt lat="22.126024" lon="103.805428">
<ele>669.398926</ele>
<time>2011-04-25T09:07:25Z</time>
<desc>lat.=22.126024, lon.=103.805428, Alt.=669.398926m. Speed=5.616000m/h.</desc>
<speed>1.560000</speed>
</trkpt>
<trkpt lat="22.125940" lon="103.805412">
<ele>669.898926</ele>
<time>2011-04-25T09:07:30Z</time>
<desc>lat.=22.125940, lon.=103.805412, Alt.=669.898926m. Speed=9.036000m/h.</desc>
<speed>2.510000</speed>
</trkpt>
<trkpt lat="22.125875" lon="103.805405">
<ele>670.617676</ele>
<time>2011-04-25T09:07:35Z</time>
<desc>lat.=22.125875, lon.=103.805405, Alt.=670.617676m. Speed=4.716000m/h.</desc>
<speed>1.310000</speed>
</trkpt>
<trkpt lat="22.125847" lon="103.805435">
<ele>670.477051</ele>
<time>2011-04-25T09:07:40Z</time>
<desc>lat.=22.125847, lon.=103.805435, Alt.=670.477051m. Speed=4.824000m/h.</desc>
<speed>1.340000</speed>
</trkpt>
<trkpt lat="22.125818" lon="103.805481">
<ele>669.305176</ele>
<time>2011-04-25T09:07:45Z</time>
<desc>lat.=22.125818, lon.=103.805481, Alt.=669.305176m. Speed=4.536000m/h.</desc>
<speed>1.260000</speed>
</trkpt>
<trkpt lat="22.125757" lon="103.805511">
<ele>668.820801</ele>
<time>2011-04-25T09:07:50Z</time>
<desc>lat.=22.125757, lon.=103.805511, Alt.=668.820801m. Speed=4.788000m/h.</desc>
<speed>1.330000</speed>
</trkpt>
<trkpt lat="22.125698" lon="103.805557">
<ele>668.711426</ele>
<time>2011-04-25T09:07:55Z</time>
<desc>lat.=22.125698, lon.=103.805557, Alt.=668.711426m. Speed=4.896000m/h.</desc>
<speed>1.360000</speed>
</trkpt>
<trkpt lat="22.125624" lon="103.805557">
<ele>669.320801</ele>
<time>2011-04-25T09:08:00Z</time>
<desc>lat.=22.125624, lon.=103.805557, Alt.=669.320801m. Speed=4.464000m/h.</desc>
<speed>1.240000</speed>
</trkpt>
<trkpt lat="22.125549" lon="103.805565">
<ele>669.211426</ele>
<time>2011-04-25T09:08:05Z</time>
<desc>lat.=22.125549, lon.=103.805565, Alt.=669.211426m. Speed=3.960000m/h.</desc>
<speed>1.100000</speed>
</trkpt>
<trkpt lat="22.125458" lon="103.805557">
<ele>668.883301</ele>
<time>2011-04-25T09:08:10Z</time>
<desc>lat.=22.125458, lon.=103.805557, Alt.=668.883301m. Speed=4.140000m/h.</desc>
<speed>1.150000</speed>
</trkpt>
<trkpt lat="22.125370" lon="103.805588">
<ele>668.117676</ele>
<time>2011-04-25T09:08:15Z</time>
<desc>lat.=22.125370, lon.=103.805588, Alt.=668.117676m. Speed=4.680000m/h.</desc>
<speed>1.300000</speed>
</trkpt>
<trkpt lat="22.125320" lon="103.805641">
<ele>668.242676</ele>
<time>2011-04-25T09:08:20Z</time>
<desc>lat.=22.125320, lon.=103.805641, Alt.=668.242676m. Speed=4.608000m/h.</desc>
<speed>1.280000</speed>
</trkpt>
<trkpt lat="22.125261" lon="103.805695">
<ele>668.398926</ele>
<time>2011-04-25T09:08:25Z</time>
<desc>lat.=22.125261, lon.=103.805695, Alt.=668.398926m. Speed=4.248000m/h.</desc>
<speed>1.180000</speed>
</trkpt>
<trkpt lat="22.125229" lon="103.805779">
<ele>669.070801</ele>
<time>2011-04-25T09:08:30Z</time>
<desc>lat.=22.125229, lon.=103.805779, Alt.=669.070801m. Speed=3.600000m/h.</desc>
<speed>1.000000</speed>
</trkpt>
<trkpt lat="22.125179" lon="103.805840">
<ele>669.180176</ele>
<time>2011-04-25T09:08:35Z</time>
<desc>lat.=22.125179, lon.=103.805840, Alt.=669.180176m. Speed=3.672000m/h.</desc>
<speed>1.020000</speed>
</trkpt>
<trkpt lat="22.125147" lon="103.805885">
<ele>669.836426</ele>
<time>2011-04-25T09:08:40Z</time>
<desc>lat.=22.125147, lon.=103.805885, Alt.=669.836426m. Speed=3.780000m/h.</desc>
<speed>1.050000</speed>
</trkpt>
<trkpt lat="22.125122" lon="103.805969">
<ele>670.367676</ele>
<time>2011-04-25T09:08:45Z</time>
<desc>lat.=22.125122, lon.=103.805969, Alt.=670.367676m. Speed=4.572000m/h.</desc>
<speed>1.270000</speed>
</trkpt>
<trkpt lat="22.125086" lon="103.806053">
<ele>670.430176</ele>
<time>2011-04-25T09:08:50Z</time>
<desc>lat.=22.125086, lon.=103.806053, Alt.=670.430176m. Speed=4.392000m/h.</desc>
<speed>1.220000</speed>
</trkpt>
<trkpt lat="22.125063" lon="103.806129">
<ele>670.570801</ele>
<time>2011-04-25T09:08:55Z</time>
<desc>lat.=22.125063, lon.=103.806129, Alt.=670.570801m. Speed=4.824000m/h.</desc>
<speed>1.340000</speed>
</trkpt>
<trkpt lat="22.125046" lon="103.806274">
<ele>670.992676</ele>
<time>2011-04-25T09:09:00Z</time>
<desc>lat.=22.125046, lon.=103.806274, Alt.=670.992676m. Speed=5.040000m/h.</desc>
<speed>1.400000</speed>
</trkpt>
<trkpt lat="22.125011" lon="103.806389">
<ele>671.789551</ele>
<time>2011-04-25T09:09:05Z</time>
<desc>lat.=22.125011, lon.=103.806389, Alt.=671.789551m. Speed=7.056000m/h.</desc>
<speed>1.960000</speed>
</trkpt>
<trkpt lat="22.124987" lon="103.806503">
<ele>672.477051</ele>
<time>2011-04-25T09:09:10Z</time>
<desc>lat.=22.124987, lon.=103.806503, Alt.=672.477051m. Speed=7.920000m/h.</desc>
<speed>2.200000</speed>
</trkpt>
<trkpt lat="22.124952" lon="103.806610">
<ele>673.430176</ele>
<time>2011-04-25T09:09:15Z</time>
<desc>lat.=22.124952, lon.=103.806610, Alt.=673.430176m. Speed=4.824000m/h.</desc>
<speed>1.340000</speed>
</trkpt>
<trkpt lat="22.124933" lon="103.806709">
<ele>674.758301</ele>
<time>2011-04-25T09:09:20Z</time>
<desc>lat.=22.124933, lon.=103.806709, Alt.=674.758301m. Speed=6.012000m/h.</desc>
<speed>1.670000</speed>
</trkpt>
<trkpt lat="22.124907" lon="103.806801">
<ele>676.148926</ele>
<time>2011-04-25T09:09:25Z</time>
<desc>lat.=22.124907, lon.=103.806801, Alt.=676.148926m. Speed=5.472000m/h.</desc>
<speed>1.520000</speed>
</trkpt>
<trkpt lat="22.124889" lon="103.806877">
<ele>677.195801</ele>
<time>2011-04-25T09:09:30Z</time>
<desc>lat.=22.124889, lon.=103.806877, Alt.=677.195801m. Speed=3.600000m/h.</desc>
<speed>1.000000</speed>
</trkpt>
<trkpt lat="22.124876" lon="103.806969">
<ele>677.867676</ele>
<time>2011-04-25T09:09:35Z</time>
<desc>lat.=22.124876, lon.=103.806969, Alt.=677.867676m. Speed=6.048000m/h.</desc>
<speed>1.680000</speed>
</trkpt>
<trkpt lat="22.124861" lon="103.807068">
<ele>678.836426</ele>
<time>2011-04-25T09:09:40Z</time>
<desc>lat.=22.124861, lon.=103.807068, Alt.=678.836426m. Speed=5.940000m/h.</desc>
<speed>1.650000</speed>
</trkpt>
<trkpt lat="22.124859" lon="103.807167">
<ele>680.680176</ele>
<time>2011-04-25T09:09:45Z</time>
<desc>lat.=22.124859, lon.=103.807167, Alt.=680.680176m. Speed=6.768000m/h.</desc>
<speed>1.880000</speed>
</trkpt>
<trkpt lat="22.124866" lon="103.807251">
<ele>682.508301</ele>
<time>2011-04-25T09:09:50Z</time>
<desc>lat.=22.124866, lon.=103.807251, Alt.=682.508301m. Speed=5.364000m/h.</desc>
<speed>1.490000</speed>
</trkpt>
<trkpt lat="22.124882" lon="103.807343">
<ele>683.461426</ele>
<time>2011-04-25T09:09:55Z</time>
<desc>lat.=22.124882, lon.=103.807343, Alt.=683.461426m. Speed=6.156000m/h.</desc>
<speed>1.710000</speed>
</trkpt>
<trkpt lat="22.124901" lon="103.807426">
<ele>684.398926</ele>
<time>2011-04-25T09:10:00Z</time>
<desc>lat.=22.124901, lon.=103.807426, Alt.=684.398926m. Speed=6.444000m/h.</desc>
<speed>1.790000</speed>
</trkpt>
<trkpt lat="22.124918" lon="103.807495">
<ele>686.289551</ele>
<time>2011-04-25T09:10:05Z</time>
<desc>lat.=22.124918, lon.=103.807495, Alt.=686.289551m. Speed=4.716000m/h.</desc>
<speed>1.310000</speed>
</trkpt>
<trkpt lat="22.124939" lon="103.807564">
<ele>687.914551</ele>
<time>2011-04-25T09:10:10Z</time>
<desc>lat.=22.124939, lon.=103.807564, Alt.=687.914551m. Speed=5.652000m/h.</desc>
<speed>1.570000</speed>
</trkpt>
<trkpt lat="22.124975" lon="103.807632">
<ele>690.258301</ele>
<time>2011-04-25T09:10:15Z</time>
<desc>lat.=22.124975, lon.=103.807632, Alt.=690.258301m. Speed=6.084000m/h.</desc>
<speed>1.690000</speed>
</trkpt>
<trkpt lat="22.125025" lon="103.807701">
<ele>692.305176</ele>
<time>2011-04-25T09:10:20Z</time>
<desc>lat.=22.125025, lon.=103.807701, Alt.=692.305176m. Speed=7.380000m/h.</desc>
<speed>2.050000</speed>
</trkpt>
<trkpt lat="22.125074" lon="103.807755">
<ele>693.914551</ele>
<time>2011-04-25T09:10:25Z</time>
<desc>lat.=22.125074, lon.=103.807755, Alt.=693.914551m. Speed=5.436000m/h.</desc>
<speed>1.510000</speed>
</trkpt>
<trkpt lat="22.125122" lon="103.807816">
<ele>695.289551</ele>
<time>2011-04-25T09:10:30Z</time>
<desc>lat.=22.125122, lon.=103.807816, Alt.=695.289551m. Speed=5.436000m/h.</desc>
<speed>1.510000</speed>
</trkpt>
<trkpt lat="22.125166" lon="103.807854">
<ele>697.289551</ele>
<time>2011-04-25T09:10:35Z</time>
<desc>lat.=22.125166, lon.=103.807854, Alt.=697.289551m. Speed=5.976000m/h.</desc>
<speed>1.660000</speed>
</trkpt>
<trkpt lat="22.125216" lon="103.807899">
<ele>698.461426</ele>
<time>2011-04-25T09:10:40Z</time>
<desc>lat.=22.125216, lon.=103.807899, Alt.=698.461426m. Speed=6.228000m/h.</desc>
<speed>1.730000</speed>
</trkpt>
<trkpt lat="22.125277" lon="103.807953">
<ele>699.258301</ele>
<time>2011-04-25T09:10:45Z</time>
<desc>lat.=22.125277, lon.=103.807953, Alt.=699.258301m. Speed=6.048000m/h.</desc>
<speed>1.680000</speed>
</trkpt>
<trkpt lat="22.125340" lon="103.807991">
<ele>700.602051</ele>
<time>2011-04-25T09:10:50Z</time>
<desc>lat.=22.125340, lon.=103.807991, Alt.=700.602051m. Speed=5.184000m/h.</desc>
<speed>1.440000</speed>
</trkpt>
<trkpt lat="22.125404" lon="103.808029">
<ele>701.508301</ele>
<time>2011-04-25T09:10:55Z</time>
<desc>lat.=22.125404, lon.=103.808029, Alt.=701.508301m. Speed=4.896000m/h.</desc>
<speed>1.360000</speed>
</trkpt>
<trkpt lat="22.125490" lon="103.808060">
<ele>703.133301</ele>
<time>2011-04-25T09:11:00Z</time>
<desc>lat.=22.125490, lon.=103.808060, Alt.=703.133301m. Speed=6.300000m/h.</desc>
<speed>1.750000</speed>
</trkpt>
<trkpt lat="22.125542" lon="103.808098">
<ele>705.320801</ele>
<time>2011-04-25T09:11:05Z</time>
<desc>lat.=22.125542, lon.=103.808098, Alt.=705.320801m. Speed=4.320000m/h.</desc>
<speed>1.200000</speed>
</trkpt>
<trkpt lat="22.125591" lon="103.808105">
<ele>705.805176</ele>
<time>2011-04-25T09:11:10Z</time>
<desc>lat.=22.125591, lon.=103.808105, Alt.=705.805176m. Speed=2.340000m/h.</desc>
<speed>0.650000</speed>
</trkpt>
<trkpt lat="22.125685" lon="103.808151">
<ele>705.617676</ele>
<time>2011-04-25T09:11:15Z</time>
<desc>lat.=22.125685, lon.=103.808151, Alt.=705.617676m. Speed=7.380000m/h.</desc>
<speed>2.050000</speed>
</trkpt>
<trkpt lat="22.125761" lon="103.808197">
<ele>706.477051</ele>
<time>2011-04-25T09:11:20Z</time>
<desc>lat.=22.125761, lon.=103.808197, Alt.=706.477051m. Speed=6.552000m/h.</desc>
<speed>1.820000</speed>
</trkpt>
<trkpt lat="22.125830" lon="103.808220">
<ele>705.617676</ele>
<time>2011-04-25T09:11:25Z</time>
<desc>lat.=22.125830, lon.=103.808220, Alt.=705.617676m. Speed=3.348000m/h.</desc>
<speed>0.930000</speed>
</trkpt>
<trkpt lat="22.125917" lon="103.808266">
<ele>705.320801</ele>
<time>2011-04-25T09:11:30Z</time>
<desc>lat.=22.125917, lon.=103.808266, Alt.=705.320801m. Speed=7.200000m/h.</desc>
<speed>2.000000</speed>
</trkpt>
<trkpt lat="22.125996" lon="103.808334">
<ele>706.383301</ele>
<time>2011-04-25T09:11:35Z</time>
<desc>lat.=22.125996, lon.=103.808334, Alt.=706.383301m. Speed=4.644000m/h.</desc>
<speed>1.290000</speed>
</trkpt>
<trkpt lat="22.126064" lon="103.808411">
<ele>706.883301</ele>
<time>2011-04-25T09:11:40Z</time>
<desc>lat.=22.126064, lon.=103.808411, Alt.=706.883301m. Speed=8.064000m/h.</desc>
<speed>2.240000</speed>
</trkpt>
<trkpt lat="22.126114" lon="103.808487">
<ele>706.867676</ele>
<time>2011-04-25T09:11:45Z</time>
<desc>lat.=22.126114, lon.=103.808487, Alt.=706.867676m. Speed=7.452000m/h.</desc>
<speed>2.070000</speed>
</trkpt>
<trkpt lat="22.126154" lon="103.808563">
<ele>706.914551</ele>
<time>2011-04-25T09:11:50Z</time>
<desc>lat.=22.126154, lon.=103.808563, Alt.=706.914551m. Speed=6.444000m/h.</desc>
<speed>1.790000</speed>
</trkpt>
<trkpt lat="22.126205" lon="103.808640">
<ele>706.133301</ele>
<time>2011-04-25T09:11:55Z</time>
<desc>lat.=22.126205, lon.=103.808640, Alt.=706.133301m. Speed=7.848000m/h.</desc>
<speed>2.180000</speed>
</trkpt>
<trkpt lat="22.126221" lon="103.808739">
<ele>707.227051</ele>
<time>2011-04-25T09:12:00Z</time>
<desc>lat.=22.126221, lon.=103.808739, Alt.=707.227051m. Speed=7.884000m/h.</desc>
<speed>2.190000</speed>
</trkpt>
<trkpt lat="22.126236" lon="103.808846">
<ele>707.930176</ele>
<time>2011-04-25T09:12:05Z</time>
<desc>lat.=22.126236, lon.=103.808846, Alt.=707.930176m. Speed=8.316000m/h.</desc>
<speed>2.310000</speed>
</trkpt>
<trkpt lat="22.126272" lon="103.808952">
<ele>709.164551</ele>
<time>2011-04-25T09:12:10Z</time>
<desc>lat.=22.126272, lon.=103.808952, Alt.=709.164551m. Speed=7.884000m/h.</desc>
<speed>2.190000</speed>
</trkpt>
<trkpt lat="22.126331" lon="103.809044">
<ele>709.914551</ele>
<time>2011-04-25T09:12:15Z</time>
<desc>lat.=22.126331, lon.=103.809044, Alt.=709.914551m. Speed=7.488000m/h.</desc>
<speed>2.080000</speed>
</trkpt>
<trkpt lat="22.126410" lon="103.809120">
<ele>709.273926</ele>
<time>2011-04-25T09:12:20Z</time>
<desc>lat.=22.126410, lon.=103.809120, Alt.=709.273926m. Speed=7.092000m/h.</desc>
<speed>1.970000</speed>
</trkpt>
<trkpt lat="22.126467" lon="103.809166">
<ele>708.477051</ele>
<time>2011-04-25T09:12:25Z</time>
<desc>lat.=22.126467, lon.=103.809166, Alt.=708.477051m. Speed=6.408000m/h.</desc>
<speed>1.780000</speed>
</trkpt>
<trkpt lat="22.126543" lon="103.809227">
<ele>707.805176</ele>
<time>2011-04-25T09:12:30Z</time>
<desc>lat.=22.126543, lon.=103.809227, Alt.=707.805176m. Speed=7.020000m/h.</desc>
<speed>1.950000</speed>
</trkpt>
<trkpt lat="22.126633" lon="103.809296">
<ele>707.727051</ele>
<time>2011-04-25T09:12:35Z</time>
<desc>lat.=22.126633, lon.=103.809296, Alt.=707.727051m. Speed=7.200000m/h.</desc>
<speed>2.000000</speed>
</trkpt>
<trkpt lat="22.126694" lon="103.809372">
<ele>708.492676</ele>
<time>2011-04-25T09:12:40Z</time>
<desc>lat.=22.126694, lon.=103.809372, Alt.=708.492676m. Speed=5.976000m/h.</desc>
<speed>1.660000</speed>
</trkpt>
<trkpt lat="22.126738" lon="103.809418">
<ele>709.648926</ele>
<time>2011-04-25T09:12:45Z</time>
<desc>lat.=22.126738, lon.=103.809418, Alt.=709.648926m. Speed=4.968000m/h.</desc>
<speed>1.380000</speed>
</trkpt>
<trkpt lat="22.126745" lon="103.809502">
<ele>710.477051</ele>
<time>2011-04-25T09:12:50Z</time>
<desc>lat.=22.126745, lon.=103.809502, Alt.=710.477051m. Speed=6.696000m/h.</desc>
<speed>1.860000</speed>
</trkpt>
<trkpt lat="22.126707" lon="103.809593">
<ele>712.242676</ele>
<time>2011-04-25T09:12:55Z</time>
<desc>lat.=22.126707, lon.=103.809593, Alt.=712.242676m. Speed=9.504000m/h.</desc>
<speed>2.640000</speed>
</trkpt>
<trkpt lat="22.126640" lon="103.809700">
<ele>711.742676</ele>
<time>2011-04-25T09:13:00Z</time>
<desc>lat.=22.126640, lon.=103.809700, Alt.=711.742676m. Speed=7.668000m/h.</desc>
<speed>2.130000</speed>
</trkpt>
<trkpt lat="22.126556" lon="103.809731">
<ele>712.352051</ele>
<time>2011-04-25T09:13:05Z</time>
<desc>lat.=22.126556, lon.=103.809731, Alt.=712.352051m. Speed=6.840000m/h.</desc>
<speed>1.900000</speed>
</trkpt>
<trkpt lat="22.126467" lon="103.809761">
<ele>713.680176</ele>
<time>2011-04-25T09:13:10Z</time>
<desc>lat.=22.126467, lon.=103.809761, Alt.=713.680176m. Speed=7.308000m/h.</desc>
<speed>2.030000</speed>
</trkpt>
<trkpt lat="22.126373" lon="103.809776">
<ele>713.961426</ele>
<time>2011-04-25T09:13:15Z</time>
<desc>lat.=22.126373, lon.=103.809776, Alt.=713.961426m. Speed=8.244000m/h.</desc>
<speed>2.290000</speed>
</trkpt>
<trkpt lat="22.126274" lon="103.809799">
<ele>715.508301</ele>
<time>2011-04-25T09:13:20Z</time>
<desc>lat.=22.126274, lon.=103.809799, Alt.=715.508301m. Speed=6.228000m/h.</desc>
<speed>1.730000</speed>
</trkpt>
<trkpt lat="22.126181" lon="103.809814">
<ele>717.789551</ele>
<time>2011-04-25T09:13:25Z</time>
<desc>lat.=22.126181, lon.=103.809814, Alt.=717.789551m. Speed=6.300000m/h.</desc>
<speed>1.750000</speed>
</trkpt>
<trkpt lat="22.126143" lon="103.809837">
<ele>716.242676</ele>
<time>2011-04-25T09:13:30Z</time>
<desc>lat.=22.126143, lon.=103.809837, Alt.=716.242676m. Speed=5.364000m/h.</desc>
<speed>1.490000</speed>
</trkpt>
<trkpt lat="22.126047" lon="103.809837">
<ele>715.758301</ele>
<time>2011-04-25T09:13:35Z</time>
<desc>lat.=22.126047, lon.=103.809837, Alt.=715.758301m. Speed=6.624000m/h.</desc>
<speed>1.840000</speed>
</trkpt>
<trkpt lat="22.125971" lon="103.809837">
<ele>715.836426</ele>
<time>2011-04-25T09:13:40Z</time>
<desc>lat.=22.125971, lon.=103.809837, Alt.=715.836426m. Speed=8.928000m/h.</desc>
<speed>2.480000</speed>
</trkpt>
<trkpt lat="22.125877" lon="103.809814">
<ele>715.758301</ele>
<time>2011-04-25T09:13:45Z</time>
<desc>lat.=22.125877, lon.=103.809814, Alt.=715.758301m. Speed=8.964000m/h.</desc>
<speed>2.490000</speed>
</trkpt>
<trkpt lat="22.125801" lon="103.809792">
<ele>715.727051</ele>
<time>2011-04-25T09:13:50Z</time>
<desc>lat.=22.125801, lon.=103.809792, Alt.=715.727051m. Speed=6.588000m/h.</desc>
<speed>1.830000</speed>
</trkpt>
<trkpt lat="22.125736" lon="103.809753">
<ele>715.961426</ele>
<time>2011-04-25T09:13:55Z</time>
<desc>lat.=22.125736, lon.=103.809753, Alt.=715.961426m. Speed=7.920000m/h.</desc>
<speed>2.200000</speed>
</trkpt>
<trkpt lat="22.125647" lon="103.809692">
<ele>716.164551</ele>
<time>2011-04-25T09:14:00Z</time>
<desc>lat.=22.125647, lon.=103.809692, Alt.=716.164551m. Speed=8.352000m/h.</desc>
<speed>2.320000</speed>
</trkpt>
<trkpt lat="22.125544" lon="103.809647">
<ele>716.602051</ele>
<time>2011-04-25T09:14:05Z</time>
<desc>lat.=22.125544, lon.=103.809647, Alt.=716.602051m. Speed=8.640000m/h.</desc>
<speed>2.400000</speed>
</trkpt>
<trkpt lat="22.125418" lon="103.809654">
<ele>716.055176</ele>
<time>2011-04-25T09:14:10Z</time>
<desc>lat.=22.125418, lon.=103.809654, Alt.=716.055176m. Speed=8.964000m/h.</desc>
<speed>2.490000</speed>
</trkpt>
<trkpt lat="22.125292" lon="103.809669">
<ele>714.383301</ele>
<time>2011-04-25T09:14:15Z</time>
<desc>lat.=22.125292, lon.=103.809669, Alt.=714.383301m. Speed=8.064000m/h.</desc>
<speed>2.240000</speed>
</trkpt>
<trkpt lat="22.125196" lon="103.809708">
<ele>714.383301</ele>
<time>2011-04-25T09:14:20Z</time>
<desc>lat.=22.125196, lon.=103.809708, Alt.=714.383301m. Speed=7.668000m/h.</desc>
<speed>2.130000</speed>
</trkpt>
<trkpt lat="22.125137" lon="103.809753">
<ele>714.492676</ele>
<time>2011-04-25T09:14:25Z</time>
<desc>lat.=22.125137, lon.=103.809753, Alt.=714.492676m. Speed=4.896000m/h.</desc>
<speed>1.360000</speed>
</trkpt>
<trkpt lat="22.125113" lon="103.809784">
<ele>713.945801</ele>
<time>2011-04-25T09:14:30Z</time>
<desc>lat.=22.125113, lon.=103.809784, Alt.=713.945801m. Speed=1.836000m/h.</desc>
<speed>0.510000</speed>
</trkpt>
<trkpt lat="22.125095" lon="103.809784">
<ele>714.758301</ele>
<time>2011-04-25T09:14:35Z</time>
<desc>lat.=22.125095, lon.=103.809784, Alt.=714.758301m. Speed=0.216000m/h.</desc>
<speed>0.060000</speed>
</trkpt>
<trkpt lat="22.125092" lon="103.809792">
<ele>715.617676</ele>
<time>2011-04-25T09:14:40Z</time>
<desc>lat.=22.125092, lon.=103.809792, Alt.=715.617676m. Speed=0.144000m/h.</desc>
<speed>0.040000</speed>
</trkpt>
<trkpt lat="22.125090" lon="103.809792">
<ele>716.180176</ele>
<time>2011-04-25T09:14:45Z</time>
<desc>lat.=22.125090, lon.=103.809792, Alt.=716.180176m. Speed=0.468000m/h.</desc>
<speed>0.130000</speed>
</trkpt>
<trkpt lat="22.125086" lon="103.809792">
<ele>716.742676</ele>
<time>2011-04-25T09:14:50Z</time>
<desc>lat.=22.125086, lon.=103.809792, Alt.=716.742676m. Speed=0.576000m/h.</desc>
<speed>0.160000</speed>
</trkpt>
<trkpt lat="22.125082" lon="103.809784">
<ele>717.305176</ele>
<time>2011-04-25T09:14:55Z</time>
<desc>lat.=22.125082, lon.=103.809784, Alt.=717.305176m. Speed=0.216000m/h.</desc>
<speed>0.060000</speed>
</trkpt>
<trkpt lat="22.125080" lon="103.809784">
<ele>717.930176</ele>
<time>2011-04-25T09:15:00Z</time>
<desc>lat.=22.125080, lon.=103.809784, Alt.=717.930176m. Speed=0.288000m/h.</desc>
<speed>0.080000</speed>
</trkpt>
<trkpt lat="22.125076" lon="103.809776">
<ele>718.586426</ele>
<time>2011-04-25T09:15:05Z</time>
<desc>lat.=22.125076, lon.=103.809776, Alt.=718.586426m. Speed=0.288000m/h.</desc>
<speed>0.080000</speed>
</trkpt>
<trkpt lat="22.125074" lon="103.809776">
<ele>719.102051</ele>
<time>2011-04-25T09:15:10Z</time>
<desc>lat.=22.125074, lon.=103.809776, Alt.=719.102051m. Speed=0.036000m/h.</desc>
<speed>0.010000</speed>
</trkpt>
<trkpt lat="22.125072" lon="103.809776">
<ele>719.523926</ele>
<time>2011-04-25T09:15:15Z</time>
<desc>lat.=22.125072, lon.=103.809776, Alt.=719.523926m. Speed=0.360000m/h.</desc>
<speed>0.100000</speed>
</trkpt>
<trkpt lat="22.125071" lon="103.809769">
<ele>719.836426</ele>
<time>2011-04-25T09:15:20Z</time>
<desc>lat.=22.125071, lon.=103.809769, Alt.=719.836426m. Speed=0.756000m/h.</desc>
<speed>0.210000</speed>
</trkpt>
<trkpt lat="22.125069" lon="103.809769">
<ele>720.008301</ele>
<time>2011-04-25T09:15:25Z</time>
<desc>lat.=22.125069, lon.=103.809769, Alt.=720.008301m. Speed=0.072000m/h.</desc>
<speed>0.020000</speed>
</trkpt>
<trkpt lat="22.125069" lon="103.809769">
<ele>720.039551</ele>
<time>2011-04-25T09:15:30Z</time>
<desc>lat.=22.125069, lon.=103.809769, Alt.=720.039551m. Speed=0.180000m/h.</desc>
<speed>0.050000</speed>
</trkpt>
<trkpt lat="22.125069" lon="103.809769">
<ele>720.039551</ele>
<time>2011-04-25T09:15:35Z</time>
<desc>lat.=22.125069, lon.=103.809769, Alt.=720.039551m. Speed=0.036000m/h.</desc>
<speed>0.010000</speed>
</trkpt>
<trkpt lat="22.125069" lon="103.809784">
<ele>719.789551</ele>
<time>2011-04-25T09:15:40Z</time>
<desc>lat.=22.125069, lon.=103.809784, Alt.=719.789551m. Speed=4.536000m/h.</desc>
<speed>1.260000</speed>
</trkpt>
<trkpt lat="22.125061" lon="103.809875">
<ele>719.648926</ele>
<time>2011-04-25T09:15:45Z</time>
<desc>lat.=22.125061, lon.=103.809875, Alt.=719.648926m. Speed=6.876000m/h.</desc>
<speed>1.910000</speed>
</trkpt>
<trkpt lat="22.125076" lon="103.809975">
<ele>719.664551</ele>
<time>2011-04-25T09:15:50Z</time>
<desc>lat.=22.125076, lon.=103.809975, Alt.=719.664551m. Speed=7.164000m/h.</desc>
<speed>1.990000</speed>
</trkpt>
<trkpt lat="22.125097" lon="103.810074">
<ele>720.383301</ele>
<time>2011-04-25T09:15:55Z</time>
<desc>lat.=22.125097, lon.=103.810074, Alt.=720.383301m. Speed=7.452000m/h.</desc>
<speed>2.070000</speed>
</trkpt>
<trkpt lat="22.125128" lon="103.810188">
<ele>720.195801</ele>
<time>2011-04-25T09:16:00Z</time>
<desc>lat.=22.125128, lon.=103.810188, Alt.=720.195801m. Speed=8.676000m/h.</desc>
<speed>2.410000</speed>
</trkpt>
<trkpt lat="22.125177" lon="103.810287">
<ele>720.586426</ele>
<time>2011-04-25T09:16:05Z</time>
<desc>lat.=22.125177, lon.=103.810287, Alt.=720.586426m. Speed=8.208000m/h.</desc>
<speed>2.280000</speed>
</trkpt>
<trkpt lat="22.125233" lon="103.810379">
<ele>720.211426</ele>
<time>2011-04-25T09:16:10Z</time>
<desc>lat.=22.125233, lon.=103.810379, Alt.=720.211426m. Speed=8.172000m/h.</desc>
<speed>2.270000</speed>
</trkpt>
<trkpt lat="22.125286" lon="103.810463">
<ele>720.992676</ele>
<time>2011-04-25T09:16:15Z</time>
<desc>lat.=22.125286, lon.=103.810463, Alt.=720.992676m. Speed=8.496000m/h.</desc>
<speed>2.360000</speed>
</trkpt>
<trkpt lat="22.125359" lon="103.810532">
<ele>721.898926</ele>
<time>2011-04-25T09:16:20Z</time>
<desc>lat.=22.125359, lon.=103.810532, Alt.=721.898926m. Speed=7.884000m/h.</desc>
<speed>2.190000</speed>
</trkpt>
<trkpt lat="22.125435" lon="103.810608">
<ele>723.086426</ele>
<time>2011-04-25T09:16:25Z</time>
<desc>lat.=22.125435, lon.=103.810608, Alt.=723.086426m. Speed=5.724000m/h.</desc>
<speed>1.590000</speed>
</trkpt>
<trkpt lat="22.125492" lon="103.810692">
<ele>724.227051</ele>
<time>2011-04-25T09:16:30Z</time>
<desc>lat.=22.125492, lon.=103.810692, Alt.=724.227051m. Speed=8.460000m/h.</desc>
<speed>2.350000</speed>
</trkpt>
<trkpt lat="22.125551" lon="103.810791">
<ele>725.789551</ele>
<time>2011-04-25T09:16:35Z</time>
<desc>lat.=22.125551, lon.=103.810791, Alt.=725.789551m. Speed=7.596000m/h.</desc>
<speed>2.110000</speed>
</trkpt>
<trkpt lat="22.125593" lon="103.810890">
<ele>726.930176</ele>
<time>2011-04-25T09:16:40Z</time>
<desc>lat.=22.125593, lon.=103.810890, Alt.=726.930176m. Speed=8.820000m/h.</desc>
<speed>2.450000</speed>
</trkpt>
<trkpt lat="22.125622" lon="103.810982">
<ele>728.289551</ele>
<time>2011-04-25T09:16:45Z</time>
<desc>lat.=22.125622, lon.=103.810982, Alt.=728.289551m. Speed=6.480000m/h.</desc>
<speed>1.800000</speed>
</trkpt>
<trkpt lat="22.125650" lon="103.811058">
<ele>730.930176</ele>
<time>2011-04-25T09:16:50Z</time>
<desc>lat.=22.125650, lon.=103.811058, Alt.=730.930176m. Speed=3.348000m/h.</desc>
<speed>0.930000</speed>
</trkpt>
<trkpt lat="22.125673" lon="103.811142">
<ele>733.023926</ele>
<time>2011-04-25T09:16:55Z</time>
<desc>lat.=22.125673, lon.=103.811142, Alt.=733.023926m. Speed=4.572000m/h.</desc>
<speed>1.270000</speed>
</trkpt>
<trkpt lat="22.125681" lon="103.811272">
<ele>736.383301</ele>
<time>2011-04-25T09:17:00Z</time>
<desc>lat.=22.125681, lon.=103.811272, Alt.=736.383301m. Speed=7.884000m/h.</desc>
<speed>2.190000</speed>
</trkpt>
<trkpt lat="22.125601" lon="103.811409">
<ele>739.195801</ele>
<time>2011-04-25T09:17:05Z</time>
<desc>lat.=22.125601, lon.=103.811409, Alt.=739.195801m. Speed=8.784000m/h.</desc>
<speed>2.440000</speed>
</trkpt>
<trkpt lat="22.125544" lon="103.811508">
<ele>739.633301</ele>
<time>2011-04-25T09:17:10Z</time>
<desc>lat.=22.125544, lon.=103.811508, Alt.=739.633301m. Speed=8.100000m/h.</desc>
<speed>2.250000</speed>
</trkpt>
<trkpt lat="22.125454" lon="103.811531">
<ele>740.367676</ele>
<time>2011-04-25T09:17:15Z</time>
<desc>lat.=22.125454, lon.=103.811531, Alt.=740.367676m. Speed=7.488000m/h.</desc>
<speed>2.080000</speed>
</trkpt>
<trkpt lat="22.125374" lon="103.811546">
<ele>743.102051</ele>
<time>2011-04-25T09:17:20Z</time>
<desc>lat.=22.125374, lon.=103.811546, Alt.=743.102051m. Speed=4.896000m/h.</desc>
<speed>1.360000</speed>
</trkpt>
<trkpt lat="22.125299" lon="103.811539">
<ele>745.133301</ele>
<time>2011-04-25T09:17:25Z</time>
<desc>lat.=22.125299, lon.=103.811539, Alt.=745.133301m. Speed=7.164000m/h.</desc>
<speed>1.990000</speed>
</trkpt>
<trkpt lat="22.125181" lon="103.811508">
<ele>747.055176</ele>
<time>2011-04-25T09:17:30Z</time>
<desc>lat.=22.125181, lon.=103.811508, Alt.=747.055176m. Speed=8.820000m/h.</desc>
<speed>2.450000</speed>
</trkpt>
<trkpt lat="22.125120" lon="103.811531">
<ele>746.945801</ele>
<time>2011-04-25T09:17:35Z</time>
<desc>lat.=22.125120, lon.=103.811531, Alt.=746.945801m. Speed=8.028000m/h.</desc>
<speed>2.230000</speed>
</trkpt>
<trkpt lat="22.125069" lon="103.811569">
<ele>746.086426</ele>
<time>2011-04-25T09:17:40Z</time>
<desc>lat.=22.125069, lon.=103.811569, Alt.=746.086426m. Speed=8.748000m/h.</desc>
<speed>2.430000</speed>
</trkpt>
<trkpt lat="22.124977" lon="103.811554">
<ele>746.086426</ele>
<time>2011-04-25T09:17:45Z</time>
<desc>lat.=22.124977, lon.=103.811554, Alt.=746.086426m. Speed=5.040000m/h.</desc>
<speed>1.400000</speed>
</trkpt>
<trkpt lat="22.124889" lon="103.811562">
<ele>745.430176</ele>
<time>2011-04-25T09:17:50Z</time>
<desc>lat.=22.124889, lon.=103.811562, Alt.=745.430176m. Speed=6.984000m/h.</desc>
<speed>1.940000</speed>
</trkpt>
<trkpt lat="22.124771" lon="103.811546">
<ele>744.961426</ele>
<time>2011-04-25T09:17:55Z</time>
<desc>lat.=22.124771, lon.=103.811546, Alt.=744.961426m. Speed=8.928000m/h.</desc>
<speed>2.480000</speed>
</trkpt>
<trkpt lat="22.124651" lon="103.811523">
<ele>744.914551</ele>
<time>2011-04-25T09:18:00Z</time>
<desc>lat.=22.124651, lon.=103.811523, Alt.=744.914551m. Speed=8.640000m/h.</desc>
<speed>2.400000</speed>
</trkpt>
<trkpt lat="22.124527" lon="103.811493">
<ele>745.258301</ele>
<time>2011-04-25T09:18:05Z</time>
<desc>lat.=22.124527, lon.=103.811493, Alt.=745.258301m. Speed=10.584000m/h.</desc>
<speed>2.940000</speed>
</trkpt>
<trkpt lat="22.124393" lon="103.811485">
<ele>745.648926</ele>
<time>2011-04-25T09:18:10Z</time>
<desc>lat.=22.124393, lon.=103.811485, Alt.=745.648926m. Speed=9.720000m/h.</desc>
<speed>2.700000</speed>
</trkpt>
<trkpt lat="22.124273" lon="103.811493">
<ele>746.758301</ele>
<time>2011-04-25T09:18:15Z</time>
<desc>lat.=22.124273, lon.=103.811493, Alt.=746.758301m. Speed=8.460000m/h.</desc>
<speed>2.350000</speed>
</trkpt>
<trkpt lat="22.124130" lon="103.811516">
<ele>743.445801</ele>
<time>2011-04-25T09:18:20Z</time>
<desc>lat.=22.124130, lon.=103.811516, Alt.=743.445801m. Speed=5.544000m/h.</desc>
<speed>1.540000</speed>
</trkpt>
<trkpt lat="22.123995" lon="103.811508">
<ele>739.992676</ele>
<time>2011-04-25T09:18:25Z</time>
<desc>lat.=22.123995, lon.=103.811508, Alt.=739.992676m. Speed=8.784000m/h.</desc>
<speed>2.440000</speed>
</trkpt>
<trkpt lat="22.123884" lon="103.811562">
<ele>739.523926</ele>
<time>2011-04-25T09:18:30Z</time>
<desc>lat.=22.123884, lon.=103.811562, Alt.=739.523926m. Speed=8.712000m/h.</desc>
<speed>2.420000</speed>
</trkpt>
<trkpt lat="22.123756" lon="103.811607">
<ele>738.164551</ele>
<time>2011-04-25T09:18:35Z</time>
<desc>lat.=22.123756, lon.=103.811607, Alt.=738.164551m. Speed=8.856000m/h.</desc>
<speed>2.460000</speed>
</trkpt>
<trkpt lat="22.123640" lon="103.811646">
<ele>738.867676</ele>
<time>2011-04-25T09:18:40Z</time>
<desc>lat.=22.123640, lon.=103.811646, Alt.=738.867676m. Speed=9.252000m/h.</desc>
<speed>2.570000</speed>
</trkpt>
<trkpt lat="22.123531" lon="103.811729">
<ele>737.102051</ele>
<time>2011-04-25T09:18:45Z</time>
<desc>lat.=22.123531, lon.=103.811729, Alt.=737.102051m. Speed=10.224000m/h.</desc>
<speed>2.840000</speed>
</trkpt>
<trkpt lat="22.123449" lon="103.811813">
<ele>736.008301</ele>
<time>2011-04-25T09:18:50Z</time>
<desc>lat.=22.123449, lon.=103.811813, Alt.=736.008301m. Speed=8.280000m/h.</desc>
<speed>2.300000</speed>
</trkpt>
<trkpt lat="22.123394" lon="103.811897">
<ele>737.664551</ele>
<time>2011-04-25T09:18:55Z</time>
<desc>lat.=22.123394, lon.=103.811897, Alt.=737.664551m. Speed=8.712000m/h.</desc>
<speed>2.420000</speed>
</trkpt>
<trkpt lat="22.123348" lon="103.811989">
<ele>739.398926</ele>
<time>2011-04-25T09:19:00Z</time>
<desc>lat.=22.123348, lon.=103.811989, Alt.=739.398926m. Speed=8.568000m/h.</desc>
<speed>2.380000</speed>
</trkpt>
<trkpt lat="22.123320" lon="103.812126">
<ele>741.539551</ele>
<time>2011-04-25T09:19:05Z</time>
<desc>lat.=22.123320, lon.=103.812126, Alt.=741.539551m. Speed=7.524000m/h.</desc>
<speed>2.090000</speed>
</trkpt>
<trkpt lat="22.123301" lon="103.812271">
<ele>744.070801</ele>
<time>2011-04-25T09:19:10Z</time>
<desc>lat.=22.123301, lon.=103.812271, Alt.=744.070801m. Speed=10.044000m/h.</desc>
<speed>2.790000</speed>
</trkpt>
<trkpt lat="22.123297" lon="103.812424">
<ele>744.320801</ele>
<time>2011-04-25T09:19:15Z</time>
<desc>lat.=22.123297, lon.=103.812424, Alt.=744.320801m. Speed=8.676000m/h.</desc>
<speed>2.410000</speed>
</trkpt>
<trkpt lat="22.123283" lon="103.812531">
<ele>745.320801</ele>
<time>2011-04-25T09:19:20Z</time>
<desc>lat.=22.123283, lon.=103.812531, Alt.=745.320801m. Speed=5.796000m/h.</desc>
<speed>1.610000</speed>
</trkpt>
<trkpt lat="22.123287" lon="103.812584">
<ele>746.133301</ele>
<time>2011-04-25T09:19:25Z</time>
<desc>lat.=22.123287, lon.=103.812584, Alt.=746.133301m. Speed=0.396000m/h.</desc>
<speed>0.110000</speed>
</trkpt>
<trkpt lat="22.123293" lon="103.812592">
<ele>746.430176</ele>
<time>2011-04-25T09:19:30Z</time>
<desc>lat.=22.123293, lon.=103.812592, Alt.=746.430176m. Speed=0.036000m/h.</desc>
<speed>0.010000</speed>
</trkpt>
<trkpt lat="22.123295" lon="103.812592">
<ele>746.242676</ele>
<time>2011-04-25T09:19:35Z</time>
<desc>lat.=22.123295, lon.=103.812592, Alt.=746.242676m. Speed=0.072000m/h.</desc>
<speed>0.020000</speed>
</trkpt>
<trkpt lat="22.123295" lon="103.812592">
<ele>746.242676</ele>
<time>2011-04-25T09:19:40Z</time>
<desc>lat.=22.123295, lon.=103.812592, Alt.=746.242676m. Speed=0.036000m/h.</desc>
<speed>0.010000</speed>
</trkpt>
<trkpt lat="22.123295" lon="103.812592">
<ele>746.242676</ele>
<time>2011-04-25T09:19:45Z</time>
<desc>lat.=22.123295, lon.=103.812592, Alt.=746.242676m. Speed=0.000000m/h.</desc>
<speed>0.000000</speed>
</trkpt>
<trkpt lat="22.123302" lon="103.812637">
<ele>746.195801</ele>
<time>2011-04-25T09:19:50Z</time>
<desc>lat.=22.123302, lon.=103.812637, Alt.=746.195801m. Speed=7.560000m/h.</desc>
<speed>2.100000</speed>
</trkpt>
<trkpt lat="22.123322" lon="103.812752">
<ele>746.258301</ele>
<time>2011-04-25T09:19:55Z</time>
<desc>lat.=22.123322, lon.=103.812752, Alt.=746.258301m. Speed=8.784000m/h.</desc>
<speed>2.440000</speed>
</trkpt>
<trkpt lat="22.123344" lon="103.812866">
<ele>747.211426</ele>
<time>2011-04-25T09:20:00Z</time>
<desc>lat.=22.123344, lon.=103.812866, Alt.=747.211426m. Speed=7.740000m/h.</desc>
<speed>2.150000</speed>
</trkpt>
<trkpt lat="22.123373" lon="103.812965">
<ele>748.195801</ele>
<time>2011-04-25T09:20:05Z</time>
<desc>lat.=22.123373, lon.=103.812965, Alt.=748.195801m. Speed=7.308000m/h.</desc>
<speed>2.030000</speed>
</trkpt>
<trkpt lat="22.123398" lon="103.813072">
<ele>749.008301</ele>
<time>2011-04-25T09:20:10Z</time>
<desc>lat.=22.123398, lon.=103.813072, Alt.=749.008301m. Speed=7.848000m/h.</desc>
<speed>2.180000</speed>
</trkpt>
<trkpt lat="22.123434" lon="103.813171">
<ele>749.633301</ele>
<time>2011-04-25T09:20:15Z</time>
<desc>lat.=22.123434, lon.=103.813171, Alt.=749.633301m. Speed=8.208000m/h.</desc>
<speed>2.280000</speed>
</trkpt>
<trkpt lat="22.123476" lon="103.813255">
<ele>749.852051</ele>
<time>2011-04-25T09:20:20Z</time>
<desc>lat.=22.123476, lon.=103.813255, Alt.=749.852051m. Speed=4.536000m/h.</desc>
<speed>1.260000</speed>
</trkpt>
<trkpt lat="22.123533" lon="103.813339">
<ele>750.852051</ele>
<time>2011-04-25T09:20:25Z</time>
<desc>lat.=22.123533, lon.=103.813339, Alt.=750.852051m. Speed=8.280000m/h.</desc>
<speed>2.300000</speed>
</trkpt>
<trkpt lat="22.123590" lon="103.813431">
<ele>751.602051</ele>
<time>2011-04-25T09:20:30Z</time>
<desc>lat.=22.123590, lon.=103.813431, Alt.=751.602051m. Speed=8.136000m/h.</desc>
<speed>2.260000</speed>
</trkpt>
<trkpt lat="22.123634" lon="103.813522">
<ele>752.742676</ele>
<time>2011-04-25T09:20:35Z</time>
<desc>lat.=22.123634, lon.=103.813522, Alt.=752.742676m. Speed=6.804000m/h.</desc>
<speed>1.890000</speed>
</trkpt>
<trkpt lat="22.123671" lon="103.813614">
<ele>754.148926</ele>
<time>2011-04-25T09:20:40Z</time>
<desc>lat.=22.123671, lon.=103.813614, Alt.=754.148926m. Speed=6.840000m/h.</desc>
<speed>1.900000</speed>
</trkpt>
<trkpt lat="22.123692" lon="103.813721">
<ele>755.117676</ele>
<time>2011-04-25T09:20:45Z</time>
<desc>lat.=22.123692, lon.=103.813721, Alt.=755.117676m. Speed=6.768000m/h.</desc>
<speed>1.880000</speed>
</trkpt>
<trkpt lat="22.123693" lon="103.813812">
<ele>756.633301</ele>
<time>2011-04-25T09:20:50Z</time>
<desc>lat.=22.123693, lon.=103.813812, Alt.=756.633301m. Speed=6.480000m/h.</desc>
<speed>1.800000</speed>
</trkpt>
<trkpt lat="22.123720" lon="103.813919">
<ele>758.008301</ele>
<time>2011-04-25T09:20:55Z</time>
<desc>lat.=22.123720, lon.=103.813919, Alt.=758.008301m. Speed=7.308000m/h.</desc>
<speed>2.030000</speed>
</trkpt>
<trkpt lat="22.123730" lon="103.813995">
<ele>759.086426</ele>
<time>2011-04-25T09:21:00Z</time>
<desc>lat.=22.123730, lon.=103.813995, Alt.=759.086426m. Speed=5.832000m/h.</desc>
<speed>1.620000</speed>
</trkpt>
<trkpt lat="22.123737" lon="103.814087">
<ele>760.914551</ele>
<time>2011-04-25T09:21:05Z</time>
<desc>lat.=22.123737, lon.=103.814087, Alt.=760.914551m. Speed=6.696000m/h.</desc>
<speed>1.860000</speed>
</trkpt>
<trkpt lat="22.123739" lon="103.814171">
<ele>762.555176</ele>
<time>2011-04-25T09:21:10Z</time>
<desc>lat.=22.123739, lon.=103.814171, Alt.=762.555176m. Speed=3.276000m/h.</desc>
<speed>0.910000</speed>
</trkpt>
<trkpt lat="22.123737" lon="103.814262">
<ele>763.242676</ele>
<time>2011-04-25T09:21:15Z</time>
<desc>lat.=22.123737, lon.=103.814262, Alt.=763.242676m. Speed=6.768000m/h.</desc>
<speed>1.880000</speed>
</trkpt>
<trkpt lat="22.123709" lon="103.814377">
<ele>763.945801</ele>
<time>2011-04-25T09:21:20Z</time>
<desc>lat.=22.123709, lon.=103.814377, Alt.=763.945801m. Speed=8.028000m/h.</desc>
<speed>2.230000</speed>
</trkpt>
<trkpt lat="22.123697" lon="103.814476">
<ele>764.711426</ele>
<time>2011-04-25T09:21:25Z</time>
<desc>lat.=22.123697, lon.=103.814476, Alt.=764.711426m. Speed=5.400000m/h.</desc>
<speed>1.500000</speed>
</trkpt>
<trkpt lat="22.123672" lon="103.814545">
<ele>765.648926</ele>
<time>2011-04-25T09:21:30Z</time>
<desc>lat.=22.123672, lon.=103.814545, Alt.=765.648926m. Speed=3.852000m/h.</desc>
<speed>1.070000</speed>
</trkpt>
<trkpt lat="22.123625" lon="103.814644">
<ele>767.773926</ele>
<time>2011-04-25T09:21:35Z</time>
<desc>lat.=22.123625, lon.=103.814644, Alt.=767.773926m. Speed=5.436000m/h.</desc>
<speed>1.510000</speed>
</trkpt>
<trkpt lat="22.123566" lon="103.814796">
<ele>769.664551</ele>
<time>2011-04-25T09:21:40Z</time>
<desc>lat.=22.123566, lon.=103.814796, Alt.=769.664551m. Speed=7.128000m/h.</desc>
<speed>1.980000</speed>
</trkpt>
<trkpt lat="22.123566" lon="103.814865">
<ele>772.383301</ele>
<time>2011-04-25T09:21:45Z</time>
<desc>lat.=22.123566, lon.=103.814865, Alt.=772.383301m. Speed=4.428000m/h.</desc>
<speed>1.230000</speed>
</trkpt>
<trkpt lat="22.123480" lon="103.814880">
<ele>775.164551</ele>
<time>2011-04-25T09:21:50Z</time>
<desc>lat.=22.123480, lon.=103.814880, Alt.=775.164551m. Speed=5.328000m/h.</desc>
<speed>1.480000</speed>
</trkpt>
<trkpt lat="22.123426" lon="103.814804">
<ele>777.898926</ele>
<time>2011-04-25T09:21:55Z</time>
<desc>lat.=22.123426, lon.=103.814804, Alt.=777.898926m. Speed=6.372000m/h.</desc>
<speed>1.770000</speed>
</trkpt>
<trkpt lat="22.123417" lon="103.814690">
<ele>779.914551</ele>
<time>2011-04-25T09:22:00Z</time>
<desc>lat.=22.123417, lon.=103.814690, Alt.=779.914551m. Speed=6.912000m/h.</desc>
<speed>1.920000</speed>
</trkpt>
<trkpt lat="22.123363" lon="103.814568">
<ele>782.820801</ele>
<time>2011-04-25T09:22:05Z</time>
<desc>lat.=22.123363, lon.=103.814568, Alt.=782.820801m. Speed=9.396000m/h.</desc>
<speed>2.610000</speed>
</trkpt>
<trkpt lat="22.123318" lon="103.814461">
<ele>785.227051</ele>
<time>2011-04-25T09:22:10Z</time>
<desc>lat.=22.123318, lon.=103.814461, Alt.=785.227051m. Speed=9.360000m/h.</desc>
<speed>2.600000</speed>
</trkpt>
<trkpt lat="22.123287" lon="103.814369">
<ele>787.211426</ele>
<time>2011-04-25T09:22:15Z</time>
<desc>lat.=22.123287, lon.=103.814369, Alt.=787.211426m. Speed=7.740000m/h.</desc>
<speed>2.150000</speed>
</trkpt>
<trkpt lat="22.123217" lon="103.814278">
<ele>789.555176</ele>
<time>2011-04-25T09:22:20Z</time>
<desc>lat.=22.123217, lon.=103.814278, Alt.=789.555176m. Speed=9.036000m/h.</desc>
<speed>2.510000</speed>
</trkpt>
<trkpt lat="22.123138" lon="103.814194">
<ele>791.961426</ele>
<time>2011-04-25T09:22:25Z</time>
<desc>lat.=22.123138, lon.=103.814194, Alt.=791.961426m. Speed=8.928000m/h.</desc>
<speed>2.480000</speed>
</trkpt>
<trkpt lat="22.123037" lon="103.814140">
<ele>793.773926</ele>
<time>2011-04-25T09:22:30Z</time>
<desc>lat.=22.123037, lon.=103.814140, Alt.=793.773926m. Speed=6.840000m/h.</desc>
<speed>1.900000</speed>
</trkpt>
<trkpt lat="22.122919" lon="103.814117">
<ele>794.461426</ele>
<time>2011-04-25T09:22:35Z</time>
<desc>lat.=22.122919, lon.=103.814117, Alt.=794.461426m. Speed=7.020000m/h.</desc>
<speed>1.950000</speed>
</trkpt>
<trkpt lat="22.122795" lon="103.814117">
<ele>793.586426</ele>
<time>2011-04-25T09:22:40Z</time>
<desc>lat.=22.122795, lon.=103.814117, Alt.=793.586426m. Speed=6.732000m/h.</desc>
<speed>1.870000</speed>
</trkpt>
<trkpt lat="22.122650" lon="103.814148">
<ele>792.195801</ele>
<time>2011-04-25T09:22:45Z</time>
<desc>lat.=22.122650, lon.=103.814148, Alt.=792.195801m. Speed=6.984000m/h.</desc>
<speed>1.940000</speed>
</trkpt>
<trkpt lat="22.122524" lon="103.814201">
<ele>790.352051</ele>
<time>2011-04-25T09:22:50Z</time>
<desc>lat.=22.122524, lon.=103.814201, Alt.=790.352051m. Speed=7.668000m/h.</desc>
<speed>2.130000</speed>
</trkpt>
<trkpt lat="22.122425" lon="103.814247">
<ele>789.258301</ele>
<time>2011-04-25T09:22:55Z</time>
<desc>lat.=22.122425, lon.=103.814247, Alt.=789.258301m. Speed=7.488000m/h.</desc>
<speed>2.080000</speed>
</trkpt>
<trkpt lat="22.122309" lon="103.814323">
<ele>785.867676</ele>
<time>2011-04-25T09:23:00Z</time>
<desc>lat.=22.122309, lon.=103.814323, Alt.=785.867676m. Speed=7.740000m/h.</desc>
<speed>2.150000</speed>
</trkpt>
<trkpt lat="22.122194" lon="103.814415">
<ele>783.664551</ele>
<time>2011-04-25T09:23:05Z</time>
<desc>lat.=22.122194, lon.=103.814415, Alt.=783.664551m. Speed=8.460000m/h.</desc>
<speed>2.350000</speed>
</trkpt>
<trkpt lat="22.122093" lon="103.814476">
<ele>783.117676</ele>
<time>2011-04-25T09:23:10Z</time>
<desc>lat.=22.122093, lon.=103.814476, Alt.=783.117676m. Speed=6.624000m/h.</desc>
<speed>1.840000</speed>
</trkpt>
<trkpt lat="22.122005" lon="103.814560">
<ele>782.555176</ele>
<time>2011-04-25T09:23:15Z</time>
<desc>lat.=22.122005, lon.=103.814560, Alt.=782.555176m. Speed=7.992000m/h.</desc>
<speed>2.220000</speed>
</trkpt>
<trkpt lat="22.121929" lon="103.814659">
<ele>781.664551</ele>
<time>2011-04-25T09:23:20Z</time>
<desc>lat.=22.121929, lon.=103.814659, Alt.=781.664551m. Speed=8.244000m/h.</desc>
<speed>2.290000</speed>
</trkpt>
<trkpt lat="22.121841" lon="103.814758">
<ele>781.617676</ele>
<time>2011-04-25T09:23:25Z</time>
<desc>lat.=22.121841, lon.=103.814758, Alt.=781.617676m. Speed=9.900000m/h.</desc>
<speed>2.750000</speed>
</trkpt>
<trkpt lat="22.121754" lon="103.814857">
<ele>779.961426</ele>
<time>2011-04-25T09:23:30Z</time>
<desc>lat.=22.121754, lon.=103.814857, Alt.=779.961426m. Speed=10.764000m/h.</desc>
<speed>2.990000</speed>
</trkpt>
<trkpt lat="22.121679" lon="103.814911">
<ele>778.133301</ele>
<time>2011-04-25T09:23:35Z</time>
<desc>lat.=22.121679, lon.=103.814911, Alt.=778.133301m. Speed=6.156000m/h.</desc>
<speed>1.710000</speed>
</trkpt>
<trkpt lat="22.121626" lon="103.814941">
<ele>775.414551</ele>
<time>2011-04-25T09:23:40Z</time>
<desc>lat.=22.121626, lon.=103.814941, Alt.=775.414551m. Speed=4.356000m/h.</desc>
<speed>1.210000</speed>
</trkpt>
<trkpt lat="22.121552" lon="103.814957">
<ele>774.133301</ele>
<time>2011-04-25T09:23:45Z</time>
<desc>lat.=22.121552, lon.=103.814957, Alt.=774.133301m. Speed=7.020000m/h.</desc>
<speed>1.950000</speed>
</trkpt>
<trkpt lat="22.121466" lon="103.814949">
<ele>773.680176</ele>
<time>2011-04-25T09:23:50Z</time>
<desc>lat.=22.121466, lon.=103.814949, Alt.=773.680176m. Speed=7.020000m/h.</desc>
<speed>1.950000</speed>
</trkpt>
<trkpt lat="22.121361" lon="103.814934">
<ele>773.805176</ele>
<time>2011-04-25T09:23:55Z</time>
<desc>lat.=22.121361, lon.=103.814934, Alt.=773.805176m. Speed=7.920000m/h.</desc>
<speed>2.200000</speed>
</trkpt>
<trkpt lat="22.121275" lon="103.814911">
<ele>773.773926</ele>
<time>2011-04-25T09:24:00Z</time>
<desc>lat.=22.121275, lon.=103.814911, Alt.=773.773926m. Speed=7.632000m/h.</desc>
<speed>2.120000</speed>
</trkpt>
<trkpt lat="22.121181" lon="103.814919">
<ele>773.773926</ele>
<time>2011-04-25T09:24:05Z</time>
<desc>lat.=22.121181, lon.=103.814919, Alt.=773.773926m. Speed=8.172000m/h.</desc>
<speed>2.270000</speed>
</trkpt>
<trkpt lat="22.121073" lon="103.814919">
<ele>774.461426</ele>
<time>2011-04-25T09:24:10Z</time>
<desc>lat.=22.121073, lon.=103.814919, Alt.=774.461426m. Speed=8.064000m/h.</desc>
<speed>2.240000</speed>
</trkpt>
<trkpt lat="22.120996" lon="103.814934">
<ele>775.930176</ele>
<time>2011-04-25T09:24:15Z</time>
<desc>lat.=22.120996, lon.=103.814934, Alt.=775.930176m. Speed=5.076000m/h.</desc>
<speed>1.410000</speed>
</trkpt>
<trkpt lat="22.120909" lon="103.814941">
<ele>776.211426</ele>
<time>2011-04-25T09:24:20Z</time>
<desc>lat.=22.120909, lon.=103.814941, Alt.=776.211426m. Speed=5.976000m/h.</desc>
<speed>1.660000</speed>
</trkpt>
<trkpt lat="22.120831" lon="103.814987">
<ele>775.633301</ele>
<time>2011-04-25T09:24:25Z</time>
<desc>lat.=22.120831, lon.=103.814987, Alt.=775.633301m. Speed=6.912000m/h.</desc>
<speed>1.920000</speed>
</trkpt>
<trkpt lat="22.120747" lon="103.815041">
<ele>775.336426</ele>
<time>2011-04-25T09:24:30Z</time>
<desc>lat.=22.120747, lon.=103.815041, Alt.=775.336426m. Speed=7.596000m/h.</desc>
<speed>2.110000</speed>
</trkpt>
<trkpt lat="22.120667" lon="103.815063">
<ele>775.836426</ele>
<time>2011-04-25T09:24:35Z</time>
<desc>lat.=22.120667, lon.=103.815063, Alt.=775.836426m. Speed=4.680000m/h.</desc>
<speed>1.300000</speed>
</trkpt>
<trkpt lat="22.120607" lon="103.815102">
<ele>775.945801</ele>
<time>2011-04-25T09:24:40Z</time>
<desc>lat.=22.120607, lon.=103.815102, Alt.=775.945801m. Speed=6.516000m/h.</desc>
<speed>1.810000</speed>
</trkpt>
<trkpt lat="22.120543" lon="103.815140">
<ele>776.289551</ele>
<time>2011-04-25T09:24:45Z</time>
<desc>lat.=22.120543, lon.=103.815140, Alt.=776.289551m. Speed=5.148000m/h.</desc>
<speed>1.430000</speed>
</trkpt>
<trkpt lat="22.120474" lon="103.815201">
<ele>777.742676</ele>
<time>2011-04-25T09:24:50Z</time>
<desc>lat.=22.120474, lon.=103.815201, Alt.=777.742676m. Speed=6.876000m/h.</desc>
<speed>1.910000</speed>
</trkpt>
<trkpt lat="22.120390" lon="103.815262">
<ele>777.914551</ele>
<time>2011-04-25T09:24:55Z</time>
<desc>lat.=22.120390, lon.=103.815262, Alt.=777.914551m. Speed=8.136000m/h.</desc>
<speed>2.260000</speed>
</trkpt>
<trkpt lat="22.120298" lon="103.815338">
<ele>778.836426</ele>
<time>2011-04-25T09:25:00Z</time>
<desc>lat.=22.120298, lon.=103.815338, Alt.=778.836426m. Speed=8.496000m/h.</desc>
<speed>2.360000</speed>
</trkpt>
<trkpt lat="22.120220" lon="103.815422">
<ele>779.398926</ele>
<time>2011-04-25T09:25:05Z</time>
<desc>lat.=22.120220, lon.=103.815422, Alt.=779.398926m. Speed=6.552000m/h.</desc>
<speed>1.820000</speed>
</trkpt>
<trkpt lat="22.120174" lon="103.815521">
<ele>780.352051</ele>
<time>2011-04-25T09:25:10Z</time>
<desc>lat.=22.120174, lon.=103.815521, Alt.=780.352051m. Speed=2.988000m/h.</desc>
<speed>0.830000</speed>
</trkpt>
<trkpt lat="22.120157" lon="103.815498">
<ele>781.445801</ele>
<time>2011-04-25T09:25:15Z</time>
<desc>lat.=22.120157, lon.=103.815498, Alt.=781.445801m. Speed=0.180000m/h.</desc>
<speed>0.050000</speed>
</trkpt>
<trkpt lat="22.120157" lon="103.815506">
<ele>781.633301</ele>
<time>2011-04-25T09:25:20Z</time>
<desc>lat.=22.120157, lon.=103.815506, Alt.=781.633301m. Speed=0.144000m/h.</desc>
<speed>0.040000</speed>
</trkpt>
<trkpt lat="22.120157" lon="103.815506">
<ele>781.789551</ele>
<time>2011-04-25T09:25:25Z</time>
<desc>lat.=22.120157, lon.=103.815506, Alt.=781.789551m. Speed=0.036000m/h.</desc>
<speed>0.010000</speed>
</trkpt>
<trkpt lat="22.120157" lon="103.815506">
<ele>781.883301</ele>
<time>2011-04-25T09:25:30Z</time>
<desc>lat.=22.120157, lon.=103.815506, Alt.=781.883301m. Speed=0.000000m/h.</desc>
<speed>0.000000</speed>
</trkpt>
<trkpt lat="22.120157" lon="103.815506">
<ele>781.930176</ele>
<time>2011-04-25T09:25:35Z</time>
<desc>lat.=22.120157, lon.=103.815506, Alt.=781.930176m. Speed=0.288000m/h.</desc>
<speed>0.080000</speed>
</trkpt>
<trkpt lat="22.120144" lon="103.815521">
<ele>781.930176</ele>
<time>2011-04-25T09:25:40Z</time>
<desc>lat.=22.120144, lon.=103.815521, Alt.=781.930176m. Speed=1.800000m/h.</desc>
<speed>0.500000</speed>
</trkpt>
<trkpt lat="22.120119" lon="103.815598">
<ele>781.789551</ele>
<time>2011-04-25T09:25:45Z</time>
<desc>lat.=22.120119, lon.=103.815598, Alt.=781.789551m. Speed=7.992000m/h.</desc>
<speed>2.220000</speed>
</trkpt>
<trkpt lat="22.120070" lon="103.815720">
<ele>781.461426</ele>
<time>2011-04-25T09:25:50Z</time>
<desc>lat.=22.120070, lon.=103.815720, Alt.=781.461426m. Speed=7.668000m/h.</desc>
<speed>2.130000</speed>
</trkpt>
<trkpt lat="22.120018" lon="103.815842">
<ele>780.914551</ele>
<time>2011-04-25T09:25:55Z</time>
<desc>lat.=22.120018, lon.=103.815842, Alt.=780.914551m. Speed=10.332000m/h.</desc>
<speed>2.870000</speed>
</trkpt>
<trkpt lat="22.119938" lon="103.815971">
<ele>781.164551</ele>
<time>2011-04-25T09:26:00Z</time>
<desc>lat.=22.119938, lon.=103.815971, Alt.=781.164551m. Speed=9.144000m/h.</desc>
<speed>2.540000</speed>
</trkpt>
<trkpt lat="22.119822" lon="103.816071">
<ele>783.914551</ele>
<time>2011-04-25T09:26:05Z</time>
<desc>lat.=22.119822, lon.=103.816071, Alt.=783.914551m. Speed=9.864000m/h.</desc>
<speed>2.740000</speed>
</trkpt>
<trkpt lat="22.119728" lon="103.816124">
<ele>784.930176</ele>
<time>2011-04-25T09:26:10Z</time>
<desc>lat.=22.119728, lon.=103.816124, Alt.=784.930176m. Speed=6.984000m/h.</desc>
<speed>1.940000</speed>
</trkpt>
<trkpt lat="22.119650" lon="103.816147">
<ele>786.086426</ele>
<time>2011-04-25T09:26:15Z</time>
<desc>lat.=22.119650, lon.=103.816147, Alt.=786.086426m. Speed=5.580000m/h.</desc>
<speed>1.550000</speed>
</trkpt>
<trkpt lat="22.119564" lon="103.816177">
<ele>787.023926</ele>
<time>2011-04-25T09:26:20Z</time>
<desc>lat.=22.119564, lon.=103.816177, Alt.=787.023926m. Speed=6.804000m/h.</desc>
<speed>1.890000</speed>
</trkpt>
<trkpt lat="22.119473" lon="103.816200">
<ele>787.664551</ele>
<time>2011-04-25T09:26:25Z</time>
<desc>lat.=22.119473, lon.=103.816200, Alt.=787.664551m. Speed=5.472000m/h.</desc>
<speed>1.520000</speed>
</trkpt>
<trkpt lat="22.119398" lon="103.816231">
<ele>787.789551</ele>
<time>2011-04-25T09:26:30Z</time>
<desc>lat.=22.119398, lon.=103.816231, Alt.=787.789551m. Speed=5.652000m/h.</desc>
<speed>1.570000</speed>
</trkpt>
<trkpt lat="22.119362" lon="103.816231">
<ele>787.852051</ele>
<time>2011-04-25T09:26:35Z</time>
<desc>lat.=22.119362, lon.=103.816231, Alt.=787.852051m. Speed=0.756000m/h.</desc>
<speed>0.210000</speed>
</trkpt>
<trkpt lat="22.119354" lon="103.816238">
<ele>788.008301</ele>
<time>2011-04-25T09:26:40Z</time>
<desc>lat.=22.119354, lon.=103.816238, Alt.=788.008301m. Speed=0.936000m/h.</desc>
<speed>0.260000</speed>
</trkpt>
<trkpt lat="22.119310" lon="103.816246">
<ele>788.117676</ele>
<time>2011-04-25T09:26:45Z</time>
<desc>lat.=22.119310, lon.=103.816246, Alt.=788.117676m. Speed=5.004000m/h.</desc>
<speed>1.390000</speed>
</trkpt>
<trkpt lat="22.119238" lon="103.816261">
<ele>787.883301</ele>
<time>2011-04-25T09:26:50Z</time>
<desc>lat.=22.119238, lon.=103.816261, Alt.=787.883301m. Speed=6.480000m/h.</desc>
<speed>1.800000</speed>
</trkpt>
<trkpt lat="22.119123" lon="103.816261">
<ele>789.883301</ele>
<time>2011-04-25T09:26:55Z</time>
<desc>lat.=22.119123, lon.=103.816261, Alt.=789.883301m. Speed=7.668000m/h.</desc>
<speed>2.130000</speed>
</trkpt>
<trkpt lat="22.119032" lon="103.816307">
<ele>790.758301</ele>
<time>2011-04-25T09:27:00Z</time>
<desc>lat.=22.119032, lon.=103.816307, Alt.=790.758301m. Speed=6.876000m/h.</desc>
<speed>1.910000</speed>
</trkpt>
<trkpt lat="22.118977" lon="103.816414">
<ele>789.758301</ele>
<time>2011-04-25T09:27:05Z</time>
<desc>lat.=22.118977, lon.=103.816414, Alt.=789.758301m. Speed=5.472000m/h.</desc>
<speed>1.520000</speed>
</trkpt>
<trkpt lat="22.118898" lon="103.816460">
<ele>791.086426</ele>
<time>2011-04-25T09:27:10Z</time>
<desc>lat.=22.118898, lon.=103.816460, Alt.=791.086426m. Speed=7.452000m/h.</desc>
<speed>2.070000</speed>
</trkpt>
<trkpt lat="22.118834" lon="103.816521">
<ele>792.492676</ele>
<time>2011-04-25T09:27:15Z</time>
<desc>lat.=22.118834, lon.=103.816521, Alt.=792.492676m. Speed=6.264000m/h.</desc>
<speed>1.740000</speed>
</trkpt>
<trkpt lat="22.118763" lon="103.816559">
<ele>795.773926</ele>
<time>2011-04-25T09:27:20Z</time>
<desc>lat.=22.118763, lon.=103.816559, Alt.=795.773926m. Speed=6.588000m/h.</desc>
<speed>1.830000</speed>
</trkpt>
<trkpt lat="22.118713" lon="103.816635">
<ele>795.133301</ele>
<time>2011-04-25T09:27:25Z</time>
<desc>lat.=22.118713, lon.=103.816635, Alt.=795.133301m. Speed=5.616000m/h.</desc>
<speed>1.560000</speed>
</trkpt>
<trkpt lat="22.118656" lon="103.816704">
<ele>794.789551</ele>
<time>2011-04-25T09:27:30Z</time>
<desc>lat.=22.118656, lon.=103.816704, Alt.=794.789551m. Speed=7.704000m/h.</desc>
<speed>2.140000</speed>
</trkpt>
<trkpt lat="22.118599" lon="103.816788">
<ele>794.180176</ele>
<time>2011-04-25T09:27:35Z</time>
<desc>lat.=22.118599, lon.=103.816788, Alt.=794.180176m. Speed=6.984000m/h.</desc>
<speed>1.940000</speed>
</trkpt>
<trkpt lat="22.118546" lon="103.816841">
<ele>794.336426</ele>
<time>2011-04-25T09:27:40Z</time>
<desc>lat.=22.118546, lon.=103.816841, Alt.=794.336426m. Speed=5.832000m/h.</desc>
<speed>1.620000</speed>
</trkpt>
<trkpt lat="22.118496" lon="103.816925">
<ele>794.070801</ele>
<time>2011-04-25T09:27:45Z</time>
<desc>lat.=22.118496, lon.=103.816925, Alt.=794.070801m. Speed=5.760000m/h.</desc>
<speed>1.600000</speed>
</trkpt>
<trkpt lat="22.118448" lon="103.816994">
<ele>793.242676</ele>
<time>2011-04-25T09:27:50Z</time>
<desc>lat.=22.118448, lon.=103.816994, Alt.=793.242676m. Speed=6.732000m/h.</desc>
<speed>1.870000</speed>
</trkpt>
<trkpt lat="22.118410" lon="103.817062">
<ele>792.758301</ele>
<time>2011-04-25T09:27:55Z</time>
<desc>lat.=22.118410, lon.=103.817062, Alt.=792.758301m. Speed=4.968000m/h.</desc>
<speed>1.380000</speed>
</trkpt>
<trkpt lat="22.118359" lon="103.817108">
<ele>792.789551</ele>
<time>2011-04-25T09:28:00Z</time>
<desc>lat.=22.118359, lon.=103.817108, Alt.=792.789551m. Speed=6.012000m/h.</desc>
<speed>1.670000</speed>
</trkpt>
<trkpt lat="22.118280" lon="103.817154">
<ele>793.898926</ele>
<time>2011-04-25T09:28:05Z</time>
<desc>lat.=22.118280, lon.=103.817154, Alt.=793.898926m. Speed=6.300000m/h.</desc>
<speed>1.750000</speed>
</trkpt>
<trkpt lat="22.118193" lon="103.817192">
<ele>795.039551</ele>
<time>2011-04-25T09:28:10Z</time>
<desc>lat.=22.118193, lon.=103.817192, Alt.=795.039551m. Speed=7.272000m/h.</desc>
<speed>2.020000</speed>
</trkpt>
<trkpt lat="22.118118" lon="103.817230">
<ele>795.992676</ele>
<time>2011-04-25T09:28:15Z</time>
<desc>lat.=22.118118, lon.=103.817230, Alt.=795.992676m. Speed=3.168000m/h.</desc>
<speed>0.880000</speed>
</trkpt>
<trkpt lat="22.118074" lon="103.817261">
<ele>796.602051</ele>
<time>2011-04-25T09:28:20Z</time>
<desc>lat.=22.118074, lon.=103.817261, Alt.=796.602051m. Speed=4.104000m/h.</desc>
<speed>1.140000</speed>
</trkpt>
<trkpt lat="22.118031" lon="103.817299">
<ele>796.898926</ele>
<time>2011-04-25T09:28:25Z</time>
<desc>lat.=22.118031, lon.=103.817299, Alt.=796.898926m. Speed=4.932000m/h.</desc>
<speed>1.370000</speed>
</trkpt>
<trkpt lat="22.117947" lon="103.817314">
<ele>797.289551</ele>
<time>2011-04-25T09:28:30Z</time>
<desc>lat.=22.117947, lon.=103.817314, Alt.=797.289551m. Speed=4.032000m/h.</desc>
<speed>1.120000</speed>
</trkpt>
<trkpt lat="22.117886" lon="103.817329">
<ele>798.070801</ele>
<time>2011-04-25T09:28:35Z</time>
<desc>lat.=22.117886, lon.=103.817329, Alt.=798.070801m. Speed=4.428000m/h.</desc>
<speed>1.230000</speed>
</trkpt>
<trkpt lat="22.117821" lon="103.817352">
<ele>799.039551</ele>
<time>2011-04-25T09:28:40Z</time>
<desc>lat.=22.117821, lon.=103.817352, Alt.=799.039551m. Speed=3.780000m/h.</desc>
<speed>1.050000</speed>
</trkpt>
<trkpt lat="22.117714" lon="103.817360">
<ele>800.227051</ele>
<time>2011-04-25T09:28:45Z</time>
<desc>lat.=22.117714, lon.=103.817360, Alt.=800.227051m. Speed=6.300000m/h.</desc>
<speed>1.750000</speed>
</trkpt>
<trkpt lat="22.117640" lon="103.817383">
<ele>800.883301</ele>
<time>2011-04-25T09:28:50Z</time>
<desc>lat.=22.117640, lon.=103.817383, Alt.=800.883301m. Speed=6.804000m/h.</desc>
<speed>1.890000</speed>
</trkpt>
<trkpt lat="22.117537" lon="103.817398">
<ele>802.320801</ele>
<time>2011-04-25T09:28:55Z</time>
<desc>lat.=22.117537, lon.=103.817398, Alt.=802.320801m. Speed=5.688000m/h.</desc>
<speed>1.580000</speed>
</trkpt>
<trkpt lat="22.117428" lon="103.817444">
<ele>803.305176</ele>
<time>2011-04-25T09:29:00Z</time>
<desc>lat.=22.117428, lon.=103.817444, Alt.=803.305176m. Speed=7.092000m/h.</desc>
<speed>1.970000</speed>
</trkpt>
<trkpt lat="22.117367" lon="103.817505">
<ele>804.227051</ele>
<time>2011-04-25T09:29:05Z</time>
<desc>lat.=22.117367, lon.=103.817505, Alt.=804.227051m. Speed=5.796000m/h.</desc>
<speed>1.610000</speed>
</trkpt>
<trkpt lat="22.117289" lon="103.817604">
<ele>805.570801</ele>
<time>2011-04-25T09:29:10Z</time>
<desc>lat.=22.117289, lon.=103.817604, Alt.=805.570801m. Speed=8.136000m/h.</desc>
<speed>2.260000</speed>
</trkpt>
<trkpt lat="22.117205" lon="103.817688">
<ele>806.086426</ele>
<time>2011-04-25T09:29:15Z</time>
<desc>lat.=22.117205, lon.=103.817688, Alt.=806.086426m. Speed=6.624000m/h.</desc>
<speed>1.840000</speed>
</trkpt>
<trkpt lat="22.117140" lon="103.817749">
<ele>806.430176</ele>
<time>2011-04-25T09:29:20Z</time>
<desc>lat.=22.117140, lon.=103.817749, Alt.=806.430176m. Speed=5.112000m/h.</desc>
<speed>1.420000</speed>
</trkpt>
<trkpt lat="22.117065" lon="103.817810">
<ele>809.055176</ele>
<time>2011-04-25T09:29:25Z</time>
<desc>lat.=22.117065, lon.=103.817810, Alt.=809.055176m. Speed=6.408000m/h.</desc>
<speed>1.780000</speed>
</trkpt>
<trkpt lat="22.117002" lon="103.817886">
<ele>809.305176</ele>
<time>2011-04-25T09:29:30Z</time>
<desc>lat.=22.117002, lon.=103.817886, Alt.=809.305176m. Speed=6.948000m/h.</desc>
<speed>1.930000</speed>
</trkpt>
<trkpt lat="22.116898" lon="103.817924">
<ele>811.070801</ele>
<time>2011-04-25T09:29:35Z</time>
<desc>lat.=22.116898, lon.=103.817924, Alt.=811.070801m. Speed=6.336000m/h.</desc>
<speed>1.760000</speed>
</trkpt>
<trkpt lat="22.116827" lon="103.817955">
<ele>812.742676</ele>
<time>2011-04-25T09:29:40Z</time>
<desc>lat.=22.116827, lon.=103.817955, Alt.=812.742676m. Speed=6.372000m/h.</desc>
<speed>1.770000</speed>
</trkpt>
<trkpt lat="22.116749" lon="103.817970">
<ele>814.148926</ele>
<time>2011-04-25T09:29:45Z</time>
<desc>lat.=22.116749, lon.=103.817970, Alt.=814.148926m. Speed=7.596000m/h.</desc>
<speed>2.110000</speed>
</trkpt>
<trkpt lat="22.116634" lon="103.817986">
<ele>816.914551</ele>
<time>2011-04-25T09:29:50Z</time>
<desc>lat.=22.116634, lon.=103.817986, Alt.=816.914551m. Speed=7.596000m/h.</desc>
<speed>2.110000</speed>
</trkpt>
<trkpt lat="22.116558" lon="103.818024">
<ele>819.227051</ele>
<time>2011-04-25T09:29:55Z</time>
<desc>lat.=22.116558, lon.=103.818024, Alt.=819.227051m. Speed=6.336000m/h.</desc>
<speed>1.760000</speed>
</trkpt>
<trkpt lat="22.116463" lon="103.818069">
<ele>821.398926</ele>
<time>2011-04-25T09:30:00Z</time>
<desc>lat.=22.116463, lon.=103.818069, Alt.=821.398926m. Speed=7.596000m/h.</desc>
<speed>2.110000</speed>
</trkpt>
<trkpt lat="22.116405" lon="103.818138">
<ele>822.805176</ele>
<time>2011-04-25T09:30:05Z</time>
<desc>lat.=22.116405, lon.=103.818138, Alt.=822.805176m. Speed=6.768000m/h.</desc>
<speed>1.880000</speed>
</trkpt>
<trkpt lat="22.116331" lon="103.818230">
<ele>823.227051</ele>
<time>2011-04-25T09:30:10Z</time>
<desc>lat.=22.116331, lon.=103.818230, Alt.=823.227051m. Speed=7.344000m/h.</desc>
<speed>2.040000</speed>
</trkpt>
<trkpt lat="22.116291" lon="103.818314">
<ele>824.211426</ele>
<time>2011-04-25T09:30:15Z</time>
<desc>lat.=22.116291, lon.=103.818314, Alt.=824.211426m. Speed=7.848000m/h.</desc>
<speed>2.180000</speed>
</trkpt>
<trkpt lat="22.116261" lon="103.818420">
<ele>824.336426</ele>
<time>2011-04-25T09:30:20Z</time>
<desc>lat.=22.116261, lon.=103.818420, Alt.=824.336426m. Speed=6.660000m/h.</desc>
<speed>1.850000</speed>
</trkpt>
<trkpt lat="22.116205" lon="103.818512">
<ele>823.289551</ele>
<time>2011-04-25T09:30:25Z</time>
<desc>lat.=22.116205, lon.=103.818512, Alt.=823.289551m. Speed=7.416000m/h.</desc>
<speed>2.060000</speed>
</trkpt>
<trkpt lat="22.116163" lon="103.818596">
<ele>822.883301</ele>
<time>2011-04-25T09:30:30Z</time>
<desc>lat.=22.116163, lon.=103.818596, Alt.=822.883301m. Speed=8.064000m/h.</desc>
<speed>2.240000</speed>
</trkpt>
<trkpt lat="22.116100" lon="103.818672">
<ele>824.773926</ele>
<time>2011-04-25T09:30:35Z</time>
<desc>lat.=22.116100, lon.=103.818672, Alt.=824.773926m. Speed=8.136000m/h.</desc>
<speed>2.260000</speed>
</trkpt>
<trkpt lat="22.116001" lon="103.818741">
<ele>828.383301</ele>
<time>2011-04-25T09:30:40Z</time>
<desc>lat.=22.116001, lon.=103.818741, Alt.=828.383301m. Speed=8.316000m/h.</desc>
<speed>2.310000</speed>
</trkpt>
<trkpt lat="22.115923" lon="103.818817">
<ele>827.523926</ele>
<time>2011-04-25T09:30:45Z</time>
<desc>lat.=22.115923, lon.=103.818817, Alt.=827.523926m. Speed=8.280000m/h.</desc>
<speed>2.300000</speed>
</trkpt>
<trkpt lat="22.115841" lon="103.818886">
<ele>827.383301</ele>
<time>2011-04-25T09:30:50Z</time>
<desc>lat.=22.115841, lon.=103.818886, Alt.=827.383301m. Speed=8.136000m/h.</desc>
<speed>2.260000</speed>
</trkpt>
<trkpt lat="22.115746" lon="103.818939">
<ele>826.148926</ele>
<time>2011-04-25T09:30:55Z</time>
<desc>lat.=22.115746, lon.=103.818939, Alt.=826.148926m. Speed=7.524000m/h.</desc>
<speed>2.090000</speed>
</trkpt>
<trkpt lat="22.115669" lon="103.819008">
<ele>825.805176</ele>
<time>2011-04-25T09:31:00Z</time>
<desc>lat.=22.115669, lon.=103.819008, Alt.=825.805176m. Speed=8.712000m/h.</desc>
<speed>2.420000</speed>
</trkpt>
<trkpt lat="22.115583" lon="103.819023">
<ele>827.586426</ele>
<time>2011-04-25T09:31:05Z</time>
<desc>lat.=22.115583, lon.=103.819023, Alt.=827.586426m. Speed=5.040000m/h.</desc>
<speed>1.400000</speed>
</trkpt>
<trkpt lat="22.115509" lon="103.819016">
<ele>828.773926</ele>
<time>2011-04-25T09:31:10Z</time>
<desc>lat.=22.115509, lon.=103.819016, Alt.=828.773926m. Speed=5.112000m/h.</desc>
<speed>1.420000</speed>
</trkpt>
<trkpt lat="22.115435" lon="103.819008">
<ele>829.805176</ele>
<time>2011-04-25T09:31:15Z</time>
<desc>lat.=22.115435, lon.=103.819008, Alt.=829.805176m. Speed=4.392000m/h.</desc>
<speed>1.220000</speed>
</trkpt>
<trkpt lat="22.115391" lon="103.818993">
<ele>830.664551</ele>
<time>2011-04-25T09:31:20Z</time>
<desc>lat.=22.115391, lon.=103.818993, Alt.=830.664551m. Speed=4.104000m/h.</desc>
<speed>1.140000</speed>
</trkpt>
<trkpt lat="22.115355" lon="103.818985">
<ele>831.992676</ele>
<time>2011-04-25T09:31:25Z</time>
<desc>lat.=22.115355, lon.=103.818985, Alt.=831.992676m. Speed=3.348000m/h.</desc>
<speed>0.930000</speed>
</trkpt>
<trkpt lat="22.115345" lon="103.818977">
<ele>832.930176</ele>
<time>2011-04-25T09:31:30Z</time>
<desc>lat.=22.115345, lon.=103.818977, Alt.=832.930176m. Speed=0.396000m/h.</desc>
<speed>0.110000</speed>
</trkpt>
<trkpt lat="22.115345" lon="103.818962">
<ele>833.227051</ele>
<time>2011-04-25T09:31:35Z</time>
<desc>lat.=22.115345, lon.=103.818962, Alt.=833.227051m. Speed=1.656000m/h.</desc>
<speed>0.460000</speed>
</trkpt>
<trkpt lat="22.115328" lon="103.818939">
<ele>832.414551</ele>
<time>2011-04-25T09:31:40Z</time>
<desc>lat.=22.115328, lon.=103.818939, Alt.=832.414551m. Speed=0.000000m/h.</desc>
<speed>0.000000</speed>
</trkpt>
<trkpt lat="22.115326" lon="103.818939">
<ele>832.508301</ele>
<time>2011-04-25T09:31:45Z</time>
<desc>lat.=22.115326, lon.=103.818939, Alt.=832.508301m. Speed=0.252000m/h.</desc>
<speed>0.070000</speed>
</trkpt>
<trkpt lat="22.115324" lon="103.818939">
<ele>832.711426</ele>
<time>2011-04-25T09:31:50Z</time>
<desc>lat.=22.115324, lon.=103.818939, Alt.=832.711426m. Speed=0.000000m/h.</desc>
<speed>0.000000</speed>
</trkpt>
<trkpt lat="22.115324" lon="103.818939">
<ele>832.742676</ele>
<time>2011-04-25T09:31:55Z</time>
<desc>lat.=22.115324, lon.=103.818939, Alt.=832.742676m. Speed=0.000000m/h.</desc>
<speed>0.000000</speed>
</trkpt>
<trkpt lat="22.115324" lon="103.818939">
<ele>832.727051</ele>
<time>2011-04-25T09:32:00Z</time>
<desc>lat.=22.115324, lon.=103.818939, Alt.=832.727051m. Speed=0.036000m/h.</desc>
<speed>0.010000</speed>
</trkpt>
<trkpt lat="22.115322" lon="103.818939">
<ele>832.727051</ele>
<time>2011-04-25T09:32:05Z</time>
<desc>lat.=22.115322, lon.=103.818939, Alt.=832.727051m. Speed=0.036000m/h.</desc>
<speed>0.010000</speed>
</trkpt>
<trkpt lat="22.115322" lon="103.818939">
<ele>832.711426</ele>
<time>2011-04-25T09:32:10Z</time>
<desc>lat.=22.115322, lon.=103.818939, Alt.=832.711426m. Speed=0.000000m/h.</desc>
<speed>0.000000</speed>
</trkpt>
<trkpt lat="22.115322" lon="103.818939">
<ele>832.695801</ele>
<time>2011-04-25T09:32:15Z</time>
<desc>lat.=22.115322, lon.=103.818939, Alt.=832.695801m. Speed=0.036000m/h.</desc>
<speed>0.010000</speed>
</trkpt>
<trkpt lat="22.115322" lon="103.818939">
<ele>832.680176</ele>
<time>2011-04-25T09:32:20Z</time>
<desc>lat.=22.115322, lon.=103.818939, Alt.=832.680176m. Speed=0.036000m/h.</desc>
<speed>0.010000</speed>
</trkpt>
<trkpt lat="22.115322" lon="103.818939">
<ele>832.664551</ele>
<time>2011-04-25T09:32:25Z</time>
<desc>lat.=22.115322, lon.=103.818939, Alt.=832.664551m. Speed=0.000000m/h.</desc>
<speed>0.000000</speed>
</trkpt>
<trkpt lat="22.115322" lon="103.818939">
<ele>832.664551</ele>
<time>2011-04-25T09:32:30Z</time>
<desc>lat.=22.115322, lon.=103.818939, Alt.=832.664551m. Speed=0.000000m/h.</desc>
<speed>0.000000</speed>
</trkpt>
<trkpt lat="22.115322" lon="103.818939">
<ele>832.664551</ele>
<time>2011-04-25T09:32:35Z</time>
<desc>lat.=22.115322, lon.=103.818939, Alt.=832.664551m. Speed=0.000000m/h.</desc>
<speed>0.000000</speed>
</trkpt>
<trkpt lat="22.115322" lon="103.818939">
<ele>832.648926</ele>
<time>2011-04-25T09:32:40Z</time>
<desc>lat.=22.115322, lon.=103.818939, Alt.=832.648926m. Speed=0.036000m/h.</desc>
<speed>0.010000</speed>
</trkpt>
<trkpt lat="22.115322" lon="103.818939">
<ele>832.617676</ele>
<time>2011-04-25T09:32:45Z</time>
<desc>lat.=22.115322, lon.=103.818939, Alt.=832.617676m. Speed=0.036000m/h.</desc>
<speed>0.010000</speed>
</trkpt>
<trkpt lat="22.115322" lon="103.818939">
<ele>832.602051</ele>
<time>2011-04-25T09:32:50Z</time>
<desc>lat.=22.115322, lon.=103.818939, Alt.=832.602051m. Speed=0.036000m/h.</desc>
<speed>0.010000</speed>
</trkpt>
<trkpt lat="22.115322" lon="103.818939">
<ele>832.586426</ele>
<time>2011-04-25T09:32:55Z</time>
<desc>lat.=22.115322, lon.=103.818939, Alt.=832.586426m. Speed=0.072000m/h.</desc>
<speed>0.020000</speed>
</trkpt>
<trkpt lat="22.115322" lon="103.818939">
<ele>832.586426</ele>
<time>2011-04-25T09:33:00Z</time>
<desc>lat.=22.115322, lon.=103.818939, Alt.=832.586426m. Speed=0.000000m/h.</desc>
<speed>0.000000</speed>
</trkpt>
<trkpt lat="22.115322" lon="103.818939">
<ele>832.570801</ele>
<time>2011-04-25T09:33:05Z</time>
<desc>lat.=22.115322, lon.=103.818939, Alt.=832.570801m. Speed=0.036000m/h.</desc>
<speed>0.010000</speed>
</trkpt>
<trkpt lat="22.115320" lon="103.818939">
<ele>832.570801</ele>
<time>2011-04-25T09:33:10Z</time>
<desc>lat.=22.115320, lon.=103.818939, Alt.=832.570801m. Speed=0.072000m/h.</desc>
<speed>0.020000</speed>
</trkpt>
<trkpt lat="22.115320" lon="103.818939">
<ele>832.555176</ele>
<time>2011-04-25T09:33:15Z</time>
<desc>lat.=22.115320, lon.=103.818939, Alt.=832.555176m. Speed=0.000000m/h.</desc>
<speed>0.000000</speed>
</trkpt>
<trkpt lat="22.115320" lon="103.818939">
<ele>832.555176</ele>
<time>2011-04-25T09:33:20Z</time>
<desc>lat.=22.115320, lon.=103.818939, Alt.=832.555176m. Speed=0.072000m/h.</desc>
<speed>0.020000</speed>
</trkpt>
<trkpt lat="22.115320" lon="103.818939">
<ele>832.539551</ele>
<time>2011-04-25T09:33:25Z</time>
<desc>lat.=22.115320, lon.=103.818939, Alt.=832.539551m. Speed=0.036000m/h.</desc>
<speed>0.010000</speed>
</trkpt>
<trkpt lat="22.115320" lon="103.818939">
<ele>832.523926</ele>
<time>2011-04-25T09:33:30Z</time>
<desc>lat.=22.115320, lon.=103.818939, Alt.=832.523926m. Speed=0.072000m/h.</desc>
<speed>0.020000</speed>
</trkpt>
<trkpt lat="22.115320" lon="103.818939">
<ele>832.492676</ele>
<time>2011-04-25T09:33:35Z</time>
<desc>lat.=22.115320, lon.=103.818939, Alt.=832.492676m. Speed=0.108000m/h.</desc>
<speed>0.030000</speed>
</trkpt>
<trkpt lat="22.115318" lon="103.818939">
<ele>832.477051</ele>
<time>2011-04-25T09:33:40Z</time>
<desc>lat.=22.115318, lon.=103.818939, Alt.=832.477051m. Speed=0.000000m/h.</desc>
<speed>0.000000</speed>
</trkpt>
<trkpt lat="22.115318" lon="103.818939">
<ele>832.461426</ele>
<time>2011-04-25T09:33:45Z</time>
<desc>lat.=22.115318, lon.=103.818939, Alt.=832.461426m. Speed=0.000000m/h.</desc>
<speed>0.000000</speed>
</trkpt>
<trkpt lat="22.115318" lon="103.818939">
<ele>832.445801</ele>
<time>2011-04-25T09:33:50Z</time>
<desc>lat.=22.115318, lon.=103.818939, Alt.=832.445801m. Speed=0.000000m/h.</desc>
<speed>0.000000</speed>
</trkpt>
<trkpt lat="22.115318" lon="103.818939">
<ele>832.445801</ele>
<time>2011-04-25T09:33:55Z</time>
<desc>lat.=22.115318, lon.=103.818939, Alt.=832.445801m. Speed=0.036000m/h.</desc>
<speed>0.010000</speed>
</trkpt>
<trkpt lat="22.115318" lon="103.818939">
<ele>832.414551</ele>
<time>2011-04-25T09:34:00Z</time>
<desc>lat.=22.115318, lon.=103.818939, Alt.=832.414551m. Speed=0.000000m/h.</desc>
<speed>0.000000</speed>
</trkpt>
<trkpt lat="22.115318" lon="103.818939">
<ele>832.414551</ele>
<time>2011-04-25T09:34:05Z</time>
<desc>lat.=22.115318, lon.=103.818939, Alt.=832.414551m. Speed=0.036000m/h.</desc>
<speed>0.010000</speed>
</trkpt>
<trkpt lat="22.115318" lon="103.818939">
<ele>832.398926</ele>
<time>2011-04-25T09:34:10Z</time>
<desc>lat.=22.115318, lon.=103.818939, Alt.=832.398926m. Speed=0.180000m/h.</desc>
<speed>0.050000</speed>
</trkpt>
<trkpt lat="22.115316" lon="103.818939">
<ele>832.383301</ele>
<time>2011-04-25T09:34:15Z</time>
<desc>lat.=22.115316, lon.=103.818939, Alt.=832.383301m. Speed=0.036000m/h.</desc>
<speed>0.010000</speed>
</trkpt>
<trkpt lat="22.115316" lon="103.818939">
<ele>832.367676</ele>
<time>2011-04-25T09:34:20Z</time>
<desc>lat.=22.115316, lon.=103.818939, Alt.=832.367676m. Speed=0.108000m/h.</desc>
<speed>0.030000</speed>
</trkpt>
<trkpt lat="22.115316" lon="103.818939">
<ele>832.352051</ele>
<time>2011-04-25T09:34:25Z</time>
<desc>lat.=22.115316, lon.=103.818939, Alt.=832.352051m. Speed=0.072000m/h.</desc>
<speed>0.020000</speed>
</trkpt>
<trkpt lat="22.115314" lon="103.818939">
<ele>832.320801</ele>
<time>2011-04-25T09:34:30Z</time>
<desc>lat.=22.115314, lon.=103.818939, Alt.=832.320801m. Speed=0.036000m/h.</desc>
<speed>0.010000</speed>
</trkpt>
<trkpt lat="22.115314" lon="103.818939">
<ele>832.320801</ele>
<time>2011-04-25T09:34:35Z</time>
<desc>lat.=22.115314, lon.=103.818939, Alt.=832.320801m. Speed=0.108000m/h.</desc>
<speed>0.030000</speed>
</trkpt>
<trkpt lat="22.115314" lon="103.818939">
<ele>832.305176</ele>
<time>2011-04-25T09:34:40Z</time>
<desc>lat.=22.115314, lon.=103.818939, Alt.=832.305176m. Speed=0.072000m/h.</desc>
<speed>0.020000</speed>
</trkpt>
<trkpt lat="22.115314" lon="103.818939">
<ele>832.289551</ele>
<time>2011-04-25T09:34:45Z</time>
<desc>lat.=22.115314, lon.=103.818939, Alt.=832.289551m. Speed=0.000000m/h.</desc>
<speed>0.000000</speed>
</trkpt>
<trkpt lat="22.115313" lon="103.818939">
<ele>832.289551</ele>
<time>2011-04-25T09:34:50Z</time>
<desc>lat.=22.115313, lon.=103.818939, Alt.=832.289551m. Speed=0.108000m/h.</desc>
<speed>0.030000</speed>
</trkpt>
<trkpt lat="22.115313" lon="103.818939">
<ele>832.273926</ele>
<time>2011-04-25T09:34:55Z</time>
<desc>lat.=22.115313, lon.=103.818939, Alt.=832.273926m. Speed=0.144000m/h.</desc>
<speed>0.040000</speed>
</trkpt>
<trkpt lat="22.115313" lon="103.818939">
<ele>832.273926</ele>
<time>2011-04-25T09:35:00Z</time>
<desc>lat.=22.115313, lon.=103.818939, Alt.=832.273926m. Speed=0.108000m/h.</desc>
<speed>0.030000</speed>
</trkpt>
<trkpt lat="22.115311" lon="103.818939">
<ele>832.289551</ele>
<time>2011-04-25T09:35:05Z</time>
<desc>lat.=22.115311, lon.=103.818939, Alt.=832.289551m. Speed=0.144000m/h.</desc>
<speed>0.040000</speed>
</trkpt>
<trkpt lat="22.115311" lon="103.818939">
<ele>832.305176</ele>
<time>2011-04-25T09:35:10Z</time>
<desc>lat.=22.115311, lon.=103.818939, Alt.=832.305176m. Speed=0.072000m/h.</desc>
<speed>0.020000</speed>
</trkpt>
<trkpt lat="22.115311" lon="103.818939">
<ele>832.289551</ele>
<time>2011-04-25T09:35:15Z</time>
<desc>lat.=22.115311, lon.=103.818939, Alt.=832.289551m. Speed=0.108000m/h.</desc>
<speed>0.030000</speed>
</trkpt>
<trkpt lat="22.115309" lon="103.818939">
<ele>832.289551</ele>
<time>2011-04-25T09:35:20Z</time>
<desc>lat.=22.115309, lon.=103.818939, Alt.=832.289551m. Speed=0.000000m/h.</desc>
<speed>0.000000</speed>
</trkpt>
<trkpt lat="22.115309" lon="103.818939">
<ele>832.242676</ele>
<time>2011-04-25T09:35:25Z</time>
<desc>lat.=22.115309, lon.=103.818939, Alt.=832.242676m. Speed=0.072000m/h.</desc>
<speed>0.020000</speed>
</trkpt>
<trkpt lat="22.115309" lon="103.818939">
<ele>832.258301</ele>
<time>2011-04-25T09:35:30Z</time>
<desc>lat.=22.115309, lon.=103.818939, Alt.=832.258301m. Speed=0.108000m/h.</desc>
<speed>0.030000</speed>
</trkpt>
<trkpt lat="22.115309" lon="103.818939">
<ele>832.242676</ele>
<time>2011-04-25T09:35:35Z</time>
<desc>lat.=22.115309, lon.=103.818939, Alt.=832.242676m. Speed=0.000000m/h.</desc>
<speed>0.000000</speed>
</trkpt>
<trkpt lat="22.115309" lon="103.818939">
<ele>832.227051</ele>
<time>2011-04-25T09:35:40Z</time>
<desc>lat.=22.115309, lon.=103.818939, Alt.=832.227051m. Speed=0.036000m/h.</desc>
<speed>0.010000</speed>
</trkpt>
<trkpt lat="22.115307" lon="103.818939">
<ele>832.180176</ele>
<time>2011-04-25T09:35:45Z</time>
<desc>lat.=22.115307, lon.=103.818939, Alt.=832.180176m. Speed=0.036000m/h.</desc>
<speed>0.010000</speed>
</trkpt>
<trkpt lat="22.115307" lon="103.818939">
<ele>832.133301</ele>
<time>2011-04-25T09:35:50Z</time>
<desc>lat.=22.115307, lon.=103.818939, Alt.=832.133301m. Speed=0.072000m/h.</desc>
<speed>0.020000</speed>
</trkpt>
<trkpt lat="22.115307" lon="103.818939">
<ele>832.055176</ele>
<time>2011-04-25T09:35:55Z</time>
<desc>lat.=22.115307, lon.=103.818939, Alt.=832.055176m. Speed=0.108000m/h.</desc>
<speed>0.030000</speed>
</trkpt>
<trkpt lat="22.115307" lon="103.818939">
<ele>832.023926</ele>
<time>2011-04-25T09:36:00Z</time>
<desc>lat.=22.115307, lon.=103.818939, Alt.=832.023926m. Speed=0.036000m/h.</desc>
<speed>0.010000</speed>
</trkpt>
<trkpt lat="22.115307" lon="103.818947">
<ele>832.008301</ele>
<time>2011-04-25T09:36:05Z</time>
<desc>lat.=22.115307, lon.=103.818947, Alt.=832.008301m. Speed=0.000000m/h.</desc>
<speed>0.000000</speed>
</trkpt>
<trkpt lat="22.115305" lon="103.818947">
<ele>832.023926</ele>
<time>2011-04-25T09:36:10Z</time>
<desc>lat.=22.115305, lon.=103.818947, Alt.=832.023926m. Speed=0.000000m/h.</desc>
<speed>0.000000</speed>
</trkpt>
<trkpt lat="22.115305" lon="103.818939">
<ele>832.039551</ele>
<time>2011-04-25T09:36:15Z</time>
<desc>lat.=22.115305, lon.=103.818939, Alt.=832.039551m. Speed=0.072000m/h.</desc>
<speed>0.020000</speed>
</trkpt>
<trkpt lat="22.115305" lon="103.818939">
<ele>831.992676</ele>
<time>2011-04-25T09:36:20Z</time>
<desc>lat.=22.115305, lon.=103.818939, Alt.=831.992676m. Speed=0.108000m/h.</desc>
<speed>0.030000</speed>
</trkpt>
<trkpt lat="22.115305" lon="103.818947">
<ele>831.961426</ele>
<time>2011-04-25T09:36:25Z</time>
<desc>lat.=22.115305, lon.=103.818947, Alt.=831.961426m. Speed=0.000000m/h.</desc>
<speed>0.000000</speed>
</trkpt>
<trkpt lat="22.115305" lon="103.818947">
<ele>831.961426</ele>
<time>2011-04-25T09:36:30Z</time>
<desc>lat.=22.115305, lon.=103.818947, Alt.=831.961426m. Speed=0.072000m/h.</desc>
<speed>0.020000</speed>
</trkpt>
<trkpt lat="22.115305" lon="103.818947">
<ele>831.961426</ele>
<time>2011-04-25T09:36:35Z</time>
<desc>lat.=22.115305, lon.=103.818947, Alt.=831.961426m. Speed=0.072000m/h.</desc>
<speed>0.020000</speed>
</trkpt>
<trkpt lat="22.115305" lon="103.818947">
<ele>831.930176</ele>
<time>2011-04-25T09:36:40Z</time>
<desc>lat.=22.115305, lon.=103.818947, Alt.=831.930176m. Speed=0.036000m/h.</desc>
<speed>0.010000</speed>
</trkpt>
<trkpt lat="22.115305" lon="103.818947">
<ele>831.914551</ele>
<time>2011-04-25T09:36:45Z</time>
<desc>lat.=22.115305, lon.=103.818947, Alt.=831.914551m. Speed=0.072000m/h.</desc>
<speed>0.020000</speed>
</trkpt>
<trkpt lat="22.115305" lon="103.818947">
<ele>831.898926</ele>
<time>2011-04-25T09:36:50Z</time>
<desc>lat.=22.115305, lon.=103.818947, Alt.=831.898926m. Speed=0.072000m/h.</desc>
<speed>0.020000</speed>
</trkpt>
<trkpt lat="22.115305" lon="103.818947">
<ele>831.852051</ele>
<time>2011-04-25T09:36:55Z</time>
<desc>lat.=22.115305, lon.=103.818947, Alt.=831.852051m. Speed=0.036000m/h.</desc>
<speed>0.010000</speed>
</trkpt>
<trkpt lat="22.115303" lon="103.818947">
<ele>831.836426</ele>
<time>2011-04-25T09:37:00Z</time>
<desc>lat.=22.115303, lon.=103.818947, Alt.=831.836426m. Speed=0.036000m/h.</desc>
<speed>0.010000</speed>
</trkpt>
<trkpt lat="22.115303" lon="103.818947">
<ele>831.836426</ele>
<time>2011-04-25T09:37:05Z</time>
<desc>lat.=22.115303, lon.=103.818947, Alt.=831.836426m. Speed=0.072000m/h.</desc>
<speed>0.020000</speed>
</trkpt>
<trkpt lat="22.115303" lon="103.818947">
<ele>831.852051</ele>
<time>2011-04-25T09:37:10Z</time>
<desc>lat.=22.115303, lon.=103.818947, Alt.=831.852051m. Speed=0.000000m/h.</desc>
<speed>0.000000</speed>
</trkpt>
<trkpt lat="22.115303" lon="103.818947">
<ele>831.852051</ele>
<time>2011-04-25T09:37:15Z</time>
<desc>lat.=22.115303, lon.=103.818947, Alt.=831.852051m. Speed=0.072000m/h.</desc>
<speed>0.020000</speed>
</trkpt>
<trkpt lat="22.115303" lon="103.818947">
<ele>831.820801</ele>
<time>2011-04-25T09:37:20Z</time>
<desc>lat.=22.115303, lon.=103.818947, Alt.=831.820801m. Speed=0.000000m/h.</desc>
<speed>0.000000</speed>
</trkpt>
<trkpt lat="22.115303" lon="103.818947">
<ele>831.805176</ele>
<time>2011-04-25T09:37:25Z</time>
<desc>lat.=22.115303, lon.=103.818947, Alt.=831.805176m. Speed=0.108000m/h.</desc>
<speed>0.030000</speed>
</trkpt>
<trkpt lat="22.115303" lon="103.818947">
<ele>831.773926</ele>
<time>2011-04-25T09:37:30Z</time>
<desc>lat.=22.115303, lon.=103.818947, Alt.=831.773926m. Speed=0.036000m/h.</desc>
<speed>0.010000</speed>
</trkpt>
<trkpt lat="22.115301" lon="103.818947">
<ele>831.742676</ele>
<time>2011-04-25T09:37:35Z</time>
<desc>lat.=22.115301, lon.=103.818947, Alt.=831.742676m. Speed=0.180000m/h.</desc>
<speed>0.050000</speed>
</trkpt>
<trkpt lat="22.115301" lon="103.818947">
<ele>831.727051</ele>
<time>2011-04-25T09:37:40Z</time>
<desc>lat.=22.115301, lon.=103.818947, Alt.=831.727051m. Speed=0.036000m/h.</desc>
<speed>0.010000</speed>
</trkpt>
<trkpt lat="22.115301" lon="103.818947">
<ele>831.742676</ele>
<time>2011-04-25T09:37:45Z</time>
<desc>lat.=22.115301, lon.=103.818947, Alt.=831.742676m. Speed=0.072000m/h.</desc>
<speed>0.020000</speed>
</trkpt>
<trkpt lat="22.115301" lon="103.818947">
<ele>831.742676</ele>
<time>2011-04-25T09:37:50Z</time>
<desc>lat.=22.115301, lon.=103.818947, Alt.=831.742676m. Speed=0.036000m/h.</desc>
<speed>0.010000</speed>
</trkpt>
<trkpt lat="22.115301" lon="103.818947">
<ele>831.727051</ele>
<time>2011-04-25T09:37:55Z</time>
<desc>lat.=22.115301, lon.=103.818947, Alt.=831.727051m. Speed=0.036000m/h.</desc>
<speed>0.010000</speed>
</trkpt>
<trkpt lat="22.115301" lon="103.818947">
<ele>831.711426</ele>
<time>2011-04-25T09:38:00Z</time>
<desc>lat.=22.115301, lon.=103.818947, Alt.=831.711426m. Speed=0.072000m/h.</desc>
<speed>0.020000</speed>
</trkpt>
<trkpt lat="22.115299" lon="103.818947">
<ele>831.648926</ele>
<time>2011-04-25T09:38:05Z</time>
<desc>lat.=22.115299, lon.=103.818947, Alt.=831.648926m. Speed=0.036000m/h.</desc>
<speed>0.010000</speed>
</trkpt>
<trkpt lat="22.115299" lon="103.818939">
<ele>831.633301</ele>
<time>2011-04-25T09:38:10Z</time>
<desc>lat.=22.115299, lon.=103.818939, Alt.=831.633301m. Speed=0.036000m/h.</desc>
<speed>0.010000</speed>
</trkpt>
<trkpt lat="22.115299" lon="103.818947">
<ele>831.602051</ele>
<time>2011-04-25T09:38:15Z</time>
<desc>lat.=22.115299, lon.=103.818947, Alt.=831.602051m. Speed=0.072000m/h.</desc>
<speed>0.020000</speed>
</trkpt>
<trkpt lat="22.115299" lon="103.818947">
<ele>831.586426</ele>
<time>2011-04-25T09:38:20Z</time>
<desc>lat.=22.115299, lon.=103.818947, Alt.=831.586426m. Speed=0.036000m/h.</desc>
<speed>0.010000</speed>
</trkpt>
<trkpt lat="22.115299" lon="103.818939">
<ele>831.570801</ele>
<time>2011-04-25T09:38:25Z</time>
<desc>lat.=22.115299, lon.=103.818939, Alt.=831.570801m. Speed=0.108000m/h.</desc>
<speed>0.030000</speed>
</trkpt>
<trkpt lat="22.115299" lon="103.818939">
<ele>831.570801</ele>
<time>2011-04-25T09:38:30Z</time>
<desc>lat.=22.115299, lon.=103.818939, Alt.=831.570801m. Speed=0.000000m/h.</desc>
<speed>0.000000</speed>
</trkpt>
<trkpt lat="22.115299" lon="103.818939">
<ele>831.555176</ele>
<time>2011-04-25T09:38:35Z</time>
<desc>lat.=22.115299, lon.=103.818939, Alt.=831.555176m. Speed=0.000000m/h.</desc>
<speed>0.000000</speed>
</trkpt>
<trkpt lat="22.115297" lon="103.818939">
<ele>831.539551</ele>
<time>2011-04-25T09:38:40Z</time>
<desc>lat.=22.115297, lon.=103.818939, Alt.=831.539551m. Speed=0.036000m/h.</desc>
<speed>0.010000</speed>
</trkpt>
<trkpt lat="22.115297" lon="103.818939">
<ele>831.508301</ele>
<time>2011-04-25T09:38:45Z</time>
<desc>lat.=22.115297, lon.=103.818939, Alt.=831.508301m. Speed=0.036000m/h.</desc>
<speed>0.010000</speed>
</trkpt>
<trkpt lat="22.115297" lon="103.818939">
<ele>831.492676</ele>
<time>2011-04-25T09:38:50Z</time>
<desc>lat.=22.115297, lon.=103.818939, Alt.=831.492676m. Speed=0.036000m/h.</desc>
<speed>0.010000</speed>
</trkpt>
<trkpt lat="22.115297" lon="103.818939">
<ele>831.492676</ele>
<time>2011-04-25T09:38:55Z</time>
<desc>lat.=22.115297, lon.=103.818939, Alt.=831.492676m. Speed=0.000000m/h.</desc>
<speed>0.000000</speed>
</trkpt>
<trkpt lat="22.115297" lon="103.818939">
<ele>831.492676</ele>
<time>2011-04-25T09:39:00Z</time>
<desc>lat.=22.115297, lon.=103.818939, Alt.=831.492676m. Speed=0.036000m/h.</desc>
<speed>0.010000</speed>
</trkpt>
<trkpt lat="22.115297" lon="103.818939">
<ele>831.477051</ele>
<time>2011-04-25T09:39:05Z</time>
<desc>lat.=22.115297, lon.=103.818939, Alt.=831.477051m. Speed=0.000000m/h.</desc>
<speed>0.000000</speed>
</trkpt>
<trkpt lat="22.115297" lon="103.818939">
<ele>831.477051</ele>
<time>2011-04-25T09:39:10Z</time>
<desc>lat.=22.115297, lon.=103.818939, Alt.=831.477051m. Speed=0.000000m/h.</desc>
<speed>0.000000</speed>
</trkpt>
<trkpt lat="22.115297" lon="103.818939">
<ele>831.461426</ele>
<time>2011-04-25T09:39:15Z</time>
<desc>lat.=22.115297, lon.=103.818939, Alt.=831.461426m. Speed=0.036000m/h.</desc>
<speed>0.010000</speed>
</trkpt>
<trkpt lat="22.115297" lon="103.818939">
<ele>831.445801</ele>
<time>2011-04-25T09:39:20Z</time>
<desc>lat.=22.115297, lon.=103.818939, Alt.=831.445801m. Speed=0.000000m/h.</desc>
<speed>0.000000</speed>
</trkpt>
<trkpt lat="22.115297" lon="103.818939">
<ele>831.445801</ele>
<time>2011-04-25T09:39:25Z</time>
<desc>lat.=22.115297, lon.=103.818939, Alt.=831.445801m. Speed=0.036000m/h.</desc>
<speed>0.010000</speed>
</trkpt>
<trkpt lat="22.115297" lon="103.818939">
<ele>831.430176</ele>
<time>2011-04-25T09:39:30Z</time>
<desc>lat.=22.115297, lon.=103.818939, Alt.=831.430176m. Speed=0.036000m/h.</desc>
<speed>0.010000</speed>
</trkpt>
<trkpt lat="22.115297" lon="103.818939">
<ele>831.398926</ele>
<time>2011-04-25T09:39:35Z</time>
<desc>lat.=22.115297, lon.=103.818939, Alt.=831.398926m. Speed=0.036000m/h.</desc>
<speed>0.010000</speed>
</trkpt>
<trkpt lat="22.115297" lon="103.818939">
<ele>831.383301</ele>
<time>2011-04-25T09:39:40Z</time>
<desc>lat.=22.115297, lon.=103.818939, Alt.=831.383301m. Speed=0.036000m/h.</desc>
<speed>0.010000</speed>
</trkpt>
<trkpt lat="22.115297" lon="103.818939">
<ele>831.383301</ele>
<time>2011-04-25T09:39:45Z</time>
<desc>lat.=22.115297, lon.=103.818939, Alt.=831.383301m. Speed=0.036000m/h.</desc>
<speed>0.010000</speed>
</trkpt>
<trkpt lat="22.115295" lon="103.818939">
<ele>831.352051</ele>
<time>2011-04-25T09:39:50Z</time>
<desc>lat.=22.115295, lon.=103.818939, Alt.=831.352051m. Speed=0.036000m/h.</desc>
<speed>0.010000</speed>
</trkpt>
<trkpt lat="22.115295" lon="103.818939">
<ele>831.336426</ele>
<time>2011-04-25T09:39:55Z</time>
<desc>lat.=22.115295, lon.=103.818939, Alt.=831.336426m. Speed=0.000000m/h.</desc>
<speed>0.000000</speed>
</trkpt>
<trkpt lat="22.115295" lon="103.818939">
<ele>831.336426</ele>
<time>2011-04-25T09:40:00Z</time>
<desc>lat.=22.115295, lon.=103.818939, Alt.=831.336426m. Speed=0.036000m/h.</desc>
<speed>0.010000</speed>
</trkpt>
<trkpt lat="22.115295" lon="103.818939">
<ele>831.305176</ele>
<time>2011-04-25T09:40:05Z</time>
<desc>lat.=22.115295, lon.=103.818939, Alt.=831.305176m. Speed=0.000000m/h.</desc>
<speed>0.000000</speed>
</trkpt>
<trkpt lat="22.115295" lon="103.818939">
<ele>831.289551</ele>
<time>2011-04-25T09:40:10Z</time>
<desc>lat.=22.115295, lon.=103.818939, Alt.=831.289551m. Speed=0.036000m/h.</desc>
<speed>0.010000</speed>
</trkpt>
<trkpt lat="22.115295" lon="103.818939">
<ele>831.273926</ele>
<time>2011-04-25T09:40:15Z</time>
<desc>lat.=22.115295, lon.=103.818939, Alt.=831.273926m. Speed=0.036000m/h.</desc>
<speed>0.010000</speed>
</trkpt>
<trkpt lat="22.115295" lon="103.818939">
<ele>831.242676</ele>
<time>2011-04-25T09:40:20Z</time>
<desc>lat.=22.115295, lon.=103.818939, Alt.=831.242676m. Speed=0.000000m/h.</desc>
<speed>0.000000</speed>
</trkpt>
<trkpt lat="22.115295" lon="103.818939">
<ele>831.211426</ele>
<time>2011-04-25T09:40:25Z</time>
<desc>lat.=22.115295, lon.=103.818939, Alt.=831.211426m. Speed=0.072000m/h.</desc>
<speed>0.020000</speed>
</trkpt>
<trkpt lat="22.115294" lon="103.818939">
<ele>831.195801</ele>
<time>2011-04-25T09:40:30Z</time>
<desc>lat.=22.115294, lon.=103.818939, Alt.=831.195801m. Speed=0.108000m/h.</desc>
<speed>0.030000</speed>
</trkpt>
<trkpt lat="22.115294" lon="103.818939">
<ele>831.180176</ele>
<time>2011-04-25T09:40:35Z</time>
<desc>lat.=22.115294, lon.=103.818939, Alt.=831.180176m. Speed=0.072000m/h.</desc>
<speed>0.020000</speed>
</trkpt>
<trkpt lat="22.115294" lon="103.818939">
<ele>831.180176</ele>
<time>2011-04-25T09:40:40Z</time>
<desc>lat.=22.115294, lon.=103.818939, Alt.=831.180176m. Speed=0.036000m/h.</desc>
<speed>0.010000</speed>
</trkpt>
<trkpt lat="22.115294" lon="103.818939">
<ele>831.180176</ele>
<time>2011-04-25T09:40:45Z</time>
<desc>lat.=22.115294, lon.=103.818939, Alt.=831.180176m. Speed=0.036000m/h.</desc>
<speed>0.010000</speed>
</trkpt>
<trkpt lat="22.115294" lon="103.818939">
<ele>831.148926</ele>
<time>2011-04-25T09:40:50Z</time>
<desc>lat.=22.115294, lon.=103.818939, Alt.=831.148926m. Speed=0.036000m/h.</desc>
<speed>0.010000</speed>
</trkpt>
<trkpt lat="22.115294" lon="103.818939">
<ele>831.148926</ele>
<time>2011-04-25T09:40:55Z</time>
<desc>lat.=22.115294, lon.=103.818939, Alt.=831.148926m. Speed=0.000000m/h.</desc>
<speed>0.000000</speed>
</trkpt>
<trkpt lat="22.115294" lon="103.818939">
<ele>831.133301</ele>
<time>2011-04-25T09:41:00Z</time>
<desc>lat.=22.115294, lon.=103.818939, Alt.=831.133301m. Speed=0.036000m/h.</desc>
<speed>0.010000</speed>
</trkpt>
<trkpt lat="22.115294" lon="103.818939">
<ele>831.148926</ele>
<time>2011-04-25T09:41:05Z</time>
<desc>lat.=22.115294, lon.=103.818939, Alt.=831.148926m. Speed=0.036000m/h.</desc>
<speed>0.010000</speed>
</trkpt>
<trkpt lat="22.115294" lon="103.818939">
<ele>831.133301</ele>
<time>2011-04-25T09:41:10Z</time>
<desc>lat.=22.115294, lon.=103.818939, Alt.=831.133301m. Speed=0.036000m/h.</desc>
<speed>0.010000</speed>
</trkpt>
<trkpt lat="22.115294" lon="103.818939">
<ele>831.117676</ele>
<time>2011-04-25T09:41:15Z</time>
<desc>lat.=22.115294, lon.=103.818939, Alt.=831.117676m. Speed=0.072000m/h.</desc>
<speed>0.020000</speed>
</trkpt>
<trkpt lat="22.115294" lon="103.818939">
<ele>831.070801</ele>
<time>2011-04-25T09:41:20Z</time>
<desc>lat.=22.115294, lon.=103.818939, Alt.=831.070801m. Speed=0.036000m/h.</desc>
<speed>0.010000</speed>
</trkpt>
<trkpt lat="22.115292" lon="103.818939">
<ele>831.039551</ele>
<time>2011-04-25T09:41:25Z</time>
<desc>lat.=22.115292, lon.=103.818939, Alt.=831.039551m. Speed=0.036000m/h.</desc>
<speed>0.010000</speed>
</trkpt>
<trkpt lat="22.115292" lon="103.818939">
<ele>831.023926</ele>
<time>2011-04-25T09:41:30Z</time>
<desc>lat.=22.115292, lon.=103.818939, Alt.=831.023926m. Speed=0.108000m/h.</desc>
<speed>0.030000</speed>
</trkpt>
<trkpt lat="22.115292" lon="103.818939">
<ele>831.023926</ele>
<time>2011-04-25T09:41:35Z</time>
<desc>lat.=22.115292, lon.=103.818939, Alt.=831.023926m. Speed=0.072000m/h.</desc>
<speed>0.020000</speed>
</trkpt>
<trkpt lat="22.115292" lon="103.818939">
<ele>831.023926</ele>
<time>2011-04-25T09:41:40Z</time>
<desc>lat.=22.115292, lon.=103.818939, Alt.=831.023926m. Speed=0.000000m/h.</desc>
<speed>0.000000</speed>
</trkpt>
<trkpt lat="22.115292" lon="103.818939">
<ele>831.023926</ele>
<time>2011-04-25T09:41:45Z</time>
<desc>lat.=22.115292, lon.=103.818939, Alt.=831.023926m. Speed=0.036000m/h.</desc>
<speed>0.010000</speed>
</trkpt>
<trkpt lat="22.115292" lon="103.818939">
<ele>830.992676</ele>
<time>2011-04-25T09:41:50Z</time>
<desc>lat.=22.115292, lon.=103.818939, Alt.=830.992676m. Speed=0.036000m/h.</desc>
<speed>0.010000</speed>
</trkpt>
<trkpt lat="22.115292" lon="103.818939">
<ele>830.945801</ele>
<time>2011-04-25T09:41:55Z</time>
<desc>lat.=22.115292, lon.=103.818939, Alt.=830.945801m. Speed=0.036000m/h.</desc>
<speed>0.010000</speed>
</trkpt>
<trkpt lat="22.115292" lon="103.818939">
<ele>830.930176</ele>
<time>2011-04-25T09:42:00Z</time>
<desc>lat.=22.115292, lon.=103.818939, Alt.=830.930176m. Speed=0.036000m/h.</desc>
<speed>0.010000</speed>
</trkpt>
<trkpt lat="22.115292" lon="103.818939">
<ele>830.930176</ele>
<time>2011-04-25T09:42:05Z</time>
<desc>lat.=22.115292, lon.=103.818939, Alt.=830.930176m. Speed=0.036000m/h.</desc>
<speed>0.010000</speed>
</trkpt>
<trkpt lat="22.115290" lon="103.818939">
<ele>830.898926</ele>
<time>2011-04-25T09:42:10Z</time>
<desc>lat.=22.115290, lon.=103.818939, Alt.=830.898926m. Speed=0.108000m/h.</desc>
<speed>0.030000</speed>
</trkpt>
<trkpt lat="22.115290" lon="103.818939">
<ele>830.898926</ele>
<time>2011-04-25T09:42:15Z</time>
<desc>lat.=22.115290, lon.=103.818939, Alt.=830.898926m. Speed=0.072000m/h.</desc>
<speed>0.020000</speed>
</trkpt>
<trkpt lat="22.115290" lon="103.818939">
<ele>830.883301</ele>
<time>2011-04-25T09:42:20Z</time>
<desc>lat.=22.115290, lon.=103.818939, Alt.=830.883301m. Speed=0.036000m/h.</desc>
<speed>0.010000</speed>
</trkpt>
<trkpt lat="22.115290" lon="103.818939">
<ele>830.883301</ele>
<time>2011-04-25T09:42:25Z</time>
<desc>lat.=22.115290, lon.=103.818939, Alt.=830.883301m. Speed=0.000000m/h.</desc>
<speed>0.000000</speed>
</trkpt>
<trkpt lat="22.115290" lon="103.818939">
<ele>830.883301</ele>
<time>2011-04-25T09:42:30Z</time>
<desc>lat.=22.115290, lon.=103.818939, Alt.=830.883301m. Speed=0.000000m/h.</desc>
<speed>0.000000</speed>
</trkpt>
<trkpt lat="22.115290" lon="103.818939">
<ele>830.867676</ele>
<time>2011-04-25T09:42:35Z</time>
<desc>lat.=22.115290, lon.=103.818939, Alt.=830.867676m. Speed=0.000000m/h.</desc>
<speed>0.000000</speed>
</trkpt>
<trkpt lat="22.115290" lon="103.818939">
<ele>830.867676</ele>
<time>2011-04-25T09:42:40Z</time>
<desc>lat.=22.115290, lon.=103.818939, Alt.=830.867676m. Speed=0.036000m/h.</desc>
<speed>0.010000</speed>
</trkpt>
<trkpt lat="22.115290" lon="103.818939">
<ele>830.852051</ele>
<time>2011-04-25T09:42:45Z</time>
<desc>lat.=22.115290, lon.=103.818939, Alt.=830.852051m. Speed=0.108000m/h.</desc>
<speed>0.030000</speed>
</trkpt>
<trkpt lat="22.115290" lon="103.818939">
<ele>830.820801</ele>
<time>2011-04-25T09:42:50Z</time>
<desc>lat.=22.115290, lon.=103.818939, Alt.=830.820801m. Speed=0.000000m/h.</desc>
<speed>0.000000</speed>
</trkpt>
<trkpt lat="22.115290" lon="103.818939">
<ele>830.805176</ele>
<time>2011-04-25T09:42:55Z</time>
<desc>lat.=22.115290, lon.=103.818939, Alt.=830.805176m. Speed=0.036000m/h.</desc>
<speed>0.010000</speed>
</trkpt>
<trkpt lat="22.115290" lon="103.818939">
<ele>830.789551</ele>
<time>2011-04-25T09:43:00Z</time>
<desc>lat.=22.115290, lon.=103.818939, Alt.=830.789551m. Speed=0.108000m/h.</desc>
<speed>0.030000</speed>
</trkpt>
<trkpt lat="22.115290" lon="103.818939">
<ele>830.789551</ele>
<time>2011-04-25T09:43:05Z</time>
<desc>lat.=22.115290, lon.=103.818939, Alt.=830.789551m. Speed=0.036000m/h.</desc>
<speed>0.010000</speed>
</trkpt>
<trkpt lat="22.115290" lon="103.818939">
<ele>830.758301</ele>
<time>2011-04-25T09:43:10Z</time>
<desc>lat.=22.115290, lon.=103.818939, Alt.=830.758301m. Speed=0.000000m/h.</desc>
<speed>0.000000</speed>
</trkpt>
<trkpt lat="22.115288" lon="103.818939">
<ele>830.742676</ele>
<time>2011-04-25T09:43:15Z</time>
<desc>lat.=22.115288, lon.=103.818939, Alt.=830.742676m. Speed=0.072000m/h.</desc>
<speed>0.020000</speed>
</trkpt>
<trkpt lat="22.115288" lon="103.818939">
<ele>830.727051</ele>
<time>2011-04-25T09:43:20Z</time>
<desc>lat.=22.115288, lon.=103.818939, Alt.=830.727051m. Speed=0.000000m/h.</desc>
<speed>0.000000</speed>
</trkpt>
<trkpt lat="22.115288" lon="103.818939">
<ele>830.711426</ele>
<time>2011-04-25T09:43:25Z</time>
<desc>lat.=22.115288, lon.=103.818939, Alt.=830.711426m. Speed=0.036000m/h.</desc>
<speed>0.010000</speed>
</trkpt>
<trkpt lat="22.115288" lon="103.818939">
<ele>830.711426</ele>
<time>2011-04-25T09:43:30Z</time>
<desc>lat.=22.115288, lon.=103.818939, Alt.=830.711426m. Speed=0.108000m/h.</desc>
<speed>0.030000</speed>
</trkpt>
<trkpt lat="22.115288" lon="103.818939">
<ele>830.711426</ele>
<time>2011-04-25T09:43:35Z</time>
<desc>lat.=22.115288, lon.=103.818939, Alt.=830.711426m. Speed=0.000000m/h.</desc>
<speed>0.000000</speed>
</trkpt>
<trkpt lat="22.115288" lon="103.818939">
<ele>830.664551</ele>
<time>2011-04-25T09:43:40Z</time>
<desc>lat.=22.115288, lon.=103.818939, Alt.=830.664551m. Speed=0.108000m/h.</desc>
<speed>0.030000</speed>
</trkpt>
<trkpt lat="22.115288" lon="103.818939">
<ele>830.633301</ele>
<time>2011-04-25T09:43:45Z</time>
<desc>lat.=22.115288, lon.=103.818939, Alt.=830.633301m. Speed=0.072000m/h.</desc>
<speed>0.020000</speed>
</trkpt>
<trkpt lat="22.115288" lon="103.818939">
<ele>830.633301</ele>
<time>2011-04-25T09:43:50Z</time>
<desc>lat.=22.115288, lon.=103.818939, Alt.=830.633301m. Speed=0.036000m/h.</desc>
<speed>0.010000</speed>
</trkpt>
<trkpt lat="22.115288" lon="103.818939">
<ele>830.617676</ele>
<time>2011-04-25T09:43:55Z</time>
<desc>lat.=22.115288, lon.=103.818939, Alt.=830.617676m. Speed=0.036000m/h.</desc>
<speed>0.010000</speed>
</trkpt>
<trkpt lat="22.115288" lon="103.818939">
<ele>830.602051</ele>
<time>2011-04-25T09:44:00Z</time>
<desc>lat.=22.115288, lon.=103.818939, Alt.=830.602051m. Speed=0.000000m/h.</desc>
<speed>0.000000</speed>
</trkpt>
<trkpt lat="22.115288" lon="103.818939">
<ele>830.586426</ele>
<time>2011-04-25T09:44:05Z</time>
<desc>lat.=22.115288, lon.=103.818939, Alt.=830.586426m. Speed=0.000000m/h.</desc>
<speed>0.000000</speed>
</trkpt>
<trkpt lat="22.115286" lon="103.818939">
<ele>830.539551</ele>
<time>2011-04-25T09:44:10Z</time>
<desc>lat.=22.115286, lon.=103.818939, Alt.=830.539551m. Speed=0.036000m/h.</desc>
<speed>0.010000</speed>
</trkpt>
<trkpt lat="22.115286" lon="103.818939">
<ele>830.508301</ele>
<time>2011-04-25T09:44:15Z</time>
<desc>lat.=22.115286, lon.=103.818939, Alt.=830.508301m. Speed=0.000000m/h.</desc>
<speed>0.000000</speed>
</trkpt>
<trkpt lat="22.115286" lon="103.818939">
<ele>830.461426</ele>
<time>2011-04-25T09:44:20Z</time>
<desc>lat.=22.115286, lon.=103.818939, Alt.=830.461426m. Speed=0.036000m/h.</desc>
<speed>0.010000</speed>
</trkpt>
<trkpt lat="22.115286" lon="103.818939">
<ele>830.445801</ele>
<time>2011-04-25T09:44:25Z</time>
<desc>lat.=22.115286, lon.=103.818939, Alt.=830.445801m. Speed=0.000000m/h.</desc>
<speed>0.000000</speed>
</trkpt>
<trkpt lat="22.115286" lon="103.818939">
<ele>830.445801</ele>
<time>2011-04-25T09:44:30Z</time>
<desc>lat.=22.115286, lon.=103.818939, Alt.=830.445801m. Speed=0.036000m/h.</desc>
<speed>0.010000</speed>
</trkpt>
<trkpt lat="22.115286" lon="103.818939">
<ele>830.414551</ele>
<time>2011-04-25T09:44:35Z</time>
<desc>lat.=22.115286, lon.=103.818939, Alt.=830.414551m. Speed=0.072000m/h.</desc>
<speed>0.020000</speed>
</trkpt>
<trkpt lat="22.115286" lon="103.818939">
<ele>830.383301</ele>
<time>2011-04-25T09:44:40Z</time>
<desc>lat.=22.115286, lon.=103.818939, Alt.=830.383301m. Speed=0.072000m/h.</desc>
<speed>0.020000</speed>
</trkpt>
<trkpt lat="22.115286" lon="103.818939">
<ele>830.352051</ele>
<time>2011-04-25T09:44:45Z</time>
<desc>lat.=22.115286, lon.=103.818939, Alt.=830.352051m. Speed=0.036000m/h.</desc>
<speed>0.010000</speed>
</trkpt>
<trkpt lat="22.115284" lon="103.818939">
<ele>830.336426</ele>
<time>2011-04-25T09:44:50Z</time>
<desc>lat.=22.115284, lon.=103.818939, Alt.=830.336426m. Speed=0.108000m/h.</desc>
<speed>0.030000</speed>
</trkpt>
<trkpt lat="22.115284" lon="103.818939">
<ele>830.305176</ele>
<time>2011-04-25T09:44:55Z</time>
<desc>lat.=22.115284, lon.=103.818939, Alt.=830.305176m. Speed=0.000000m/h.</desc>
<speed>0.000000</speed>
</trkpt>
<trkpt lat="22.115284" lon="103.818939">
<ele>830.289551</ele>
<time>2011-04-25T09:45:00Z</time>
<desc>lat.=22.115284, lon.=103.818939, Alt.=830.289551m. Speed=0.000000m/h.</desc>
<speed>0.000000</speed>
</trkpt>
<trkpt lat="22.115284" lon="103.818939">
<ele>830.273926</ele>
<time>2011-04-25T09:45:05Z</time>
<desc>lat.=22.115284, lon.=103.818939, Alt.=830.273926m. Speed=0.036000m/h.</desc>
<speed>0.010000</speed>
</trkpt>
<trkpt lat="22.115284" lon="103.818939">
<ele>830.242676</ele>
<time>2011-04-25T09:45:10Z</time>
<desc>lat.=22.115284, lon.=103.818939, Alt.=830.242676m. Speed=0.000000m/h.</desc>
<speed>0.000000</speed>
</trkpt>
<trkpt lat="22.115284" lon="103.818939">
<ele>830.195801</ele>
<time>2011-04-25T09:45:15Z</time>
<desc>lat.=22.115284, lon.=103.818939, Alt.=830.195801m. Speed=0.036000m/h.</desc>
<speed>0.010000</speed>
</trkpt>
<trkpt lat="22.115284" lon="103.818939">
<ele>830.180176</ele>
<time>2011-04-25T09:45:20Z</time>
<desc>lat.=22.115284, lon.=103.818939, Alt.=830.180176m. Speed=0.036000m/h.</desc>
<speed>0.010000</speed>
</trkpt>
<trkpt lat="22.115284" lon="103.818939">
<ele>830.148926</ele>
<time>2011-04-25T09:45:25Z</time>
<desc>lat.=22.115284, lon.=103.818939, Alt.=830.148926m. Speed=0.036000m/h.</desc>
<speed>0.010000</speed>
</trkpt>
<trkpt lat="22.115284" lon="103.818939">
<ele>830.133301</ele>
<time>2011-04-25T09:45:30Z</time>
<desc>lat.=22.115284, lon.=103.818939, Alt.=830.133301m. Speed=0.000000m/h.</desc>
<speed>0.000000</speed>
</trkpt>
<trkpt lat="22.115284" lon="103.818939">
<ele>830.102051</ele>
<time>2011-04-25T09:45:35Z</time>
<desc>lat.=22.115284, lon.=103.818939, Alt.=830.102051m. Speed=0.036000m/h.</desc>
<speed>0.010000</speed>
</trkpt>
<trkpt lat="22.115282" lon="103.818932">
<ele>830.055176</ele>
<time>2011-04-25T09:45:40Z</time>
<desc>lat.=22.115282, lon.=103.818932, Alt.=830.055176m. Speed=0.072000m/h.</desc>
<speed>0.020000</speed>
</trkpt>
<trkpt lat="22.115282" lon="103.818932">
<ele>830.039551</ele>
<time>2011-04-25T09:45:45Z</time>
<desc>lat.=22.115282, lon.=103.818932, Alt.=830.039551m. Speed=0.036000m/h.</desc>
<speed>0.010000</speed>
</trkpt>
<trkpt lat="22.115282" lon="103.818932">
<ele>830.023926</ele>
<time>2011-04-25T09:45:50Z</time>
<desc>lat.=22.115282, lon.=103.818932, Alt.=830.023926m. Speed=0.036000m/h.</desc>
<speed>0.010000</speed>
</trkpt>
<trkpt lat="22.115282" lon="103.818932">
<ele>830.023926</ele>
<time>2011-04-25T09:45:55Z</time>
<desc>lat.=22.115282, lon.=103.818932, Alt.=830.023926m. Speed=0.000000m/h.</desc>
<speed>0.000000</speed>
</trkpt>
<trkpt lat="22.115282" lon="103.818932">
<ele>829.992676</ele>
<time>2011-04-25T09:46:00Z</time>
<desc>lat.=22.115282, lon.=103.818932, Alt.=829.992676m. Speed=0.000000m/h.</desc>
<speed>0.000000</speed>
</trkpt>
<trkpt lat="22.115282" lon="103.818932">
<ele>829.977051</ele>
<time>2011-04-25T09:46:05Z</time>
<desc>lat.=22.115282, lon.=103.818932, Alt.=829.977051m. Speed=0.036000m/h.</desc>
<speed>0.010000</speed>
</trkpt>
<trkpt lat="22.115282" lon="103.818932">
<ele>829.930176</ele>
<time>2011-04-25T09:46:10Z</time>
<desc>lat.=22.115282, lon.=103.818932, Alt.=829.930176m. Speed=0.036000m/h.</desc>
<speed>0.010000</speed>
</trkpt>
<trkpt lat="22.115282" lon="103.818932">
<ele>829.898926</ele>
<time>2011-04-25T09:46:15Z</time>
<desc>lat.=22.115282, lon.=103.818932, Alt.=829.898926m. Speed=0.000000m/h.</desc>
<speed>0.000000</speed>
</trkpt>
<trkpt lat="22.115282" lon="103.818939">
<ele>829.867676</ele>
<time>2011-04-25T09:46:20Z</time>
<desc>lat.=22.115282, lon.=103.818939, Alt.=829.867676m. Speed=0.000000m/h.</desc>
<speed>0.000000</speed>
</trkpt>
<trkpt lat="22.115282" lon="103.818939">
<ele>829.836426</ele>
<time>2011-04-25T09:46:25Z</time>
<desc>lat.=22.115282, lon.=103.818939, Alt.=829.836426m. Speed=0.000000m/h.</desc>
<speed>0.000000</speed>
</trkpt>
<trkpt lat="22.115282" lon="103.818939">
<ele>829.805176</ele>
<time>2011-04-25T09:46:30Z</time>
<desc>lat.=22.115282, lon.=103.818939, Alt.=829.805176m. Speed=0.000000m/h.</desc>
<speed>0.000000</speed>
</trkpt>
<trkpt lat="22.115282" lon="103.818939">
<ele>829.773926</ele>
<time>2011-04-25T09:46:35Z</time>
<desc>lat.=22.115282, lon.=103.818939, Alt.=829.773926m. Speed=0.000000m/h.</desc>
<speed>0.000000</speed>
</trkpt>
<trkpt lat="22.115280" lon="103.818939">
<ele>829.727051</ele>
<time>2011-04-25T09:46:40Z</time>
<desc>lat.=22.115280, lon.=103.818939, Alt.=829.727051m. Speed=0.036000m/h.</desc>
<speed>0.010000</speed>
</trkpt>
<trkpt lat="22.115280" lon="103.818939">
<ele>829.680176</ele>
<time>2011-04-25T09:46:45Z</time>
<desc>lat.=22.115280, lon.=103.818939, Alt.=829.680176m. Speed=0.036000m/h.</desc>
<speed>0.010000</speed>
</trkpt>
<trkpt lat="22.115280" lon="103.818939">
<ele>829.664551</ele>
<time>2011-04-25T09:46:50Z</time>
<desc>lat.=22.115280, lon.=103.818939, Alt.=829.664551m. Speed=0.036000m/h.</desc>
<speed>0.010000</speed>
</trkpt>
<trkpt lat="22.115280" lon="103.818939">
<ele>829.633301</ele>
<time>2011-04-25T09:46:55Z</time>
<desc>lat.=22.115280, lon.=103.818939, Alt.=829.633301m. Speed=0.000000m/h.</desc>
<speed>0.000000</speed>
</trkpt>
<trkpt lat="22.115280" lon="103.818939">
<ele>829.602051</ele>
<time>2011-04-25T09:47:00Z</time>
<desc>lat.=22.115280, lon.=103.818939, Alt.=829.602051m. Speed=0.072000m/h.</desc>
<speed>0.020000</speed>
</trkpt>
<trkpt lat="22.115280" lon="103.818939">
<ele>829.555176</ele>
<time>2011-04-25T09:47:05Z</time>
<desc>lat.=22.115280, lon.=103.818939, Alt.=829.555176m. Speed=0.036000m/h.</desc>
<speed>0.010000</speed>
</trkpt>
<trkpt lat="22.115280" lon="103.818939">
<ele>829.523926</ele>
<time>2011-04-25T09:47:10Z</time>
<desc>lat.=22.115280, lon.=103.818939, Alt.=829.523926m. Speed=0.000000m/h.</desc>
<speed>0.000000</speed>
</trkpt>
<trkpt lat="22.115280" lon="103.818939">
<ele>829.492676</ele>
<time>2011-04-25T09:47:15Z</time>
<desc>lat.=22.115280, lon.=103.818939, Alt.=829.492676m. Speed=0.000000m/h.</desc>
<speed>0.000000</speed>
</trkpt>
<trkpt lat="22.115280" lon="103.818939">
<ele>829.445801</ele>
<time>2011-04-25T09:47:20Z</time>
<desc>lat.=22.115280, lon.=103.818939, Alt.=829.445801m. Speed=0.000000m/h.</desc>
<speed>0.000000</speed>
</trkpt>
<trkpt lat="22.115280" lon="103.818939">
<ele>829.398926</ele>
<time>2011-04-25T09:47:25Z</time>
<desc>lat.=22.115280, lon.=103.818939, Alt.=829.398926m. Speed=0.036000m/h.</desc>
<speed>0.010000</speed>
</trkpt>
<trkpt lat="22.115280" lon="103.818939">
<ele>829.367676</ele>
<time>2011-04-25T09:47:30Z</time>
<desc>lat.=22.115280, lon.=103.818939, Alt.=829.367676m. Speed=0.000000m/h.</desc>
<speed>0.000000</speed>
</trkpt>
<trkpt lat="22.115280" lon="103.818939">
<ele>829.320801</ele>
<time>2011-04-25T09:47:35Z</time>
<desc>lat.=22.115280, lon.=103.818939, Alt.=829.320801m. Speed=0.000000m/h.</desc>
<speed>0.000000</speed>
</trkpt>
<trkpt lat="22.115280" lon="103.818939">
<ele>829.289551</ele>
<time>2011-04-25T09:47:40Z</time>
<desc>lat.=22.115280, lon.=103.818939, Alt.=829.289551m. Speed=0.000000m/h.</desc>
<speed>0.000000</speed>
</trkpt>
<trkpt lat="22.115280" lon="103.818939">
<ele>829.273926</ele>
<time>2011-04-25T09:47:45Z</time>
<desc>lat.=22.115280, lon.=103.818939, Alt.=829.273926m. Speed=0.000000m/h.</desc>
<speed>0.000000</speed>
</trkpt>
<trkpt lat="22.115280" lon="103.818939">
<ele>829.211426</ele>
<time>2011-04-25T09:47:50Z</time>
<desc>lat.=22.115280, lon.=103.818939, Alt.=829.211426m. Speed=0.000000m/h.</desc>
<speed>0.000000</speed>
</trkpt>
<trkpt lat="22.115280" lon="103.818939">
<ele>829.180176</ele>
<time>2011-04-25T09:47:55Z</time>
<desc>lat.=22.115280, lon.=103.818939, Alt.=829.180176m. Speed=0.036000m/h.</desc>
<speed>0.010000</speed>
</trkpt>
<trkpt lat="22.115280" lon="103.818939">
<ele>829.148926</ele>
<time>2011-04-25T09:48:00Z</time>
<desc>lat.=22.115280, lon.=103.818939, Alt.=829.148926m. Speed=0.000000m/h.</desc>
<speed>0.000000</speed>
</trkpt>
<trkpt lat="22.115280" lon="103.818939">
<ele>829.117676</ele>
<time>2011-04-25T09:48:05Z</time>
<desc>lat.=22.115280, lon.=103.818939, Alt.=829.117676m. Speed=0.000000m/h.</desc>
<speed>0.000000</speed>
</trkpt>
<trkpt lat="22.115280" lon="103.818939">
<ele>829.086426</ele>
<time>2011-04-25T09:48:10Z</time>
<desc>lat.=22.115280, lon.=103.818939, Alt.=829.086426m. Speed=0.000000m/h.</desc>
<speed>0.000000</speed>
</trkpt>
<trkpt lat="22.115280" lon="103.818939">
<ele>829.070801</ele>
<time>2011-04-25T09:48:15Z</time>
<desc>lat.=22.115280, lon.=103.818939, Alt.=829.070801m. Speed=0.000000m/h.</desc>
<speed>0.000000</speed>
</trkpt>
<trkpt lat="22.115280" lon="103.818939">
<ele>829.023926</ele>
<time>2011-04-25T09:48:20Z</time>
<desc>lat.=22.115280, lon.=103.818939, Alt.=829.023926m. Speed=0.000000m/h.</desc>
<speed>0.000000</speed>
</trkpt>
<trkpt lat="22.115280" lon="103.818939">
<ele>829.008301</ele>
<time>2011-04-25T09:48:25Z</time>
<desc>lat.=22.115280, lon.=103.818939, Alt.=829.008301m. Speed=0.036000m/h.</desc>
<speed>0.010000</speed>
</trkpt>
<trkpt lat="22.115280" lon="103.818939">
<ele>828.992676</ele>
<time>2011-04-25T09:48:30Z</time>
<desc>lat.=22.115280, lon.=103.818939, Alt.=828.992676m. Speed=0.072000m/h.</desc>
<speed>0.020000</speed>
</trkpt>
<trkpt lat="22.115280" lon="103.818939">
<ele>828.977051</ele>
<time>2011-04-25T09:48:35Z</time>
<desc>lat.=22.115280, lon.=103.818939, Alt.=828.977051m. Speed=0.000000m/h.</desc>
<speed>0.000000</speed>
</trkpt>
<trkpt lat="22.115280" lon="103.818939">
<ele>828.961426</ele>
<time>2011-04-25T09:48:40Z</time>
<desc>lat.=22.115280, lon.=103.818939, Alt.=828.961426m. Speed=0.072000m/h.</desc>
<speed>0.020000</speed>
</trkpt>
<trkpt lat="22.115280" lon="103.818939">
<ele>828.961426</ele>
<time>2011-04-25T09:48:45Z</time>
<desc>lat.=22.115280, lon.=103.818939, Alt.=828.961426m. Speed=0.000000m/h.</desc>
<speed>0.000000</speed>
</trkpt>
<trkpt lat="22.115280" lon="103.818939">
<ele>828.945801</ele>
<time>2011-04-25T09:48:50Z</time>
<desc>lat.=22.115280, lon.=103.818939, Alt.=828.945801m. Speed=0.036000m/h.</desc>
<speed>0.010000</speed>
</trkpt>
<trkpt lat="22.115280" lon="103.818939">
<ele>828.961426</ele>
<time>2011-04-25T09:48:55Z</time>
<desc>lat.=22.115280, lon.=103.818939, Alt.=828.961426m. Speed=0.000000m/h.</desc>
<speed>0.000000</speed>
</trkpt>
<trkpt lat="22.115280" lon="103.818939">
<ele>828.945801</ele>
<time>2011-04-25T09:49:00Z</time>
<desc>lat.=22.115280, lon.=103.818939, Alt.=828.945801m. Speed=0.000000m/h.</desc>
<speed>0.000000</speed>
</trkpt>
<trkpt lat="22.115280" lon="103.818939">
<ele>828.930176</ele>
<time>2011-04-25T09:49:05Z</time>
<desc>lat.=22.115280, lon.=103.818939, Alt.=828.930176m. Speed=0.036000m/h.</desc>
<speed>0.010000</speed>
</trkpt>
<trkpt lat="22.115278" lon="103.818939">
<ele>828.914551</ele>
<time>2011-04-25T09:49:10Z</time>
<desc>lat.=22.115278, lon.=103.818939, Alt.=828.914551m. Speed=0.000000m/h.</desc>
<speed>0.000000</speed>
</trkpt>
<trkpt lat="22.115278" lon="103.818939">
<ele>828.898926</ele>
<time>2011-04-25T09:49:15Z</time>
<desc>lat.=22.115278, lon.=103.818939, Alt.=828.898926m. Speed=0.036000m/h.</desc>
<speed>0.010000</speed>
</trkpt>
<trkpt lat="22.115278" lon="103.818939">
<ele>828.883301</ele>
<time>2011-04-25T09:49:20Z</time>
<desc>lat.=22.115278, lon.=103.818939, Alt.=828.883301m. Speed=0.036000m/h.</desc>
<speed>0.010000</speed>
</trkpt>
<trkpt lat="22.115278" lon="103.818939">
<ele>828.867676</ele>
<time>2011-04-25T09:49:25Z</time>
<desc>lat.=22.115278, lon.=103.818939, Alt.=828.867676m. Speed=0.000000m/h.</desc>
<speed>0.000000</speed>
</trkpt>
<trkpt lat="22.115278" lon="103.818939">
<ele>828.867676</ele>
<time>2011-04-25T09:49:30Z</time>
<desc>lat.=22.115278, lon.=103.818939, Alt.=828.867676m. Speed=0.036000m/h.</desc>
<speed>0.010000</speed>
</trkpt>
<trkpt lat="22.115278" lon="103.818939">
<ele>828.836426</ele>
<time>2011-04-25T09:49:35Z</time>
<desc>lat.=22.115278, lon.=103.818939, Alt.=828.836426m. Speed=0.000000m/h.</desc>
<speed>0.000000</speed>
</trkpt>
<trkpt lat="22.115278" lon="103.818939">
<ele>828.789551</ele>
<time>2011-04-25T09:49:40Z</time>
<desc>lat.=22.115278, lon.=103.818939, Alt.=828.789551m. Speed=0.000000m/h.</desc>
<speed>0.000000</speed>
</trkpt>
<trkpt lat="22.115278" lon="103.818939">
<ele>828.727051</ele>
<time>2011-04-25T09:49:45Z</time>
<desc>lat.=22.115278, lon.=103.818939, Alt.=828.727051m. Speed=0.036000m/h.</desc>
<speed>0.010000</speed>
</trkpt>
<trkpt lat="22.115278" lon="103.818939">
<ele>828.695801</ele>
<time>2011-04-25T09:49:50Z</time>
<desc>lat.=22.115278, lon.=103.818939, Alt.=828.695801m. Speed=0.036000m/h.</desc>
<speed>0.010000</speed>
</trkpt>
<trkpt lat="22.115278" lon="103.818939">
<ele>828.695801</ele>
<time>2011-04-25T09:49:55Z</time>
<desc>lat.=22.115278, lon.=103.818939, Alt.=828.695801m. Speed=0.000000m/h.</desc>
<speed>0.000000</speed>
</trkpt>
<trkpt lat="22.115278" lon="103.818939">
<ele>828.695801</ele>
<time>2011-04-25T09:50:00Z</time>
<desc>lat.=22.115278, lon.=103.818939, Alt.=828.695801m. Speed=0.000000m/h.</desc>
<speed>0.000000</speed>
</trkpt>
<trkpt lat="22.115278" lon="103.818939">
<ele>828.664551</ele>
<time>2011-04-25T09:50:05Z</time>
<desc>lat.=22.115278, lon.=103.818939, Alt.=828.664551m. Speed=0.000000m/h.</desc>
<speed>0.000000</speed>
</trkpt>
<trkpt lat="22.115278" lon="103.818939">
<ele>828.648926</ele>
<time>2011-04-25T09:50:10Z</time>
<desc>lat.=22.115278, lon.=103.818939, Alt.=828.648926m. Speed=0.000000m/h.</desc>
<speed>0.000000</speed>
</trkpt>
<trkpt lat="22.115278" lon="103.818939">
<ele>828.633301</ele>
<time>2011-04-25T09:50:15Z</time>
<desc>lat.=22.115278, lon.=103.818939, Alt.=828.633301m. Speed=0.000000m/h.</desc>
<speed>0.000000</speed>
</trkpt>
<trkpt lat="22.115278" lon="103.818939">
<ele>828.602051</ele>
<time>2011-04-25T09:50:20Z</time>
<desc>lat.=22.115278, lon.=103.818939, Alt.=828.602051m. Speed=0.000000m/h.</desc>
<speed>0.000000</speed>
</trkpt>
<trkpt lat="22.115278" lon="103.818939">
<ele>828.586426</ele>
<time>2011-04-25T09:50:25Z</time>
<desc>lat.=22.115278, lon.=103.818939, Alt.=828.586426m. Speed=0.000000m/h.</desc>
<speed>0.000000</speed>
</trkpt>
<trkpt lat="22.115278" lon="103.818939">
<ele>828.586426</ele>
<time>2011-04-25T09:50:30Z</time>
<desc>lat.=22.115278, lon.=103.818939, Alt.=828.586426m. Speed=0.000000m/h.</desc>
<speed>0.000000</speed>
</trkpt>
<trkpt lat="22.115278" lon="103.818939">
<ele>828.570801</ele>
<time>2011-04-25T09:50:35Z</time>
<desc>lat.=22.115278, lon.=103.818939, Alt.=828.570801m. Speed=0.000000m/h.</desc>
<speed>0.000000</speed>
</trkpt>
<trkpt lat="22.115278" lon="103.818939">
<ele>828.555176</ele>
<time>2011-04-25T09:50:40Z</time>
<desc>lat.=22.115278, lon.=103.818939, Alt.=828.555176m. Speed=0.000000m/h.</desc>
<speed>0.000000</speed>
</trkpt>
<trkpt lat="22.115278" lon="103.818939">
<ele>828.539551</ele>
<time>2011-04-25T09:50:45Z</time>
<desc>lat.=22.115278, lon.=103.818939, Alt.=828.539551m. Speed=0.000000m/h.</desc>
<speed>0.000000</speed>
</trkpt>
<trkpt lat="22.115278" lon="103.818939">
<ele>828.523926</ele>
<time>2011-04-25T09:50:50Z</time>
<desc>lat.=22.115278, lon.=103.818939, Alt.=828.523926m. Speed=0.000000m/h.</desc>
<speed>0.000000</speed>
</trkpt>
<trkpt lat="22.115278" lon="103.818939">
<ele>828.508301</ele>
<time>2011-04-25T09:50:55Z</time>
<desc>lat.=22.115278, lon.=103.818939, Alt.=828.508301m. Speed=0.000000m/h.</desc>
<speed>0.000000</speed>
</trkpt>
<trkpt lat="22.115278" lon="103.818939">
<ele>828.508301</ele>
<time>2011-04-25T09:51:00Z</time>
<desc>lat.=22.115278, lon.=103.818939, Alt.=828.508301m. Speed=0.000000m/h.</desc>
<speed>0.000000</speed>
</trkpt>
<trkpt lat="22.115278" lon="103.818939">
<ele>828.477051</ele>
<time>2011-04-25T09:51:05Z</time>
<desc>lat.=22.115278, lon.=103.818939, Alt.=828.477051m. Speed=0.000000m/h.</desc>
<speed>0.000000</speed>
</trkpt>
<trkpt lat="22.115278" lon="103.818939">
<ele>828.461426</ele>
<time>2011-04-25T09:51:10Z</time>
<desc>lat.=22.115278, lon.=103.818939, Alt.=828.461426m. Speed=0.000000m/h.</desc>
<speed>0.000000</speed>
</trkpt>
<trkpt lat="22.115276" lon="103.818939">
<ele>828.445801</ele>
<time>2011-04-25T09:51:15Z</time>
<desc>lat.=22.115276, lon.=103.818939, Alt.=828.445801m. Speed=0.000000m/h.</desc>
<speed>0.000000</speed>
</trkpt>
<trkpt lat="22.115276" lon="103.818939">
<ele>828.430176</ele>
<time>2011-04-25T09:51:20Z</time>
<desc>lat.=22.115276, lon.=103.818939, Alt.=828.430176m. Speed=0.000000m/h.</desc>
<speed>0.000000</speed>
</trkpt>
<trkpt lat="22.115276" lon="103.818939">
<ele>828.414551</ele>
<time>2011-04-25T09:51:25Z</time>
<desc>lat.=22.115276, lon.=103.818939, Alt.=828.414551m. Speed=0.000000m/h.</desc>
<speed>0.000000</speed>
</trkpt>
<trkpt lat="22.115276" lon="103.818939">
<ele>828.414551</ele>
<time>2011-04-25T09:51:30Z</time>
<desc>lat.=22.115276, lon.=103.818939, Alt.=828.414551m. Speed=0.000000m/h.</desc>
<speed>0.000000</speed>
</trkpt>
<trkpt lat="22.115276" lon="103.818939">
<ele>828.398926</ele>
<time>2011-04-25T09:51:35Z</time>
<desc>lat.=22.115276, lon.=103.818939, Alt.=828.398926m. Speed=0.000000m/h.</desc>
<speed>0.000000</speed>
</trkpt>
<trkpt lat="22.115276" lon="103.818939">
<ele>828.383301</ele>
<time>2011-04-25T09:51:40Z</time>
<desc>lat.=22.115276, lon.=103.818939, Alt.=828.383301m. Speed=0.000000m/h.</desc>
<speed>0.000000</speed>
</trkpt>
<trkpt lat="22.115276" lon="103.818939">
<ele>828.367676</ele>
<time>2011-04-25T09:51:45Z</time>
<desc>lat.=22.115276, lon.=103.818939, Alt.=828.367676m. Speed=0.000000m/h.</desc>
<speed>0.000000</speed>
</trkpt>
<trkpt lat="22.115276" lon="103.818939">
<ele>828.367676</ele>
<time>2011-04-25T09:51:50Z</time>
<desc>lat.=22.115276, lon.=103.818939, Alt.=828.367676m. Speed=0.000000m/h.</desc>
<speed>0.000000</speed>
</trkpt>
<trkpt lat="22.115276" lon="103.818939">
<ele>828.367676</ele>
<time>2011-04-25T09:51:55Z</time>
<desc>lat.=22.115276, lon.=103.818939, Alt.=828.367676m. Speed=0.000000m/h.</desc>
<speed>0.000000</speed>
</trkpt>
<trkpt lat="22.115276" lon="103.818932">
<ele>828.367676</ele>
<time>2011-04-25T09:52:00Z</time>
<desc>lat.=22.115276, lon.=103.818932, Alt.=828.367676m. Speed=0.000000m/h.</desc>
<speed>0.000000</speed>
</trkpt>
<trkpt lat="22.115274" lon="103.818932">
<ele>828.148926</ele>
<time>2011-04-25T09:52:05Z</time>
<desc>lat.=22.115274, lon.=103.818932, Alt.=828.148926m. Speed=0.000000m/h.</desc>
<speed>0.000000</speed>
</trkpt>
<trkpt lat="22.115273" lon="103.818924">
<ele>827.789551</ele>
<time>2011-04-25T09:52:10Z</time>
<desc>lat.=22.115273, lon.=103.818924, Alt.=827.789551m. Speed=0.072000m/h.</desc>
<speed>0.020000</speed>
</trkpt>
<trkpt lat="22.115276" lon="103.818932">
<ele>827.461426</ele>
<time>2011-04-25T09:52:15Z</time>
<desc>lat.=22.115276, lon.=103.818932, Alt.=827.461426m. Speed=0.036000m/h.</desc>
<speed>0.010000</speed>
</trkpt>
<trkpt lat="22.115282" lon="103.818939">
<ele>827.164551</ele>
<time>2011-04-25T09:52:20Z</time>
<desc>lat.=22.115282, lon.=103.818939, Alt.=827.164551m. Speed=0.000000m/h.</desc>
<speed>0.000000</speed>
</trkpt>
<trkpt lat="22.115286" lon="103.818939">
<ele>827.117676</ele>
<time>2011-04-25T09:52:25Z</time>
<desc>lat.=22.115286, lon.=103.818939, Alt.=827.117676m. Speed=0.036000m/h.</desc>
<speed>0.010000</speed>
</trkpt>
<trkpt lat="22.115294" lon="103.818939">
<ele>826.977051</ele>
<time>2011-04-25T09:52:30Z</time>
<desc>lat.=22.115294, lon.=103.818939, Alt.=826.977051m. Speed=0.036000m/h.</desc>
<speed>0.010000</speed>
</trkpt>
<trkpt lat="22.115294" lon="103.818947">
<ele>826.914551</ele>
<time>2011-04-25T09:52:35Z</time>
<desc>lat.=22.115294, lon.=103.818947, Alt.=826.914551m. Speed=0.000000m/h.</desc>
<speed>0.000000</speed>
</trkpt>
<trkpt lat="22.115294" lon="103.818947">
<ele>826.789551</ele>
<time>2011-04-25T09:52:40Z</time>
<desc>lat.=22.115294, lon.=103.818947, Alt.=826.789551m. Speed=0.000000m/h.</desc>
<speed>0.000000</speed>
</trkpt>
<trkpt lat="22.115297" lon="103.818939">
<ele>826.539551</ele>
<time>2011-04-25T09:52:45Z</time>
<desc>lat.=22.115297, lon.=103.818939, Alt.=826.539551m. Speed=0.000000m/h.</desc>
<speed>0.000000</speed>
</trkpt>
<trkpt lat="22.115297" lon="103.818939">
<ele>826.508301</ele>
<time>2011-04-25T09:52:50Z</time>
<desc>lat.=22.115297, lon.=103.818939, Alt.=826.508301m. Speed=0.000000m/h.</desc>
<speed>0.000000</speed>
</trkpt>
<trkpt lat="22.115297" lon="103.818939">
<ele>826.508301</ele>
<time>2011-04-25T09:52:55Z</time>
<desc>lat.=22.115297, lon.=103.818939, Alt.=826.508301m. Speed=0.000000m/h.</desc>
<speed>0.000000</speed>
</trkpt>
<trkpt lat="22.115297" lon="103.818939">
<ele>826.508301</ele>
<time>2011-04-25T09:53:00Z</time>
<desc>lat.=22.115297, lon.=103.818939, Alt.=826.508301m. Speed=0.000000m/h.</desc>
<speed>0.000000</speed>
</trkpt>
<trkpt lat="22.115297" lon="103.818939">
<ele>826.508301</ele>
<time>2011-04-25T09:53:05Z</time>
<desc>lat.=22.115297, lon.=103.818939, Alt.=826.508301m. Speed=0.000000m/h.</desc>
<speed>0.000000</speed>
</trkpt>
<trkpt lat="22.115297" lon="103.818939">
<ele>826.508301</ele>
<time>2011-04-25T09:53:10Z</time>
<desc>lat.=22.115297, lon.=103.818939, Alt.=826.508301m. Speed=0.000000m/h.</desc>
<speed>0.000000</speed>
</trkpt>
<trkpt lat="22.115297" lon="103.818939">
<ele>826.492676</ele>
<time>2011-04-25T09:53:15Z</time>
<desc>lat.=22.115297, lon.=103.818939, Alt.=826.492676m. Speed=0.036000m/h.</desc>
<speed>0.010000</speed>
</trkpt>
<trkpt lat="22.115297" lon="103.818939">
<ele>826.477051</ele>
<time>2011-04-25T09:53:20Z</time>
<desc>lat.=22.115297, lon.=103.818939, Alt.=826.477051m. Speed=0.036000m/h.</desc>
<speed>0.010000</speed>
</trkpt>
<trkpt lat="22.115297" lon="103.818939">
<ele>826.477051</ele>
<time>2011-04-25T09:53:25Z</time>
<desc>lat.=22.115297, lon.=103.818939, Alt.=826.477051m. Speed=0.036000m/h.</desc>
<speed>0.010000</speed>
</trkpt>
<trkpt lat="22.115297" lon="103.818939">
<ele>826.477051</ele>
<time>2011-04-25T09:53:30Z</time>
<desc>lat.=22.115297, lon.=103.818939, Alt.=826.477051m. Speed=0.000000m/h.</desc>
<speed>0.000000</speed>
</trkpt>
<trkpt lat="22.115297" lon="103.818939">
<ele>826.461426</ele>
<time>2011-04-25T09:53:35Z</time>
<desc>lat.=22.115297, lon.=103.818939, Alt.=826.461426m. Speed=0.000000m/h.</desc>
<speed>0.000000</speed>
</trkpt>
<trkpt lat="22.115297" lon="103.818939">
<ele>826.461426</ele>
<time>2011-04-25T09:53:40Z</time>
<desc>lat.=22.115297, lon.=103.818939, Alt.=826.461426m. Speed=0.000000m/h.</desc>
<speed>0.000000</speed>
</trkpt>
<trkpt lat="22.115297" lon="103.818939">
<ele>826.461426</ele>
<time>2011-04-25T09:53:45Z</time>
<desc>lat.=22.115297, lon.=103.818939, Alt.=826.461426m. Speed=0.000000m/h.</desc>
<speed>0.000000</speed>
</trkpt>
<trkpt lat="22.115297" lon="103.818939">
<ele>826.477051</ele>
<time>2011-04-25T09:53:50Z</time>
<desc>lat.=22.115297, lon.=103.818939, Alt.=826.477051m. Speed=0.000000m/h.</desc>
<speed>0.000000</speed>
</trkpt>
<trkpt lat="22.115297" lon="103.818939">
<ele>826.461426</ele>
<time>2011-04-25T09:53:55Z</time>
<desc>lat.=22.115297, lon.=103.818939, Alt.=826.461426m. Speed=0.000000m/h.</desc>
<speed>0.000000</speed>
</trkpt>
<trkpt lat="22.115297" lon="103.818939">
<ele>826.445801</ele>
<time>2011-04-25T09:54:00Z</time>
<desc>lat.=22.115297, lon.=103.818939, Alt.=826.445801m. Speed=0.000000m/h.</desc>
<speed>0.000000</speed>
</trkpt>
<trkpt lat="22.115297" lon="103.818939">
<ele>826.445801</ele>
<time>2011-04-25T09:54:05Z</time>
<desc>lat.=22.115297, lon.=103.818939, Alt.=826.445801m. Speed=0.000000m/h.</desc>
<speed>0.000000</speed>
</trkpt>
<trkpt lat="22.115297" lon="103.818939">
<ele>826.414551</ele>
<time>2011-04-25T09:54:10Z</time>
<desc>lat.=22.115297, lon.=103.818939, Alt.=826.414551m. Speed=0.000000m/h.</desc>
<speed>0.000000</speed>
</trkpt>
<trkpt lat="22.115297" lon="103.818939">
<ele>826.398926</ele>
<time>2011-04-25T09:54:15Z</time>
<desc>lat.=22.115297, lon.=103.818939, Alt.=826.398926m. Speed=0.000000m/h.</desc>
<speed>0.000000</speed>
</trkpt>
<trkpt lat="22.115297" lon="103.818939">
<ele>826.383301</ele>
<time>2011-04-25T09:54:20Z</time>
<desc>lat.=22.115297, lon.=103.818939, Alt.=826.383301m. Speed=0.036000m/h.</desc>
<speed>0.010000</speed>
</trkpt>
<trkpt lat="22.115297" lon="103.818939">
<ele>826.320801</ele>
<time>2011-04-25T09:54:25Z</time>
<desc>lat.=22.115297, lon.=103.818939, Alt.=826.320801m. Speed=0.252000m/h.</desc>
<speed>0.070000</speed>
</trkpt>
<trkpt lat="22.115297" lon="103.818939">
<ele>826.273926</ele>
<time>2011-04-25T09:54:30Z</time>
<desc>lat.=22.115297, lon.=103.818939, Alt.=826.273926m. Speed=0.000000m/h.</desc>
<speed>0.000000</speed>
</trkpt>
<trkpt lat="22.115297" lon="103.818939">
<ele>826.258301</ele>
<time>2011-04-25T09:54:35Z</time>
<desc>lat.=22.115297, lon.=103.818939, Alt.=826.258301m. Speed=0.000000m/h.</desc>
<speed>0.000000</speed>
</trkpt>
<trkpt lat="22.115295" lon="103.818939">
<ele>826.227051</ele>
<time>2011-04-25T09:54:40Z</time>
<desc>lat.=22.115295, lon.=103.818939, Alt.=826.227051m. Speed=0.000000m/h.</desc>
<speed>0.000000</speed>
</trkpt>
<trkpt lat="22.115295" lon="103.818939">
<ele>826.195801</ele>
<time>2011-04-25T09:54:45Z</time>
<desc>lat.=22.115295, lon.=103.818939, Alt.=826.195801m. Speed=0.000000m/h.</desc>
<speed>0.000000</speed>
</trkpt>
<trkpt lat="22.115295" lon="103.818939">
<ele>826.164551</ele>
<time>2011-04-25T09:54:50Z</time>
<desc>lat.=22.115295, lon.=103.818939, Alt.=826.164551m. Speed=0.000000m/h.</desc>
<speed>0.000000</speed>
</trkpt>
<trkpt lat="22.115295" lon="103.818939">
<ele>826.164551</ele>
<time>2011-04-25T09:54:55Z</time>
<desc>lat.=22.115295, lon.=103.818939, Alt.=826.164551m. Speed=0.000000m/h.</desc>
<speed>0.000000</speed>
</trkpt>
<trkpt lat="22.115295" lon="103.818939">
<ele>826.148926</ele>
<time>2011-04-25T09:55:00Z</time>
<desc>lat.=22.115295, lon.=103.818939, Alt.=826.148926m. Speed=0.252000m/h.</desc>
<speed>0.070000</speed>
</trkpt>
<trkpt lat="22.115297" lon="103.818939">
<ele>826.133301</ele>
<time>2011-04-25T09:55:05Z</time>
<desc>lat.=22.115297, lon.=103.818939, Alt.=826.133301m. Speed=0.036000m/h.</desc>
<speed>0.010000</speed>
</trkpt>
<trkpt lat="22.115301" lon="103.818939">
<ele>826.117676</ele>
<time>2011-04-25T09:55:10Z</time>
<desc>lat.=22.115301, lon.=103.818939, Alt.=826.117676m. Speed=0.684000m/h.</desc>
<speed>0.190000</speed>
</trkpt>
<trkpt lat="22.115307" lon="103.818939">
<ele>826.070801</ele>
<time>2011-04-25T09:55:15Z</time>
<desc>lat.=22.115307, lon.=103.818939, Alt.=826.070801m. Speed=0.396000m/h.</desc>
<speed>0.110000</speed>
</trkpt>
<trkpt lat="22.115309" lon="103.818932">
<ele>826.039551</ele>
<time>2011-04-25T09:55:20Z</time>
<desc>lat.=22.115309, lon.=103.818932, Alt.=826.039551m. Speed=0.432000m/h.</desc>
<speed>0.120000</speed>
</trkpt>
<trkpt lat="22.115307" lon="103.818932">
<ele>826.039551</ele>
<time>2011-04-25T09:55:25Z</time>
<desc>lat.=22.115307, lon.=103.818932, Alt.=826.039551m. Speed=0.108000m/h.</desc>
<speed>0.030000</speed>
</trkpt>
<trkpt lat="22.115311" lon="103.818924">
<ele>826.070801</ele>
<time>2011-04-25T09:55:30Z</time>
<desc>lat.=22.115311, lon.=103.818924, Alt.=826.070801m. Speed=0.720000m/h.</desc>
<speed>0.200000</speed>
</trkpt>
<trkpt lat="22.115313" lon="103.818916">
<ele>826.086426</ele>
<time>2011-04-25T09:55:35Z</time>
<desc>lat.=22.115313, lon.=103.818916, Alt.=826.086426m. Speed=0.324000m/h.</desc>
<speed>0.090000</speed>
</trkpt>
<trkpt lat="22.115313" lon="103.818916">
<ele>826.070801</ele>
<time>2011-04-25T09:55:40Z</time>
<desc>lat.=22.115313, lon.=103.818916, Alt.=826.070801m. Speed=0.576000m/h.</desc>
<speed>0.160000</speed>
</trkpt>
<trkpt lat="22.115309" lon="103.818924">
<ele>826.039551</ele>
<time>2011-04-25T09:55:45Z</time>
<desc>lat.=22.115309, lon.=103.818924, Alt.=826.039551m. Speed=0.756000m/h.</desc>
<speed>0.210000</speed>
</trkpt>
<trkpt lat="22.115307" lon="103.818932">
<ele>826.008301</ele>
<time>2011-04-25T09:55:50Z</time>
<desc>lat.=22.115307, lon.=103.818932, Alt.=826.008301m. Speed=0.576000m/h.</desc>
<speed>0.160000</speed>
</trkpt>
<trkpt lat="22.115301" lon="103.818924">
<ele>825.977051</ele>
<time>2011-04-25T09:55:55Z</time>
<desc>lat.=22.115301, lon.=103.818924, Alt.=825.977051m. Speed=0.720000m/h.</desc>
<speed>0.200000</speed>
</trkpt>
<trkpt lat="22.115295" lon="103.818924">
<ele>825.961426</ele>
<time>2011-04-25T09:56:00Z</time>
<desc>lat.=22.115295, lon.=103.818924, Alt.=825.961426m. Speed=0.540000m/h.</desc>
<speed>0.150000</speed>
</trkpt>
<trkpt lat="22.115290" lon="103.818924">
<ele>825.945801</ele>
<time>2011-04-25T09:56:05Z</time>
<desc>lat.=22.115290, lon.=103.818924, Alt.=825.945801m. Speed=0.720000m/h.</desc>
<speed>0.200000</speed>
</trkpt>
<trkpt lat="22.115286" lon="103.818916">
<ele>825.930176</ele>
<time>2011-04-25T09:56:10Z</time>
<desc>lat.=22.115286, lon.=103.818916, Alt.=825.930176m. Speed=0.792000m/h.</desc>
<speed>0.220000</speed>
</trkpt>
<trkpt lat="22.115280" lon="103.818909">
<ele>825.930176</ele>
<time>2011-04-25T09:56:15Z</time>
<desc>lat.=22.115280, lon.=103.818909, Alt.=825.930176m. Speed=0.432000m/h.</desc>
<speed>0.120000</speed>
</trkpt>
<trkpt lat="22.115276" lon="103.818909">
<ele>825.914551</ele>
<time>2011-04-25T09:56:20Z</time>
<desc>lat.=22.115276, lon.=103.818909, Alt.=825.914551m. Speed=0.324000m/h.</desc>
<speed>0.090000</speed>
</trkpt>
<trkpt lat="22.115274" lon="103.818916">
<ele>825.914551</ele>
<time>2011-04-25T09:56:25Z</time>
<desc>lat.=22.115274, lon.=103.818916, Alt.=825.914551m. Speed=0.180000m/h.</desc>
<speed>0.050000</speed>
</trkpt>
<trkpt lat="22.115276" lon="103.818924">
<ele>825.867676</ele>
<time>2011-04-25T09:56:30Z</time>
<desc>lat.=22.115276, lon.=103.818924, Alt.=825.867676m. Speed=0.288000m/h.</desc>
<speed>0.080000</speed>
</trkpt>
<trkpt lat="22.115274" lon="103.818916">
<ele>825.836426</ele>
<time>2011-04-25T09:56:35Z</time>
<desc>lat.=22.115274, lon.=103.818916, Alt.=825.836426m. Speed=0.108000m/h.</desc>
<speed>0.030000</speed>
</trkpt>
<trkpt lat="22.115274" lon="103.818924">
<ele>825.805176</ele>
<time>2011-04-25T09:56:40Z</time>
<desc>lat.=22.115274, lon.=103.818924, Alt.=825.805176m. Speed=0.576000m/h.</desc>
<speed>0.160000</speed>
</trkpt>
<trkpt lat="22.115253" lon="103.818954">
<ele>825.664551</ele>
<time>2011-04-25T09:56:45Z</time>
<desc>lat.=22.115253, lon.=103.818954, Alt.=825.664551m. Speed=4.644000m/h.</desc>
<speed>1.290000</speed>
</trkpt>
<trkpt lat="22.115229" lon="103.818962">
<ele>824.742676</ele>
<time>2011-04-25T09:56:50Z</time>
<desc>lat.=22.115229, lon.=103.818962, Alt.=824.742676m. Speed=1.116000m/h.</desc>
<speed>0.310000</speed>
</trkpt>
<trkpt lat="22.115141" lon="103.818924">
<ele>824.320801</ele>
<time>2011-04-25T09:56:55Z</time>
<desc>lat.=22.115141, lon.=103.818924, Alt.=824.320801m. Speed=7.740000m/h.</desc>
<speed>2.150000</speed>
</trkpt>
<trkpt lat="22.115009" lon="103.818916">
<ele>823.711426</ele>
<time>2011-04-25T09:57:00Z</time>
<desc>lat.=22.115009, lon.=103.818916, Alt.=823.711426m. Speed=8.208000m/h.</desc>
<speed>2.280000</speed>
</trkpt>
<trkpt lat="22.114914" lon="103.818932">
<ele>823.383301</ele>
<time>2011-04-25T09:57:05Z</time>
<desc>lat.=22.114914, lon.=103.818932, Alt.=823.383301m. Speed=5.976000m/h.</desc>
<speed>1.660000</speed>
</trkpt>
<trkpt lat="22.114878" lon="103.818924">
<ele>822.852051</ele>
<time>2011-04-25T09:57:10Z</time>
<desc>lat.=22.114878, lon.=103.818924, Alt.=822.852051m. Speed=0.396000m/h.</desc>
<speed>0.110000</speed>
</trkpt>
<trkpt lat="22.114872" lon="103.818932">
<ele>822.336426</ele>
<time>2011-04-25T09:57:15Z</time>
<desc>lat.=22.114872, lon.=103.818932, Alt.=822.336426m. Speed=1.296000m/h.</desc>
<speed>0.360000</speed>
</trkpt>
<trkpt lat="22.114786" lon="103.818954">
<ele>821.352051</ele>
<time>2011-04-25T09:57:20Z</time>
<desc>lat.=22.114786, lon.=103.818954, Alt.=821.352051m. Speed=10.296000m/h.</desc>
<speed>2.860000</speed>
</trkpt>
<trkpt lat="22.114607" lon="103.819031">
<ele>820.367676</ele>
<time>2011-04-25T09:57:25Z</time>
<desc>lat.=22.114607, lon.=103.819031, Alt.=820.367676m. Speed=16.164000m/h.</desc>
<speed>4.490000</speed>
</trkpt>
<trkpt lat="22.114401" lon="103.819160">
<ele>818.508301</ele>
<time>2011-04-25T09:57:30Z</time>
<desc>lat.=22.114401, lon.=103.819160, Alt.=818.508301m. Speed=21.528000m/h.</desc>
<speed>5.980000</speed>
</trkpt>
<trkpt lat="22.114140" lon="103.819397">
<ele>815.289551</ele>
<time>2011-04-25T09:57:35Z</time>
<desc>lat.=22.114140, lon.=103.819397, Alt.=815.289551m. Speed=31.680000m/h.</desc>
<speed>8.800000</speed>
</trkpt>
<trkpt lat="22.113806" lon="103.819733">
<ele>811.680176</ele>
<time>2011-04-25T09:57:40Z</time>
<desc>lat.=22.113806, lon.=103.819733, Alt.=811.680176m. Speed=38.520000m/h.</desc>
<speed>10.700000</speed>
</trkpt>
<trkpt lat="22.113337" lon="103.820000">
<ele>807.648926</ele>
<time>2011-04-25T09:57:45Z</time>
<desc>lat.=22.113337, lon.=103.820000, Alt.=807.648926m. Speed=45.576000m/h.</desc>
<speed>12.660000</speed>
</trkpt>
<trkpt lat="22.112747" lon="103.820198">
<ele>803.914551</ele>
<time>2011-04-25T09:57:50Z</time>
<desc>lat.=22.112747, lon.=103.820198, Alt.=803.914551m. Speed=51.804001m/h.</desc>
<speed>14.390000</speed>
</trkpt>
<trkpt lat="22.112074" lon="103.820351">
<ele>798.867676</ele>
<time>2011-04-25T09:57:55Z</time>
<desc>lat.=22.112074, lon.=103.820351, Alt.=798.867676m. Speed=55.655998m/h.</desc>
<speed>15.460000</speed>
</trkpt>
<trkpt lat="22.111473" lon="103.820374">
<ele>794.039551</ele>
<time>2011-04-25T09:58:00Z</time>
<desc>lat.=22.111473, lon.=103.820374, Alt.=794.039551m. Speed=41.147999m/h.</desc>
<speed>11.430000</speed>
</trkpt>
<trkpt lat="22.111082" lon="103.820526">
<ele>788.555176</ele>
<time>2011-04-25T09:58:05Z</time>
<desc>lat.=22.111082, lon.=103.820526, Alt.=788.555176m. Speed=31.968000m/h.</desc>
<speed>8.880000</speed>
</trkpt>
<trkpt lat="22.111132" lon="103.820885">
<ele>786.945801</ele>
<time>2011-04-25T09:58:10Z</time>
<desc>lat.=22.111132, lon.=103.820885, Alt.=786.945801m. Speed=31.500000m/h.</desc>
<speed>8.750000</speed>
</trkpt>
<trkpt lat="22.111494" lon="103.821159">
<ele>783.805176</ele>
<time>2011-04-25T09:58:15Z</time>
<desc>lat.=22.111494, lon.=103.821159, Alt.=783.805176m. Speed=39.419998m/h.</desc>
<speed>10.949999</speed>
</trkpt>
<trkpt lat="22.111929" lon="103.821480">
<ele>779.852051</ele>
<time>2011-04-25T09:58:20Z</time>
<desc>lat.=22.111929, lon.=103.821480, Alt.=779.852051m. Speed=35.675999m/h.</desc>
<speed>9.910000</speed>
</trkpt>
<trkpt lat="22.111996" lon="103.821907">
<ele>775.930176</ele>
<time>2011-04-25T09:58:25Z</time>
<desc>lat.=22.111996, lon.=103.821907, Alt.=775.930176m. Speed=30.167999m/h.</desc>
<speed>8.380000</speed>
</trkpt>
<trkpt lat="22.111639" lon="103.822182">
<ele>771.039551</ele>
<time>2011-04-25T09:58:30Z</time>
<desc>lat.=22.111639, lon.=103.822182, Alt.=771.039551m. Speed=36.216000m/h.</desc>
<speed>10.060000</speed>
</trkpt>
<trkpt lat="22.111252" lon="103.822479">
<ele>767.711426</ele>
<time>2011-04-25T09:58:35Z</time>
<desc>lat.=22.111252, lon.=103.822479, Alt.=767.711426m. Speed=39.492001m/h.</desc>
<speed>10.970000</speed>
</trkpt>
<trkpt lat="22.110762" lon="103.822456">
<ele>764.898926</ele>
<time>2011-04-25T09:58:40Z</time>
<desc>lat.=22.110762, lon.=103.822456, Alt.=764.898926m. Speed=40.139999m/h.</desc>
<speed>11.150000</speed>
</trkpt>
<trkpt lat="22.110287" lon="103.822617">
<ele>760.789551</ele>
<time>2011-04-25T09:58:45Z</time>
<desc>lat.=22.110287, lon.=103.822617, Alt.=760.789551m. Speed=38.231998m/h.</desc>
<speed>10.620000</speed>
</trkpt>
<trkpt lat="22.109779" lon="103.822578">
<ele>757.273926</ele>
<time>2011-04-25T09:58:50Z</time>
<desc>lat.=22.109779, lon.=103.822578, Alt.=757.273926m. Speed=43.667999m/h.</desc>
<speed>12.130000</speed>
</trkpt>
<trkpt lat="22.109287" lon="103.822746">
<ele>753.523926</ele>
<time>2011-04-25T09:58:55Z</time>
<desc>lat.=22.109287, lon.=103.822746, Alt.=753.523926m. Speed=35.604000m/h.</desc>
<speed>9.890000</speed>
</trkpt>
<trkpt lat="22.108961" lon="103.822777">
<ele>751.055176</ele>
<time>2011-04-25T09:59:00Z</time>
<desc>lat.=22.108961, lon.=103.822777, Alt.=751.055176m. Speed=22.788000m/h.</desc>
<speed>6.330000</speed>
</trkpt>
<trkpt lat="22.108669" lon="103.822739">
<ele>748.727051</ele>
<time>2011-04-25T09:59:05Z</time>
<desc>lat.=22.108669, lon.=103.822739, Alt.=748.727051m. Speed=25.848000m/h.</desc>
<speed>7.180000</speed>
</trkpt>
<trkpt lat="22.108286" lon="103.822823">
<ele>745.727051</ele>
<time>2011-04-25T09:59:10Z</time>
<desc>lat.=22.108286, lon.=103.822823, Alt.=745.727051m. Speed=34.919998m/h.</desc>
<speed>9.699999</speed>
</trkpt>
<trkpt lat="22.107851" lon="103.823090">
<ele>742.430176</ele>
<time>2011-04-25T09:59:15Z</time>
<desc>lat.=22.107851, lon.=103.823090, Alt.=742.430176m. Speed=40.896000m/h.</desc>
<speed>11.360000</speed>
</trkpt>
<trkpt lat="22.107307" lon="103.823227">
<ele>739.414551</ele>
<time>2011-04-25T09:59:20Z</time>
<desc>lat.=22.107307, lon.=103.823227, Alt.=739.414551m. Speed=47.591999m/h.</desc>
<speed>13.220000</speed>
</trkpt>
<trkpt lat="22.106661" lon="103.823296">
<ele>734.648926</ele>
<time>2011-04-25T09:59:25Z</time>
<desc>lat.=22.106661, lon.=103.823296, Alt.=734.648926m. Speed=53.316002m/h.</desc>
<speed>14.810001</speed>
</trkpt>
<trkpt lat="22.106026" lon="103.823410">
<ele>729.180176</ele>
<time>2011-04-25T09:59:30Z</time>
<desc>lat.=22.106026, lon.=103.823410, Alt.=729.180176m. Speed=45.216000m/h.</desc>
<speed>12.560000</speed>
</trkpt>
<trkpt lat="22.105518" lon="103.823532">
<ele>725.898926</ele>
<time>2011-04-25T09:59:35Z</time>
<desc>lat.=22.105518, lon.=103.823532, Alt.=725.898926m. Speed=42.408001m/h.</desc>
<speed>11.780000</speed>
</trkpt>
<trkpt lat="22.105179" lon="103.823982">
<ele>717.398926</ele>
<time>2011-04-25T09:59:40Z</time>
<desc>lat.=22.105179, lon.=103.823982, Alt.=717.398926m. Speed=42.804001m/h.</desc>
<speed>11.890000</speed>
</trkpt>
<trkpt lat="22.105286" lon="103.824524">
<ele>713.617676</ele>
<time>2011-04-25T09:59:45Z</time>
<desc>lat.=22.105286, lon.=103.824524, Alt.=713.617676m. Speed=45.827999m/h.</desc>
<speed>12.730000</speed>
</trkpt>
<trkpt lat="22.105518" lon="103.825050">
<ele>711.148926</ele>
<time>2011-04-25T09:59:50Z</time>
<desc>lat.=22.105518, lon.=103.825050, Alt.=711.148926m. Speed=40.967999m/h.</desc>
<speed>11.380000</speed>
</trkpt>
<trkpt lat="22.105339" lon="103.825279">
<ele>707.852051</ele>
<time>2011-04-25T09:59:55Z</time>
<desc>lat.=22.105339, lon.=103.825279, Alt.=707.852051m. Speed=27.900000m/h.</desc>
<speed>7.750000</speed>
</trkpt>
<trkpt lat="22.104958" lon="103.825180">
<ele>706.258301</ele>
<time>2011-04-25T10:00:00Z</time>
<desc>lat.=22.104958, lon.=103.825180, Alt.=706.258301m. Speed=34.596001m/h.</desc>
<speed>9.610000</speed>
</trkpt>
<trkpt lat="22.104464" lon="103.825043">
<ele>703.789551</ele>
<time>2011-04-25T10:00:05Z</time>
<desc>lat.=22.104464, lon.=103.825043, Alt.=703.789551m. Speed=43.452000m/h.</desc>
<speed>12.070000</speed>
</trkpt>
<trkpt lat="22.103899" lon="103.824928">
<ele>700.414551</ele>
<time>2011-04-25T10:00:10Z</time>
<desc>lat.=22.103899, lon.=103.824928, Alt.=700.414551m. Speed=41.580002m/h.</desc>
<speed>11.550001</speed>
</trkpt>
<trkpt lat="22.103584" lon="103.824959">
<ele>696.320801</ele>
<time>2011-04-25T10:00:15Z</time>
<desc>lat.=22.103584, lon.=103.824959, Alt.=696.320801m. Speed=8.928000m/h.</desc>
<speed>2.480000</speed>
</trkpt>
<trkpt lat="22.103556" lon="103.824966">
<ele>695.383301</ele>
<time>2011-04-25T10:00:20Z</time>
<desc>lat.=22.103556, lon.=103.824966, Alt.=695.383301m. Speed=0.540000m/h.</desc>
<speed>0.150000</speed>
</trkpt>
<trkpt lat="22.103556" lon="103.824959">
<ele>695.055176</ele>
<time>2011-04-25T10:00:25Z</time>
<desc>lat.=22.103556, lon.=103.824959, Alt.=695.055176m. Speed=0.216000m/h.</desc>
<speed>0.060000</speed>
</trkpt>
<trkpt lat="22.103556" lon="103.824966">
<ele>694.930176</ele>
<time>2011-04-25T10:00:30Z</time>
<desc>lat.=22.103556, lon.=103.824966, Alt.=694.930176m. Speed=0.108000m/h.</desc>
<speed>0.030000</speed>
</trkpt>
<trkpt lat="22.103556" lon="103.824959">
<ele>694.852051</ele>
<time>2011-04-25T10:00:35Z</time>
<desc>lat.=22.103556, lon.=103.824959, Alt.=694.852051m. Speed=0.036000m/h.</desc>
<speed>0.010000</speed>
</trkpt>
<trkpt lat="22.103556" lon="103.824959">
<ele>694.820801</ele>
<time>2011-04-25T10:00:40Z</time>
<desc>lat.=22.103556, lon.=103.824959, Alt.=694.820801m. Speed=0.108000m/h.</desc>
<speed>0.030000</speed>
</trkpt>
<trkpt lat="22.103554" lon="103.824959">
<ele>694.852051</ele>
<time>2011-04-25T10:00:45Z</time>
<desc>lat.=22.103554, lon.=103.824959, Alt.=694.852051m. Speed=0.396000m/h.</desc>
<speed>0.110000</speed>
</trkpt>
<trkpt lat="22.103556" lon="103.824966">
<ele>694.836426</ele>
<time>2011-04-25T10:00:50Z</time>
<desc>lat.=22.103556, lon.=103.824966, Alt.=694.836426m. Speed=0.036000m/h.</desc>
<speed>0.010000</speed>
</trkpt>
<trkpt lat="22.103556" lon="103.824966">
<ele>694.820801</ele>
<time>2011-04-25T10:00:55Z</time>
<desc>lat.=22.103556, lon.=103.824966, Alt.=694.820801m. Speed=0.108000m/h.</desc>
<speed>0.030000</speed>
</trkpt>
<trkpt lat="22.103556" lon="103.824966">
<ele>694.820801</ele>
<time>2011-04-25T10:01:00Z</time>
<desc>lat.=22.103556, lon.=103.824966, Alt.=694.820801m. Speed=0.000000m/h.</desc>
<speed>0.000000</speed>
</trkpt>
<trkpt lat="22.103556" lon="103.824966">
<ele>694.820801</ele>
<time>2011-04-25T10:01:05Z</time>
<desc>lat.=22.103556, lon.=103.824966, Alt.=694.820801m. Speed=0.000000m/h.</desc>
<speed>0.000000</speed>
</trkpt>
<trkpt lat="22.103556" lon="103.824966">
<ele>694.852051</ele>
<time>2011-04-25T10:01:10Z</time>
<desc>lat.=22.103556, lon.=103.824966, Alt.=694.852051m. Speed=0.000000m/h.</desc>
<speed>0.000000</speed>
</trkpt>
<trkpt lat="22.103556" lon="103.824966">
<ele>694.867676</ele>
<time>2011-04-25T10:01:15Z</time>
<desc>lat.=22.103556, lon.=103.824966, Alt.=694.867676m. Speed=0.000000m/h.</desc>
<speed>0.000000</speed>
</trkpt>
<trkpt lat="22.103556" lon="103.824966">
<ele>694.914551</ele>
<time>2011-04-25T10:01:20Z</time>
<desc>lat.=22.103556, lon.=103.824966, Alt.=694.914551m. Speed=0.000000m/h.</desc>
<speed>0.000000</speed>
</trkpt>
<trkpt lat="22.103554" lon="103.824966">
<ele>694.930176</ele>
<time>2011-04-25T10:01:25Z</time>
<desc>lat.=22.103554, lon.=103.824966, Alt.=694.930176m. Speed=0.000000m/h.</desc>
<speed>0.000000</speed>
</trkpt>
<trkpt lat="22.103554" lon="103.824966">
<ele>694.945801</ele>
<time>2011-04-25T10:01:30Z</time>
<desc>lat.=22.103554, lon.=103.824966, Alt.=694.945801m. Speed=0.000000m/h.</desc>
<speed>0.000000</speed>
</trkpt>
<trkpt lat="22.103554" lon="103.824966">
<ele>694.961426</ele>
<time>2011-04-25T10:01:35Z</time>
<desc>lat.=22.103554, lon.=103.824966, Alt.=694.961426m. Speed=0.000000m/h.</desc>
<speed>0.000000</speed>
</trkpt>
<trkpt lat="22.103554" lon="103.824966">
<ele>694.992676</ele>
<time>2011-04-25T10:01:40Z</time>
<desc>lat.=22.103554, lon.=103.824966, Alt.=694.992676m. Speed=0.000000m/h.</desc>
<speed>0.000000</speed>
</trkpt>
<trkpt lat="22.103554" lon="103.824966">
<ele>695.008301</ele>
<time>2011-04-25T10:01:45Z</time>
<desc>lat.=22.103554, lon.=103.824966, Alt.=695.008301m. Speed=0.000000m/h.</desc>
<speed>0.000000</speed>
</trkpt>
<trkpt lat="22.103554" lon="103.824959">
<ele>694.977051</ele>
<time>2011-04-25T10:01:50Z</time>
<desc>lat.=22.103554, lon.=103.824959, Alt.=694.977051m. Speed=0.000000m/h.</desc>
<speed>0.000000</speed>
</trkpt>
<trkpt lat="22.103554" lon="103.824959">
<ele>694.992676</ele>
<time>2011-04-25T10:01:55Z</time>
<desc>lat.=22.103554, lon.=103.824959, Alt.=694.992676m. Speed=0.000000m/h.</desc>
<speed>0.000000</speed>
</trkpt>
<trkpt lat="22.103554" lon="103.824959">
<ele>695.008301</ele>
<time>2011-04-25T10:02:00Z</time>
<desc>lat.=22.103554, lon.=103.824959, Alt.=695.008301m. Speed=0.144000m/h.</desc>
<speed>0.040000</speed>
</trkpt>
<trkpt lat="22.103558" lon="103.824959">
<ele>695.680176</ele>
<time>2011-04-25T10:02:05Z</time>
<desc>lat.=22.103558, lon.=103.824959, Alt.=695.680176m. Speed=0.000000m/h.</desc>
<speed>0.000000</speed>
</trkpt>
<trkpt lat="22.103554" lon="103.824951">
<ele>696.680176</ele>
<time>2011-04-25T10:02:10Z</time>
<desc>lat.=22.103554, lon.=103.824951, Alt.=696.680176m. Speed=0.036000m/h.</desc>
<speed>0.010000</speed>
</trkpt>
<trkpt lat="22.103550" lon="103.824951">
<ele>696.789551</ele>
<time>2011-04-25T10:02:15Z</time>
<desc>lat.=22.103550, lon.=103.824951, Alt.=696.789551m. Speed=0.000000m/h.</desc>
<speed>0.000000</speed>
</trkpt>
<trkpt lat="22.103544" lon="103.824951">
<ele>696.289551</ele>
<time>2011-04-25T10:02:20Z</time>
<desc>lat.=22.103544, lon.=103.824951, Alt.=696.289551m. Speed=0.036000m/h.</desc>
<speed>0.010000</speed>
</trkpt>
<trkpt lat="22.103540" lon="103.824944">
<ele>695.633301</ele>
<time>2011-04-25T10:02:25Z</time>
<desc>lat.=22.103540, lon.=103.824944, Alt.=695.633301m. Speed=0.000000m/h.</desc>
<speed>0.000000</speed>
</trkpt>
<trkpt lat="22.103539" lon="103.824944">
<ele>695.398926</ele>
<time>2011-04-25T10:02:30Z</time>
<desc>lat.=22.103539, lon.=103.824944, Alt.=695.398926m. Speed=0.000000m/h.</desc>
<speed>0.000000</speed>
</trkpt>
<trkpt lat="22.103537" lon="103.824944">
<ele>694.898926</ele>
<time>2011-04-25T10:02:35Z</time>
<desc>lat.=22.103537, lon.=103.824944, Alt.=694.898926m. Speed=0.036000m/h.</desc>
<speed>0.010000</speed>
</trkpt>
<trkpt lat="22.103539" lon="103.824944">
<ele>694.773926</ele>
<time>2011-04-25T10:02:40Z</time>
<desc>lat.=22.103539, lon.=103.824944, Alt.=694.773926m. Speed=0.072000m/h.</desc>
<speed>0.020000</speed>
</trkpt>
<trkpt lat="22.103542" lon="103.824944">
<ele>695.055176</ele>
<time>2011-04-25T10:02:45Z</time>
<desc>lat.=22.103542, lon.=103.824944, Alt.=695.055176m. Speed=0.396000m/h.</desc>
<speed>0.110000</speed>
</trkpt>
<trkpt lat="22.103539" lon="103.824944">
<ele>694.852051</ele>
<time>2011-04-25T10:02:50Z</time>
<desc>lat.=22.103539, lon.=103.824944, Alt.=694.852051m. Speed=0.108000m/h.</desc>
<speed>0.030000</speed>
</trkpt>
<trkpt lat="22.103539" lon="103.824944">
<ele>694.836426</ele>
<time>2011-04-25T10:02:55Z</time>
<desc>lat.=22.103539, lon.=103.824944, Alt.=694.836426m. Speed=0.000000m/h.</desc>
<speed>0.000000</speed>
</trkpt>
<trkpt lat="22.103539" lon="103.824944">
<ele>694.820801</ele>
<time>2011-04-25T10:03:00Z</time>
<desc>lat.=22.103539, lon.=103.824944, Alt.=694.820801m. Speed=0.000000m/h.</desc>
<speed>0.000000</speed>
</trkpt>
<trkpt lat="22.103539" lon="103.824944">
<ele>694.805176</ele>
<time>2011-04-25T10:03:05Z</time>
<desc>lat.=22.103539, lon.=103.824944, Alt.=694.805176m. Speed=0.036000m/h.</desc>
<speed>0.010000</speed>
</trkpt>
<trkpt lat="22.103539" lon="103.824944">
<ele>694.805176</ele>
<time>2011-04-25T10:03:10Z</time>
<desc>lat.=22.103539, lon.=103.824944, Alt.=694.805176m. Speed=0.000000m/h.</desc>
<speed>0.000000</speed>
</trkpt>
<trkpt lat="22.103539" lon="103.824944">
<ele>694.805176</ele>
<time>2011-04-25T10:03:15Z</time>
<desc>lat.=22.103539, lon.=103.824944, Alt.=694.805176m. Speed=0.036000m/h.</desc>
<speed>0.010000</speed>
</trkpt>
<trkpt lat="22.103540" lon="103.824936">
<ele>694.789551</ele>
<time>2011-04-25T10:03:20Z</time>
<desc>lat.=22.103540, lon.=103.824936, Alt.=694.789551m. Speed=0.036000m/h.</desc>
<speed>0.010000</speed>
</trkpt>
<trkpt lat="22.103540" lon="103.824936">
<ele>694.758301</ele>
<time>2011-04-25T10:03:25Z</time>
<desc>lat.=22.103540, lon.=103.824936, Alt.=694.758301m. Speed=0.000000m/h.</desc>
<speed>0.000000</speed>
</trkpt>
<trkpt lat="22.103540" lon="103.824936">
<ele>694.711426</ele>
<time>2011-04-25T10:03:30Z</time>
<desc>lat.=22.103540, lon.=103.824936, Alt.=694.711426m. Speed=0.000000m/h.</desc>
<speed>0.000000</speed>
</trkpt>
<trkpt lat="22.103540" lon="103.824936">
<ele>694.664551</ele>
<time>2011-04-25T10:03:35Z</time>
<desc>lat.=22.103540, lon.=103.824936, Alt.=694.664551m. Speed=0.000000m/h.</desc>
<speed>0.000000</speed>
</trkpt>
<trkpt lat="22.103540" lon="103.824936">
<ele>694.648926</ele>
<time>2011-04-25T10:03:40Z</time>
<desc>lat.=22.103540, lon.=103.824936, Alt.=694.648926m. Speed=0.000000m/h.</desc>
<speed>0.000000</speed>
</trkpt>
<trkpt lat="22.103542" lon="103.824936">
<ele>694.617676</ele>
<time>2011-04-25T10:03:45Z</time>
<desc>lat.=22.103542, lon.=103.824936, Alt.=694.617676m. Speed=0.000000m/h.</desc>
<speed>0.000000</speed>
</trkpt>
<trkpt lat="22.103542" lon="103.824936">
<ele>694.586426</ele>
<time>2011-04-25T10:03:50Z</time>
<desc>lat.=22.103542, lon.=103.824936, Alt.=694.586426m. Speed=0.000000m/h.</desc>
<speed>0.000000</speed>
</trkpt>
<trkpt lat="22.103542" lon="103.824936">
<ele>694.523926</ele>
<time>2011-04-25T10:03:55Z</time>
<desc>lat.=22.103542, lon.=103.824936, Alt.=694.523926m. Speed=0.036000m/h.</desc>
<speed>0.010000</speed>
</trkpt>
<trkpt lat="22.103542" lon="103.824936">
<ele>694.492676</ele>
<time>2011-04-25T10:04:00Z</time>
<desc>lat.=22.103542, lon.=103.824936, Alt.=694.492676m. Speed=0.072000m/h.</desc>
<speed>0.020000</speed>
</trkpt>
<trkpt lat="22.103542" lon="103.824936">
<ele>694.477051</ele>
<time>2011-04-25T10:04:05Z</time>
<desc>lat.=22.103542, lon.=103.824936, Alt.=694.477051m. Speed=0.000000m/h.</desc>
<speed>0.000000</speed>
</trkpt>
<trkpt lat="22.103542" lon="103.824936">
<ele>694.445801</ele>
<time>2011-04-25T10:04:10Z</time>
<desc>lat.=22.103542, lon.=103.824936, Alt.=694.445801m. Speed=0.000000m/h.</desc>
<speed>0.000000</speed>
</trkpt>
<trkpt lat="22.103542" lon="103.824936">
<ele>694.445801</ele>
<time>2011-04-25T10:04:15Z</time>
<desc>lat.=22.103542, lon.=103.824936, Alt.=694.445801m. Speed=0.036000m/h.</desc>
<speed>0.010000</speed>
</trkpt>
<trkpt lat="22.103542" lon="103.824936">
<ele>694.430176</ele>
<time>2011-04-25T10:04:20Z</time>
<desc>lat.=22.103542, lon.=103.824936, Alt.=694.430176m. Speed=0.000000m/h.</desc>
<speed>0.000000</speed>
</trkpt>
<trkpt lat="22.103542" lon="103.824936">
<ele>694.398926</ele>
<time>2011-04-25T10:04:25Z</time>
<desc>lat.=22.103542, lon.=103.824936, Alt.=694.398926m. Speed=0.036000m/h.</desc>
<speed>0.010000</speed>
</trkpt>
<trkpt lat="22.103542" lon="103.824936">
<ele>694.383301</ele>
<time>2011-04-25T10:04:30Z</time>
<desc>lat.=22.103542, lon.=103.824936, Alt.=694.383301m. Speed=0.000000m/h.</desc>
<speed>0.000000</speed>
</trkpt>
<trkpt lat="22.103542" lon="103.824936">
<ele>694.383301</ele>
<time>2011-04-25T10:04:35Z</time>
<desc>lat.=22.103542, lon.=103.824936, Alt.=694.383301m. Speed=0.000000m/h.</desc>
<speed>0.000000</speed>
</trkpt>
<trkpt lat="22.103542" lon="103.824936">
<ele>694.367676</ele>
<time>2011-04-25T10:04:40Z</time>
<desc>lat.=22.103542, lon.=103.824936, Alt.=694.367676m. Speed=0.000000m/h.</desc>
<speed>0.000000</speed>
</trkpt>
<trkpt lat="22.103542" lon="103.824936">
<ele>694.352051</ele>
<time>2011-04-25T10:04:45Z</time>
<desc>lat.=22.103542, lon.=103.824936, Alt.=694.352051m. Speed=0.036000m/h.</desc>
<speed>0.010000</speed>
</trkpt>
<trkpt lat="22.103542" lon="103.824936">
<ele>694.352051</ele>
<time>2011-04-25T10:04:50Z</time>
<desc>lat.=22.103542, lon.=103.824936, Alt.=694.352051m. Speed=0.000000m/h.</desc>
<speed>0.000000</speed>
</trkpt>
<trkpt lat="22.103542" lon="103.824936">
<ele>694.336426</ele>
<time>2011-04-25T10:04:55Z</time>
<desc>lat.=22.103542, lon.=103.824936, Alt.=694.336426m. Speed=0.036000m/h.</desc>
<speed>0.010000</speed>
</trkpt>
<trkpt lat="22.103542" lon="103.824936">
<ele>694.305176</ele>
<time>2011-04-25T10:05:00Z</time>
<desc>lat.=22.103542, lon.=103.824936, Alt.=694.305176m. Speed=0.000000m/h.</desc>
<speed>0.000000</speed>
</trkpt>
<trkpt lat="22.103542" lon="103.824936">
<ele>694.289551</ele>
<time>2011-04-25T10:05:05Z</time>
<desc>lat.=22.103542, lon.=103.824936, Alt.=694.289551m. Speed=0.036000m/h.</desc>
<speed>0.010000</speed>
</trkpt>
<trkpt lat="22.103542" lon="103.824936">
<ele>694.273926</ele>
<time>2011-04-25T10:05:10Z</time>
<desc>lat.=22.103542, lon.=103.824936, Alt.=694.273926m. Speed=0.000000m/h.</desc>
<speed>0.000000</speed>
</trkpt>
<trkpt lat="22.103542" lon="103.824936">
<ele>694.305176</ele>
<time>2011-04-25T10:05:15Z</time>
<desc>lat.=22.103542, lon.=103.824936, Alt.=694.305176m. Speed=0.036000m/h.</desc>
<speed>0.010000</speed>
</trkpt>
<trkpt lat="22.103542" lon="103.824936">
<ele>694.289551</ele>
<time>2011-04-25T10:05:20Z</time>
<desc>lat.=22.103542, lon.=103.824936, Alt.=694.289551m. Speed=0.000000m/h.</desc>
<speed>0.000000</speed>
</trkpt>
<trkpt lat="22.103544" lon="103.824936">
<ele>694.258301</ele>
<time>2011-04-25T10:05:25Z</time>
<desc>lat.=22.103544, lon.=103.824936, Alt.=694.258301m. Speed=0.000000m/h.</desc>
<speed>0.000000</speed>
</trkpt>
<trkpt lat="22.103544" lon="103.824936">
<ele>694.242676</ele>
<time>2011-04-25T10:05:30Z</time>
<desc>lat.=22.103544, lon.=103.824936, Alt.=694.242676m. Speed=0.000000m/h.</desc>
<speed>0.000000</speed>
</trkpt>
<trkpt lat="22.103544" lon="103.824936">
<ele>694.211426</ele>
<time>2011-04-25T10:05:35Z</time>
<desc>lat.=22.103544, lon.=103.824936, Alt.=694.211426m. Speed=0.036000m/h.</desc>
<speed>0.010000</speed>
</trkpt>
<trkpt lat="22.103544" lon="103.824936">
<ele>694.195801</ele>
<time>2011-04-25T10:05:40Z</time>
<desc>lat.=22.103544, lon.=103.824936, Alt.=694.195801m. Speed=0.000000m/h.</desc>
<speed>0.000000</speed>
</trkpt>
<trkpt lat="22.103544" lon="103.824936">
<ele>694.164551</ele>
<time>2011-04-25T10:05:45Z</time>
<desc>lat.=22.103544, lon.=103.824936, Alt.=694.164551m. Speed=0.000000m/h.</desc>
<speed>0.000000</speed>
</trkpt>
<trkpt lat="22.103544" lon="103.824936">
<ele>694.086426</ele>
<time>2011-04-25T10:05:50Z</time>
<desc>lat.=22.103544, lon.=103.824936, Alt.=694.086426m. Speed=0.036000m/h.</desc>
<speed>0.010000</speed>
</trkpt>
<trkpt lat="22.103544" lon="103.824936">
<ele>694.039551</ele>
<time>2011-04-25T10:05:55Z</time>
<desc>lat.=22.103544, lon.=103.824936, Alt.=694.039551m. Speed=0.000000m/h.</desc>
<speed>0.000000</speed>
</trkpt>
<trkpt lat="22.103544" lon="103.824936">
<ele>694.008301</ele>
<time>2011-04-25T10:06:00Z</time>
<desc>lat.=22.103544, lon.=103.824936, Alt.=694.008301m. Speed=0.036000m/h.</desc>
<speed>0.010000</speed>
</trkpt>
<trkpt lat="22.103544" lon="103.824936">
<ele>694.008301</ele>
<time>2011-04-25T10:06:05Z</time>
<desc>lat.=22.103544, lon.=103.824936, Alt.=694.008301m. Speed=0.000000m/h.</desc>
<speed>0.000000</speed>
</trkpt>
<trkpt lat="22.103544" lon="103.824936">
<ele>693.961426</ele>
<time>2011-04-25T10:06:10Z</time>
<desc>lat.=22.103544, lon.=103.824936, Alt.=693.961426m. Speed=0.000000m/h.</desc>
<speed>0.000000</speed>
</trkpt>
<trkpt lat="22.103544" lon="103.824936">
<ele>693.930176</ele>
<time>2011-04-25T10:06:15Z</time>
<desc>lat.=22.103544, lon.=103.824936, Alt.=693.930176m. Speed=0.036000m/h.</desc>
<speed>0.010000</speed>
</trkpt>
<trkpt lat="22.103544" lon="103.824936">
<ele>693.898926</ele>
<time>2011-04-25T10:06:20Z</time>
<desc>lat.=22.103544, lon.=103.824936, Alt.=693.898926m. Speed=0.000000m/h.</desc>
<speed>0.000000</speed>
</trkpt>
<trkpt lat="22.103544" lon="103.824936">
<ele>693.852051</ele>
<time>2011-04-25T10:06:25Z</time>
<desc>lat.=22.103544, lon.=103.824936, Alt.=693.852051m. Speed=0.000000m/h.</desc>
<speed>0.000000</speed>
</trkpt>
<trkpt lat="22.103544" lon="103.824936">
<ele>693.867676</ele>
<time>2011-04-25T10:06:30Z</time>
<desc>lat.=22.103544, lon.=103.824936, Alt.=693.867676m. Speed=0.000000m/h.</desc>
<speed>0.000000</speed>
</trkpt>
<trkpt lat="22.103544" lon="103.824936">
<ele>693.852051</ele>
<time>2011-04-25T10:06:35Z</time>
<desc>lat.=22.103544, lon.=103.824936, Alt.=693.852051m. Speed=0.000000m/h.</desc>
<speed>0.000000</speed>
</trkpt>
<trkpt lat="22.103544" lon="103.824936">
<ele>693.852051</ele>
<time>2011-04-25T10:06:40Z</time>
<desc>lat.=22.103544, lon.=103.824936, Alt.=693.852051m. Speed=0.036000m/h.</desc>
<speed>0.010000</speed>
</trkpt>
<trkpt lat="22.103544" lon="103.824936">
<ele>693.852051</ele>
<time>2011-04-25T10:06:45Z</time>
<desc>lat.=22.103544, lon.=103.824936, Alt.=693.852051m. Speed=0.036000m/h.</desc>
<speed>0.010000</speed>
</trkpt>
<trkpt lat="22.103546" lon="103.824936">
<ele>693.836426</ele>
<time>2011-04-25T10:06:50Z</time>
<desc>lat.=22.103546, lon.=103.824936, Alt.=693.836426m. Speed=0.036000m/h.</desc>
<speed>0.010000</speed>
</trkpt>
<trkpt lat="22.103546" lon="103.824936">
<ele>693.820801</ele>
<time>2011-04-25T10:06:55Z</time>
<desc>lat.=22.103546, lon.=103.824936, Alt.=693.820801m. Speed=0.036000m/h.</desc>
<speed>0.010000</speed>
</trkpt>
<trkpt lat="22.103544" lon="103.824936">
<ele>693.805176</ele>
<time>2011-04-25T10:07:00Z</time>
<desc>lat.=22.103544, lon.=103.824936, Alt.=693.805176m. Speed=0.000000m/h.</desc>
<speed>0.000000</speed>
</trkpt>
<trkpt lat="22.103544" lon="103.824936">
<ele>693.805176</ele>
<time>2011-04-25T10:07:05Z</time>
<desc>lat.=22.103544, lon.=103.824936, Alt.=693.805176m. Speed=0.000000m/h.</desc>
<speed>0.000000</speed>
</trkpt>
<trkpt lat="22.103544" lon="103.824936">
<ele>693.789551</ele>
<time>2011-04-25T10:07:10Z</time>
<desc>lat.=22.103544, lon.=103.824936, Alt.=693.789551m. Speed=0.036000m/h.</desc>
<speed>0.010000</speed>
</trkpt>
<trkpt lat="22.103544" lon="103.824936">
<ele>693.773926</ele>
<time>2011-04-25T10:07:15Z</time>
<desc>lat.=22.103544, lon.=103.824936, Alt.=693.773926m. Speed=0.036000m/h.</desc>
<speed>0.010000</speed>
</trkpt>
<trkpt lat="22.103544" lon="103.824936">
<ele>693.758301</ele>
<time>2011-04-25T10:07:20Z</time>
<desc>lat.=22.103544, lon.=103.824936, Alt.=693.758301m. Speed=0.036000m/h.</desc>
<speed>0.010000</speed>
</trkpt>
<trkpt lat="22.103546" lon="103.824936">
<ele>693.727051</ele>
<time>2011-04-25T10:07:25Z</time>
<desc>lat.=22.103546, lon.=103.824936, Alt.=693.727051m. Speed=0.036000m/h.</desc>
<speed>0.010000</speed>
</trkpt>
<trkpt lat="22.103546" lon="103.824936">
<ele>693.727051</ele>
<time>2011-04-25T10:07:30Z</time>
<desc>lat.=22.103546, lon.=103.824936, Alt.=693.727051m. Speed=0.036000m/h.</desc>
<speed>0.010000</speed>
</trkpt>
<trkpt lat="22.103546" lon="103.824936">
<ele>693.727051</ele>
<time>2011-04-25T10:07:35Z</time>
<desc>lat.=22.103546, lon.=103.824936, Alt.=693.727051m. Speed=0.036000m/h.</desc>
<speed>0.010000</speed>
</trkpt>
<trkpt lat="22.103546" lon="103.824936">
<ele>693.711426</ele>
<time>2011-04-25T10:07:40Z</time>
<desc>lat.=22.103546, lon.=103.824936, Alt.=693.711426m. Speed=0.000000m/h.</desc>
<speed>0.000000</speed>
</trkpt>
<trkpt lat="22.103546" lon="103.824936">
<ele>693.695801</ele>
<time>2011-04-25T10:07:45Z</time>
<desc>lat.=22.103546, lon.=103.824936, Alt.=693.695801m. Speed=0.000000m/h.</desc>
<speed>0.000000</speed>
</trkpt>
<trkpt lat="22.103546" lon="103.824936">
<ele>693.695801</ele>
<time>2011-04-25T10:07:50Z</time>
<desc>lat.=22.103546, lon.=103.824936, Alt.=693.695801m. Speed=0.036000m/h.</desc>
<speed>0.010000</speed>
</trkpt>
<trkpt lat="22.103546" lon="103.824936">
<ele>693.680176</ele>
<time>2011-04-25T10:07:55Z</time>
<desc>lat.=22.103546, lon.=103.824936, Alt.=693.680176m. Speed=0.000000m/h.</desc>
<speed>0.000000</speed>
</trkpt>
<trkpt lat="22.103546" lon="103.824936">
<ele>693.664551</ele>
<time>2011-04-25T10:08:00Z</time>
<desc>lat.=22.103546, lon.=103.824936, Alt.=693.664551m. Speed=0.036000m/h.</desc>
<speed>0.010000</speed>
</trkpt>
<trkpt lat="22.103546" lon="103.824936">
<ele>693.648926</ele>
<time>2011-04-25T10:08:05Z</time>
<desc>lat.=22.103546, lon.=103.824936, Alt.=693.648926m. Speed=0.036000m/h.</desc>
<speed>0.010000</speed>
</trkpt>
<trkpt lat="22.103546" lon="103.824936">
<ele>693.633301</ele>
<time>2011-04-25T10:08:10Z</time>
<desc>lat.=22.103546, lon.=103.824936, Alt.=693.633301m. Speed=0.000000m/h.</desc>
<speed>0.000000</speed>
</trkpt>
<trkpt lat="22.103546" lon="103.824936">
<ele>693.617676</ele>
<time>2011-04-25T10:08:15Z</time>
<desc>lat.=22.103546, lon.=103.824936, Alt.=693.617676m. Speed=0.000000m/h.</desc>
<speed>0.000000</speed>
</trkpt>
<trkpt lat="22.103546" lon="103.824936">
<ele>693.602051</ele>
<time>2011-04-25T10:08:20Z</time>
<desc>lat.=22.103546, lon.=103.824936, Alt.=693.602051m. Speed=0.000000m/h.</desc>
<speed>0.000000</speed>
</trkpt>
<trkpt lat="22.103546" lon="103.824936">
<ele>693.570801</ele>
<time>2011-04-25T10:08:25Z</time>
<desc>lat.=22.103546, lon.=103.824936, Alt.=693.570801m. Speed=0.036000m/h.</desc>
<speed>0.010000</speed>
</trkpt>
<trkpt lat="22.103546" lon="103.824936">
<ele>693.539551</ele>
<time>2011-04-25T10:08:30Z</time>
<desc>lat.=22.103546, lon.=103.824936, Alt.=693.539551m. Speed=0.000000m/h.</desc>
<speed>0.000000</speed>
</trkpt>
<trkpt lat="22.103546" lon="103.824928">
<ele>693.492676</ele>
<time>2011-04-25T10:08:35Z</time>
<desc>lat.=22.103546, lon.=103.824928, Alt.=693.492676m. Speed=0.036000m/h.</desc>
<speed>0.010000</speed>
</trkpt>
<trkpt lat="22.103546" lon="103.824928">
<ele>693.477051</ele>
<time>2011-04-25T10:08:40Z</time>
<desc>lat.=22.103546, lon.=103.824928, Alt.=693.477051m. Speed=0.036000m/h.</desc>
<speed>0.010000</speed>
</trkpt>
<trkpt lat="22.103546" lon="103.824928">
<ele>693.461426</ele>
<time>2011-04-25T10:08:45Z</time>
<desc>lat.=22.103546, lon.=103.824928, Alt.=693.461426m. Speed=0.036000m/h.</desc>
<speed>0.010000</speed>
</trkpt>
<trkpt lat="22.103546" lon="103.824928">
<ele>693.430176</ele>
<time>2011-04-25T10:08:50Z</time>
<desc>lat.=22.103546, lon.=103.824928, Alt.=693.430176m. Speed=0.036000m/h.</desc>
<speed>0.010000</speed>
</trkpt>
<trkpt lat="22.103546" lon="103.824928">
<ele>693.383301</ele>
<time>2011-04-25T10:08:55Z</time>
<desc>lat.=22.103546, lon.=103.824928, Alt.=693.383301m. Speed=0.000000m/h.</desc>
<speed>0.000000</speed>
</trkpt>
<trkpt lat="22.103546" lon="103.824928">
<ele>693.352051</ele>
<time>2011-04-25T10:09:00Z</time>
<desc>lat.=22.103546, lon.=103.824928, Alt.=693.352051m. Speed=0.036000m/h.</desc>
<speed>0.010000</speed>
</trkpt>
<trkpt lat="22.103546" lon="103.824928">
<ele>693.336426</ele>
<time>2011-04-25T10:09:05Z</time>
<desc>lat.=22.103546, lon.=103.824928, Alt.=693.336426m. Speed=0.036000m/h.</desc>
<speed>0.010000</speed>
</trkpt>
<trkpt lat="22.103546" lon="103.824928">
<ele>693.320801</ele>
<time>2011-04-25T10:09:10Z</time>
<desc>lat.=22.103546, lon.=103.824928, Alt.=693.320801m. Speed=0.036000m/h.</desc>
<speed>0.010000</speed>
</trkpt>
<trkpt lat="22.103546" lon="103.824928">
<ele>693.320801</ele>
<time>2011-04-25T10:09:15Z</time>
<desc>lat.=22.103546, lon.=103.824928, Alt.=693.320801m. Speed=0.000000m/h.</desc>
<speed>0.000000</speed>
</trkpt>
<trkpt lat="22.103546" lon="103.824928">
<ele>693.305176</ele>
<time>2011-04-25T10:09:20Z</time>
<desc>lat.=22.103546, lon.=103.824928, Alt.=693.305176m. Speed=0.036000m/h.</desc>
<speed>0.010000</speed>
</trkpt>
<trkpt lat="22.103546" lon="103.824928">
<ele>693.320801</ele>
<time>2011-04-25T10:09:25Z</time>
<desc>lat.=22.103546, lon.=103.824928, Alt.=693.320801m. Speed=0.036000m/h.</desc>
<speed>0.010000</speed>
</trkpt>
<trkpt lat="22.103546" lon="103.824928">
<ele>693.320801</ele>
<time>2011-04-25T10:09:30Z</time>
<desc>lat.=22.103546, lon.=103.824928, Alt.=693.320801m. Speed=0.036000m/h.</desc>
<speed>0.010000</speed>
</trkpt>
<trkpt lat="22.103546" lon="103.824928">
<ele>693.320801</ele>
<time>2011-04-25T10:09:35Z</time>
<desc>lat.=22.103546, lon.=103.824928, Alt.=693.320801m. Speed=0.000000m/h.</desc>
<speed>0.000000</speed>
</trkpt>
<trkpt lat="22.103546" lon="103.824928">
<ele>693.320801</ele>
<time>2011-04-25T10:09:40Z</time>
<desc>lat.=22.103546, lon.=103.824928, Alt.=693.320801m. Speed=0.000000m/h.</desc>
<speed>0.000000</speed>
</trkpt>
<trkpt lat="22.103546" lon="103.824928">
<ele>693.320801</ele>
<time>2011-04-25T10:09:45Z</time>
<desc>lat.=22.103546, lon.=103.824928, Alt.=693.320801m. Speed=0.036000m/h.</desc>
<speed>0.010000</speed>
</trkpt>
<trkpt lat="22.103546" lon="103.824928">
<ele>693.289551</ele>
<time>2011-04-25T10:09:50Z</time>
<desc>lat.=22.103546, lon.=103.824928, Alt.=693.289551m. Speed=0.036000m/h.</desc>
<speed>0.010000</speed>
</trkpt>
<trkpt lat="22.103546" lon="103.824928">
<ele>693.273926</ele>
<time>2011-04-25T10:09:55Z</time>
<desc>lat.=22.103546, lon.=103.824928, Alt.=693.273926m. Speed=0.036000m/h.</desc>
<speed>0.010000</speed>
</trkpt>
<trkpt lat="22.103546" lon="103.824928">
<ele>693.227051</ele>
<time>2011-04-25T10:10:00Z</time>
<desc>lat.=22.103546, lon.=103.824928, Alt.=693.227051m. Speed=0.036000m/h.</desc>
<speed>0.010000</speed>
</trkpt>
<trkpt lat="22.103546" lon="103.824928">
<ele>693.195801</ele>
<time>2011-04-25T10:10:05Z</time>
<desc>lat.=22.103546, lon.=103.824928, Alt.=693.195801m. Speed=0.000000m/h.</desc>
<speed>0.000000</speed>
</trkpt>
<trkpt lat="22.103546" lon="103.824928">
<ele>693.195801</ele>
<time>2011-04-25T10:10:10Z</time>
<desc>lat.=22.103546, lon.=103.824928, Alt.=693.195801m. Speed=0.036000m/h.</desc>
<speed>0.010000</speed>
</trkpt>
<trkpt lat="22.103546" lon="103.824928">
<ele>693.180176</ele>
<time>2011-04-25T10:10:15Z</time>
<desc>lat.=22.103546, lon.=103.824928, Alt.=693.180176m. Speed=0.036000m/h.</desc>
<speed>0.010000</speed>
</trkpt>
<trkpt lat="22.103546" lon="103.824928">
<ele>693.148926</ele>
<time>2011-04-25T10:10:20Z</time>
<desc>lat.=22.103546, lon.=103.824928, Alt.=693.148926m. Speed=0.000000m/h.</desc>
<speed>0.000000</speed>
</trkpt>
<trkpt lat="22.103546" lon="103.824928">
<ele>693.102051</ele>
<time>2011-04-25T10:10:25Z</time>
<desc>lat.=22.103546, lon.=103.824928, Alt.=693.102051m. Speed=0.036000m/h.</desc>
<speed>0.010000</speed>
</trkpt>
<trkpt lat="22.103546" lon="103.824928">
<ele>693.055176</ele>
<time>2011-04-25T10:10:30Z</time>
<desc>lat.=22.103546, lon.=103.824928, Alt.=693.055176m. Speed=0.036000m/h.</desc>
<speed>0.010000</speed>
</trkpt>
<trkpt lat="22.103546" lon="103.824928">
<ele>693.023926</ele>
<time>2011-04-25T10:10:35Z</time>
<desc>lat.=22.103546, lon.=103.824928, Alt.=693.023926m. Speed=0.036000m/h.</desc>
<speed>0.010000</speed>
</trkpt>
<trkpt lat="22.103546" lon="103.824928">
<ele>692.992676</ele>
<time>2011-04-25T10:10:40Z</time>
<desc>lat.=22.103546, lon.=103.824928, Alt.=692.992676m. Speed=0.000000m/h.</desc>
<speed>0.000000</speed>
</trkpt>
<trkpt lat="22.103546" lon="103.824928">
<ele>692.961426</ele>
<time>2011-04-25T10:10:45Z</time>
<desc>lat.=22.103546, lon.=103.824928, Alt.=692.961426m. Speed=0.000000m/h.</desc>
<speed>0.000000</speed>
</trkpt>
<trkpt lat="22.103546" lon="103.824928">
<ele>692.945801</ele>
<time>2011-04-25T10:10:50Z</time>
<desc>lat.=22.103546, lon.=103.824928, Alt.=692.945801m. Speed=0.000000m/h.</desc>
<speed>0.000000</speed>
</trkpt>
<trkpt lat="22.103548" lon="103.824936">
<ele>692.930176</ele>
<time>2011-04-25T10:10:55Z</time>
<desc>lat.=22.103548, lon.=103.824936, Alt.=692.930176m. Speed=0.000000m/h.</desc>
<speed>0.000000</speed>
</trkpt>
<trkpt lat="22.103546" lon="103.824928">
<ele>692.914551</ele>
<time>2011-04-25T10:11:00Z</time>
<desc>lat.=22.103546, lon.=103.824928, Alt.=692.914551m. Speed=0.000000m/h.</desc>
<speed>0.000000</speed>
</trkpt>
<trkpt lat="22.103546" lon="103.824928">
<ele>692.898926</ele>
<time>2011-04-25T10:11:05Z</time>
<desc>lat.=22.103546, lon.=103.824928, Alt.=692.898926m. Speed=0.000000m/h.</desc>
<speed>0.000000</speed>
</trkpt>
<trkpt lat="22.103546" lon="103.824928">
<ele>692.867676</ele>
<time>2011-04-25T10:11:10Z</time>
<desc>lat.=22.103546, lon.=103.824928, Alt.=692.867676m. Speed=0.000000m/h.</desc>
<speed>0.000000</speed>
</trkpt>
<trkpt lat="22.103546" lon="103.824928">
<ele>692.852051</ele>
<time>2011-04-25T10:11:15Z</time>
<desc>lat.=22.103546, lon.=103.824928, Alt.=692.852051m. Speed=0.036000m/h.</desc>
<speed>0.010000</speed>
</trkpt>
<trkpt lat="22.103546" lon="103.824928">
<ele>692.820801</ele>
<time>2011-04-25T10:11:20Z</time>
<desc>lat.=22.103546, lon.=103.824928, Alt.=692.820801m. Speed=0.036000m/h.</desc>
<speed>0.010000</speed>
</trkpt>
<trkpt lat="22.103546" lon="103.824936">
<ele>692.789551</ele>
<time>2011-04-25T10:11:25Z</time>
<desc>lat.=22.103546, lon.=103.824936, Alt.=692.789551m. Speed=0.000000m/h.</desc>
<speed>0.000000</speed>
</trkpt>
<trkpt lat="22.103548" lon="103.824936">
<ele>692.742676</ele>
<time>2011-04-25T10:11:30Z</time>
<desc>lat.=22.103548, lon.=103.824936, Alt.=692.742676m. Speed=0.000000m/h.</desc>
<speed>0.000000</speed>
</trkpt>
<trkpt lat="22.103548" lon="103.824936">
<ele>692.727051</ele>
<time>2011-04-25T10:11:35Z</time>
<desc>lat.=22.103548, lon.=103.824936, Alt.=692.727051m. Speed=0.000000m/h.</desc>
<speed>0.000000</speed>
</trkpt>
<trkpt lat="22.103546" lon="103.824936">
<ele>692.727051</ele>
<time>2011-04-25T10:11:40Z</time>
<desc>lat.=22.103546, lon.=103.824936, Alt.=692.727051m. Speed=0.036000m/h.</desc>
<speed>0.010000</speed>
</trkpt>
<trkpt lat="22.103546" lon="103.824928">
<ele>692.711426</ele>
<time>2011-04-25T10:11:45Z</time>
<desc>lat.=22.103546, lon.=103.824928, Alt.=692.711426m. Speed=0.000000m/h.</desc>
<speed>0.000000</speed>
</trkpt>
<trkpt lat="22.103546" lon="103.824928">
<ele>692.695801</ele>
<time>2011-04-25T10:11:50Z</time>
<desc>lat.=22.103546, lon.=103.824928, Alt.=692.695801m. Speed=0.000000m/h.</desc>
<speed>0.000000</speed>
</trkpt>
<trkpt lat="22.103546" lon="103.824928">
<ele>692.664551</ele>
<time>2011-04-25T10:11:55Z</time>
<desc>lat.=22.103546, lon.=103.824928, Alt.=692.664551m. Speed=0.000000m/h.</desc>
<speed>0.000000</speed>
</trkpt>
<trkpt lat="22.103546" lon="103.824928">
<ele>692.633301</ele>
<time>2011-04-25T10:12:00Z</time>
<desc>lat.=22.103546, lon.=103.824928, Alt.=692.633301m. Speed=0.000000m/h.</desc>
<speed>0.000000</speed>
</trkpt>
<trkpt lat="22.103546" lon="103.824936">
<ele>692.617676</ele>
<time>2011-04-25T10:12:05Z</time>
<desc>lat.=22.103546, lon.=103.824936, Alt.=692.617676m. Speed=0.144000m/h.</desc>
<speed>0.040000</speed>
</trkpt>
<trkpt lat="22.103546" lon="103.824936">
<ele>692.602051</ele>
<time>2011-04-25T10:12:10Z</time>
<desc>lat.=22.103546, lon.=103.824936, Alt.=692.602051m. Speed=0.000000m/h.</desc>
<speed>0.000000</speed>
</trkpt>
<trkpt lat="22.103546" lon="103.824928">
<ele>692.602051</ele>
<time>2011-04-25T10:12:15Z</time>
<desc>lat.=22.103546, lon.=103.824928, Alt.=692.602051m. Speed=0.036000m/h.</desc>
<speed>0.010000</speed>
</trkpt>
<trkpt lat="22.103546" lon="103.824928">
<ele>692.602051</ele>
<time>2011-04-25T10:12:20Z</time>
<desc>lat.=22.103546, lon.=103.824928, Alt.=692.602051m. Speed=0.000000m/h.</desc>
<speed>0.000000</speed>
</trkpt>
<trkpt lat="22.103546" lon="103.824928">
<ele>692.586426</ele>
<time>2011-04-25T10:12:25Z</time>
<desc>lat.=22.103546, lon.=103.824928, Alt.=692.586426m. Speed=0.000000m/h.</desc>
<speed>0.000000</speed>
</trkpt>
<trkpt lat="22.103546" lon="103.824928">
<ele>692.570801</ele>
<time>2011-04-25T10:12:30Z</time>
<desc>lat.=22.103546, lon.=103.824928, Alt.=692.570801m. Speed=0.000000m/h.</desc>
<speed>0.000000</speed>
</trkpt>
<trkpt lat="22.103546" lon="103.824928">
<ele>692.570801</ele>
<time>2011-04-25T10:12:35Z</time>
<desc>lat.=22.103546, lon.=103.824928, Alt.=692.570801m. Speed=0.036000m/h.</desc>
<speed>0.010000</speed>
</trkpt>
<trkpt lat="22.103546" lon="103.824928">
<ele>692.555176</ele>
<time>2011-04-25T10:12:40Z</time>
<desc>lat.=22.103546, lon.=103.824928, Alt.=692.555176m. Speed=0.036000m/h.</desc>
<speed>0.010000</speed>
</trkpt>
<trkpt lat="22.103546" lon="103.824928">
<ele>692.570801</ele>
<time>2011-04-25T10:12:45Z</time>
<desc>lat.=22.103546, lon.=103.824928, Alt.=692.570801m. Speed=0.000000m/h.</desc>
<speed>0.000000</speed>
</trkpt>
<trkpt lat="22.103546" lon="103.824928">
<ele>692.586426</ele>
<time>2011-04-25T10:12:50Z</time>
<desc>lat.=22.103546, lon.=103.824928, Alt.=692.586426m. Speed=0.036000m/h.</desc>
<speed>0.010000</speed>
</trkpt>
<trkpt lat="22.103546" lon="103.824928">
<ele>692.570801</ele>
<time>2011-04-25T10:12:55Z</time>
<desc>lat.=22.103546, lon.=103.824928, Alt.=692.570801m. Speed=0.000000m/h.</desc>
<speed>0.000000</speed>
</trkpt>
<trkpt lat="22.103546" lon="103.824928">
<ele>692.570801</ele>
<time>2011-04-25T10:13:00Z</time>
<desc>lat.=22.103546, lon.=103.824928, Alt.=692.570801m. Speed=0.000000m/h.</desc>
<speed>0.000000</speed>
</trkpt>
<trkpt lat="22.103546" lon="103.824928">
<ele>692.539551</ele>
<time>2011-04-25T10:13:05Z</time>
<desc>lat.=22.103546, lon.=103.824928, Alt.=692.539551m. Speed=0.000000m/h.</desc>
<speed>0.000000</speed>
</trkpt>
<trkpt lat="22.103546" lon="103.824928">
<ele>692.508301</ele>
<time>2011-04-25T10:13:10Z</time>
<desc>lat.=22.103546, lon.=103.824928, Alt.=692.508301m. Speed=0.036000m/h.</desc>
<speed>0.010000</speed>
</trkpt>
<trkpt lat="22.103546" lon="103.824928">
<ele>692.492676</ele>
<time>2011-04-25T10:13:15Z</time>
<desc>lat.=22.103546, lon.=103.824928, Alt.=692.492676m. Speed=0.036000m/h.</desc>
<speed>0.010000</speed>
</trkpt>
<trkpt lat="22.103546" lon="103.824928">
<ele>692.477051</ele>
<time>2011-04-25T10:13:20Z</time>
<desc>lat.=22.103546, lon.=103.824928, Alt.=692.477051m. Speed=0.000000m/h.</desc>
<speed>0.000000</speed>
</trkpt>
<trkpt lat="22.103546" lon="103.824928">
<ele>692.445801</ele>
<time>2011-04-25T10:13:25Z</time>
<desc>lat.=22.103546, lon.=103.824928, Alt.=692.445801m. Speed=0.000000m/h.</desc>
<speed>0.000000</speed>
</trkpt>
<trkpt lat="22.103546" lon="103.824928">
<ele>692.414551</ele>
<time>2011-04-25T10:13:30Z</time>
<desc>lat.=22.103546, lon.=103.824928, Alt.=692.414551m. Speed=0.000000m/h.</desc>
<speed>0.000000</speed>
</trkpt>
<trkpt lat="22.103546" lon="103.824928">
<ele>692.383301</ele>
<time>2011-04-25T10:13:35Z</time>
<desc>lat.=22.103546, lon.=103.824928, Alt.=692.383301m. Speed=0.036000m/h.</desc>
<speed>0.010000</speed>
</trkpt>
<trkpt lat="22.103546" lon="103.824928">
<ele>692.352051</ele>
<time>2011-04-25T10:13:40Z</time>
<desc>lat.=22.103546, lon.=103.824928, Alt.=692.352051m. Speed=0.000000m/h.</desc>
<speed>0.000000</speed>
</trkpt>
<trkpt lat="22.103546" lon="103.824928">
<ele>692.336426</ele>
<time>2011-04-25T10:13:45Z</time>
<desc>lat.=22.103546, lon.=103.824928, Alt.=692.336426m. Speed=0.036000m/h.</desc>
<speed>0.010000</speed>
</trkpt>
<trkpt lat="22.103548" lon="103.824928">
<ele>692.305176</ele>
<time>2011-04-25T10:13:50Z</time>
<desc>lat.=22.103548, lon.=103.824928, Alt.=692.305176m. Speed=0.000000m/h.</desc>
<speed>0.000000</speed>
</trkpt>
<trkpt lat="22.103548" lon="103.824928">
<ele>692.273926</ele>
<time>2011-04-25T10:13:55Z</time>
<desc>lat.=22.103548, lon.=103.824928, Alt.=692.273926m. Speed=0.000000m/h.</desc>
<speed>0.000000</speed>
</trkpt>
<trkpt lat="22.103548" lon="103.824928">
<ele>692.242676</ele>
<time>2011-04-25T10:14:00Z</time>
<desc>lat.=22.103548, lon.=103.824928, Alt.=692.242676m. Speed=0.000000m/h.</desc>
<speed>0.000000</speed>
</trkpt>
<trkpt lat="22.103548" lon="103.824928">
<ele>692.211426</ele>
<time>2011-04-25T10:14:05Z</time>
<desc>lat.=22.103548, lon.=103.824928, Alt.=692.211426m. Speed=0.000000m/h.</desc>
<speed>0.000000</speed>
</trkpt>
<trkpt lat="22.103546" lon="103.824928">
<ele>692.195801</ele>
<time>2011-04-25T10:14:10Z</time>
<desc>lat.=22.103546, lon.=103.824928, Alt.=692.195801m. Speed=0.036000m/h.</desc>
<speed>0.010000</speed>
</trkpt>
<trkpt lat="22.103548" lon="103.824928">
<ele>692.180176</ele>
<time>2011-04-25T10:14:15Z</time>
<desc>lat.=22.103548, lon.=103.824928, Alt.=692.180176m. Speed=0.000000m/h.</desc>
<speed>0.000000</speed>
</trkpt>
<trkpt lat="22.103548" lon="103.824928">
<ele>692.148926</ele>
<time>2011-04-25T10:14:20Z</time>
<desc>lat.=22.103548, lon.=103.824928, Alt.=692.148926m. Speed=0.036000m/h.</desc>
<speed>0.010000</speed>
</trkpt>
<trkpt lat="22.103546" lon="103.824928">
<ele>692.133301</ele>
<time>2011-04-25T10:14:25Z</time>
<desc>lat.=22.103546, lon.=103.824928, Alt.=692.133301m. Speed=0.000000m/h.</desc>
<speed>0.000000</speed>
</trkpt>
<trkpt lat="22.103546" lon="103.824928">
<ele>692.117676</ele>
<time>2011-04-25T10:14:30Z</time>
<desc>lat.=22.103546, lon.=103.824928, Alt.=692.117676m. Speed=0.036000m/h.</desc>
<speed>0.010000</speed>
</trkpt>
<trkpt lat="22.103546" lon="103.824928">
<ele>692.117676</ele>
<time>2011-04-25T10:14:35Z</time>
<desc>lat.=22.103546, lon.=103.824928, Alt.=692.117676m. Speed=0.000000m/h.</desc>
<speed>0.000000</speed>
</trkpt>
<trkpt lat="22.103546" lon="103.824928">
<ele>692.117676</ele>
<time>2011-04-25T10:14:40Z</time>
<desc>lat.=22.103546, lon.=103.824928, Alt.=692.117676m. Speed=0.000000m/h.</desc>
<speed>0.000000</speed>
</trkpt>
<trkpt lat="22.103546" lon="103.824928">
<ele>692.117676</ele>
<time>2011-04-25T10:14:45Z</time>
<desc>lat.=22.103546, lon.=103.824928, Alt.=692.117676m. Speed=0.000000m/h.</desc>
<speed>0.000000</speed>
</trkpt>
<trkpt lat="22.103546" lon="103.824928">
<ele>692.102051</ele>
<time>2011-04-25T10:14:50Z</time>
<desc>lat.=22.103546, lon.=103.824928, Alt.=692.102051m. Speed=0.000000m/h.</desc>
<speed>0.000000</speed>
</trkpt>
<trkpt lat="22.103546" lon="103.824928">
<ele>692.086426</ele>
<time>2011-04-25T10:14:55Z</time>
<desc>lat.=22.103546, lon.=103.824928, Alt.=692.086426m. Speed=0.000000m/h.</desc>
<speed>0.000000</speed>
</trkpt>
<trkpt lat="22.103546" lon="103.824928">
<ele>692.070801</ele>
<time>2011-04-25T10:15:00Z</time>
<desc>lat.=22.103546, lon.=103.824928, Alt.=692.070801m. Speed=0.000000m/h.</desc>
<speed>0.000000</speed>
</trkpt>
<trkpt lat="22.103546" lon="103.824928">
<ele>692.039551</ele>
<time>2011-04-25T10:15:05Z</time>
<desc>lat.=22.103546, lon.=103.824928, Alt.=692.039551m. Speed=0.036000m/h.</desc>
<speed>0.010000</speed>
</trkpt>
<trkpt lat="22.103546" lon="103.824928">
<ele>692.023926</ele>
<time>2011-04-25T10:15:10Z</time>
<desc>lat.=22.103546, lon.=103.824928, Alt.=692.023926m. Speed=0.000000m/h.</desc>
<speed>0.000000</speed>
</trkpt>
<trkpt lat="22.103546" lon="103.824928">
<ele>692.008301</ele>
<time>2011-04-25T10:15:15Z</time>
<desc>lat.=22.103546, lon.=103.824928, Alt.=692.008301m. Speed=0.000000m/h.</desc>
<speed>0.000000</speed>
</trkpt>
<trkpt lat="22.103546" lon="103.824928">
<ele>692.023926</ele>
<time>2011-04-25T10:15:20Z</time>
<desc>lat.=22.103546, lon.=103.824928, Alt.=692.023926m. Speed=0.000000m/h.</desc>
<speed>0.000000</speed>
</trkpt>
<trkpt lat="22.103546" lon="103.824928">
<ele>692.039551</ele>
<time>2011-04-25T10:15:25Z</time>
<desc>lat.=22.103546, lon.=103.824928, Alt.=692.039551m. Speed=0.036000m/h.</desc>
<speed>0.010000</speed>
</trkpt>
<trkpt lat="22.103546" lon="103.824928">
<ele>692.055176</ele>
<time>2011-04-25T10:15:30Z</time>
<desc>lat.=22.103546, lon.=103.824928, Alt.=692.055176m. Speed=0.000000m/h.</desc>
<speed>0.000000</speed>
</trkpt>
<trkpt lat="22.103546" lon="103.824928">
<ele>692.055176</ele>
<time>2011-04-25T10:15:35Z</time>
<desc>lat.=22.103546, lon.=103.824928, Alt.=692.055176m. Speed=0.072000m/h.</desc>
<speed>0.020000</speed>
</trkpt>
<trkpt lat="22.103546" lon="103.824928">
<ele>692.039551</ele>
<time>2011-04-25T10:15:40Z</time>
<desc>lat.=22.103546, lon.=103.824928, Alt.=692.039551m. Speed=0.000000m/h.</desc>
<speed>0.000000</speed>
</trkpt>
<trkpt lat="22.103546" lon="103.824928">
<ele>692.039551</ele>
<time>2011-04-25T10:15:45Z</time>
<desc>lat.=22.103546, lon.=103.824928, Alt.=692.039551m. Speed=0.036000m/h.</desc>
<speed>0.010000</speed>
</trkpt>
<trkpt lat="22.103546" lon="103.824928">
<ele>692.039551</ele>
<time>2011-04-25T10:15:50Z</time>
<desc>lat.=22.103546, lon.=103.824928, Alt.=692.039551m. Speed=0.000000m/h.</desc>
<speed>0.000000</speed>
</trkpt>
<trkpt lat="22.103546" lon="103.824928">
<ele>692.023926</ele>
<time>2011-04-25T10:15:55Z</time>
<desc>lat.=22.103546, lon.=103.824928, Alt.=692.023926m. Speed=0.000000m/h.</desc>
<speed>0.000000</speed>
</trkpt>
<trkpt lat="22.103546" lon="103.824928">
<ele>692.023926</ele>
<time>2011-04-25T10:16:00Z</time>
<desc>lat.=22.103546, lon.=103.824928, Alt.=692.023926m. Speed=0.036000m/h.</desc>
<speed>0.010000</speed>
</trkpt>
<trkpt lat="22.103546" lon="103.824928">
<ele>692.023926</ele>
<time>2011-04-25T10:16:05Z</time>
<desc>lat.=22.103546, lon.=103.824928, Alt.=692.023926m. Speed=0.036000m/h.</desc>
<speed>0.010000</speed>
</trkpt>
<trkpt lat="22.103546" lon="103.824928">
<ele>692.023926</ele>
<time>2011-04-25T10:16:10Z</time>
<desc>lat.=22.103546, lon.=103.824928, Alt.=692.023926m. Speed=0.000000m/h.</desc>
<speed>0.000000</speed>
</trkpt>
<trkpt lat="22.103546" lon="103.824928">
<ele>692.039551</ele>
<time>2011-04-25T10:16:15Z</time>
<desc>lat.=22.103546, lon.=103.824928, Alt.=692.039551m. Speed=0.000000m/h.</desc>
<speed>0.000000</speed>
</trkpt>
<trkpt lat="22.103546" lon="103.824928">
<ele>692.008301</ele>
<time>2011-04-25T10:16:20Z</time>
<desc>lat.=22.103546, lon.=103.824928, Alt.=692.008301m. Speed=0.036000m/h.</desc>
<speed>0.010000</speed>
</trkpt>
<trkpt lat="22.103546" lon="103.824928">
<ele>691.992676</ele>
<time>2011-04-25T10:16:25Z</time>
<desc>lat.=22.103546, lon.=103.824928, Alt.=691.992676m. Speed=0.036000m/h.</desc>
<speed>0.010000</speed>
</trkpt>
<trkpt lat="22.103546" lon="103.824928">
<ele>691.961426</ele>
<time>2011-04-25T10:16:30Z</time>
<desc>lat.=22.103546, lon.=103.824928, Alt.=691.961426m. Speed=0.000000m/h.</desc>
<speed>0.000000</speed>
</trkpt>
<trkpt lat="22.103546" lon="103.824928">
<ele>691.945801</ele>
<time>2011-04-25T10:16:35Z</time>
<desc>lat.=22.103546, lon.=103.824928, Alt.=691.945801m. Speed=0.036000m/h.</desc>
<speed>0.010000</speed>
</trkpt>
<trkpt lat="22.103546" lon="103.824928">
<ele>691.930176</ele>
<time>2011-04-25T10:16:40Z</time>
<desc>lat.=22.103546, lon.=103.824928, Alt.=691.930176m. Speed=0.000000m/h.</desc>
<speed>0.000000</speed>
</trkpt>
<trkpt lat="22.103546" lon="103.824928">
<ele>691.914551</ele>
<time>2011-04-25T10:16:45Z</time>
<desc>lat.=22.103546, lon.=103.824928, Alt.=691.914551m. Speed=0.000000m/h.</desc>
<speed>0.000000</speed>
</trkpt>
<trkpt lat="22.103546" lon="103.824928">
<ele>691.914551</ele>
<time>2011-04-25T10:16:50Z</time>
<desc>lat.=22.103546, lon.=103.824928, Alt.=691.914551m. Speed=0.036000m/h.</desc>
<speed>0.010000</speed>
</trkpt>
<trkpt lat="22.103546" lon="103.824928">
<ele>691.883301</ele>
<time>2011-04-25T10:16:55Z</time>
<desc>lat.=22.103546, lon.=103.824928, Alt.=691.883301m. Speed=0.036000m/h.</desc>
<speed>0.010000</speed>
</trkpt>
<trkpt lat="22.103546" lon="103.824928">
<ele>691.883301</ele>
<time>2011-04-25T10:17:00Z</time>
<desc>lat.=22.103546, lon.=103.824928, Alt.=691.883301m. Speed=0.036000m/h.</desc>
<speed>0.010000</speed>
</trkpt>
<trkpt lat="22.103546" lon="103.824928">
<ele>691.867676</ele>
<time>2011-04-25T10:17:05Z</time>
<desc>lat.=22.103546, lon.=103.824928, Alt.=691.867676m. Speed=0.000000m/h.</desc>
<speed>0.000000</speed>
</trkpt>
<trkpt lat="22.103544" lon="103.824928">
<ele>691.867676</ele>
<time>2011-04-25T10:17:10Z</time>
<desc>lat.=22.103544, lon.=103.824928, Alt.=691.867676m. Speed=0.000000m/h.</desc>
<speed>0.000000</speed>
</trkpt>
<trkpt lat="22.103544" lon="103.824928">
<ele>691.867676</ele>
<time>2011-04-25T10:17:15Z</time>
<desc>lat.=22.103544, lon.=103.824928, Alt.=691.867676m. Speed=0.036000m/h.</desc>
<speed>0.010000</speed>
</trkpt>
<trkpt lat="22.103544" lon="103.824928">
<ele>691.883301</ele>
<time>2011-04-25T10:17:20Z</time>
<desc>lat.=22.103544, lon.=103.824928, Alt.=691.883301m. Speed=0.000000m/h.</desc>
<speed>0.000000</speed>
</trkpt>
<trkpt lat="22.103544" lon="103.824928">
<ele>691.883301</ele>
<time>2011-04-25T10:17:25Z</time>
<desc>lat.=22.103544, lon.=103.824928, Alt.=691.883301m. Speed=0.036000m/h.</desc>
<speed>0.010000</speed>
</trkpt>
<trkpt lat="22.103544" lon="103.824928">
<ele>691.883301</ele>
<time>2011-04-25T10:17:30Z</time>
<desc>lat.=22.103544, lon.=103.824928, Alt.=691.883301m. Speed=0.000000m/h.</desc>
<speed>0.000000</speed>
</trkpt>
<trkpt lat="22.103544" lon="103.824928">
<ele>691.898926</ele>
<time>2011-04-25T10:17:35Z</time>
<desc>lat.=22.103544, lon.=103.824928, Alt.=691.898926m. Speed=0.000000m/h.</desc>
<speed>0.000000</speed>
</trkpt>
<trkpt lat="22.103544" lon="103.824928">
<ele>691.898926</ele>
<time>2011-04-25T10:17:40Z</time>
<desc>lat.=22.103544, lon.=103.824928, Alt.=691.898926m. Speed=0.000000m/h.</desc>
<speed>0.000000</speed>
</trkpt>
<trkpt lat="22.103544" lon="103.824928">
<ele>691.898926</ele>
<time>2011-04-25T10:17:45Z</time>
<desc>lat.=22.103544, lon.=103.824928, Alt.=691.898926m. Speed=0.000000m/h.</desc>
<speed>0.000000</speed>
</trkpt>
<trkpt lat="22.103544" lon="103.824928">
<ele>691.883301</ele>
<time>2011-04-25T10:17:50Z</time>
<desc>lat.=22.103544, lon.=103.824928, Alt.=691.883301m. Speed=0.000000m/h.</desc>
<speed>0.000000</speed>
</trkpt>
<trkpt lat="22.103544" lon="103.824928">
<ele>691.867676</ele>
<time>2011-04-25T10:17:55Z</time>
<desc>lat.=22.103544, lon.=103.824928, Alt.=691.867676m. Speed=0.000000m/h.</desc>
<speed>0.000000</speed>
</trkpt>
<trkpt lat="22.103544" lon="103.824928">
<ele>691.867676</ele>
<time>2011-04-25T10:18:00Z</time>
<desc>lat.=22.103544, lon.=103.824928, Alt.=691.867676m. Speed=0.036000m/h.</desc>
<speed>0.010000</speed>
</trkpt>
<trkpt lat="22.103544" lon="103.824928">
<ele>691.852051</ele>
<time>2011-04-25T10:18:05Z</time>
<desc>lat.=22.103544, lon.=103.824928, Alt.=691.852051m. Speed=0.036000m/h.</desc>
<speed>0.010000</speed>
</trkpt>
<trkpt lat="22.103544" lon="103.824928">
<ele>691.836426</ele>
<time>2011-04-25T10:18:10Z</time>
<desc>lat.=22.103544, lon.=103.824928, Alt.=691.836426m. Speed=0.000000m/h.</desc>
<speed>0.000000</speed>
</trkpt>
<trkpt lat="22.103544" lon="103.824928">
<ele>691.805176</ele>
<time>2011-04-25T10:18:15Z</time>
<desc>lat.=22.103544, lon.=103.824928, Alt.=691.805176m. Speed=0.036000m/h.</desc>
<speed>0.010000</speed>
</trkpt>
<trkpt lat="22.103544" lon="103.824928">
<ele>691.789551</ele>
<time>2011-04-25T10:18:20Z</time>
<desc>lat.=22.103544, lon.=103.824928, Alt.=691.789551m. Speed=0.000000m/h.</desc>
<speed>0.000000</speed>
</trkpt>
<trkpt lat="22.103544" lon="103.824928">
<ele>691.773926</ele>
<time>2011-04-25T10:18:25Z</time>
<desc>lat.=22.103544, lon.=103.824928, Alt.=691.773926m. Speed=0.036000m/h.</desc>
<speed>0.010000</speed>
</trkpt>
<trkpt lat="22.103544" lon="103.824928">
<ele>691.758301</ele>
<time>2011-04-25T10:18:30Z</time>
<desc>lat.=22.103544, lon.=103.824928, Alt.=691.758301m. Speed=0.036000m/h.</desc>
<speed>0.010000</speed>
</trkpt>
<trkpt lat="22.103544" lon="103.824928">
<ele>691.742676</ele>
<time>2011-04-25T10:18:35Z</time>
<desc>lat.=22.103544, lon.=103.824928, Alt.=691.742676m. Speed=0.000000m/h.</desc>
<speed>0.000000</speed>
</trkpt>
<trkpt lat="22.103544" lon="103.824928">
<ele>691.727051</ele>
<time>2011-04-25T10:18:40Z</time>
<desc>lat.=22.103544, lon.=103.824928, Alt.=691.727051m. Speed=0.000000m/h.</desc>
<speed>0.000000</speed>
</trkpt>
<trkpt lat="22.103544" lon="103.824928">
<ele>691.727051</ele>
<time>2011-04-25T10:18:45Z</time>
<desc>lat.=22.103544, lon.=103.824928, Alt.=691.727051m. Speed=0.036000m/h.</desc>
<speed>0.010000</speed>
</trkpt>
<trkpt lat="22.103544" lon="103.824928">
<ele>691.727051</ele>
<time>2011-04-25T10:18:50Z</time>
<desc>lat.=22.103544, lon.=103.824928, Alt.=691.727051m. Speed=0.000000m/h.</desc>
<speed>0.000000</speed>
</trkpt>
<trkpt lat="22.103544" lon="103.824928">
<ele>691.727051</ele>
<time>2011-04-25T10:18:55Z</time>
<desc>lat.=22.103544, lon.=103.824928, Alt.=691.727051m. Speed=0.000000m/h.</desc>
<speed>0.000000</speed>
</trkpt>
<trkpt lat="22.103542" lon="103.824928">
<ele>691.727051</ele>
<time>2011-04-25T10:19:00Z</time>
<desc>lat.=22.103542, lon.=103.824928, Alt.=691.727051m. Speed=0.000000m/h.</desc>
<speed>0.000000</speed>
</trkpt>
<trkpt lat="22.103542" lon="103.824928">
<ele>691.727051</ele>
<time>2011-04-25T10:19:05Z</time>
<desc>lat.=22.103542, lon.=103.824928, Alt.=691.727051m. Speed=0.396000m/h.</desc>
<speed>0.110000</speed>
</trkpt>
<trkpt lat="22.103504" lon="103.824944">
<ele>691.773926</ele>
<time>2011-04-25T10:19:10Z</time>
<desc>lat.=22.103504, lon.=103.824944, Alt.=691.773926m. Speed=5.652000m/h.</desc>
<speed>1.570000</speed>
</trkpt>
<trkpt lat="22.103239" lon="103.825043">
<ele>691.977051</ele>
<time>2011-04-25T10:19:15Z</time>
<desc>lat.=22.103239, lon.=103.825043, Alt.=691.977051m. Speed=24.372000m/h.</desc>
<speed>6.770000</speed>
</trkpt>
<trkpt lat="22.102915" lon="103.825287">
<ele>691.773926</ele>
<time>2011-04-25T10:19:20Z</time>
<desc>lat.=22.102915, lon.=103.825287, Alt.=691.773926m. Speed=30.167999m/h.</desc>
<speed>8.380000</speed>
</trkpt>
<trkpt lat="22.102549" lon="103.825615">
<ele>691.398926</ele>
<time>2011-04-25T10:19:25Z</time>
<desc>lat.=22.102549, lon.=103.825615, Alt.=691.398926m. Speed=34.740002m/h.</desc>
<speed>9.650000</speed>
</trkpt>
<trkpt lat="22.102169" lon="103.825928">
<ele>690.773926</ele>
<time>2011-04-25T10:19:30Z</time>
<desc>lat.=22.102169, lon.=103.825928, Alt.=690.773926m. Speed=37.584000m/h.</desc>
<speed>10.440000</speed>
</trkpt>
<trkpt lat="22.101801" lon="103.826347">
<ele>689.086426</ele>
<time>2011-04-25T10:19:35Z</time>
<desc>lat.=22.101801, lon.=103.826347, Alt.=689.086426m. Speed=46.332001m/h.</desc>
<speed>12.870000</speed>
</trkpt>
<trkpt lat="22.101448" lon="103.826942">
<ele>686.070801</ele>
<time>2011-04-25T10:19:40Z</time>
<desc>lat.=22.101448, lon.=103.826942, Alt.=686.070801m. Speed=54.467999m/h.</desc>
<speed>15.130000</speed>
</trkpt>
<trkpt lat="22.100986" lon="103.827499">
<ele>682.070801</ele>
<time>2011-04-25T10:19:45Z</time>
<desc>lat.=22.100986, lon.=103.827499, Alt.=682.070801m. Speed=52.992001m/h.</desc>
<speed>14.720000</speed>
</trkpt>
<trkpt lat="22.100573" lon="103.828033">
<ele>678.008301</ele>
<time>2011-04-25T10:19:50Z</time>
<desc>lat.=22.100573, lon.=103.828033, Alt.=678.008301m. Speed=49.896000m/h.</desc>
<speed>13.860000</speed>
</trkpt>
<trkpt lat="22.100163" lon="103.828598">
<ele>671.508301</ele>
<time>2011-04-25T10:19:55Z</time>
<desc>lat.=22.100163, lon.=103.828598, Alt.=671.508301m. Speed=52.667999m/h.</desc>
<speed>14.630000</speed>
</trkpt>
<trkpt lat="22.099770" lon="103.829132">
<ele>668.039551</ele>
<time>2011-04-25T10:20:00Z</time>
<desc>lat.=22.099770, lon.=103.829132, Alt.=668.039551m. Speed=48.312000m/h.</desc>
<speed>13.420000</speed>
</trkpt>
<trkpt lat="22.099421" lon="103.829620">
<ele>665.180176</ele>
<time>2011-04-25T10:20:05Z</time>
<desc>lat.=22.099421, lon.=103.829620, Alt.=665.180176m. Speed=46.368000m/h.</desc>
<speed>12.880000</speed>
</trkpt>
<trkpt lat="22.099068" lon="103.830101">
<ele>661.742676</ele>
<time>2011-04-25T10:20:10Z</time>
<desc>lat.=22.099068, lon.=103.830101, Alt.=661.742676m. Speed=40.355999m/h.</desc>
<speed>11.210000</speed>
</trkpt>
<trkpt lat="22.098709" lon="103.830589">
<ele>658.727051</ele>
<time>2011-04-25T10:20:15Z</time>
<desc>lat.=22.098709, lon.=103.830589, Alt.=658.727051m. Speed=44.891998m/h.</desc>
<speed>12.470000</speed>
</trkpt>
<trkpt lat="22.098392" lon="103.831009">
<ele>657.602051</ele>
<time>2011-04-25T10:20:20Z</time>
<desc>lat.=22.098392, lon.=103.831009, Alt.=657.602051m. Speed=32.616001m/h.</desc>
<speed>9.060000</speed>
</trkpt>
<trkpt lat="22.098156" lon="103.831337">
<ele>657.258301</ele>
<time>2011-04-25T10:20:25Z</time>
<desc>lat.=22.098156, lon.=103.831337, Alt.=657.258301m. Speed=26.208000m/h.</desc>
<speed>7.280000</speed>
</trkpt>
<trkpt lat="22.097952" lon="103.831612">
<ele>655.242676</ele>
<time>2011-04-25T10:20:30Z</time>
<desc>lat.=22.097952, lon.=103.831612, Alt.=655.242676m. Speed=23.436001m/h.</desc>
<speed>6.510000</speed>
</trkpt>
<trkpt lat="22.097803" lon="103.831833">
<ele>654.008301</ele>
<time>2011-04-25T10:20:35Z</time>
<desc>lat.=22.097803, lon.=103.831833, Alt.=654.008301m. Speed=18.431999m/h.</desc>
<speed>5.120000</speed>
</trkpt>
<trkpt lat="22.097643" lon="103.832069">
<ele>655.695801</ele>
<time>2011-04-25T10:20:40Z</time>
<desc>lat.=22.097643, lon.=103.832069, Alt.=655.695801m. Speed=23.040001m/h.</desc>
<speed>6.400000</speed>
</trkpt>
<trkpt lat="22.097458" lon="103.832321">
<ele>655.242676</ele>
<time>2011-04-25T10:20:45Z</time>
<desc>lat.=22.097458, lon.=103.832321, Alt.=655.242676m. Speed=20.879999m/h.</desc>
<speed>5.800000</speed>
</trkpt>
<trkpt lat="22.097290" lon="103.832542">
<ele>652.961426</ele>
<time>2011-04-25T10:20:50Z</time>
<desc>lat.=22.097290, lon.=103.832542, Alt.=652.961426m. Speed=19.115999m/h.</desc>
<speed>5.310000</speed>
</trkpt>
<trkpt lat="22.097158" lon="103.832741">
<ele>652.852051</ele>
<time>2011-04-25T10:20:55Z</time>
<desc>lat.=22.097158, lon.=103.832741, Alt.=652.852051m. Speed=18.323999m/h.</desc>
<speed>5.090000</speed>
</trkpt>
<trkpt lat="22.097023" lon="103.832924">
<ele>653.414551</ele>
<time>2011-04-25T10:21:00Z</time>
<desc>lat.=22.097023, lon.=103.832924, Alt.=653.414551m. Speed=9.396000m/h.</desc>
<speed>2.610000</speed>
</trkpt>
<trkpt lat="22.096964" lon="103.832970">
<ele>653.977051</ele>
<time>2011-04-25T10:21:05Z</time>
<desc>lat.=22.096964, lon.=103.832970, Alt.=653.977051m. Speed=5.580000m/h.</desc>
<speed>1.550000</speed>
</trkpt>
<trkpt lat="22.096899" lon="103.833054">
<ele>653.648926</ele>
<time>2011-04-25T10:21:10Z</time>
<desc>lat.=22.096899, lon.=103.833054, Alt.=653.648926m. Speed=7.848000m/h.</desc>
<speed>2.180000</speed>
</trkpt>
<trkpt lat="22.096838" lon="103.833160">
<ele>653.352051</ele>
<time>2011-04-25T10:21:15Z</time>
<desc>lat.=22.096838, lon.=103.833160, Alt.=653.352051m. Speed=12.564000m/h.</desc>
<speed>3.490000</speed>
</trkpt>
<trkpt lat="22.096706" lon="103.833328">
<ele>651.914551</ele>
<time>2011-04-25T10:21:20Z</time>
<desc>lat.=22.096706, lon.=103.833328, Alt.=651.914551m. Speed=19.368000m/h.</desc>
<speed>5.380000</speed>
</trkpt>
<trkpt lat="22.096533" lon="103.833588">
<ele>650.148926</ele>
<time>2011-04-25T10:21:25Z</time>
<desc>lat.=22.096533, lon.=103.833588, Alt.=650.148926m. Speed=26.316000m/h.</desc>
<speed>7.310000</speed>
</trkpt>
<trkpt lat="22.096317" lon="103.833893">
<ele>648.586426</ele>
<time>2011-04-25T10:21:30Z</time>
<desc>lat.=22.096317, lon.=103.833893, Alt.=648.586426m. Speed=31.320000m/h.</desc>
<speed>8.700000</speed>
</trkpt>
<trkpt lat="22.096033" lon="103.834236">
<ele>647.242676</ele>
<time>2011-04-25T10:21:35Z</time>
<desc>lat.=22.096033, lon.=103.834236, Alt.=647.242676m. Speed=36.216000m/h.</desc>
<speed>10.060000</speed>
</trkpt>
<trkpt lat="22.095642" lon="103.834549">
<ele>644.664551</ele>
<time>2011-04-25T10:21:40Z</time>
<desc>lat.=22.095642, lon.=103.834549, Alt.=644.664551m. Speed=40.391998m/h.</desc>
<speed>11.220000</speed>
</trkpt>
<trkpt lat="22.095192" lon="103.834785">
<ele>641.477051</ele>
<time>2011-04-25T10:21:45Z</time>
<desc>lat.=22.095192, lon.=103.834785, Alt.=641.477051m. Speed=38.591999m/h.</desc>
<speed>10.720000</speed>
</trkpt>
<trkpt lat="22.094700" lon="103.834846">
<ele>640.258301</ele>
<time>2011-04-25T10:21:50Z</time>
<desc>lat.=22.094700, lon.=103.834846, Alt.=640.258301m. Speed=38.591999m/h.</desc>
<speed>10.720000</speed>
</trkpt>
<trkpt lat="22.094257" lon="103.834999">
<ele>639.352051</ele>
<time>2011-04-25T10:21:55Z</time>
<desc>lat.=22.094257, lon.=103.834999, Alt.=639.352051m. Speed=39.995998m/h.</desc>
<speed>11.110000</speed>
</trkpt>
<trkpt lat="22.093779" lon="103.835274">
<ele>636.883301</ele>
<time>2011-04-25T10:22:00Z</time>
<desc>lat.=22.093779, lon.=103.835274, Alt.=636.883301m. Speed=39.456001m/h.</desc>
<speed>10.960000</speed>
</trkpt>
<trkpt lat="22.093393" lon="103.835342">
<ele>636.789551</ele>
<time>2011-04-25T10:22:05Z</time>
<desc>lat.=22.093393, lon.=103.835342, Alt.=636.789551m. Speed=26.964001m/h.</desc>
<speed>7.490000</speed>
</trkpt>
<trkpt lat="22.093098" lon="103.835243">
<ele>635.695801</ele>
<time>2011-04-25T10:22:10Z</time>
<desc>lat.=22.093098, lon.=103.835243, Alt.=635.695801m. Speed=27.648001m/h.</desc>
<speed>7.680000</speed>
</trkpt>
<trkpt lat="22.092756" lon="103.835320">
<ele>633.555176</ele>
<time>2011-04-25T10:22:15Z</time>
<desc>lat.=22.092756, lon.=103.835320, Alt.=633.555176m. Speed=25.379999m/h.</desc>
<speed>7.050000</speed>
</trkpt>
<trkpt lat="22.092438" lon="103.835449">
<ele>632.664551</ele>
<time>2011-04-25T10:22:20Z</time>
<desc>lat.=22.092438, lon.=103.835449, Alt.=632.664551m. Speed=29.412001m/h.</desc>
<speed>8.170000</speed>
</trkpt>
<trkpt lat="22.092142" lon="103.835632">
<ele>633.164551</ele>
<time>2011-04-25T10:22:25Z</time>
<desc>lat.=22.092142, lon.=103.835632, Alt.=633.164551m. Speed=29.375999m/h.</desc>
<speed>8.160000</speed>
</trkpt>
<trkpt lat="22.091944" lon="103.835953">
<ele>630.773926</ele>
<time>2011-04-25T10:22:30Z</time>
<desc>lat.=22.091944, lon.=103.835953, Alt.=630.773926m. Speed=28.476000m/h.</desc>
<speed>7.910000</speed>
</trkpt>
<trkpt lat="22.091824" lon="103.836334">
<ele>632.086426</ele>
<time>2011-04-25T10:22:35Z</time>
<desc>lat.=22.091824, lon.=103.836334, Alt.=632.086426m. Speed=31.427999m/h.</desc>
<speed>8.730000</speed>
</trkpt>
<trkpt lat="22.091822" lon="103.836739">
<ele>629.602051</ele>
<time>2011-04-25T10:22:40Z</time>
<desc>lat.=22.091822, lon.=103.836739, Alt.=629.602051m. Speed=31.680000m/h.</desc>
<speed>8.800000</speed>
</trkpt>
<trkpt lat="22.091755" lon="103.837173">
<ele>625.477051</ele>
<time>2011-04-25T10:22:45Z</time>
<desc>lat.=22.091755, lon.=103.837173, Alt.=625.477051m. Speed=31.139999m/h.</desc>
<speed>8.650000</speed>
</trkpt>
<trkpt lat="22.091717" lon="103.837608">
<ele>623.992676</ele>
<time>2011-04-25T10:22:50Z</time>
<desc>lat.=22.091717, lon.=103.837608, Alt.=623.992676m. Speed=30.636000m/h.</desc>
<speed>8.510000</speed>
</trkpt>
<trkpt lat="22.091717" lon="103.838028">
<ele>624.242676</ele>
<time>2011-04-25T10:22:55Z</time>
<desc>lat.=22.091717, lon.=103.838028, Alt.=624.242676m. Speed=31.535999m/h.</desc>
<speed>8.760000</speed>
</trkpt>
<trkpt lat="22.091627" lon="103.838440">
<ele>625.430176</ele>
<time>2011-04-25T10:23:00Z</time>
<desc>lat.=22.091627, lon.=103.838440, Alt.=625.430176m. Speed=28.440001m/h.</desc>
<speed>7.900000</speed>
</trkpt>
<trkpt lat="22.091326" lon="103.838722">
<ele>627.367676</ele>
<time>2011-04-25T10:23:05Z</time>
<desc>lat.=22.091326, lon.=103.838722, Alt.=627.367676m. Speed=29.952000m/h.</desc>
<speed>8.320000</speed>
</trkpt>
<trkpt lat="22.090965" lon="103.838814">
<ele>627.055176</ele>
<time>2011-04-25T10:23:10Z</time>
<desc>lat.=22.090965, lon.=103.838814, Alt.=627.055176m. Speed=34.127998m/h.</desc>
<speed>9.480000</speed>
</trkpt>
<trkpt lat="22.090473" lon="103.838631">
<ele>626.664551</ele>
<time>2011-04-25T10:23:15Z</time>
<desc>lat.=22.090473, lon.=103.838631, Alt.=626.664551m. Speed=43.632000m/h.</desc>
<speed>12.120000</speed>
</trkpt>
<trkpt lat="22.089994" lon="103.838524">
<ele>625.148926</ele>
<time>2011-04-25T10:23:20Z</time>
<desc>lat.=22.089994, lon.=103.838524, Alt.=625.148926m. Speed=30.816000m/h.</desc>
<speed>8.560000</speed>
</trkpt>
<trkpt lat="22.089783" lon="103.838890">
<ele>622.477051</ele>
<time>2011-04-25T10:23:25Z</time>
<desc>lat.=22.089783, lon.=103.838890, Alt.=622.477051m. Speed=33.084000m/h.</desc>
<speed>9.190000</speed>
</trkpt>
<trkpt lat="22.089537" lon="103.839287">
<ele>620.805176</ele>
<time>2011-04-25T10:23:30Z</time>
<desc>lat.=22.089537, lon.=103.839287, Alt.=620.805176m. Speed=37.584000m/h.</desc>
<speed>10.440000</speed>
</trkpt>
<trkpt lat="22.089180" lon="103.839622">
<ele>618.242676</ele>
<time>2011-04-25T10:23:35Z</time>
<desc>lat.=22.089180, lon.=103.839622, Alt.=618.242676m. Speed=36.287998m/h.</desc>
<speed>10.079999</speed>
</trkpt>
<trkpt lat="22.088736" lon="103.839653">
<ele>618.055176</ele>
<time>2011-04-25T10:23:40Z</time>
<desc>lat.=22.088736, lon.=103.839653, Alt.=618.055176m. Speed=31.068001m/h.</desc>
<speed>8.630000</speed>
</trkpt>
<trkpt lat="22.088354" lon="103.839615">
<ele>618.117676</ele>
<time>2011-04-25T10:23:45Z</time>
<desc>lat.=22.088354, lon.=103.839615, Alt.=618.117676m. Speed=31.068001m/h.</desc>
<speed>8.630000</speed>
</trkpt>
<trkpt lat="22.088081" lon="103.839851">
<ele>616.914551</ele>
<time>2011-04-25T10:23:50Z</time>
<desc>lat.=22.088081, lon.=103.839851, Alt.=616.914551m. Speed=28.403999m/h.</desc>
<speed>7.890000</speed>
</trkpt>
<trkpt lat="22.087896" lon="103.840240">
<ele>612.805176</ele>
<time>2011-04-25T10:23:55Z</time>
<desc>lat.=22.087896, lon.=103.840240, Alt.=612.805176m. Speed=33.048000m/h.</desc>
<speed>9.180000</speed>
</trkpt>
<trkpt lat="22.087654" lon="103.840637">
<ele>613.242676</ele>
<time>2011-04-25T10:24:00Z</time>
<desc>lat.=22.087654, lon.=103.840637, Alt.=613.242676m. Speed=32.256001m/h.</desc>
<speed>8.960000</speed>
</trkpt>
<trkpt lat="22.087399" lon="103.840958">
<ele>615.977051</ele>
<time>2011-04-25T10:24:05Z</time>
<desc>lat.=22.087399, lon.=103.840958, Alt.=615.977051m. Speed=30.636000m/h.</desc>
<speed>8.510000</speed>
</trkpt>
<trkpt lat="22.087111" lon="103.841270">
<ele>617.477051</ele>
<time>2011-04-25T10:24:10Z</time>
<desc>lat.=22.087111, lon.=103.841270, Alt.=617.477051m. Speed=30.672001m/h.</desc>
<speed>8.520000</speed>
</trkpt>
<trkpt lat="22.086811" lon="103.841545">
<ele>616.148926</ele>
<time>2011-04-25T10:24:15Z</time>
<desc>lat.=22.086811, lon.=103.841545, Alt.=616.148926m. Speed=30.275999m/h.</desc>
<speed>8.410000</speed>
</trkpt>
<trkpt lat="22.086470" lon="103.841591">
<ele>616.898926</ele>
<time>2011-04-25T10:24:20Z</time>
<desc>lat.=22.086470, lon.=103.841591, Alt.=616.898926m. Speed=25.848000m/h.</desc>
<speed>7.180000</speed>
</trkpt>
<trkpt lat="22.086145" lon="103.841553">
<ele>618.367676</ele>
<time>2011-04-25T10:24:25Z</time>
<desc>lat.=22.086145, lon.=103.841553, Alt.=618.367676m. Speed=25.596001m/h.</desc>
<speed>7.110000</speed>
</trkpt>
<trkpt lat="22.085852" lon="103.841370">
<ele>618.211426</ele>
<time>2011-04-25T10:24:30Z</time>
<desc>lat.=22.085852, lon.=103.841370, Alt.=618.211426m. Speed=24.948000m/h.</desc>
<speed>6.930000</speed>
</trkpt>
<trkpt lat="22.085585" lon="103.841293">
<ele>618.570801</ele>
<time>2011-04-25T10:24:35Z</time>
<desc>lat.=22.085585, lon.=103.841293, Alt.=618.570801m. Speed=21.924000m/h.</desc>
<speed>6.090000</speed>
</trkpt>
<trkpt lat="22.085312" lon="103.841331">
<ele>618.867676</ele>
<time>2011-04-25T10:24:40Z</time>
<desc>lat.=22.085312, lon.=103.841331, Alt.=618.867676m. Speed=21.024000m/h.</desc>
<speed>5.840000</speed>
</trkpt>
<trkpt lat="22.085033" lon="103.841408">
<ele>619.383301</ele>
<time>2011-04-25T10:24:45Z</time>
<desc>lat.=22.085033, lon.=103.841408, Alt.=619.383301m. Speed=21.708000m/h.</desc>
<speed>6.030000</speed>
</trkpt>
<trkpt lat="22.084717" lon="103.841515">
<ele>619.727051</ele>
<time>2011-04-25T10:24:50Z</time>
<desc>lat.=22.084717, lon.=103.841515, Alt.=619.727051m. Speed=26.712000m/h.</desc>
<speed>7.420000</speed>
</trkpt>
<trkpt lat="22.084351" lon="103.841736">
<ele>619.570801</ele>
<time>2011-04-25T10:24:55Z</time>
<desc>lat.=22.084351, lon.=103.841736, Alt.=619.570801m. Speed=31.176001m/h.</desc>
<speed>8.660000</speed>
</trkpt>
<trkpt lat="22.084007" lon="103.841980">
<ele>618.539551</ele>
<time>2011-04-25T10:25:00Z</time>
<desc>lat.=22.084007, lon.=103.841980, Alt.=618.539551m. Speed=32.652000m/h.</desc>
<speed>9.070000</speed>
</trkpt>
<trkpt lat="22.083597" lon="103.842117">
<ele>618.133301</ele>
<time>2011-04-25T10:25:05Z</time>
<desc>lat.=22.083597, lon.=103.842117, Alt.=618.133301m. Speed=34.200001m/h.</desc>
<speed>9.500000</speed>
</trkpt>
<trkpt lat="22.083158" lon="103.842186">
<ele>616.820801</ele>
<time>2011-04-25T10:25:10Z</time>
<desc>lat.=22.083158, lon.=103.842186, Alt.=616.820801m. Speed=33.048000m/h.</desc>
<speed>9.180000</speed>
</trkpt>
<trkpt lat="22.082737" lon="103.842300">
<ele>615.227051</ele>
<time>2011-04-25T10:25:15Z</time>
<desc>lat.=22.082737, lon.=103.842300, Alt.=615.227051m. Speed=34.812000m/h.</desc>
<speed>9.670000</speed>
</trkpt>
<trkpt lat="22.082397" lon="103.842567">
<ele>613.414551</ele>
<time>2011-04-25T10:25:20Z</time>
<desc>lat.=22.082397, lon.=103.842567, Alt.=613.414551m. Speed=33.804001m/h.</desc>
<speed>9.390000</speed>
</trkpt>
<trkpt lat="22.082094" lon="103.842865">
<ele>612.055176</ele>
<time>2011-04-25T10:25:25Z</time>
<desc>lat.=22.082094, lon.=103.842865, Alt.=612.055176m. Speed=26.568001m/h.</desc>
<speed>7.380000</speed>
</trkpt>
<trkpt lat="22.081831" lon="103.843002">
<ele>612.633301</ele>
<time>2011-04-25T10:25:30Z</time>
<desc>lat.=22.081831, lon.=103.843002, Alt.=612.633301m. Speed=22.823999m/h.</desc>
<speed>6.340000</speed>
</trkpt>
<trkpt lat="22.081564" lon="103.843117">
<ele>612.242676</ele>
<time>2011-04-25T10:25:35Z</time>
<desc>lat.=22.081564, lon.=103.843117, Alt.=612.242676m. Speed=21.024000m/h.</desc>
<speed>5.840000</speed>
</trkpt>
<trkpt lat="22.081341" lon="103.843262">
<ele>611.617676</ele>
<time>2011-04-25T10:25:40Z</time>
<desc>lat.=22.081341, lon.=103.843262, Alt.=611.617676m. Speed=20.195999m/h.</desc>
<speed>5.610000</speed>
</trkpt>
<trkpt lat="22.081120" lon="103.843422">
<ele>608.445801</ele>
<time>2011-04-25T10:25:45Z</time>
<desc>lat.=22.081120, lon.=103.843422, Alt.=608.445801m. Speed=18.936001m/h.</desc>
<speed>5.260000</speed>
</trkpt>
<trkpt lat="22.080940" lon="103.843575">
<ele>607.055176</ele>
<time>2011-04-25T10:25:50Z</time>
<desc>lat.=22.080940, lon.=103.843575, Alt.=607.055176m. Speed=16.992001m/h.</desc>
<speed>4.720000</speed>
</trkpt>
<trkpt lat="22.080774" lon="103.843681">
<ele>606.477051</ele>
<time>2011-04-25T10:25:55Z</time>
<desc>lat.=22.080774, lon.=103.843681, Alt.=606.477051m. Speed=13.752000m/h.</desc>
<speed>3.820000</speed>
</trkpt>
<trkpt lat="22.080616" lon="103.843773">
<ele>605.148926</ele>
<time>2011-04-25T10:26:00Z</time>
<desc>lat.=22.080616, lon.=103.843773, Alt.=605.148926m. Speed=14.328000m/h.</desc>
<speed>3.980000</speed>
</trkpt>
<trkpt lat="22.080433" lon="103.843872">
<ele>604.773926</ele>
<time>2011-04-25T10:26:05Z</time>
<desc>lat.=22.080433, lon.=103.843872, Alt.=604.773926m. Speed=17.604000m/h.</desc>
<speed>4.890000</speed>
</trkpt>
<trkpt lat="22.080233" lon="103.843979">
<ele>606.414551</ele>
<time>2011-04-25T10:26:10Z</time>
<desc>lat.=22.080233, lon.=103.843979, Alt.=606.414551m. Speed=17.136000m/h.</desc>
<speed>4.760000</speed>
</trkpt>
<trkpt lat="22.080044" lon="103.844086">
<ele>606.164551</ele>
<time>2011-04-25T10:26:15Z</time>
<desc>lat.=22.080044, lon.=103.844086, Alt.=606.164551m. Speed=18.143999m/h.</desc>
<speed>5.040000</speed>
</trkpt>
<trkpt lat="22.079826" lon="103.844246">
<ele>603.773926</ele>
<time>2011-04-25T10:26:20Z</time>
<desc>lat.=22.079826, lon.=103.844246, Alt.=603.773926m. Speed=22.212000m/h.</desc>
<speed>6.170000</speed>
</trkpt>
<trkpt lat="22.079576" lon="103.844452">
<ele>600.461426</ele>
<time>2011-04-25T10:26:25Z</time>
<desc>lat.=22.079576, lon.=103.844452, Alt.=600.461426m. Speed=24.084000m/h.</desc>
<speed>6.690000</speed>
</trkpt>
<trkpt lat="22.079317" lon="103.844666">
<ele>600.492676</ele>
<time>2011-04-25T10:26:30Z</time>
<desc>lat.=22.079317, lon.=103.844666, Alt.=600.492676m. Speed=25.848000m/h.</desc>
<speed>7.180000</speed>
</trkpt>
<trkpt lat="22.079046" lon="103.844879">
<ele>599.367676</ele>
<time>2011-04-25T10:26:35Z</time>
<desc>lat.=22.079046, lon.=103.844879, Alt.=599.367676m. Speed=26.388000m/h.</desc>
<speed>7.330000</speed>
</trkpt>
<trkpt lat="22.078751" lon="103.845108">
<ele>598.773926</ele>
<time>2011-04-25T10:26:40Z</time>
<desc>lat.=22.078751, lon.=103.845108, Alt.=598.773926m. Speed=28.908001m/h.</desc>
<speed>8.030000</speed>
</trkpt>
<trkpt lat="22.078506" lon="103.845375">
<ele>594.633301</ele>
<time>2011-04-25T10:26:45Z</time>
<desc>lat.=22.078506, lon.=103.845375, Alt.=594.633301m. Speed=26.712000m/h.</desc>
<speed>7.420000</speed>
</trkpt>
<trkpt lat="22.078304" lon="103.845673">
<ele>592.914551</ele>
<time>2011-04-25T10:26:50Z</time>
<desc>lat.=22.078304, lon.=103.845673, Alt.=592.914551m. Speed=26.351999m/h.</desc>
<speed>7.320000</speed>
</trkpt>
<trkpt lat="22.078186" lon="103.845955">
<ele>593.289551</ele>
<time>2011-04-25T10:26:55Z</time>
<desc>lat.=22.078186, lon.=103.845955, Alt.=593.289551m. Speed=25.812000m/h.</desc>
<speed>7.170000</speed>
</trkpt>
<trkpt lat="22.078270" lon="103.846260">
<ele>591.617676</ele>
<time>2011-04-25T10:27:00Z</time>
<desc>lat.=22.078270, lon.=103.846260, Alt.=591.617676m. Speed=25.884001m/h.</desc>
<speed>7.190000</speed>
</trkpt>
<trkpt lat="22.078463" lon="103.846550">
<ele>591.070801</ele>
<time>2011-04-25T10:27:05Z</time>
<desc>lat.=22.078463, lon.=103.846550, Alt.=591.070801m. Speed=27.143999m/h.</desc>
<speed>7.540000</speed>
</trkpt>
<trkpt lat="22.078650" lon="103.846832">
<ele>587.977051</ele>
<time>2011-04-25T10:27:10Z</time>
<desc>lat.=22.078650, lon.=103.846832, Alt.=587.977051m. Speed=23.940001m/h.</desc>
<speed>6.650000</speed>
</trkpt>
<trkpt lat="22.078764" lon="103.847130">
<ele>587.727051</ele>
<time>2011-04-25T10:27:15Z</time>
<desc>lat.=22.078764, lon.=103.847130, Alt.=587.727051m. Speed=23.076000m/h.</desc>
<speed>6.410000</speed>
</trkpt>
<trkpt lat="22.078732" lon="103.847496">
<ele>587.023926</ele>
<time>2011-04-25T10:27:20Z</time>
<desc>lat.=22.078732, lon.=103.847496, Alt.=587.023926m. Speed=25.271999m/h.</desc>
<speed>7.020000</speed>
</trkpt>
<trkpt lat="22.078587" lon="103.847824">
<ele>587.352051</ele>
<time>2011-04-25T10:27:25Z</time>
<desc>lat.=22.078587, lon.=103.847824, Alt.=587.352051m. Speed=21.816000m/h.</desc>
<speed>6.060000</speed>
</trkpt>
<trkpt lat="22.078447" lon="103.848129">
<ele>586.102051</ele>
<time>2011-04-25T10:27:30Z</time>
<desc>lat.=22.078447, lon.=103.848129, Alt.=586.102051m. Speed=23.219999m/h.</desc>
<speed>6.450000</speed>
</trkpt>
<trkpt lat="22.078314" lon="103.848396">
<ele>587.539551</ele>
<time>2011-04-25T10:27:35Z</time>
<desc>lat.=22.078314, lon.=103.848396, Alt.=587.539551m. Speed=21.348000m/h.</desc>
<speed>5.930000</speed>
</trkpt>
<trkpt lat="22.078157" lon="103.848656">
<ele>589.008301</ele>
<time>2011-04-25T10:27:40Z</time>
<desc>lat.=22.078157, lon.=103.848656, Alt.=589.008301m. Speed=19.584000m/h.</desc>
<speed>5.440000</speed>
</trkpt>
<trkpt lat="22.077906" lon="103.848755">
<ele>591.336426</ele>
<time>2011-04-25T10:27:45Z</time>
<desc>lat.=22.077906, lon.=103.848755, Alt.=591.336426m. Speed=19.188000m/h.</desc>
<speed>5.330000</speed>
</trkpt>
<trkpt lat="22.077654" lon="103.848663">
<ele>593.227051</ele>
<time>2011-04-25T10:27:50Z</time>
<desc>lat.=22.077654, lon.=103.848663, Alt.=593.227051m. Speed=19.872000m/h.</desc>
<speed>5.520000</speed>
</trkpt>
<trkpt lat="22.077446" lon="103.848503">
<ele>594.789551</ele>
<time>2011-04-25T10:27:55Z</time>
<desc>lat.=22.077446, lon.=103.848503, Alt.=594.789551m. Speed=19.944000m/h.</desc>
<speed>5.540000</speed>
</trkpt>
<trkpt lat="22.077263" lon="103.848320">
<ele>596.805176</ele>
<time>2011-04-25T10:28:00Z</time>
<desc>lat.=22.077263, lon.=103.848320, Alt.=596.805176m. Speed=18.648001m/h.</desc>
<speed>5.180000</speed>
</trkpt>
<trkpt lat="22.077091" lon="103.848114">
<ele>597.617676</ele>
<time>2011-04-25T10:28:05Z</time>
<desc>lat.=22.077091, lon.=103.848114, Alt.=597.617676m. Speed=19.511999m/h.</desc>
<speed>5.420000</speed>
</trkpt>
<trkpt lat="22.076853" lon="103.847939">
<ele>598.414551</ele>
<time>2011-04-25T10:28:10Z</time>
<desc>lat.=22.076853, lon.=103.847939, Alt.=598.414551m. Speed=22.464001m/h.</desc>
<speed>6.240000</speed>
</trkpt>
<trkpt lat="22.076611" lon="103.847794">
<ele>598.336426</ele>
<time>2011-04-25T10:28:15Z</time>
<desc>lat.=22.076611, lon.=103.847794, Alt.=598.336426m. Speed=20.736000m/h.</desc>
<speed>5.760000</speed>
</trkpt>
<trkpt lat="22.076342" lon="103.847679">
<ele>598.805176</ele>
<time>2011-04-25T10:28:20Z</time>
<desc>lat.=22.076342, lon.=103.847679, Alt.=598.805176m. Speed=18.216000m/h.</desc>
<speed>5.060000</speed>
</trkpt>
<trkpt lat="22.076094" lon="103.847633">
<ele>599.664551</ele>
<time>2011-04-25T10:28:25Z</time>
<desc>lat.=22.076094, lon.=103.847633, Alt.=599.664551m. Speed=18.827999m/h.</desc>
<speed>5.230000</speed>
</trkpt>
<trkpt lat="22.075876" lon="103.847710">
<ele>601.648926</ele>
<time>2011-04-25T10:28:30Z</time>
<desc>lat.=22.075876, lon.=103.847710, Alt.=601.648926m. Speed=18.612000m/h.</desc>
<speed>5.170000</speed>
</trkpt>
<trkpt lat="22.075663" lon="103.847900">
<ele>600.586426</ele>
<time>2011-04-25T10:28:35Z</time>
<desc>lat.=22.075663, lon.=103.847900, Alt.=600.586426m. Speed=23.544001m/h.</desc>
<speed>6.540000</speed>
</trkpt>
<trkpt lat="22.075453" lon="103.848160">
<ele>597.773926</ele>
<time>2011-04-25T10:28:40Z</time>
<desc>lat.=22.075453, lon.=103.848160, Alt.=597.773926m. Speed=27.180000m/h.</desc>
<speed>7.550000</speed>
</trkpt>
<trkpt lat="22.075382" lon="103.848511">
<ele>596.555176</ele>
<time>2011-04-25T10:28:45Z</time>
<desc>lat.=22.075382, lon.=103.848511, Alt.=596.555176m. Speed=31.068001m/h.</desc>
<speed>8.630000</speed>
</trkpt>
<trkpt lat="22.075367" lon="103.848938">
<ele>592.258301</ele>
<time>2011-04-25T10:28:50Z</time>
<desc>lat.=22.075367, lon.=103.848938, Alt.=592.258301m. Speed=32.976002m/h.</desc>
<speed>9.160000</speed>
</trkpt>
<trkpt lat="22.075159" lon="103.849319">
<ele>594.148926</ele>
<time>2011-04-25T10:28:55Z</time>
<desc>lat.=22.075159, lon.=103.849319, Alt.=594.148926m. Speed=30.275999m/h.</desc>
<speed>8.410000</speed>
</trkpt>
<trkpt lat="22.074921" lon="103.849602">
<ele>594.742676</ele>
<time>2011-04-25T10:29:00Z</time>
<desc>lat.=22.074921, lon.=103.849602, Alt.=594.742676m. Speed=23.796000m/h.</desc>
<speed>6.610000</speed>
</trkpt>
<trkpt lat="22.074661" lon="103.849785">
<ele>595.711426</ele>
<time>2011-04-25T10:29:05Z</time>
<desc>lat.=22.074661, lon.=103.849785, Alt.=595.711426m. Speed=21.420000m/h.</desc>
<speed>5.950000</speed>
</trkpt>
<trkpt lat="22.074455" lon="103.849907">
<ele>595.898926</ele>
<time>2011-04-25T10:29:10Z</time>
<desc>lat.=22.074455, lon.=103.849907, Alt.=595.898926m. Speed=16.884001m/h.</desc>
<speed>4.690000</speed>
</trkpt>
<trkpt lat="22.074301" lon="103.850014">
<ele>595.211426</ele>
<time>2011-04-25T10:29:15Z</time>
<desc>lat.=22.074301, lon.=103.850014, Alt.=595.211426m. Speed=11.412000m/h.</desc>
<speed>3.170000</speed>
</trkpt>
<trkpt lat="22.074188" lon="103.850098">
<ele>594.883301</ele>
<time>2011-04-25T10:29:20Z</time>
<desc>lat.=22.074188, lon.=103.850098, Alt.=594.883301m. Speed=12.204000m/h.</desc>
<speed>3.390000</speed>
</trkpt>
<trkpt lat="22.074047" lon="103.850243">
<ele>594.945801</ele>
<time>2011-04-25T10:29:25Z</time>
<desc>lat.=22.074047, lon.=103.850243, Alt.=594.945801m. Speed=15.876000m/h.</desc>
<speed>4.410000</speed>
</trkpt>
<trkpt lat="22.073940" lon="103.850410">
<ele>594.414551</ele>
<time>2011-04-25T10:29:30Z</time>
<desc>lat.=22.073940, lon.=103.850410, Alt.=594.414551m. Speed=12.852000m/h.</desc>
<speed>3.570000</speed>
</trkpt>
<trkpt lat="22.073885" lon="103.850555">
<ele>591.977051</ele>
<time>2011-04-25T10:29:35Z</time>
<desc>lat.=22.073885, lon.=103.850555, Alt.=591.977051m. Speed=9.612000m/h.</desc>
<speed>2.670000</speed>
</trkpt>
<trkpt lat="22.073841" lon="103.850639">
<ele>591.758301</ele>
<time>2011-04-25T10:29:40Z</time>
<desc>lat.=22.073841, lon.=103.850639, Alt.=591.758301m. Speed=6.228000m/h.</desc>
<speed>1.730000</speed>
</trkpt>
<trkpt lat="22.073782" lon="103.850739">
<ele>589.789551</ele>
<time>2011-04-25T10:29:45Z</time>
<desc>lat.=22.073782, lon.=103.850739, Alt.=589.789551m. Speed=7.272000m/h.</desc>
<speed>2.020000</speed>
</trkpt>
<trkpt lat="22.073730" lon="103.850891">
<ele>588.320801</ele>
<time>2011-04-25T10:29:50Z</time>
<desc>lat.=22.073730, lon.=103.850891, Alt.=588.320801m. Speed=5.076000m/h.</desc>
<speed>1.410000</speed>
</trkpt>
<trkpt lat="22.073704" lon="103.850960">
<ele>586.992676</ele>
<time>2011-04-25T10:29:55Z</time>
<desc>lat.=22.073704, lon.=103.850960, Alt.=586.992676m. Speed=1.224000m/h.</desc>
<speed>0.340000</speed>
</trkpt>
<trkpt lat="22.073689" lon="103.850960">
<ele>587.633301</ele>
<time>2011-04-25T10:30:00Z</time>
<desc>lat.=22.073689, lon.=103.850960, Alt.=587.633301m. Speed=0.036000m/h.</desc>
<speed>0.010000</speed>
</trkpt>
<trkpt lat="22.073690" lon="103.850960">
<ele>587.727051</ele>
<time>2011-04-25T10:30:05Z</time>
<desc>lat.=22.073690, lon.=103.850960, Alt.=587.727051m. Speed=0.144000m/h.</desc>
<speed>0.040000</speed>
</trkpt>
<trkpt lat="22.073690" lon="103.850960">
<ele>587.836426</ele>
<time>2011-04-25T10:30:10Z</time>
<desc>lat.=22.073690, lon.=103.850960, Alt.=587.836426m. Speed=0.108000m/h.</desc>
<speed>0.030000</speed>
</trkpt>
<trkpt lat="22.073690" lon="103.850960">
<ele>587.758301</ele>
<time>2011-04-25T10:30:15Z</time>
<desc>lat.=22.073690, lon.=103.850960, Alt.=587.758301m. Speed=0.108000m/h.</desc>
<speed>0.030000</speed>
</trkpt>
<trkpt lat="22.073689" lon="103.850960">
<ele>587.805176</ele>
<time>2011-04-25T10:30:20Z</time>
<desc>lat.=22.073689, lon.=103.850960, Alt.=587.805176m. Speed=0.252000m/h.</desc>
<speed>0.070000</speed>
</trkpt>
<trkpt lat="22.073689" lon="103.850967">
<ele>587.914551</ele>
<time>2011-04-25T10:30:25Z</time>
<desc>lat.=22.073689, lon.=103.850967, Alt.=587.914551m. Speed=0.036000m/h.</desc>
<speed>0.010000</speed>
</trkpt>
<trkpt lat="22.073692" lon="103.850967">
<ele>587.945801</ele>
<time>2011-04-25T10:30:30Z</time>
<desc>lat.=22.073692, lon.=103.850967, Alt.=587.945801m. Speed=0.468000m/h.</desc>
<speed>0.130000</speed>
</trkpt>
<trkpt lat="22.073694" lon="103.850967">
<ele>587.992676</ele>
<time>2011-04-25T10:30:35Z</time>
<desc>lat.=22.073694, lon.=103.850967, Alt.=587.992676m. Speed=0.036000m/h.</desc>
<speed>0.010000</speed>
</trkpt>
<trkpt lat="22.073694" lon="103.850967">
<ele>587.961426</ele>
<time>2011-04-25T10:30:40Z</time>
<desc>lat.=22.073694, lon.=103.850967, Alt.=587.961426m. Speed=0.036000m/h.</desc>
<speed>0.010000</speed>
</trkpt>
<trkpt lat="22.073694" lon="103.850967">
<ele>587.977051</ele>
<time>2011-04-25T10:30:45Z</time>
<desc>lat.=22.073694, lon.=103.850967, Alt.=587.977051m. Speed=0.072000m/h.</desc>
<speed>0.020000</speed>
</trkpt>
<trkpt lat="22.073694" lon="103.850967">
<ele>587.930176</ele>
<time>2011-04-25T10:30:50Z</time>
<desc>lat.=22.073694, lon.=103.850967, Alt.=587.930176m. Speed=0.000000m/h.</desc>
<speed>0.000000</speed>
</trkpt>
<trkpt lat="22.073694" lon="103.850967">
<ele>587.914551</ele>
<time>2011-04-25T10:30:55Z</time>
<desc>lat.=22.073694, lon.=103.850967, Alt.=587.914551m. Speed=0.036000m/h.</desc>
<speed>0.010000</speed>
</trkpt>
<trkpt lat="22.073696" lon="103.850967">
<ele>587.945801</ele>
<time>2011-04-25T10:31:00Z</time>
<desc>lat.=22.073696, lon.=103.850967, Alt.=587.945801m. Speed=0.000000m/h.</desc>
<speed>0.000000</speed>
</trkpt>
<trkpt lat="22.073696" lon="103.850967">
<ele>587.945801</ele>
<time>2011-04-25T10:31:05Z</time>
<desc>lat.=22.073696, lon.=103.850967, Alt.=587.945801m. Speed=0.144000m/h.</desc>
<speed>0.040000</speed>
</trkpt>
<trkpt lat="22.073694" lon="103.850975">
<ele>587.992676</ele>
<time>2011-04-25T10:31:10Z</time>
<desc>lat.=22.073694, lon.=103.850975, Alt.=587.992676m. Speed=0.036000m/h.</desc>
<speed>0.010000</speed>
</trkpt>
<trkpt lat="22.073694" lon="103.850975">
<ele>588.023926</ele>
<time>2011-04-25T10:31:15Z</time>
<desc>lat.=22.073694, lon.=103.850975, Alt.=588.023926m. Speed=0.072000m/h.</desc>
<speed>0.020000</speed>
</trkpt>
<trkpt lat="22.073694" lon="103.850975">
<ele>588.023926</ele>
<time>2011-04-25T10:31:20Z</time>
<desc>lat.=22.073694, lon.=103.850975, Alt.=588.023926m. Speed=0.072000m/h.</desc>
<speed>0.020000</speed>
</trkpt>
<trkpt lat="22.073694" lon="103.850975">
<ele>588.164551</ele>
<time>2011-04-25T10:31:25Z</time>
<desc>lat.=22.073694, lon.=103.850975, Alt.=588.164551m. Speed=0.144000m/h.</desc>
<speed>0.040000</speed>
</trkpt>
<trkpt lat="22.073694" lon="103.850975">
<ele>588.258301</ele>
<time>2011-04-25T10:31:30Z</time>
<desc>lat.=22.073694, lon.=103.850975, Alt.=588.258301m. Speed=0.108000m/h.</desc>
<speed>0.030000</speed>
</trkpt>
<trkpt lat="22.073694" lon="103.850975">
<ele>588.320801</ele>
<time>2011-04-25T10:31:35Z</time>
<desc>lat.=22.073694, lon.=103.850975, Alt.=588.320801m. Speed=0.072000m/h.</desc>
<speed>0.020000</speed>
</trkpt>
<trkpt lat="22.073694" lon="103.850975">
<ele>588.367676</ele>
<time>2011-04-25T10:31:40Z</time>
<desc>lat.=22.073694, lon.=103.850975, Alt.=588.367676m. Speed=0.072000m/h.</desc>
<speed>0.020000</speed>
</trkpt>
<trkpt lat="22.073694" lon="103.850975">
<ele>588.398926</ele>
<time>2011-04-25T10:31:45Z</time>
<desc>lat.=22.073694, lon.=103.850975, Alt.=588.398926m. Speed=0.036000m/h.</desc>
<speed>0.010000</speed>
</trkpt>
<trkpt lat="22.073696" lon="103.850975">
<ele>588.461426</ele>
<time>2011-04-25T10:31:50Z</time>
<desc>lat.=22.073696, lon.=103.850975, Alt.=588.461426m. Speed=0.036000m/h.</desc>
<speed>0.010000</speed>
</trkpt>
<trkpt lat="22.073696" lon="103.850975">
<ele>588.492676</ele>
<time>2011-04-25T10:31:55Z</time>
<desc>lat.=22.073696, lon.=103.850975, Alt.=588.492676m. Speed=0.180000m/h.</desc>
<speed>0.050000</speed>
</trkpt>
<trkpt lat="22.073696" lon="103.850975">
<ele>588.539551</ele>
<time>2011-04-25T10:32:00Z</time>
<desc>lat.=22.073696, lon.=103.850975, Alt.=588.539551m. Speed=0.036000m/h.</desc>
<speed>0.010000</speed>
</trkpt>
<trkpt lat="22.073696" lon="103.850983">
<ele>588.602051</ele>
<time>2011-04-25T10:32:05Z</time>
<desc>lat.=22.073696, lon.=103.850983, Alt.=588.602051m. Speed=0.036000m/h.</desc>
<speed>0.010000</speed>
</trkpt>
<trkpt lat="22.073696" lon="103.850983">
<ele>588.539551</ele>
<time>2011-04-25T10:32:10Z</time>
<desc>lat.=22.073696, lon.=103.850983, Alt.=588.539551m. Speed=0.036000m/h.</desc>
<speed>0.010000</speed>
</trkpt>
<trkpt lat="22.073696" lon="103.850983">
<ele>588.508301</ele>
<time>2011-04-25T10:32:15Z</time>
<desc>lat.=22.073696, lon.=103.850983, Alt.=588.508301m. Speed=0.036000m/h.</desc>
<speed>0.010000</speed>
</trkpt>
<trkpt lat="22.073696" lon="103.850983">
<ele>588.477051</ele>
<time>2011-04-25T10:32:20Z</time>
<desc>lat.=22.073696, lon.=103.850983, Alt.=588.477051m. Speed=0.000000m/h.</desc>
<speed>0.000000</speed>
</trkpt>
<trkpt lat="22.073696" lon="103.850983">
<ele>588.523926</ele>
<time>2011-04-25T10:32:25Z</time>
<desc>lat.=22.073696, lon.=103.850983, Alt.=588.523926m. Speed=0.036000m/h.</desc>
<speed>0.010000</speed>
</trkpt>
<trkpt lat="22.073696" lon="103.850983">
<ele>588.539551</ele>
<time>2011-04-25T10:32:30Z</time>
<desc>lat.=22.073696, lon.=103.850983, Alt.=588.539551m. Speed=0.036000m/h.</desc>
<speed>0.010000</speed>
</trkpt>
<trkpt lat="22.073696" lon="103.850983">
<ele>588.492676</ele>
<time>2011-04-25T10:32:35Z</time>
<desc>lat.=22.073696, lon.=103.850983, Alt.=588.492676m. Speed=0.000000m/h.</desc>
<speed>0.000000</speed>
</trkpt>
<trkpt lat="22.073696" lon="103.850983">
<ele>588.461426</ele>
<time>2011-04-25T10:32:40Z</time>
<desc>lat.=22.073696, lon.=103.850983, Alt.=588.461426m. Speed=0.036000m/h.</desc>
<speed>0.010000</speed>
</trkpt>
<trkpt lat="22.073698" lon="103.850983">
<ele>588.461426</ele>
<time>2011-04-25T10:32:45Z</time>
<desc>lat.=22.073698, lon.=103.850983, Alt.=588.461426m. Speed=0.000000m/h.</desc>
<speed>0.000000</speed>
</trkpt>
<trkpt lat="22.073698" lon="103.850983">
<ele>588.508301</ele>
<time>2011-04-25T10:32:50Z</time>
<desc>lat.=22.073698, lon.=103.850983, Alt.=588.508301m. Speed=0.036000m/h.</desc>
<speed>0.010000</speed>
</trkpt>
<trkpt lat="22.073698" lon="103.850983">
<ele>588.492676</ele>
<time>2011-04-25T10:32:55Z</time>
<desc>lat.=22.073698, lon.=103.850983, Alt.=588.492676m. Speed=0.000000m/h.</desc>
<speed>0.000000</speed>
</trkpt>
<trkpt lat="22.073698" lon="103.850983">
<ele>588.555176</ele>
<time>2011-04-25T10:33:00Z</time>
<desc>lat.=22.073698, lon.=103.850983, Alt.=588.555176m. Speed=0.072000m/h.</desc>
<speed>0.020000</speed>
</trkpt>
<trkpt lat="22.073694" lon="103.850990">
<ele>588.508301</ele>
<time>2011-04-25T10:33:05Z</time>
<desc>lat.=22.073694, lon.=103.850990, Alt.=588.508301m. Speed=0.828000m/h.</desc>
<speed>0.230000</speed>
</trkpt>
<trkpt lat="22.073692" lon="103.850998">
<ele>588.461426</ele>
<time>2011-04-25T10:33:10Z</time>
<desc>lat.=22.073692, lon.=103.850998, Alt.=588.461426m. Speed=0.072000m/h.</desc>
<speed>0.020000</speed>
</trkpt>
<trkpt lat="22.073694" lon="103.850998">
<ele>588.477051</ele>
<time>2011-04-25T10:33:15Z</time>
<desc>lat.=22.073694, lon.=103.850998, Alt.=588.477051m. Speed=0.108000m/h.</desc>
<speed>0.030000</speed>
</trkpt>
<trkpt lat="22.073692" lon="103.851006">
<ele>588.586426</ele>
<time>2011-04-25T10:33:20Z</time>
<desc>lat.=22.073692, lon.=103.851006, Alt.=588.586426m. Speed=0.432000m/h.</desc>
<speed>0.120000</speed>
</trkpt>
<trkpt lat="22.073702" lon="103.851006">
<ele>587.117676</ele>
<time>2011-04-25T10:33:25Z</time>
<desc>lat.=22.073702, lon.=103.851006, Alt.=587.117676m. Speed=0.036000m/h.</desc>
<speed>0.010000</speed>
</trkpt>
<trkpt lat="22.073706" lon="103.850998">
<ele>585.367676</ele>
<time>2011-04-25T10:33:30Z</time>
<desc>lat.=22.073706, lon.=103.850998, Alt.=585.367676m. Speed=0.000000m/h.</desc>
<speed>0.000000</speed>
</trkpt>
<trkpt lat="22.073708" lon="103.850998">
<ele>584.367676</ele>
<time>2011-04-25T10:33:35Z</time>
<desc>lat.=22.073708, lon.=103.850998, Alt.=584.367676m. Speed=0.000000m/h.</desc>
<speed>0.000000</speed>
</trkpt>
<trkpt lat="22.073709" lon="103.850998">
<ele>583.758301</ele>
<time>2011-04-25T10:33:40Z</time>
<desc>lat.=22.073709, lon.=103.850998, Alt.=583.758301m. Speed=0.036000m/h.</desc>
<speed>0.010000</speed>
</trkpt>
<trkpt lat="22.073709" lon="103.851006">
<ele>583.570801</ele>
<time>2011-04-25T10:33:45Z</time>
<desc>lat.=22.073709, lon.=103.851006, Alt.=583.570801m. Speed=0.000000m/h.</desc>
<speed>0.000000</speed>
</trkpt>
<trkpt lat="22.073711" lon="103.851021">
<ele>583.102051</ele>
<time>2011-04-25T10:33:50Z</time>
<desc>lat.=22.073711, lon.=103.851021, Alt.=583.102051m. Speed=0.000000m/h.</desc>
<speed>0.000000</speed>
</trkpt>
<trkpt lat="22.073711" lon="103.851028">
<ele>582.883301</ele>
<time>2011-04-25T10:33:55Z</time>
<desc>lat.=22.073711, lon.=103.851028, Alt.=582.883301m. Speed=0.036000m/h.</desc>
<speed>0.010000</speed>
</trkpt>
<trkpt lat="22.073713" lon="103.851036">
<ele>581.445801</ele>
<time>2011-04-25T10:34:00Z</time>
<desc>lat.=22.073713, lon.=103.851036, Alt.=581.445801m. Speed=0.000000m/h.</desc>
<speed>0.000000</speed>
</trkpt>
<trkpt lat="22.073713" lon="103.851036">
<ele>581.352051</ele>
<time>2011-04-25T10:34:05Z</time>
<desc>lat.=22.073713, lon.=103.851036, Alt.=581.352051m. Speed=0.000000m/h.</desc>
<speed>0.000000</speed>
</trkpt>
<trkpt lat="22.073713" lon="103.851036">
<ele>581.320801</ele>
<time>2011-04-25T10:34:10Z</time>
<desc>lat.=22.073713, lon.=103.851036, Alt.=581.320801m. Speed=0.036000m/h.</desc>
<speed>0.010000</speed>
</trkpt>
<trkpt lat="22.073715" lon="103.851036">
<ele>581.273926</ele>
<time>2011-04-25T10:34:15Z</time>
<desc>lat.=22.073715, lon.=103.851036, Alt.=581.273926m. Speed=0.036000m/h.</desc>
<speed>0.010000</speed>
</trkpt>
<trkpt lat="22.073715" lon="103.851028">
<ele>581.227051</ele>
<time>2011-04-25T10:34:20Z</time>
<desc>lat.=22.073715, lon.=103.851028, Alt.=581.227051m. Speed=0.036000m/h.</desc>
<speed>0.010000</speed>
</trkpt>
<trkpt lat="22.073715" lon="103.851036">
<ele>581.180176</ele>
<time>2011-04-25T10:34:25Z</time>
<desc>lat.=22.073715, lon.=103.851036, Alt.=581.180176m. Speed=0.072000m/h.</desc>
<speed>0.020000</speed>
</trkpt>
<trkpt lat="22.073715" lon="103.851036">
<ele>581.148926</ele>
<time>2011-04-25T10:34:30Z</time>
<desc>lat.=22.073715, lon.=103.851036, Alt.=581.148926m. Speed=0.000000m/h.</desc>
<speed>0.000000</speed>
</trkpt>
<trkpt lat="22.073715" lon="103.851036">
<ele>581.102051</ele>
<time>2011-04-25T10:34:35Z</time>
<desc>lat.=22.073715, lon.=103.851036, Alt.=581.102051m. Speed=0.000000m/h.</desc>
<speed>0.000000</speed>
</trkpt>
<trkpt lat="22.073715" lon="103.851036">
<ele>581.055176</ele>
<time>2011-04-25T10:34:40Z</time>
<desc>lat.=22.073715, lon.=103.851036, Alt.=581.055176m. Speed=0.000000m/h.</desc>
<speed>0.000000</speed>
</trkpt>
<trkpt lat="22.073715" lon="103.851036">
<ele>581.008301</ele>
<time>2011-04-25T10:34:45Z</time>
<desc>lat.=22.073715, lon.=103.851036, Alt.=581.008301m. Speed=0.000000m/h.</desc>
<speed>0.000000</speed>
</trkpt>
<trkpt lat="22.073715" lon="103.851036">
<ele>581.008301</ele>
<time>2011-04-25T10:34:50Z</time>
<desc>lat.=22.073715, lon.=103.851036, Alt.=581.008301m. Speed=0.000000m/h.</desc>
<speed>0.000000</speed>
</trkpt>
<trkpt lat="22.073715" lon="103.851036">
<ele>580.992676</ele>
<time>2011-04-25T10:34:55Z</time>
<desc>lat.=22.073715, lon.=103.851036, Alt.=580.992676m. Speed=0.144000m/h.</desc>
<speed>0.040000</speed>
</trkpt>
<trkpt lat="22.073711" lon="103.851036">
<ele>580.992676</ele>
<time>2011-04-25T10:35:00Z</time>
<desc>lat.=22.073711, lon.=103.851036, Alt.=580.992676m. Speed=6.300000m/h.</desc>
<speed>1.750000</speed>
</trkpt>
<trkpt lat="22.073683" lon="103.851181">
<ele>580.352051</ele>
<time>2011-04-25T10:35:05Z</time>
<desc>lat.=22.073683, lon.=103.851181, Alt.=580.352051m. Speed=10.440000m/h.</desc>
<speed>2.900000</speed>
</trkpt>
<trkpt lat="22.073626" lon="103.851288">
<ele>580.680176</ele>
<time>2011-04-25T10:35:10Z</time>
<desc>lat.=22.073626, lon.=103.851288, Alt.=580.680176m. Speed=6.552000m/h.</desc>
<speed>1.820000</speed>
</trkpt>
<trkpt lat="22.073574" lon="103.851379">
<ele>581.883301</ele>
<time>2011-04-25T10:35:15Z</time>
<desc>lat.=22.073574, lon.=103.851379, Alt.=581.883301m. Speed=8.064000m/h.</desc>
<speed>2.240000</speed>
</trkpt>
<trkpt lat="22.073532" lon="103.851486">
<ele>583.445801</ele>
<time>2011-04-25T10:35:20Z</time>
<desc>lat.=22.073532, lon.=103.851486, Alt.=583.445801m. Speed=8.352000m/h.</desc>
<speed>2.320000</speed>
</trkpt>
<trkpt lat="22.073463" lon="103.851585">
<ele>585.727051</ele>
<time>2011-04-25T10:35:25Z</time>
<desc>lat.=22.073463, lon.=103.851585, Alt.=585.727051m. Speed=10.800000m/h.</desc>
<speed>3.000000</speed>
</trkpt>
<trkpt lat="22.073368" lon="103.851692">
<ele>586.664551</ele>
<time>2011-04-25T10:35:30Z</time>
<desc>lat.=22.073368, lon.=103.851692, Alt.=586.664551m. Speed=11.196000m/h.</desc>
<speed>3.110000</speed>
</trkpt>
<trkpt lat="22.073305" lon="103.851753">
<ele>586.930176</ele>
<time>2011-04-25T10:35:35Z</time>
<desc>lat.=22.073305, lon.=103.851753, Alt.=586.930176m. Speed=3.816000m/h.</desc>
<speed>1.060000</speed>
</trkpt>
<trkpt lat="22.073277" lon="103.851791">
<ele>586.852051</ele>
<time>2011-04-25T10:35:40Z</time>
<desc>lat.=22.073277, lon.=103.851791, Alt.=586.852051m. Speed=1.152000m/h.</desc>
<speed>0.320000</speed>
</trkpt>
<trkpt lat="22.073231" lon="103.851845">
<ele>586.914551</ele>
<time>2011-04-25T10:35:45Z</time>
<desc>lat.=22.073231, lon.=103.851845, Alt.=586.914551m. Speed=6.984000m/h.</desc>
<speed>1.940000</speed>
</trkpt>
<trkpt lat="22.073122" lon="103.851952">
<ele>585.352051</ele>
<time>2011-04-25T10:35:50Z</time>
<desc>lat.=22.073122, lon.=103.851952, Alt.=585.352051m. Speed=12.276000m/h.</desc>
<speed>3.410000</speed>
</trkpt>
<trkpt lat="22.073013" lon="103.852058">
<ele>584.336426</ele>
<time>2011-04-25T10:35:55Z</time>
<desc>lat.=22.073013, lon.=103.852058, Alt.=584.336426m. Speed=12.168000m/h.</desc>
<speed>3.380000</speed>
</trkpt>
<trkpt lat="22.072880" lon="103.852196">
<ele>583.977051</ele>
<time>2011-04-25T10:36:00Z</time>
<desc>lat.=22.072880, lon.=103.852196, Alt.=583.977051m. Speed=14.652000m/h.</desc>
<speed>4.070000</speed>
</trkpt>
<trkpt lat="22.072760" lon="103.852325">
<ele>584.039551</ele>
<time>2011-04-25T10:36:05Z</time>
<desc>lat.=22.072760, lon.=103.852325, Alt.=584.039551m. Speed=11.448000m/h.</desc>
<speed>3.180000</speed>
</trkpt>
<trkpt lat="22.072672" lon="103.852402">
<ele>584.102051</ele>
<time>2011-04-25T10:36:10Z</time>
<desc>lat.=22.072672, lon.=103.852402, Alt.=584.102051m. Speed=6.300000m/h.</desc>
<speed>1.750000</speed>
</trkpt>
<trkpt lat="22.072638" lon="103.852463">
<ele>584.102051</ele>
<time>2011-04-25T10:36:15Z</time>
<desc>lat.=22.072638, lon.=103.852463, Alt.=584.102051m. Speed=3.780000m/h.</desc>
<speed>1.050000</speed>
</trkpt>
<trkpt lat="22.072592" lon="103.852493">
<ele>584.180176</ele>
<time>2011-04-25T10:36:20Z</time>
<desc>lat.=22.072592, lon.=103.852493, Alt.=584.180176m. Speed=0.648000m/h.</desc>
<speed>0.180000</speed>
</trkpt>
<trkpt lat="22.072594" lon="103.852501">
<ele>584.102051</ele>
<time>2011-04-25T10:36:25Z</time>
<desc>lat.=22.072594, lon.=103.852501, Alt.=584.102051m. Speed=2.124000m/h.</desc>
<speed>0.590000</speed>
</trkpt>
<trkpt lat="22.072624" lon="103.852501">
<ele>584.148926</ele>
<time>2011-04-25T10:36:30Z</time>
<desc>lat.=22.072624, lon.=103.852501, Alt.=584.148926m. Speed=2.808000m/h.</desc>
<speed>0.780000</speed>
</trkpt>
<trkpt lat="22.072680" lon="103.852478">
<ele>584.258301</ele>
<time>2011-04-25T10:36:35Z</time>
<desc>lat.=22.072680, lon.=103.852478, Alt.=584.258301m. Speed=5.148000m/h.</desc>
<speed>1.430000</speed>
</trkpt>
<trkpt lat="22.072802" lon="103.852417">
<ele>584.227051</ele>
<time>2011-04-25T10:36:40Z</time>
<desc>lat.=22.072802, lon.=103.852417, Alt.=584.227051m. Speed=14.436000m/h.</desc>
<speed>4.010000</speed>
</trkpt>
<trkpt lat="22.072962" lon="103.852226">
<ele>584.602051</ele>
<time>2011-04-25T10:36:45Z</time>
<desc>lat.=22.072962, lon.=103.852226, Alt.=584.602051m. Speed=16.236000m/h.</desc>
<speed>4.510000</speed>
</trkpt>
<trkpt lat="22.073135" lon="103.852020">
<ele>585.273926</ele>
<time>2011-04-25T10:36:50Z</time>
<desc>lat.=22.073135, lon.=103.852020, Alt.=585.273926m. Speed=18.468000m/h.</desc>
<speed>5.130000</speed>
</trkpt>
<trkpt lat="22.073322" lon="103.851814">
<ele>586.305176</ele>
<time>2011-04-25T10:36:55Z</time>
<desc>lat.=22.073322, lon.=103.851814, Alt.=586.305176m. Speed=14.868000m/h.</desc>
<speed>4.130000</speed>
</trkpt>
<trkpt lat="22.073488" lon="103.851639">
<ele>587.133301</ele>
<time>2011-04-25T10:37:00Z</time>
<desc>lat.=22.073488, lon.=103.851639, Alt.=587.133301m. Speed=16.920000m/h.</desc>
<speed>4.700000</speed>
</trkpt>
<trkpt lat="22.073601" lon="103.851494">
<ele>587.945801</ele>
<time>2011-04-25T10:37:05Z</time>
<desc>lat.=22.073601, lon.=103.851494, Alt.=587.945801m. Speed=13.248000m/h.</desc>
<speed>3.680000</speed>
</trkpt>
<trkpt lat="22.073677" lon="103.851364">
<ele>589.508301</ele>
<time>2011-04-25T10:37:10Z</time>
<desc>lat.=22.073677, lon.=103.851364, Alt.=589.508301m. Speed=12.636000m/h.</desc>
<speed>3.510000</speed>
</trkpt>
<trkpt lat="22.073721" lon="103.851181">
<ele>590.805176</ele>
<time>2011-04-25T10:37:15Z</time>
<desc>lat.=22.073721, lon.=103.851181, Alt.=590.805176m. Speed=11.268000m/h.</desc>
<speed>3.130000</speed>
</trkpt>
<trkpt lat="22.073730" lon="103.851089">
<ele>591.898926</ele>
<time>2011-04-25T10:37:20Z</time>
<desc>lat.=22.073730, lon.=103.851089, Alt.=591.898926m. Speed=1.008000m/h.</desc>
<speed>0.280000</speed>
</trkpt>
<trkpt lat="22.073729" lon="103.851082">
<ele>591.680176</ele>
<time>2011-04-25T10:37:25Z</time>
<desc>lat.=22.073729, lon.=103.851082, Alt.=591.680176m. Speed=0.432000m/h.</desc>
<speed>0.120000</speed>
</trkpt>
<trkpt lat="22.073729" lon="103.851074">
<ele>591.773926</ele>
<time>2011-04-25T10:37:30Z</time>
<desc>lat.=22.073729, lon.=103.851074, Alt.=591.773926m. Speed=1.008000m/h.</desc>
<speed>0.280000</speed>
</trkpt>
<trkpt lat="22.073727" lon="103.851059">
<ele>591.836426</ele>
<time>2011-04-25T10:37:35Z</time>
<desc>lat.=22.073727, lon.=103.851059, Alt.=591.836426m. Speed=1.152000m/h.</desc>
<speed>0.320000</speed>
</trkpt>
<trkpt lat="22.073730" lon="103.851051">
<ele>591.883301</ele>
<time>2011-04-25T10:37:40Z</time>
<desc>lat.=22.073730, lon.=103.851051, Alt.=591.883301m. Speed=0.360000m/h.</desc>
<speed>0.100000</speed>
</trkpt>
<trkpt lat="22.073732" lon="103.851044">
<ele>591.945801</ele>
<time>2011-04-25T10:37:45Z</time>
<desc>lat.=22.073732, lon.=103.851044, Alt.=591.945801m. Speed=0.576000m/h.</desc>
<speed>0.160000</speed>
</trkpt>
<trkpt lat="22.073734" lon="103.851044">
<ele>591.977051</ele>
<time>2011-04-25T10:37:50Z</time>
<desc>lat.=22.073734, lon.=103.851044, Alt.=591.977051m. Speed=0.252000m/h.</desc>
<speed>0.070000</speed>
</trkpt>
<trkpt lat="22.073736" lon="103.851036">
<ele>592.008301</ele>
<time>2011-04-25T10:37:55Z</time>
<desc>lat.=22.073736, lon.=103.851036, Alt.=592.008301m. Speed=0.288000m/h.</desc>
<speed>0.080000</speed>
</trkpt>
<trkpt lat="22.073738" lon="103.851036">
<ele>592.023926</ele>
<time>2011-04-25T10:38:00Z</time>
<desc>lat.=22.073738, lon.=103.851036, Alt.=592.023926m. Speed=0.180000m/h.</desc>
<speed>0.050000</speed>
</trkpt>
<trkpt lat="22.073738" lon="103.851036">
<ele>592.039551</ele>
<time>2011-04-25T10:38:05Z</time>
<desc>lat.=22.073738, lon.=103.851036, Alt.=592.039551m. Speed=0.252000m/h.</desc>
<speed>0.070000</speed>
</trkpt>
<trkpt lat="22.073740" lon="103.851028">
<ele>592.039551</ele>
<time>2011-04-25T10:38:10Z</time>
<desc>lat.=22.073740, lon.=103.851028, Alt.=592.039551m. Speed=0.468000m/h.</desc>
<speed>0.130000</speed>
</trkpt>
<trkpt lat="22.073750" lon="103.851028">
<ele>592.008301</ele>
<time>2011-04-25T10:38:15Z</time>
<desc>lat.=22.073750, lon.=103.851028, Alt.=592.008301m. Speed=1.044000m/h.</desc>
<speed>0.290000</speed>
</trkpt>
<trkpt lat="22.073759" lon="103.851021">
<ele>591.961426</ele>
<time>2011-04-25T10:38:20Z</time>
<desc>lat.=22.073759, lon.=103.851021, Alt.=591.961426m. Speed=0.684000m/h.</desc>
<speed>0.190000</speed>
</trkpt>
<trkpt lat="22.073765" lon="103.851013">
<ele>591.945801</ele>
<time>2011-04-25T10:38:25Z</time>
<desc>lat.=22.073765, lon.=103.851013, Alt.=591.945801m. Speed=0.252000m/h.</desc>
<speed>0.070000</speed>
</trkpt>
<trkpt lat="22.073769" lon="103.851013">
<ele>591.898926</ele>
<time>2011-04-25T10:38:30Z</time>
<desc>lat.=22.073769, lon.=103.851013, Alt.=591.898926m. Speed=0.648000m/h.</desc>
<speed>0.180000</speed>
</trkpt>
<trkpt lat="22.073776" lon="103.851006">
<ele>591.867676</ele>
<time>2011-04-25T10:38:35Z</time>
<desc>lat.=22.073776, lon.=103.851006, Alt.=591.867676m. Speed=0.432000m/h.</desc>
<speed>0.120000</speed>
</trkpt>
<trkpt lat="22.073774" lon="103.851006">
<ele>591.836426</ele>
<time>2011-04-25T10:38:40Z</time>
<desc>lat.=22.073774, lon.=103.851006, Alt.=591.836426m. Speed=0.252000m/h.</desc>
<speed>0.070000</speed>
</trkpt>
<trkpt lat="22.073772" lon="103.851006">
<ele>591.820801</ele>
<time>2011-04-25T10:38:45Z</time>
<desc>lat.=22.073772, lon.=103.851006, Alt.=591.820801m. Speed=0.504000m/h.</desc>
<speed>0.140000</speed>
</trkpt>
<trkpt lat="22.073771" lon="103.851013">
<ele>591.820801</ele>
<time>2011-04-25T10:38:50Z</time>
<desc>lat.=22.073771, lon.=103.851013, Alt.=591.820801m. Speed=0.360000m/h.</desc>
<speed>0.100000</speed>
</trkpt>
<trkpt lat="22.073767" lon="103.851013">
<ele>591.820801</ele>
<time>2011-04-25T10:38:55Z</time>
<desc>lat.=22.073767, lon.=103.851013, Alt.=591.820801m. Speed=0.000000m/h.</desc>
<speed>0.000000</speed>
</trkpt>
<trkpt lat="22.073767" lon="103.851013">
<ele>591.852051</ele>
<time>2011-04-25T10:39:00Z</time>
<desc>lat.=22.073767, lon.=103.851013, Alt.=591.852051m. Speed=0.108000m/h.</desc>
<speed>0.030000</speed>
</trkpt>
<trkpt lat="22.073767" lon="103.851013">
<ele>591.867676</ele>
<time>2011-04-25T10:39:05Z</time>
<desc>lat.=22.073767, lon.=103.851013, Alt.=591.867676m. Speed=0.396000m/h.</desc>
<speed>0.110000</speed>
</trkpt>
<trkpt lat="22.073765" lon="103.851021">
<ele>591.898926</ele>
<time>2011-04-25T10:39:10Z</time>
<desc>lat.=22.073765, lon.=103.851021, Alt.=591.898926m. Speed=1.008000m/h.</desc>
<speed>0.280000</speed>
</trkpt>
<trkpt lat="22.073759" lon="103.851074">
<ele>592.055176</ele>
<time>2011-04-25T10:39:15Z</time>
<desc>lat.=22.073759, lon.=103.851074, Alt.=592.055176m. Speed=7.524000m/h.</desc>
<speed>2.090000</speed>
</trkpt>
<trkpt lat="22.073692" lon="103.851242">
<ele>592.555176</ele>
<time>2011-04-25T10:39:20Z</time>
<desc>lat.=22.073692, lon.=103.851242, Alt.=592.555176m. Speed=5.508000m/h.</desc>
<speed>1.530000</speed>
</trkpt>
<trkpt lat="22.073648" lon="103.851311">
<ele>592.977051</ele>
<time>2011-04-25T10:39:25Z</time>
<desc>lat.=22.073648, lon.=103.851311, Alt.=592.977051m. Speed=2.376000m/h.</desc>
<speed>0.660000</speed>
</trkpt>
<trkpt lat="22.073576" lon="103.851425">
<ele>593.648926</ele>
<time>2011-04-25T10:39:30Z</time>
<desc>lat.=22.073576, lon.=103.851425, Alt.=593.648926m. Speed=12.312000m/h.</desc>
<speed>3.420000</speed>
</trkpt>
<trkpt lat="22.073473" lon="103.851570">
<ele>594.133301</ele>
<time>2011-04-25T10:39:35Z</time>
<desc>lat.=22.073473, lon.=103.851570, Alt.=594.133301m. Speed=15.192000m/h.</desc>
<speed>4.220000</speed>
</trkpt>
<trkpt lat="22.073318" lon="103.851746">
<ele>594.867676</ele>
<time>2011-04-25T10:39:40Z</time>
<desc>lat.=22.073318, lon.=103.851746, Alt.=594.867676m. Speed=20.016001m/h.</desc>
<speed>5.560000</speed>
</trkpt>
<trkpt lat="22.073133" lon="103.851936">
<ele>595.227051</ele>
<time>2011-04-25T10:39:45Z</time>
<desc>lat.=22.073133, lon.=103.851936, Alt.=595.227051m. Speed=19.548000m/h.</desc>
<speed>5.430000</speed>
</trkpt>
<trkpt lat="22.072973" lon="103.852112">
<ele>590.555176</ele>
<time>2011-04-25T10:39:50Z</time>
<desc>lat.=22.072973, lon.=103.852112, Alt.=590.555176m. Speed=17.208000m/h.</desc>
<speed>4.780000</speed>
</trkpt>
<trkpt lat="22.072830" lon="103.852272">
<ele>586.195801</ele>
<time>2011-04-25T10:39:55Z</time>
<desc>lat.=22.072830, lon.=103.852272, Alt.=586.195801m. Speed=15.876000m/h.</desc>
<speed>4.410000</speed>
</trkpt>
<trkpt lat="22.072701" lon="103.852394">
<ele>583.227051</ele>
<time>2011-04-25T10:40:00Z</time>
<desc>lat.=22.072701, lon.=103.852394, Alt.=583.227051m. Speed=9.144000m/h.</desc>
<speed>2.540000</speed>
</trkpt>
<trkpt lat="22.072674" lon="103.852432">
<ele>581.820801</ele>
<time>2011-04-25T10:40:05Z</time>
<desc>lat.=22.072674, lon.=103.852432, Alt.=581.820801m. Speed=0.324000m/h.</desc>
<speed>0.090000</speed>
</trkpt>
<trkpt lat="22.072660" lon="103.852440">
<ele>581.383301</ele>
<time>2011-04-25T10:40:10Z</time>
<desc>lat.=22.072660, lon.=103.852440, Alt.=581.383301m. Speed=3.096000m/h.</desc>
<speed>0.860000</speed>
</trkpt>
<trkpt lat="22.072580" lon="103.852509">
<ele>580.977051</ele>
<time>2011-04-25T10:40:15Z</time>
<desc>lat.=22.072580, lon.=103.852509, Alt.=580.977051m. Speed=10.872000m/h.</desc>
<speed>3.020000</speed>
</trkpt>
<trkpt lat="22.072449" lon="103.852600">
<ele>581.008301</ele>
<time>2011-04-25T10:40:20Z</time>
<desc>lat.=22.072449, lon.=103.852600, Alt.=581.008301m. Speed=10.584000m/h.</desc>
<speed>2.940000</speed>
</trkpt>
<trkpt lat="22.072334" lon="103.852676">
<ele>581.133301</ele>
<time>2011-04-25T10:40:25Z</time>
<desc>lat.=22.072334, lon.=103.852676, Alt.=581.133301m. Speed=9.180000m/h.</desc>
<speed>2.550000</speed>
</trkpt>
<trkpt lat="22.072243" lon="103.852745">
<ele>581.320801</ele>
<time>2011-04-25T10:40:30Z</time>
<desc>lat.=22.072243, lon.=103.852745, Alt.=581.320801m. Speed=3.492000m/h.</desc>
<speed>0.970000</speed>
</trkpt>
<trkpt lat="22.072319" lon="103.852753">
<ele>581.086426</ele>
<time>2011-04-25T10:40:35Z</time>
<desc>lat.=22.072319, lon.=103.852753, Alt.=581.086426m. Speed=9.324000m/h.</desc>
<speed>2.590000</speed>
</trkpt>
<trkpt lat="22.072441" lon="103.852722">
<ele>581.164551</ele>
<time>2011-04-25T10:40:40Z</time>
<desc>lat.=22.072441, lon.=103.852722, Alt.=581.164551m. Speed=10.152000m/h.</desc>
<speed>2.820000</speed>
</trkpt>
<trkpt lat="22.072536" lon="103.852699">
<ele>581.117676</ele>
<time>2011-04-25T10:40:45Z</time>
<desc>lat.=22.072536, lon.=103.852699, Alt.=581.117676m. Speed=6.768000m/h.</desc>
<speed>1.880000</speed>
</trkpt>
<trkpt lat="22.072596" lon="103.852669">
<ele>581.664551</ele>
<time>2011-04-25T10:40:50Z</time>
<desc>lat.=22.072596, lon.=103.852669, Alt.=581.664551m. Speed=2.628000m/h.</desc>
<speed>0.730000</speed>
</trkpt>
<trkpt lat="22.072611" lon="103.852661">
<ele>582.445801</ele>
<time>2011-04-25T10:40:55Z</time>
<desc>lat.=22.072611, lon.=103.852661, Alt.=582.445801m. Speed=1.008000m/h.</desc>
<speed>0.280000</speed>
</trkpt>
<trkpt lat="22.072617" lon="103.852669">
<ele>582.602051</ele>
<time>2011-04-25T10:41:00Z</time>
<desc>lat.=22.072617, lon.=103.852669, Alt.=582.602051m. Speed=2.196000m/h.</desc>
<speed>0.610000</speed>
</trkpt>
<trkpt lat="22.072620" lon="103.852676">
<ele>582.633301</ele>
<time>2011-04-25T10:41:05Z</time>
<desc>lat.=22.072620, lon.=103.852676, Alt.=582.633301m. Speed=0.108000m/h.</desc>
<speed>0.030000</speed>
</trkpt>
<trkpt lat="22.072620" lon="103.852676">
<ele>582.633301</ele>
<time>2011-04-25T10:41:10Z</time>
<desc>lat.=22.072620, lon.=103.852676, Alt.=582.633301m. Speed=0.036000m/h.</desc>
<speed>0.010000</speed>
</trkpt>
<trkpt lat="22.072620" lon="103.852676">
<ele>582.617676</ele>
<time>2011-04-25T10:41:15Z</time>
<desc>lat.=22.072620, lon.=103.852676, Alt.=582.617676m. Speed=0.072000m/h.</desc>
<speed>0.020000</speed>
</trkpt>
<trkpt lat="22.072618" lon="103.852676">
<ele>582.586426</ele>
<time>2011-04-25T10:41:20Z</time>
<desc>lat.=22.072618, lon.=103.852676, Alt.=582.586426m. Speed=0.072000m/h.</desc>
<speed>0.020000</speed>
</trkpt>
<trkpt lat="22.072618" lon="103.852676">
<ele>582.570801</ele>
<time>2011-04-25T10:41:25Z</time>
<desc>lat.=22.072618, lon.=103.852676, Alt.=582.570801m. Speed=0.036000m/h.</desc>
<speed>0.010000</speed>
</trkpt>
<trkpt lat="22.072618" lon="103.852676">
<ele>582.570801</ele>
<time>2011-04-25T10:41:30Z</time>
<desc>lat.=22.072618, lon.=103.852676, Alt.=582.570801m. Speed=0.036000m/h.</desc>
<speed>0.010000</speed>
</trkpt>
<trkpt lat="22.072618" lon="103.852676">
<ele>582.539551</ele>
<time>2011-04-25T10:41:35Z</time>
<desc>lat.=22.072618, lon.=103.852676, Alt.=582.539551m. Speed=0.072000m/h.</desc>
<speed>0.020000</speed>
</trkpt>
<trkpt lat="22.072620" lon="103.852676">
<ele>582.508301</ele>
<time>2011-04-25T10:41:40Z</time>
<desc>lat.=22.072620, lon.=103.852676, Alt.=582.508301m. Speed=0.072000m/h.</desc>
<speed>0.020000</speed>
</trkpt>
<trkpt lat="22.072618" lon="103.852676">
<ele>582.477051</ele>
<time>2011-04-25T10:41:45Z</time>
<desc>lat.=22.072618, lon.=103.852676, Alt.=582.477051m. Speed=0.000000m/h.</desc>
<speed>0.000000</speed>
</trkpt>
<trkpt lat="22.072620" lon="103.852676">
<ele>582.430176</ele>
<time>2011-04-25T10:41:50Z</time>
<desc>lat.=22.072620, lon.=103.852676, Alt.=582.430176m. Speed=0.108000m/h.</desc>
<speed>0.030000</speed>
</trkpt>
<trkpt lat="22.072620" lon="103.852676">
<ele>582.242676</ele>
<time>2011-04-25T10:41:55Z</time>
<desc>lat.=22.072620, lon.=103.852676, Alt.=582.242676m. Speed=0.108000m/h.</desc>
<speed>0.030000</speed>
</trkpt>
<trkpt lat="22.072622" lon="103.852676">
<ele>582.039551</ele>
<time>2011-04-25T10:42:00Z</time>
<desc>lat.=22.072622, lon.=103.852676, Alt.=582.039551m. Speed=0.144000m/h.</desc>
<speed>0.040000</speed>
</trkpt>
<trkpt lat="22.072620" lon="103.852676">
<ele>581.930176</ele>
<time>2011-04-25T10:42:05Z</time>
<desc>lat.=22.072620, lon.=103.852676, Alt.=581.930176m. Speed=0.000000m/h.</desc>
<speed>0.000000</speed>
</trkpt>
<trkpt lat="22.072622" lon="103.852676">
<ele>581.805176</ele>
<time>2011-04-25T10:42:10Z</time>
<desc>lat.=22.072622, lon.=103.852676, Alt.=581.805176m. Speed=0.072000m/h.</desc>
<speed>0.020000</speed>
</trkpt>
<trkpt lat="22.072622" lon="103.852676">
<ele>581.633301</ele>
<time>2011-04-25T10:42:15Z</time>
<desc>lat.=22.072622, lon.=103.852676, Alt.=581.633301m. Speed=0.108000m/h.</desc>
<speed>0.030000</speed>
</trkpt>
<trkpt lat="22.072622" lon="103.852676">
<ele>581.523926</ele>
<time>2011-04-25T10:42:20Z</time>
<desc>lat.=22.072622, lon.=103.852676, Alt.=581.523926m. Speed=0.036000m/h.</desc>
<speed>0.010000</speed>
</trkpt>
<trkpt lat="22.072622" lon="103.852676">
<ele>581.492676</ele>
<time>2011-04-25T10:42:25Z</time>
<desc>lat.=22.072622, lon.=103.852676, Alt.=581.492676m. Speed=0.036000m/h.</desc>
<speed>0.010000</speed>
</trkpt>
<trkpt lat="22.072620" lon="103.852669">
<ele>581.492676</ele>
<time>2011-04-25T10:42:30Z</time>
<desc>lat.=22.072620, lon.=103.852669, Alt.=581.492676m. Speed=0.036000m/h.</desc>
<speed>0.010000</speed>
</trkpt>
<trkpt lat="22.072622" lon="103.852676">
<ele>581.477051</ele>
<time>2011-04-25T10:42:35Z</time>
<desc>lat.=22.072622, lon.=103.852676, Alt.=581.477051m. Speed=0.036000m/h.</desc>
<speed>0.010000</speed>
</trkpt>
<trkpt lat="22.072624" lon="103.852676">
<ele>581.461426</ele>
<time>2011-04-25T10:42:40Z</time>
<desc>lat.=22.072624, lon.=103.852676, Alt.=581.461426m. Speed=0.324000m/h.</desc>
<speed>0.090000</speed>
</trkpt>
<trkpt lat="22.072630" lon="103.852676">
<ele>581.367676</ele>
<time>2011-04-25T10:42:45Z</time>
<desc>lat.=22.072630, lon.=103.852676, Alt.=581.367676m. Speed=0.396000m/h.</desc>
<speed>0.110000</speed>
</trkpt>
<trkpt lat="22.072634" lon="103.852676">
<ele>581.211426</ele>
<time>2011-04-25T10:42:50Z</time>
<desc>lat.=22.072634, lon.=103.852676, Alt.=581.211426m. Speed=0.324000m/h.</desc>
<speed>0.090000</speed>
</trkpt>
<trkpt lat="22.072638" lon="103.852676">
<ele>580.992676</ele>
<time>2011-04-25T10:42:55Z</time>
<desc>lat.=22.072638, lon.=103.852676, Alt.=580.992676m. Speed=0.072000m/h.</desc>
<speed>0.020000</speed>
</trkpt>
<trkpt lat="22.072638" lon="103.852676">
<ele>580.742676</ele>
<time>2011-04-25T10:43:00Z</time>
<desc>lat.=22.072638, lon.=103.852676, Alt.=580.742676m. Speed=0.036000m/h.</desc>
<speed>0.010000</speed>
</trkpt>
<trkpt lat="22.072639" lon="103.852676">
<ele>580.586426</ele>
<time>2011-04-25T10:43:05Z</time>
<desc>lat.=22.072639, lon.=103.852676, Alt.=580.586426m. Speed=0.036000m/h.</desc>
<speed>0.010000</speed>
</trkpt>
<trkpt lat="22.072638" lon="103.852676">
<ele>580.508301</ele>
<time>2011-04-25T10:43:10Z</time>
<desc>lat.=22.072638, lon.=103.852676, Alt.=580.508301m. Speed=0.000000m/h.</desc>
<speed>0.000000</speed>
</trkpt>
<trkpt lat="22.072638" lon="103.852676">
<ele>580.445801</ele>
<time>2011-04-25T10:43:15Z</time>
<desc>lat.=22.072638, lon.=103.852676, Alt.=580.445801m. Speed=0.036000m/h.</desc>
<speed>0.010000</speed>
</trkpt>
<trkpt lat="22.072636" lon="103.852676">
<ele>580.430176</ele>
<time>2011-04-25T10:43:20Z</time>
<desc>lat.=22.072636, lon.=103.852676, Alt.=580.430176m. Speed=0.180000m/h.</desc>
<speed>0.050000</speed>
</trkpt>
<trkpt lat="22.072632" lon="103.852676">
<ele>580.398926</ele>
<time>2011-04-25T10:43:25Z</time>
<desc>lat.=22.072632, lon.=103.852676, Alt.=580.398926m. Speed=0.288000m/h.</desc>
<speed>0.080000</speed>
</trkpt>
<trkpt lat="22.072628" lon="103.852676">
<ele>580.414551</ele>
<time>2011-04-25T10:43:30Z</time>
<desc>lat.=22.072628, lon.=103.852676, Alt.=580.414551m. Speed=0.036000m/h.</desc>
<speed>0.010000</speed>
</trkpt>
<trkpt lat="22.072630" lon="103.852676">
<ele>580.398926</ele>
<time>2011-04-25T10:43:35Z</time>
<desc>lat.=22.072630, lon.=103.852676, Alt.=580.398926m. Speed=0.108000m/h.</desc>
<speed>0.030000</speed>
</trkpt>
<trkpt lat="22.072632" lon="103.852676">
<ele>580.367676</ele>
<time>2011-04-25T10:43:40Z</time>
<desc>lat.=22.072632, lon.=103.852676, Alt.=580.367676m. Speed=0.000000m/h.</desc>
<speed>0.000000</speed>
</trkpt>
<trkpt lat="22.072634" lon="103.852676">
<ele>580.305176</ele>
<time>2011-04-25T10:43:45Z</time>
<desc>lat.=22.072634, lon.=103.852676, Alt.=580.305176m. Speed=0.180000m/h.</desc>
<speed>0.050000</speed>
</trkpt>
<trkpt lat="22.072634" lon="103.852676">
<ele>580.227051</ele>
<time>2011-04-25T10:43:50Z</time>
<desc>lat.=22.072634, lon.=103.852676, Alt.=580.227051m. Speed=0.072000m/h.</desc>
<speed>0.020000</speed>
</trkpt>
<trkpt lat="22.072634" lon="103.852676">
<ele>580.180176</ele>
<time>2011-04-25T10:43:55Z</time>
<desc>lat.=22.072634, lon.=103.852676, Alt.=580.180176m. Speed=0.036000m/h.</desc>
<speed>0.010000</speed>
</trkpt>
<trkpt lat="22.072636" lon="103.852676">
<ele>580.102051</ele>
<time>2011-04-25T10:44:00Z</time>
<desc>lat.=22.072636, lon.=103.852676, Alt.=580.102051m. Speed=0.756000m/h.</desc>
<speed>0.210000</speed>
</trkpt>
<trkpt lat="22.072643" lon="103.852631">
<ele>579.539551</ele>
<time>2011-04-25T10:44:05Z</time>
<desc>lat.=22.072643, lon.=103.852631, Alt.=579.539551m. Speed=1.044000m/h.</desc>
<speed>0.290000</speed>
</trkpt>
<trkpt lat="22.072651" lon="103.852623">
<ele>578.789551</ele>
<time>2011-04-25T10:44:10Z</time>
<desc>lat.=22.072651, lon.=103.852623, Alt.=578.789551m. Speed=1.584000m/h.</desc>
<speed>0.440000</speed>
</trkpt>
<trkpt lat="22.072561" lon="103.852631">
<ele>578.570801</ele>
<time>2011-04-25T10:44:15Z</time>
<desc>lat.=22.072561, lon.=103.852631, Alt.=578.570801m. Speed=13.644000m/h.</desc>
<speed>3.790000</speed>
</trkpt>
<trkpt lat="22.072407" lon="103.852684">
<ele>578.211426</ele>
<time>2011-04-25T10:44:20Z</time>
<desc>lat.=22.072407, lon.=103.852684, Alt.=578.211426m. Speed=14.760000m/h.</desc>
<speed>4.100000</speed>
</trkpt>
<trkpt lat="22.072239" lon="103.852776">
<ele>577.727051</ele>
<time>2011-04-25T10:44:25Z</time>
<desc>lat.=22.072239, lon.=103.852776, Alt.=577.727051m. Speed=15.984000m/h.</desc>
<speed>4.440000</speed>
</trkpt>
<trkpt lat="22.072041" lon="103.852875">
<ele>577.398926</ele>
<time>2011-04-25T10:44:30Z</time>
<desc>lat.=22.072041, lon.=103.852875, Alt.=577.398926m. Speed=19.476000m/h.</desc>
<speed>5.410000</speed>
</trkpt>
<trkpt lat="22.071777" lon="103.852997">
<ele>577.148926</ele>
<time>2011-04-25T10:44:35Z</time>
<desc>lat.=22.071777, lon.=103.852997, Alt.=577.148926m. Speed=23.832001m/h.</desc>
<speed>6.620000</speed>
</trkpt>
<trkpt lat="22.071625" lon="103.853073">
<ele>576.664551</ele>
<time>2011-04-25T10:44:40Z</time>
<desc>lat.=22.071625, lon.=103.853073, Alt.=576.664551m. Speed=0.216000m/h.</desc>
<speed>0.060000</speed>
</trkpt>
<trkpt lat="22.071621" lon="103.853065">
<ele>576.758301</ele>
<time>2011-04-25T10:44:45Z</time>
<desc>lat.=22.071621, lon.=103.853065, Alt.=576.758301m. Speed=0.036000m/h.</desc>
<speed>0.010000</speed>
</trkpt>
<trkpt lat="22.071621" lon="103.853065">
<ele>576.773926</ele>
<time>2011-04-25T10:44:50Z</time>
<desc>lat.=22.071621, lon.=103.853065, Alt.=576.773926m. Speed=0.072000m/h.</desc>
<speed>0.020000</speed>
</trkpt>
<trkpt lat="22.071619" lon="103.853065">
<ele>576.805176</ele>
<time>2011-04-25T10:44:55Z</time>
<desc>lat.=22.071619, lon.=103.853065, Alt.=576.805176m. Speed=0.108000m/h.</desc>
<speed>0.030000</speed>
</trkpt>
<trkpt lat="22.071621" lon="103.853065">
<ele>576.820801</ele>
<time>2011-04-25T10:45:00Z</time>
<desc>lat.=22.071621, lon.=103.853065, Alt.=576.820801m. Speed=0.072000m/h.</desc>
<speed>0.020000</speed>
</trkpt>
<trkpt lat="22.071621" lon="103.853065">
<ele>576.836426</ele>
<time>2011-04-25T10:45:05Z</time>
<desc>lat.=22.071621, lon.=103.853065, Alt.=576.836426m. Speed=0.144000m/h.</desc>
<speed>0.040000</speed>
</trkpt>
<trkpt lat="22.071651" lon="103.853088">
<ele>576.852051</ele>
<time>2011-04-25T10:45:10Z</time>
<desc>lat.=22.071651, lon.=103.853088, Alt.=576.852051m. Speed=5.076000m/h.</desc>
<speed>1.410000</speed>
</trkpt>
<trkpt lat="22.071749" lon="103.853058">
<ele>577.430176</ele>
<time>2011-04-25T10:45:15Z</time>
<desc>lat.=22.071749, lon.=103.853058, Alt.=577.430176m. Speed=8.604000m/h.</desc>
<speed>2.390000</speed>
</trkpt>
<trkpt lat="22.071920" lon="103.852966">
<ele>577.602051</ele>
<time>2011-04-25T10:45:20Z</time>
<desc>lat.=22.071920, lon.=103.852966, Alt.=577.602051m. Speed=15.516000m/h.</desc>
<speed>4.310000</speed>
</trkpt>
<trkpt lat="22.072144" lon="103.852867">
<ele>577.445801</ele>
<time>2011-04-25T10:45:25Z</time>
<desc>lat.=22.072144, lon.=103.852867, Alt.=577.445801m. Speed=19.620001m/h.</desc>
<speed>5.450000</speed>
</trkpt>
<trkpt lat="22.072397" lon="103.852737">
<ele>577.789551</ele>
<time>2011-04-25T10:45:30Z</time>
<desc>lat.=22.072397, lon.=103.852737, Alt.=577.789551m. Speed=18.252001m/h.</desc>
<speed>5.070000</speed>
</trkpt>
<trkpt lat="22.072598" lon="103.852638">
<ele>578.664551</ele>
<time>2011-04-25T10:45:35Z</time>
<desc>lat.=22.072598, lon.=103.852638, Alt.=578.664551m. Speed=14.184000m/h.</desc>
<speed>3.940000</speed>
</trkpt>
<trkpt lat="22.072716" lon="103.852570">
<ele>579.195801</ele>
<time>2011-04-25T10:45:40Z</time>
<desc>lat.=22.072716, lon.=103.852570, Alt.=579.195801m. Speed=4.248000m/h.</desc>
<speed>1.180000</speed>
</trkpt>
<trkpt lat="22.072779" lon="103.852524">
<ele>579.039551</ele>
<time>2011-04-25T10:45:45Z</time>
<desc>lat.=22.072779, lon.=103.852524, Alt.=579.039551m. Speed=0.072000m/h.</desc>
<speed>0.020000</speed>
</trkpt>
<trkpt lat="22.072779" lon="103.852516">
<ele>579.164551</ele>
<time>2011-04-25T10:45:50Z</time>
<desc>lat.=22.072779, lon.=103.852516, Alt.=579.164551m. Speed=0.396000m/h.</desc>
<speed>0.110000</speed>
</trkpt>
<trkpt lat="22.072777" lon="103.852516">
<ele>579.180176</ele>
<time>2011-04-25T10:45:55Z</time>
<desc>lat.=22.072777, lon.=103.852516, Alt.=579.180176m. Speed=0.576000m/h.</desc>
<speed>0.160000</speed>
</trkpt>
<trkpt lat="22.072777" lon="103.852509">
<ele>579.180176</ele>
<time>2011-04-25T10:46:00Z</time>
<desc>lat.=22.072777, lon.=103.852509, Alt.=579.180176m. Speed=0.468000m/h.</desc>
<speed>0.130000</speed>
</trkpt>
<trkpt lat="22.072781" lon="103.852509">
<ele>579.180176</ele>
<time>2011-04-25T10:46:05Z</time>
<desc>lat.=22.072781, lon.=103.852509, Alt.=579.180176m. Speed=0.324000m/h.</desc>
<speed>0.090000</speed>
</trkpt>
<trkpt lat="22.072783" lon="103.852509">
<ele>579.164551</ele>
<time>2011-04-25T10:46:10Z</time>
<desc>lat.=22.072783, lon.=103.852509, Alt.=579.164551m. Speed=0.216000m/h.</desc>
<speed>0.060000</speed>
</trkpt>
<trkpt lat="22.072779" lon="103.852509">
<ele>579.148926</ele>
<time>2011-04-25T10:46:15Z</time>
<desc>lat.=22.072779, lon.=103.852509, Alt.=579.148926m. Speed=0.504000m/h.</desc>
<speed>0.140000</speed>
</trkpt>
<trkpt lat="22.072777" lon="103.852501">
<ele>579.148926</ele>
<time>2011-04-25T10:46:20Z</time>
<desc>lat.=22.072777, lon.=103.852501, Alt.=579.148926m. Speed=0.468000m/h.</desc>
<speed>0.130000</speed>
</trkpt>
<trkpt lat="22.072775" lon="103.852493">
<ele>579.148926</ele>
<time>2011-04-25T10:46:25Z</time>
<desc>lat.=22.072775, lon.=103.852493, Alt.=579.148926m. Speed=0.720000m/h.</desc>
<speed>0.200000</speed>
</trkpt>
<trkpt lat="22.072773" lon="103.852486">
<ele>579.148926</ele>
<time>2011-04-25T10:46:30Z</time>
<desc>lat.=22.072773, lon.=103.852486, Alt.=579.148926m. Speed=0.684000m/h.</desc>
<speed>0.190000</speed>
</trkpt>
<trkpt lat="22.072771" lon="103.852478">
<ele>579.133301</ele>
<time>2011-04-25T10:46:35Z</time>
<desc>lat.=22.072771, lon.=103.852478, Alt.=579.133301m. Speed=0.468000m/h.</desc>
<speed>0.130000</speed>
</trkpt>
<trkpt lat="22.072769" lon="103.852470">
<ele>579.133301</ele>
<time>2011-04-25T10:46:40Z</time>
<desc>lat.=22.072769, lon.=103.852470, Alt.=579.133301m. Speed=0.396000m/h.</desc>
<speed>0.110000</speed>
</trkpt>
<trkpt lat="22.072767" lon="103.852463">
<ele>579.117676</ele>
<time>2011-04-25T10:46:45Z</time>
<desc>lat.=22.072767, lon.=103.852463, Alt.=579.117676m. Speed=0.432000m/h.</desc>
<speed>0.120000</speed>
</trkpt>
<trkpt lat="22.072767" lon="103.852463">
<ele>579.117676</ele>
<time>2011-04-25T10:46:50Z</time>
<desc>lat.=22.072767, lon.=103.852463, Alt.=579.117676m. Speed=0.612000m/h.</desc>
<speed>0.170000</speed>
</trkpt>
<trkpt lat="22.072765" lon="103.852455">
<ele>579.102051</ele>
<time>2011-04-25T10:46:55Z</time>
<desc>lat.=22.072765, lon.=103.852455, Alt.=579.102051m. Speed=0.432000m/h.</desc>
<speed>0.120000</speed>
</trkpt>
<trkpt lat="22.072763" lon="103.852455">
<ele>579.086426</ele>
<time>2011-04-25T10:47:00Z</time>
<desc>lat.=22.072763, lon.=103.852455, Alt.=579.086426m. Speed=0.180000m/h.</desc>
<speed>0.050000</speed>
</trkpt>
<trkpt lat="22.072765" lon="103.852455">
<ele>579.086426</ele>
<time>2011-04-25T10:47:05Z</time>
<desc>lat.=22.072765, lon.=103.852455, Alt.=579.086426m. Speed=0.288000m/h.</desc>
<speed>0.080000</speed>
</trkpt>
<trkpt lat="22.072767" lon="103.852455">
<ele>579.070801</ele>
<time>2011-04-25T10:47:10Z</time>
<desc>lat.=22.072767, lon.=103.852455, Alt.=579.070801m. Speed=0.108000m/h.</desc>
<speed>0.030000</speed>
</trkpt>
<trkpt lat="22.072769" lon="103.852463">
<ele>579.039551</ele>
<time>2011-04-25T10:47:15Z</time>
<desc>lat.=22.072769, lon.=103.852463, Alt.=579.039551m. Speed=1.044000m/h.</desc>
<speed>0.290000</speed>
</trkpt>
<trkpt lat="22.072773" lon="103.852478">
<ele>579.023926</ele>
<time>2011-04-25T10:47:20Z</time>
<desc>lat.=22.072773, lon.=103.852478, Alt.=579.023926m. Speed=0.828000m/h.</desc>
<speed>0.230000</speed>
</trkpt>
<trkpt lat="22.072775" lon="103.852486">
<ele>579.008301</ele>
<time>2011-04-25T10:47:25Z</time>
<desc>lat.=22.072775, lon.=103.852486, Alt.=579.008301m. Speed=0.252000m/h.</desc>
<speed>0.070000</speed>
</trkpt>
<trkpt lat="22.072777" lon="103.852486">
<ele>578.961426</ele>
<time>2011-04-25T10:47:30Z</time>
<desc>lat.=22.072777, lon.=103.852486, Alt.=578.961426m. Speed=0.360000m/h.</desc>
<speed>0.100000</speed>
</trkpt>
<trkpt lat="22.072777" lon="103.852493">
<ele>578.914551</ele>
<time>2011-04-25T10:47:35Z</time>
<desc>lat.=22.072777, lon.=103.852493, Alt.=578.914551m. Speed=0.504000m/h.</desc>
<speed>0.140000</speed>
</trkpt>
<trkpt lat="22.072775" lon="103.852493">
<ele>578.898926</ele>
<time>2011-04-25T10:47:40Z</time>
<desc>lat.=22.072775, lon.=103.852493, Alt.=578.898926m. Speed=0.216000m/h.</desc>
<speed>0.060000</speed>
</trkpt>
<trkpt lat="22.072773" lon="103.852493">
<ele>578.883301</ele>
<time>2011-04-25T10:47:45Z</time>
<desc>lat.=22.072773, lon.=103.852493, Alt.=578.883301m. Speed=2.772000m/h.</desc>
<speed>0.770000</speed>
</trkpt>
<trkpt lat="22.072760" lon="103.852486">
<ele>578.961426</ele>
<time>2011-04-25T10:47:50Z</time>
<desc>lat.=22.072760, lon.=103.852486, Alt.=578.961426m. Speed=0.288000m/h.</desc>
<speed>0.080000</speed>
</trkpt>
<trkpt lat="22.072760" lon="103.852486">
<ele>578.945801</ele>
<time>2011-04-25T10:47:55Z</time>
<desc>lat.=22.072760, lon.=103.852486, Alt.=578.945801m. Speed=0.360000m/h.</desc>
<speed>0.100000</speed>
</trkpt>
<trkpt lat="22.072758" lon="103.852486">
<ele>578.914551</ele>
<time>2011-04-25T10:48:00Z</time>
<desc>lat.=22.072758, lon.=103.852486, Alt.=578.914551m. Speed=1.008000m/h.</desc>
<speed>0.280000</speed>
</trkpt>
<trkpt lat="22.072712" lon="103.852470">
<ele>578.961426</ele>
<time>2011-04-25T10:48:05Z</time>
<desc>lat.=22.072712, lon.=103.852470, Alt.=578.961426m. Speed=13.284000m/h.</desc>
<speed>3.690000</speed>
</trkpt>
<trkpt lat="22.072540" lon="103.852600">
<ele>578.742676</ele>
<time>2011-04-25T10:48:10Z</time>
<desc>lat.=22.072540, lon.=103.852600, Alt.=578.742676m. Speed=18.000000m/h.</desc>
<speed>5.000000</speed>
</trkpt>
<trkpt lat="22.072330" lon="103.852715">
<ele>578.930176</ele>
<time>2011-04-25T10:48:15Z</time>
<desc>lat.=22.072330, lon.=103.852715, Alt.=578.930176m. Speed=19.836000m/h.</desc>
<speed>5.510000</speed>
</trkpt>
<trkpt lat="22.072084" lon="103.852806">
<ele>579.148926</ele>
<time>2011-04-25T10:48:20Z</time>
<desc>lat.=22.072084, lon.=103.852806, Alt.=579.148926m. Speed=21.167999m/h.</desc>
<speed>5.880000</speed>
</trkpt>
<trkpt lat="22.071823" lon="103.852936">
<ele>579.117676</ele>
<time>2011-04-25T10:48:25Z</time>
<desc>lat.=22.071823, lon.=103.852936, Alt.=579.117676m. Speed=21.275999m/h.</desc>
<speed>5.910000</speed>
</trkpt>
<trkpt lat="22.071541" lon="103.853081">
<ele>579.180176</ele>
<time>2011-04-25T10:48:30Z</time>
<desc>lat.=22.071541, lon.=103.853081, Alt.=579.180176m. Speed=24.084000m/h.</desc>
<speed>6.690000</speed>
</trkpt>
<trkpt lat="22.071218" lon="103.853233">
<ele>579.055176</ele>
<time>2011-04-25T10:48:35Z</time>
<desc>lat.=22.071218, lon.=103.853233, Alt.=579.055176m. Speed=30.959999m/h.</desc>
<speed>8.600000</speed>
</trkpt>
<trkpt lat="22.070890" lon="103.853424">
<ele>578.914551</ele>
<time>2011-04-25T10:48:40Z</time>
<desc>lat.=22.070890, lon.=103.853424, Alt.=578.914551m. Speed=29.628000m/h.</desc>
<speed>8.230000</speed>
</trkpt>
<trkpt lat="22.070538" lon="103.853729">
<ele>578.930176</ele>
<time>2011-04-25T10:48:45Z</time>
<desc>lat.=22.070538, lon.=103.853729, Alt.=578.930176m. Speed=33.012001m/h.</desc>
<speed>9.170000</speed>
</trkpt>
<trkpt lat="22.070219" lon="103.854080">
<ele>578.570801</ele>
<time>2011-04-25T10:48:50Z</time>
<desc>lat.=22.070219, lon.=103.854080, Alt.=578.570801m. Speed=36.071999m/h.</desc>
<speed>10.020000</speed>
</trkpt>
<trkpt lat="22.069902" lon="103.854454">
<ele>578.055176</ele>
<time>2011-04-25T10:48:55Z</time>
<desc>lat.=22.069902, lon.=103.854454, Alt.=578.055176m. Speed=36.720001m/h.</desc>
<speed>10.200000</speed>
</trkpt>
<trkpt lat="22.069616" lon="103.854851">
<ele>577.258301</ele>
<time>2011-04-25T10:49:00Z</time>
<desc>lat.=22.069616, lon.=103.854851, Alt.=577.258301m. Speed=37.080002m/h.</desc>
<speed>10.300001</speed>
</trkpt>
<trkpt lat="22.069431" lon="103.855316">
<ele>575.883301</ele>
<time>2011-04-25T10:49:05Z</time>
<desc>lat.=22.069431, lon.=103.855316, Alt.=575.883301m. Speed=36.720001m/h.</desc>
<speed>10.200000</speed>
</trkpt>
<trkpt lat="22.069246" lon="103.855766">
<ele>574.727051</ele>
<time>2011-04-25T10:49:10Z</time>
<desc>lat.=22.069246, lon.=103.855766, Alt.=574.727051m. Speed=34.560001m/h.</desc>
<speed>9.600000</speed>
</trkpt>
<trkpt lat="22.069090" lon="103.856178">
<ele>573.945801</ele>
<time>2011-04-25T10:49:15Z</time>
<desc>lat.=22.069090, lon.=103.856178, Alt.=573.945801m. Speed=32.400002m/h.</desc>
<speed>9.000000</speed>
</trkpt>
<trkpt lat="22.068941" lon="103.856552">
<ele>573.570801</ele>
<time>2011-04-25T10:49:20Z</time>
<desc>lat.=22.068941, lon.=103.856552, Alt.=573.570801m. Speed=28.080000m/h.</desc>
<speed>7.800000</speed>
</trkpt>
<trkpt lat="22.068806" lon="103.856827">
<ele>573.586426</ele>
<time>2011-04-25T10:49:25Z</time>
<desc>lat.=22.068806, lon.=103.856827, Alt.=573.586426m. Speed=14.688000m/h.</desc>
<speed>4.080000</speed>
</trkpt>
<trkpt lat="22.068737" lon="103.856895">
<ele>573.367676</ele>
<time>2011-04-25T10:49:30Z</time>
<desc>lat.=22.068737, lon.=103.856895, Alt.=573.367676m. Speed=0.612000m/h.</desc>
<speed>0.170000</speed>
</trkpt>
<trkpt lat="22.068750" lon="103.856888">
<ele>573.117676</ele>
<time>2011-04-25T10:49:35Z</time>
<desc>lat.=22.068750, lon.=103.856888, Alt.=573.117676m. Speed=0.504000m/h.</desc>
<speed>0.140000</speed>
</trkpt>
<trkpt lat="22.068752" lon="103.856888">
<ele>573.133301</ele>
<time>2011-04-25T10:49:40Z</time>
<desc>lat.=22.068752, lon.=103.856888, Alt.=573.133301m. Speed=0.540000m/h.</desc>
<speed>0.150000</speed>
</trkpt>
<trkpt lat="22.068754" lon="103.856880">
<ele>573.148926</ele>
<time>2011-04-25T10:49:45Z</time>
<desc>lat.=22.068754, lon.=103.856880, Alt.=573.148926m. Speed=0.072000m/h.</desc>
<speed>0.020000</speed>
</trkpt>
<trkpt lat="22.068752" lon="103.856880">
<ele>573.148926</ele>
<time>2011-04-25T10:49:50Z</time>
<desc>lat.=22.068752, lon.=103.856880, Alt.=573.148926m. Speed=0.000000m/h.</desc>
<speed>0.000000</speed>
</trkpt>
<trkpt lat="22.068754" lon="103.856880">
<ele>573.180176</ele>
<time>2011-04-25T10:49:55Z</time>
<desc>lat.=22.068754, lon.=103.856880, Alt.=573.180176m. Speed=0.108000m/h.</desc>
<speed>0.030000</speed>
</trkpt>
<trkpt lat="22.068752" lon="103.856880">
<ele>573.195801</ele>
<time>2011-04-25T10:50:00Z</time>
<desc>lat.=22.068752, lon.=103.856880, Alt.=573.195801m. Speed=0.108000m/h.</desc>
<speed>0.030000</speed>
</trkpt>
<trkpt lat="22.068750" lon="103.856880">
<ele>573.148926</ele>
<time>2011-04-25T10:50:05Z</time>
<desc>lat.=22.068750, lon.=103.856880, Alt.=573.148926m. Speed=0.216000m/h.</desc>
<speed>0.060000</speed>
</trkpt>
<trkpt lat="22.068750" lon="103.856880">
<ele>573.133301</ele>
<time>2011-04-25T10:50:10Z</time>
<desc>lat.=22.068750, lon.=103.856880, Alt.=573.133301m. Speed=0.288000m/h.</desc>
<speed>0.080000</speed>
</trkpt>
<trkpt lat="22.068750" lon="103.856880">
<ele>573.117676</ele>
<time>2011-04-25T10:50:15Z</time>
<desc>lat.=22.068750, lon.=103.856880, Alt.=573.117676m. Speed=0.180000m/h.</desc>
<speed>0.050000</speed>
</trkpt>
<trkpt lat="22.068754" lon="103.856880">
<ele>573.102051</ele>
<time>2011-04-25T10:50:20Z</time>
<desc>lat.=22.068754, lon.=103.856880, Alt.=573.102051m. Speed=0.108000m/h.</desc>
<speed>0.030000</speed>
</trkpt>
<trkpt lat="22.068754" lon="103.856880">
<ele>573.070801</ele>
<time>2011-04-25T10:50:25Z</time>
<desc>lat.=22.068754, lon.=103.856880, Alt.=573.070801m. Speed=0.000000m/h.</desc>
<speed>0.000000</speed>
</trkpt>
<trkpt lat="22.068752" lon="103.856880">
<ele>573.102051</ele>
<time>2011-04-25T10:50:30Z</time>
<desc>lat.=22.068752, lon.=103.856880, Alt.=573.102051m. Speed=0.144000m/h.</desc>
<speed>0.040000</speed>
</trkpt>
<trkpt lat="22.068752" lon="103.856880">
<ele>573.117676</ele>
<time>2011-04-25T10:50:35Z</time>
<desc>lat.=22.068752, lon.=103.856880, Alt.=573.117676m. Speed=0.072000m/h.</desc>
<speed>0.020000</speed>
</trkpt>
<trkpt lat="22.068754" lon="103.856880">
<ele>573.070801</ele>
<time>2011-04-25T10:50:40Z</time>
<desc>lat.=22.068754, lon.=103.856880, Alt.=573.070801m. Speed=0.072000m/h.</desc>
<speed>0.020000</speed>
</trkpt>
<trkpt lat="22.068750" lon="103.856873">
<ele>573.055176</ele>
<time>2011-04-25T10:50:45Z</time>
<desc>lat.=22.068750, lon.=103.856873, Alt.=573.055176m. Speed=0.072000m/h.</desc>
<speed>0.020000</speed>
</trkpt>
<trkpt lat="22.068748" lon="103.856873">
<ele>573.055176</ele>
<time>2011-04-25T10:50:50Z</time>
<desc>lat.=22.068748, lon.=103.856873, Alt.=573.055176m. Speed=0.036000m/h.</desc>
<speed>0.010000</speed>
</trkpt>
<trkpt lat="22.068748" lon="103.856873">
<ele>573.055176</ele>
<time>2011-04-25T10:50:55Z</time>
<desc>lat.=22.068748, lon.=103.856873, Alt.=573.055176m. Speed=0.144000m/h.</desc>
<speed>0.040000</speed>
</trkpt>
<trkpt lat="22.068747" lon="103.856873">
<ele>573.102051</ele>
<time>2011-04-25T10:51:00Z</time>
<desc>lat.=22.068747, lon.=103.856873, Alt.=573.102051m. Speed=0.072000m/h.</desc>
<speed>0.020000</speed>
</trkpt>
<trkpt lat="22.068747" lon="103.856873">
<ele>573.117676</ele>
<time>2011-04-25T10:51:05Z</time>
<desc>lat.=22.068747, lon.=103.856873, Alt.=573.117676m. Speed=0.072000m/h.</desc>
<speed>0.020000</speed>
</trkpt>
<trkpt lat="22.068745" lon="103.856873">
<ele>573.133301</ele>
<time>2011-04-25T10:51:10Z</time>
<desc>lat.=22.068745, lon.=103.856873, Alt.=573.133301m. Speed=0.144000m/h.</desc>
<speed>0.040000</speed>
</trkpt>
<trkpt lat="22.068745" lon="103.856873">
<ele>573.148926</ele>
<time>2011-04-25T10:51:15Z</time>
<desc>lat.=22.068745, lon.=103.856873, Alt.=573.148926m. Speed=0.072000m/h.</desc>
<speed>0.020000</speed>
</trkpt>
<trkpt lat="22.068745" lon="103.856865">
<ele>573.164551</ele>
<time>2011-04-25T10:51:20Z</time>
<desc>lat.=22.068745, lon.=103.856865, Alt.=573.164551m. Speed=0.216000m/h.</desc>
<speed>0.060000</speed>
</trkpt>
<trkpt lat="22.068747" lon="103.856873">
<ele>573.180176</ele>
<time>2011-04-25T10:51:25Z</time>
<desc>lat.=22.068747, lon.=103.856873, Alt.=573.180176m. Speed=0.036000m/h.</desc>
<speed>0.010000</speed>
</trkpt>
<trkpt lat="22.068747" lon="103.856873">
<ele>573.195801</ele>
<time>2011-04-25T10:51:30Z</time>
<desc>lat.=22.068747, lon.=103.856873, Alt.=573.195801m. Speed=0.360000m/h.</desc>
<speed>0.100000</speed>
</trkpt>
<trkpt lat="22.068735" lon="103.856880">
<ele>573.195801</ele>
<time>2011-04-25T10:51:35Z</time>
<desc>lat.=22.068735, lon.=103.856880, Alt.=573.195801m. Speed=4.644000m/h.</desc>
<speed>1.290000</speed>
</trkpt>
<trkpt lat="22.068670" lon="103.856926">
<ele>573.023926</ele>
<time>2011-04-25T10:51:40Z</time>
<desc>lat.=22.068670, lon.=103.856926, Alt.=573.023926m. Speed=5.508000m/h.</desc>
<speed>1.530000</speed>
</trkpt>
<trkpt lat="22.068579" lon="103.856995">
<ele>572.539551</ele>
<time>2011-04-25T10:51:45Z</time>
<desc>lat.=22.068579, lon.=103.856995, Alt.=572.539551m. Speed=11.520000m/h.</desc>
<speed>3.200000</speed>
</trkpt>
<trkpt lat="22.068419" lon="103.857033">
<ele>572.992676</ele>
<time>2011-04-25T10:51:50Z</time>
<desc>lat.=22.068419, lon.=103.857033, Alt.=572.992676m. Speed=13.680000m/h.</desc>
<speed>3.800000</speed>
</trkpt>
<trkpt lat="22.068254" lon="103.857063">
<ele>573.555176</ele>
<time>2011-04-25T10:51:55Z</time>
<desc>lat.=22.068254, lon.=103.857063, Alt.=573.555176m. Speed=14.256000m/h.</desc>
<speed>3.960000</speed>
</trkpt>
<trkpt lat="22.068094" lon="103.857201">
<ele>573.664551</ele>
<time>2011-04-25T10:52:00Z</time>
<desc>lat.=22.068094, lon.=103.857201, Alt.=573.664551m. Speed=16.920000m/h.</desc>
<speed>4.700000</speed>
</trkpt>
<trkpt lat="22.067982" lon="103.857407">
<ele>572.758301</ele>
<time>2011-04-25T10:52:05Z</time>
<desc>lat.=22.067982, lon.=103.857407, Alt.=572.758301m. Speed=16.632000m/h.</desc>
<speed>4.620000</speed>
</trkpt>
<trkpt lat="22.067877" lon="103.857620">
<ele>571.867676</ele>
<time>2011-04-25T10:52:10Z</time>
<desc>lat.=22.067877, lon.=103.857620, Alt.=571.867676m. Speed=17.964001m/h.</desc>
<speed>4.990000</speed>
</trkpt>
<trkpt lat="22.067762" lon="103.857834">
<ele>571.586426</ele>
<time>2011-04-25T10:52:15Z</time>
<desc>lat.=22.067762, lon.=103.857834, Alt.=571.586426m. Speed=19.260000m/h.</desc>
<speed>5.350000</speed>
</trkpt>
<trkpt lat="22.067646" lon="103.858055">
<ele>571.617676</ele>
<time>2011-04-25T10:52:20Z</time>
<desc>lat.=22.067646, lon.=103.858055, Alt.=571.617676m. Speed=17.856001m/h.</desc>
<speed>4.960000</speed>
</trkpt>
<trkpt lat="22.067507" lon="103.858192">
<ele>571.648926</ele>
<time>2011-04-25T10:52:25Z</time>
<desc>lat.=22.067507, lon.=103.858192, Alt.=571.648926m. Speed=13.824000m/h.</desc>
<speed>3.840000</speed>
</trkpt>
<trkpt lat="22.067366" lon="103.858261">
<ele>571.914551</ele>
<time>2011-04-25T10:52:30Z</time>
<desc>lat.=22.067366, lon.=103.858261, Alt.=571.914551m. Speed=9.684000m/h.</desc>
<speed>2.690000</speed>
</trkpt>
<trkpt lat="22.067263" lon="103.858269">
<ele>570.070801</ele>
<time>2011-04-25T10:52:35Z</time>
<desc>lat.=22.067263, lon.=103.858269, Alt.=570.070801m. Speed=8.460000m/h.</desc>
<speed>2.350000</speed>
</trkpt>
<trkpt lat="22.067158" lon="103.858299">
<ele>569.180176</ele>
<time>2011-04-25T10:52:40Z</time>
<desc>lat.=22.067158, lon.=103.858299, Alt.=569.180176m. Speed=8.352000m/h.</desc>
<speed>2.320000</speed>
</trkpt>
<trkpt lat="22.067051" lon="103.858307">
<ele>569.383301</ele>
<time>2011-04-25T10:52:45Z</time>
<desc>lat.=22.067051, lon.=103.858307, Alt.=569.383301m. Speed=8.064000m/h.</desc>
<speed>2.240000</speed>
</trkpt>
<trkpt lat="22.066975" lon="103.858376">
<ele>569.273926</ele>
<time>2011-04-25T10:52:50Z</time>
<desc>lat.=22.066975, lon.=103.858376, Alt.=569.273926m. Speed=6.624000m/h.</desc>
<speed>1.840000</speed>
</trkpt>
<trkpt lat="22.066919" lon="103.858444">
<ele>569.023926</ele>
<time>2011-04-25T10:52:55Z</time>
<desc>lat.=22.066919, lon.=103.858444, Alt.=569.023926m. Speed=5.832000m/h.</desc>
<speed>1.620000</speed>
</trkpt>
<trkpt lat="22.066889" lon="103.858536">
<ele>569.461426</ele>
<time>2011-04-25T10:53:00Z</time>
<desc>lat.=22.066889, lon.=103.858536, Alt.=569.461426m. Speed=6.876000m/h.</desc>
<speed>1.910000</speed>
</trkpt>
<trkpt lat="22.066874" lon="103.858620">
<ele>570.680176</ele>
<time>2011-04-25T10:53:05Z</time>
<desc>lat.=22.066874, lon.=103.858620, Alt.=570.680176m. Speed=5.328000m/h.</desc>
<speed>1.480000</speed>
</trkpt>
<trkpt lat="22.066854" lon="103.858665">
<ele>571.680176</ele>
<time>2011-04-25T10:53:10Z</time>
<desc>lat.=22.066854, lon.=103.858665, Alt.=571.680176m. Speed=3.492000m/h.</desc>
<speed>0.970000</speed>
</trkpt>
<trkpt lat="22.066849" lon="103.858673">
<ele>571.414551</ele>
<time>2011-04-25T10:53:15Z</time>
<desc>lat.=22.066849, lon.=103.858673, Alt.=571.414551m. Speed=0.324000m/h.</desc>
<speed>0.090000</speed>
</trkpt>
<trkpt lat="22.066847" lon="103.858665">
<ele>571.461426</ele>
<time>2011-04-25T10:53:20Z</time>
<desc>lat.=22.066847, lon.=103.858665, Alt.=571.461426m. Speed=0.180000m/h.</desc>
<speed>0.050000</speed>
</trkpt>
<trkpt lat="22.066845" lon="103.858665">
<ele>571.477051</ele>
<time>2011-04-25T10:53:25Z</time>
<desc>lat.=22.066845, lon.=103.858665, Alt.=571.477051m. Speed=0.324000m/h.</desc>
<speed>0.090000</speed>
</trkpt>
<trkpt lat="22.066845" lon="103.858665">
<ele>571.539551</ele>
<time>2011-04-25T10:53:30Z</time>
<desc>lat.=22.066845, lon.=103.858665, Alt.=571.539551m. Speed=0.180000m/h.</desc>
<speed>0.050000</speed>
</trkpt>
<trkpt lat="22.066845" lon="103.858665">
<ele>571.477051</ele>
<time>2011-04-25T10:53:35Z</time>
<desc>lat.=22.066845, lon.=103.858665, Alt.=571.477051m. Speed=0.252000m/h.</desc>
<speed>0.070000</speed>
</trkpt>
<trkpt lat="22.066849" lon="103.858673">
<ele>571.414551</ele>
<time>2011-04-25T10:53:40Z</time>
<desc>lat.=22.066849, lon.=103.858673, Alt.=571.414551m. Speed=2.988000m/h.</desc>
<speed>0.830000</speed>
</trkpt>
<trkpt lat="22.066843" lon="103.858749">
<ele>570.977051</ele>
<time>2011-04-25T10:53:45Z</time>
<desc>lat.=22.066843, lon.=103.858749, Alt.=570.977051m. Speed=6.372000m/h.</desc>
<speed>1.770000</speed>
</trkpt>
<trkpt lat="22.066837" lon="103.858856">
<ele>570.461426</ele>
<time>2011-04-25T10:53:50Z</time>
<desc>lat.=22.066837, lon.=103.858856, Alt.=570.461426m. Speed=7.524000m/h.</desc>
<speed>2.090000</speed>
</trkpt>
<trkpt lat="22.066795" lon="103.858940">
<ele>570.805176</ele>
<time>2011-04-25T10:53:55Z</time>
<desc>lat.=22.066795, lon.=103.858940, Alt.=570.805176m. Speed=7.452000m/h.</desc>
<speed>2.070000</speed>
</trkpt>
<trkpt lat="22.066751" lon="103.859024">
<ele>570.930176</ele>
<time>2011-04-25T10:54:00Z</time>
<desc>lat.=22.066751, lon.=103.859024, Alt.=570.930176m. Speed=6.768000m/h.</desc>
<speed>1.880000</speed>
</trkpt>
<trkpt lat="22.066713" lon="103.859093">
<ele>571.102051</ele>
<time>2011-04-25T10:54:05Z</time>
<desc>lat.=22.066713, lon.=103.859093, Alt.=571.102051m. Speed=7.236000m/h.</desc>
<speed>2.010000</speed>
</trkpt>
<trkpt lat="22.066635" lon="103.859154">
<ele>571.977051</ele>
<time>2011-04-25T10:54:10Z</time>
<desc>lat.=22.066635, lon.=103.859154, Alt.=571.977051m. Speed=5.976000m/h.</desc>
<speed>1.660000</speed>
</trkpt>
<trkpt lat="22.066553" lon="103.859200">
<ele>574.258301</ele>
<time>2011-04-25T10:54:15Z</time>
<desc>lat.=22.066553, lon.=103.859200, Alt.=574.258301m. Speed=6.516000m/h.</desc>
<speed>1.810000</speed>
</trkpt>
<trkpt lat="22.066505" lon="103.859245">
<ele>574.523926</ele>
<time>2011-04-25T10:54:20Z</time>
<desc>lat.=22.066505, lon.=103.859245, Alt.=574.523926m. Speed=6.192000m/h.</desc>
<speed>1.720000</speed>
</trkpt>
<trkpt lat="22.066446" lon="103.859283">
<ele>575.492676</ele>
<time>2011-04-25T10:54:25Z</time>
<desc>lat.=22.066446, lon.=103.859283, Alt.=575.492676m. Speed=5.616000m/h.</desc>
<speed>1.560000</speed>
</trkpt>
<trkpt lat="22.066395" lon="103.859314">
<ele>576.320801</ele>
<time>2011-04-25T10:54:30Z</time>
<desc>lat.=22.066395, lon.=103.859314, Alt.=576.320801m. Speed=4.500000m/h.</desc>
<speed>1.250000</speed>
</trkpt>
<trkpt lat="22.066336" lon="103.859367">
<ele>577.508301</ele>
<time>2011-04-25T10:54:35Z</time>
<desc>lat.=22.066336, lon.=103.859367, Alt.=577.508301m. Speed=6.444000m/h.</desc>
<speed>1.790000</speed>
</trkpt>
<trkpt lat="22.066282" lon="103.859436">
<ele>578.008301</ele>
<time>2011-04-25T10:54:40Z</time>
<desc>lat.=22.066282, lon.=103.859436, Alt.=578.008301m. Speed=5.796000m/h.</desc>
<speed>1.610000</speed>
</trkpt>
<trkpt lat="22.066254" lon="103.859505">
<ele>578.430176</ele>
<time>2011-04-25T10:54:45Z</time>
<desc>lat.=22.066254, lon.=103.859505, Alt.=578.430176m. Speed=6.336000m/h.</desc>
<speed>1.760000</speed>
</trkpt>
<trkpt lat="22.066242" lon="103.859589">
<ele>578.883301</ele>
<time>2011-04-25T10:54:50Z</time>
<desc>lat.=22.066242, lon.=103.859589, Alt.=578.883301m. Speed=5.652000m/h.</desc>
<speed>1.570000</speed>
</trkpt>
<trkpt lat="22.066235" lon="103.859657">
<ele>579.367676</ele>
<time>2011-04-25T10:54:55Z</time>
<desc>lat.=22.066235, lon.=103.859657, Alt.=579.367676m. Speed=5.724000m/h.</desc>
<speed>1.590000</speed>
</trkpt>
<trkpt lat="22.066235" lon="103.859734">
<ele>580.117676</ele>
<time>2011-04-25T10:55:00Z</time>
<desc>lat.=22.066235, lon.=103.859734, Alt.=580.117676m. Speed=4.860000m/h.</desc>
<speed>1.350000</speed>
</trkpt>
<trkpt lat="22.066216" lon="103.859810">
<ele>581.320801</ele>
<time>2011-04-25T10:55:05Z</time>
<desc>lat.=22.066216, lon.=103.859810, Alt.=581.320801m. Speed=5.112000m/h.</desc>
<speed>1.420000</speed>
</trkpt>
<trkpt lat="22.066181" lon="103.859901">
<ele>582.352051</ele>
<time>2011-04-25T10:55:10Z</time>
<desc>lat.=22.066181, lon.=103.859901, Alt.=582.352051m. Speed=4.212000m/h.</desc>
<speed>1.170000</speed>
</trkpt>
<trkpt lat="22.066139" lon="103.859962">
<ele>583.617676</ele>
<time>2011-04-25T10:55:15Z</time>
<desc>lat.=22.066139, lon.=103.859962, Alt.=583.617676m. Speed=6.480000m/h.</desc>
<speed>1.800000</speed>
</trkpt>
<trkpt lat="22.066071" lon="103.860001">
<ele>585.445801</ele>
<time>2011-04-25T10:55:20Z</time>
<desc>lat.=22.066071, lon.=103.860001, Alt.=585.445801m. Speed=6.300000m/h.</desc>
<speed>1.750000</speed>
</trkpt>
<trkpt lat="22.066010" lon="103.860031">
<ele>586.680176</ele>
<time>2011-04-25T10:55:25Z</time>
<desc>lat.=22.066010, lon.=103.860031, Alt.=586.680176m. Speed=5.796000m/h.</desc>
<speed>1.610000</speed>
</trkpt>
<trkpt lat="22.065952" lon="103.860062">
<ele>587.711426</ele>
<time>2011-04-25T10:55:30Z</time>
<desc>lat.=22.065952, lon.=103.860062, Alt.=587.711426m. Speed=5.112000m/h.</desc>
<speed>1.420000</speed>
</trkpt>
<trkpt lat="22.065895" lon="103.860100">
<ele>588.617676</ele>
<time>2011-04-25T10:55:35Z</time>
<desc>lat.=22.065895, lon.=103.860100, Alt.=588.617676m. Speed=5.256000m/h.</desc>
<speed>1.460000</speed>
</trkpt>
<trkpt lat="22.065838" lon="103.860138">
<ele>589.586426</ele>
<time>2011-04-25T10:55:40Z</time>
<desc>lat.=22.065838, lon.=103.860138, Alt.=589.586426m. Speed=5.688000m/h.</desc>
<speed>1.580000</speed>
</trkpt>
<trkpt lat="22.065773" lon="103.860207">
<ele>590.883301</ele>
<time>2011-04-25T10:55:45Z</time>
<desc>lat.=22.065773, lon.=103.860207, Alt.=590.883301m. Speed=5.508000m/h.</desc>
<speed>1.530000</speed>
</trkpt>
<trkpt lat="22.065729" lon="103.860260">
<ele>591.758301</ele>
<time>2011-04-25T10:55:50Z</time>
<desc>lat.=22.065729, lon.=103.860260, Alt.=591.758301m. Speed=3.384000m/h.</desc>
<speed>0.940000</speed>
</trkpt>
<trkpt lat="22.065712" lon="103.860306">
<ele>592.523926</ele>
<time>2011-04-25T10:55:55Z</time>
<desc>lat.=22.065712, lon.=103.860306, Alt.=592.523926m. Speed=3.960000m/h.</desc>
<speed>1.100000</speed>
</trkpt>
<trkpt lat="22.065687" lon="103.860352">
<ele>593.195801</ele>
<time>2011-04-25T10:56:00Z</time>
<desc>lat.=22.065687, lon.=103.860352, Alt.=593.195801m. Speed=3.924000m/h.</desc>
<speed>1.090000</speed>
</trkpt>
<trkpt lat="22.065651" lon="103.860413">
<ele>593.977051</ele>
<time>2011-04-25T10:56:05Z</time>
<desc>lat.=22.065651, lon.=103.860413, Alt.=593.977051m. Speed=6.984000m/h.</desc>
<speed>1.940000</speed>
</trkpt>
<trkpt lat="22.065622" lon="103.860481">
<ele>594.383301</ele>
<time>2011-04-25T10:56:10Z</time>
<desc>lat.=22.065622, lon.=103.860481, Alt.=594.383301m. Speed=5.976000m/h.</desc>
<speed>1.660000</speed>
</trkpt>
<trkpt lat="22.065596" lon="103.860542">
<ele>595.180176</ele>
<time>2011-04-25T10:56:15Z</time>
<desc>lat.=22.065596, lon.=103.860542, Alt.=595.180176m. Speed=4.716000m/h.</desc>
<speed>1.310000</speed>
</trkpt>
<trkpt lat="22.065565" lon="103.860611">
<ele>595.898926</ele>
<time>2011-04-25T10:56:20Z</time>
<desc>lat.=22.065565, lon.=103.860611, Alt.=595.898926m. Speed=5.580000m/h.</desc>
<speed>1.550000</speed>
</trkpt>
<trkpt lat="22.065531" lon="103.860680">
<ele>596.773926</ele>
<time>2011-04-25T10:56:25Z</time>
<desc>lat.=22.065531, lon.=103.860680, Alt.=596.773926m. Speed=5.832000m/h.</desc>
<speed>1.620000</speed>
</trkpt>
<trkpt lat="22.065493" lon="103.860733">
<ele>598.148926</ele>
<time>2011-04-25T10:56:30Z</time>
<desc>lat.=22.065493, lon.=103.860733, Alt.=598.148926m. Speed=5.436000m/h.</desc>
<speed>1.510000</speed>
</trkpt>
<trkpt lat="22.065462" lon="103.860786">
<ele>599.883301</ele>
<time>2011-04-25T10:56:35Z</time>
<desc>lat.=22.065462, lon.=103.860786, Alt.=599.883301m. Speed=5.436000m/h.</desc>
<speed>1.510000</speed>
</trkpt>
<trkpt lat="22.065443" lon="103.860847">
<ele>600.961426</ele>
<time>2011-04-25T10:56:40Z</time>
<desc>lat.=22.065443, lon.=103.860847, Alt.=600.961426m. Speed=3.060000m/h.</desc>
<speed>0.850000</speed>
</trkpt>
<trkpt lat="22.065414" lon="103.860901">
<ele>601.805176</ele>
<time>2011-04-25T10:56:45Z</time>
<desc>lat.=22.065414, lon.=103.860901, Alt.=601.805176m. Speed=4.824000m/h.</desc>
<speed>1.340000</speed>
</trkpt>
<trkpt lat="22.065378" lon="103.860954">
<ele>602.664551</ele>
<time>2011-04-25T10:56:50Z</time>
<desc>lat.=22.065378, lon.=103.860954, Alt.=602.664551m. Speed=4.932000m/h.</desc>
<speed>1.370000</speed>
</trkpt>
<trkpt lat="22.065346" lon="103.861015">
<ele>603.117676</ele>
<time>2011-04-25T10:56:55Z</time>
<desc>lat.=22.065346, lon.=103.861015, Alt.=603.117676m. Speed=4.932000m/h.</desc>
<speed>1.370000</speed>
</trkpt>
<trkpt lat="22.065323" lon="103.861076">
<ele>603.492676</ele>
<time>2011-04-25T10:57:00Z</time>
<desc>lat.=22.065323, lon.=103.861076, Alt.=603.492676m. Speed=5.400000m/h.</desc>
<speed>1.500000</speed>
</trkpt>
<trkpt lat="22.065287" lon="103.861137">
<ele>603.742676</ele>
<time>2011-04-25T10:57:05Z</time>
<desc>lat.=22.065287, lon.=103.861137, Alt.=603.742676m. Speed=5.292000m/h.</desc>
<speed>1.470000</speed>
</trkpt>
<trkpt lat="22.065245" lon="103.861214">
<ele>604.070801</ele>
<time>2011-04-25T10:57:10Z</time>
<desc>lat.=22.065245, lon.=103.861214, Alt.=604.070801m. Speed=5.544000m/h.</desc>
<speed>1.540000</speed>
</trkpt>
<trkpt lat="22.065201" lon="103.861282">
<ele>604.945801</ele>
<time>2011-04-25T10:57:15Z</time>
<desc>lat.=22.065201, lon.=103.861282, Alt.=604.945801m. Speed=4.392000m/h.</desc>
<speed>1.220000</speed>
</trkpt>
<trkpt lat="22.065165" lon="103.861351">
<ele>605.805176</ele>
<time>2011-04-25T10:57:20Z</time>
<desc>lat.=22.065165, lon.=103.861351, Alt.=605.805176m. Speed=5.796000m/h.</desc>
<speed>1.610000</speed>
</trkpt>
<trkpt lat="22.065126" lon="103.861420">
<ele>606.133301</ele>
<time>2011-04-25T10:57:25Z</time>
<desc>lat.=22.065126, lon.=103.861420, Alt.=606.133301m. Speed=5.976000m/h.</desc>
<speed>1.660000</speed>
</trkpt>
<trkpt lat="22.065079" lon="103.861496">
<ele>606.586426</ele>
<time>2011-04-25T10:57:30Z</time>
<desc>lat.=22.065079, lon.=103.861496, Alt.=606.586426m. Speed=5.760000m/h.</desc>
<speed>1.600000</speed>
</trkpt>
<trkpt lat="22.065031" lon="103.861549">
<ele>606.633301</ele>
<time>2011-04-25T10:57:35Z</time>
<desc>lat.=22.065031, lon.=103.861549, Alt.=606.633301m. Speed=6.372000m/h.</desc>
<speed>1.770000</speed>
</trkpt>
<trkpt lat="22.064999" lon="103.861618">
<ele>605.102051</ele>
<time>2011-04-25T10:57:40Z</time>
<desc>lat.=22.064999, lon.=103.861618, Alt.=605.102051m. Speed=5.760000m/h.</desc>
<speed>1.600000</speed>
</trkpt>
<trkpt lat="22.064960" lon="103.861679">
<ele>604.961426</ele>
<time>2011-04-25T10:57:45Z</time>
<desc>lat.=22.064960, lon.=103.861679, Alt.=604.961426m. Speed=5.400000m/h.</desc>
<speed>1.500000</speed>
</trkpt>
<trkpt lat="22.064928" lon="103.861748">
<ele>604.867676</ele>
<time>2011-04-25T10:57:50Z</time>
<desc>lat.=22.064928, lon.=103.861748, Alt.=604.867676m. Speed=4.500000m/h.</desc>
<speed>1.250000</speed>
</trkpt>
<trkpt lat="22.064901" lon="103.861816">
<ele>605.586426</ele>
<time>2011-04-25T10:57:55Z</time>
<desc>lat.=22.064901, lon.=103.861816, Alt.=605.586426m. Speed=5.976000m/h.</desc>
<speed>1.660000</speed>
</trkpt>
<trkpt lat="22.064856" lon="103.861877">
<ele>604.680176</ele>
<time>2011-04-25T10:58:00Z</time>
<desc>lat.=22.064856, lon.=103.861877, Alt.=604.680176m. Speed=5.976000m/h.</desc>
<speed>1.660000</speed>
</trkpt>
<trkpt lat="22.064829" lon="103.861946">
<ele>604.633301</ele>
<time>2011-04-25T10:58:05Z</time>
<desc>lat.=22.064829, lon.=103.861946, Alt.=604.633301m. Speed=5.508000m/h.</desc>
<speed>1.530000</speed>
</trkpt>
<trkpt lat="22.064785" lon="103.862007">
<ele>606.383301</ele>
<time>2011-04-25T10:58:10Z</time>
<desc>lat.=22.064785, lon.=103.862007, Alt.=606.383301m. Speed=6.300000m/h.</desc>
<speed>1.750000</speed>
</trkpt>
<trkpt lat="22.064753" lon="103.862068">
<ele>608.133301</ele>
<time>2011-04-25T10:58:15Z</time>
<desc>lat.=22.064753, lon.=103.862068, Alt.=608.133301m. Speed=5.328000m/h.</desc>
<speed>1.480000</speed>
</trkpt>
<trkpt lat="22.064730" lon="103.862137">
<ele>608.617676</ele>
<time>2011-04-25T10:58:20Z</time>
<desc>lat.=22.064730, lon.=103.862137, Alt.=608.617676m. Speed=5.364000m/h.</desc>
<speed>1.490000</speed>
</trkpt>
<trkpt lat="22.064699" lon="103.862198">
<ele>609.352051</ele>
<time>2011-04-25T10:58:25Z</time>
<desc>lat.=22.064699, lon.=103.862198, Alt.=609.352051m. Speed=5.544000m/h.</desc>
<speed>1.540000</speed>
</trkpt>
<trkpt lat="22.064682" lon="103.862259">
<ele>609.570801</ele>
<time>2011-04-25T10:58:30Z</time>
<desc>lat.=22.064682, lon.=103.862259, Alt.=609.570801m. Speed=4.140000m/h.</desc>
<speed>1.150000</speed>
</trkpt>
<trkpt lat="22.064678" lon="103.862328">
<ele>610.195801</ele>
<time>2011-04-25T10:58:35Z</time>
<desc>lat.=22.064678, lon.=103.862328, Alt.=610.195801m. Speed=5.688000m/h.</desc>
<speed>1.580000</speed>
</trkpt>
<trkpt lat="22.064680" lon="103.862381">
<ele>610.477051</ele>
<time>2011-04-25T10:58:40Z</time>
<desc>lat.=22.064680, lon.=103.862381, Alt.=610.477051m. Speed=3.816000m/h.</desc>
<speed>1.060000</speed>
</trkpt>
<trkpt lat="22.064693" lon="103.862465">
<ele>609.617676</ele>
<time>2011-04-25T10:58:45Z</time>
<desc>lat.=22.064693, lon.=103.862465, Alt.=609.617676m. Speed=5.832000m/h.</desc>
<speed>1.620000</speed>
</trkpt>
<trkpt lat="22.064705" lon="103.862534">
<ele>609.711426</ele>
<time>2011-04-25T10:58:50Z</time>
<desc>lat.=22.064705, lon.=103.862534, Alt.=609.711426m. Speed=3.276000m/h.</desc>
<speed>0.910000</speed>
</trkpt>
<trkpt lat="22.064703" lon="103.862564">
<ele>609.164551</ele>
<time>2011-04-25T10:58:55Z</time>
<desc>lat.=22.064703, lon.=103.862564, Alt.=609.164551m. Speed=0.216000m/h.</desc>
<speed>0.060000</speed>
</trkpt>
<trkpt lat="22.064713" lon="103.862556">
<ele>609.273926</ele>
<time>2011-04-25T10:59:00Z</time>
<desc>lat.=22.064713, lon.=103.862556, Alt.=609.273926m. Speed=0.612000m/h.</desc>
<speed>0.170000</speed>
</trkpt>
<trkpt lat="22.064718" lon="103.862556">
<ele>609.320801</ele>
<time>2011-04-25T10:59:05Z</time>
<desc>lat.=22.064718, lon.=103.862556, Alt.=609.320801m. Speed=0.504000m/h.</desc>
<speed>0.140000</speed>
</trkpt>
<trkpt lat="22.064726" lon="103.862556">
<ele>609.352051</ele>
<time>2011-04-25T10:59:10Z</time>
<desc>lat.=22.064726, lon.=103.862556, Alt.=609.352051m. Speed=0.468000m/h.</desc>
<speed>0.130000</speed>
</trkpt>
<trkpt lat="22.064735" lon="103.862556">
<ele>609.367676</ele>
<time>2011-04-25T10:59:15Z</time>
<desc>lat.=22.064735, lon.=103.862556, Alt.=609.367676m. Speed=1.224000m/h.</desc>
<speed>0.340000</speed>
</trkpt>
<trkpt lat="22.064791" lon="103.862556">
<ele>609.539551</ele>
<time>2011-04-25T10:59:20Z</time>
<desc>lat.=22.064791, lon.=103.862556, Alt.=609.539551m. Speed=1.116000m/h.</desc>
<speed>0.310000</speed>
</trkpt>
<trkpt lat="22.064821" lon="103.862572">
<ele>609.617676</ele>
<time>2011-04-25T10:59:25Z</time>
<desc>lat.=22.064821, lon.=103.862572, Alt.=609.617676m. Speed=1.044000m/h.</desc>
<speed>0.290000</speed>
</trkpt>
<trkpt lat="22.064833" lon="103.862579">
<ele>609.633301</ele>
<time>2011-04-25T10:59:30Z</time>
<desc>lat.=22.064833, lon.=103.862579, Alt.=609.633301m. Speed=0.324000m/h.</desc>
<speed>0.090000</speed>
</trkpt>
<trkpt lat="22.064837" lon="103.862579">
<ele>609.633301</ele>
<time>2011-04-25T10:59:35Z</time>
<desc>lat.=22.064837, lon.=103.862579, Alt.=609.633301m. Speed=0.612000m/h.</desc>
<speed>0.170000</speed>
</trkpt>
<trkpt lat="22.064829" lon="103.862617">
<ele>609.180176</ele>
<time>2011-04-25T10:59:40Z</time>
<desc>lat.=22.064829, lon.=103.862617, Alt.=609.180176m. Speed=2.412000m/h.</desc>
<speed>0.670000</speed>
</trkpt>
<trkpt lat="22.064825" lon="103.862679">
<ele>608.852051</ele>
<time>2011-04-25T10:59:45Z</time>
<desc>lat.=22.064825, lon.=103.862679, Alt.=608.852051m. Speed=4.392000m/h.</desc>
<speed>1.220000</speed>
</trkpt>
<trkpt lat="22.064844" lon="103.862762">
<ele>608.648926</ele>
<time>2011-04-25T10:59:50Z</time>
<desc>lat.=22.064844, lon.=103.862762, Alt.=608.648926m. Speed=7.560000m/h.</desc>
<speed>2.100000</speed>
</trkpt>
<trkpt lat="22.064909" lon="103.862892">
<ele>608.758301</ele>
<time>2011-04-25T10:59:55Z</time>
<desc>lat.=22.064909, lon.=103.862892, Alt.=608.758301m. Speed=14.184000m/h.</desc>
<speed>3.940000</speed>
</trkpt>
<trkpt lat="22.065067" lon="103.863052">
<ele>607.023926</ele>
<time>2011-04-25T11:00:00Z</time>
<desc>lat.=22.065067, lon.=103.863052, Alt.=607.023926m. Speed=20.591999m/h.</desc>
<speed>5.720000</speed>
</trkpt>
<trkpt lat="22.065315" lon="103.863159">
<ele>605.055176</ele>
<time>2011-04-25T11:00:05Z</time>
<desc>lat.=22.065315, lon.=103.863159, Alt.=605.055176m. Speed=21.924000m/h.</desc>
<speed>6.090000</speed>
</trkpt>
<trkpt lat="22.065611" lon="103.863251">
<ele>602.352051</ele>
<time>2011-04-25T11:00:10Z</time>
<desc>lat.=22.065611, lon.=103.863251, Alt.=602.352051m. Speed=25.020000m/h.</desc>
<speed>6.950000</speed>
</trkpt>
<trkpt lat="22.065931" lon="103.863457">
<ele>599.852051</ele>
<time>2011-04-25T11:00:15Z</time>
<desc>lat.=22.065931, lon.=103.863457, Alt.=599.852051m. Speed=31.464001m/h.</desc>
<speed>8.740000</speed>
</trkpt>
<trkpt lat="22.066212" lon="103.863777">
<ele>598.586426</ele>
<time>2011-04-25T11:00:20Z</time>
<desc>lat.=22.066212, lon.=103.863777, Alt.=598.586426m. Speed=23.832001m/h.</desc>
<speed>6.620000</speed>
</trkpt>
<trkpt lat="22.066151" lon="103.864105">
<ele>598.039551</ele>
<time>2011-04-25T11:00:25Z</time>
<desc>lat.=22.066151, lon.=103.864105, Alt.=598.039551m. Speed=21.816000m/h.</desc>
<speed>6.060000</speed>
</trkpt>
<trkpt lat="22.066101" lon="103.864388">
<ele>596.977051</ele>
<time>2011-04-25T11:00:30Z</time>
<desc>lat.=22.066101, lon.=103.864388, Alt.=596.977051m. Speed=18.936001m/h.</desc>
<speed>5.260000</speed>
</trkpt>
<trkpt lat="22.066120" lon="103.864624">
<ele>595.758301</ele>
<time>2011-04-25T11:00:35Z</time>
<desc>lat.=22.066120, lon.=103.864624, Alt.=595.758301m. Speed=15.444000m/h.</desc>
<speed>4.290000</speed>
</trkpt>
<trkpt lat="22.066191" lon="103.864815">
<ele>595.070801</ele>
<time>2011-04-25T11:00:40Z</time>
<desc>lat.=22.066191, lon.=103.864815, Alt.=595.070801m. Speed=14.544000m/h.</desc>
<speed>4.040000</speed>
</trkpt>
<trkpt lat="22.066277" lon="103.864944">
<ele>594.586426</ele>
<time>2011-04-25T11:00:45Z</time>
<desc>lat.=22.066277, lon.=103.864944, Alt.=594.586426m. Speed=12.996000m/h.</desc>
<speed>3.610000</speed>
</trkpt>
<trkpt lat="22.066315" lon="103.865166">
<ele>594.055176</ele>
<time>2011-04-25T11:00:50Z</time>
<desc>lat.=22.066315, lon.=103.865166, Alt.=594.055176m. Speed=15.444000m/h.</desc>
<speed>4.290000</speed>
</trkpt>
<trkpt lat="22.066334" lon="103.865417">
<ele>592.758301</ele>
<time>2011-04-25T11:00:55Z</time>
<desc>lat.=22.066334, lon.=103.865417, Alt.=592.758301m. Speed=17.172001m/h.</desc>
<speed>4.770000</speed>
</trkpt>
<trkpt lat="22.066395" lon="103.865768">
<ele>592.852051</ele>
<time>2011-04-25T11:01:00Z</time>
<desc>lat.=22.066395, lon.=103.865768, Alt.=592.852051m. Speed=26.424000m/h.</desc>
<speed>7.340000</speed>
</trkpt>
<trkpt lat="22.066591" lon="103.866150">
<ele>592.227051</ele>
<time>2011-04-25T11:01:05Z</time>
<desc>lat.=22.066591, lon.=103.866150, Alt.=592.227051m. Speed=33.588001m/h.</desc>
<speed>9.330000</speed>
</trkpt>
<trkpt lat="22.066753" lon="103.866608">
<ele>592.133301</ele>
<time>2011-04-25T11:01:10Z</time>
<desc>lat.=22.066753, lon.=103.866608, Alt.=592.133301m. Speed=37.908001m/h.</desc>
<speed>10.530000</speed>
</trkpt>
<trkpt lat="22.066795" lon="103.867149">
<ele>591.211426</ele>
<time>2011-04-25T11:01:15Z</time>
<desc>lat.=22.066795, lon.=103.867149, Alt.=591.211426m. Speed=40.931999m/h.</desc>
<speed>11.370000</speed>
</trkpt>
<trkpt lat="22.066679" lon="103.867714">
<ele>589.289551</ele>
<time>2011-04-25T11:01:20Z</time>
<desc>lat.=22.066679, lon.=103.867714, Alt.=589.289551m. Speed=39.599998m/h.</desc>
<speed>11.000000</speed>
</trkpt>
<trkpt lat="22.066551" lon="103.868164">
<ele>589.008301</ele>
<time>2011-04-25T11:01:25Z</time>
<desc>lat.=22.066551, lon.=103.868164, Alt.=589.008301m. Speed=29.916000m/h.</desc>
<speed>8.310000</speed>
</trkpt>
<trkpt lat="22.066475" lon="103.868431">
<ele>590.055176</ele>
<time>2011-04-25T11:01:30Z</time>
<desc>lat.=22.066475, lon.=103.868431, Alt.=590.055176m. Speed=11.988000m/h.</desc>
<speed>3.330000</speed>
</trkpt>
<trkpt lat="22.066444" lon="103.868530">
<ele>591.867676</ele>
<time>2011-04-25T11:01:35Z</time>
<desc>lat.=22.066444, lon.=103.868530, Alt.=591.867676m. Speed=3.996000m/h.</desc>
<speed>1.110000</speed>
</trkpt>
<trkpt lat="22.066423" lon="103.868591">
<ele>592.414551</ele>
<time>2011-04-25T11:01:40Z</time>
<desc>lat.=22.066423, lon.=103.868591, Alt.=592.414551m. Speed=4.716000m/h.</desc>
<speed>1.310000</speed>
</trkpt>
<trkpt lat="22.066429" lon="103.868584">
<ele>594.992676</ele>
<time>2011-04-25T11:01:45Z</time>
<desc>lat.=22.066429, lon.=103.868584, Alt.=594.992676m. Speed=0.324000m/h.</desc>
<speed>0.090000</speed>
</trkpt>
<trkpt lat="22.066427" lon="103.868591">
<ele>595.023926</ele>
<time>2011-04-25T11:01:50Z</time>
<desc>lat.=22.066427, lon.=103.868591, Alt.=595.023926m. Speed=1.476000m/h.</desc>
<speed>0.410000</speed>
</trkpt>
<trkpt lat="22.066420" lon="103.868645">
<ele>595.258301</ele>
<time>2011-04-25T11:01:55Z</time>
<desc>lat.=22.066420, lon.=103.868645, Alt.=595.258301m. Speed=7.272000m/h.</desc>
<speed>2.020000</speed>
</trkpt>
<trkpt lat="22.066393" lon="103.868774">
<ele>596.898926</ele>
<time>2011-04-25T11:02:00Z</time>
<desc>lat.=22.066393, lon.=103.868774, Alt.=596.898926m. Speed=9.468000m/h.</desc>
<speed>2.630000</speed>
</trkpt>
<trkpt lat="22.066359" lon="103.868904">
<ele>597.477051</ele>
<time>2011-04-25T11:02:05Z</time>
<desc>lat.=22.066359, lon.=103.868904, Alt.=597.477051m. Speed=8.820000m/h.</desc>
<speed>2.450000</speed>
</trkpt>
<trkpt lat="22.066319" lon="103.869034">
<ele>598.336426</ele>
<time>2011-04-25T11:02:10Z</time>
<desc>lat.=22.066319, lon.=103.869034, Alt.=598.336426m. Speed=8.316000m/h.</desc>
<speed>2.310000</speed>
</trkpt>
<trkpt lat="22.066256" lon="103.869179">
<ele>601.195801</ele>
<time>2011-04-25T11:02:15Z</time>
<desc>lat.=22.066256, lon.=103.869179, Alt.=601.195801m. Speed=12.996000m/h.</desc>
<speed>3.610000</speed>
</trkpt>
<trkpt lat="22.066175" lon="103.869339">
<ele>604.383301</ele>
<time>2011-04-25T11:02:20Z</time>
<desc>lat.=22.066175, lon.=103.869339, Alt.=604.383301m. Speed=9.864000m/h.</desc>
<speed>2.740000</speed>
</trkpt>
<trkpt lat="22.066084" lon="103.869476">
<ele>609.070801</ele>
<time>2011-04-25T11:02:25Z</time>
<desc>lat.=22.066084, lon.=103.869476, Alt.=609.070801m. Speed=13.644000m/h.</desc>
<speed>3.790000</speed>
</trkpt>
<trkpt lat="22.065981" lon="103.869637">
<ele>613.477051</ele>
<time>2011-04-25T11:02:30Z</time>
<desc>lat.=22.065981, lon.=103.869637, Alt.=613.477051m. Speed=12.708000m/h.</desc>
<speed>3.530000</speed>
</trkpt>
<trkpt lat="22.065868" lon="103.869789">
<ele>614.680176</ele>
<time>2011-04-25T11:02:35Z</time>
<desc>lat.=22.065868, lon.=103.869789, Alt.=614.680176m. Speed=14.184000m/h.</desc>
<speed>3.940000</speed>
</trkpt>
<trkpt lat="22.065754" lon="103.869957">
<ele>615.945801</ele>
<time>2011-04-25T11:02:40Z</time>
<desc>lat.=22.065754, lon.=103.869957, Alt.=615.945801m. Speed=15.516000m/h.</desc>
<speed>4.310000</speed>
</trkpt>
<trkpt lat="22.065622" lon="103.870148">
<ele>617.461426</ele>
<time>2011-04-25T11:02:45Z</time>
<desc>lat.=22.065622, lon.=103.870148, Alt.=617.461426m. Speed=17.568001m/h.</desc>
<speed>4.880000</speed>
</trkpt>
<trkpt lat="22.065521" lon="103.870346">
<ele>616.836426</ele>
<time>2011-04-25T11:02:50Z</time>
<desc>lat.=22.065521, lon.=103.870346, Alt.=616.836426m. Speed=17.172001m/h.</desc>
<speed>4.770000</speed>
</trkpt>
<trkpt lat="22.065367" lon="103.870522">
<ele>616.820801</ele>
<time>2011-04-25T11:02:55Z</time>
<desc>lat.=22.065367, lon.=103.870522, Alt.=616.820801m. Speed=18.576000m/h.</desc>
<speed>5.160000</speed>
</trkpt>
<trkpt lat="22.065184" lon="103.870659">
<ele>617.148926</ele>
<time>2011-04-25T11:03:00Z</time>
<desc>lat.=22.065184, lon.=103.870659, Alt.=617.148926m. Speed=17.496000m/h.</desc>
<speed>4.860000</speed>
</trkpt>
<trkpt lat="22.065025" lon="103.870811">
<ele>617.992676</ele>
<time>2011-04-25T11:03:05Z</time>
<desc>lat.=22.065025, lon.=103.870811, Alt.=617.992676m. Speed=16.344000m/h.</desc>
<speed>4.540000</speed>
</trkpt>
<trkpt lat="22.064939" lon="103.870987">
<ele>618.852051</ele>
<time>2011-04-25T11:03:10Z</time>
<desc>lat.=22.064939, lon.=103.870987, Alt.=618.852051m. Speed=13.176000m/h.</desc>
<speed>3.660000</speed>
</trkpt>
<trkpt lat="22.064899" lon="103.871155">
<ele>616.367676</ele>
<time>2011-04-25T11:03:15Z</time>
<desc>lat.=22.064899, lon.=103.871155, Alt.=616.367676m. Speed=10.476000m/h.</desc>
<speed>2.910000</speed>
</trkpt>
<trkpt lat="22.064905" lon="103.871300">
<ele>612.508301</ele>
<time>2011-04-25T11:03:20Z</time>
<desc>lat.=22.064905, lon.=103.871300, Alt.=612.508301m. Speed=7.272000m/h.</desc>
<speed>2.020000</speed>
</trkpt>
<trkpt lat="22.064920" lon="103.871407">
<ele>611.367676</ele>
<time>2011-04-25T11:03:25Z</time>
<desc>lat.=22.064920, lon.=103.871407, Alt.=611.367676m. Speed=8.172000m/h.</desc>
<speed>2.270000</speed>
</trkpt>
<trkpt lat="22.064953" lon="103.871513">
<ele>607.898926</ele>
<time>2011-04-25T11:03:30Z</time>
<desc>lat.=22.064953, lon.=103.871513, Alt.=607.898926m. Speed=6.264000m/h.</desc>
<speed>1.740000</speed>
</trkpt>
<trkpt lat="22.064972" lon="103.871582">
<ele>605.664551</ele>
<time>2011-04-25T11:03:35Z</time>
<desc>lat.=22.064972, lon.=103.871582, Alt.=605.664551m. Speed=0.180000m/h.</desc>
<speed>0.050000</speed>
</trkpt>
<trkpt lat="22.064966" lon="103.871597">
<ele>604.758301</ele>
<time>2011-04-25T11:03:40Z</time>
<desc>lat.=22.064966, lon.=103.871597, Alt.=604.758301m. Speed=0.756000m/h.</desc>
<speed>0.210000</speed>
</trkpt>
<trkpt lat="22.064962" lon="103.871605">
<ele>604.727051</ele>
<time>2011-04-25T11:03:45Z</time>
<desc>lat.=22.064962, lon.=103.871605, Alt.=604.727051m. Speed=0.432000m/h.</desc>
<speed>0.120000</speed>
</trkpt>
<trkpt lat="22.064959" lon="103.871605">
<ele>604.680176</ele>
<time>2011-04-25T11:03:50Z</time>
<desc>lat.=22.064959, lon.=103.871605, Alt.=604.680176m. Speed=0.540000m/h.</desc>
<speed>0.150000</speed>
</trkpt>
<trkpt lat="22.064955" lon="103.871605">
<ele>604.711426</ele>
<time>2011-04-25T11:03:55Z</time>
<desc>lat.=22.064955, lon.=103.871605, Alt.=604.711426m. Speed=0.288000m/h.</desc>
<speed>0.080000</speed>
</trkpt>
<trkpt lat="22.064957" lon="103.871605">
<ele>604.711426</ele>
<time>2011-04-25T11:04:00Z</time>
<desc>lat.=22.064957, lon.=103.871605, Alt.=604.711426m. Speed=0.576000m/h.</desc>
<speed>0.160000</speed>
</trkpt>
<trkpt lat="22.064978" lon="103.871666">
<ele>604.727051</ele>
<time>2011-04-25T11:04:05Z</time>
<desc>lat.=22.064978, lon.=103.871666, Alt.=604.727051m. Speed=8.424000m/h.</desc>
<speed>2.340000</speed>
</trkpt>
<trkpt lat="22.065016" lon="103.871773">
<ele>604.945801</ele>
<time>2011-04-25T11:04:10Z</time>
<desc>lat.=22.065016, lon.=103.871773, Alt.=604.945801m. Speed=9.468000m/h.</desc>
<speed>2.630000</speed>
</trkpt>
<trkpt lat="22.065039" lon="103.871910">
<ele>604.461426</ele>
<time>2011-04-25T11:04:15Z</time>
<desc>lat.=22.065039, lon.=103.871910, Alt.=604.461426m. Speed=9.468000m/h.</desc>
<speed>2.630000</speed>
</trkpt>
<trkpt lat="22.065067" lon="103.872055">
<ele>603.539551</ele>
<time>2011-04-25T11:04:20Z</time>
<desc>lat.=22.065067, lon.=103.872055, Alt.=603.539551m. Speed=9.252000m/h.</desc>
<speed>2.570000</speed>
</trkpt>
<trkpt lat="22.065086" lon="103.872162">
<ele>603.164551</ele>
<time>2011-04-25T11:04:25Z</time>
<desc>lat.=22.065086, lon.=103.872162, Alt.=603.164551m. Speed=6.192000m/h.</desc>
<speed>1.720000</speed>
</trkpt>
<trkpt lat="22.065104" lon="103.872246">
<ele>601.977051</ele>
<time>2011-04-25T11:04:30Z</time>
<desc>lat.=22.065104, lon.=103.872246, Alt.=601.977051m. Speed=4.644000m/h.</desc>
<speed>1.290000</speed>
</trkpt>
<trkpt lat="22.065121" lon="103.872269">
<ele>601.336426</ele>
<time>2011-04-25T11:04:35Z</time>
<desc>lat.=22.065121, lon.=103.872269, Alt.=601.336426m. Speed=0.324000m/h.</desc>
<speed>0.090000</speed>
</trkpt>
<trkpt lat="22.065121" lon="103.872284">
<ele>601.414551</ele>
<time>2011-04-25T11:04:40Z</time>
<desc>lat.=22.065121, lon.=103.872284, Alt.=601.414551m. Speed=0.648000m/h.</desc>
<speed>0.180000</speed>
</trkpt>
<trkpt lat="22.065121" lon="103.872284">
<ele>601.414551</ele>
<time>2011-04-25T11:04:45Z</time>
<desc>lat.=22.065121, lon.=103.872284, Alt.=601.414551m. Speed=0.108000m/h.</desc>
<speed>0.030000</speed>
</trkpt>
<trkpt lat="22.065123" lon="103.872284">
<ele>601.414551</ele>
<time>2011-04-25T11:04:50Z</time>
<desc>lat.=22.065123, lon.=103.872284, Alt.=601.414551m. Speed=0.540000m/h.</desc>
<speed>0.150000</speed>
</trkpt>
<trkpt lat="22.065128" lon="103.872284">
<ele>601.367676</ele>
<time>2011-04-25T11:04:55Z</time>
<desc>lat.=22.065128, lon.=103.872284, Alt.=601.367676m. Speed=1.980000m/h.</desc>
<speed>0.550000</speed>
</trkpt>
<trkpt lat="22.065153" lon="103.872353">
<ele>600.633301</ele>
<time>2011-04-25T11:05:00Z</time>
<desc>lat.=22.065153, lon.=103.872353, Alt.=600.633301m. Speed=7.236000m/h.</desc>
<speed>2.010000</speed>
</trkpt>
<trkpt lat="22.065166" lon="103.872490">
<ele>601.805176</ele>
<time>2011-04-25T11:05:05Z</time>
<desc>lat.=22.065166, lon.=103.872490, Alt.=601.805176m. Speed=9.648000m/h.</desc>
<speed>2.680000</speed>
</trkpt>
<trkpt lat="22.065165" lon="103.872597">
<ele>601.633301</ele>
<time>2011-04-25T11:05:10Z</time>
<desc>lat.=22.065165, lon.=103.872597, Alt.=601.633301m. Speed=6.444000m/h.</desc>
<speed>1.790000</speed>
</trkpt>
<trkpt lat="22.065161" lon="103.872620">
<ele>601.570801</ele>
<time>2011-04-25T11:05:15Z</time>
<desc>lat.=22.065161, lon.=103.872620, Alt.=601.570801m. Speed=0.324000m/h.</desc>
<speed>0.090000</speed>
</trkpt>
<trkpt lat="22.065165" lon="103.872612">
<ele>601.617676</ele>
<time>2011-04-25T11:05:20Z</time>
<desc>lat.=22.065165, lon.=103.872612, Alt.=601.617676m. Speed=0.180000m/h.</desc>
<speed>0.050000</speed>
</trkpt>
<trkpt lat="22.065166" lon="103.872612">
<ele>601.758301</ele>
<time>2011-04-25T11:05:25Z</time>
<desc>lat.=22.065166, lon.=103.872612, Alt.=601.758301m. Speed=0.360000m/h.</desc>
<speed>0.100000</speed>
</trkpt>
<trkpt lat="22.065166" lon="103.872620">
<ele>601.820801</ele>
<time>2011-04-25T11:05:30Z</time>
<desc>lat.=22.065166, lon.=103.872620, Alt.=601.820801m. Speed=0.036000m/h.</desc>
<speed>0.010000</speed>
</trkpt>
<trkpt lat="22.065166" lon="103.872612">
<ele>601.805176</ele>
<time>2011-04-25T11:05:35Z</time>
<desc>lat.=22.065166, lon.=103.872612, Alt.=601.805176m. Speed=0.072000m/h.</desc>
<speed>0.020000</speed>
</trkpt>
<trkpt lat="22.065166" lon="103.872612">
<ele>601.773926</ele>
<time>2011-04-25T11:05:40Z</time>
<desc>lat.=22.065166, lon.=103.872612, Alt.=601.773926m. Speed=0.000000m/h.</desc>
<speed>0.000000</speed>
</trkpt>
<trkpt lat="22.065166" lon="103.872612">
<ele>601.758301</ele>
<time>2011-04-25T11:05:45Z</time>
<desc>lat.=22.065166, lon.=103.872612, Alt.=601.758301m. Speed=0.036000m/h.</desc>
<speed>0.010000</speed>
</trkpt>
<trkpt lat="22.065166" lon="103.872612">
<ele>601.758301</ele>
<time>2011-04-25T11:05:50Z</time>
<desc>lat.=22.065166, lon.=103.872612, Alt.=601.758301m. Speed=0.036000m/h.</desc>
<speed>0.010000</speed>
</trkpt>
<trkpt lat="22.065166" lon="103.872612">
<ele>601.758301</ele>
<time>2011-04-25T11:05:55Z</time>
<desc>lat.=22.065166, lon.=103.872612, Alt.=601.758301m. Speed=0.000000m/h.</desc>
<speed>0.000000</speed>
</trkpt>
<trkpt lat="22.065166" lon="103.872612">
<ele>601.758301</ele>
<time>2011-04-25T11:06:00Z</time>
<desc>lat.=22.065166, lon.=103.872612, Alt.=601.758301m. Speed=0.036000m/h.</desc>
<speed>0.010000</speed>
</trkpt>
<trkpt lat="22.065166" lon="103.872612">
<ele>601.758301</ele>
<time>2011-04-25T11:06:05Z</time>
<desc>lat.=22.065166, lon.=103.872612, Alt.=601.758301m. Speed=0.036000m/h.</desc>
<speed>0.010000</speed>
</trkpt>
<trkpt lat="22.065166" lon="103.872612">
<ele>601.742676</ele>
<time>2011-04-25T11:06:10Z</time>
<desc>lat.=22.065166, lon.=103.872612, Alt.=601.742676m. Speed=0.000000m/h.</desc>
<speed>0.000000</speed>
</trkpt>
<trkpt lat="22.065166" lon="103.872612">
<ele>601.742676</ele>
<time>2011-04-25T11:06:15Z</time>
<desc>lat.=22.065166, lon.=103.872612, Alt.=601.742676m. Speed=0.000000m/h.</desc>
<speed>0.000000</speed>
</trkpt>
<trkpt lat="22.065166" lon="103.872620">
<ele>601.727051</ele>
<time>2011-04-25T11:06:20Z</time>
<desc>lat.=22.065166, lon.=103.872620, Alt.=601.727051m. Speed=0.072000m/h.</desc>
<speed>0.020000</speed>
</trkpt>
<trkpt lat="22.065166" lon="103.872620">
<ele>601.727051</ele>
<time>2011-04-25T11:06:25Z</time>
<desc>lat.=22.065166, lon.=103.872620, Alt.=601.727051m. Speed=0.000000m/h.</desc>
<speed>0.000000</speed>
</trkpt>
<trkpt lat="22.065166" lon="103.872620">
<ele>601.742676</ele>
<time>2011-04-25T11:06:30Z</time>
<desc>lat.=22.065166, lon.=103.872620, Alt.=601.742676m. Speed=0.000000m/h.</desc>
<speed>0.000000</speed>
</trkpt>
<trkpt lat="22.065166" lon="103.872620">
<ele>601.742676</ele>
<time>2011-04-25T11:06:35Z</time>
<desc>lat.=22.065166, lon.=103.872620, Alt.=601.742676m. Speed=0.000000m/h.</desc>
<speed>0.000000</speed>
</trkpt>
<trkpt lat="22.065166" lon="103.872620">
<ele>601.742676</ele>
<time>2011-04-25T11:06:40Z</time>
<desc>lat.=22.065166, lon.=103.872620, Alt.=601.742676m. Speed=0.072000m/h.</desc>
<speed>0.020000</speed>
</trkpt>
<trkpt lat="22.065166" lon="103.872620">
<ele>601.742676</ele>
<time>2011-04-25T11:06:45Z</time>
<desc>lat.=22.065166, lon.=103.872620, Alt.=601.742676m. Speed=0.180000m/h.</desc>
<speed>0.050000</speed>
</trkpt>
<trkpt lat="22.065168" lon="103.872612">
<ele>601.742676</ele>
<time>2011-04-25T11:06:50Z</time>
<desc>lat.=22.065168, lon.=103.872612, Alt.=601.742676m. Speed=0.036000m/h.</desc>
<speed>0.010000</speed>
</trkpt>
<trkpt lat="22.065168" lon="103.872612">
<ele>601.742676</ele>
<time>2011-04-25T11:06:55Z</time>
<desc>lat.=22.065168, lon.=103.872612, Alt.=601.742676m. Speed=0.000000m/h.</desc>
<speed>0.000000</speed>
</trkpt>
<trkpt lat="22.065168" lon="103.872612">
<ele>601.773926</ele>
<time>2011-04-25T11:07:00Z</time>
<desc>lat.=22.065168, lon.=103.872612, Alt.=601.773926m. Speed=0.036000m/h.</desc>
<speed>0.010000</speed>
</trkpt>
<trkpt lat="22.065168" lon="103.872612">
<ele>601.805176</ele>
<time>2011-04-25T11:07:05Z</time>
<desc>lat.=22.065168, lon.=103.872612, Alt.=601.805176m. Speed=0.036000m/h.</desc>
<speed>0.010000</speed>
</trkpt>
<trkpt lat="22.065168" lon="103.872620">
<ele>601.805176</ele>
<time>2011-04-25T11:07:10Z</time>
<desc>lat.=22.065168, lon.=103.872620, Alt.=601.805176m. Speed=0.036000m/h.</desc>
<speed>0.010000</speed>
</trkpt>
<trkpt lat="22.065168" lon="103.872620">
<ele>601.820801</ele>
<time>2011-04-25T11:07:15Z</time>
<desc>lat.=22.065168, lon.=103.872620, Alt.=601.820801m. Speed=0.000000m/h.</desc>
<speed>0.000000</speed>
</trkpt>
<trkpt lat="22.065168" lon="103.872620">
<ele>601.805176</ele>
<time>2011-04-25T11:07:20Z</time>
<desc>lat.=22.065168, lon.=103.872620, Alt.=601.805176m. Speed=0.036000m/h.</desc>
<speed>0.010000</speed>
</trkpt>
<trkpt lat="22.065168" lon="103.872620">
<ele>601.820801</ele>
<time>2011-04-25T11:07:25Z</time>
<desc>lat.=22.065168, lon.=103.872620, Alt.=601.820801m. Speed=0.000000m/h.</desc>
<speed>0.000000</speed>
</trkpt>
<trkpt lat="22.065168" lon="103.872620">
<ele>601.805176</ele>
<time>2011-04-25T11:07:30Z</time>
<desc>lat.=22.065168, lon.=103.872620, Alt.=601.805176m. Speed=0.036000m/h.</desc>
<speed>0.010000</speed>
</trkpt>
<trkpt lat="22.065168" lon="103.872620">
<ele>601.836426</ele>
<time>2011-04-25T11:07:35Z</time>
<desc>lat.=22.065168, lon.=103.872620, Alt.=601.836426m. Speed=0.036000m/h.</desc>
<speed>0.010000</speed>
</trkpt>
<trkpt lat="22.065168" lon="103.872620">
<ele>601.852051</ele>
<time>2011-04-25T11:07:40Z</time>
<desc>lat.=22.065168, lon.=103.872620, Alt.=601.852051m. Speed=0.036000m/h.</desc>
<speed>0.010000</speed>
</trkpt>
<trkpt lat="22.065168" lon="103.872620">
<ele>601.852051</ele>
<time>2011-04-25T11:07:45Z</time>
<desc>lat.=22.065168, lon.=103.872620, Alt.=601.852051m. Speed=0.036000m/h.</desc>
<speed>0.010000</speed>
</trkpt>
<trkpt lat="22.065168" lon="103.872620">
<ele>601.867676</ele>
<time>2011-04-25T11:07:50Z</time>
<desc>lat.=22.065168, lon.=103.872620, Alt.=601.867676m. Speed=0.036000m/h.</desc>
<speed>0.010000</speed>
</trkpt>
<trkpt lat="22.065168" lon="103.872620">
<ele>601.867676</ele>
<time>2011-04-25T11:07:55Z</time>
<desc>lat.=22.065168, lon.=103.872620, Alt.=601.867676m. Speed=0.072000m/h.</desc>
<speed>0.020000</speed>
</trkpt>
<trkpt lat="22.065168" lon="103.872620">
<ele>601.883301</ele>
<time>2011-04-25T11:08:00Z</time>
<desc>lat.=22.065168, lon.=103.872620, Alt.=601.883301m. Speed=0.036000m/h.</desc>
<speed>0.010000</speed>
</trkpt>
<trkpt lat="22.065168" lon="103.872620">
<ele>601.883301</ele>
<time>2011-04-25T11:08:05Z</time>
<desc>lat.=22.065168, lon.=103.872620, Alt.=601.883301m. Speed=0.000000m/h.</desc>
<speed>0.000000</speed>
</trkpt>
<trkpt lat="22.065168" lon="103.872620">
<ele>601.883301</ele>
<time>2011-04-25T11:08:10Z</time>
<desc>lat.=22.065168, lon.=103.872620, Alt.=601.883301m. Speed=0.000000m/h.</desc>
<speed>0.000000</speed>
</trkpt>
<trkpt lat="22.065168" lon="103.872620">
<ele>601.867676</ele>
<time>2011-04-25T11:08:15Z</time>
<desc>lat.=22.065168, lon.=103.872620, Alt.=601.867676m. Speed=0.000000m/h.</desc>
<speed>0.000000</speed>
</trkpt>
<trkpt lat="22.065168" lon="103.872620">
<ele>601.836426</ele>
<time>2011-04-25T11:08:20Z</time>
<desc>lat.=22.065168, lon.=103.872620, Alt.=601.836426m. Speed=0.036000m/h.</desc>
<speed>0.010000</speed>
</trkpt>
<trkpt lat="22.065168" lon="103.872620">
<ele>601.820801</ele>
<time>2011-04-25T11:08:25Z</time>
<desc>lat.=22.065168, lon.=103.872620, Alt.=601.820801m. Speed=0.036000m/h.</desc>
<speed>0.010000</speed>
</trkpt>
<trkpt lat="22.065168" lon="103.872620">
<ele>601.836426</ele>
<time>2011-04-25T11:08:30Z</time>
<desc>lat.=22.065168, lon.=103.872620, Alt.=601.836426m. Speed=0.000000m/h.</desc>
<speed>0.000000</speed>
</trkpt>
<trkpt lat="22.065168" lon="103.872620">
<ele>601.836426</ele>
<time>2011-04-25T11:08:35Z</time>
<desc>lat.=22.065168, lon.=103.872620, Alt.=601.836426m. Speed=0.036000m/h.</desc>
<speed>0.010000</speed>
</trkpt>
<trkpt lat="22.065168" lon="103.872620">
<ele>601.867676</ele>
<time>2011-04-25T11:08:40Z</time>
<desc>lat.=22.065168, lon.=103.872620, Alt.=601.867676m. Speed=0.000000m/h.</desc>
<speed>0.000000</speed>
</trkpt>
<trkpt lat="22.065166" lon="103.872620">
<ele>601.867676</ele>
<time>2011-04-25T11:08:45Z</time>
<desc>lat.=22.065166, lon.=103.872620, Alt.=601.867676m. Speed=0.036000m/h.</desc>
<speed>0.010000</speed>
</trkpt>
<trkpt lat="22.065166" lon="103.872620">
<ele>601.852051</ele>
<time>2011-04-25T11:08:50Z</time>
<desc>lat.=22.065166, lon.=103.872620, Alt.=601.852051m. Speed=0.000000m/h.</desc>
<speed>0.000000</speed>
</trkpt>
<trkpt lat="22.065166" lon="103.872620">
<ele>601.852051</ele>
<time>2011-04-25T11:08:55Z</time>
<desc>lat.=22.065166, lon.=103.872620, Alt.=601.852051m. Speed=0.036000m/h.</desc>
<speed>0.010000</speed>
</trkpt>
<trkpt lat="22.065166" lon="103.872620">
<ele>601.852051</ele>
<time>2011-04-25T11:09:00Z</time>
<desc>lat.=22.065166, lon.=103.872620, Alt.=601.852051m. Speed=0.000000m/h.</desc>
<speed>0.000000</speed>
</trkpt>
<trkpt lat="22.065166" lon="103.872620">
<ele>601.836426</ele>
<time>2011-04-25T11:09:05Z</time>
<desc>lat.=22.065166, lon.=103.872620, Alt.=601.836426m. Speed=0.036000m/h.</desc>
<speed>0.010000</speed>
</trkpt>
<trkpt lat="22.065166" lon="103.872620">
<ele>601.836426</ele>
<time>2011-04-25T11:09:10Z</time>
<desc>lat.=22.065166, lon.=103.872620, Alt.=601.836426m. Speed=0.036000m/h.</desc>
<speed>0.010000</speed>
</trkpt>
<trkpt lat="22.065168" lon="103.872620">
<ele>601.852051</ele>
<time>2011-04-25T11:09:15Z</time>
<desc>lat.=22.065168, lon.=103.872620, Alt.=601.852051m. Speed=0.036000m/h.</desc>
<speed>0.010000</speed>
</trkpt>
<trkpt lat="22.065168" lon="103.872620">
<ele>601.852051</ele>
<time>2011-04-25T11:09:20Z</time>
<desc>lat.=22.065168, lon.=103.872620, Alt.=601.852051m. Speed=0.000000m/h.</desc>
<speed>0.000000</speed>
</trkpt>
<trkpt lat="22.065166" lon="103.872620">
<ele>601.836426</ele>
<time>2011-04-25T11:09:25Z</time>
<desc>lat.=22.065166, lon.=103.872620, Alt.=601.836426m. Speed=0.036000m/h.</desc>
<speed>0.010000</speed>
</trkpt>
<trkpt lat="22.065166" lon="103.872620">
<ele>601.820801</ele>
<time>2011-04-25T11:09:30Z</time>
<desc>lat.=22.065166, lon.=103.872620, Alt.=601.820801m. Speed=0.000000m/h.</desc>
<speed>0.000000</speed>
</trkpt>
<trkpt lat="22.065168" lon="103.872620">
<ele>601.805176</ele>
<time>2011-04-25T11:09:35Z</time>
<desc>lat.=22.065168, lon.=103.872620, Alt.=601.805176m. Speed=0.036000m/h.</desc>
<speed>0.010000</speed>
</trkpt>
<trkpt lat="22.065168" lon="103.872620">
<ele>601.805176</ele>
<time>2011-04-25T11:09:40Z</time>
<desc>lat.=22.065168, lon.=103.872620, Alt.=601.805176m. Speed=0.036000m/h.</desc>
<speed>0.010000</speed>
</trkpt>
<trkpt lat="22.065168" lon="103.872620">
<ele>601.805176</ele>
<time>2011-04-25T11:09:45Z</time>
<desc>lat.=22.065168, lon.=103.872620, Alt.=601.805176m. Speed=0.000000m/h.</desc>
<speed>0.000000</speed>
</trkpt>
<trkpt lat="22.065168" lon="103.872620">
<ele>601.805176</ele>
<time>2011-04-25T11:09:50Z</time>
<desc>lat.=22.065168, lon.=103.872620, Alt.=601.805176m. Speed=0.000000m/h.</desc>
<speed>0.000000</speed>
</trkpt>
<trkpt lat="22.065168" lon="103.872620">
<ele>601.805176</ele>
<time>2011-04-25T11:09:55Z</time>
<desc>lat.=22.065168, lon.=103.872620, Alt.=601.805176m. Speed=0.108000m/h.</desc>
<speed>0.030000</speed>
</trkpt>
<trkpt lat="22.065168" lon="103.872620">
<ele>601.805176</ele>
<time>2011-04-25T11:10:00Z</time>
<desc>lat.=22.065168, lon.=103.872620, Alt.=601.805176m. Speed=0.036000m/h.</desc>
<speed>0.010000</speed>
</trkpt>
<trkpt lat="22.065168" lon="103.872620">
<ele>601.820801</ele>
<time>2011-04-25T11:10:05Z</time>
<desc>lat.=22.065168, lon.=103.872620, Alt.=601.820801m. Speed=0.072000m/h.</desc>
<speed>0.020000</speed>
</trkpt>
<trkpt lat="22.065168" lon="103.872620">
<ele>601.820801</ele>
<time>2011-04-25T11:10:10Z</time>
<desc>lat.=22.065168, lon.=103.872620, Alt.=601.820801m. Speed=0.000000m/h.</desc>
<speed>0.000000</speed>
</trkpt>
<trkpt lat="22.065168" lon="103.872620">
<ele>601.836426</ele>
<time>2011-04-25T11:10:15Z</time>
<desc>lat.=22.065168, lon.=103.872620, Alt.=601.836426m. Speed=0.036000m/h.</desc>
<speed>0.010000</speed>
</trkpt>
<trkpt lat="22.065168" lon="103.872620">
<ele>601.820801</ele>
<time>2011-04-25T11:10:20Z</time>
<desc>lat.=22.065168, lon.=103.872620, Alt.=601.820801m. Speed=0.036000m/h.</desc>
<speed>0.010000</speed>
</trkpt>
<trkpt lat="22.065168" lon="103.872620">
<ele>601.789551</ele>
<time>2011-04-25T11:10:25Z</time>
<desc>lat.=22.065168, lon.=103.872620, Alt.=601.789551m. Speed=0.072000m/h.</desc>
<speed>0.020000</speed>
</trkpt>
<trkpt lat="22.065168" lon="103.872620">
<ele>601.742676</ele>
<time>2011-04-25T11:10:30Z</time>
<desc>lat.=22.065168, lon.=103.872620, Alt.=601.742676m. Speed=0.072000m/h.</desc>
<speed>0.020000</speed>
</trkpt>
<trkpt lat="22.065168" lon="103.872620">
<ele>601.758301</ele>
<time>2011-04-25T11:10:35Z</time>
<desc>lat.=22.065168, lon.=103.872620, Alt.=601.758301m. Speed=0.108000m/h.</desc>
<speed>0.030000</speed>
</trkpt>
<trkpt lat="22.065168" lon="103.872620">
<ele>601.773926</ele>
<time>2011-04-25T11:10:40Z</time>
<desc>lat.=22.065168, lon.=103.872620, Alt.=601.773926m. Speed=0.000000m/h.</desc>
<speed>0.000000</speed>
</trkpt>
<trkpt lat="22.065168" lon="103.872620">
<ele>601.695801</ele>
<time>2011-04-25T11:10:45Z</time>
<desc>lat.=22.065168, lon.=103.872620, Alt.=601.695801m. Speed=0.072000m/h.</desc>
<speed>0.020000</speed>
</trkpt>
<trkpt lat="22.065168" lon="103.872620">
<ele>601.648926</ele>
<time>2011-04-25T11:10:50Z</time>
<desc>lat.=22.065168, lon.=103.872620, Alt.=601.648926m. Speed=0.036000m/h.</desc>
<speed>0.010000</speed>
</trkpt>
<trkpt lat="22.065168" lon="103.872620">
<ele>601.633301</ele>
<time>2011-04-25T11:10:55Z</time>
<desc>lat.=22.065168, lon.=103.872620, Alt.=601.633301m. Speed=0.000000m/h.</desc>
<speed>0.000000</speed>
</trkpt>
<trkpt lat="22.065168" lon="103.872620">
<ele>601.633301</ele>
<time>2011-04-25T11:11:00Z</time>
<desc>lat.=22.065168, lon.=103.872620, Alt.=601.633301m. Speed=0.000000m/h.</desc>
<speed>0.000000</speed>
</trkpt>
<trkpt lat="22.065168" lon="103.872620">
<ele>601.648926</ele>
<time>2011-04-25T11:11:05Z</time>
<desc>lat.=22.065168, lon.=103.872620, Alt.=601.648926m. Speed=0.108000m/h.</desc>
<speed>0.030000</speed>
</trkpt>
<trkpt lat="22.065168" lon="103.872620">
<ele>601.617676</ele>
<time>2011-04-25T11:11:10Z</time>
<desc>lat.=22.065168, lon.=103.872620, Alt.=601.617676m. Speed=0.036000m/h.</desc>
<speed>0.010000</speed>
</trkpt>
<trkpt lat="22.065168" lon="103.872620">
<ele>601.602051</ele>
<time>2011-04-25T11:11:15Z</time>
<desc>lat.=22.065168, lon.=103.872620, Alt.=601.602051m. Speed=0.108000m/h.</desc>
<speed>0.030000</speed>
</trkpt>
<trkpt lat="22.065168" lon="103.872620">
<ele>601.586426</ele>
<time>2011-04-25T11:11:20Z</time>
<desc>lat.=22.065168, lon.=103.872620, Alt.=601.586426m. Speed=0.144000m/h.</desc>
<speed>0.040000</speed>
</trkpt>
<trkpt lat="22.065184" lon="103.872581">
<ele>602.086426</ele>
<time>2011-04-25T11:11:25Z</time>
<desc>lat.=22.065184, lon.=103.872581, Alt.=602.086426m. Speed=6.696000m/h.</desc>
<speed>1.860000</speed>
</trkpt>
<trkpt lat="22.065184" lon="103.872459">
<ele>602.242676</ele>
<time>2011-04-25T11:11:30Z</time>
<desc>lat.=22.065184, lon.=103.872459, Alt.=602.242676m. Speed=12.060000m/h.</desc>
<speed>3.350000</speed>
</trkpt>
<trkpt lat="22.065149" lon="103.872253">
<ele>601.070801</ele>
<time>2011-04-25T11:11:35Z</time>
<desc>lat.=22.065149, lon.=103.872253, Alt.=601.070801m. Speed=14.364000m/h.</desc>
<speed>3.990000</speed>
</trkpt>
<trkpt lat="22.065107" lon="103.872078">
<ele>598.586426</ele>
<time>2011-04-25T11:11:40Z</time>
<desc>lat.=22.065107, lon.=103.872078, Alt.=598.586426m. Speed=9.864000m/h.</desc>
<speed>2.740000</speed>
</trkpt>
<trkpt lat="22.065071" lon="103.871933">
<ele>598.523926</ele>
<time>2011-04-25T11:11:45Z</time>
<desc>lat.=22.065071, lon.=103.871933, Alt.=598.523926m. Speed=6.696000m/h.</desc>
<speed>1.860000</speed>
</trkpt>
<trkpt lat="22.065081" lon="103.871857">
<ele>597.742676</ele>
<time>2011-04-25T11:11:50Z</time>
<desc>lat.=22.065081, lon.=103.871857, Alt.=597.742676m. Speed=1.800000m/h.</desc>
<speed>0.500000</speed>
</trkpt>
<trkpt lat="22.065107" lon="103.871841">
<ele>597.242676</ele>
<time>2011-04-25T11:11:55Z</time>
<desc>lat.=22.065107, lon.=103.871841, Alt.=597.242676m. Speed=0.540000m/h.</desc>
<speed>0.150000</speed>
</trkpt>
<trkpt lat="22.065134" lon="103.871841">
<ele>597.023926</ele>
<time>2011-04-25T11:12:00Z</time>
<desc>lat.=22.065134, lon.=103.871841, Alt.=597.023926m. Speed=0.720000m/h.</desc>
<speed>0.200000</speed>
</trkpt>
<trkpt lat="22.065151" lon="103.871834">
<ele>596.836426</ele>
<time>2011-04-25T11:12:05Z</time>
<desc>lat.=22.065151, lon.=103.871834, Alt.=596.836426m. Speed=2.520000m/h.</desc>
<speed>0.700000</speed>
</trkpt>
<trkpt lat="22.065191" lon="103.871834">
<ele>596.539551</ele>
<time>2011-04-25T11:12:10Z</time>
<desc>lat.=22.065191, lon.=103.871834, Alt.=596.539551m. Speed=4.284000m/h.</desc>
<speed>1.190000</speed>
</trkpt>
<trkpt lat="22.065241" lon="103.871880">
<ele>596.305176</ele>
<time>2011-04-25T11:12:15Z</time>
<desc>lat.=22.065241, lon.=103.871880, Alt.=596.305176m. Speed=3.852000m/h.</desc>
<speed>1.070000</speed>
</trkpt>
<trkpt lat="22.065319" lon="103.871872">
<ele>596.070801</ele>
<time>2011-04-25T11:12:20Z</time>
<desc>lat.=22.065319, lon.=103.871872, Alt.=596.070801m. Speed=5.328000m/h.</desc>
<speed>1.480000</speed>
</trkpt>
<trkpt lat="22.065367" lon="103.871872">
<ele>595.945801</ele>
<time>2011-04-25T11:12:25Z</time>
<desc>lat.=22.065367, lon.=103.871872, Alt.=595.945801m. Speed=0.180000m/h.</desc>
<speed>0.050000</speed>
</trkpt>
<trkpt lat="22.065378" lon="103.871872">
<ele>597.180176</ele>
<time>2011-04-25T11:12:30Z</time>
<desc>lat.=22.065378, lon.=103.871872, Alt.=597.180176m. Speed=1.152000m/h.</desc>
<speed>0.320000</speed>
</trkpt>
<trkpt lat="22.065380" lon="103.871880">
<ele>597.617676</ele>
<time>2011-04-25T11:12:35Z</time>
<desc>lat.=22.065380, lon.=103.871880, Alt.=597.617676m. Speed=0.072000m/h.</desc>
<speed>0.020000</speed>
</trkpt>
<trkpt lat="22.065380" lon="103.871880">
<ele>597.664551</ele>
<time>2011-04-25T11:12:40Z</time>
<desc>lat.=22.065380, lon.=103.871880, Alt.=597.664551m. Speed=0.108000m/h.</desc>
<speed>0.030000</speed>
</trkpt>
<trkpt lat="22.065378" lon="103.871880">
<ele>597.727051</ele>
<time>2011-04-25T11:12:45Z</time>
<desc>lat.=22.065378, lon.=103.871880, Alt.=597.727051m. Speed=0.180000m/h.</desc>
<speed>0.050000</speed>
</trkpt>
<trkpt lat="22.065397" lon="103.871880">
<ele>598.133301</ele>
<time>2011-04-25T11:12:50Z</time>
<desc>lat.=22.065397, lon.=103.871880, Alt.=598.133301m. Speed=1.224000m/h.</desc>
<speed>0.340000</speed>
</trkpt>
<trkpt lat="22.065426" lon="103.871872">
<ele>597.695801</ele>
<time>2011-04-25T11:12:55Z</time>
<desc>lat.=22.065426, lon.=103.871872, Alt.=597.695801m. Speed=1.656000m/h.</desc>
<speed>0.460000</speed>
</trkpt>
<trkpt lat="22.065443" lon="103.871880">
<ele>597.898926</ele>
<time>2011-04-25T11:13:00Z</time>
<desc>lat.=22.065443, lon.=103.871880, Alt.=597.898926m. Speed=3.060000m/h.</desc>
<speed>0.850000</speed>
</trkpt>
<trkpt lat="22.065445" lon="103.871887">
<ele>598.727051</ele>
<time>2011-04-25T11:13:05Z</time>
<desc>lat.=22.065445, lon.=103.871887, Alt.=598.727051m. Speed=0.504000m/h.</desc>
<speed>0.140000</speed>
</trkpt>
<trkpt lat="22.065441" lon="103.871887">
<ele>599.023926</ele>
<time>2011-04-25T11:13:10Z</time>
<desc>lat.=22.065441, lon.=103.871887, Alt.=599.023926m. Speed=0.468000m/h.</desc>
<speed>0.130000</speed>
</trkpt>
<trkpt lat="22.065443" lon="103.871880">
<ele>599.258301</ele>
<time>2011-04-25T11:13:15Z</time>
<desc>lat.=22.065443, lon.=103.871880, Alt.=599.258301m. Speed=0.144000m/h.</desc>
<speed>0.040000</speed>
</trkpt>
<trkpt lat="22.065468" lon="103.871864">
<ele>599.242676</ele>
<time>2011-04-25T11:13:20Z</time>
<desc>lat.=22.065468, lon.=103.871864, Alt.=599.242676m. Speed=1.008000m/h.</desc>
<speed>0.280000</speed>
</trkpt>
<trkpt lat="22.065474" lon="103.871864">
<ele>599.148926</ele>
<time>2011-04-25T11:13:25Z</time>
<desc>lat.=22.065474, lon.=103.871864, Alt.=599.148926m. Speed=0.216000m/h.</desc>
<speed>0.060000</speed>
</trkpt>
<trkpt lat="22.065487" lon="103.871902">
<ele>599.039551</ele>
<time>2011-04-25T11:13:30Z</time>
<desc>lat.=22.065487, lon.=103.871902, Alt.=599.039551m. Speed=3.744000m/h.</desc>
<speed>1.040000</speed>
</trkpt>
<trkpt lat="22.065495" lon="103.871948">
<ele>599.180176</ele>
<time>2011-04-25T11:13:35Z</time>
<desc>lat.=22.065495, lon.=103.871948, Alt.=599.180176m. Speed=2.880000m/h.</desc>
<speed>0.800000</speed>
</trkpt>
<trkpt lat="22.065487" lon="103.871971">
<ele>599.242676</ele>
<time>2011-04-25T11:13:40Z</time>
<desc>lat.=22.065487, lon.=103.871971, Alt.=599.242676m. Speed=0.900000m/h.</desc>
<speed>0.250000</speed>
</trkpt>
<trkpt lat="22.065487" lon="103.871986">
<ele>599.305176</ele>
<time>2011-04-25T11:13:45Z</time>
<desc>lat.=22.065487, lon.=103.871986, Alt.=599.305176m. Speed=3.348000m/h.</desc>
<speed>0.930000</speed>
</trkpt>
<trkpt lat="22.065508" lon="103.872025">
<ele>598.961426</ele>
<time>2011-04-25T11:13:50Z</time>
<desc>lat.=22.065508, lon.=103.872025, Alt.=598.961426m. Speed=4.932000m/h.</desc>
<speed>1.370000</speed>
</trkpt>
<trkpt lat="22.065552" lon="103.872055">
<ele>598.773926</ele>
<time>2011-04-25T11:13:55Z</time>
<desc>lat.=22.065552, lon.=103.872055, Alt.=598.773926m. Speed=4.212000m/h.</desc>
<speed>1.170000</speed>
</trkpt>
<trkpt lat="22.065577" lon="103.872101">
<ele>598.867676</ele>
<time>2011-04-25T11:14:00Z</time>
<desc>lat.=22.065577, lon.=103.872101, Alt.=598.867676m. Speed=3.996000m/h.</desc>
<speed>1.110000</speed>
</trkpt>
<trkpt lat="22.065599" lon="103.872154">
<ele>598.836426</ele>
<time>2011-04-25T11:14:05Z</time>
<desc>lat.=22.065599, lon.=103.872154, Alt.=598.836426m. Speed=4.284000m/h.</desc>
<speed>1.190000</speed>
</trkpt>
<trkpt lat="22.065605" lon="103.872192">
<ele>598.664551</ele>
<time>2011-04-25T11:14:10Z</time>
<desc>lat.=22.065605, lon.=103.872192, Alt.=598.664551m. Speed=1.548000m/h.</desc>
<speed>0.430000</speed>
</trkpt>
<trkpt lat="22.065617" lon="103.872200">
<ele>597.789551</ele>
<time>2011-04-25T11:14:15Z</time>
<desc>lat.=22.065617, lon.=103.872200, Alt.=597.789551m. Speed=1.764000m/h.</desc>
<speed>0.490000</speed>
</trkpt>
<trkpt lat="22.065620" lon="103.872223">
<ele>597.398926</ele>
<time>2011-04-25T11:14:20Z</time>
<desc>lat.=22.065620, lon.=103.872223, Alt.=597.398926m. Speed=0.432000m/h.</desc>
<speed>0.120000</speed>
</trkpt>
<trkpt lat="22.065626" lon="103.872238">
<ele>598.352051</ele>
<time>2011-04-25T11:14:25Z</time>
<desc>lat.=22.065626, lon.=103.872238, Alt.=598.352051m. Speed=0.540000m/h.</desc>
<speed>0.150000</speed>
</trkpt>
<trkpt lat="22.065630" lon="103.872238">
<ele>598.852051</ele>
<time>2011-04-25T11:14:30Z</time>
<desc>lat.=22.065630, lon.=103.872238, Alt.=598.852051m. Speed=1.404000m/h.</desc>
<speed>0.390000</speed>
</trkpt>
<trkpt lat="22.065651" lon="103.872246">
<ele>599.477051</ele>
<time>2011-04-25T11:14:35Z</time>
<desc>lat.=22.065651, lon.=103.872246, Alt.=599.477051m. Speed=1.296000m/h.</desc>
<speed>0.360000</speed>
</trkpt>
<trkpt lat="22.065662" lon="103.872269">
<ele>600.023926</ele>
<time>2011-04-25T11:14:40Z</time>
<desc>lat.=22.065662, lon.=103.872269, Alt.=600.023926m. Speed=0.396000m/h.</desc>
<speed>0.110000</speed>
</trkpt>
<trkpt lat="22.065668" lon="103.872269">
<ele>600.430176</ele>
<time>2011-04-25T11:14:45Z</time>
<desc>lat.=22.065668, lon.=103.872269, Alt.=600.430176m. Speed=3.204000m/h.</desc>
<speed>0.890000</speed>
</trkpt>
<trkpt lat="22.065697" lon="103.872292">
<ele>600.586426</ele>
<time>2011-04-25T11:14:50Z</time>
<desc>lat.=22.065697, lon.=103.872292, Alt.=600.586426m. Speed=3.132000m/h.</desc>
<speed>0.870000</speed>
</trkpt>
<trkpt lat="22.065733" lon="103.872314">
<ele>600.852051</ele>
<time>2011-04-25T11:14:55Z</time>
<desc>lat.=22.065733, lon.=103.872314, Alt.=600.852051m. Speed=2.772000m/h.</desc>
<speed>0.770000</speed>
</trkpt>
<trkpt lat="22.065741" lon="103.872345">
<ele>601.180176</ele>
<time>2011-04-25T11:15:00Z</time>
<desc>lat.=22.065741, lon.=103.872345, Alt.=601.180176m. Speed=2.412000m/h.</desc>
<speed>0.670000</speed>
</trkpt>
<trkpt lat="22.065756" lon="103.872391">
<ele>601.555176</ele>
<time>2011-04-25T11:15:05Z</time>
<desc>lat.=22.065756, lon.=103.872391, Alt.=601.555176m. Speed=2.808000m/h.</desc>
<speed>0.780000</speed>
</trkpt>
<trkpt lat="22.065779" lon="103.872421">
<ele>601.758301</ele>
<time>2011-04-25T11:15:10Z</time>
<desc>lat.=22.065779, lon.=103.872421, Alt.=601.758301m. Speed=3.708000m/h.</desc>
<speed>1.030000</speed>
</trkpt>
<trkpt lat="22.065788" lon="103.872475">
<ele>601.961426</ele>
<time>2011-04-25T11:15:15Z</time>
<desc>lat.=22.065788, lon.=103.872475, Alt.=601.961426m. Speed=4.176000m/h.</desc>
<speed>1.160000</speed>
</trkpt>
<trkpt lat="22.065790" lon="103.872536">
<ele>602.414551</ele>
<time>2011-04-25T11:15:20Z</time>
<desc>lat.=22.065790, lon.=103.872536, Alt.=602.414551m. Speed=2.520000m/h.</desc>
<speed>0.700000</speed>
</trkpt>
<trkpt lat="22.065794" lon="103.872581">
<ele>603.117676</ele>
<time>2011-04-25T11:15:25Z</time>
<desc>lat.=22.065794, lon.=103.872581, Alt.=603.117676m. Speed=4.032000m/h.</desc>
<speed>1.120000</speed>
</trkpt>
<trkpt lat="22.065804" lon="103.872635">
<ele>603.914551</ele>
<time>2011-04-25T11:15:30Z</time>
<desc>lat.=22.065804, lon.=103.872635, Alt.=603.914551m. Speed=3.924000m/h.</desc>
<speed>1.090000</speed>
</trkpt>
<trkpt lat="22.065804" lon="103.872681">
<ele>604.414551</ele>
<time>2011-04-25T11:15:35Z</time>
<desc>lat.=22.065804, lon.=103.872681, Alt.=604.414551m. Speed=3.528000m/h.</desc>
<speed>0.980000</speed>
</trkpt>
<trkpt lat="22.065796" lon="103.872719">
<ele>605.023926</ele>
<time>2011-04-25T11:15:40Z</time>
<desc>lat.=22.065796, lon.=103.872719, Alt.=605.023926m. Speed=0.972000m/h.</desc>
<speed>0.270000</speed>
</trkpt>
<trkpt lat="22.065794" lon="103.872726">
<ele>605.414551</ele>
<time>2011-04-25T11:15:45Z</time>
<desc>lat.=22.065794, lon.=103.872726, Alt.=605.414551m. Speed=0.720000m/h.</desc>
<speed>0.200000</speed>
</trkpt>
<trkpt lat="22.065790" lon="103.872726">
<ele>605.852051</ele>
<time>2011-04-25T11:15:50Z</time>
<desc>lat.=22.065790, lon.=103.872726, Alt.=605.852051m. Speed=0.216000m/h.</desc>
<speed>0.060000</speed>
</trkpt>
</trkseg>
</trk>
</gpx>